<?xml version='1.0' encoding='UTF-8'?><gpx version="1.1" creator="JPX - https://github.com/jenetics/jpx" xmlns="http://www.topografix.com/GPX/1/1"><trk><trkseg><trkpt lat="53.3519865" lon="-6.2627355"><ele>9.0</ele><time>2026-05-05T07:17:09.505Z</time></trkpt><trkpt lat="53.3520223" lon="-6.263079"><ele>9.0</ele><time>2026-05-05T07:17:17.808Z</time></trkpt><trkpt lat="53.3520014" lon="-6.2626518"><ele>9.0</ele><time>2026-05-05T07:17:25.319Z</time></trkpt><trkpt lat="53.3519769" lon="-6.2624926"><ele>9.0</ele><time>2026-05-05T07:17:31.894Z</time></trkpt><trkpt lat="53.3520337" lon="-6.2631578"><ele>9.0</ele><time>2026-05-05T07:17:45.032Z</time></trkpt><trkpt lat="53.3519438" lon="-6.2628339"><ele>9.0</ele><time>2026-05-05T07:17:56.213Z</time></trkpt><trkpt lat="53.3517986" lon="-6.2627897"><ele>9.0</ele><time>2026-05-05T07:17:59.212Z</time></trkpt><trkpt lat="53.3517288" lon="-6.2627548"><ele>9.0</ele><time>2026-05-05T07:18:01.213Z</time></trkpt><trkpt lat="53.3514582" lon="-6.2627707"><ele>9.0</ele><time>2026-05-05T07:18:05.213Z</time></trkpt><trkpt lat="53.3513996" lon="-6.2627261"><ele>9.0</ele><time>2026-05-05T07:18:41.212Z</time></trkpt><trkpt lat="53.3513369" lon="-6.2626946"><ele>9.0</ele><time>2026-05-05T07:19:08.213Z</time></trkpt><trkpt lat="53.3514548" lon="-6.2627443"><ele>9.0</ele><time>2026-05-05T07:19:44.213Z</time></trkpt><trkpt lat="53.3515436" lon="-6.2627462"><ele>9.0</ele><time>2026-05-05T07:19:48.213Z</time></trkpt><trkpt lat="53.351638" lon="-6.2627405"><ele>9.0</ele><time>2026-05-05T07:20:03.213Z</time></trkpt><trkpt lat="53.3516379" lon="-6.2626323"><ele>9.0</ele><time>2026-05-05T07:22:12.213Z</time></trkpt><trkpt lat="53.3517427" lon="-6.2626714"><ele>9.0</ele><time>2026-05-05T07:23:21.213Z</time></trkpt><trkpt lat="53.3517511" lon="-6.2628335"><ele>9.0</ele><time>2026-05-05T07:24:44.212Z</time></trkpt><trkpt lat="53.3518708" lon="-6.2629179"><ele>9.0</ele><time>2026-05-05T07:25:12.212Z</time></trkpt><trkpt lat="53.3518043" lon="-6.2628878"><ele>9.0</ele><time>2026-05-05T07:25:26.213Z</time></trkpt><trkpt lat="53.3517785" lon="-6.2627903"><ele>9.000000000000002</ele><time>2026-05-05T07:25:36.213Z</time></trkpt><trkpt lat="53.3517047" lon="-6.2628232"><ele>9.0</ele><time>2026-05-05T07:26:39.212Z</time></trkpt><trkpt lat="53.3516991" lon="-6.2627163"><ele>9.0</ele><time>2026-05-05T07:26:51.213Z</time></trkpt><trkpt lat="53.351702" lon="-6.262852"><ele>9.0</ele><time>2026-05-05T07:27:55.212Z</time></trkpt><trkpt lat="53.3517481" lon="-6.2629271"><ele>9.0</ele><time>2026-05-05T07:28:00.213Z</time></trkpt><trkpt lat="53.3518023" lon="-6.2629833"><ele>9.000000000000002</ele><time>2026-05-05T07:28:11.213Z</time></trkpt><trkpt lat="53.3517393" lon="-6.2629759"><ele>9.0</ele><time>2026-05-05T07:30:39.213Z</time></trkpt><trkpt lat="53.3516729" lon="-6.2629735"><ele>9.0</ele><time>2026-05-05T07:30:47.212Z</time></trkpt><trkpt lat="53.3515995" lon="-6.2629838"><ele>9.0</ele><time>2026-05-05T07:30:53.212Z</time></trkpt><trkpt lat="53.351562" lon="-6.2630901"><ele>9.0</ele><time>2026-05-05T07:30:58.211Z</time></trkpt><trkpt lat="53.3514935" lon="-6.2631793"><ele>9.0</ele><time>2026-05-05T07:31:02.212Z</time></trkpt><trkpt lat="53.3514428" lon="-6.2632545"><ele>9.0</ele><time>2026-05-05T07:31:04.212Z</time></trkpt><trkpt lat="53.3514055" lon="-6.2633575"><ele>9.0</ele><time>2026-05-05T07:31:06.212Z</time></trkpt><trkpt lat="53.3513759" lon="-6.2634933"><ele>9.2</ele><time>2026-05-05T07:31:08.211Z</time></trkpt><trkpt lat="53.351338" lon="-6.2636286"><ele>9.4</ele><time>2026-05-05T07:31:10.211Z</time></trkpt><trkpt lat="53.3512788" lon="-6.2637299"><ele>9.6</ele><time>2026-05-05T07:31:12.212Z</time></trkpt><trkpt lat="53.3512202" lon="-6.263849"><ele>9.8</ele><time>2026-05-05T07:31:14.211Z</time></trkpt><trkpt lat="53.3511353" lon="-6.2639433"><ele>10.0</ele><time>2026-05-05T07:31:16.212Z</time></trkpt><trkpt lat="53.3510671" lon="-6.2640489"><ele>10.142857142857142</ele><time>2026-05-05T07:31:18.212Z</time></trkpt><trkpt lat="53.3510312" lon="-6.2641701"><ele>10.285714285714286</ele><time>2026-05-05T07:31:21.212Z</time></trkpt><trkpt lat="53.3510018" lon="-6.2642708"><ele>10.428571428571429</ele><time>2026-05-05T07:31:23.212Z</time></trkpt><trkpt lat="53.3509621" lon="-6.2643806"><ele>10.571428571428571</ele><time>2026-05-05T07:31:26.212Z</time></trkpt><trkpt lat="53.3509093" lon="-6.2644593"><ele>10.714285714285714</ele><time>2026-05-05T07:31:30.212Z</time></trkpt><trkpt lat="53.3508567" lon="-6.2645393"><ele>10.857142857142858</ele><time>2026-05-05T07:31:38.211Z</time></trkpt><trkpt lat="53.3508201" lon="-6.2646324"><ele>11.0</ele><time>2026-05-05T07:31:40.212Z</time></trkpt><trkpt lat="53.3507624" lon="-6.2647419"><ele>11.0</ele><time>2026-05-05T07:31:42.212Z</time></trkpt><trkpt lat="53.3507044" lon="-6.2648935"><ele>11.0</ele><time>2026-05-05T07:31:44.211Z</time></trkpt><trkpt lat="53.3506615" lon="-6.2650002"><ele>11.0</ele><time>2026-05-05T07:31:45.211Z</time></trkpt><trkpt lat="53.3506163" lon="-6.2651182"><ele>11.0</ele><time>2026-05-05T07:31:46.212Z</time></trkpt><trkpt lat="53.3505783" lon="-6.2652292"><ele>11.0</ele><time>2026-05-05T07:31:47.212Z</time></trkpt><trkpt lat="53.3505449" lon="-6.2653465"><ele>11.0</ele><time>2026-05-05T07:31:48.211Z</time></trkpt><trkpt lat="53.3505049" lon="-6.2654595"><ele>11.666666666666666</ele><time>2026-05-05T07:31:49.212Z</time></trkpt><trkpt lat="53.3504629" lon="-6.2655638"><ele>12.333333333333332</ele><time>2026-05-05T07:31:50.212Z</time></trkpt><trkpt lat="53.3504181" lon="-6.265668"><ele>13.0</ele><time>2026-05-05T07:31:51.212Z</time></trkpt><trkpt lat="53.3503699" lon="-6.265797"><ele>13.666666666666666</ele><time>2026-05-05T07:31:52.212Z</time></trkpt><trkpt lat="53.3503267" lon="-6.2659247"><ele>14.333333333333334</ele><time>2026-05-05T07:31:53.211Z</time></trkpt><trkpt lat="53.350282" lon="-6.2660495"><ele>15.0</ele><time>2026-05-05T07:31:54.212Z</time></trkpt><trkpt lat="53.3502416" lon="-6.2661739"><ele>15.0</ele><time>2026-05-05T07:31:55.212Z</time></trkpt><trkpt lat="53.3502041" lon="-6.266291"><ele>15.0</ele><time>2026-05-05T07:31:56.212Z</time></trkpt><trkpt lat="53.3501731" lon="-6.266404"><ele>15.0</ele><time>2026-05-05T07:31:57.212Z</time></trkpt><trkpt lat="53.350139" lon="-6.2665084"><ele>15.0</ele><time>2026-05-05T07:31:58.212Z</time></trkpt><trkpt lat="53.3501045" lon="-6.266612"><ele>15.0</ele><time>2026-05-05T07:31:59.212Z</time></trkpt><trkpt lat="53.3500754" lon="-6.2667063"><ele>15.0</ele><time>2026-05-05T07:32:00.212Z</time></trkpt><trkpt lat="53.3500593" lon="-6.2668386"><ele>15.0</ele><time>2026-05-05T07:32:02.212Z</time></trkpt><trkpt lat="53.3500632" lon="-6.2669533"><ele>15.0</ele><time>2026-05-05T07:32:04.211Z</time></trkpt><trkpt lat="53.3500682" lon="-6.2670772"><ele>15.0</ele><time>2026-05-05T07:32:07.212Z</time></trkpt><trkpt lat="53.3501122" lon="-6.2671569"><ele>15.0</ele><time>2026-05-05T07:32:34.211Z</time></trkpt><trkpt lat="53.3501006" lon="-6.267316"><ele>15.0</ele><time>2026-05-05T07:32:36.212Z</time></trkpt><trkpt lat="53.3500796" lon="-6.267495"><ele>15.0</ele><time>2026-05-05T07:32:38.212Z</time></trkpt><trkpt lat="53.3500684" lon="-6.2676058"><ele>15.0</ele><time>2026-05-05T07:32:39.211Z</time></trkpt><trkpt lat="53.3500477" lon="-6.2677185"><ele>15.0</ele><time>2026-05-05T07:32:40.212Z</time></trkpt><trkpt lat="53.3500351" lon="-6.2678407"><ele>15.0</ele><time>2026-05-05T07:32:41.212Z</time></trkpt><trkpt lat="53.3500205" lon="-6.2679606"><ele>15.0</ele><time>2026-05-05T07:32:42.212Z</time></trkpt><trkpt lat="53.3500083" lon="-6.2680856"><ele>15.0</ele><time>2026-05-05T07:32:43.212Z</time></trkpt><trkpt lat="53.3500002" lon="-6.2682167"><ele>15.0</ele><time>2026-05-05T07:32:44.212Z</time></trkpt><trkpt lat="53.3499902" lon="-6.2683599"><ele>15.0</ele><time>2026-05-05T07:32:45.211Z</time></trkpt><trkpt lat="53.3499901" lon="-6.2685087"><ele>14.833333333333334</ele><time>2026-05-05T07:32:46.212Z</time></trkpt><trkpt lat="53.3499895" lon="-6.268639"><ele>14.666666666666668</ele><time>2026-05-05T07:32:47.211Z</time></trkpt><trkpt lat="53.3499864" lon="-6.2687718"><ele>14.5</ele><time>2026-05-05T07:32:48.212Z</time></trkpt><trkpt lat="53.3500244" lon="-6.2688806"><ele>14.333333333333334</ele><time>2026-05-05T07:32:49.211Z</time></trkpt><trkpt lat="53.350073" lon="-6.2689658"><ele>14.166666666666668</ele><time>2026-05-05T07:32:50.212Z</time></trkpt><trkpt lat="53.3501531" lon="-6.2691023"><ele>14.0</ele><time>2026-05-05T07:32:52.212Z</time></trkpt><trkpt lat="53.3501954" lon="-6.2691847"><ele>13.6</ele><time>2026-05-05T07:32:54.212Z</time></trkpt><trkpt lat="53.3502465" lon="-6.2693002"><ele>13.2</ele><time>2026-05-05T07:32:58.212Z</time></trkpt><trkpt lat="53.3503221" lon="-6.2693919"><ele>12.799999999999999</ele><time>2026-05-05T07:33:00.212Z</time></trkpt><trkpt lat="53.3504348" lon="-6.2694779"><ele>12.399999999999999</ele><time>2026-05-05T07:33:02.211Z</time></trkpt><trkpt lat="53.350498" lon="-6.2695221"><ele>12.0</ele><time>2026-05-05T07:33:03.212Z</time></trkpt><trkpt lat="53.3506105" lon="-6.2696077"><ele>12.0</ele><time>2026-05-05T07:33:05.211Z</time></trkpt><trkpt lat="53.3506803" lon="-6.2696385"><ele>12.0</ele><time>2026-05-05T07:33:06.212Z</time></trkpt><trkpt lat="53.3507484" lon="-6.2696636"><ele>12.0</ele><time>2026-05-05T07:33:07.212Z</time></trkpt><trkpt lat="53.350866" lon="-6.2697028"><ele>12.0</ele><time>2026-05-05T07:33:09.211Z</time></trkpt><trkpt lat="53.3509467" lon="-6.2697227"><ele>12.0</ele><time>2026-05-05T07:33:11.212Z</time></trkpt><trkpt lat="53.3510013" lon="-6.2698027"><ele>12.0</ele><time>2026-05-05T07:34:11.212Z</time></trkpt><trkpt lat="53.3510236" lon="-6.2699187"><ele>11.8</ele><time>2026-05-05T07:34:15.212Z</time></trkpt><trkpt lat="53.3509802" lon="-6.2700558"><ele>11.6</ele><time>2026-05-05T07:34:17.211Z</time></trkpt><trkpt lat="53.3508981" lon="-6.2702428"><ele>11.4</ele><time>2026-05-05T07:34:19.212Z</time></trkpt><trkpt lat="53.3508437" lon="-6.2703617"><ele>11.200000000000001</ele><time>2026-05-05T07:34:20.212Z</time></trkpt><trkpt lat="53.3507779" lon="-6.2704868"><ele>11.0</ele><time>2026-05-05T07:34:21.211Z</time></trkpt><trkpt lat="53.3507123" lon="-6.2706057"><ele>11.0</ele><time>2026-05-05T07:34:22.211Z</time></trkpt><trkpt lat="53.3506553" lon="-6.2707297"><ele>11.0</ele><time>2026-05-05T07:34:23.212Z</time></trkpt><trkpt lat="53.3506071" lon="-6.2708803"><ele>11.0</ele><time>2026-05-05T07:34:24.211Z</time></trkpt><trkpt lat="53.3505637" lon="-6.2710478"><ele>11.0</ele><time>2026-05-05T07:34:25.211Z</time></trkpt><trkpt lat="53.3505149" lon="-6.2712186"><ele>11.0</ele><time>2026-05-05T07:34:26.212Z</time></trkpt><trkpt lat="53.3504613" lon="-6.2713929"><ele>11.0</ele><time>2026-05-05T07:34:27.211Z</time></trkpt><trkpt lat="53.3504083" lon="-6.2715771"><ele>11.0</ele><time>2026-05-05T07:34:28.211Z</time></trkpt><trkpt lat="53.350355" lon="-6.2717662"><ele>11.0</ele><time>2026-05-05T07:34:29.212Z</time></trkpt><trkpt lat="53.3503129" lon="-6.2719781"><ele>11.0</ele><time>2026-05-05T07:34:30.211Z</time></trkpt><trkpt lat="53.3502717" lon="-6.2721615"><ele>11.0</ele><time>2026-05-05T07:34:31.212Z</time></trkpt><trkpt lat="53.3502344" lon="-6.2723245"><ele>11.0</ele><time>2026-05-05T07:34:32.212Z</time></trkpt><trkpt lat="53.3502166" lon="-6.2724836"><ele>11.0</ele><time>2026-05-05T07:34:33.212Z</time></trkpt><trkpt lat="53.350198" lon="-6.2726186"><ele>11.0</ele><time>2026-05-05T07:34:34.212Z</time></trkpt><trkpt lat="53.3501819" lon="-6.2727454"><ele>11.0</ele><time>2026-05-05T07:34:35.211Z</time></trkpt><trkpt lat="53.3501683" lon="-6.2728661"><ele>11.0</ele><time>2026-05-05T07:34:36.212Z</time></trkpt><trkpt lat="53.3501577" lon="-6.2729708"><ele>11.4</ele><time>2026-05-05T07:34:37.212Z</time></trkpt><trkpt lat="53.350145" lon="-6.2731434"><ele>11.8</ele><time>2026-05-05T07:34:39.212Z</time></trkpt><trkpt lat="53.3501448" lon="-6.2733139"><ele>12.200000000000001</ele><time>2026-05-05T07:34:41.211Z</time></trkpt><trkpt lat="53.3501621" lon="-6.2735178"><ele>12.600000000000001</ele><time>2026-05-05T07:34:43.212Z</time></trkpt><trkpt lat="53.3501791" lon="-6.2736663"><ele>13.0</ele><time>2026-05-05T07:34:45.212Z</time></trkpt><trkpt lat="53.3502034" lon="-6.2737703"><ele>13.0</ele><time>2026-05-05T07:34:49.212Z</time></trkpt><trkpt lat="53.3501031" lon="-6.2738082"><ele>13.0</ele><time>2026-05-05T07:35:43.211Z</time></trkpt><trkpt lat="53.3500954" lon="-6.273968"><ele>13.0</ele><time>2026-05-05T07:35:57.211Z</time></trkpt><trkpt lat="53.3501141" lon="-6.2741875"><ele>13.0</ele><time>2026-05-05T07:35:59.211Z</time></trkpt><trkpt lat="53.350124" lon="-6.274297"><ele>13.0</ele><time>2026-05-05T07:36:00.211Z</time></trkpt><trkpt lat="53.3501366" lon="-6.2744147"><ele>12.999999999999998</ele><time>2026-05-05T07:36:01.212Z</time></trkpt><trkpt lat="53.3501517" lon="-6.2745239"><ele>13.0</ele><time>2026-05-05T07:36:02.211Z</time></trkpt><trkpt lat="53.3501742" lon="-6.274642"><ele>13.0</ele><time>2026-05-05T07:36:03.212Z</time></trkpt><trkpt lat="53.3501878" lon="-6.2747665"><ele>13.0</ele><time>2026-05-05T07:36:04.211Z</time></trkpt><trkpt lat="53.350188" lon="-6.2748958"><ele>12.999999999999998</ele><time>2026-05-05T07:36:05.211Z</time></trkpt><trkpt lat="53.3501769" lon="-6.2750382"><ele>13.0</ele><time>2026-05-05T07:36:06.212Z</time></trkpt><trkpt lat="53.3501617" lon="-6.2751764"><ele>12.666666666666666</ele><time>2026-05-05T07:36:07.211Z</time></trkpt><trkpt lat="53.3501415" lon="-6.2753118"><ele>12.333333333333332</ele><time>2026-05-05T07:36:08.212Z</time></trkpt><trkpt lat="53.3501265" lon="-6.2754467"><ele>12.0</ele><time>2026-05-05T07:36:09.212Z</time></trkpt><trkpt lat="53.3501027" lon="-6.2755957"><ele>11.666666666666666</ele><time>2026-05-05T07:36:10.211Z</time></trkpt><trkpt lat="53.3500823" lon="-6.2757357"><ele>11.333333333333332</ele><time>2026-05-05T07:36:11.212Z</time></trkpt><trkpt lat="53.3500412" lon="-6.2758972"><ele>11.0</ele><time>2026-05-05T07:36:12.212Z</time></trkpt><trkpt lat="53.3500093" lon="-6.2760708"><ele>11.0</ele><time>2026-05-05T07:36:13.212Z</time></trkpt><trkpt lat="53.3499867" lon="-6.2762475"><ele>11.0</ele><time>2026-05-05T07:36:14.211Z</time></trkpt><trkpt lat="53.3499689" lon="-6.2764343"><ele>11.0</ele><time>2026-05-05T07:36:15.212Z</time></trkpt><trkpt lat="53.3499554" lon="-6.2766339"><ele>11.0</ele><time>2026-05-05T07:36:16.211Z</time></trkpt><trkpt lat="53.3499236" lon="-6.2768617"><ele>11.5</ele><time>2026-05-05T07:36:17.212Z</time></trkpt><trkpt lat="53.3498863" lon="-6.2770775"><ele>12.0</ele><time>2026-05-05T07:36:18.211Z</time></trkpt><trkpt lat="53.3498609" lon="-6.2772851"><ele>12.5</ele><time>2026-05-05T07:36:19.212Z</time></trkpt><trkpt lat="53.3498466" lon="-6.27748"><ele>13.0</ele><time>2026-05-05T07:36:20.212Z</time></trkpt><trkpt lat="53.3498377" lon="-6.2776632"><ele>13.25</ele><time>2026-05-05T07:36:21.211Z</time></trkpt><trkpt lat="53.3498225" lon="-6.2778211"><ele>13.5</ele><time>2026-05-05T07:36:22.212Z</time></trkpt><trkpt lat="53.3497975" lon="-6.2781309"><ele>13.75</ele><time>2026-05-05T07:36:24.212Z</time></trkpt><trkpt lat="53.349785" lon="-6.278299"><ele>14.0</ele><time>2026-05-05T07:36:25.212Z</time></trkpt><trkpt lat="53.3497645" lon="-6.2784187"><ele>13.666666666666668</ele><time>2026-05-05T07:36:26.211Z</time></trkpt><trkpt lat="53.3497546" lon="-6.2785482"><ele>13.333333333333334</ele><time>2026-05-05T07:36:27.212Z</time></trkpt><trkpt lat="53.3497409" lon="-6.2786776"><ele>13.0</ele><time>2026-05-05T07:36:28.211Z</time></trkpt><trkpt lat="53.3497287" lon="-6.2787914"><ele>12.666666666666668</ele><time>2026-05-05T07:36:29.212Z</time></trkpt><trkpt lat="53.3497243" lon="-6.2789036"><ele>12.333333333333334</ele><time>2026-05-05T07:36:30.212Z</time></trkpt><trkpt lat="53.3497297" lon="-6.2790119"><ele>12.0</ele><time>2026-05-05T07:36:31.212Z</time></trkpt><trkpt lat="53.349749" lon="-6.2792029"><ele>11.8</ele><time>2026-05-05T07:36:33.212Z</time></trkpt><trkpt lat="53.3498002" lon="-6.2793829"><ele>11.6</ele><time>2026-05-05T07:36:35.212Z</time></trkpt><trkpt lat="53.3497782" lon="-6.2795224"><ele>11.4</ele><time>2026-05-05T07:36:37.212Z</time></trkpt><trkpt lat="53.3496851" lon="-6.2796343"><ele>11.200000000000001</ele><time>2026-05-05T07:36:39.212Z</time></trkpt><trkpt lat="53.3496129" lon="-6.2796764"><ele>11.0</ele><time>2026-05-05T07:36:40.212Z</time></trkpt><trkpt lat="53.3495325" lon="-6.2796971"><ele>10.8</ele><time>2026-05-05T07:36:41.211Z</time></trkpt><trkpt lat="53.3494525" lon="-6.2797125"><ele>10.600000000000001</ele><time>2026-05-05T07:36:42.212Z</time></trkpt><trkpt lat="53.3493644" lon="-6.2797306"><ele>10.4</ele><time>2026-05-05T07:36:43.211Z</time></trkpt><trkpt lat="53.3492517" lon="-6.2797471"><ele>10.2</ele><time>2026-05-05T07:36:44.212Z</time></trkpt><trkpt lat="53.3491429" lon="-6.2797606"><ele>10.0</ele><time>2026-05-05T07:36:45.212Z</time></trkpt><trkpt lat="53.3490429" lon="-6.2797817"><ele>10.0</ele><time>2026-05-05T07:36:46.212Z</time></trkpt><trkpt lat="53.3489496" lon="-6.2798068"><ele>10.0</ele><time>2026-05-05T07:36:47.212Z</time></trkpt><trkpt lat="53.3488571" lon="-6.279815"><ele>10.0</ele><time>2026-05-05T07:36:48.212Z</time></trkpt><trkpt lat="53.3487128" lon="-6.2798576"><ele>10.0</ele><time>2026-05-05T07:36:50.211Z</time></trkpt><trkpt lat="53.3486093" lon="-6.2798583"><ele>10.0</ele><time>2026-05-05T07:36:52.212Z</time></trkpt><trkpt lat="53.3485129" lon="-6.2798565"><ele>9.5</ele><time>2026-05-05T07:36:54.212Z</time></trkpt><trkpt lat="53.3483884" lon="-6.2799056"><ele>9.0</ele><time>2026-05-05T07:36:56.212Z</time></trkpt><trkpt lat="53.3483204" lon="-6.2799296"><ele>8.5</ele><time>2026-05-05T07:36:57.211Z</time></trkpt><trkpt lat="53.3482491" lon="-6.2799547"><ele>8.0</ele><time>2026-05-05T07:36:58.211Z</time></trkpt><trkpt lat="53.3481871" lon="-6.2799853"><ele>7.500000000000001</ele><time>2026-05-05T07:36:59.212Z</time></trkpt><trkpt lat="53.3481203" lon="-6.2800174"><ele>7.0</ele><time>2026-05-05T07:37:00.211Z</time></trkpt><trkpt lat="53.3480395" lon="-6.2799572"><ele>7.000000000000001</ele><time>2026-05-05T07:37:02.211Z</time></trkpt><trkpt lat="53.3479575" lon="-6.2799177"><ele>7.0</ele><time>2026-05-05T07:37:04.212Z</time></trkpt><trkpt lat="53.3478707" lon="-6.2798864"><ele>7.0</ele><time>2026-05-05T07:37:06.212Z</time></trkpt><trkpt lat="53.3478005" lon="-6.2798747"><ele>7.0</ele><time>2026-05-05T07:37:08.211Z</time></trkpt><trkpt lat="53.3477344" lon="-6.2798694"><ele>7.000000000000001</ele><time>2026-05-05T07:37:13.212Z</time></trkpt><trkpt lat="53.3476855" lon="-6.2800108"><ele>7.0</ele><time>2026-05-05T07:38:22.211Z</time></trkpt><trkpt lat="53.3476288" lon="-6.2800836"><ele>7.0</ele><time>2026-05-05T07:38:25.212Z</time></trkpt><trkpt lat="53.3475649" lon="-6.2800983"><ele>6.999999999999999</ele><time>2026-05-05T07:38:27.212Z</time></trkpt><trkpt lat="53.3474738" lon="-6.2801119"><ele>6.999999999999999</ele><time>2026-05-05T07:38:29.211Z</time></trkpt><trkpt lat="53.3473944" lon="-6.2801317"><ele>7.0</ele><time>2026-05-05T07:38:31.212Z</time></trkpt><trkpt lat="53.3472983" lon="-6.2801546"><ele>7.0</ele><time>2026-05-05T07:38:33.212Z</time></trkpt><trkpt lat="53.3471762" lon="-6.2801791"><ele>6.666666666666667</ele><time>2026-05-05T07:38:35.211Z</time></trkpt><trkpt lat="53.3471117" lon="-6.2801936"><ele>6.333333333333334</ele><time>2026-05-05T07:38:36.211Z</time></trkpt><trkpt lat="53.3470075" lon="-6.2802333"><ele>6.0</ele><time>2026-05-05T07:38:38.212Z</time></trkpt><trkpt lat="53.346936" lon="-6.2802556"><ele>5.666666666666667</ele><time>2026-05-05T07:38:40.212Z</time></trkpt><trkpt lat="53.3468494" lon="-6.2803078"><ele>5.333333333333334</ele><time>2026-05-05T07:40:13.211Z</time></trkpt><trkpt lat="53.3467542" lon="-6.2803799"><ele>5.0</ele><time>2026-05-05T07:40:15.211Z</time></trkpt><trkpt lat="53.3466613" lon="-6.2804362"><ele>5.0</ele><time>2026-05-05T07:40:17.211Z</time></trkpt><trkpt lat="53.3465688" lon="-6.280468"><ele>5.0</ele><time>2026-05-05T07:40:19.212Z</time></trkpt><trkpt lat="53.3464508" lon="-6.2805023"><ele>5.0</ele><time>2026-05-05T07:40:21.212Z</time></trkpt><trkpt lat="53.3463588" lon="-6.2805081"><ele>5.0</ele><time>2026-05-05T07:40:23.212Z</time></trkpt><trkpt lat="53.3462921" lon="-6.2805004"><ele>5.0</ele><time>2026-05-05T07:40:25.211Z</time></trkpt><trkpt lat="53.3462225" lon="-6.2805281"><ele>5.0</ele><time>2026-05-05T07:40:28.212Z</time></trkpt><trkpt lat="53.3461965" lon="-6.2806512"><ele>5.4</ele><time>2026-05-05T07:40:30.212Z</time></trkpt><trkpt lat="53.3462052" lon="-6.2808712"><ele>5.8</ele><time>2026-05-05T07:40:32.211Z</time></trkpt><trkpt lat="53.3462265" lon="-6.2810162"><ele>6.199999999999999</ele><time>2026-05-05T07:40:33.211Z</time></trkpt><trkpt lat="53.3462535" lon="-6.2811799"><ele>6.6</ele><time>2026-05-05T07:40:34.212Z</time></trkpt><trkpt lat="53.3462839" lon="-6.281357"><ele>7.0</ele><time>2026-05-05T07:40:35.212Z</time></trkpt><trkpt lat="53.3463157" lon="-6.2815658"><ele>7.0</ele><time>2026-05-05T07:40:36.212Z</time></trkpt><trkpt lat="53.3463339" lon="-6.2817667"><ele>7.0</ele><time>2026-05-05T07:40:37.211Z</time></trkpt><trkpt lat="53.3463497" lon="-6.2819711"><ele>7.0</ele><time>2026-05-05T07:40:38.212Z</time></trkpt><trkpt lat="53.3463747" lon="-6.282158"><ele>7.0</ele><time>2026-05-05T07:40:39.211Z</time></trkpt><trkpt lat="53.3464" lon="-6.2823393"><ele>6.75</ele><time>2026-05-05T07:40:40.212Z</time></trkpt><trkpt lat="53.3464201" lon="-6.2825263"><ele>6.5</ele><time>2026-05-05T07:40:41.212Z</time></trkpt><trkpt lat="53.3464333" lon="-6.2827194"><ele>6.25</ele><time>2026-05-05T07:40:42.212Z</time></trkpt><trkpt lat="53.3464441" lon="-6.2829025"><ele>6.0</ele><time>2026-05-05T07:40:43.212Z</time></trkpt><trkpt lat="53.3464559" lon="-6.2830877"><ele>6.0</ele><time>2026-05-05T07:40:44.211Z</time></trkpt><trkpt lat="53.3464666" lon="-6.2832729"><ele>6.0</ele><time>2026-05-05T07:40:45.212Z</time></trkpt><trkpt lat="53.3464807" lon="-6.2834519"><ele>6.0</ele><time>2026-05-05T07:40:46.211Z</time></trkpt><trkpt lat="53.3464952" lon="-6.283615"><ele>6.0</ele><time>2026-05-05T07:40:47.211Z</time></trkpt><trkpt lat="53.3465122" lon="-6.2837749"><ele>6.0</ele><time>2026-05-05T07:40:48.211Z</time></trkpt><trkpt lat="53.346522" lon="-6.283948"><ele>5.5</ele><time>2026-05-05T07:40:49.211Z</time></trkpt><trkpt lat="53.3465293" lon="-6.2841223"><ele>5.0</ele><time>2026-05-05T07:40:50.212Z</time></trkpt><trkpt lat="53.3465376" lon="-6.284323"><ele>4.5</ele><time>2026-05-05T07:40:51.211Z</time></trkpt><trkpt lat="53.3465504" lon="-6.2845585"><ele>4.0</ele><time>2026-05-05T07:40:52.211Z</time></trkpt><trkpt lat="53.3465571" lon="-6.2848277"><ele>4.0</ele><time>2026-05-05T07:40:53.212Z</time></trkpt><trkpt lat="53.3465705" lon="-6.2851402"><ele>4.0</ele><time>2026-05-05T07:40:54.212Z</time></trkpt><trkpt lat="53.3465788" lon="-6.2854868"><ele>4.0</ele><time>2026-05-05T07:40:55.212Z</time></trkpt><trkpt lat="53.3465766" lon="-6.2858633"><ele>4.0</ele><time>2026-05-05T07:40:56.211Z</time></trkpt><trkpt lat="53.3465908" lon="-6.2861686"><ele>4.0</ele><time>2026-05-05T07:40:57.212Z</time></trkpt><trkpt lat="53.3465992" lon="-6.2864583"><ele>4.0</ele><time>2026-05-05T07:40:58.212Z</time></trkpt><trkpt lat="53.3466135" lon="-6.2867026"><ele>4.0</ele><time>2026-05-05T07:40:59.212Z</time></trkpt><trkpt lat="53.3466312" lon="-6.2869275"><ele>4.0</ele><time>2026-05-05T07:41:00.211Z</time></trkpt><trkpt lat="53.3466459" lon="-6.2871374"><ele>4.0</ele><time>2026-05-05T07:41:01.211Z</time></trkpt><trkpt lat="53.3466532" lon="-6.2873384"><ele>4.0</ele><time>2026-05-05T07:41:02.212Z</time></trkpt><trkpt lat="53.3466621" lon="-6.2877369"><ele>3.6666666666666665</ele><time>2026-05-05T07:41:04.211Z</time></trkpt><trkpt lat="53.3466552" lon="-6.2879887"><ele>3.333333333333333</ele><time>2026-05-05T07:41:05.211Z</time></trkpt><trkpt lat="53.3466416" lon="-6.2882641"><ele>3.0</ele><time>2026-05-05T07:41:06.212Z</time></trkpt><trkpt lat="53.346633" lon="-6.2885549"><ele>3.0</ele><time>2026-05-05T07:41:07.212Z</time></trkpt><trkpt lat="53.3466372" lon="-6.2888418"><ele>3.0</ele><time>2026-05-05T07:41:08.212Z</time></trkpt><trkpt lat="53.3466472" lon="-6.2891084"><ele>3.0</ele><time>2026-05-05T07:41:09.211Z</time></trkpt><trkpt lat="53.3466638" lon="-6.2893398"><ele>3.0</ele><time>2026-05-05T07:41:10.212Z</time></trkpt><trkpt lat="53.3466831" lon="-6.2895432"><ele>3.0</ele><time>2026-05-05T07:41:11.212Z</time></trkpt><trkpt lat="53.3467037" lon="-6.2897145"><ele>3.0</ele><time>2026-05-05T07:41:12.212Z</time></trkpt><trkpt lat="53.3467255" lon="-6.2898722"><ele>3.0</ele><time>2026-05-05T07:41:13.212Z</time></trkpt><trkpt lat="53.3467458" lon="-6.2900079"><ele>3.0</ele><time>2026-05-05T07:41:14.212Z</time></trkpt><trkpt lat="53.3467644" lon="-6.2901186"><ele>3.0</ele><time>2026-05-05T07:41:15.212Z</time></trkpt><trkpt lat="53.3467909" lon="-6.290279"><ele>3.0</ele><time>2026-05-05T07:41:17.212Z</time></trkpt><trkpt lat="53.346821" lon="-6.2905"><ele>3.0</ele><time>2026-05-05T07:41:20.212Z</time></trkpt><trkpt lat="53.3468344" lon="-6.2906309"><ele>3.0</ele><time>2026-05-05T07:41:22.211Z</time></trkpt><trkpt lat="53.3468852" lon="-6.2907199"><ele>3.0</ele><time>2026-05-05T07:41:27.211Z</time></trkpt><trkpt lat="53.3468682" lon="-6.2908585"><ele>3.0</ele><time>2026-05-05T07:41:41.212Z</time></trkpt><trkpt lat="53.3468141" lon="-6.2909494"><ele>3.0</ele><time>2026-05-05T07:41:42.212Z</time></trkpt><trkpt lat="53.3467284" lon="-6.2910442"><ele>3.0</ele><time>2026-05-05T07:41:43.212Z</time></trkpt><trkpt lat="53.3466334" lon="-6.2911332"><ele>3.0</ele><time>2026-05-05T07:41:44.212Z</time></trkpt><trkpt lat="53.3465449" lon="-6.2912177"><ele>3.0</ele><time>2026-05-05T07:41:45.211Z</time></trkpt><trkpt lat="53.3464599" lon="-6.2912939"><ele>3.0</ele><time>2026-05-05T07:41:46.212Z</time></trkpt><trkpt lat="53.3463867" lon="-6.2913495"><ele>3.0</ele><time>2026-05-05T07:41:47.212Z</time></trkpt><trkpt lat="53.3463193" lon="-6.2914021"><ele>3.0</ele><time>2026-05-05T07:41:48.211Z</time></trkpt><trkpt lat="53.346264" lon="-6.2914619"><ele>3.0</ele><time>2026-05-05T07:41:49.212Z</time></trkpt><trkpt lat="53.3461729" lon="-6.2916193"><ele>3.0</ele><time>2026-05-05T07:41:51.212Z</time></trkpt><trkpt lat="53.3461347" lon="-6.2917176"><ele>3.0</ele><time>2026-05-05T07:41:52.212Z</time></trkpt><trkpt lat="53.3461048" lon="-6.2918329"><ele>3.8</ele><time>2026-05-05T07:41:53.212Z</time></trkpt><trkpt lat="53.3460826" lon="-6.2919702"><ele>4.6</ele><time>2026-05-05T07:41:54.211Z</time></trkpt><trkpt lat="53.3460633" lon="-6.2921252"><ele>5.3999999999999995</ele><time>2026-05-05T07:41:55.212Z</time></trkpt><trkpt lat="53.3460468" lon="-6.2922867"><ele>6.199999999999999</ele><time>2026-05-05T07:41:56.212Z</time></trkpt><trkpt lat="53.3460269" lon="-6.2924602"><ele>7.0</ele><time>2026-05-05T07:41:57.211Z</time></trkpt><trkpt lat="53.3460098" lon="-6.2926415"><ele>7.0</ele><time>2026-05-05T07:41:58.211Z</time></trkpt><trkpt lat="53.3460009" lon="-6.2928222"><ele>7.0</ele><time>2026-05-05T07:41:59.212Z</time></trkpt><trkpt lat="53.3459878" lon="-6.2930066"><ele>7.0</ele><time>2026-05-05T07:42:00.212Z</time></trkpt><trkpt lat="53.3459659" lon="-6.2932249"><ele>7.0</ele><time>2026-05-05T07:42:01.212Z</time></trkpt><trkpt lat="53.3459384" lon="-6.2934582"><ele>7.0</ele><time>2026-05-05T07:42:02.212Z</time></trkpt><trkpt lat="53.3459088" lon="-6.2936906"><ele>7.0</ele><time>2026-05-05T07:42:03.211Z</time></trkpt><trkpt lat="53.3458991" lon="-6.2939192"><ele>7.0</ele><time>2026-05-05T07:42:04.212Z</time></trkpt><trkpt lat="53.3458947" lon="-6.2941454"><ele>7.0</ele><time>2026-05-05T07:42:05.212Z</time></trkpt><trkpt lat="53.345892" lon="-6.2943629"><ele>7.0</ele><time>2026-05-05T07:42:06.211Z</time></trkpt><trkpt lat="53.3458735" lon="-6.2945715"><ele>7.0</ele><time>2026-05-05T07:42:07.211Z</time></trkpt><trkpt lat="53.3458625" lon="-6.2947685"><ele>7.0</ele><time>2026-05-05T07:42:08.212Z</time></trkpt><trkpt lat="53.3458474" lon="-6.294956"><ele>7.0</ele><time>2026-05-05T07:42:09.211Z</time></trkpt><trkpt lat="53.3458354" lon="-6.2951379"><ele>7.0</ele><time>2026-05-05T07:42:10.211Z</time></trkpt><trkpt lat="53.3458238" lon="-6.295318"><ele>6.999999999999999</ele><time>2026-05-05T07:42:11.212Z</time></trkpt><trkpt lat="53.3458125" lon="-6.2955047"><ele>6.999999999999999</ele><time>2026-05-05T07:42:12.211Z</time></trkpt><trkpt lat="53.3458007" lon="-6.29569"><ele>7.0</ele><time>2026-05-05T07:42:13.211Z</time></trkpt><trkpt lat="53.3457846" lon="-6.2958854"><ele>7.0</ele><time>2026-05-05T07:42:14.212Z</time></trkpt><trkpt lat="53.3457839" lon="-6.2961113"><ele>7.0</ele><time>2026-05-05T07:42:15.211Z</time></trkpt><trkpt lat="53.3457712" lon="-6.296315"><ele>7.0</ele><time>2026-05-05T07:42:16.211Z</time></trkpt><trkpt lat="53.3457516" lon="-6.2965077"><ele>7.0</ele><time>2026-05-05T07:42:17.212Z</time></trkpt><trkpt lat="53.3457173" lon="-6.2967125"><ele>7.0</ele><time>2026-05-05T07:42:18.212Z</time></trkpt><trkpt lat="53.3456634" lon="-6.2969259"><ele>6.75</ele><time>2026-05-05T07:42:19.212Z</time></trkpt><trkpt lat="53.3456402" lon="-6.2971469"><ele>6.5</ele><time>2026-05-05T07:42:20.211Z</time></trkpt><trkpt lat="53.3456828" lon="-6.2973847"><ele>6.25</ele><time>2026-05-05T07:42:21.212Z</time></trkpt><trkpt lat="53.3456897" lon="-6.2976233"><ele>6.0</ele><time>2026-05-05T07:42:22.212Z</time></trkpt><trkpt lat="53.345672" lon="-6.2978685"><ele>6.0</ele><time>2026-05-05T07:42:23.211Z</time></trkpt><trkpt lat="53.3456754" lon="-6.298384"><ele>6.0</ele><time>2026-05-05T07:42:25.211Z</time></trkpt><trkpt lat="53.3456183" lon="-6.2986293"><ele>7.0</ele><time>2026-05-05T07:42:26.212Z</time></trkpt><trkpt lat="53.3455324" lon="-6.2988725"><ele>8.0</ele><time>2026-05-05T07:42:27.212Z</time></trkpt><trkpt lat="53.3454761" lon="-6.2990998"><ele>9.0</ele><time>2026-05-05T07:42:28.211Z</time></trkpt><trkpt lat="53.345409" lon="-6.2993312"><ele>9.25</ele><time>2026-05-05T07:42:29.212Z</time></trkpt><trkpt lat="53.345355" lon="-6.2995568"><ele>9.5</ele><time>2026-05-05T07:42:30.211Z</time></trkpt><trkpt lat="53.3453112" lon="-6.2997754"><ele>9.75</ele><time>2026-05-05T07:42:31.211Z</time></trkpt><trkpt lat="53.3452815" lon="-6.2999827"><ele>10.0</ele><time>2026-05-05T07:42:32.211Z</time></trkpt><trkpt lat="53.3452475" lon="-6.3001966"><ele>10.0</ele><time>2026-05-05T07:42:33.212Z</time></trkpt><trkpt lat="53.3452275" lon="-6.3004034"><ele>10.0</ele><time>2026-05-05T07:42:34.212Z</time></trkpt><trkpt lat="53.3452052" lon="-6.3005938"><ele>10.0</ele><time>2026-05-05T07:42:35.212Z</time></trkpt><trkpt lat="53.3451794" lon="-6.3007725"><ele>10.0</ele><time>2026-05-05T07:42:36.211Z</time></trkpt><trkpt lat="53.3451615" lon="-6.3009439"><ele>10.25</ele><time>2026-05-05T07:42:37.212Z</time></trkpt><trkpt lat="53.3451361" lon="-6.3011399"><ele>10.5</ele><time>2026-05-05T07:42:38.212Z</time></trkpt><trkpt lat="53.3451074" lon="-6.3013434"><ele>10.75</ele><time>2026-05-05T07:42:39.212Z</time></trkpt><trkpt lat="53.3450751" lon="-6.3015541"><ele>11.0</ele><time>2026-05-05T07:42:40.212Z</time></trkpt><trkpt lat="53.3450493" lon="-6.3017728"><ele>11.0</ele><time>2026-05-05T07:42:41.212Z</time></trkpt><trkpt lat="53.3450265" lon="-6.3019973"><ele>11.0</ele><time>2026-05-05T07:42:42.212Z</time></trkpt><trkpt lat="53.3449922" lon="-6.3022321"><ele>11.0</ele><time>2026-05-05T07:42:43.212Z</time></trkpt><trkpt lat="53.3449579" lon="-6.3024675"><ele>11.0</ele><time>2026-05-05T07:42:44.212Z</time></trkpt><trkpt lat="53.3449262" lon="-6.3026886"><ele>11.0</ele><time>2026-05-05T07:42:45.212Z</time></trkpt><trkpt lat="53.3448988" lon="-6.3029058"><ele>11.0</ele><time>2026-05-05T07:42:46.211Z</time></trkpt><trkpt lat="53.344863" lon="-6.3031078"><ele>11.0</ele><time>2026-05-05T07:42:47.212Z</time></trkpt><trkpt lat="53.3448197" lon="-6.3033117"><ele>11.0</ele><time>2026-05-05T07:42:48.212Z</time></trkpt><trkpt lat="53.3447715" lon="-6.3035077"><ele>11.75</ele><time>2026-05-05T07:42:49.211Z</time></trkpt><trkpt lat="53.3446982" lon="-6.3037047"><ele>12.5</ele><time>2026-05-05T07:42:50.211Z</time></trkpt><trkpt lat="53.3446194" lon="-6.3039074"><ele>13.25</ele><time>2026-05-05T07:42:51.212Z</time></trkpt><trkpt lat="53.3445415" lon="-6.3040915"><ele>14.0</ele><time>2026-05-05T07:42:52.211Z</time></trkpt><trkpt lat="53.3444754" lon="-6.3042552"><ele>14.0</ele><time>2026-05-05T07:42:53.212Z</time></trkpt><trkpt lat="53.3444167" lon="-6.304407"><ele>13.999999999999998</ele><time>2026-05-05T07:42:54.212Z</time></trkpt><trkpt lat="53.3443544" lon="-6.3045431"><ele>13.999999999999998</ele><time>2026-05-05T07:42:55.212Z</time></trkpt><trkpt lat="53.3443097" lon="-6.3046514"><ele>14.0</ele><time>2026-05-05T07:42:56.212Z</time></trkpt><trkpt lat="53.3442657" lon="-6.3047666"><ele>14.0</ele><time>2026-05-05T07:42:57.212Z</time></trkpt><trkpt lat="53.3442206" lon="-6.3048791"><ele>14.0</ele><time>2026-05-05T07:42:58.212Z</time></trkpt><trkpt lat="53.3441786" lon="-6.3049838"><ele>13.999999999999998</ele><time>2026-05-05T07:42:59.212Z</time></trkpt><trkpt lat="53.3441221" lon="-6.3051466"><ele>13.999999999999998</ele><time>2026-05-05T07:43:01.212Z</time></trkpt><trkpt lat="53.3440789" lon="-6.3052787"><ele>14.0</ele><time>2026-05-05T07:43:03.212Z</time></trkpt><trkpt lat="53.3440279" lon="-6.3054464"><ele>14.0</ele><time>2026-05-05T07:43:05.212Z</time></trkpt><trkpt lat="53.344" lon="-6.3055448"><ele>13.799999999999999</ele><time>2026-05-05T07:43:06.212Z</time></trkpt><trkpt lat="53.3439489" lon="-6.305695"><ele>13.599999999999998</ele><time>2026-05-05T07:43:08.212Z</time></trkpt><trkpt lat="53.3438909" lon="-6.3058327"><ele>13.4</ele><time>2026-05-05T07:43:10.212Z</time></trkpt><trkpt lat="53.3438315" lon="-6.3059671"><ele>13.2</ele><time>2026-05-05T07:43:12.211Z</time></trkpt><trkpt lat="53.343784" lon="-6.3060684"><ele>13.0</ele><time>2026-05-05T07:43:14.212Z</time></trkpt><trkpt lat="53.3437553" lon="-6.3061737"><ele>14.4</ele><time>2026-05-05T07:43:18.212Z</time></trkpt><trkpt lat="53.3437196" lon="-6.3063467"><ele>15.8</ele><time>2026-05-05T07:43:31.212Z</time></trkpt><trkpt lat="53.3436796" lon="-6.3064971"><ele>17.2</ele><time>2026-05-05T07:43:33.211Z</time></trkpt><trkpt lat="53.3436242" lon="-6.306677"><ele>18.6</ele><time>2026-05-05T07:43:35.212Z</time></trkpt><trkpt lat="53.343593" lon="-6.3067894"><ele>20.0</ele><time>2026-05-05T07:43:36.212Z</time></trkpt><trkpt lat="53.3435573" lon="-6.3069136"><ele>20.0</ele><time>2026-05-05T07:43:37.211Z</time></trkpt><trkpt lat="53.3435208" lon="-6.3070419"><ele>20.0</ele><time>2026-05-05T07:43:38.212Z</time></trkpt><trkpt lat="53.3434927" lon="-6.3071739"><ele>20.0</ele><time>2026-05-05T07:43:39.212Z</time></trkpt><trkpt lat="53.3434684" lon="-6.3073256"><ele>20.0</ele><time>2026-05-05T07:43:40.212Z</time></trkpt><trkpt lat="53.3434571" lon="-6.3074862"><ele>20.0</ele><time>2026-05-05T07:43:41.212Z</time></trkpt><trkpt lat="53.3434642" lon="-6.3076498"><ele>19.75</ele><time>2026-05-05T07:43:42.211Z</time></trkpt><trkpt lat="53.3434753" lon="-6.3078243"><ele>19.5</ele><time>2026-05-05T07:43:43.212Z</time></trkpt><trkpt lat="53.3434885" lon="-6.3080028"><ele>19.25</ele><time>2026-05-05T07:43:44.212Z</time></trkpt><trkpt lat="53.3435027" lon="-6.3081948"><ele>19.0</ele><time>2026-05-05T07:43:45.211Z</time></trkpt><trkpt lat="53.3435126" lon="-6.308407"><ele>19.0</ele><time>2026-05-05T07:43:46.211Z</time></trkpt><trkpt lat="53.3435151" lon="-6.3086335"><ele>19.0</ele><time>2026-05-05T07:43:47.211Z</time></trkpt><trkpt lat="53.343498" lon="-6.3088794"><ele>19.0</ele><time>2026-05-05T07:43:48.212Z</time></trkpt><trkpt lat="53.3434804" lon="-6.3091477"><ele>19.0</ele><time>2026-05-05T07:43:49.212Z</time></trkpt><trkpt lat="53.3434434" lon="-6.3094647"><ele>18.333333333333332</ele><time>2026-05-05T07:43:50.211Z</time></trkpt><trkpt lat="53.3434037" lon="-6.3097875"><ele>17.666666666666668</ele><time>2026-05-05T07:43:51.212Z</time></trkpt><trkpt lat="53.3433664" lon="-6.3101038"><ele>17.0</ele><time>2026-05-05T07:43:52.211Z</time></trkpt><trkpt lat="53.3433247" lon="-6.3104211"><ele>17.0</ele><time>2026-05-05T07:43:53.212Z</time></trkpt><trkpt lat="53.3432888" lon="-6.3107262"><ele>17.0</ele><time>2026-05-05T07:43:54.212Z</time></trkpt><trkpt lat="53.3432535" lon="-6.3110236"><ele>17.0</ele><time>2026-05-05T07:43:55.211Z</time></trkpt><trkpt lat="53.3432318" lon="-6.3113032"><ele>16.666666666666668</ele><time>2026-05-05T07:43:56.212Z</time></trkpt><trkpt lat="53.3432163" lon="-6.3115774"><ele>16.333333333333332</ele><time>2026-05-05T07:43:57.212Z</time></trkpt><trkpt lat="53.3431952" lon="-6.3118573"><ele>16.0</ele><time>2026-05-05T07:43:58.212Z</time></trkpt><trkpt lat="53.3431859" lon="-6.3121317"><ele>16.0</ele><time>2026-05-05T07:43:59.212Z</time></trkpt><trkpt lat="53.34318" lon="-6.3123952"><ele>16.0</ele><time>2026-05-05T07:44:00.211Z</time></trkpt><trkpt lat="53.3431667" lon="-6.3126439"><ele>16.0</ele><time>2026-05-05T07:44:01.212Z</time></trkpt><trkpt lat="53.3431529" lon="-6.3128689"><ele>16.0</ele><time>2026-05-05T07:44:02.212Z</time></trkpt><trkpt lat="53.3431444" lon="-6.3130827"><ele>16.25</ele><time>2026-05-05T07:44:03.212Z</time></trkpt><trkpt lat="53.3431343" lon="-6.3132879"><ele>16.5</ele><time>2026-05-05T07:44:04.212Z</time></trkpt><trkpt lat="53.3431104" lon="-6.3135004"><ele>16.75</ele><time>2026-05-05T07:44:05.211Z</time></trkpt><trkpt lat="53.3430926" lon="-6.3137191"><ele>17.0</ele><time>2026-05-05T07:44:06.212Z</time></trkpt><trkpt lat="53.3430744" lon="-6.3139423"><ele>17.75</ele><time>2026-05-05T07:44:07.211Z</time></trkpt><trkpt lat="53.3430753" lon="-6.3141672"><ele>18.5</ele><time>2026-05-05T07:44:08.212Z</time></trkpt><trkpt lat="53.3430767" lon="-6.3143994"><ele>19.25</ele><time>2026-05-05T07:44:09.212Z</time></trkpt><trkpt lat="53.3430637" lon="-6.3146333"><ele>20.0</ele><time>2026-05-05T07:44:10.211Z</time></trkpt><trkpt lat="53.3430466" lon="-6.3148643"><ele>20.75</ele><time>2026-05-05T07:44:11.212Z</time></trkpt><trkpt lat="53.3430312" lon="-6.3150853"><ele>21.5</ele><time>2026-05-05T07:44:12.211Z</time></trkpt><trkpt lat="53.3430188" lon="-6.3153001"><ele>22.25</ele><time>2026-05-05T07:44:13.212Z</time></trkpt><trkpt lat="53.3430088" lon="-6.3154846"><ele>23.0</ele><time>2026-05-05T07:44:14.212Z</time></trkpt><trkpt lat="53.3429945" lon="-6.3156579"><ele>23.0</ele><time>2026-05-05T07:44:15.212Z</time></trkpt><trkpt lat="53.3429775" lon="-6.3157971"><ele>23.0</ele><time>2026-05-05T07:44:16.212Z</time></trkpt><trkpt lat="53.3429707" lon="-6.3159121"><ele>23.0</ele><time>2026-05-05T07:44:17.212Z</time></trkpt><trkpt lat="53.3429625" lon="-6.3160862"><ele>23.0</ele><time>2026-05-05T07:44:19.212Z</time></trkpt><trkpt lat="53.3429483" lon="-6.3161912"><ele>23.0</ele><time>2026-05-05T07:44:21.212Z</time></trkpt><trkpt lat="53.3429343" lon="-6.3163261"><ele>23.0</ele><time>2026-05-05T07:44:24.212Z</time></trkpt><trkpt lat="53.3429212" lon="-6.316434"><ele>23.2</ele><time>2026-05-05T07:44:28.212Z</time></trkpt><trkpt lat="53.3429177" lon="-6.3166089"><ele>23.4</ele><time>2026-05-05T07:45:09.212Z</time></trkpt><trkpt lat="53.3429066" lon="-6.3167448"><ele>23.599999999999998</ele><time>2026-05-05T07:45:10.211Z</time></trkpt><trkpt lat="53.3428958" lon="-6.3168981"><ele>23.799999999999997</ele><time>2026-05-05T07:45:11.212Z</time></trkpt><trkpt lat="53.3428826" lon="-6.3170729"><ele>24.0</ele><time>2026-05-05T07:45:12.212Z</time></trkpt><trkpt lat="53.3428677" lon="-6.3172598"><ele>24.0</ele><time>2026-05-05T07:45:13.212Z</time></trkpt><trkpt lat="53.3428562" lon="-6.3174532"><ele>24.0</ele><time>2026-05-05T07:45:14.211Z</time></trkpt><trkpt lat="53.3428473" lon="-6.3176567"><ele>24.0</ele><time>2026-05-05T07:45:15.211Z</time></trkpt><trkpt lat="53.3428383" lon="-6.3178755"><ele>24.0</ele><time>2026-05-05T07:45:16.212Z</time></trkpt><trkpt lat="53.3428304" lon="-6.3181127"><ele>24.0</ele><time>2026-05-05T07:45:17.212Z</time></trkpt><trkpt lat="53.3428282" lon="-6.3183468"><ele>24.0</ele><time>2026-05-05T07:45:18.211Z</time></trkpt><trkpt lat="53.3428247" lon="-6.318584"><ele>24.0</ele><time>2026-05-05T07:45:19.212Z</time></trkpt><trkpt lat="53.3428234" lon="-6.3188332"><ele>24.0</ele><time>2026-05-05T07:45:20.211Z</time></trkpt><trkpt lat="53.3428234" lon="-6.3190923"><ele>24.0</ele><time>2026-05-05T07:45:21.212Z</time></trkpt><trkpt lat="53.3428246" lon="-6.3193634"><ele>24.0</ele><time>2026-05-05T07:45:22.212Z</time></trkpt><trkpt lat="53.3428374" lon="-6.3196487"><ele>24.0</ele><time>2026-05-05T07:45:23.212Z</time></trkpt><trkpt lat="53.3428542" lon="-6.3199494"><ele>24.0</ele><time>2026-05-05T07:45:24.211Z</time></trkpt><trkpt lat="53.3428686" lon="-6.3202672"><ele>24.0</ele><time>2026-05-05T07:45:25.212Z</time></trkpt><trkpt lat="53.3428955" lon="-6.3205817"><ele>24.0</ele><time>2026-05-05T07:45:26.212Z</time></trkpt><trkpt lat="53.3429362" lon="-6.3208836"><ele>24.0</ele><time>2026-05-05T07:45:27.211Z</time></trkpt><trkpt lat="53.3429891" lon="-6.3211758"><ele>24.0</ele><time>2026-05-05T07:45:28.211Z</time></trkpt><trkpt lat="53.3430375" lon="-6.3214603"><ele>24.0</ele><time>2026-05-05T07:45:29.212Z</time></trkpt><trkpt lat="53.3430898" lon="-6.3217289"><ele>24.666666666666664</ele><time>2026-05-05T07:45:30.212Z</time></trkpt><trkpt lat="53.3431344" lon="-6.3220128"><ele>25.333333333333332</ele><time>2026-05-05T07:45:31.211Z</time></trkpt><trkpt lat="53.3431851" lon="-6.322303"><ele>26.0</ele><time>2026-05-05T07:45:32.212Z</time></trkpt><trkpt lat="53.3432419" lon="-6.3225912"><ele>26.0</ele><time>2026-05-05T07:45:33.212Z</time></trkpt><trkpt lat="53.3432912" lon="-6.3228925"><ele>26.0</ele><time>2026-05-05T07:45:34.212Z</time></trkpt><trkpt lat="53.3433425" lon="-6.3232064"><ele>26.0</ele><time>2026-05-05T07:45:35.212Z</time></trkpt><trkpt lat="53.3433921" lon="-6.3235251"><ele>26.0</ele><time>2026-05-05T07:45:36.211Z</time></trkpt><trkpt lat="53.3434251" lon="-6.3238667"><ele>26.0</ele><time>2026-05-05T07:45:37.212Z</time></trkpt><trkpt lat="53.3434981" lon="-6.3241968"><ele>26.0</ele><time>2026-05-05T07:45:38.212Z</time></trkpt><trkpt lat="53.3435841" lon="-6.3245176"><ele>26.0</ele><time>2026-05-05T07:45:39.212Z</time></trkpt><trkpt lat="53.3436498" lon="-6.3248458"><ele>26.0</ele><time>2026-05-05T07:45:40.212Z</time></trkpt><trkpt lat="53.3437192" lon="-6.325193"><ele>26.0</ele><time>2026-05-05T07:45:41.212Z</time></trkpt><trkpt lat="53.3437921" lon="-6.3255421"><ele>26.333333333333332</ele><time>2026-05-05T07:45:42.212Z</time></trkpt><trkpt lat="53.3438578" lon="-6.3258951"><ele>26.666666666666664</ele><time>2026-05-05T07:45:43.211Z</time></trkpt><trkpt lat="53.3439291" lon="-6.3262284"><ele>27.0</ele><time>2026-05-05T07:45:44.212Z</time></trkpt><trkpt lat="53.3440023" lon="-6.3265654"><ele>25.0</ele><time>2026-05-05T07:45:45.212Z</time></trkpt><trkpt lat="53.3440699" lon="-6.3269127"><ele>23.0</ele><time>2026-05-05T07:45:46.212Z</time></trkpt><trkpt lat="53.3441413" lon="-6.32727"><ele>21.0</ele><time>2026-05-05T07:45:47.212Z</time></trkpt><trkpt lat="53.3442278" lon="-6.3276233"><ele>21.0</ele><time>2026-05-05T07:45:48.212Z</time></trkpt><trkpt lat="53.3442941" lon="-6.3279797"><ele>21.0</ele><time>2026-05-05T07:45:49.211Z</time></trkpt><trkpt lat="53.3443496" lon="-6.3283335"><ele>21.0</ele><time>2026-05-05T07:45:50.212Z</time></trkpt><trkpt lat="53.3444078" lon="-6.3286836"><ele>23.5</ele><time>2026-05-05T07:45:51.211Z</time></trkpt><trkpt lat="53.3444684" lon="-6.3290428"><ele>26.0</ele><time>2026-05-05T07:45:52.211Z</time></trkpt><trkpt lat="53.3445563" lon="-6.3293993"><ele>25.5</ele><time>2026-05-05T07:45:53.212Z</time></trkpt><trkpt lat="53.3446346" lon="-6.3297715"><ele>25.0</ele><time>2026-05-05T07:45:54.212Z</time></trkpt><trkpt lat="53.3447116" lon="-6.3301447"><ele>17.5</ele><time>2026-05-05T07:45:55.212Z</time></trkpt><trkpt lat="53.3447961" lon="-6.3305185"><ele>10.0</ele><time>2026-05-05T07:45:56.212Z</time></trkpt><trkpt lat="53.3448813" lon="-6.3308859"><ele>10.0</ele><time>2026-05-05T07:45:57.211Z</time></trkpt><trkpt lat="53.3449582" lon="-6.3312672"><ele>10.0</ele><time>2026-05-05T07:45:58.212Z</time></trkpt><trkpt lat="53.3450237" lon="-6.331666"><ele>11.5</ele><time>2026-05-05T07:45:59.212Z</time></trkpt><trkpt lat="53.3450743" lon="-6.332073"><ele>13.0</ele><time>2026-05-05T07:46:00.212Z</time></trkpt><trkpt lat="53.3450877" lon="-6.3324594"><ele>14.0</ele><time>2026-05-05T07:46:01.212Z</time></trkpt><trkpt lat="53.3450879" lon="-6.3328487"><ele>15.0</ele><time>2026-05-05T07:46:02.211Z</time></trkpt><trkpt lat="53.345107" lon="-6.3332058"><ele>16.0</ele><time>2026-05-05T07:46:03.212Z</time></trkpt><trkpt lat="53.3451546" lon="-6.3335648"><ele>16.0</ele><time>2026-05-05T07:46:04.211Z</time></trkpt><trkpt lat="53.3451615" lon="-6.3339295"><ele>16.0</ele><time>2026-05-05T07:46:05.212Z</time></trkpt><trkpt lat="53.3451527" lon="-6.3342979"><ele>16.0</ele><time>2026-05-05T07:46:06.211Z</time></trkpt><trkpt lat="53.3450974" lon="-6.3347197"><ele>15.5</ele><time>2026-05-05T07:46:07.212Z</time></trkpt><trkpt lat="53.3450247" lon="-6.3351364"><ele>15.0</ele><time>2026-05-05T07:46:08.212Z</time></trkpt><trkpt lat="53.3449802" lon="-6.3355304"><ele>13.5</ele><time>2026-05-05T07:46:09.212Z</time></trkpt><trkpt lat="53.3449173" lon="-6.3359051"><ele>12.0</ele><time>2026-05-05T07:46:10.212Z</time></trkpt><trkpt lat="53.3448308" lon="-6.3362933"><ele>10.5</ele><time>2026-05-05T07:46:11.212Z</time></trkpt><trkpt lat="53.3447245" lon="-6.3366846"><ele>9.0</ele><time>2026-05-05T07:46:12.212Z</time></trkpt><trkpt lat="53.3446258" lon="-6.3370578"><ele>10.333333333333332</ele><time>2026-05-05T07:46:13.211Z</time></trkpt><trkpt lat="53.3445675" lon="-6.3374159"><ele>11.666666666666666</ele><time>2026-05-05T07:46:14.211Z</time></trkpt><trkpt lat="53.3445331" lon="-6.3377621"><ele>13.0</ele><time>2026-05-05T07:46:15.212Z</time></trkpt><trkpt lat="53.3444956" lon="-6.338098"><ele>13.333333333333332</ele><time>2026-05-05T07:46:16.211Z</time></trkpt><trkpt lat="53.3444756" lon="-6.3384583"><ele>13.666666666666668</ele><time>2026-05-05T07:46:17.212Z</time></trkpt><trkpt lat="53.3444424" lon="-6.3388231"><ele>14.0</ele><time>2026-05-05T07:46:18.212Z</time></trkpt><trkpt lat="53.3444103" lon="-6.3391727"><ele>15.5</ele><time>2026-05-05T07:46:19.212Z</time></trkpt><trkpt lat="53.3443874" lon="-6.3395499"><ele>17.0</ele><time>2026-05-05T07:46:20.211Z</time></trkpt><trkpt lat="53.3443775" lon="-6.3399381"><ele>19.5</ele><time>2026-05-05T07:46:21.211Z</time></trkpt><trkpt lat="53.3443805" lon="-6.3403314"><ele>22.0</ele><time>2026-05-05T07:46:22.212Z</time></trkpt><trkpt lat="53.3443979" lon="-6.3407306"><ele>24.5</ele><time>2026-05-05T07:46:23.212Z</time></trkpt><trkpt lat="53.3444269" lon="-6.3411395"><ele>27.0</ele><time>2026-05-05T07:46:24.212Z</time></trkpt><trkpt lat="53.3445094" lon="-6.3415664"><ele>28.0</ele><time>2026-05-05T07:46:25.211Z</time></trkpt><trkpt lat="53.3445618" lon="-6.3419817"><ele>29.0</ele><time>2026-05-05T07:46:26.211Z</time></trkpt><trkpt lat="53.3446071" lon="-6.3423876"><ele>29.5</ele><time>2026-05-05T07:46:27.212Z</time></trkpt><trkpt lat="53.3446346" lon="-6.3427899"><ele>30.0</ele><time>2026-05-05T07:46:28.212Z</time></trkpt><trkpt lat="53.3446551" lon="-6.343184"><ele>30.333333333333336</ele><time>2026-05-05T07:46:29.212Z</time></trkpt><trkpt lat="53.3446603" lon="-6.3435628"><ele>30.666666666666668</ele><time>2026-05-05T07:46:30.212Z</time></trkpt><trkpt lat="53.3446681" lon="-6.3439305"><ele>31.0</ele><time>2026-05-05T07:46:31.212Z</time></trkpt><trkpt lat="53.3447001" lon="-6.3442797"><ele>29.0</ele><time>2026-05-05T07:46:32.212Z</time></trkpt><trkpt lat="53.344749" lon="-6.3446272"><ele>27.0</ele><time>2026-05-05T07:46:33.211Z</time></trkpt><trkpt lat="53.3448237" lon="-6.3449713"><ele>25.0</ele><time>2026-05-05T07:46:34.212Z</time></trkpt><trkpt lat="53.3449049" lon="-6.3453257"><ele>27.0</ele><time>2026-05-05T07:46:35.212Z</time></trkpt><trkpt lat="53.3450464" lon="-6.345652"><ele>29.0</ele><time>2026-05-05T07:46:36.212Z</time></trkpt><trkpt lat="53.345179" lon="-6.3459579"><ele>29.0</ele><time>2026-05-05T07:46:37.212Z</time></trkpt><trkpt lat="53.3453128" lon="-6.3462453"><ele>29.0</ele><time>2026-05-05T07:46:38.212Z</time></trkpt><trkpt lat="53.345477" lon="-6.3464987"><ele>29.0</ele><time>2026-05-05T07:46:39.212Z</time></trkpt><trkpt lat="53.3456519" lon="-6.3467332"><ele>27.0</ele><time>2026-05-05T07:46:40.211Z</time></trkpt><trkpt lat="53.345852" lon="-6.3469467"><ele>25.0</ele><time>2026-05-05T07:46:41.212Z</time></trkpt><trkpt lat="53.3460481" lon="-6.3471663"><ele>25.5</ele><time>2026-05-05T07:46:42.211Z</time></trkpt><trkpt lat="53.3462571" lon="-6.3473747"><ele>26.0</ele><time>2026-05-05T07:46:43.212Z</time></trkpt><trkpt lat="53.3464848" lon="-6.347531"><ele>26.0</ele><time>2026-05-05T07:46:44.212Z</time></trkpt><trkpt lat="53.3467135" lon="-6.3476933"><ele>26.0</ele><time>2026-05-05T07:46:45.212Z</time></trkpt><trkpt lat="53.3469385" lon="-6.3478464"><ele>26.0</ele><time>2026-05-05T07:46:46.212Z</time></trkpt><trkpt lat="53.347163" lon="-6.3480241"><ele>26.0</ele><time>2026-05-05T07:46:47.212Z</time></trkpt><trkpt lat="53.3473794" lon="-6.3482244"><ele>27.0</ele><time>2026-05-05T07:46:48.211Z</time></trkpt><trkpt lat="53.3476022" lon="-6.3484139"><ele>28.0</ele><time>2026-05-05T07:46:49.211Z</time></trkpt><trkpt lat="53.3478287" lon="-6.3486099"><ele>26.0</ele><time>2026-05-05T07:46:50.212Z</time></trkpt><trkpt lat="53.3480617" lon="-6.348786"><ele>24.0</ele><time>2026-05-05T07:46:51.212Z</time></trkpt><trkpt lat="53.3482743" lon="-6.3489705"><ele>29.0</ele><time>2026-05-05T07:46:52.211Z</time></trkpt><trkpt lat="53.3484835" lon="-6.3491592"><ele>34.0</ele><time>2026-05-05T07:46:53.212Z</time></trkpt><trkpt lat="53.3486829" lon="-6.3493697"><ele>34.0</ele><time>2026-05-05T07:46:54.212Z</time></trkpt><trkpt lat="53.348872" lon="-6.3495947"><ele>34.0</ele><time>2026-05-05T07:46:55.211Z</time></trkpt><trkpt lat="53.3490429" lon="-6.3498454"><ele>34.333333333333336</ele><time>2026-05-05T07:46:56.211Z</time></trkpt><trkpt lat="53.3491964" lon="-6.3501277"><ele>34.666666666666664</ele><time>2026-05-05T07:46:57.212Z</time></trkpt><trkpt lat="53.3493456" lon="-6.3503889"><ele>35.0</ele><time>2026-05-05T07:46:58.211Z</time></trkpt><trkpt lat="53.3494794" lon="-6.3506613"><ele>35.666666666666664</ele><time>2026-05-05T07:46:59.212Z</time></trkpt><trkpt lat="53.3495769" lon="-6.3509203"><ele>36.333333333333336</ele><time>2026-05-05T07:47:00.212Z</time></trkpt><trkpt lat="53.3496546" lon="-6.3511769"><ele>37.0</ele><time>2026-05-05T07:47:01.212Z</time></trkpt><trkpt lat="53.3497178" lon="-6.3514517"><ele>34.0</ele><time>2026-05-05T07:47:02.211Z</time></trkpt><trkpt lat="53.3497718" lon="-6.3517264"><ele>31.0</ele><time>2026-05-05T07:47:03.212Z</time></trkpt><trkpt lat="53.3498302" lon="-6.3520173"><ele>28.0</ele><time>2026-05-05T07:47:04.212Z</time></trkpt><trkpt lat="53.3498934" lon="-6.3523269"><ele>28.0</ele><time>2026-05-05T07:47:05.212Z</time></trkpt><trkpt lat="53.3499431" lon="-6.3526292"><ele>28.0</ele><time>2026-05-05T07:47:06.212Z</time></trkpt><trkpt lat="53.3499903" lon="-6.3529446"><ele>28.0</ele><time>2026-05-05T07:47:07.212Z</time></trkpt><trkpt lat="53.3500287" lon="-6.3532831"><ele>28.0</ele><time>2026-05-05T07:47:08.211Z</time></trkpt><trkpt lat="53.3500643" lon="-6.3536037"><ele>28.0</ele><time>2026-05-05T07:47:09.212Z</time></trkpt><trkpt lat="53.350099" lon="-6.353898"><ele>28.0</ele><time>2026-05-05T07:47:10.212Z</time></trkpt><trkpt lat="53.350138" lon="-6.3541505"><ele>29.0</ele><time>2026-05-05T07:47:11.211Z</time></trkpt><trkpt lat="53.3501676" lon="-6.354395"><ele>30.0</ele><time>2026-05-05T07:47:12.212Z</time></trkpt><trkpt lat="53.3501874" lon="-6.3546394"><ele>31.0</ele><time>2026-05-05T07:47:13.212Z</time></trkpt><trkpt lat="53.3501901" lon="-6.3549176"><ele>31.666666666666668</ele><time>2026-05-05T07:47:14.212Z</time></trkpt><trkpt lat="53.3502108" lon="-6.3551999"><ele>32.333333333333336</ele><time>2026-05-05T07:47:15.211Z</time></trkpt><trkpt lat="53.350245" lon="-6.3554635"><ele>33.0</ele><time>2026-05-05T07:47:16.212Z</time></trkpt><trkpt lat="53.3503158" lon="-6.3557328"><ele>33.666666666666664</ele><time>2026-05-05T07:47:17.212Z</time></trkpt><trkpt lat="53.3503909" lon="-6.3559978"><ele>34.33333333333333</ele><time>2026-05-05T07:47:18.212Z</time></trkpt><trkpt lat="53.3504784" lon="-6.3562571"><ele>35.0</ele><time>2026-05-05T07:47:19.212Z</time></trkpt><trkpt lat="53.350589" lon="-6.3565045"><ele>35.0</ele><time>2026-05-05T07:47:20.212Z</time></trkpt><trkpt lat="53.3507467" lon="-6.3567427"><ele>35.0</ele><time>2026-05-05T07:47:21.212Z</time></trkpt><trkpt lat="53.3509051" lon="-6.3569762"><ele>35.0</ele><time>2026-05-05T07:47:22.212Z</time></trkpt><trkpt lat="53.3510719" lon="-6.3572129"><ele>34.666666666666664</ele><time>2026-05-05T07:47:23.211Z</time></trkpt><trkpt lat="53.3512403" lon="-6.3574328"><ele>34.333333333333336</ele><time>2026-05-05T07:47:24.211Z</time></trkpt><trkpt lat="53.3514527" lon="-6.3576021"><ele>34.0</ele><time>2026-05-05T07:47:25.211Z</time></trkpt><trkpt lat="53.3516488" lon="-6.3577788"><ele>34.0</ele><time>2026-05-05T07:47:26.212Z</time></trkpt><trkpt lat="53.3518595" lon="-6.3579722"><ele>34.0</ele><time>2026-05-05T07:47:27.212Z</time></trkpt><trkpt lat="53.3520411" lon="-6.3581781"><ele>35.66666666666667</ele><time>2026-05-05T07:47:28.212Z</time></trkpt><trkpt lat="53.3521886" lon="-6.3583955"><ele>37.333333333333336</ele><time>2026-05-05T07:47:29.212Z</time></trkpt><trkpt lat="53.3523544" lon="-6.3585895"><ele>39.0</ele><time>2026-05-05T07:47:30.212Z</time></trkpt><trkpt lat="53.3524983" lon="-6.3588136"><ele>38.333333333333336</ele><time>2026-05-05T07:47:31.212Z</time></trkpt><trkpt lat="53.352634" lon="-6.3590459"><ele>37.66666666666667</ele><time>2026-05-05T07:47:32.211Z</time></trkpt><trkpt lat="53.3527463" lon="-6.359326"><ele>37.0</ele><time>2026-05-05T07:47:33.212Z</time></trkpt><trkpt lat="53.352828" lon="-6.3595951"><ele>38.333333333333336</ele><time>2026-05-05T07:47:34.212Z</time></trkpt><trkpt lat="53.3529042" lon="-6.3599174"><ele>39.666666666666664</ele><time>2026-05-05T07:47:35.212Z</time></trkpt><trkpt lat="53.3529592" lon="-6.3602748"><ele>41.0</ele><time>2026-05-05T07:47:36.212Z</time></trkpt><trkpt lat="53.3530129" lon="-6.3606116"><ele>39.666666666666664</ele><time>2026-05-05T07:47:37.211Z</time></trkpt><trkpt lat="53.3530521" lon="-6.3609419"><ele>38.333333333333336</ele><time>2026-05-05T07:47:38.211Z</time></trkpt><trkpt lat="53.3530586" lon="-6.3612821"><ele>37.0</ele><time>2026-05-05T07:47:39.212Z</time></trkpt><trkpt lat="53.353059" lon="-6.3615887"><ele>37.0</ele><time>2026-05-05T07:47:40.212Z</time></trkpt><trkpt lat="53.3530513" lon="-6.3618684"><ele>37.0</ele><time>2026-05-05T07:47:41.212Z</time></trkpt><trkpt lat="53.3530567" lon="-6.362092"><ele>37.0</ele><time>2026-05-05T07:47:42.212Z</time></trkpt><trkpt lat="53.3530725" lon="-6.3622813"><ele>37.0</ele><time>2026-05-05T07:47:43.211Z</time></trkpt><trkpt lat="53.3530877" lon="-6.3624576"><ele>37.5</ele><time>2026-05-05T07:47:44.212Z</time></trkpt><trkpt lat="53.3530979" lon="-6.3626191"><ele>38.0</ele><time>2026-05-05T07:47:45.212Z</time></trkpt><trkpt lat="53.3531133" lon="-6.3627733"><ele>38.5</ele><time>2026-05-05T07:47:46.212Z</time></trkpt><trkpt lat="53.3531217" lon="-6.362935"><ele>39.0</ele><time>2026-05-05T07:47:47.212Z</time></trkpt><trkpt lat="53.35313" lon="-6.3630683"><ele>39.5</ele><time>2026-05-05T07:47:48.211Z</time></trkpt><trkpt lat="53.353135" lon="-6.363175"><ele>40.0</ele><time>2026-05-05T07:47:49.212Z</time></trkpt><trkpt lat="53.3531433" lon="-6.3633383"><ele>40.16666666666667</ele><time>2026-05-05T07:47:51.212Z</time></trkpt><trkpt lat="53.3531317" lon="-6.3634617"><ele>40.333333333333336</ele><time>2026-05-05T07:47:53.211Z</time></trkpt><trkpt lat="53.3530917" lon="-6.3635467"><ele>40.5</ele><time>2026-05-05T07:47:55.212Z</time></trkpt><trkpt lat="53.3530383" lon="-6.3636133"><ele>40.666666666666664</ele><time>2026-05-05T07:47:57.212Z</time></trkpt><trkpt lat="53.3530083" lon="-6.3637067"><ele>40.83333333333333</ele><time>2026-05-05T07:48:02.212Z</time></trkpt><trkpt lat="53.3529517" lon="-6.3637983"><ele>41.0</ele><time>2026-05-05T07:51:00.211Z</time></trkpt><trkpt lat="53.35308" lon="-6.36384"><ele>41.4</ele><time>2026-05-05T07:51:42.211Z</time></trkpt><trkpt lat="53.3530083" lon="-6.3638083"><ele>41.8</ele><time>2026-05-05T07:53:03.212Z</time></trkpt><trkpt lat="53.3530917" lon="-6.3639667"><ele>42.199999999999996</ele><time>2026-05-05T07:57:18.212Z</time></trkpt><trkpt lat="53.3531383" lon="-6.3640433"><ele>42.599999999999994</ele><time>2026-05-05T07:58:40.212Z</time></trkpt><trkpt lat="53.3531917" lon="-6.3642467"><ele>43.0</ele><time>2026-05-05T07:58:42.211Z</time></trkpt><trkpt lat="53.3532267" lon="-6.3643683"><ele>43.0</ele><time>2026-05-05T07:58:43.212Z</time></trkpt><trkpt lat="53.35327" lon="-6.36452"><ele>43.0</ele><time>2026-05-05T07:58:44.211Z</time></trkpt><trkpt lat="53.3533067" lon="-6.364715"><ele>43.0</ele><time>2026-05-05T07:58:45.212Z</time></trkpt><trkpt lat="53.35335" lon="-6.3649233"><ele>43.0</ele><time>2026-05-05T07:58:46.212Z</time></trkpt><trkpt lat="53.3533767" lon="-6.36514"><ele>43.0</ele><time>2026-05-05T07:58:47.211Z</time></trkpt><trkpt lat="53.3534" lon="-6.3653517"><ele>43.0</ele><time>2026-05-05T07:58:48.212Z</time></trkpt><trkpt lat="53.3534233" lon="-6.3655667"><ele>43.0</ele><time>2026-05-05T07:58:49.212Z</time></trkpt><trkpt lat="53.353455" lon="-6.36574"><ele>43.0</ele><time>2026-05-05T07:58:50.212Z</time></trkpt><trkpt lat="53.3534817" lon="-6.3659067"><ele>43.0</ele><time>2026-05-05T07:58:51.212Z</time></trkpt><trkpt lat="53.3535117" lon="-6.3660667"><ele>43.0</ele><time>2026-05-05T07:58:52.212Z</time></trkpt><trkpt lat="53.3535433" lon="-6.3661983"><ele>43.0</ele><time>2026-05-05T07:58:53.212Z</time></trkpt><trkpt lat="53.3535717" lon="-6.36632"><ele>43.0</ele><time>2026-05-05T07:58:54.212Z</time></trkpt><trkpt lat="53.3535967" lon="-6.3664333"><ele>43.0</ele><time>2026-05-05T07:58:55.212Z</time></trkpt><trkpt lat="53.353645" lon="-6.3666083"><ele>43.0</ele><time>2026-05-05T07:58:57.211Z</time></trkpt><trkpt lat="53.3536833" lon="-6.366735"><ele>43.0</ele><time>2026-05-05T07:58:59.212Z</time></trkpt><trkpt lat="53.3537283" lon="-6.3668683"><ele>43.0</ele><time>2026-05-05T07:59:01.212Z</time></trkpt><trkpt lat="53.353775" lon="-6.3670367"><ele>43.0</ele><time>2026-05-05T07:59:03.212Z</time></trkpt><trkpt lat="53.3538" lon="-6.3672333"><ele>43.0</ele><time>2026-05-05T07:59:05.212Z</time></trkpt><trkpt lat="53.3538167" lon="-6.367355"><ele>43.0</ele><time>2026-05-05T07:59:06.212Z</time></trkpt><trkpt lat="53.3538383" lon="-6.367505"><ele>43.0</ele><time>2026-05-05T07:59:07.211Z</time></trkpt><trkpt lat="53.3538717" lon="-6.367665"><ele>43.0</ele><time>2026-05-05T07:59:08.211Z</time></trkpt><trkpt lat="53.3539067" lon="-6.3678183"><ele>43.0</ele><time>2026-05-05T07:59:09.212Z</time></trkpt><trkpt lat="53.3539367" lon="-6.367975"><ele>43.0</ele><time>2026-05-05T07:59:10.212Z</time></trkpt><trkpt lat="53.3539683" lon="-6.3681233"><ele>43.5</ele><time>2026-05-05T07:59:11.212Z</time></trkpt><trkpt lat="53.3540017" lon="-6.3682917"><ele>44.0</ele><time>2026-05-05T07:59:12.212Z</time></trkpt><trkpt lat="53.3540367" lon="-6.368475"><ele>44.5</ele><time>2026-05-05T07:59:13.211Z</time></trkpt><trkpt lat="53.3540783" lon="-6.36867"><ele>45.0</ele><time>2026-05-05T07:59:14.212Z</time></trkpt><trkpt lat="53.3541233" lon="-6.3688717"><ele>45.25</ele><time>2026-05-05T07:59:15.212Z</time></trkpt><trkpt lat="53.3541883" lon="-6.36908"><ele>45.5</ele><time>2026-05-05T07:59:16.211Z</time></trkpt><trkpt lat="53.35423" lon="-6.3692583"><ele>45.75</ele><time>2026-05-05T07:59:17.211Z</time></trkpt><trkpt lat="53.3542667" lon="-6.3694233"><ele>46.0</ele><time>2026-05-05T07:59:18.212Z</time></trkpt><trkpt lat="53.3543" lon="-6.369575"><ele>46.0</ele><time>2026-05-05T07:59:19.212Z</time></trkpt><trkpt lat="53.3543317" lon="-6.3697233"><ele>46.0</ele><time>2026-05-05T07:59:20.211Z</time></trkpt><trkpt lat="53.354365" lon="-6.36987"><ele>46.0</ele><time>2026-05-05T07:59:21.211Z</time></trkpt><trkpt lat="53.3544017" lon="-6.3700267"><ele>46.0</ele><time>2026-05-05T07:59:22.212Z</time></trkpt><trkpt lat="53.35444" lon="-6.3701833"><ele>46.0</ele><time>2026-05-05T07:59:23.211Z</time></trkpt><trkpt lat="53.3544767" lon="-6.370335"><ele>46.0</ele><time>2026-05-05T07:59:24.211Z</time></trkpt><trkpt lat="53.354515" lon="-6.3704817"><ele>46.0</ele><time>2026-05-05T07:59:25.212Z</time></trkpt><trkpt lat="53.3545517" lon="-6.3706267"><ele>46.0</ele><time>2026-05-05T07:59:26.212Z</time></trkpt><trkpt lat="53.354585" lon="-6.3707683"><ele>46.0</ele><time>2026-05-05T07:59:27.211Z</time></trkpt><trkpt lat="53.3546083" lon="-6.3708917"><ele>46.0</ele><time>2026-05-05T07:59:28.212Z</time></trkpt><trkpt lat="53.3546283" lon="-6.371"><ele>46.0</ele><time>2026-05-05T07:59:29.211Z</time></trkpt><trkpt lat="53.3546733" lon="-6.3711817"><ele>46.333333333333336</ele><time>2026-05-05T07:59:31.212Z</time></trkpt><trkpt lat="53.3547133" lon="-6.3713583"><ele>46.66666666666667</ele><time>2026-05-05T07:59:33.212Z</time></trkpt><trkpt lat="53.3547433" lon="-6.3714633"><ele>47.0</ele><time>2026-05-05T07:59:34.211Z</time></trkpt><trkpt lat="53.354775" lon="-6.37158"><ele>47.333333333333336</ele><time>2026-05-05T07:59:35.212Z</time></trkpt><trkpt lat="53.3548067" lon="-6.3716983"><ele>47.666666666666664</ele><time>2026-05-05T07:59:36.211Z</time></trkpt><trkpt lat="53.3548417" lon="-6.3718217"><ele>48.0</ele><time>2026-05-05T07:59:37.211Z</time></trkpt><trkpt lat="53.3548783" lon="-6.3719683"><ele>48.0</ele><time>2026-05-05T07:59:38.212Z</time></trkpt><trkpt lat="53.3549217" lon="-6.3721317"><ele>48.0</ele><time>2026-05-05T07:59:39.211Z</time></trkpt><trkpt lat="53.3549667" lon="-6.3723217"><ele>48.0</ele><time>2026-05-05T07:59:40.211Z</time></trkpt><trkpt lat="53.35504" lon="-6.372525"><ele>48.0</ele><time>2026-05-05T07:59:41.211Z</time></trkpt><trkpt lat="53.3551133" lon="-6.3727533"><ele>48.0</ele><time>2026-05-05T07:59:42.212Z</time></trkpt><trkpt lat="53.35518" lon="-6.3729883"><ele>48.0</ele><time>2026-05-05T07:59:43.211Z</time></trkpt><trkpt lat="53.35523" lon="-6.3732267"><ele>48.0</ele><time>2026-05-05T07:59:44.212Z</time></trkpt><trkpt lat="53.355285" lon="-6.3734633"><ele>48.0</ele><time>2026-05-05T07:59:45.211Z</time></trkpt><trkpt lat="53.3553383" lon="-6.3736917"><ele>48.0</ele><time>2026-05-05T07:59:46.212Z</time></trkpt><trkpt lat="53.3554033" lon="-6.3739283"><ele>48.0</ele><time>2026-05-05T07:59:47.212Z</time></trkpt><trkpt lat="53.3554667" lon="-6.374185"><ele>48.0</ele><time>2026-05-05T07:59:48.212Z</time></trkpt><trkpt lat="53.35553" lon="-6.3744483"><ele>48.0</ele><time>2026-05-05T07:59:49.212Z</time></trkpt><trkpt lat="53.3556033" lon="-6.374755"><ele>48.0</ele><time>2026-05-05T07:59:50.211Z</time></trkpt><trkpt lat="53.35567" lon="-6.3750583"><ele>47.666666666666664</ele><time>2026-05-05T07:59:51.211Z</time></trkpt><trkpt lat="53.3557333" lon="-6.3753517"><ele>47.33333333333333</ele><time>2026-05-05T07:59:52.212Z</time></trkpt><trkpt lat="53.3557983" lon="-6.3756433"><ele>47.0</ele><time>2026-05-05T07:59:53.212Z</time></trkpt><trkpt lat="53.3558583" lon="-6.3759217"><ele>46.666666666666664</ele><time>2026-05-05T07:59:54.212Z</time></trkpt><trkpt lat="53.355915" lon="-6.3761767"><ele>46.333333333333336</ele><time>2026-05-05T07:59:55.211Z</time></trkpt><trkpt lat="53.355965" lon="-6.376415"><ele>46.0</ele><time>2026-05-05T07:59:56.212Z</time></trkpt><trkpt lat="53.356015" lon="-6.376635"><ele>46.0</ele><time>2026-05-05T07:59:57.212Z</time></trkpt><trkpt lat="53.3560617" lon="-6.37685"><ele>46.0</ele><time>2026-05-05T07:59:58.211Z</time></trkpt><trkpt lat="53.3560883" lon="-6.3770767"><ele>46.0</ele><time>2026-05-05T07:59:59.211Z</time></trkpt><trkpt lat="53.35612" lon="-6.3772983"><ele>46.0</ele><time>2026-05-05T08:00:00.212Z</time></trkpt><trkpt lat="53.3561683" lon="-6.3775117"><ele>46.66666666666667</ele><time>2026-05-05T08:00:01.212Z</time></trkpt><trkpt lat="53.3562217" lon="-6.3777383"><ele>47.333333333333336</ele><time>2026-05-05T08:00:02.212Z</time></trkpt><trkpt lat="53.35627" lon="-6.3779817"><ele>48.0</ele><time>2026-05-05T08:00:03.212Z</time></trkpt><trkpt lat="53.3563317" lon="-6.37822"><ele>49.0</ele><time>2026-05-05T08:00:04.211Z</time></trkpt><trkpt lat="53.3563833" lon="-6.3784583"><ele>50.0</ele><time>2026-05-05T08:00:05.212Z</time></trkpt><trkpt lat="53.356445" lon="-6.378705"><ele>51.0</ele><time>2026-05-05T08:00:06.212Z</time></trkpt><trkpt lat="53.3564817" lon="-6.3789783"><ele>51.0</ele><time>2026-05-05T08:00:07.212Z</time></trkpt><trkpt lat="53.35653" lon="-6.3792483"><ele>51.0</ele><time>2026-05-05T08:00:08.212Z</time></trkpt><trkpt lat="53.3565833" lon="-6.3795367"><ele>51.0</ele><time>2026-05-05T08:00:09.212Z</time></trkpt><trkpt lat="53.3566283" lon="-6.3797933"><ele>51.0</ele><time>2026-05-05T08:00:10.211Z</time></trkpt><trkpt lat="53.356645" lon="-6.3800567"><ele>51.0</ele><time>2026-05-05T08:00:11.212Z</time></trkpt><trkpt lat="53.3566367" lon="-6.3803167"><ele>51.0</ele><time>2026-05-05T08:00:12.212Z</time></trkpt><trkpt lat="53.3566117" lon="-6.3805717"><ele>51.33333333333333</ele><time>2026-05-05T08:00:13.212Z</time></trkpt><trkpt lat="53.3565817" lon="-6.3808367"><ele>51.666666666666664</ele><time>2026-05-05T08:00:14.211Z</time></trkpt><trkpt lat="53.35655" lon="-6.3811117"><ele>52.0</ele><time>2026-05-05T08:00:15.212Z</time></trkpt><trkpt lat="53.35649" lon="-6.38137"><ele>52.5</ele><time>2026-05-05T08:00:16.212Z</time></trkpt><trkpt lat="53.35645" lon="-6.3816317"><ele>53.0</ele><time>2026-05-05T08:00:17.211Z</time></trkpt><trkpt lat="53.3564033" lon="-6.3818583"><ele>53.5</ele><time>2026-05-05T08:00:18.211Z</time></trkpt><trkpt lat="53.35635" lon="-6.3820467"><ele>54.0</ele><time>2026-05-05T08:00:19.211Z</time></trkpt><trkpt lat="53.3562967" lon="-6.38225"><ele>55.5</ele><time>2026-05-05T08:00:20.212Z</time></trkpt><trkpt lat="53.3562233" lon="-6.3824217"><ele>57.0</ele><time>2026-05-05T08:00:21.211Z</time></trkpt><trkpt lat="53.35615" lon="-6.38261"><ele>58.5</ele><time>2026-05-05T08:00:22.212Z</time></trkpt><trkpt lat="53.3560817" lon="-6.3827983"><ele>60.0</ele><time>2026-05-05T08:00:23.211Z</time></trkpt><trkpt lat="53.3560083" lon="-6.382995"><ele>60.0</ele><time>2026-05-05T08:00:24.211Z</time></trkpt><trkpt lat="53.3559433" lon="-6.3831783"><ele>60.0</ele><time>2026-05-05T08:00:25.211Z</time></trkpt><trkpt lat="53.355835" lon="-6.38337"><ele>60.0</ele><time>2026-05-05T08:00:26.212Z</time></trkpt><trkpt lat="53.35575" lon="-6.38353"><ele>60.0</ele><time>2026-05-05T08:00:27.211Z</time></trkpt><trkpt lat="53.3556667" lon="-6.38364"><ele>60.0</ele><time>2026-05-05T08:00:28.212Z</time></trkpt><trkpt lat="53.355575" lon="-6.383755"><ele>60.0</ele><time>2026-05-05T08:00:29.212Z</time></trkpt><trkpt lat="53.35546" lon="-6.3838683"><ele>60.0</ele><time>2026-05-05T08:00:30.212Z</time></trkpt><trkpt lat="53.3553117" lon="-6.38397"><ele>60.0</ele><time>2026-05-05T08:00:31.212Z</time></trkpt><trkpt lat="53.3551533" lon="-6.3840483"><ele>60.33333333333333</ele><time>2026-05-05T08:00:32.211Z</time></trkpt><trkpt lat="53.3549883" lon="-6.384125"><ele>60.666666666666664</ele><time>2026-05-05T08:00:33.211Z</time></trkpt><trkpt lat="53.3548183" lon="-6.3841917"><ele>61.0</ele><time>2026-05-05T08:00:34.212Z</time></trkpt><trkpt lat="53.354645" lon="-6.3842517"><ele>61.33333333333333</ele><time>2026-05-05T08:00:35.212Z</time></trkpt><trkpt lat="53.3544667" lon="-6.3843217"><ele>61.66666666666667</ele><time>2026-05-05T08:00:36.211Z</time></trkpt><trkpt lat="53.35428" lon="-6.3843867"><ele>62.0</ele><time>2026-05-05T08:00:37.212Z</time></trkpt><trkpt lat="53.354095" lon="-6.38443"><ele>62.0</ele><time>2026-05-05T08:00:38.212Z</time></trkpt><trkpt lat="53.3539167" lon="-6.3845033"><ele>62.0</ele><time>2026-05-05T08:00:39.211Z</time></trkpt><trkpt lat="53.353735" lon="-6.3845767"><ele>62.0</ele><time>2026-05-05T08:00:40.212Z</time></trkpt><trkpt lat="53.3535533" lon="-6.3846367"><ele>62.0</ele><time>2026-05-05T08:00:41.212Z</time></trkpt><trkpt lat="53.3533717" lon="-6.384695"><ele>62.0</ele><time>2026-05-05T08:00:42.212Z</time></trkpt><trkpt lat="53.3531917" lon="-6.3847467"><ele>62.0</ele><time>2026-05-05T08:00:43.211Z</time></trkpt><trkpt lat="53.3530067" lon="-6.38477"><ele>61.66666666666667</ele><time>2026-05-05T08:00:44.212Z</time></trkpt><trkpt lat="53.352805" lon="-6.3848283"><ele>61.33333333333333</ele><time>2026-05-05T08:00:45.212Z</time></trkpt><trkpt lat="53.3526133" lon="-6.3848883"><ele>61.0</ele><time>2026-05-05T08:00:46.212Z</time></trkpt><trkpt lat="53.3524367" lon="-6.3849183"><ele>61.0</ele><time>2026-05-05T08:00:47.211Z</time></trkpt><trkpt lat="53.3522517" lon="-6.3849517"><ele>61.0</ele><time>2026-05-05T08:00:48.212Z</time></trkpt><trkpt lat="53.352065" lon="-6.3850017"><ele>61.0</ele><time>2026-05-05T08:00:49.212Z</time></trkpt><trkpt lat="53.3518767" lon="-6.3850333"><ele>60.0</ele><time>2026-05-05T08:00:50.212Z</time></trkpt><trkpt lat="53.3517017" lon="-6.3850917"><ele>59.0</ele><time>2026-05-05T08:00:51.212Z</time></trkpt><trkpt lat="53.3515417" lon="-6.3851467"><ele>58.0</ele><time>2026-05-05T08:00:52.212Z</time></trkpt><trkpt lat="53.3513883" lon="-6.3851617"><ele>57.75</ele><time>2026-05-05T08:00:53.212Z</time></trkpt><trkpt lat="53.351235" lon="-6.3851767"><ele>57.5</ele><time>2026-05-05T08:00:54.212Z</time></trkpt><trkpt lat="53.3510917" lon="-6.3852183"><ele>57.25</ele><time>2026-05-05T08:00:55.212Z</time></trkpt><trkpt lat="53.3509517" lon="-6.38525"><ele>57.0</ele><time>2026-05-05T08:00:56.212Z</time></trkpt><trkpt lat="53.35081" lon="-6.3852917"><ele>57.0</ele><time>2026-05-05T08:00:57.212Z</time></trkpt><trkpt lat="53.3506467" lon="-6.3853333"><ele>57.0</ele><time>2026-05-05T08:00:58.212Z</time></trkpt><trkpt lat="53.3504783" lon="-6.3853883"><ele>57.0</ele><time>2026-05-05T08:00:59.212Z</time></trkpt><trkpt lat="53.3503033" lon="-6.38544"><ele>57.33333333333333</ele><time>2026-05-05T08:01:00.212Z</time></trkpt><trkpt lat="53.3501233" lon="-6.3854817"><ele>57.666666666666664</ele><time>2026-05-05T08:01:01.212Z</time></trkpt><trkpt lat="53.3499467" lon="-6.3855183"><ele>58.0</ele><time>2026-05-05T08:01:02.212Z</time></trkpt><trkpt lat="53.349775" lon="-6.3855533"><ele>58.0</ele><time>2026-05-05T08:01:03.212Z</time></trkpt><trkpt lat="53.3496267" lon="-6.3856067"><ele>58.0</ele><time>2026-05-05T08:01:04.211Z</time></trkpt><trkpt lat="53.349475" lon="-6.3856483"><ele>58.0</ele><time>2026-05-05T08:01:05.212Z</time></trkpt><trkpt lat="53.3493267" lon="-6.3856833"><ele>58.0</ele><time>2026-05-05T08:01:06.212Z</time></trkpt><trkpt lat="53.349175" lon="-6.3857233"><ele>58.0</ele><time>2026-05-05T08:01:07.212Z</time></trkpt><trkpt lat="53.3490183" lon="-6.385775"><ele>58.0</ele><time>2026-05-05T08:01:08.211Z</time></trkpt><trkpt lat="53.3488417" lon="-6.3858167"><ele>57.33333333333333</ele><time>2026-05-05T08:01:09.212Z</time></trkpt><trkpt lat="53.3486667" lon="-6.3858583"><ele>56.66666666666667</ele><time>2026-05-05T08:01:10.211Z</time></trkpt><trkpt lat="53.3484917" lon="-6.38589"><ele>56.0</ele><time>2026-05-05T08:01:11.212Z</time></trkpt><trkpt lat="53.348315" lon="-6.3859117"><ele>56.0</ele><time>2026-05-05T08:01:12.212Z</time></trkpt><trkpt lat="53.348145" lon="-6.3859367"><ele>56.0</ele><time>2026-05-05T08:01:13.211Z</time></trkpt><trkpt lat="53.34799" lon="-6.3859583"><ele>56.0</ele><time>2026-05-05T08:01:14.211Z</time></trkpt><trkpt lat="53.34784" lon="-6.3859967"><ele>57.0</ele><time>2026-05-05T08:01:15.211Z</time></trkpt><trkpt lat="53.3476767" lon="-6.386025"><ele>58.0</ele><time>2026-05-05T08:01:16.211Z</time></trkpt><trkpt lat="53.3475183" lon="-6.3860683"><ele>59.0</ele><time>2026-05-05T08:01:17.212Z</time></trkpt><trkpt lat="53.3473583" lon="-6.3861117"><ele>59.333333333333336</ele><time>2026-05-05T08:01:18.212Z</time></trkpt><trkpt lat="53.3471917" lon="-6.3861433"><ele>59.66666666666667</ele><time>2026-05-05T08:01:19.211Z</time></trkpt><trkpt lat="53.3470283" lon="-6.3861717"><ele>60.0</ele><time>2026-05-05T08:01:20.212Z</time></trkpt><trkpt lat="53.3468617" lon="-6.3862217"><ele>60.0</ele><time>2026-05-05T08:01:21.212Z</time></trkpt><trkpt lat="53.3467117" lon="-6.3862783"><ele>60.0</ele><time>2026-05-05T08:01:22.212Z</time></trkpt><trkpt lat="53.3465483" lon="-6.3863067"><ele>60.0</ele><time>2026-05-05T08:01:23.211Z</time></trkpt><trkpt lat="53.3463867" lon="-6.3863333"><ele>59.66666666666667</ele><time>2026-05-05T08:01:24.212Z</time></trkpt><trkpt lat="53.34623" lon="-6.3863833"><ele>59.333333333333336</ele><time>2026-05-05T08:01:25.211Z</time></trkpt><trkpt lat="53.3460567" lon="-6.3864267"><ele>59.0</ele><time>2026-05-05T08:01:26.212Z</time></trkpt><trkpt lat="53.34587" lon="-6.3864967"><ele>59.0</ele><time>2026-05-05T08:01:27.212Z</time></trkpt><trkpt lat="53.34568" lon="-6.386565"><ele>59.0</ele><time>2026-05-05T08:01:28.211Z</time></trkpt><trkpt lat="53.3454983" lon="-6.3866117"><ele>59.0</ele><time>2026-05-05T08:01:29.212Z</time></trkpt><trkpt lat="53.3453367" lon="-6.3866633"><ele>58.5</ele><time>2026-05-05T08:01:30.212Z</time></trkpt><trkpt lat="53.3451983" lon="-6.3867083"><ele>58.0</ele><time>2026-05-05T08:01:31.211Z</time></trkpt><trkpt lat="53.3450533" lon="-6.38673"><ele>57.5</ele><time>2026-05-05T08:01:32.211Z</time></trkpt><trkpt lat="53.3449117" lon="-6.386745"><ele>57.0</ele><time>2026-05-05T08:01:33.212Z</time></trkpt><trkpt lat="53.34477" lon="-6.3867733"><ele>56.0</ele><time>2026-05-05T08:01:34.212Z</time></trkpt><trkpt lat="53.3446067" lon="-6.386825"><ele>55.0</ele><time>2026-05-05T08:01:35.212Z</time></trkpt><trkpt lat="53.344425" lon="-6.38689"><ele>54.0</ele><time>2026-05-05T08:01:36.212Z</time></trkpt><trkpt lat="53.3442317" lon="-6.3869617"><ele>54.0</ele><time>2026-05-05T08:01:37.211Z</time></trkpt><trkpt lat="53.344015" lon="-6.3869933"><ele>54.0</ele><time>2026-05-05T08:01:38.212Z</time></trkpt><trkpt lat="53.343825" lon="-6.3870333"><ele>54.0</ele><time>2026-05-05T08:01:39.212Z</time></trkpt><trkpt lat="53.343645" lon="-6.38706"><ele>54.0</ele><time>2026-05-05T08:01:40.212Z</time></trkpt><trkpt lat="53.34349" lon="-6.3870783"><ele>54.0</ele><time>2026-05-05T08:01:41.212Z</time></trkpt><trkpt lat="53.3433467" lon="-6.3871083"><ele>54.0</ele><time>2026-05-05T08:01:42.212Z</time></trkpt><trkpt lat="53.3432217" lon="-6.3871467"><ele>54.0</ele><time>2026-05-05T08:01:43.212Z</time></trkpt><trkpt lat="53.343095" lon="-6.3871683"><ele>54.25</ele><time>2026-05-05T08:01:44.212Z</time></trkpt><trkpt lat="53.3429667" lon="-6.3871767"><ele>54.5</ele><time>2026-05-05T08:01:45.212Z</time></trkpt><trkpt lat="53.3428467" lon="-6.3871733"><ele>54.75</ele><time>2026-05-05T08:01:46.211Z</time></trkpt><trkpt lat="53.3427367" lon="-6.3871933"><ele>55.0</ele><time>2026-05-05T08:01:47.212Z</time></trkpt><trkpt lat="53.3426283" lon="-6.3872"><ele>55.0</ele><time>2026-05-05T08:01:48.211Z</time></trkpt><trkpt lat="53.342525" lon="-6.387225"><ele>55.0</ele><time>2026-05-05T08:01:49.212Z</time></trkpt><trkpt lat="53.3424267" lon="-6.3872433"><ele>55.0</ele><time>2026-05-05T08:01:50.212Z</time></trkpt><trkpt lat="53.3423217" lon="-6.3872483"><ele>55.0</ele><time>2026-05-05T08:01:51.212Z</time></trkpt><trkpt lat="53.34222" lon="-6.387265"><ele>55.0</ele><time>2026-05-05T08:01:52.211Z</time></trkpt><trkpt lat="53.3421183" lon="-6.3872817"><ele>55.2</ele><time>2026-05-05T08:01:53.212Z</time></trkpt><trkpt lat="53.342025" lon="-6.3872983"><ele>55.4</ele><time>2026-05-05T08:01:54.212Z</time></trkpt><trkpt lat="53.3419333" lon="-6.3873067"><ele>55.599999999999994</ele><time>2026-05-05T08:01:55.212Z</time></trkpt><trkpt lat="53.3418433" lon="-6.38731"><ele>55.8</ele><time>2026-05-05T08:01:56.212Z</time></trkpt><trkpt lat="53.341755" lon="-6.387325"><ele>56.0</ele><time>2026-05-05T08:01:57.211Z</time></trkpt><trkpt lat="53.3416617" lon="-6.38734"><ele>56.00000000000001</ele><time>2026-05-05T08:01:58.211Z</time></trkpt><trkpt lat="53.34158" lon="-6.3873483"><ele>56.0</ele><time>2026-05-05T08:01:59.212Z</time></trkpt><trkpt lat="53.3414933" lon="-6.3873483"><ele>56.0</ele><time>2026-05-05T08:02:00.212Z</time></trkpt><trkpt lat="53.3414183" lon="-6.387355"><ele>56.0</ele><time>2026-05-05T08:02:01.212Z</time></trkpt><trkpt lat="53.341325" lon="-6.3873617"><ele>56.00000000000001</ele><time>2026-05-05T08:02:02.212Z</time></trkpt><trkpt lat="53.3412267" lon="-6.387365"><ele>56.0</ele><time>2026-05-05T08:02:03.211Z</time></trkpt><trkpt lat="53.3411167" lon="-6.38736"><ele>56.0</ele><time>2026-05-05T08:02:04.211Z</time></trkpt><trkpt lat="53.3410033" lon="-6.3873567"><ele>56.0</ele><time>2026-05-05T08:02:05.212Z</time></trkpt><trkpt lat="53.340885" lon="-6.3873683"><ele>56.0</ele><time>2026-05-05T08:02:06.212Z</time></trkpt><trkpt lat="53.3407717" lon="-6.38735"><ele>56.0</ele><time>2026-05-05T08:02:07.212Z</time></trkpt><trkpt lat="53.3406533" lon="-6.387345"><ele>56.0</ele><time>2026-05-05T08:02:08.212Z</time></trkpt><trkpt lat="53.3405317" lon="-6.387335"><ele>56.0</ele><time>2026-05-05T08:02:09.212Z</time></trkpt><trkpt lat="53.340405" lon="-6.387325"><ele>56.0</ele><time>2026-05-05T08:02:10.212Z</time></trkpt><trkpt lat="53.3402683" lon="-6.3873167"><ele>56.0</ele><time>2026-05-05T08:02:11.212Z</time></trkpt><trkpt lat="53.340125" lon="-6.3873017"><ele>56.0</ele><time>2026-05-05T08:02:12.211Z</time></trkpt><trkpt lat="53.33999" lon="-6.3872733"><ele>56.0</ele><time>2026-05-05T08:02:13.211Z</time></trkpt><trkpt lat="53.339855" lon="-6.387235"><ele>56.0</ele><time>2026-05-05T08:02:14.212Z</time></trkpt><trkpt lat="53.3397183" lon="-6.3872067"><ele>56.0</ele><time>2026-05-05T08:02:15.212Z</time></trkpt><trkpt lat="53.3395867" lon="-6.3871733"><ele>56.0</ele><time>2026-05-05T08:02:16.211Z</time></trkpt><trkpt lat="53.33946" lon="-6.3871417"><ele>56.0</ele><time>2026-05-05T08:02:17.212Z</time></trkpt><trkpt lat="53.3393417" lon="-6.3870983"><ele>56.0</ele><time>2026-05-05T08:02:18.212Z</time></trkpt><trkpt lat="53.3392133" lon="-6.387055"><ele>56.0</ele><time>2026-05-05T08:02:19.212Z</time></trkpt><trkpt lat="53.339075" lon="-6.3870217"><ele>56.0</ele><time>2026-05-05T08:02:20.211Z</time></trkpt><trkpt lat="53.338935" lon="-6.386985"><ele>56.0</ele><time>2026-05-05T08:02:21.212Z</time></trkpt><trkpt lat="53.3388017" lon="-6.3869483"><ele>56.0</ele><time>2026-05-05T08:02:22.212Z</time></trkpt><trkpt lat="53.3386767" lon="-6.3868833"><ele>56.0</ele><time>2026-05-05T08:02:23.212Z</time></trkpt><trkpt lat="53.33855" lon="-6.3868233"><ele>55.599999999999994</ele><time>2026-05-05T08:02:24.211Z</time></trkpt><trkpt lat="53.338425" lon="-6.3867683"><ele>55.199999999999996</ele><time>2026-05-05T08:02:25.212Z</time></trkpt><trkpt lat="53.33832" lon="-6.3867283"><ele>54.800000000000004</ele><time>2026-05-05T08:02:26.211Z</time></trkpt><trkpt lat="53.338225" lon="-6.3866933"><ele>54.400000000000006</ele><time>2026-05-05T08:02:27.211Z</time></trkpt><trkpt lat="53.3381217" lon="-6.3866517"><ele>54.0</ele><time>2026-05-05T08:02:28.212Z</time></trkpt><trkpt lat="53.3380117" lon="-6.3866083"><ele>55.0</ele><time>2026-05-05T08:02:29.212Z</time></trkpt><trkpt lat="53.3378967" lon="-6.3865517"><ele>56.0</ele><time>2026-05-05T08:02:30.212Z</time></trkpt><trkpt lat="53.337775" lon="-6.386485"><ele>57.0</ele><time>2026-05-05T08:02:31.211Z</time></trkpt><trkpt lat="53.3376483" lon="-6.38642"><ele>58.0</ele><time>2026-05-05T08:02:32.211Z</time></trkpt><trkpt lat="53.33753" lon="-6.38635"><ele>58.666666666666664</ele><time>2026-05-05T08:02:33.212Z</time></trkpt><trkpt lat="53.3373967" lon="-6.3862667"><ele>59.33333333333333</ele><time>2026-05-05T08:02:34.211Z</time></trkpt><trkpt lat="53.337245" lon="-6.386175"><ele>60.0</ele><time>2026-05-05T08:02:35.212Z</time></trkpt><trkpt lat="53.3371067" lon="-6.3860717"><ele>60.0</ele><time>2026-05-05T08:02:36.212Z</time></trkpt><trkpt lat="53.3369767" lon="-6.3859767"><ele>60.0</ele><time>2026-05-05T08:02:37.211Z</time></trkpt><trkpt lat="53.3368533" lon="-6.3859"><ele>60.0</ele><time>2026-05-05T08:02:38.212Z</time></trkpt><trkpt lat="53.33673" lon="-6.3858017"><ele>60.0</ele><time>2026-05-05T08:02:39.212Z</time></trkpt><trkpt lat="53.3366083" lon="-6.3857517"><ele>60.0</ele><time>2026-05-05T08:02:40.212Z</time></trkpt><trkpt lat="53.3365067" lon="-6.3857067"><ele>60.0</ele><time>2026-05-05T08:02:41.212Z</time></trkpt><trkpt lat="53.3364183" lon="-6.3856483"><ele>60.0</ele><time>2026-05-05T08:02:42.212Z</time></trkpt><trkpt lat="53.33632" lon="-6.3855767"><ele>60.0</ele><time>2026-05-05T08:02:43.212Z</time></trkpt><trkpt lat="53.336225" lon="-6.3854917"><ele>60.0</ele><time>2026-05-05T08:02:44.212Z</time></trkpt><trkpt lat="53.3361183" lon="-6.38541"><ele>59.5</ele><time>2026-05-05T08:02:45.212Z</time></trkpt><trkpt lat="53.335995" lon="-6.385345"><ele>59.0</ele><time>2026-05-05T08:02:46.212Z</time></trkpt><trkpt lat="53.33588" lon="-6.3852683"><ele>58.5</ele><time>2026-05-05T08:02:47.211Z</time></trkpt><trkpt lat="53.3357767" lon="-6.3851783"><ele>58.0</ele><time>2026-05-05T08:02:48.212Z</time></trkpt><trkpt lat="53.3356783" lon="-6.3850917"><ele>57.99999999999999</ele><time>2026-05-05T08:02:49.211Z</time></trkpt><trkpt lat="53.33559" lon="-6.385005"><ele>58.0</ele><time>2026-05-05T08:02:50.212Z</time></trkpt><trkpt lat="53.33551" lon="-6.384935"><ele>58.0</ele><time>2026-05-05T08:02:51.212Z</time></trkpt><trkpt lat="53.3354383" lon="-6.3848767"><ele>58.0</ele><time>2026-05-05T08:02:52.212Z</time></trkpt><trkpt lat="53.3353667" lon="-6.3848133"><ele>57.99999999999999</ele><time>2026-05-05T08:02:53.212Z</time></trkpt><trkpt lat="53.3353033" lon="-6.3847567"><ele>58.0</ele><time>2026-05-05T08:02:54.212Z</time></trkpt><trkpt lat="53.3352367" lon="-6.3846883"><ele>58.2</ele><time>2026-05-05T08:02:55.212Z</time></trkpt><trkpt lat="53.33516" lon="-6.3846133"><ele>58.4</ele><time>2026-05-05T08:02:56.211Z</time></trkpt><trkpt lat="53.3350817" lon="-6.3845217"><ele>58.60000000000001</ele><time>2026-05-05T08:02:57.212Z</time></trkpt><trkpt lat="53.3349867" lon="-6.3844283"><ele>58.800000000000004</ele><time>2026-05-05T08:02:58.212Z</time></trkpt><trkpt lat="53.3348733" lon="-6.3843283"><ele>59.0</ele><time>2026-05-05T08:02:59.211Z</time></trkpt><trkpt lat="53.3347483" lon="-6.3842117"><ele>59.0</ele><time>2026-05-05T08:03:00.212Z</time></trkpt><trkpt lat="53.3346017" lon="-6.3840767"><ele>59.0</ele><time>2026-05-05T08:03:01.212Z</time></trkpt><trkpt lat="53.3344567" lon="-6.3839283"><ele>59.0</ele><time>2026-05-05T08:03:02.212Z</time></trkpt><trkpt lat="53.334315" lon="-6.3837833"><ele>59.0</ele><time>2026-05-05T08:03:03.212Z</time></trkpt><trkpt lat="53.3341783" lon="-6.3836517"><ele>59.0</ele><time>2026-05-05T08:03:04.212Z</time></trkpt><trkpt lat="53.3340333" lon="-6.3835167"><ele>59.0</ele><time>2026-05-05T08:03:05.212Z</time></trkpt><trkpt lat="53.3338933" lon="-6.3833767"><ele>58.66666666666667</ele><time>2026-05-05T08:03:06.212Z</time></trkpt><trkpt lat="53.3337483" lon="-6.3832317"><ele>58.33333333333333</ele><time>2026-05-05T08:03:07.212Z</time></trkpt><trkpt lat="53.3336017" lon="-6.3830933"><ele>58.0</ele><time>2026-05-05T08:03:08.211Z</time></trkpt><trkpt lat="53.3334617" lon="-6.382965"><ele>58.0</ele><time>2026-05-05T08:03:09.212Z</time></trkpt><trkpt lat="53.333325" lon="-6.3828217"><ele>58.0</ele><time>2026-05-05T08:03:10.212Z</time></trkpt><trkpt lat="53.3331967" lon="-6.3826867"><ele>58.0</ele><time>2026-05-05T08:03:11.211Z</time></trkpt><trkpt lat="53.3330733" lon="-6.3825533"><ele>58.0</ele><time>2026-05-05T08:03:12.212Z</time></trkpt><trkpt lat="53.3329517" lon="-6.3824217"><ele>58.0</ele><time>2026-05-05T08:03:13.211Z</time></trkpt><trkpt lat="53.3328233" lon="-6.3822933"><ele>58.0</ele><time>2026-05-05T08:03:14.211Z</time></trkpt><trkpt lat="53.3326933" lon="-6.382165"><ele>58.0</ele><time>2026-05-05T08:03:15.212Z</time></trkpt><trkpt lat="53.3325767" lon="-6.3820267"><ele>58.0</ele><time>2026-05-05T08:03:16.211Z</time></trkpt><trkpt lat="53.332455" lon="-6.3818983"><ele>58.0</ele><time>2026-05-05T08:03:17.211Z</time></trkpt><trkpt lat="53.33234" lon="-6.3817683"><ele>58.0</ele><time>2026-05-05T08:03:18.212Z</time></trkpt><trkpt lat="53.3322217" lon="-6.381635"><ele>58.0</ele><time>2026-05-05T08:03:19.211Z</time></trkpt><trkpt lat="53.332105" lon="-6.38152"><ele>58.25</ele><time>2026-05-05T08:03:20.212Z</time></trkpt><trkpt lat="53.3319883" lon="-6.3813817"><ele>58.5</ele><time>2026-05-05T08:03:21.212Z</time></trkpt><trkpt lat="53.3318733" lon="-6.381245"><ele>58.75</ele><time>2026-05-05T08:03:22.212Z</time></trkpt><trkpt lat="53.3317633" lon="-6.3811267"><ele>59.0</ele><time>2026-05-05T08:03:23.211Z</time></trkpt><trkpt lat="53.3316433" lon="-6.381005"><ele>59.0</ele><time>2026-05-05T08:03:24.212Z</time></trkpt><trkpt lat="53.3315167" lon="-6.380875"><ele>59.0</ele><time>2026-05-05T08:03:25.212Z</time></trkpt><trkpt lat="53.3314017" lon="-6.3807367"><ele>59.0</ele><time>2026-05-05T08:03:26.211Z</time></trkpt><trkpt lat="53.3312867" lon="-6.3805967"><ele>59.0</ele><time>2026-05-05T08:03:27.212Z</time></trkpt><trkpt lat="53.33117" lon="-6.3804883"><ele>58.75</ele><time>2026-05-05T08:03:28.212Z</time></trkpt><trkpt lat="53.3310633" lon="-6.3803617"><ele>58.5</ele><time>2026-05-05T08:03:29.212Z</time></trkpt><trkpt lat="53.3309617" lon="-6.3802317"><ele>58.25</ele><time>2026-05-05T08:03:30.212Z</time></trkpt><trkpt lat="53.3308583" lon="-6.3801167"><ele>58.0</ele><time>2026-05-05T08:03:31.212Z</time></trkpt><trkpt lat="53.3307617" lon="-6.3800033"><ele>58.0</ele><time>2026-05-05T08:03:32.212Z</time></trkpt><trkpt lat="53.33066" lon="-6.3799067"><ele>58.0</ele><time>2026-05-05T08:03:33.212Z</time></trkpt><trkpt lat="53.3305483" lon="-6.3797917"><ele>58.0</ele><time>2026-05-05T08:03:34.211Z</time></trkpt><trkpt lat="53.330435" lon="-6.3796717"><ele>58.0</ele><time>2026-05-05T08:03:35.211Z</time></trkpt><trkpt lat="53.330325" lon="-6.379545"><ele>57.0</ele><time>2026-05-05T08:03:36.212Z</time></trkpt><trkpt lat="53.3302067" lon="-6.3794"><ele>56.0</ele><time>2026-05-05T08:03:37.211Z</time></trkpt><trkpt lat="53.33009" lon="-6.37927"><ele>55.0</ele><time>2026-05-05T08:03:38.211Z</time></trkpt><trkpt lat="53.3299567" lon="-6.37914"><ele>54.0</ele><time>2026-05-05T08:03:39.212Z</time></trkpt><trkpt lat="53.329845" lon="-6.379045"><ele>54.0</ele><time>2026-05-05T08:03:40.212Z</time></trkpt><trkpt lat="53.3297383" lon="-6.3789367"><ele>54.0</ele><time>2026-05-05T08:03:41.212Z</time></trkpt><trkpt lat="53.32962" lon="-6.3788233"><ele>54.0</ele><time>2026-05-05T08:03:42.212Z</time></trkpt><trkpt lat="53.3294983" lon="-6.3787233"><ele>54.0</ele><time>2026-05-05T08:03:43.212Z</time></trkpt><trkpt lat="53.3293883" lon="-6.3785933"><ele>53.75</ele><time>2026-05-05T08:03:44.211Z</time></trkpt><trkpt lat="53.32928" lon="-6.3784583"><ele>53.5</ele><time>2026-05-05T08:03:45.212Z</time></trkpt><trkpt lat="53.3291767" lon="-6.3783267"><ele>53.25</ele><time>2026-05-05T08:03:46.212Z</time></trkpt><trkpt lat="53.3290783" lon="-6.3782"><ele>53.0</ele><time>2026-05-05T08:03:47.211Z</time></trkpt><trkpt lat="53.328965" lon="-6.3780733"><ele>53.5</ele><time>2026-05-05T08:03:48.211Z</time></trkpt><trkpt lat="53.328855" lon="-6.377955"><ele>54.0</ele><time>2026-05-05T08:03:49.211Z</time></trkpt><trkpt lat="53.32875" lon="-6.3778533"><ele>54.5</ele><time>2026-05-05T08:03:50.212Z</time></trkpt><trkpt lat="53.3286367" lon="-6.3777433"><ele>55.0</ele><time>2026-05-05T08:03:51.212Z</time></trkpt><trkpt lat="53.328515" lon="-6.3776167"><ele>55.0</ele><time>2026-05-05T08:03:52.212Z</time></trkpt><trkpt lat="53.3283917" lon="-6.377475"><ele>55.0</ele><time>2026-05-05T08:03:53.211Z</time></trkpt><trkpt lat="53.32827" lon="-6.3773317"><ele>55.0</ele><time>2026-05-05T08:03:54.212Z</time></trkpt><trkpt lat="53.3281433" lon="-6.3771817"><ele>54.0</ele><time>2026-05-05T08:03:55.211Z</time></trkpt><trkpt lat="53.328" lon="-6.3770483"><ele>53.0</ele><time>2026-05-05T08:03:56.211Z</time></trkpt><trkpt lat="53.3278583" lon="-6.3769283"><ele>52.0</ele><time>2026-05-05T08:03:57.212Z</time></trkpt><trkpt lat="53.32771" lon="-6.3767883"><ele>52.0</ele><time>2026-05-05T08:03:58.212Z</time></trkpt><trkpt lat="53.3275767" lon="-6.37666"><ele>52.0</ele><time>2026-05-05T08:03:59.211Z</time></trkpt><trkpt lat="53.3274583" lon="-6.376505"><ele>52.0</ele><time>2026-05-05T08:04:00.212Z</time></trkpt><trkpt lat="53.3273317" lon="-6.3763567"><ele>51.33333333333333</ele><time>2026-05-05T08:04:01.212Z</time></trkpt><trkpt lat="53.327205" lon="-6.376215"><ele>50.66666666666667</ele><time>2026-05-05T08:04:02.212Z</time></trkpt><trkpt lat="53.3270883" lon="-6.3760517"><ele>50.0</ele><time>2026-05-05T08:04:03.211Z</time></trkpt><trkpt lat="53.3269667" lon="-6.3758967"><ele>50.0</ele><time>2026-05-05T08:04:04.211Z</time></trkpt><trkpt lat="53.3268267" lon="-6.3757433"><ele>50.0</ele><time>2026-05-05T08:04:05.212Z</time></trkpt><trkpt lat="53.3266733" lon="-6.3756133"><ele>50.0</ele><time>2026-05-05T08:04:06.211Z</time></trkpt><trkpt lat="53.3265417" lon="-6.3754783"><ele>50.0</ele><time>2026-05-05T08:04:07.212Z</time></trkpt><trkpt lat="53.3264117" lon="-6.3753467"><ele>50.0</ele><time>2026-05-05T08:04:08.212Z</time></trkpt><trkpt lat="53.3262683" lon="-6.375205"><ele>50.0</ele><time>2026-05-05T08:04:09.211Z</time></trkpt><trkpt lat="53.3261433" lon="-6.37506"><ele>50.0</ele><time>2026-05-05T08:04:10.212Z</time></trkpt><trkpt lat="53.325985" lon="-6.3749083"><ele>50.0</ele><time>2026-05-05T08:04:11.212Z</time></trkpt><trkpt lat="53.3258383" lon="-6.3747767"><ele>50.0</ele><time>2026-05-05T08:04:12.212Z</time></trkpt><trkpt lat="53.3257083" lon="-6.3746267"><ele>50.0</ele><time>2026-05-05T08:04:13.211Z</time></trkpt><trkpt lat="53.3255733" lon="-6.3744767"><ele>50.0</ele><time>2026-05-05T08:04:14.211Z</time></trkpt><trkpt lat="53.3254283" lon="-6.3743167"><ele>50.0</ele><time>2026-05-05T08:04:15.211Z</time></trkpt><trkpt lat="53.3252983" lon="-6.37418"><ele>49.75</ele><time>2026-05-05T08:04:16.212Z</time></trkpt><trkpt lat="53.3251817" lon="-6.374045"><ele>49.5</ele><time>2026-05-05T08:04:17.212Z</time></trkpt><trkpt lat="53.3250633" lon="-6.3739533"><ele>49.25</ele><time>2026-05-05T08:04:18.211Z</time></trkpt><trkpt lat="53.32493" lon="-6.3738517"><ele>49.0</ele><time>2026-05-05T08:04:19.212Z</time></trkpt><trkpt lat="53.3247917" lon="-6.3737167"><ele>49.0</ele><time>2026-05-05T08:04:20.212Z</time></trkpt><trkpt lat="53.3246467" lon="-6.37356"><ele>49.0</ele><time>2026-05-05T08:04:21.212Z</time></trkpt><trkpt lat="53.3245133" lon="-6.3734067"><ele>49.0</ele><time>2026-05-05T08:04:22.212Z</time></trkpt><trkpt lat="53.3243867" lon="-6.3732583"><ele>49.0</ele><time>2026-05-05T08:04:23.212Z</time></trkpt><trkpt lat="53.3242517" lon="-6.373105"><ele>49.0</ele><time>2026-05-05T08:04:24.212Z</time></trkpt><trkpt lat="53.3241167" lon="-6.3729633"><ele>49.0</ele><time>2026-05-05T08:04:25.212Z</time></trkpt><trkpt lat="53.32397" lon="-6.3728133"><ele>49.33333333333333</ele><time>2026-05-05T08:04:26.212Z</time></trkpt><trkpt lat="53.323815" lon="-6.372645"><ele>49.66666666666667</ele><time>2026-05-05T08:04:27.212Z</time></trkpt><trkpt lat="53.3236417" lon="-6.3724883"><ele>50.0</ele><time>2026-05-05T08:04:28.212Z</time></trkpt><trkpt lat="53.323475" lon="-6.372335"><ele>50.333333333333336</ele><time>2026-05-05T08:04:29.212Z</time></trkpt><trkpt lat="53.3233083" lon="-6.3721717"><ele>50.66666666666667</ele><time>2026-05-05T08:04:30.212Z</time></trkpt><trkpt lat="53.3231333" lon="-6.372"><ele>51.0</ele><time>2026-05-05T08:04:31.212Z</time></trkpt><trkpt lat="53.3229733" lon="-6.3718683"><ele>51.66666666666667</ele><time>2026-05-05T08:04:32.211Z</time></trkpt><trkpt lat="53.322815" lon="-6.371715"><ele>52.333333333333336</ele><time>2026-05-05T08:04:33.212Z</time></trkpt><trkpt lat="53.3226467" lon="-6.3715383"><ele>53.0</ele><time>2026-05-05T08:04:34.212Z</time></trkpt><trkpt lat="53.322495" lon="-6.371365"><ele>53.0</ele><time>2026-05-05T08:04:35.212Z</time></trkpt><trkpt lat="53.32235" lon="-6.3712017"><ele>53.0</ele><time>2026-05-05T08:04:36.212Z</time></trkpt><trkpt lat="53.3222033" lon="-6.371025"><ele>53.0</ele><time>2026-05-05T08:04:37.211Z</time></trkpt><trkpt lat="53.3220833" lon="-6.3708667"><ele>53.5</ele><time>2026-05-05T08:04:38.212Z</time></trkpt><trkpt lat="53.321945" lon="-6.3707417"><ele>54.0</ele><time>2026-05-05T08:04:39.212Z</time></trkpt><trkpt lat="53.3218333" lon="-6.370605"><ele>54.5</ele><time>2026-05-05T08:04:40.212Z</time></trkpt><trkpt lat="53.3217167" lon="-6.3704833"><ele>55.0</ele><time>2026-05-05T08:04:41.212Z</time></trkpt><trkpt lat="53.3216067" lon="-6.3703633"><ele>55.0</ele><time>2026-05-05T08:04:42.211Z</time></trkpt><trkpt lat="53.3214917" lon="-6.370245"><ele>55.0</ele><time>2026-05-05T08:04:43.212Z</time></trkpt><trkpt lat="53.32138" lon="-6.3701217"><ele>55.0</ele><time>2026-05-05T08:04:44.211Z</time></trkpt><trkpt lat="53.3212833" lon="-6.3700283"><ele>55.0</ele><time>2026-05-05T08:04:45.211Z</time></trkpt><trkpt lat="53.3212083" lon="-6.3699433"><ele>55.6</ele><time>2026-05-05T08:04:46.212Z</time></trkpt><trkpt lat="53.3211367" lon="-6.3698567"><ele>56.2</ele><time>2026-05-05T08:04:47.212Z</time></trkpt><trkpt lat="53.3210567" lon="-6.3697633"><ele>56.8</ele><time>2026-05-05T08:04:48.211Z</time></trkpt><trkpt lat="53.3209783" lon="-6.369655"><ele>57.4</ele><time>2026-05-05T08:04:49.211Z</time></trkpt><trkpt lat="53.3208983" lon="-6.3695433"><ele>58.0</ele><time>2026-05-05T08:04:50.212Z</time></trkpt><trkpt lat="53.320825" lon="-6.3694383"><ele>58.0</ele><time>2026-05-05T08:04:51.212Z</time></trkpt><trkpt lat="53.320765" lon="-6.3693333"><ele>58.0</ele><time>2026-05-05T08:04:52.212Z</time></trkpt><trkpt lat="53.3207" lon="-6.369225"><ele>58.0</ele><time>2026-05-05T08:04:53.212Z</time></trkpt><trkpt lat="53.320635" lon="-6.369095"><ele>58.0</ele><time>2026-05-05T08:04:54.212Z</time></trkpt><trkpt lat="53.320575" lon="-6.3689667"><ele>58.0</ele><time>2026-05-05T08:04:55.212Z</time></trkpt><trkpt lat="53.3205217" lon="-6.36885"><ele>59.4</ele><time>2026-05-05T08:04:56.212Z</time></trkpt><trkpt lat="53.3204683" lon="-6.368725"><ele>60.8</ele><time>2026-05-05T08:04:57.212Z</time></trkpt><trkpt lat="53.32042" lon="-6.368585"><ele>62.2</ele><time>2026-05-05T08:04:58.212Z</time></trkpt><trkpt lat="53.3203633" lon="-6.36842"><ele>63.6</ele><time>2026-05-05T08:04:59.211Z</time></trkpt><trkpt lat="53.3203033" lon="-6.3682417"><ele>65.0</ele><time>2026-05-05T08:05:00.211Z</time></trkpt><trkpt lat="53.3202383" lon="-6.36808"><ele>64.75</ele><time>2026-05-05T08:05:01.212Z</time></trkpt><trkpt lat="53.32017" lon="-6.367905"><ele>64.5</ele><time>2026-05-05T08:05:02.212Z</time></trkpt><trkpt lat="53.3200883" lon="-6.3677283"><ele>64.25</ele><time>2026-05-05T08:05:03.211Z</time></trkpt><trkpt lat="53.31999" lon="-6.3675617"><ele>64.0</ele><time>2026-05-05T08:05:04.212Z</time></trkpt><trkpt lat="53.3198717" lon="-6.3673933"><ele>64.0</ele><time>2026-05-05T08:05:05.212Z</time></trkpt><trkpt lat="53.3197283" lon="-6.367225"><ele>64.0</ele><time>2026-05-05T08:05:06.212Z</time></trkpt><trkpt lat="53.319565" lon="-6.3671117"><ele>64.0</ele><time>2026-05-05T08:05:07.212Z</time></trkpt><trkpt lat="53.31937" lon="-6.367035"><ele>64.0</ele><time>2026-05-05T08:05:08.212Z</time></trkpt><trkpt lat="53.3191667" lon="-6.3669983"><ele>64.0</ele><time>2026-05-05T08:05:09.212Z</time></trkpt><trkpt lat="53.31898" lon="-6.3669317"><ele>64.0</ele><time>2026-05-05T08:05:10.212Z</time></trkpt><trkpt lat="53.318805" lon="-6.3668483"><ele>64.0</ele><time>2026-05-05T08:05:11.212Z</time></trkpt><trkpt lat="53.3186433" lon="-6.3667517"><ele>64.0</ele><time>2026-05-05T08:05:12.212Z</time></trkpt><trkpt lat="53.3184817" lon="-6.36668"><ele>64.0</ele><time>2026-05-05T08:05:13.212Z</time></trkpt><trkpt lat="53.3183267" lon="-6.3666517"><ele>64.0</ele><time>2026-05-05T08:05:14.211Z</time></trkpt><trkpt lat="53.318205" lon="-6.36676"><ele>64.0</ele><time>2026-05-05T08:05:15.212Z</time></trkpt><trkpt lat="53.3180933" lon="-6.36689"><ele>64.0</ele><time>2026-05-05T08:05:16.212Z</time></trkpt><trkpt lat="53.31798" lon="-6.36702"><ele>64.0</ele><time>2026-05-05T08:05:17.211Z</time></trkpt><trkpt lat="53.317875" lon="-6.3671817"><ele>64.33333333333333</ele><time>2026-05-05T08:05:18.211Z</time></trkpt><trkpt lat="53.3178067" lon="-6.3673917"><ele>64.66666666666667</ele><time>2026-05-05T08:05:19.212Z</time></trkpt><trkpt lat="53.3178067" lon="-6.3677167"><ele>65.0</ele><time>2026-05-05T08:05:20.211Z</time></trkpt><trkpt lat="53.3177667" lon="-6.3679483"><ele>65.66666666666667</ele><time>2026-05-05T08:05:21.212Z</time></trkpt><trkpt lat="53.3177433" lon="-6.368205"><ele>66.33333333333333</ele><time>2026-05-05T08:05:22.212Z</time></trkpt><trkpt lat="53.31771" lon="-6.36848"><ele>67.0</ele><time>2026-05-05T08:05:23.212Z</time></trkpt><trkpt lat="53.3177083" lon="-6.3687567"><ele>67.5</ele><time>2026-05-05T08:05:24.212Z</time></trkpt><trkpt lat="53.3177117" lon="-6.3690017"><ele>68.0</ele><time>2026-05-05T08:05:25.211Z</time></trkpt><trkpt lat="53.3177367" lon="-6.3692283"><ele>68.5</ele><time>2026-05-05T08:05:26.211Z</time></trkpt><trkpt lat="53.3177383" lon="-6.3694617"><ele>69.0</ele><time>2026-05-05T08:05:27.212Z</time></trkpt><trkpt lat="53.317715" lon="-6.3697133"><ele>69.0</ele><time>2026-05-05T08:05:28.212Z</time></trkpt><trkpt lat="53.3176933" lon="-6.3699433"><ele>69.0</ele><time>2026-05-05T08:05:29.212Z</time></trkpt><trkpt lat="53.317655" lon="-6.37019"><ele>69.0</ele><time>2026-05-05T08:05:30.212Z</time></trkpt><trkpt lat="53.3176117" lon="-6.3704083"><ele>69.0</ele><time>2026-05-05T08:05:31.212Z</time></trkpt><trkpt lat="53.31756" lon="-6.3706267"><ele>69.33333333333333</ele><time>2026-05-05T08:05:32.212Z</time></trkpt><trkpt lat="53.317515" lon="-6.3708717"><ele>69.66666666666666</ele><time>2026-05-05T08:05:33.211Z</time></trkpt><trkpt lat="53.3174667" lon="-6.37113"><ele>70.0</ele><time>2026-05-05T08:05:34.211Z</time></trkpt><trkpt lat="53.3174167" lon="-6.3713867"><ele>70.33333333333333</ele><time>2026-05-05T08:05:35.211Z</time></trkpt><trkpt lat="53.3173617" lon="-6.371655"><ele>70.66666666666667</ele><time>2026-05-05T08:05:36.212Z</time></trkpt><trkpt lat="53.3173033" lon="-6.37192"><ele>71.0</ele><time>2026-05-05T08:05:37.211Z</time></trkpt><trkpt lat="53.3172567" lon="-6.372185"><ele>71.33333333333334</ele><time>2026-05-05T08:05:38.212Z</time></trkpt><trkpt lat="53.3172" lon="-6.37245"><ele>71.66666666666667</ele><time>2026-05-05T08:05:39.212Z</time></trkpt><trkpt lat="53.3171517" lon="-6.37274"><ele>72.0</ele><time>2026-05-05T08:05:40.211Z</time></trkpt><trkpt lat="53.3171" lon="-6.3730267"><ele>72.33333333333333</ele><time>2026-05-05T08:05:41.211Z</time></trkpt><trkpt lat="53.3170433" lon="-6.37334"><ele>72.66666666666666</ele><time>2026-05-05T08:05:42.211Z</time></trkpt><trkpt lat="53.3169767" lon="-6.3736483"><ele>73.0</ele><time>2026-05-05T08:05:43.212Z</time></trkpt><trkpt lat="53.31692" lon="-6.3739517"><ele>73.66666666666666</ele><time>2026-05-05T08:05:44.211Z</time></trkpt><trkpt lat="53.31686" lon="-6.37422"><ele>74.33333333333333</ele><time>2026-05-05T08:05:45.212Z</time></trkpt><trkpt lat="53.3167933" lon="-6.3744867"><ele>75.0</ele><time>2026-05-05T08:05:46.212Z</time></trkpt><trkpt lat="53.3167267" lon="-6.374775"><ele>75.0</ele><time>2026-05-05T08:05:47.212Z</time></trkpt><trkpt lat="53.3166633" lon="-6.375065"><ele>75.0</ele><time>2026-05-05T08:05:48.212Z</time></trkpt><trkpt lat="53.3165983" lon="-6.3753667"><ele>75.0</ele><time>2026-05-05T08:05:49.212Z</time></trkpt><trkpt lat="53.3165283" lon="-6.375665"><ele>74.66666666666667</ele><time>2026-05-05T08:05:50.211Z</time></trkpt><trkpt lat="53.316465" lon="-6.3759617"><ele>74.33333333333334</ele><time>2026-05-05T08:05:51.212Z</time></trkpt><trkpt lat="53.3164033" lon="-6.37626"><ele>74.0</ele><time>2026-05-05T08:05:52.212Z</time></trkpt><trkpt lat="53.31634" lon="-6.3765433"><ele>73.66666666666667</ele><time>2026-05-05T08:05:53.211Z</time></trkpt><trkpt lat="53.3162817" lon="-6.3768117"><ele>73.33333333333333</ele><time>2026-05-05T08:05:54.212Z</time></trkpt><trkpt lat="53.3162233" lon="-6.3770783"><ele>73.0</ele><time>2026-05-05T08:05:55.211Z</time></trkpt><trkpt lat="53.3161817" lon="-6.377345"><ele>72.66666666666666</ele><time>2026-05-05T08:05:56.212Z</time></trkpt><trkpt lat="53.3161233" lon="-6.3775933"><ele>72.33333333333333</ele><time>2026-05-05T08:05:57.212Z</time></trkpt><trkpt lat="53.3160583" lon="-6.3778583"><ele>72.0</ele><time>2026-05-05T08:05:58.212Z</time></trkpt><trkpt lat="53.3159933" lon="-6.3781217"><ele>72.66666666666667</ele><time>2026-05-05T08:05:59.212Z</time></trkpt><trkpt lat="53.315925" lon="-6.3784033"><ele>73.33333333333334</ele><time>2026-05-05T08:06:00.211Z</time></trkpt><trkpt lat="53.315855" lon="-6.3786767"><ele>74.0</ele><time>2026-05-05T08:06:01.211Z</time></trkpt><trkpt lat="53.3157883" lon="-6.378955"><ele>74.33333333333334</ele><time>2026-05-05T08:06:02.211Z</time></trkpt><trkpt lat="53.3157167" lon="-6.37924"><ele>74.66666666666667</ele><time>2026-05-05T08:06:03.212Z</time></trkpt><trkpt lat="53.3156417" lon="-6.3795333"><ele>75.0</ele><time>2026-05-05T08:06:04.212Z</time></trkpt><trkpt lat="53.3155617" lon="-6.3798367"><ele>75.0</ele><time>2026-05-05T08:06:05.211Z</time></trkpt><trkpt lat="53.3154867" lon="-6.3801467"><ele>75.0</ele><time>2026-05-05T08:06:06.212Z</time></trkpt><trkpt lat="53.3154117" lon="-6.3804483"><ele>75.0</ele><time>2026-05-05T08:06:07.211Z</time></trkpt><trkpt lat="53.3153367" lon="-6.3807517"><ele>75.66666666666667</ele><time>2026-05-05T08:06:08.212Z</time></trkpt><trkpt lat="53.3152583" lon="-6.38108"><ele>76.33333333333334</ele><time>2026-05-05T08:06:09.211Z</time></trkpt><trkpt lat="53.3151633" lon="-6.3814167"><ele>77.0</ele><time>2026-05-05T08:06:10.212Z</time></trkpt><trkpt lat="53.3150633" lon="-6.381755"><ele>77.0</ele><time>2026-05-05T08:06:11.211Z</time></trkpt><trkpt lat="53.31497" lon="-6.382095"><ele>77.0</ele><time>2026-05-05T08:06:12.211Z</time></trkpt><trkpt lat="53.3148767" lon="-6.3824417"><ele>77.5</ele><time>2026-05-05T08:06:13.212Z</time></trkpt><trkpt lat="53.31478" lon="-6.382785"><ele>78.0</ele><time>2026-05-05T08:06:14.212Z</time></trkpt><trkpt lat="53.31469" lon="-6.3831383"><ele>78.0</ele><time>2026-05-05T08:06:15.212Z</time></trkpt><trkpt lat="53.3145983" lon="-6.3834933"><ele>78.0</ele><time>2026-05-05T08:06:16.212Z</time></trkpt><trkpt lat="53.3145167" lon="-6.3838483"><ele>78.0</ele><time>2026-05-05T08:06:17.211Z</time></trkpt><trkpt lat="53.3144233" lon="-6.3841917"><ele>78.0</ele><time>2026-05-05T08:06:18.211Z</time></trkpt><trkpt lat="53.31432" lon="-6.38457"><ele>77.5</ele><time>2026-05-05T08:06:19.212Z</time></trkpt><trkpt lat="53.3142233" lon="-6.384955"><ele>77.0</ele><time>2026-05-05T08:06:20.211Z</time></trkpt><trkpt lat="53.314125" lon="-6.38535"><ele>77.5</ele><time>2026-05-05T08:06:21.212Z</time></trkpt><trkpt lat="53.3140333" lon="-6.3857467"><ele>78.0</ele><time>2026-05-05T08:06:22.212Z</time></trkpt><trkpt lat="53.3139433" lon="-6.38613"><ele>77.66666666666667</ele><time>2026-05-05T08:06:23.212Z</time></trkpt><trkpt lat="53.3138483" lon="-6.3864883"><ele>77.33333333333334</ele><time>2026-05-05T08:06:24.212Z</time></trkpt><trkpt lat="53.3137683" lon="-6.3868217"><ele>77.0</ele><time>2026-05-05T08:06:25.212Z</time></trkpt><trkpt lat="53.31369" lon="-6.387135"><ele>77.0</ele><time>2026-05-05T08:06:26.211Z</time></trkpt><trkpt lat="53.3136183" lon="-6.38744"><ele>77.0</ele><time>2026-05-05T08:06:27.211Z</time></trkpt><trkpt lat="53.3135417" lon="-6.3877567"><ele>77.0</ele><time>2026-05-05T08:06:28.212Z</time></trkpt><trkpt lat="53.313455" lon="-6.3880467"><ele>77.66666666666667</ele><time>2026-05-05T08:06:29.211Z</time></trkpt><trkpt lat="53.3133667" lon="-6.3883367"><ele>78.33333333333333</ele><time>2026-05-05T08:06:30.211Z</time></trkpt><trkpt lat="53.31331" lon="-6.388605"><ele>79.0</ele><time>2026-05-05T08:06:31.212Z</time></trkpt><trkpt lat="53.3132517" lon="-6.388875"><ele>79.66666666666666</ele><time>2026-05-05T08:06:32.212Z</time></trkpt><trkpt lat="53.3131883" lon="-6.3891483"><ele>80.33333333333333</ele><time>2026-05-05T08:06:33.212Z</time></trkpt><trkpt lat="53.3131283" lon="-6.389435"><ele>81.0</ele><time>2026-05-05T08:06:34.211Z</time></trkpt><trkpt lat="53.313065" lon="-6.3897167"><ele>81.0</ele><time>2026-05-05T08:06:35.211Z</time></trkpt><trkpt lat="53.3130033" lon="-6.3899917"><ele>81.0</ele><time>2026-05-05T08:06:36.212Z</time></trkpt><trkpt lat="53.3129433" lon="-6.39027"><ele>81.0</ele><time>2026-05-05T08:06:37.212Z</time></trkpt><trkpt lat="53.3129033" lon="-6.3905517"><ele>81.66666666666667</ele><time>2026-05-05T08:06:38.212Z</time></trkpt><trkpt lat="53.3128367" lon="-6.3908517"><ele>82.33333333333334</ele><time>2026-05-05T08:06:39.211Z</time></trkpt><trkpt lat="53.3127733" lon="-6.3911467"><ele>83.0</ele><time>2026-05-05T08:06:40.211Z</time></trkpt><trkpt lat="53.312715" lon="-6.3914467"><ele>83.0</ele><time>2026-05-05T08:06:41.212Z</time></trkpt><trkpt lat="53.31266" lon="-6.3917333"><ele>83.0</ele><time>2026-05-05T08:06:42.212Z</time></trkpt><trkpt lat="53.312615" lon="-6.39203"><ele>83.0</ele><time>2026-05-05T08:06:43.211Z</time></trkpt><trkpt lat="53.3125683" lon="-6.3923267"><ele>83.0</ele><time>2026-05-05T08:06:44.212Z</time></trkpt><trkpt lat="53.3125283" lon="-6.392625"><ele>83.0</ele><time>2026-05-05T08:06:45.211Z</time></trkpt><trkpt lat="53.3124817" lon="-6.39295"><ele>83.0</ele><time>2026-05-05T08:06:46.212Z</time></trkpt><trkpt lat="53.3124067" lon="-6.3936183"><ele>83.66666666666667</ele><time>2026-05-05T08:06:48.212Z</time></trkpt><trkpt lat="53.31237" lon="-6.39396"><ele>84.33333333333333</ele><time>2026-05-05T08:06:49.212Z</time></trkpt><trkpt lat="53.3123233" lon="-6.3943017"><ele>85.0</ele><time>2026-05-05T08:06:50.212Z</time></trkpt><trkpt lat="53.3122833" lon="-6.39465"><ele>85.33333333333333</ele><time>2026-05-05T08:06:51.211Z</time></trkpt><trkpt lat="53.3122517" lon="-6.3949817"><ele>85.66666666666667</ele><time>2026-05-05T08:06:52.212Z</time></trkpt><trkpt lat="53.3122" lon="-6.39535"><ele>86.0</ele><time>2026-05-05T08:06:53.211Z</time></trkpt><trkpt lat="53.3121433" lon="-6.3957583"><ele>86.5</ele><time>2026-05-05T08:06:54.212Z</time></trkpt><trkpt lat="53.3120633" lon="-6.396215"><ele>87.0</ele><time>2026-05-05T08:06:55.212Z</time></trkpt><trkpt lat="53.31197" lon="-6.3966667"><ele>87.0</ele><time>2026-05-05T08:06:56.212Z</time></trkpt><trkpt lat="53.31186" lon="-6.3971083"><ele>87.0</ele><time>2026-05-05T08:06:57.211Z</time></trkpt><trkpt lat="53.3117283" lon="-6.3975367"><ele>86.5</ele><time>2026-05-05T08:06:58.211Z</time></trkpt><trkpt lat="53.3116" lon="-6.39797"><ele>86.0</ele><time>2026-05-05T08:06:59.212Z</time></trkpt><trkpt lat="53.31146" lon="-6.398415"><ele>86.0</ele><time>2026-05-05T08:07:00.211Z</time></trkpt><trkpt lat="53.3113217" lon="-6.39885"><ele>86.0</ele><time>2026-05-05T08:07:01.212Z</time></trkpt><trkpt lat="53.311135" lon="-6.39928"><ele>86.0</ele><time>2026-05-05T08:07:02.212Z</time></trkpt><trkpt lat="53.3109433" lon="-6.3997017"><ele>86.0</ele><time>2026-05-05T08:07:03.212Z</time></trkpt><trkpt lat="53.3107517" lon="-6.400095"><ele>87.0</ele><time>2026-05-05T08:07:04.211Z</time></trkpt><trkpt lat="53.3105517" lon="-6.4004817"><ele>88.0</ele><time>2026-05-05T08:07:05.211Z</time></trkpt><trkpt lat="53.31033" lon="-6.4008467"><ele>88.0</ele><time>2026-05-05T08:07:06.212Z</time></trkpt><trkpt lat="53.3101217" lon="-6.4012033"><ele>88.0</ele><time>2026-05-05T08:07:07.212Z</time></trkpt><trkpt lat="53.3099217" lon="-6.40153"><ele>89.5</ele><time>2026-05-05T08:07:08.212Z</time></trkpt><trkpt lat="53.3097233" lon="-6.4018083"><ele>91.0</ele><time>2026-05-05T08:07:09.211Z</time></trkpt><trkpt lat="53.3095467" lon="-6.4020733"><ele>91.33333333333333</ele><time>2026-05-05T08:07:10.211Z</time></trkpt><trkpt lat="53.3093817" lon="-6.4023383"><ele>91.66666666666667</ele><time>2026-05-05T08:07:11.211Z</time></trkpt><trkpt lat="53.3092183" lon="-6.4025817"><ele>92.0</ele><time>2026-05-05T08:07:12.211Z</time></trkpt><trkpt lat="53.3090517" lon="-6.40285"><ele>92.66666666666667</ele><time>2026-05-05T08:07:13.212Z</time></trkpt><trkpt lat="53.3089033" lon="-6.4031033"><ele>93.33333333333333</ele><time>2026-05-05T08:07:14.212Z</time></trkpt><trkpt lat="53.3087433" lon="-6.4033433"><ele>94.0</ele><time>2026-05-05T08:07:15.212Z</time></trkpt><trkpt lat="53.3085683" lon="-6.403595"><ele>93.5</ele><time>2026-05-05T08:07:16.212Z</time></trkpt><trkpt lat="53.3083883" lon="-6.403855"><ele>93.0</ele><time>2026-05-05T08:07:17.211Z</time></trkpt><trkpt lat="53.308215" lon="-6.4041167"><ele>94.5</ele><time>2026-05-05T08:07:18.211Z</time></trkpt><trkpt lat="53.3080483" lon="-6.404375"><ele>96.0</ele><time>2026-05-05T08:07:19.211Z</time></trkpt><trkpt lat="53.3078867" lon="-6.4046467"><ele>96.0</ele><time>2026-05-05T08:07:20.212Z</time></trkpt><trkpt lat="53.3077317" lon="-6.4049083"><ele>96.0</ele><time>2026-05-05T08:07:21.212Z</time></trkpt><trkpt lat="53.3075817" lon="-6.4051667"><ele>96.0</ele><time>2026-05-05T08:07:22.212Z</time></trkpt><trkpt lat="53.307435" lon="-6.4053883"><ele>95.33333333333333</ele><time>2026-05-05T08:07:23.212Z</time></trkpt><trkpt lat="53.3073067" lon="-6.4056333"><ele>94.66666666666666</ele><time>2026-05-05T08:07:24.211Z</time></trkpt><trkpt lat="53.3071817" lon="-6.4058733"><ele>94.0</ele><time>2026-05-05T08:07:25.212Z</time></trkpt><trkpt lat="53.3070617" lon="-6.40611"><ele>95.0</ele><time>2026-05-05T08:07:26.211Z</time></trkpt><trkpt lat="53.306935" lon="-6.4063417"><ele>96.0</ele><time>2026-05-05T08:07:27.212Z</time></trkpt><trkpt lat="53.3068033" lon="-6.4066017"><ele>97.0</ele><time>2026-05-05T08:07:28.212Z</time></trkpt><trkpt lat="53.3066733" lon="-6.4068683"><ele>97.0</ele><time>2026-05-05T08:07:29.211Z</time></trkpt><trkpt lat="53.3065367" lon="-6.407155"><ele>97.0</ele><time>2026-05-05T08:07:30.212Z</time></trkpt><trkpt lat="53.3063967" lon="-6.4074433"><ele>97.0</ele><time>2026-05-05T08:07:31.211Z</time></trkpt><trkpt lat="53.3062617" lon="-6.40775"><ele>97.5</ele><time>2026-05-05T08:07:32.212Z</time></trkpt><trkpt lat="53.306125" lon="-6.4080517"><ele>98.0</ele><time>2026-05-05T08:07:33.212Z</time></trkpt><trkpt lat="53.3059967" lon="-6.4083667"><ele>98.0</ele><time>2026-05-05T08:07:34.211Z</time></trkpt><trkpt lat="53.305865" lon="-6.4086917"><ele>98.0</ele><time>2026-05-05T08:07:35.212Z</time></trkpt><trkpt lat="53.30574" lon="-6.4090133"><ele>98.0</ele><time>2026-05-05T08:07:36.211Z</time></trkpt><trkpt lat="53.3056283" lon="-6.40931"><ele>98.0</ele><time>2026-05-05T08:07:37.212Z</time></trkpt><trkpt lat="53.3055133" lon="-6.4096117"><ele>98.0</ele><time>2026-05-05T08:07:38.211Z</time></trkpt><trkpt lat="53.3054" lon="-6.4099133"><ele>98.0</ele><time>2026-05-05T08:07:39.211Z</time></trkpt><trkpt lat="53.305295" lon="-6.4102083"><ele>98.0</ele><time>2026-05-05T08:07:40.212Z</time></trkpt><trkpt lat="53.3051933" lon="-6.4105183"><ele>98.0</ele><time>2026-05-05T08:07:41.212Z</time></trkpt><trkpt lat="53.3050883" lon="-6.4108283"><ele>97.33333333333333</ele><time>2026-05-05T08:07:42.211Z</time></trkpt><trkpt lat="53.30497" lon="-6.4111433"><ele>96.66666666666666</ele><time>2026-05-05T08:07:43.212Z</time></trkpt><trkpt lat="53.304855" lon="-6.4114533"><ele>96.0</ele><time>2026-05-05T08:07:44.212Z</time></trkpt><trkpt lat="53.3047433" lon="-6.4117667"><ele>95.33333333333333</ele><time>2026-05-05T08:07:45.212Z</time></trkpt><trkpt lat="53.3046383" lon="-6.4120583"><ele>94.66666666666666</ele><time>2026-05-05T08:07:46.212Z</time></trkpt><trkpt lat="53.3045317" lon="-6.4123367"><ele>94.0</ele><time>2026-05-05T08:07:47.211Z</time></trkpt><trkpt lat="53.3044267" lon="-6.412605"><ele>93.66666666666666</ele><time>2026-05-05T08:07:48.212Z</time></trkpt><trkpt lat="53.30433" lon="-6.4128717"><ele>93.33333333333333</ele><time>2026-05-05T08:07:49.212Z</time></trkpt><trkpt lat="53.3042267" lon="-6.413145"><ele>93.0</ele><time>2026-05-05T08:07:50.212Z</time></trkpt><trkpt lat="53.3041167" lon="-6.4134433"><ele>93.0</ele><time>2026-05-05T08:07:51.212Z</time></trkpt><trkpt lat="53.304" lon="-6.4137517"><ele>93.0</ele><time>2026-05-05T08:07:52.212Z</time></trkpt><trkpt lat="53.3038717" lon="-6.414075"><ele>93.0</ele><time>2026-05-05T08:07:53.212Z</time></trkpt><trkpt lat="53.3037483" lon="-6.4144117"><ele>93.0</ele><time>2026-05-05T08:07:54.211Z</time></trkpt><trkpt lat="53.303625" lon="-6.41475"><ele>92.0</ele><time>2026-05-05T08:07:55.212Z</time></trkpt><trkpt lat="53.303505" lon="-6.4150983"><ele>91.0</ele><time>2026-05-05T08:07:56.212Z</time></trkpt><trkpt lat="53.3033817" lon="-6.4154367"><ele>90.5</ele><time>2026-05-05T08:07:57.212Z</time></trkpt><trkpt lat="53.30325" lon="-6.4157967"><ele>90.0</ele><time>2026-05-05T08:07:58.211Z</time></trkpt><trkpt lat="53.3031183" lon="-6.416155"><ele>89.0</ele><time>2026-05-05T08:07:59.212Z</time></trkpt><trkpt lat="53.3029833" lon="-6.4165167"><ele>88.0</ele><time>2026-05-05T08:08:00.211Z</time></trkpt><trkpt lat="53.3028433" lon="-6.4168933"><ele>87.5</ele><time>2026-05-05T08:08:01.212Z</time></trkpt><trkpt lat="53.3026983" lon="-6.4172683"><ele>87.0</ele><time>2026-05-05T08:08:02.212Z</time></trkpt><trkpt lat="53.3025583" lon="-6.41764"><ele>87.0</ele><time>2026-05-05T08:08:03.212Z</time></trkpt><trkpt lat="53.302415" lon="-6.4180217"><ele>87.0</ele><time>2026-05-05T08:08:04.211Z</time></trkpt><trkpt lat="53.3022767" lon="-6.41841"><ele>88.0</ele><time>2026-05-05T08:08:05.212Z</time></trkpt><trkpt lat="53.3021417" lon="-6.4187433"><ele>89.0</ele><time>2026-05-05T08:08:06.212Z</time></trkpt><trkpt lat="53.3019933" lon="-6.41908"><ele>89.0</ele><time>2026-05-05T08:08:07.212Z</time></trkpt><trkpt lat="53.301845" lon="-6.4193917"><ele>89.0</ele><time>2026-05-05T08:08:08.212Z</time></trkpt><trkpt lat="53.301695" lon="-6.4196917"><ele>89.0</ele><time>2026-05-05T08:08:09.212Z</time></trkpt><trkpt lat="53.3015583" lon="-6.4199783"><ele>89.0</ele><time>2026-05-05T08:08:10.212Z</time></trkpt><trkpt lat="53.3014217" lon="-6.4202483"><ele>89.0</ele><time>2026-05-05T08:08:11.212Z</time></trkpt><trkpt lat="53.301265" lon="-6.4205233"><ele>90.5</ele><time>2026-05-05T08:08:12.211Z</time></trkpt><trkpt lat="53.301105" lon="-6.420795"><ele>92.0</ele><time>2026-05-05T08:08:13.212Z</time></trkpt><trkpt lat="53.3009367" lon="-6.4210567"><ele>92.0</ele><time>2026-05-05T08:08:14.211Z</time></trkpt><trkpt lat="53.30076" lon="-6.4213133"><ele>92.0</ele><time>2026-05-05T08:08:15.211Z</time></trkpt><trkpt lat="53.3005867" lon="-6.4215717"><ele>92.5</ele><time>2026-05-05T08:08:16.212Z</time></trkpt><trkpt lat="53.30041" lon="-6.421825"><ele>93.0</ele><time>2026-05-05T08:08:17.211Z</time></trkpt><trkpt lat="53.300225" lon="-6.4220683"><ele>92.5</ele><time>2026-05-05T08:08:18.212Z</time></trkpt><trkpt lat="53.3000383" lon="-6.42231"><ele>92.0</ele><time>2026-05-05T08:08:19.212Z</time></trkpt><trkpt lat="53.2998517" lon="-6.422535"><ele>92.5</ele><time>2026-05-05T08:08:20.211Z</time></trkpt><trkpt lat="53.2996583" lon="-6.422765"><ele>93.0</ele><time>2026-05-05T08:08:21.212Z</time></trkpt><trkpt lat="53.2994533" lon="-6.4229733"><ele>92.0</ele><time>2026-05-05T08:08:22.212Z</time></trkpt><trkpt lat="53.29922" lon="-6.4231967"><ele>91.0</ele><time>2026-05-05T08:08:23.212Z</time></trkpt><trkpt lat="53.2989833" lon="-6.4234217"><ele>91.5</ele><time>2026-05-05T08:08:24.212Z</time></trkpt><trkpt lat="53.2987417" lon="-6.423645"><ele>92.0</ele><time>2026-05-05T08:08:25.211Z</time></trkpt><trkpt lat="53.29852" lon="-6.423855"><ele>92.0</ele><time>2026-05-05T08:08:26.212Z</time></trkpt><trkpt lat="53.2983033" lon="-6.4240667"><ele>92.0</ele><time>2026-05-05T08:08:27.212Z</time></trkpt><trkpt lat="53.2981033" lon="-6.4242767"><ele>92.5</ele><time>2026-05-05T08:08:28.212Z</time></trkpt><trkpt lat="53.2979" lon="-6.4244817"><ele>93.0</ele><time>2026-05-05T08:08:29.212Z</time></trkpt><trkpt lat="53.2977033" lon="-6.42467"><ele>93.5</ele><time>2026-05-05T08:08:30.212Z</time></trkpt><trkpt lat="53.2975067" lon="-6.4248717"><ele>94.0</ele><time>2026-05-05T08:08:31.211Z</time></trkpt><trkpt lat="53.297315" lon="-6.4250683"><ele>94.0</ele><time>2026-05-05T08:08:32.211Z</time></trkpt><trkpt lat="53.2971233" lon="-6.4252633"><ele>94.0</ele><time>2026-05-05T08:08:33.211Z</time></trkpt><trkpt lat="53.2969333" lon="-6.4254517"><ele>94.0</ele><time>2026-05-05T08:08:34.212Z</time></trkpt><trkpt lat="53.2967383" lon="-6.4256467"><ele>93.5</ele><time>2026-05-05T08:08:35.211Z</time></trkpt><trkpt lat="53.296545" lon="-6.4258383"><ele>93.0</ele><time>2026-05-05T08:08:36.212Z</time></trkpt><trkpt lat="53.296345" lon="-6.42603"><ele>93.66666666666667</ele><time>2026-05-05T08:08:37.211Z</time></trkpt><trkpt lat="53.2961533" lon="-6.4262167"><ele>94.33333333333334</ele><time>2026-05-05T08:08:38.212Z</time></trkpt><trkpt lat="53.2959583" lon="-6.4264067"><ele>95.0</ele><time>2026-05-05T08:08:39.212Z</time></trkpt><trkpt lat="53.295755" lon="-6.4265967"><ele>95.66666666666667</ele><time>2026-05-05T08:08:40.212Z</time></trkpt><trkpt lat="53.2955717" lon="-6.4267867"><ele>96.33333333333334</ele><time>2026-05-05T08:08:41.211Z</time></trkpt><trkpt lat="53.2953867" lon="-6.426985"><ele>97.0</ele><time>2026-05-05T08:08:42.211Z</time></trkpt><trkpt lat="53.2952033" lon="-6.4271683"><ele>97.0</ele><time>2026-05-05T08:08:43.212Z</time></trkpt><trkpt lat="53.295025" lon="-6.4273567"><ele>97.0</ele><time>2026-05-05T08:08:44.212Z</time></trkpt><trkpt lat="53.294855" lon="-6.427545"><ele>97.0</ele><time>2026-05-05T08:08:45.212Z</time></trkpt><trkpt lat="53.294685" lon="-6.427755"><ele>98.33333333333334</ele><time>2026-05-05T08:08:46.212Z</time></trkpt><trkpt lat="53.2945133" lon="-6.42797"><ele>99.66666666666666</ele><time>2026-05-05T08:08:47.212Z</time></trkpt><trkpt lat="53.2943433" lon="-6.4281933"><ele>101.0</ele><time>2026-05-05T08:08:48.211Z</time></trkpt><trkpt lat="53.29417" lon="-6.4284233"><ele>101.0</ele><time>2026-05-05T08:08:49.212Z</time></trkpt><trkpt lat="53.2940017" lon="-6.4286717"><ele>101.0</ele><time>2026-05-05T08:08:50.211Z</time></trkpt><trkpt lat="53.2938333" lon="-6.42893"><ele>101.66666666666666</ele><time>2026-05-05T08:08:51.212Z</time></trkpt><trkpt lat="53.2936717" lon="-6.4291883"><ele>102.33333333333334</ele><time>2026-05-05T08:08:52.212Z</time></trkpt><trkpt lat="53.29351" lon="-6.42945"><ele>103.0</ele><time>2026-05-05T08:08:53.212Z</time></trkpt><trkpt lat="53.2933633" lon="-6.4297417"><ele>103.0</ele><time>2026-05-05T08:08:54.212Z</time></trkpt><trkpt lat="53.2932217" lon="-6.4300317"><ele>103.0</ele><time>2026-05-05T08:08:55.212Z</time></trkpt><trkpt lat="53.29307" lon="-6.430345"><ele>103.0</ele><time>2026-05-05T08:08:56.212Z</time></trkpt><trkpt lat="53.29294" lon="-6.4306583"><ele>103.0</ele><time>2026-05-05T08:08:57.211Z</time></trkpt><trkpt lat="53.2928083" lon="-6.4309667"><ele>103.0</ele><time>2026-05-05T08:08:58.211Z</time></trkpt><trkpt lat="53.2926917" lon="-6.431275"><ele>103.0</ele><time>2026-05-05T08:08:59.212Z</time></trkpt><trkpt lat="53.29259" lon="-6.43159"><ele>103.0</ele><time>2026-05-05T08:09:00.212Z</time></trkpt><trkpt lat="53.2924983" lon="-6.4319183"><ele>101.5</ele><time>2026-05-05T08:09:01.212Z</time></trkpt><trkpt lat="53.2924067" lon="-6.4322583"><ele>100.0</ele><time>2026-05-05T08:09:02.212Z</time></trkpt><trkpt lat="53.292315" lon="-6.4326133"><ele>101.5</ele><time>2026-05-05T08:09:03.212Z</time></trkpt><trkpt lat="53.2922317" lon="-6.432965"><ele>103.0</ele><time>2026-05-05T08:09:04.211Z</time></trkpt><trkpt lat="53.2921483" lon="-6.4333267"><ele>103.0</ele><time>2026-05-05T08:09:05.212Z</time></trkpt><trkpt lat="53.2920733" lon="-6.43368"><ele>103.0</ele><time>2026-05-05T08:09:06.212Z</time></trkpt><trkpt lat="53.2920183" lon="-6.43403"><ele>103.0</ele><time>2026-05-05T08:09:07.211Z</time></trkpt><trkpt lat="53.2919467" lon="-6.434385"><ele>103.0</ele><time>2026-05-05T08:09:08.211Z</time></trkpt><trkpt lat="53.2919" lon="-6.4347233"><ele>103.0</ele><time>2026-05-05T08:09:09.211Z</time></trkpt><trkpt lat="53.29186" lon="-6.4350717"><ele>103.0</ele><time>2026-05-05T08:09:10.211Z</time></trkpt><trkpt lat="53.2918233" lon="-6.43542"><ele>103.33333333333334</ele><time>2026-05-05T08:09:11.212Z</time></trkpt><trkpt lat="53.2917833" lon="-6.435765"><ele>103.66666666666666</ele><time>2026-05-05T08:09:12.212Z</time></trkpt><trkpt lat="53.2917467" lon="-6.4361383"><ele>104.0</ele><time>2026-05-05T08:09:13.211Z</time></trkpt><trkpt lat="53.291715" lon="-6.4365133"><ele>104.0</ele><time>2026-05-05T08:09:14.212Z</time></trkpt><trkpt lat="53.2916767" lon="-6.4369117"><ele>104.0</ele><time>2026-05-05T08:09:15.212Z</time></trkpt><trkpt lat="53.291645" lon="-6.43731"><ele>104.0</ele><time>2026-05-05T08:09:16.212Z</time></trkpt><trkpt lat="53.29161" lon="-6.4376917"><ele>104.0</ele><time>2026-05-05T08:09:17.211Z</time></trkpt><trkpt lat="53.291565" lon="-6.4380817"><ele>104.0</ele><time>2026-05-05T08:09:18.211Z</time></trkpt><trkpt lat="53.29153" lon="-6.4384783"><ele>104.0</ele><time>2026-05-05T08:09:19.211Z</time></trkpt><trkpt lat="53.2914917" lon="-6.43886"><ele>104.5</ele><time>2026-05-05T08:09:20.212Z</time></trkpt><trkpt lat="53.29144" lon="-6.4392233"><ele>105.0</ele><time>2026-05-05T08:09:21.211Z</time></trkpt><trkpt lat="53.291395" lon="-6.4396467"><ele>106.0</ele><time>2026-05-05T08:09:22.212Z</time></trkpt><trkpt lat="53.2913717" lon="-6.44006"><ele>107.0</ele><time>2026-05-05T08:09:23.212Z</time></trkpt><trkpt lat="53.291355" lon="-6.44047"><ele>107.0</ele><time>2026-05-05T08:09:24.212Z</time></trkpt><trkpt lat="53.291325" lon="-6.44086"><ele>107.0</ele><time>2026-05-05T08:09:25.212Z</time></trkpt><trkpt lat="53.291295" lon="-6.4412617"><ele>107.5</ele><time>2026-05-05T08:09:26.211Z</time></trkpt><trkpt lat="53.2912617" lon="-6.4416467"><ele>108.0</ele><time>2026-05-05T08:09:27.212Z</time></trkpt><trkpt lat="53.29122" lon="-6.4420283"><ele>108.0</ele><time>2026-05-05T08:09:28.211Z</time></trkpt><trkpt lat="53.2911783" lon="-6.442435"><ele>108.0</ele><time>2026-05-05T08:09:29.212Z</time></trkpt><trkpt lat="53.2911433" lon="-6.442855"><ele>107.5</ele><time>2026-05-05T08:09:30.212Z</time></trkpt><trkpt lat="53.2911" lon="-6.443275"><ele>107.0</ele><time>2026-05-05T08:09:31.212Z</time></trkpt><trkpt lat="53.291005" lon="-6.443695"><ele>107.0</ele><time>2026-05-05T08:09:32.211Z</time></trkpt><trkpt lat="53.2909083" lon="-6.4441117"><ele>107.0</ele><time>2026-05-05T08:09:33.212Z</time></trkpt><trkpt lat="53.2908183" lon="-6.4445133"><ele>106.5</ele><time>2026-05-05T08:09:34.212Z</time></trkpt><trkpt lat="53.29074" lon="-6.4449133"><ele>106.0</ele><time>2026-05-05T08:09:35.211Z</time></trkpt><trkpt lat="53.290665" lon="-6.445315"><ele>106.5</ele><time>2026-05-05T08:09:36.212Z</time></trkpt><trkpt lat="53.290535" lon="-6.44572"><ele>107.0</ele><time>2026-05-05T08:09:37.212Z</time></trkpt><trkpt lat="53.29041" lon="-6.44611"><ele>106.5</ele><time>2026-05-05T08:09:38.212Z</time></trkpt><trkpt lat="53.2902883" lon="-6.446485"><ele>106.0</ele><time>2026-05-05T08:09:39.212Z</time></trkpt><trkpt lat="53.290155" lon="-6.4468317"><ele>104.5</ele><time>2026-05-05T08:09:40.212Z</time></trkpt><trkpt lat="53.2900117" lon="-6.4471683"><ele>103.0</ele><time>2026-05-05T08:09:41.212Z</time></trkpt><trkpt lat="53.28987" lon="-6.4474933"><ele>103.0</ele><time>2026-05-05T08:09:42.211Z</time></trkpt><trkpt lat="53.28971" lon="-6.4478083"><ele>103.0</ele><time>2026-05-05T08:09:43.212Z</time></trkpt><trkpt lat="53.289535" lon="-6.4481133"><ele>103.0</ele><time>2026-05-05T08:09:44.212Z</time></trkpt><trkpt lat="53.2893533" lon="-6.4484167"><ele>103.0</ele><time>2026-05-05T08:09:45.212Z</time></trkpt><trkpt lat="53.289175" lon="-6.44872"><ele>102.5</ele><time>2026-05-05T08:09:46.212Z</time></trkpt><trkpt lat="53.2889933" lon="-6.4490067"><ele>102.0</ele><time>2026-05-05T08:09:47.212Z</time></trkpt><trkpt lat="53.2888167" lon="-6.4492883"><ele>103.5</ele><time>2026-05-05T08:09:48.211Z</time></trkpt><trkpt lat="53.2886317" lon="-6.4495833"><ele>105.0</ele><time>2026-05-05T08:09:49.212Z</time></trkpt><trkpt lat="53.2884383" lon="-6.4498967"><ele>105.0</ele><time>2026-05-05T08:09:50.212Z</time></trkpt><trkpt lat="53.28825" lon="-6.450195"><ele>105.0</ele><time>2026-05-05T08:09:51.212Z</time></trkpt><trkpt lat="53.28807" lon="-6.4504883"><ele>107.0</ele><time>2026-05-05T08:09:52.212Z</time></trkpt><trkpt lat="53.2878933" lon="-6.4507783"><ele>109.0</ele><time>2026-05-05T08:09:53.211Z</time></trkpt><trkpt lat="53.287705" lon="-6.4510883"><ele>106.5</ele><time>2026-05-05T08:09:54.211Z</time></trkpt><trkpt lat="53.2875233" lon="-6.451405"><ele>104.0</ele><time>2026-05-05T08:09:55.211Z</time></trkpt><trkpt lat="53.2873283" lon="-6.4517183"><ele>105.5</ele><time>2026-05-05T08:09:56.211Z</time></trkpt><trkpt lat="53.2871583" lon="-6.452"><ele>107.0</ele><time>2026-05-05T08:09:57.212Z</time></trkpt><trkpt lat="53.286945" lon="-6.452295"><ele>107.0</ele><time>2026-05-05T08:09:58.212Z</time></trkpt><trkpt lat="53.28677" lon="-6.4526033"><ele>107.0</ele><time>2026-05-05T08:09:59.211Z</time></trkpt><trkpt lat="53.2865983" lon="-6.4529"><ele>108.0</ele><time>2026-05-05T08:10:00.212Z</time></trkpt><trkpt lat="53.28641" lon="-6.4531967"><ele>109.0</ele><time>2026-05-05T08:10:01.212Z</time></trkpt><trkpt lat="53.2862183" lon="-6.4535"><ele>108.0</ele><time>2026-05-05T08:10:02.212Z</time></trkpt><trkpt lat="53.2860467" lon="-6.453815"><ele>107.0</ele><time>2026-05-05T08:10:03.211Z</time></trkpt><trkpt lat="53.2858617" lon="-6.454115"><ele>107.0</ele><time>2026-05-05T08:10:04.211Z</time></trkpt><trkpt lat="53.2856883" lon="-6.4544283"><ele>107.0</ele><time>2026-05-05T08:10:05.212Z</time></trkpt><trkpt lat="53.28552" lon="-6.4547417"><ele>107.0</ele><time>2026-05-05T08:10:06.211Z</time></trkpt><trkpt lat="53.2853567" lon="-6.4550617"><ele>107.0</ele><time>2026-05-05T08:10:07.212Z</time></trkpt><trkpt lat="53.2852" lon="-6.4553817"><ele>107.0</ele><time>2026-05-05T08:10:08.212Z</time></trkpt><trkpt lat="53.2850467" lon="-6.45571"><ele>107.0</ele><time>2026-05-05T08:10:09.212Z</time></trkpt><trkpt lat="53.28491" lon="-6.4560583"><ele>107.0</ele><time>2026-05-05T08:10:10.212Z</time></trkpt><trkpt lat="53.2847883" lon="-6.4564117"><ele>107.0</ele><time>2026-05-05T08:10:11.212Z</time></trkpt><trkpt lat="53.2846817" lon="-6.4567817"><ele>107.5</ele><time>2026-05-05T08:10:12.211Z</time></trkpt><trkpt lat="53.2845783" lon="-6.4571533"><ele>108.0</ele><time>2026-05-05T08:10:13.212Z</time></trkpt><trkpt lat="53.2844617" lon="-6.4575083"><ele>108.0</ele><time>2026-05-05T08:10:14.212Z</time></trkpt><trkpt lat="53.2843317" lon="-6.45787"><ele>108.0</ele><time>2026-05-05T08:10:15.212Z</time></trkpt><trkpt lat="53.284215" lon="-6.458245"><ele>108.0</ele><time>2026-05-05T08:10:16.212Z</time></trkpt><trkpt lat="53.2841167" lon="-6.4586317"><ele>108.0</ele><time>2026-05-05T08:10:17.211Z</time></trkpt><trkpt lat="53.2840317" lon="-6.4589967"><ele>108.5</ele><time>2026-05-05T08:10:18.211Z</time></trkpt><trkpt lat="53.2839533" lon="-6.4593817"><ele>109.0</ele><time>2026-05-05T08:10:19.211Z</time></trkpt><trkpt lat="53.28389" lon="-6.4597867"><ele>112.5</ele><time>2026-05-05T08:10:20.212Z</time></trkpt><trkpt lat="53.2838333" lon="-6.460175"><ele>116.0</ele><time>2026-05-05T08:10:21.211Z</time></trkpt><trkpt lat="53.2837867" lon="-6.4605667"><ele>116.0</ele><time>2026-05-05T08:10:22.212Z</time></trkpt><trkpt lat="53.283745" lon="-6.46095"><ele>116.0</ele><time>2026-05-05T08:10:23.212Z</time></trkpt><trkpt lat="53.2837083" lon="-6.4613417"><ele>116.0</ele><time>2026-05-05T08:10:24.212Z</time></trkpt><trkpt lat="53.2836783" lon="-6.4617433"><ele>116.0</ele><time>2026-05-05T08:10:25.211Z</time></trkpt><trkpt lat="53.2836617" lon="-6.4621483"><ele>116.0</ele><time>2026-05-05T08:10:26.211Z</time></trkpt><trkpt lat="53.2836467" lon="-6.4625333"><ele>116.0</ele><time>2026-05-05T08:10:27.212Z</time></trkpt><trkpt lat="53.2836617" lon="-6.46297"><ele>117.0</ele><time>2026-05-05T08:10:28.212Z</time></trkpt><trkpt lat="53.2836567" lon="-6.4634217"><ele>118.0</ele><time>2026-05-05T08:10:29.211Z</time></trkpt><trkpt lat="53.2836533" lon="-6.4638667"><ele>118.0</ele><time>2026-05-05T08:10:30.212Z</time></trkpt><trkpt lat="53.28367" lon="-6.464335"><ele>118.0</ele><time>2026-05-05T08:10:31.212Z</time></trkpt><trkpt lat="53.2836667" lon="-6.4648133"><ele>117.5</ele><time>2026-05-05T08:10:32.212Z</time></trkpt><trkpt lat="53.2836633" lon="-6.465285"><ele>117.0</ele><time>2026-05-05T08:10:33.212Z</time></trkpt><trkpt lat="53.2836633" lon="-6.4657383"><ele>116.5</ele><time>2026-05-05T08:10:34.212Z</time></trkpt><trkpt lat="53.28364" lon="-6.4661933"><ele>116.0</ele><time>2026-05-05T08:10:35.212Z</time></trkpt><trkpt lat="53.283615" lon="-6.466645"><ele>115.0</ele><time>2026-05-05T08:10:36.211Z</time></trkpt><trkpt lat="53.28357" lon="-6.4670583"><ele>114.0</ele><time>2026-05-05T08:10:37.211Z</time></trkpt><trkpt lat="53.2835283" lon="-6.46746"><ele>114.0</ele><time>2026-05-05T08:10:38.212Z</time></trkpt><trkpt lat="53.28347" lon="-6.4678567"><ele>114.0</ele><time>2026-05-05T08:10:39.212Z</time></trkpt><trkpt lat="53.283415" lon="-6.4682667"><ele>114.0</ele><time>2026-05-05T08:10:40.211Z</time></trkpt><trkpt lat="53.2833483" lon="-6.4686733"><ele>114.0</ele><time>2026-05-05T08:10:41.212Z</time></trkpt><trkpt lat="53.2832633" lon="-6.4691"><ele>114.0</ele><time>2026-05-05T08:10:42.212Z</time></trkpt><trkpt lat="53.2831767" lon="-6.4695"><ele>114.0</ele><time>2026-05-05T08:10:43.212Z</time></trkpt><trkpt lat="53.2830883" lon="-6.4698983"><ele>114.0</ele><time>2026-05-05T08:10:44.212Z</time></trkpt><trkpt lat="53.2829983" lon="-6.4703183"><ele>114.0</ele><time>2026-05-05T08:10:45.212Z</time></trkpt><trkpt lat="53.2829083" lon="-6.4707267"><ele>114.0</ele><time>2026-05-05T08:10:46.212Z</time></trkpt><trkpt lat="53.2828167" lon="-6.4711417"><ele>114.0</ele><time>2026-05-05T08:10:47.212Z</time></trkpt><trkpt lat="53.2827267" lon="-6.4715567"><ele>114.0</ele><time>2026-05-05T08:10:48.212Z</time></trkpt><trkpt lat="53.2826283" lon="-6.4719817"><ele>114.0</ele><time>2026-05-05T08:10:49.211Z</time></trkpt><trkpt lat="53.2825283" lon="-6.472405"><ele>114.0</ele><time>2026-05-05T08:10:50.211Z</time></trkpt><trkpt lat="53.2824417" lon="-6.472815"><ele>114.0</ele><time>2026-05-05T08:10:51.212Z</time></trkpt><trkpt lat="53.28234" lon="-6.4732267"><ele>114.5</ele><time>2026-05-05T08:10:52.212Z</time></trkpt><trkpt lat="53.2822383" lon="-6.4736533"><ele>115.0</ele><time>2026-05-05T08:10:53.211Z</time></trkpt><trkpt lat="53.2821417" lon="-6.4740883"><ele>115.0</ele><time>2026-05-05T08:10:54.211Z</time></trkpt><trkpt lat="53.2820467" lon="-6.4745167"><ele>115.0</ele><time>2026-05-05T08:10:55.212Z</time></trkpt><trkpt lat="53.28196" lon="-6.4749283"><ele>115.5</ele><time>2026-05-05T08:10:56.212Z</time></trkpt><trkpt lat="53.281865" lon="-6.4753383"><ele>116.0</ele><time>2026-05-05T08:10:57.212Z</time></trkpt><trkpt lat="53.281775" lon="-6.47575"><ele>116.5</ele><time>2026-05-05T08:10:58.211Z</time></trkpt><trkpt lat="53.28169" lon="-6.4761517"><ele>117.0</ele><time>2026-05-05T08:10:59.211Z</time></trkpt><trkpt lat="53.2816067" lon="-6.4765683"><ele>117.0</ele><time>2026-05-05T08:11:00.211Z</time></trkpt><trkpt lat="53.281535" lon="-6.4769717"><ele>117.0</ele><time>2026-05-05T08:11:01.212Z</time></trkpt><trkpt lat="53.281455" lon="-6.47735"><ele>120.5</ele><time>2026-05-05T08:11:02.212Z</time></trkpt><trkpt lat="53.2813767" lon="-6.4777217"><ele>124.0</ele><time>2026-05-05T08:11:03.212Z</time></trkpt><trkpt lat="53.2812983" lon="-6.4780867"><ele>124.0</ele><time>2026-05-05T08:11:04.212Z</time></trkpt><trkpt lat="53.28121" lon="-6.4784617"><ele>124.0</ele><time>2026-05-05T08:11:05.212Z</time></trkpt><trkpt lat="53.281125" lon="-6.478825"><ele>123.5</ele><time>2026-05-05T08:11:06.211Z</time></trkpt><trkpt lat="53.28104" lon="-6.479195"><ele>123.0</ele><time>2026-05-05T08:11:07.212Z</time></trkpt><trkpt lat="53.280955" lon="-6.4795767"><ele>124.0</ele><time>2026-05-05T08:11:08.211Z</time></trkpt><trkpt lat="53.28086" lon="-6.47996"><ele>125.0</ele><time>2026-05-05T08:11:09.212Z</time></trkpt><trkpt lat="53.2807683" lon="-6.4803417"><ele>124.5</ele><time>2026-05-05T08:11:10.212Z</time></trkpt><trkpt lat="53.2806833" lon="-6.4807133"><ele>124.0</ele><time>2026-05-05T08:11:11.211Z</time></trkpt><trkpt lat="53.2806017" lon="-6.4810817"><ele>126.5</ele><time>2026-05-05T08:11:12.211Z</time></trkpt><trkpt lat="53.2805183" lon="-6.4814533"><ele>129.0</ele><time>2026-05-05T08:11:13.212Z</time></trkpt><trkpt lat="53.2804317" lon="-6.4818317"><ele>129.0</ele><time>2026-05-05T08:11:14.212Z</time></trkpt><trkpt lat="53.2803467" lon="-6.4822167"><ele>129.0</ele><time>2026-05-05T08:11:15.212Z</time></trkpt><trkpt lat="53.2802617" lon="-6.4826033"><ele>128.0</ele><time>2026-05-05T08:11:16.212Z</time></trkpt><trkpt lat="53.280175" lon="-6.4829883"><ele>127.0</ele><time>2026-05-05T08:11:17.212Z</time></trkpt><trkpt lat="53.2800983" lon="-6.48337"><ele>125.5</ele><time>2026-05-05T08:11:18.212Z</time></trkpt><trkpt lat="53.2800067" lon="-6.48378"><ele>124.0</ele><time>2026-05-05T08:11:19.211Z</time></trkpt><trkpt lat="53.2799217" lon="-6.48418"><ele>124.0</ele><time>2026-05-05T08:11:20.212Z</time></trkpt><trkpt lat="53.2798167" lon="-6.4845933"><ele>124.0</ele><time>2026-05-05T08:11:21.211Z</time></trkpt><trkpt lat="53.279725" lon="-6.484985"><ele>125.5</ele><time>2026-05-05T08:11:22.212Z</time></trkpt><trkpt lat="53.27962" lon="-6.4853983"><ele>127.0</ele><time>2026-05-05T08:11:23.211Z</time></trkpt><trkpt lat="53.279505" lon="-6.4858417"><ele>127.0</ele><time>2026-05-05T08:11:24.212Z</time></trkpt><trkpt lat="53.2794167" lon="-6.4862517"><ele>127.0</ele><time>2026-05-05T08:11:25.212Z</time></trkpt><trkpt lat="53.2793317" lon="-6.48668"><ele>125.0</ele><time>2026-05-05T08:11:26.212Z</time></trkpt><trkpt lat="53.2792367" lon="-6.4871"><ele>123.0</ele><time>2026-05-05T08:11:27.211Z</time></trkpt><trkpt lat="53.27913" lon="-6.4875483"><ele>124.0</ele><time>2026-05-05T08:11:28.211Z</time></trkpt><trkpt lat="53.279015" lon="-6.4879883"><ele>125.0</ele><time>2026-05-05T08:11:29.212Z</time></trkpt><trkpt lat="53.27892" lon="-6.4884233"><ele>127.0</ele><time>2026-05-05T08:11:30.212Z</time></trkpt><trkpt lat="53.278815" lon="-6.4888483"><ele>129.0</ele><time>2026-05-05T08:11:31.212Z</time></trkpt><trkpt lat="53.2787133" lon="-6.48928"><ele>129.0</ele><time>2026-05-05T08:11:32.212Z</time></trkpt><trkpt lat="53.2786133" lon="-6.489705"><ele>129.0</ele><time>2026-05-05T08:11:33.211Z</time></trkpt><trkpt lat="53.27852" lon="-6.4901183"><ele>129.5</ele><time>2026-05-05T08:11:34.211Z</time></trkpt><trkpt lat="53.2784317" lon="-6.49055"><ele>130.0</ele><time>2026-05-05T08:11:35.212Z</time></trkpt><trkpt lat="53.2783283" lon="-6.4910117"><ele>130.0</ele><time>2026-05-05T08:11:36.212Z</time></trkpt><trkpt lat="53.27822" lon="-6.4914667"><ele>130.0</ele><time>2026-05-05T08:11:37.211Z</time></trkpt><trkpt lat="53.27811" lon="-6.4919183"><ele>130.5</ele><time>2026-05-05T08:11:38.212Z</time></trkpt><trkpt lat="53.2780117" lon="-6.4923883"><ele>131.0</ele><time>2026-05-05T08:11:39.211Z</time></trkpt><trkpt lat="53.277915" lon="-6.4928317"><ele>131.5</ele><time>2026-05-05T08:11:40.212Z</time></trkpt><trkpt lat="53.27783" lon="-6.4932783"><ele>132.0</ele><time>2026-05-05T08:11:41.211Z</time></trkpt><trkpt lat="53.2777333" lon="-6.49374"><ele>132.0</ele><time>2026-05-05T08:11:42.211Z</time></trkpt><trkpt lat="53.277655" lon="-6.494195"><ele>132.0</ele><time>2026-05-05T08:11:43.212Z</time></trkpt><trkpt lat="53.27758" lon="-6.4946517"><ele>132.5</ele><time>2026-05-05T08:11:44.212Z</time></trkpt><trkpt lat="53.2775067" lon="-6.49512"><ele>133.0</ele><time>2026-05-05T08:11:45.212Z</time></trkpt><trkpt lat="53.27743" lon="-6.495585"><ele>133.0</ele><time>2026-05-05T08:11:46.212Z</time></trkpt><trkpt lat="53.277355" lon="-6.496045"><ele>133.0</ele><time>2026-05-05T08:11:47.212Z</time></trkpt><trkpt lat="53.2772733" lon="-6.4965033"><ele>135.0</ele><time>2026-05-05T08:11:48.212Z</time></trkpt><trkpt lat="53.2772033" lon="-6.4969617"><ele>137.0</ele><time>2026-05-05T08:11:49.212Z</time></trkpt><trkpt lat="53.277135" lon="-6.497425"><ele>138.0</ele><time>2026-05-05T08:11:50.212Z</time></trkpt><trkpt lat="53.277065" lon="-6.49789"><ele>139.0</ele><time>2026-05-05T08:11:51.211Z</time></trkpt><trkpt lat="53.2769917" lon="-6.4983583"><ele>139.0</ele><time>2026-05-05T08:11:52.212Z</time></trkpt><trkpt lat="53.27692" lon="-6.4988267"><ele>139.0</ele><time>2026-05-05T08:11:53.211Z</time></trkpt><trkpt lat="53.2768567" lon="-6.4992917"><ele>138.5</ele><time>2026-05-05T08:11:54.212Z</time></trkpt><trkpt lat="53.2767833" lon="-6.4997467"><ele>138.0</ele><time>2026-05-05T08:11:55.212Z</time></trkpt><trkpt lat="53.2767" lon="-6.5002"><ele>138.0</ele><time>2026-05-05T08:11:56.212Z</time></trkpt><trkpt lat="53.2766133" lon="-6.5006667"><ele>138.0</ele><time>2026-05-05T08:11:57.212Z</time></trkpt><trkpt lat="53.276525" lon="-6.501125"><ele>138.0</ele><time>2026-05-05T08:11:58.212Z</time></trkpt><trkpt lat="53.2764533" lon="-6.5015817"><ele>138.0</ele><time>2026-05-05T08:11:59.211Z</time></trkpt><trkpt lat="53.276375" lon="-6.502025"><ele>141.5</ele><time>2026-05-05T08:12:00.211Z</time></trkpt><trkpt lat="53.2763" lon="-6.5024667"><ele>145.0</ele><time>2026-05-05T08:12:01.212Z</time></trkpt><trkpt lat="53.2762283" lon="-6.5028833"><ele>144.5</ele><time>2026-05-05T08:12:02.212Z</time></trkpt><trkpt lat="53.2761617" lon="-6.503285"><ele>144.0</ele><time>2026-05-05T08:12:03.211Z</time></trkpt><trkpt lat="53.2761033" lon="-6.503645"><ele>144.5</ele><time>2026-05-05T08:12:04.211Z</time></trkpt><trkpt lat="53.2760417" lon="-6.5040117"><ele>145.0</ele><time>2026-05-05T08:12:05.212Z</time></trkpt><trkpt lat="53.2759617" lon="-6.5043717"><ele>144.0</ele><time>2026-05-05T08:12:06.212Z</time></trkpt><trkpt lat="53.2758783" lon="-6.5047433"><ele>143.0</ele><time>2026-05-05T08:12:07.212Z</time></trkpt><trkpt lat="53.2757817" lon="-6.5051283"><ele>143.0</ele><time>2026-05-05T08:12:08.212Z</time></trkpt><trkpt lat="53.27567" lon="-6.5055117"><ele>143.0</ele><time>2026-05-05T08:12:09.211Z</time></trkpt><trkpt lat="53.2755583" lon="-6.5058967"><ele>145.0</ele><time>2026-05-05T08:12:10.212Z</time></trkpt><trkpt lat="53.27544" lon="-6.5062833"><ele>147.0</ele><time>2026-05-05T08:12:11.211Z</time></trkpt><trkpt lat="53.2753033" lon="-6.5066733"><ele>147.0</ele><time>2026-05-05T08:12:12.212Z</time></trkpt><trkpt lat="53.2751583" lon="-6.5070617"><ele>147.0</ele><time>2026-05-05T08:12:13.211Z</time></trkpt><trkpt lat="53.2750067" lon="-6.5074317"><ele>147.5</ele><time>2026-05-05T08:12:14.211Z</time></trkpt><trkpt lat="53.274855" lon="-6.5077917"><ele>148.0</ele><time>2026-05-05T08:12:15.212Z</time></trkpt><trkpt lat="53.2747017" lon="-6.5081333"><ele>148.0</ele><time>2026-05-05T08:12:16.211Z</time></trkpt><trkpt lat="53.274535" lon="-6.508475"><ele>148.0</ele><time>2026-05-05T08:12:17.212Z</time></trkpt><trkpt lat="53.274375" lon="-6.508795"><ele>146.5</ele><time>2026-05-05T08:12:18.212Z</time></trkpt><trkpt lat="53.2742167" lon="-6.50911"><ele>145.0</ele><time>2026-05-05T08:12:19.212Z</time></trkpt><trkpt lat="53.27406" lon="-6.5094233"><ele>146.5</ele><time>2026-05-05T08:12:20.212Z</time></trkpt><trkpt lat="53.273895" lon="-6.5097267"><ele>148.0</ele><time>2026-05-05T08:12:21.211Z</time></trkpt><trkpt lat="53.273725" lon="-6.510055"><ele>148.0</ele><time>2026-05-05T08:12:22.211Z</time></trkpt><trkpt lat="53.2735667" lon="-6.5103733"><ele>148.0</ele><time>2026-05-05T08:12:23.212Z</time></trkpt><trkpt lat="53.2733983" lon="-6.51071"><ele>147.0</ele><time>2026-05-05T08:12:24.212Z</time></trkpt><trkpt lat="53.2732317" lon="-6.5110217"><ele>146.0</ele><time>2026-05-05T08:12:25.211Z</time></trkpt><trkpt lat="53.27307" lon="-6.5113633"><ele>148.5</ele><time>2026-05-05T08:12:26.211Z</time></trkpt><trkpt lat="53.2729033" lon="-6.5117133"><ele>151.0</ele><time>2026-05-05T08:12:27.212Z</time></trkpt><trkpt lat="53.2727283" lon="-6.512055"><ele>149.0</ele><time>2026-05-05T08:12:28.212Z</time></trkpt><trkpt lat="53.272555" lon="-6.5124033"><ele>147.0</ele><time>2026-05-05T08:12:29.211Z</time></trkpt><trkpt lat="53.272385" lon="-6.5127583"><ele>147.0</ele><time>2026-05-05T08:12:30.212Z</time></trkpt><trkpt lat="53.272215" lon="-6.5131083"><ele>147.0</ele><time>2026-05-05T08:12:31.212Z</time></trkpt><trkpt lat="53.2720417" lon="-6.5134567"><ele>145.5</ele><time>2026-05-05T08:12:32.211Z</time></trkpt><trkpt lat="53.2718633" lon="-6.5138017"><ele>144.0</ele><time>2026-05-05T08:12:33.211Z</time></trkpt><trkpt lat="53.2716833" lon="-6.5141567"><ele>144.0</ele><time>2026-05-05T08:12:34.212Z</time></trkpt><trkpt lat="53.271505" lon="-6.514525"><ele>144.0</ele><time>2026-05-05T08:12:35.212Z</time></trkpt><trkpt lat="53.2713183" lon="-6.5149"><ele>144.0</ele><time>2026-05-05T08:12:36.212Z</time></trkpt><trkpt lat="53.27114" lon="-6.5152567"><ele>144.0</ele><time>2026-05-05T08:12:37.212Z</time></trkpt><trkpt lat="53.270965" lon="-6.515625"><ele>144.0</ele><time>2026-05-05T08:12:38.211Z</time></trkpt><trkpt lat="53.27079" lon="-6.5159733"><ele>144.0</ele><time>2026-05-05T08:12:39.212Z</time></trkpt><trkpt lat="53.2706083" lon="-6.5163117"><ele>145.0</ele><time>2026-05-05T08:12:40.211Z</time></trkpt><trkpt lat="53.27044" lon="-6.51666"><ele>146.0</ele><time>2026-05-05T08:12:41.212Z</time></trkpt><trkpt lat="53.2702767" lon="-6.517005"><ele>145.0</ele><time>2026-05-05T08:12:42.211Z</time></trkpt><trkpt lat="53.27011" lon="-6.5173483"><ele>144.0</ele><time>2026-05-05T08:12:43.212Z</time></trkpt><trkpt lat="53.2699467" lon="-6.51769"><ele>143.5</ele><time>2026-05-05T08:12:44.212Z</time></trkpt><trkpt lat="53.26978" lon="-6.518035"><ele>143.0</ele><time>2026-05-05T08:12:45.212Z</time></trkpt><trkpt lat="53.26962" lon="-6.5183933"><ele>144.5</ele><time>2026-05-05T08:12:46.212Z</time></trkpt><trkpt lat="53.26947" lon="-6.5187517"><ele>146.0</ele><time>2026-05-05T08:12:47.212Z</time></trkpt><trkpt lat="53.2693183" lon="-6.5190967"><ele>146.0</ele><time>2026-05-05T08:12:48.211Z</time></trkpt><trkpt lat="53.2691667" lon="-6.519445"><ele>146.0</ele><time>2026-05-05T08:12:49.211Z</time></trkpt><trkpt lat="53.2690133" lon="-6.519785"><ele>146.0</ele><time>2026-05-05T08:12:50.211Z</time></trkpt><trkpt lat="53.2688567" lon="-6.5201383"><ele>146.0</ele><time>2026-05-05T08:12:51.212Z</time></trkpt><trkpt lat="53.268695" lon="-6.520495"><ele>146.0</ele><time>2026-05-05T08:12:52.211Z</time></trkpt><trkpt lat="53.2685317" lon="-6.5208367"><ele>146.0</ele><time>2026-05-05T08:12:53.212Z</time></trkpt><trkpt lat="53.26837" lon="-6.521165"><ele>144.5</ele><time>2026-05-05T08:12:54.211Z</time></trkpt><trkpt lat="53.26823" lon="-6.521515"><ele>143.0</ele><time>2026-05-05T08:12:55.211Z</time></trkpt><trkpt lat="53.268075" lon="-6.52186"><ele>146.5</ele><time>2026-05-05T08:12:56.212Z</time></trkpt><trkpt lat="53.267925" lon="-6.5221983"><ele>150.0</ele><time>2026-05-05T08:12:57.212Z</time></trkpt><trkpt lat="53.2677783" lon="-6.52255"><ele>150.0</ele><time>2026-05-05T08:12:58.211Z</time></trkpt><trkpt lat="53.26763" lon="-6.5228967"><ele>150.0</ele><time>2026-05-05T08:12:59.211Z</time></trkpt><trkpt lat="53.267475" lon="-6.5232217"><ele>151.0</ele><time>2026-05-05T08:13:00.212Z</time></trkpt><trkpt lat="53.2673217" lon="-6.5235567"><ele>152.0</ele><time>2026-05-05T08:13:01.211Z</time></trkpt><trkpt lat="53.2671633" lon="-6.5239217"><ele>152.0</ele><time>2026-05-05T08:13:02.212Z</time></trkpt><trkpt lat="53.2670017" lon="-6.52426"><ele>152.0</ele><time>2026-05-05T08:13:03.212Z</time></trkpt><trkpt lat="53.2668417" lon="-6.524625"><ele>150.0</ele><time>2026-05-05T08:13:04.211Z</time></trkpt><trkpt lat="53.26668" lon="-6.5249733"><ele>148.0</ele><time>2026-05-05T08:13:05.211Z</time></trkpt><trkpt lat="53.2665267" lon="-6.5253433"><ele>150.0</ele><time>2026-05-05T08:13:06.212Z</time></trkpt><trkpt lat="53.2663633" lon="-6.5256967"><ele>152.0</ele><time>2026-05-05T08:13:07.211Z</time></trkpt><trkpt lat="53.2662033" lon="-6.5260717"><ele>149.5</ele><time>2026-05-05T08:13:08.211Z</time></trkpt><trkpt lat="53.2660467" lon="-6.526445"><ele>147.0</ele><time>2026-05-05T08:13:09.212Z</time></trkpt><trkpt lat="53.2658817" lon="-6.52682"><ele>145.0</ele><time>2026-05-05T08:13:10.212Z</time></trkpt><trkpt lat="53.2657167" lon="-6.5271883"><ele>143.0</ele><time>2026-05-05T08:13:11.211Z</time></trkpt><trkpt lat="53.26555" lon="-6.527575"><ele>144.5</ele><time>2026-05-05T08:13:12.212Z</time></trkpt><trkpt lat="53.2653883" lon="-6.5279517"><ele>146.0</ele><time>2026-05-05T08:13:13.211Z</time></trkpt><trkpt lat="53.265235" lon="-6.5283417"><ele>145.0</ele><time>2026-05-05T08:13:14.212Z</time></trkpt><trkpt lat="53.26507" lon="-6.5287283"><ele>144.0</ele><time>2026-05-05T08:13:15.211Z</time></trkpt><trkpt lat="53.264895" lon="-6.5291333"><ele>146.5</ele><time>2026-05-05T08:13:16.211Z</time></trkpt><trkpt lat="53.2647167" lon="-6.5295383"><ele>149.0</ele><time>2026-05-05T08:13:17.211Z</time></trkpt><trkpt lat="53.264545" lon="-6.5299483"><ele>149.0</ele><time>2026-05-05T08:13:18.212Z</time></trkpt><trkpt lat="53.2643883" lon="-6.5303717"><ele>149.0</ele><time>2026-05-05T08:13:19.212Z</time></trkpt><trkpt lat="53.26423" lon="-6.5308033"><ele>149.0</ele><time>2026-05-05T08:13:20.211Z</time></trkpt><trkpt lat="53.2640683" lon="-6.53125"><ele>149.0</ele><time>2026-05-05T08:13:21.211Z</time></trkpt><trkpt lat="53.263915" lon="-6.5316967"><ele>148.0</ele><time>2026-05-05T08:13:22.212Z</time></trkpt><trkpt lat="53.2637633" lon="-6.53214"><ele>147.0</ele><time>2026-05-05T08:13:23.212Z</time></trkpt><trkpt lat="53.2636283" lon="-6.5325983"><ele>144.5</ele><time>2026-05-05T08:13:24.211Z</time></trkpt><trkpt lat="53.2634883" lon="-6.533075"><ele>142.0</ele><time>2026-05-05T08:13:25.211Z</time></trkpt><trkpt lat="53.26336" lon="-6.5335433"><ele>141.0</ele><time>2026-05-05T08:13:26.212Z</time></trkpt><trkpt lat="53.263245" lon="-6.533995"><ele>140.0</ele><time>2026-05-05T08:13:27.212Z</time></trkpt><trkpt lat="53.2631167" lon="-6.534435"><ele>140.0</ele><time>2026-05-05T08:13:28.212Z</time></trkpt><trkpt lat="53.2630017" lon="-6.5348683"><ele>140.0</ele><time>2026-05-05T08:13:29.212Z</time></trkpt><trkpt lat="53.26288" lon="-6.5353067"><ele>139.0</ele><time>2026-05-05T08:13:30.212Z</time></trkpt><trkpt lat="53.262755" lon="-6.535755"><ele>138.0</ele><time>2026-05-05T08:13:31.211Z</time></trkpt><trkpt lat="53.262625" lon="-6.5362017"><ele>138.0</ele><time>2026-05-05T08:13:32.212Z</time></trkpt><trkpt lat="53.2625" lon="-6.5366483"><ele>138.0</ele><time>2026-05-05T08:13:33.212Z</time></trkpt><trkpt lat="53.2623683" lon="-6.53711"><ele>137.0</ele><time>2026-05-05T08:13:34.211Z</time></trkpt><trkpt lat="53.26224" lon="-6.537565"><ele>136.0</ele><time>2026-05-05T08:13:35.212Z</time></trkpt><trkpt lat="53.26211" lon="-6.538025"><ele>136.0</ele><time>2026-05-05T08:13:36.212Z</time></trkpt><trkpt lat="53.26198" lon="-6.53848"><ele>136.0</ele><time>2026-05-05T08:13:37.212Z</time></trkpt><trkpt lat="53.261855" lon="-6.5389367"><ele>136.0</ele><time>2026-05-05T08:13:38.211Z</time></trkpt><trkpt lat="53.2617167" lon="-6.5393917"><ele>136.0</ele><time>2026-05-05T08:13:39.211Z</time></trkpt><trkpt lat="53.2615883" lon="-6.5398383"><ele>136.0</ele><time>2026-05-05T08:13:40.212Z</time></trkpt><trkpt lat="53.2614633" lon="-6.5402883"><ele>136.0</ele><time>2026-05-05T08:13:41.211Z</time></trkpt><trkpt lat="53.261335" lon="-6.5407333"><ele>136.0</ele><time>2026-05-05T08:13:42.212Z</time></trkpt><trkpt lat="53.261205" lon="-6.5411817"><ele>136.0</ele><time>2026-05-05T08:13:43.211Z</time></trkpt><trkpt lat="53.2610867" lon="-6.5416067"><ele>136.0</ele><time>2026-05-05T08:13:44.212Z</time></trkpt><trkpt lat="53.2609617" lon="-6.5420417"><ele>136.0</ele><time>2026-05-05T08:13:45.211Z</time></trkpt><trkpt lat="53.2608267" lon="-6.542485"><ele>134.0</ele><time>2026-05-05T08:13:46.212Z</time></trkpt><trkpt lat="53.2606933" lon="-6.5429233"><ele>132.0</ele><time>2026-05-05T08:13:47.212Z</time></trkpt><trkpt lat="53.2605633" lon="-6.5433617"><ele>131.0</ele><time>2026-05-05T08:13:48.212Z</time></trkpt><trkpt lat="53.2604383" lon="-6.5437967"><ele>130.0</ele><time>2026-05-05T08:13:49.211Z</time></trkpt><trkpt lat="53.26031" lon="-6.5442367"><ele>129.0</ele><time>2026-05-05T08:13:50.212Z</time></trkpt><trkpt lat="53.2601833" lon="-6.54467"><ele>128.0</ele><time>2026-05-05T08:13:51.212Z</time></trkpt><trkpt lat="53.2600583" lon="-6.545095"><ele>127.5</ele><time>2026-05-05T08:13:52.212Z</time></trkpt><trkpt lat="53.2599383" lon="-6.5455017"><ele>127.0</ele><time>2026-05-05T08:13:53.212Z</time></trkpt><trkpt lat="53.2598367" lon="-6.5458983"><ele>125.5</ele><time>2026-05-05T08:13:54.212Z</time></trkpt><trkpt lat="53.2597217" lon="-6.5463017"><ele>124.0</ele><time>2026-05-05T08:13:55.212Z</time></trkpt><trkpt lat="53.259595" lon="-6.5467083"><ele>123.5</ele><time>2026-05-05T08:13:56.212Z</time></trkpt><trkpt lat="53.2594783" lon="-6.54712"><ele>123.0</ele><time>2026-05-05T08:13:57.212Z</time></trkpt><trkpt lat="53.2593683" lon="-6.5475267"><ele>122.5</ele><time>2026-05-05T08:13:58.212Z</time></trkpt><trkpt lat="53.25926" lon="-6.5479267"><ele>122.0</ele><time>2026-05-05T08:13:59.211Z</time></trkpt><trkpt lat="53.25915" lon="-6.548315"><ele>122.0</ele><time>2026-05-05T08:14:00.212Z</time></trkpt><trkpt lat="53.2590433" lon="-6.5487133"><ele>122.0</ele><time>2026-05-05T08:14:01.212Z</time></trkpt><trkpt lat="53.258935" lon="-6.5491083"><ele>122.0</ele><time>2026-05-05T08:14:02.212Z</time></trkpt><trkpt lat="53.2588233" lon="-6.5495"><ele>122.0</ele><time>2026-05-05T08:14:03.211Z</time></trkpt><trkpt lat="53.258715" lon="-6.54988"><ele>121.5</ele><time>2026-05-05T08:14:04.212Z</time></trkpt><trkpt lat="53.258615" lon="-6.55023"><ele>121.0</ele><time>2026-05-05T08:14:05.212Z</time></trkpt><trkpt lat="53.2585217" lon="-6.5505883"><ele>121.0</ele><time>2026-05-05T08:14:06.211Z</time></trkpt><trkpt lat="53.25843" lon="-6.5509383"><ele>121.0</ele><time>2026-05-05T08:14:07.211Z</time></trkpt><trkpt lat="53.2583217" lon="-6.55128"><ele>121.0</ele><time>2026-05-05T08:14:08.212Z</time></trkpt><trkpt lat="53.2582117" lon="-6.5516517"><ele>121.0</ele><time>2026-05-05T08:14:09.212Z</time></trkpt><trkpt lat="53.25811" lon="-6.552015"><ele>121.0</ele><time>2026-05-05T08:14:10.212Z</time></trkpt><trkpt lat="53.2579817" lon="-6.5523817"><ele>121.0</ele><time>2026-05-05T08:14:11.212Z</time></trkpt><trkpt lat="53.2578467" lon="-6.55276"><ele>120.0</ele><time>2026-05-05T08:14:12.212Z</time></trkpt><trkpt lat="53.2577317" lon="-6.5531183"><ele>119.0</ele><time>2026-05-05T08:14:13.212Z</time></trkpt><trkpt lat="53.2576233" lon="-6.5534783"><ele>119.0</ele><time>2026-05-05T08:14:14.212Z</time></trkpt><trkpt lat="53.257525" lon="-6.5538533"><ele>119.0</ele><time>2026-05-05T08:14:15.212Z</time></trkpt><trkpt lat="53.2574233" lon="-6.55422"><ele>119.0</ele><time>2026-05-05T08:14:16.212Z</time></trkpt><trkpt lat="53.2573367" lon="-6.5545983"><ele>119.0</ele><time>2026-05-05T08:14:17.212Z</time></trkpt><trkpt lat="53.2572417" lon="-6.5549733"><ele>119.5</ele><time>2026-05-05T08:14:18.212Z</time></trkpt><trkpt lat="53.2571317" lon="-6.55535"><ele>120.0</ele><time>2026-05-05T08:14:19.212Z</time></trkpt><trkpt lat="53.2570283" lon="-6.5557167"><ele>120.0</ele><time>2026-05-05T08:14:20.211Z</time></trkpt><trkpt lat="53.2569233" lon="-6.55609"><ele>120.0</ele><time>2026-05-05T08:14:21.212Z</time></trkpt><trkpt lat="53.2568217" lon="-6.5564683"><ele>119.5</ele><time>2026-05-05T08:14:22.211Z</time></trkpt><trkpt lat="53.25672" lon="-6.5568467"><ele>119.0</ele><time>2026-05-05T08:14:23.212Z</time></trkpt><trkpt lat="53.2566167" lon="-6.557235"><ele>118.5</ele><time>2026-05-05T08:14:24.211Z</time></trkpt><trkpt lat="53.256515" lon="-6.5576267"><ele>118.0</ele><time>2026-05-05T08:14:25.212Z</time></trkpt><trkpt lat="53.2564167" lon="-6.5580267"><ele>118.0</ele><time>2026-05-05T08:14:26.212Z</time></trkpt><trkpt lat="53.256315" lon="-6.5584417"><ele>118.0</ele><time>2026-05-05T08:14:27.212Z</time></trkpt><trkpt lat="53.2562267" lon="-6.5588517"><ele>118.0</ele><time>2026-05-05T08:14:28.212Z</time></trkpt><trkpt lat="53.2561383" lon="-6.559275"><ele>118.0</ele><time>2026-05-05T08:14:29.212Z</time></trkpt><trkpt lat="53.25605" lon="-6.5597133"><ele>118.0</ele><time>2026-05-05T08:14:30.212Z</time></trkpt><trkpt lat="53.2559533" lon="-6.560165"><ele>118.0</ele><time>2026-05-05T08:14:31.212Z</time></trkpt><trkpt lat="53.2558533" lon="-6.5606433"><ele>118.0</ele><time>2026-05-05T08:14:32.212Z</time></trkpt><trkpt lat="53.2557517" lon="-6.561125"><ele>118.0</ele><time>2026-05-05T08:14:33.212Z</time></trkpt><trkpt lat="53.2556467" lon="-6.5616183"><ele>116.5</ele><time>2026-05-05T08:14:34.212Z</time></trkpt><trkpt lat="53.2555417" lon="-6.5621183"><ele>115.0</ele><time>2026-05-05T08:14:35.212Z</time></trkpt><trkpt lat="53.2554283" lon="-6.562615"><ele>115.0</ele><time>2026-05-05T08:14:36.212Z</time></trkpt><trkpt lat="53.2553083" lon="-6.56311"><ele>115.0</ele><time>2026-05-05T08:14:37.212Z</time></trkpt><trkpt lat="53.2551883" lon="-6.5636117"><ele>115.0</ele><time>2026-05-05T08:14:38.211Z</time></trkpt><trkpt lat="53.2550667" lon="-6.5641083"><ele>115.0</ele><time>2026-05-05T08:14:39.212Z</time></trkpt><trkpt lat="53.2549417" lon="-6.5646033"><ele>115.5</ele><time>2026-05-05T08:14:40.212Z</time></trkpt><trkpt lat="53.2548183" lon="-6.5650933"><ele>116.0</ele><time>2026-05-05T08:14:41.212Z</time></trkpt><trkpt lat="53.2546883" lon="-6.565575"><ele>114.5</ele><time>2026-05-05T08:14:42.211Z</time></trkpt><trkpt lat="53.2545517" lon="-6.5660483"><ele>113.0</ele><time>2026-05-05T08:14:43.212Z</time></trkpt><trkpt lat="53.2544133" lon="-6.566515"><ele>113.0</ele><time>2026-05-05T08:14:44.211Z</time></trkpt><trkpt lat="53.2542733" lon="-6.566965"><ele>113.0</ele><time>2026-05-05T08:14:45.212Z</time></trkpt><trkpt lat="53.2541383" lon="-6.5674017"><ele>113.0</ele><time>2026-05-05T08:14:46.212Z</time></trkpt><trkpt lat="53.25401" lon="-6.5678267"><ele>113.0</ele><time>2026-05-05T08:14:47.212Z</time></trkpt><trkpt lat="53.253895" lon="-6.5682433"><ele>110.5</ele><time>2026-05-05T08:14:48.212Z</time></trkpt><trkpt lat="53.2537767" lon="-6.5686983"><ele>108.0</ele><time>2026-05-05T08:14:49.211Z</time></trkpt><trkpt lat="53.2536667" lon="-6.5691417"><ele>107.5</ele><time>2026-05-05T08:14:50.211Z</time></trkpt><trkpt lat="53.2535517" lon="-6.5695867"><ele>107.0</ele><time>2026-05-05T08:14:51.211Z</time></trkpt><trkpt lat="53.2534533" lon="-6.570025"><ele>107.0</ele><time>2026-05-05T08:14:52.212Z</time></trkpt><trkpt lat="53.253345" lon="-6.5704733"><ele>107.0</ele><time>2026-05-05T08:14:53.212Z</time></trkpt><trkpt lat="53.2532383" lon="-6.57095"><ele>107.5</ele><time>2026-05-05T08:14:54.211Z</time></trkpt><trkpt lat="53.2531383" lon="-6.5714367"><ele>108.0</ele><time>2026-05-05T08:14:55.211Z</time></trkpt><trkpt lat="53.2530483" lon="-6.5719183"><ele>109.0</ele><time>2026-05-05T08:14:56.211Z</time></trkpt><trkpt lat="53.25298" lon="-6.5723883"><ele>110.0</ele><time>2026-05-05T08:14:57.211Z</time></trkpt><trkpt lat="53.25291" lon="-6.57283"><ele>110.5</ele><time>2026-05-05T08:14:58.211Z</time></trkpt><trkpt lat="53.252845" lon="-6.57327"><ele>111.0</ele><time>2026-05-05T08:14:59.211Z</time></trkpt><trkpt lat="53.2527717" lon="-6.5737217"><ele>111.0</ele><time>2026-05-05T08:15:00.211Z</time></trkpt><trkpt lat="53.2527083" lon="-6.5741733"><ele>111.0</ele><time>2026-05-05T08:15:01.211Z</time></trkpt><trkpt lat="53.2526517" lon="-6.5746283"><ele>111.5</ele><time>2026-05-05T08:15:02.212Z</time></trkpt><trkpt lat="53.25259" lon="-6.5750817"><ele>112.0</ele><time>2026-05-05T08:15:03.212Z</time></trkpt><trkpt lat="53.2525317" lon="-6.5755533"><ele>112.0</ele><time>2026-05-05T08:15:04.211Z</time></trkpt><trkpt lat="53.2524833" lon="-6.576045"><ele>112.0</ele><time>2026-05-05T08:15:05.211Z</time></trkpt><trkpt lat="53.2524367" lon="-6.5765317"><ele>111.5</ele><time>2026-05-05T08:15:06.211Z</time></trkpt><trkpt lat="53.2523833" lon="-6.5770083"><ele>111.0</ele><time>2026-05-05T08:15:07.211Z</time></trkpt><trkpt lat="53.252335" lon="-6.577485"><ele>110.5</ele><time>2026-05-05T08:15:08.212Z</time></trkpt><trkpt lat="53.252275" lon="-6.5779667"><ele>110.0</ele><time>2026-05-05T08:15:09.211Z</time></trkpt><trkpt lat="53.25222" lon="-6.5784567"><ele>109.5</ele><time>2026-05-05T08:15:10.212Z</time></trkpt><trkpt lat="53.2521583" lon="-6.5789317"><ele>109.0</ele><time>2026-05-05T08:15:11.212Z</time></trkpt><trkpt lat="53.2520867" lon="-6.57945"><ele>109.0</ele><time>2026-05-05T08:15:12.211Z</time></trkpt><trkpt lat="53.2520067" lon="-6.579945"><ele>109.0</ele><time>2026-05-05T08:15:13.212Z</time></trkpt><trkpt lat="53.2519267" lon="-6.5804533"><ele>108.5</ele><time>2026-05-05T08:15:14.212Z</time></trkpt><trkpt lat="53.2518317" lon="-6.5809683"><ele>108.0</ele><time>2026-05-05T08:15:15.212Z</time></trkpt><trkpt lat="53.251745" lon="-6.5814683"><ele>106.5</ele><time>2026-05-05T08:15:16.212Z</time></trkpt><trkpt lat="53.2516533" lon="-6.5819733"><ele>105.0</ele><time>2026-05-05T08:15:17.212Z</time></trkpt><trkpt lat="53.2515617" lon="-6.5824733"><ele>103.5</ele><time>2026-05-05T08:15:18.211Z</time></trkpt><trkpt lat="53.25148" lon="-6.5829717"><ele>102.0</ele><time>2026-05-05T08:15:19.211Z</time></trkpt><trkpt lat="53.2514" lon="-6.5834683"><ele>100.5</ele><time>2026-05-05T08:15:20.212Z</time></trkpt><trkpt lat="53.2513217" lon="-6.5839617"><ele>99.0</ele><time>2026-05-05T08:15:21.211Z</time></trkpt><trkpt lat="53.2512483" lon="-6.58445"><ele>98.0</ele><time>2026-05-05T08:15:22.211Z</time></trkpt><trkpt lat="53.251175" lon="-6.5849217"><ele>97.0</ele><time>2026-05-05T08:15:23.212Z</time></trkpt><trkpt lat="53.2511" lon="-6.585405"><ele>97.0</ele><time>2026-05-05T08:15:24.212Z</time></trkpt><trkpt lat="53.2510233" lon="-6.5858833"><ele>97.0</ele><time>2026-05-05T08:15:25.212Z</time></trkpt><trkpt lat="53.25094" lon="-6.5863583"><ele>96.5</ele><time>2026-05-05T08:15:26.212Z</time></trkpt><trkpt lat="53.250855" lon="-6.5868283"><ele>96.0</ele><time>2026-05-05T08:15:27.212Z</time></trkpt><trkpt lat="53.2507717" lon="-6.5873"><ele>95.5</ele><time>2026-05-05T08:15:28.212Z</time></trkpt><trkpt lat="53.2506817" lon="-6.58777"><ele>95.0</ele><time>2026-05-05T08:15:29.211Z</time></trkpt><trkpt lat="53.2505817" lon="-6.5882517"><ele>94.5</ele><time>2026-05-05T08:15:30.212Z</time></trkpt><trkpt lat="53.2504717" lon="-6.58874"><ele>94.0</ele><time>2026-05-05T08:15:31.211Z</time></trkpt><trkpt lat="53.250355" lon="-6.589235"><ele>94.0</ele><time>2026-05-05T08:15:32.211Z</time></trkpt><trkpt lat="53.2502317" lon="-6.58972"><ele>94.0</ele><time>2026-05-05T08:15:33.212Z</time></trkpt><trkpt lat="53.2501017" lon="-6.5901983"><ele>93.5</ele><time>2026-05-05T08:15:34.212Z</time></trkpt><trkpt lat="53.2499767" lon="-6.590655"><ele>93.0</ele><time>2026-05-05T08:15:35.212Z</time></trkpt><trkpt lat="53.24984" lon="-6.5911033"><ele>95.0</ele><time>2026-05-05T08:15:36.211Z</time></trkpt><trkpt lat="53.2497133" lon="-6.5915467"><ele>97.0</ele><time>2026-05-05T08:15:37.212Z</time></trkpt><trkpt lat="53.24958" lon="-6.591985"><ele>96.5</ele><time>2026-05-05T08:15:38.212Z</time></trkpt><trkpt lat="53.24944" lon="-6.5924083"><ele>96.0</ele><time>2026-05-05T08:15:39.211Z</time></trkpt><trkpt lat="53.2493083" lon="-6.5928183"><ele>95.0</ele><time>2026-05-05T08:15:40.211Z</time></trkpt><trkpt lat="53.2491717" lon="-6.5932183"><ele>94.0</ele><time>2026-05-05T08:15:41.212Z</time></trkpt><trkpt lat="53.2490467" lon="-6.5936033"><ele>94.5</ele><time>2026-05-05T08:15:42.212Z</time></trkpt><trkpt lat="53.248905" lon="-6.593995"><ele>95.0</ele><time>2026-05-05T08:15:43.211Z</time></trkpt><trkpt lat="53.2487567" lon="-6.59438"><ele>94.5</ele><time>2026-05-05T08:15:44.212Z</time></trkpt><trkpt lat="53.2486017" lon="-6.5947833"><ele>94.0</ele><time>2026-05-05T08:15:45.212Z</time></trkpt><trkpt lat="53.2484383" lon="-6.595175"><ele>93.5</ele><time>2026-05-05T08:15:46.212Z</time></trkpt><trkpt lat="53.2482817" lon="-6.5955517"><ele>93.0</ele><time>2026-05-05T08:15:47.212Z</time></trkpt><trkpt lat="53.2481217" lon="-6.5959433"><ele>94.0</ele><time>2026-05-05T08:15:48.211Z</time></trkpt><trkpt lat="53.247965" lon="-6.5963283"><ele>95.0</ele><time>2026-05-05T08:15:49.211Z</time></trkpt><trkpt lat="53.2478117" lon="-6.5967133"><ele>94.5</ele><time>2026-05-05T08:15:50.212Z</time></trkpt><trkpt lat="53.24765" lon="-6.5971"><ele>94.0</ele><time>2026-05-05T08:15:51.211Z</time></trkpt><trkpt lat="53.2474917" lon="-6.5974717"><ele>94.0</ele><time>2026-05-05T08:15:52.212Z</time></trkpt><trkpt lat="53.2473367" lon="-6.5978167"><ele>94.0</ele><time>2026-05-05T08:15:53.211Z</time></trkpt><trkpt lat="53.2471917" lon="-6.5981733"><ele>94.0</ele><time>2026-05-05T08:15:54.211Z</time></trkpt><trkpt lat="53.2470417" lon="-6.5985433"><ele>94.0</ele><time>2026-05-05T08:15:55.212Z</time></trkpt><trkpt lat="53.24689" lon="-6.5989267"><ele>94.0</ele><time>2026-05-05T08:15:56.212Z</time></trkpt><trkpt lat="53.2467517" lon="-6.5993117"><ele>94.0</ele><time>2026-05-05T08:15:57.211Z</time></trkpt><trkpt lat="53.2466033" lon="-6.5996867"><ele>94.5</ele><time>2026-05-05T08:15:58.211Z</time></trkpt><trkpt lat="53.2464517" lon="-6.60006"><ele>95.0</ele><time>2026-05-05T08:15:59.212Z</time></trkpt><trkpt lat="53.246305" lon="-6.60042"><ele>95.0</ele><time>2026-05-05T08:16:00.211Z</time></trkpt><trkpt lat="53.2461667" lon="-6.60078"><ele>95.0</ele><time>2026-05-05T08:16:01.212Z</time></trkpt><trkpt lat="53.246035" lon="-6.6011367"><ele>93.5</ele><time>2026-05-05T08:16:02.212Z</time></trkpt><trkpt lat="53.2458933" lon="-6.601495"><ele>92.0</ele><time>2026-05-05T08:16:03.212Z</time></trkpt><trkpt lat="53.2457533" lon="-6.6018417"><ele>93.0</ele><time>2026-05-05T08:16:04.211Z</time></trkpt><trkpt lat="53.245615" lon="-6.6021833"><ele>94.0</ele><time>2026-05-05T08:16:05.211Z</time></trkpt><trkpt lat="53.24548" lon="-6.6025083"><ele>94.0</ele><time>2026-05-05T08:16:06.211Z</time></trkpt><trkpt lat="53.2453517" lon="-6.602825"><ele>94.0</ele><time>2026-05-05T08:16:07.212Z</time></trkpt><trkpt lat="53.2452183" lon="-6.6031283"><ele>93.5</ele><time>2026-05-05T08:16:08.211Z</time></trkpt><trkpt lat="53.24509" lon="-6.6034483"><ele>93.0</ele><time>2026-05-05T08:16:09.211Z</time></trkpt><trkpt lat="53.2449617" lon="-6.6037717"><ele>92.5</ele><time>2026-05-05T08:16:10.212Z</time></trkpt><trkpt lat="53.2448233" lon="-6.6041067"><ele>92.0</ele><time>2026-05-05T08:16:11.211Z</time></trkpt><trkpt lat="53.24469" lon="-6.6044267"><ele>92.5</ele><time>2026-05-05T08:16:12.212Z</time></trkpt><trkpt lat="53.244555" lon="-6.6047533"><ele>93.0</ele><time>2026-05-05T08:16:13.212Z</time></trkpt><trkpt lat="53.2444267" lon="-6.6050883"><ele>93.0</ele><time>2026-05-05T08:16:14.211Z</time></trkpt><trkpt lat="53.2443033" lon="-6.6054133"><ele>93.0</ele><time>2026-05-05T08:16:15.211Z</time></trkpt><trkpt lat="53.2441833" lon="-6.60574"><ele>93.0</ele><time>2026-05-05T08:16:16.212Z</time></trkpt><trkpt lat="53.2440633" lon="-6.6060683"><ele>93.0</ele><time>2026-05-05T08:16:17.211Z</time></trkpt><trkpt lat="53.2439367" lon="-6.6063867"><ele>92.5</ele><time>2026-05-05T08:16:18.211Z</time></trkpt><trkpt lat="53.243805" lon="-6.6067067"><ele>92.0</ele><time>2026-05-05T08:16:19.212Z</time></trkpt><trkpt lat="53.24367" lon="-6.607055"><ele>92.0</ele><time>2026-05-05T08:16:20.212Z</time></trkpt><trkpt lat="53.2435367" lon="-6.6074117"><ele>92.0</ele><time>2026-05-05T08:16:21.211Z</time></trkpt><trkpt lat="53.2434" lon="-6.6077617"><ele>92.0</ele><time>2026-05-05T08:16:22.212Z</time></trkpt><trkpt lat="53.2432617" lon="-6.608105"><ele>92.0</ele><time>2026-05-05T08:16:23.212Z</time></trkpt><trkpt lat="53.2431267" lon="-6.6084433"><ele>91.5</ele><time>2026-05-05T08:16:24.211Z</time></trkpt><trkpt lat="53.2429883" lon="-6.608785"><ele>91.0</ele><time>2026-05-05T08:16:25.212Z</time></trkpt><trkpt lat="53.242845" lon="-6.6091267"><ele>91.0</ele><time>2026-05-05T08:16:26.211Z</time></trkpt><trkpt lat="53.2427033" lon="-6.6094817"><ele>91.0</ele><time>2026-05-05T08:16:27.211Z</time></trkpt><trkpt lat="53.2425633" lon="-6.6098467"><ele>91.0</ele><time>2026-05-05T08:16:28.212Z</time></trkpt><trkpt lat="53.2424317" lon="-6.610205"><ele>91.0</ele><time>2026-05-05T08:16:29.211Z</time></trkpt><trkpt lat="53.24229" lon="-6.6105817"><ele>91.0</ele><time>2026-05-05T08:16:30.211Z</time></trkpt><trkpt lat="53.2421483" lon="-6.6109567"><ele>91.0</ele><time>2026-05-05T08:16:31.211Z</time></trkpt><trkpt lat="53.2420033" lon="-6.6113433"><ele>90.0</ele><time>2026-05-05T08:16:32.212Z</time></trkpt><trkpt lat="53.2418567" lon="-6.6117383"><ele>89.0</ele><time>2026-05-05T08:16:33.211Z</time></trkpt><trkpt lat="53.241705" lon="-6.6121433"><ele>89.0</ele><time>2026-05-05T08:16:34.212Z</time></trkpt><trkpt lat="53.2415267" lon="-6.6125417"><ele>89.0</ele><time>2026-05-05T08:16:35.212Z</time></trkpt><trkpt lat="53.2413617" lon="-6.6129317"><ele>89.0</ele><time>2026-05-05T08:16:36.212Z</time></trkpt><trkpt lat="53.2411967" lon="-6.6133333"><ele>89.0</ele><time>2026-05-05T08:16:37.212Z</time></trkpt><trkpt lat="53.241035" lon="-6.6137267"><ele>89.0</ele><time>2026-05-05T08:16:38.212Z</time></trkpt><trkpt lat="53.2408883" lon="-6.6141333"><ele>89.0</ele><time>2026-05-05T08:16:39.212Z</time></trkpt><trkpt lat="53.2407217" lon="-6.61453"><ele>89.5</ele><time>2026-05-05T08:16:40.211Z</time></trkpt><trkpt lat="53.24056" lon="-6.614925"><ele>90.0</ele><time>2026-05-05T08:16:41.212Z</time></trkpt><trkpt lat="53.2403967" lon="-6.6153067"><ele>90.0</ele><time>2026-05-05T08:16:42.212Z</time></trkpt><trkpt lat="53.24025" lon="-6.6156967"><ele>90.0</ele><time>2026-05-05T08:16:43.211Z</time></trkpt><trkpt lat="53.2401033" lon="-6.616085"><ele>90.5</ele><time>2026-05-05T08:16:44.212Z</time></trkpt><trkpt lat="53.23996" lon="-6.6164733"><ele>91.0</ele><time>2026-05-05T08:16:45.211Z</time></trkpt><trkpt lat="53.239805" lon="-6.6168583"><ele>92.0</ele><time>2026-05-05T08:16:46.212Z</time></trkpt><trkpt lat="53.239665" lon="-6.6172317"><ele>93.0</ele><time>2026-05-05T08:16:47.212Z</time></trkpt><trkpt lat="53.2395167" lon="-6.6175967"><ele>94.0</ele><time>2026-05-05T08:16:48.212Z</time></trkpt><trkpt lat="53.2393633" lon="-6.6179717"><ele>95.0</ele><time>2026-05-05T08:16:49.211Z</time></trkpt><trkpt lat="53.2392217" lon="-6.6183467"><ele>96.0</ele><time>2026-05-05T08:16:50.212Z</time></trkpt><trkpt lat="53.2390817" lon="-6.6187217"><ele>97.0</ele><time>2026-05-05T08:16:51.211Z</time></trkpt><trkpt lat="53.2389467" lon="-6.6191033"><ele>96.5</ele><time>2026-05-05T08:16:52.211Z</time></trkpt><trkpt lat="53.2388" lon="-6.6194883"><ele>96.0</ele><time>2026-05-05T08:16:53.212Z</time></trkpt><trkpt lat="53.2386583" lon="-6.6198633"><ele>96.0</ele><time>2026-05-05T08:16:54.212Z</time></trkpt><trkpt lat="53.238515" lon="-6.6202233"><ele>96.0</ele><time>2026-05-05T08:16:55.212Z</time></trkpt><trkpt lat="53.238375" lon="-6.6206017"><ele>96.0</ele><time>2026-05-05T08:16:56.211Z</time></trkpt><trkpt lat="53.23821" lon="-6.6209617"><ele>96.0</ele><time>2026-05-05T08:16:57.212Z</time></trkpt><trkpt lat="53.23805" lon="-6.62132"><ele>92.5</ele><time>2026-05-05T08:16:58.211Z</time></trkpt><trkpt lat="53.237905" lon="-6.6216917"><ele>89.0</ele><time>2026-05-05T08:16:59.211Z</time></trkpt><trkpt lat="53.23776" lon="-6.6220767"><ele>88.0</ele><time>2026-05-05T08:17:00.212Z</time></trkpt><trkpt lat="53.23763" lon="-6.62246"><ele>87.0</ele><time>2026-05-05T08:17:01.212Z</time></trkpt><trkpt lat="53.2374833" lon="-6.62284"><ele>86.0</ele><time>2026-05-05T08:17:02.212Z</time></trkpt><trkpt lat="53.237315" lon="-6.623215"><ele>85.0</ele><time>2026-05-05T08:17:03.212Z</time></trkpt><trkpt lat="53.23716" lon="-6.623575"><ele>85.0</ele><time>2026-05-05T08:17:04.212Z</time></trkpt><trkpt lat="53.2370133" lon="-6.62393"><ele>85.0</ele><time>2026-05-05T08:17:05.211Z</time></trkpt><trkpt lat="53.2368683" lon="-6.6243033"><ele>83.5</ele><time>2026-05-05T08:17:06.212Z</time></trkpt><trkpt lat="53.2367233" lon="-6.6246767"><ele>82.0</ele><time>2026-05-05T08:17:07.212Z</time></trkpt><trkpt lat="53.236555" lon="-6.6250267"><ele>83.0</ele><time>2026-05-05T08:17:08.212Z</time></trkpt><trkpt lat="53.236435" lon="-6.6253717"><ele>84.0</ele><time>2026-05-05T08:17:09.212Z</time></trkpt><trkpt lat="53.23629" lon="-6.6257167"><ele>84.0</ele><time>2026-05-05T08:17:10.212Z</time></trkpt><trkpt lat="53.2361533" lon="-6.62606"><ele>84.0</ele><time>2026-05-05T08:17:11.211Z</time></trkpt><trkpt lat="53.23602" lon="-6.62641"><ele>84.5</ele><time>2026-05-05T08:17:12.212Z</time></trkpt><trkpt lat="53.2358967" lon="-6.6267817"><ele>85.0</ele><time>2026-05-05T08:17:13.211Z</time></trkpt><trkpt lat="53.2357683" lon="-6.6271533"><ele>85.0</ele><time>2026-05-05T08:17:14.211Z</time></trkpt><trkpt lat="53.2356383" lon="-6.6275367"><ele>85.0</ele><time>2026-05-05T08:17:15.212Z</time></trkpt><trkpt lat="53.23551" lon="-6.6279217"><ele>87.5</ele><time>2026-05-05T08:17:16.211Z</time></trkpt><trkpt lat="53.2353867" lon="-6.6282967"><ele>90.0</ele><time>2026-05-05T08:17:17.212Z</time></trkpt><trkpt lat="53.23526" lon="-6.62866"><ele>90.5</ele><time>2026-05-05T08:17:18.212Z</time></trkpt><trkpt lat="53.2351533" lon="-6.6290283"><ele>91.0</ele><time>2026-05-05T08:17:19.212Z</time></trkpt><trkpt lat="53.2350583" lon="-6.6294017"><ele>91.0</ele><time>2026-05-05T08:17:20.212Z</time></trkpt><trkpt lat="53.2349683" lon="-6.629795"><ele>91.0</ele><time>2026-05-05T08:17:21.211Z</time></trkpt><trkpt lat="53.2348833" lon="-6.6301833"><ele>92.0</ele><time>2026-05-05T08:17:22.211Z</time></trkpt><trkpt lat="53.2348067" lon="-6.6306033"><ele>93.0</ele><time>2026-05-05T08:17:23.212Z</time></trkpt><trkpt lat="53.234755" lon="-6.6310383"><ele>91.0</ele><time>2026-05-05T08:17:24.212Z</time></trkpt><trkpt lat="53.23472" lon="-6.6314917"><ele>89.0</ele><time>2026-05-05T08:17:25.211Z</time></trkpt><trkpt lat="53.23469" lon="-6.6319483"><ele>89.0</ele><time>2026-05-05T08:17:26.212Z</time></trkpt><trkpt lat="53.23467" lon="-6.6324133"><ele>89.0</ele><time>2026-05-05T08:17:27.212Z</time></trkpt><trkpt lat="53.2346683" lon="-6.632875"><ele>88.5</ele><time>2026-05-05T08:17:28.212Z</time></trkpt><trkpt lat="53.2346817" lon="-6.633345"><ele>88.0</ele><time>2026-05-05T08:17:29.211Z</time></trkpt><trkpt lat="53.23471" lon="-6.6337983"><ele>88.0</ele><time>2026-05-05T08:17:30.211Z</time></trkpt><trkpt lat="53.23476" lon="-6.634275"><ele>88.0</ele><time>2026-05-05T08:17:31.211Z</time></trkpt><trkpt lat="53.2348033" lon="-6.6347417"><ele>88.0</ele><time>2026-05-05T08:17:32.211Z</time></trkpt><trkpt lat="53.2348567" lon="-6.6352083"><ele>88.0</ele><time>2026-05-05T08:17:33.212Z</time></trkpt><trkpt lat="53.234925" lon="-6.6356583"><ele>87.5</ele><time>2026-05-05T08:17:34.212Z</time></trkpt><trkpt lat="53.2350017" lon="-6.6361033"><ele>87.0</ele><time>2026-05-05T08:17:35.211Z</time></trkpt><trkpt lat="53.2350833" lon="-6.6365333"><ele>87.0</ele><time>2026-05-05T08:17:36.212Z</time></trkpt><trkpt lat="53.23517" lon="-6.6369367"><ele>87.0</ele><time>2026-05-05T08:17:37.212Z</time></trkpt><trkpt lat="53.2352633" lon="-6.63727"><ele>87.0</ele><time>2026-05-05T08:17:38.212Z</time></trkpt><trkpt lat="53.2353683" lon="-6.6376117"><ele>87.0</ele><time>2026-05-05T08:17:39.212Z</time></trkpt><trkpt lat="53.23549" lon="-6.6379617"><ele>86.5</ele><time>2026-05-05T08:17:40.212Z</time></trkpt><trkpt lat="53.2356033" lon="-6.6383167"><ele>86.0</ele><time>2026-05-05T08:17:41.211Z</time></trkpt><trkpt lat="53.2357183" lon="-6.6386617"><ele>85.5</ele><time>2026-05-05T08:17:42.212Z</time></trkpt><trkpt lat="53.23586" lon="-6.63901"><ele>85.0</ele><time>2026-05-05T08:17:43.212Z</time></trkpt><trkpt lat="53.236005" lon="-6.6393783"><ele>84.5</ele><time>2026-05-05T08:17:44.211Z</time></trkpt><trkpt lat="53.2361583" lon="-6.6397217"><ele>84.0</ele><time>2026-05-05T08:17:45.212Z</time></trkpt><trkpt lat="53.2363183" lon="-6.6400567"><ele>84.0</ele><time>2026-05-05T08:17:46.211Z</time></trkpt><trkpt lat="53.236485" lon="-6.6404067"><ele>84.0</ele><time>2026-05-05T08:17:47.212Z</time></trkpt><trkpt lat="53.2366583" lon="-6.6407483"><ele>84.0</ele><time>2026-05-05T08:17:48.212Z</time></trkpt><trkpt lat="53.2368283" lon="-6.6410933"><ele>84.0</ele><time>2026-05-05T08:17:49.211Z</time></trkpt><trkpt lat="53.2370133" lon="-6.641435"><ele>84.0</ele><time>2026-05-05T08:17:50.212Z</time></trkpt><trkpt lat="53.2371933" lon="-6.6417983"><ele>84.0</ele><time>2026-05-05T08:17:51.212Z</time></trkpt><trkpt lat="53.23738" lon="-6.6421667"><ele>84.5</ele><time>2026-05-05T08:17:52.212Z</time></trkpt><trkpt lat="53.2375567" lon="-6.6425117"><ele>85.0</ele><time>2026-05-05T08:17:53.212Z</time></trkpt><trkpt lat="53.23774" lon="-6.6428617"><ele>85.5</ele><time>2026-05-05T08:17:54.211Z</time></trkpt><trkpt lat="53.237915" lon="-6.6432167"><ele>86.0</ele><time>2026-05-05T08:17:55.211Z</time></trkpt><trkpt lat="53.2381" lon="-6.6435833"><ele>85.0</ele><time>2026-05-05T08:17:56.212Z</time></trkpt><trkpt lat="53.2382733" lon="-6.6439417"><ele>84.0</ele><time>2026-05-05T08:17:57.211Z</time></trkpt><trkpt lat="53.2384467" lon="-6.6443"><ele>83.5</ele><time>2026-05-05T08:17:58.211Z</time></trkpt><trkpt lat="53.2386233" lon="-6.6446617"><ele>83.0</ele><time>2026-05-05T08:17:59.212Z</time></trkpt><trkpt lat="53.2387967" lon="-6.6450283"><ele>84.0</ele><time>2026-05-05T08:18:00.212Z</time></trkpt><trkpt lat="53.2389767" lon="-6.6453967"><ele>85.0</ele><time>2026-05-05T08:18:01.212Z</time></trkpt><trkpt lat="53.2391567" lon="-6.6457467"><ele>85.0</ele><time>2026-05-05T08:18:02.212Z</time></trkpt><trkpt lat="53.2393583" lon="-6.6461183"><ele>85.0</ele><time>2026-05-05T08:18:03.211Z</time></trkpt><trkpt lat="53.2395383" lon="-6.6464967"><ele>84.0</ele><time>2026-05-05T08:18:04.211Z</time></trkpt><trkpt lat="53.2397417" lon="-6.6468983"><ele>83.0</ele><time>2026-05-05T08:18:05.211Z</time></trkpt><trkpt lat="53.239925" lon="-6.6473"><ele>83.0</ele><time>2026-05-05T08:18:06.212Z</time></trkpt><trkpt lat="53.2400917" lon="-6.6477"><ele>83.0</ele><time>2026-05-05T08:18:07.212Z</time></trkpt><trkpt lat="53.240235" lon="-6.64809"><ele>83.0</ele><time>2026-05-05T08:18:08.212Z</time></trkpt><trkpt lat="53.24038" lon="-6.6484817"><ele>83.0</ele><time>2026-05-05T08:18:09.211Z</time></trkpt><trkpt lat="53.240515" lon="-6.6488817"><ele>83.0</ele><time>2026-05-05T08:18:10.211Z</time></trkpt><trkpt lat="53.2406433" lon="-6.6492883"><ele>83.0</ele><time>2026-05-05T08:18:11.212Z</time></trkpt><trkpt lat="53.240775" lon="-6.6497067"><ele>83.0</ele><time>2026-05-05T08:18:12.212Z</time></trkpt><trkpt lat="53.2408933" lon="-6.6501233"><ele>83.0</ele><time>2026-05-05T08:18:13.212Z</time></trkpt><trkpt lat="53.2410117" lon="-6.650555"><ele>83.5</ele><time>2026-05-05T08:18:14.212Z</time></trkpt><trkpt lat="53.2411167" lon="-6.65099"><ele>84.0</ele><time>2026-05-05T08:18:15.211Z</time></trkpt><trkpt lat="53.2412117" lon="-6.6514383"><ele>84.0</ele><time>2026-05-05T08:18:16.211Z</time></trkpt><trkpt lat="53.241305" lon="-6.65189"><ele>84.0</ele><time>2026-05-05T08:18:17.212Z</time></trkpt><trkpt lat="53.2413867" lon="-6.6523417"><ele>83.5</ele><time>2026-05-05T08:18:18.211Z</time></trkpt><trkpt lat="53.2414667" lon="-6.6528117"><ele>83.0</ele><time>2026-05-05T08:18:19.212Z</time></trkpt><trkpt lat="53.2415467" lon="-6.6533183"><ele>82.5</ele><time>2026-05-05T08:18:20.211Z</time></trkpt><trkpt lat="53.24162" lon="-6.653845"><ele>82.0</ele><time>2026-05-05T08:18:21.211Z</time></trkpt><trkpt lat="53.241675" lon="-6.654375"><ele>82.0</ele><time>2026-05-05T08:18:22.212Z</time></trkpt><trkpt lat="53.2417233" lon="-6.6549083"><ele>82.0</ele><time>2026-05-05T08:18:23.211Z</time></trkpt><trkpt lat="53.2417567" lon="-6.6554367"><ele>81.0</ele><time>2026-05-05T08:18:24.211Z</time></trkpt><trkpt lat="53.2417817" lon="-6.6559733"><ele>80.0</ele><time>2026-05-05T08:18:25.212Z</time></trkpt><trkpt lat="53.2417933" lon="-6.6565167"><ele>80.0</ele><time>2026-05-05T08:18:26.211Z</time></trkpt><trkpt lat="53.2418117" lon="-6.6570383"><ele>80.0</ele><time>2026-05-05T08:18:27.212Z</time></trkpt><trkpt lat="53.2418183" lon="-6.65756"><ele>79.5</ele><time>2026-05-05T08:18:28.212Z</time></trkpt><trkpt lat="53.2418083" lon="-6.6580717"><ele>79.0</ele><time>2026-05-05T08:18:29.212Z</time></trkpt><trkpt lat="53.2417833" lon="-6.6585983"><ele>78.5</ele><time>2026-05-05T08:18:30.212Z</time></trkpt><trkpt lat="53.24176" lon="-6.6591017"><ele>78.0</ele><time>2026-05-05T08:18:31.212Z</time></trkpt><trkpt lat="53.2417133" lon="-6.6596383"><ele>78.0</ele><time>2026-05-05T08:18:32.212Z</time></trkpt><trkpt lat="53.2416517" lon="-6.6601683"><ele>78.0</ele><time>2026-05-05T08:18:33.211Z</time></trkpt><trkpt lat="53.2415883" lon="-6.660665"><ele>78.5</ele><time>2026-05-05T08:18:34.212Z</time></trkpt><trkpt lat="53.24152" lon="-6.6611633"><ele>79.0</ele><time>2026-05-05T08:18:35.212Z</time></trkpt><trkpt lat="53.2414367" lon="-6.6616533"><ele>80.5</ele><time>2026-05-05T08:18:36.212Z</time></trkpt><trkpt lat="53.24135" lon="-6.6621317"><ele>82.0</ele><time>2026-05-05T08:18:37.212Z</time></trkpt><trkpt lat="53.24125" lon="-6.6626167"><ele>82.0</ele><time>2026-05-05T08:18:38.211Z</time></trkpt><trkpt lat="53.2411517" lon="-6.6630983"><ele>82.0</ele><time>2026-05-05T08:18:39.212Z</time></trkpt><trkpt lat="53.2410433" lon="-6.6635783"><ele>82.0</ele><time>2026-05-05T08:18:40.211Z</time></trkpt><trkpt lat="53.2409383" lon="-6.6640283"><ele>82.0</ele><time>2026-05-05T08:18:41.211Z</time></trkpt><trkpt lat="53.2408083" lon="-6.6644783"><ele>81.5</ele><time>2026-05-05T08:18:42.212Z</time></trkpt><trkpt lat="53.24066" lon="-6.6649417"><ele>81.0</ele><time>2026-05-05T08:18:43.211Z</time></trkpt><trkpt lat="53.2404967" lon="-6.6653933"><ele>81.0</ele><time>2026-05-05T08:18:44.212Z</time></trkpt><trkpt lat="53.2403583" lon="-6.6658217"><ele>81.0</ele><time>2026-05-05T08:18:45.212Z</time></trkpt><trkpt lat="53.2402033" lon="-6.66626"><ele>81.0</ele><time>2026-05-05T08:18:46.211Z</time></trkpt><trkpt lat="53.240045" lon="-6.666715"><ele>81.0</ele><time>2026-05-05T08:18:47.212Z</time></trkpt><trkpt lat="53.2399133" lon="-6.6671517"><ele>81.5</ele><time>2026-05-05T08:18:48.211Z</time></trkpt><trkpt lat="53.2397667" lon="-6.6676"><ele>82.0</ele><time>2026-05-05T08:18:49.212Z</time></trkpt><trkpt lat="53.2396217" lon="-6.6680467"><ele>82.0</ele><time>2026-05-05T08:18:50.212Z</time></trkpt><trkpt lat="53.2394917" lon="-6.6684983"><ele>82.0</ele><time>2026-05-05T08:18:51.212Z</time></trkpt><trkpt lat="53.2393533" lon="-6.6689533"><ele>82.0</ele><time>2026-05-05T08:18:52.212Z</time></trkpt><trkpt lat="53.239235" lon="-6.6693867"><ele>82.0</ele><time>2026-05-05T08:18:53.211Z</time></trkpt><trkpt lat="53.2391117" lon="-6.6698083"><ele>82.0</ele><time>2026-05-05T08:18:54.212Z</time></trkpt><trkpt lat="53.23897" lon="-6.6702083"><ele>82.0</ele><time>2026-05-05T08:18:55.211Z</time></trkpt><trkpt lat="53.2388617" lon="-6.6706217"><ele>81.0</ele><time>2026-05-05T08:18:56.212Z</time></trkpt><trkpt lat="53.2387433" lon="-6.6710217"><ele>80.0</ele><time>2026-05-05T08:18:57.211Z</time></trkpt><trkpt lat="53.238625" lon="-6.6714233"><ele>80.0</ele><time>2026-05-05T08:18:58.212Z</time></trkpt><trkpt lat="53.2384967" lon="-6.6718333"><ele>80.0</ele><time>2026-05-05T08:18:59.212Z</time></trkpt><trkpt lat="53.2383883" lon="-6.6722417"><ele>80.0</ele><time>2026-05-05T08:19:00.211Z</time></trkpt><trkpt lat="53.2382783" lon="-6.67264"><ele>80.0</ele><time>2026-05-05T08:19:01.212Z</time></trkpt><trkpt lat="53.2381533" lon="-6.6730333"><ele>80.0</ele><time>2026-05-05T08:19:02.212Z</time></trkpt><trkpt lat="53.2380267" lon="-6.67343"><ele>80.0</ele><time>2026-05-05T08:19:03.212Z</time></trkpt><trkpt lat="53.2379017" lon="-6.6738367"><ele>80.0</ele><time>2026-05-05T08:19:04.212Z</time></trkpt><trkpt lat="53.2377733" lon="-6.6742433"><ele>80.0</ele><time>2026-05-05T08:19:05.212Z</time></trkpt><trkpt lat="53.2376467" lon="-6.674655"><ele>79.5</ele><time>2026-05-05T08:19:06.212Z</time></trkpt><trkpt lat="53.2375183" lon="-6.675065"><ele>79.0</ele><time>2026-05-05T08:19:07.212Z</time></trkpt><trkpt lat="53.2373883" lon="-6.675485"><ele>79.0</ele><time>2026-05-05T08:19:08.212Z</time></trkpt><trkpt lat="53.2372567" lon="-6.6759267"><ele>79.0</ele><time>2026-05-05T08:19:09.211Z</time></trkpt><trkpt lat="53.2371133" lon="-6.676385"><ele>79.0</ele><time>2026-05-05T08:19:10.212Z</time></trkpt><trkpt lat="53.2369717" lon="-6.6768533"><ele>79.0</ele><time>2026-05-05T08:19:11.211Z</time></trkpt><trkpt lat="53.2368267" lon="-6.6773067"><ele>79.0</ele><time>2026-05-05T08:19:12.212Z</time></trkpt><trkpt lat="53.2366833" lon="-6.6777633"><ele>79.0</ele><time>2026-05-05T08:19:13.211Z</time></trkpt><trkpt lat="53.23654" lon="-6.67823"><ele>78.0</ele><time>2026-05-05T08:19:14.212Z</time></trkpt><trkpt lat="53.2363867" lon="-6.6787083"><ele>77.0</ele><time>2026-05-05T08:19:15.211Z</time></trkpt><trkpt lat="53.2362233" lon="-6.6791883"><ele>77.0</ele><time>2026-05-05T08:19:16.211Z</time></trkpt><trkpt lat="53.2360617" lon="-6.67965"><ele>77.0</ele><time>2026-05-05T08:19:17.212Z</time></trkpt><trkpt lat="53.2358867" lon="-6.68012"><ele>77.0</ele><time>2026-05-05T08:19:18.212Z</time></trkpt><trkpt lat="53.2357117" lon="-6.6805783"><ele>77.0</ele><time>2026-05-05T08:19:19.211Z</time></trkpt><trkpt lat="53.2355433" lon="-6.6810267"><ele>76.5</ele><time>2026-05-05T08:19:20.212Z</time></trkpt><trkpt lat="53.23538" lon="-6.6814783"><ele>76.0</ele><time>2026-05-05T08:19:21.212Z</time></trkpt><trkpt lat="53.235225" lon="-6.6819183"><ele>76.5</ele><time>2026-05-05T08:19:22.212Z</time></trkpt><trkpt lat="53.2350567" lon="-6.6823433"><ele>77.0</ele><time>2026-05-05T08:19:23.211Z</time></trkpt><trkpt lat="53.23488" lon="-6.6827717"><ele>77.5</ele><time>2026-05-05T08:19:24.211Z</time></trkpt><trkpt lat="53.2346967" lon="-6.6831833"><ele>78.0</ele><time>2026-05-05T08:19:25.211Z</time></trkpt><trkpt lat="53.2345217" lon="-6.6835867"><ele>77.5</ele><time>2026-05-05T08:19:26.212Z</time></trkpt><trkpt lat="53.2343433" lon="-6.6839983"><ele>77.0</ele><time>2026-05-05T08:19:27.212Z</time></trkpt><trkpt lat="53.234165" lon="-6.684405"><ele>77.5</ele><time>2026-05-05T08:19:28.211Z</time></trkpt><trkpt lat="53.23398" lon="-6.6848183"><ele>78.0</ele><time>2026-05-05T08:19:29.211Z</time></trkpt><trkpt lat="53.2337917" lon="-6.6852417"><ele>77.5</ele><time>2026-05-05T08:19:30.212Z</time></trkpt><trkpt lat="53.233615" lon="-6.6856533"><ele>77.0</ele><time>2026-05-05T08:19:31.212Z</time></trkpt><trkpt lat="53.2334183" lon="-6.6860567"><ele>76.5</ele><time>2026-05-05T08:19:32.211Z</time></trkpt><trkpt lat="53.2332267" lon="-6.68644"><ele>76.0</ele><time>2026-05-05T08:19:33.212Z</time></trkpt><trkpt lat="53.23302" lon="-6.686825"><ele>78.0</ele><time>2026-05-05T08:19:34.212Z</time></trkpt><trkpt lat="53.23283" lon="-6.6872017"><ele>80.0</ele><time>2026-05-05T08:19:35.212Z</time></trkpt><trkpt lat="53.232635" lon="-6.687575"><ele>80.0</ele><time>2026-05-05T08:19:36.211Z</time></trkpt><trkpt lat="53.2324317" lon="-6.6879383"><ele>80.0</ele><time>2026-05-05T08:19:37.211Z</time></trkpt><trkpt lat="53.23223" lon="-6.6882817"><ele>79.5</ele><time>2026-05-05T08:19:38.212Z</time></trkpt><trkpt lat="53.2320267" lon="-6.6886317"><ele>79.0</ele><time>2026-05-05T08:19:39.212Z</time></trkpt><trkpt lat="53.231825" lon="-6.688975"><ele>79.0</ele><time>2026-05-05T08:19:40.211Z</time></trkpt><trkpt lat="53.2316133" lon="-6.6893267"><ele>79.0</ele><time>2026-05-05T08:19:41.212Z</time></trkpt><trkpt lat="53.2313983" lon="-6.6896617"><ele>79.0</ele><time>2026-05-05T08:19:42.211Z</time></trkpt><trkpt lat="53.2311783" lon="-6.6900017"><ele>79.0</ele><time>2026-05-05T08:19:43.212Z</time></trkpt><trkpt lat="53.23096" lon="-6.6903383"><ele>79.0</ele><time>2026-05-05T08:19:44.212Z</time></trkpt><trkpt lat="53.230735" lon="-6.6906717"><ele>79.0</ele><time>2026-05-05T08:19:45.212Z</time></trkpt><trkpt lat="53.2305117" lon="-6.6910017"><ele>79.0</ele><time>2026-05-05T08:19:46.212Z</time></trkpt><trkpt lat="53.2302883" lon="-6.6913317"><ele>79.0</ele><time>2026-05-05T08:19:47.212Z</time></trkpt><trkpt lat="53.230055" lon="-6.6916567"><ele>79.0</ele><time>2026-05-05T08:19:48.212Z</time></trkpt><trkpt lat="53.2298167" lon="-6.691975"><ele>79.0</ele><time>2026-05-05T08:19:49.212Z</time></trkpt><trkpt lat="53.2295783" lon="-6.692285"><ele>79.0</ele><time>2026-05-05T08:19:50.212Z</time></trkpt><trkpt lat="53.2293383" lon="-6.692595"><ele>79.0</ele><time>2026-05-05T08:19:51.212Z</time></trkpt><trkpt lat="53.2290967" lon="-6.6928867"><ele>79.0</ele><time>2026-05-05T08:19:52.211Z</time></trkpt><trkpt lat="53.22885" lon="-6.6931867"><ele>79.0</ele><time>2026-05-05T08:19:53.212Z</time></trkpt><trkpt lat="53.2286067" lon="-6.6934867"><ele>79.5</ele><time>2026-05-05T08:19:54.212Z</time></trkpt><trkpt lat="53.2283533" lon="-6.6937833"><ele>80.0</ele><time>2026-05-05T08:19:55.212Z</time></trkpt><trkpt lat="53.228105" lon="-6.6940717"><ele>80.0</ele><time>2026-05-05T08:19:56.211Z</time></trkpt><trkpt lat="53.2278567" lon="-6.6943483"><ele>80.0</ele><time>2026-05-05T08:19:57.211Z</time></trkpt><trkpt lat="53.2275983" lon="-6.6946383"><ele>80.0</ele><time>2026-05-05T08:19:58.212Z</time></trkpt><trkpt lat="53.2273517" lon="-6.6949167"><ele>80.0</ele><time>2026-05-05T08:19:59.212Z</time></trkpt><trkpt lat="53.2271067" lon="-6.6951967"><ele>80.0</ele><time>2026-05-05T08:20:00.212Z</time></trkpt><trkpt lat="53.2268617" lon="-6.6954783"><ele>80.0</ele><time>2026-05-05T08:20:01.211Z</time></trkpt><trkpt lat="53.2266067" lon="-6.6957167"><ele>80.0</ele><time>2026-05-05T08:20:02.211Z</time></trkpt><trkpt lat="53.22636" lon="-6.6959583"><ele>80.0</ele><time>2026-05-05T08:20:03.212Z</time></trkpt><trkpt lat="53.2261083" lon="-6.696205"><ele>80.0</ele><time>2026-05-05T08:20:04.211Z</time></trkpt><trkpt lat="53.2258483" lon="-6.6964533"><ele>80.0</ele><time>2026-05-05T08:20:05.212Z</time></trkpt><trkpt lat="53.2255917" lon="-6.6966917"><ele>80.0</ele><time>2026-05-05T08:20:06.211Z</time></trkpt><trkpt lat="53.225325" lon="-6.6969183"><ele>80.0</ele><time>2026-05-05T08:20:07.212Z</time></trkpt><trkpt lat="53.2250617" lon="-6.697135"><ele>80.5</ele><time>2026-05-05T08:20:08.212Z</time></trkpt><trkpt lat="53.2247883" lon="-6.6973317"><ele>81.0</ele><time>2026-05-05T08:20:09.212Z</time></trkpt><trkpt lat="53.224515" lon="-6.6975583"><ele>80.5</ele><time>2026-05-05T08:20:10.212Z</time></trkpt><trkpt lat="53.22424" lon="-6.6977917"><ele>80.0</ele><time>2026-05-05T08:20:11.212Z</time></trkpt><trkpt lat="53.2239667" lon="-6.6980133"><ele>81.0</ele><time>2026-05-05T08:20:12.212Z</time></trkpt><trkpt lat="53.2236883" lon="-6.6982317"><ele>82.0</ele><time>2026-05-05T08:20:13.212Z</time></trkpt><trkpt lat="53.2233883" lon="-6.6984317"><ele>81.5</ele><time>2026-05-05T08:20:14.212Z</time></trkpt><trkpt lat="53.2230867" lon="-6.6986283"><ele>81.0</ele><time>2026-05-05T08:20:15.212Z</time></trkpt><trkpt lat="53.2227967" lon="-6.69882"><ele>81.0</ele><time>2026-05-05T08:20:16.211Z</time></trkpt><trkpt lat="53.2225033" lon="-6.69902"><ele>81.0</ele><time>2026-05-05T08:20:17.212Z</time></trkpt><trkpt lat="53.22221" lon="-6.6991967"><ele>82.0</ele><time>2026-05-05T08:20:18.212Z</time></trkpt><trkpt lat="53.22192" lon="-6.6993717"><ele>83.0</ele><time>2026-05-05T08:20:19.212Z</time></trkpt><trkpt lat="53.2216283" lon="-6.699535"><ele>81.5</ele><time>2026-05-05T08:20:20.212Z</time></trkpt><trkpt lat="53.2213283" lon="-6.6997"><ele>80.0</ele><time>2026-05-05T08:20:21.212Z</time></trkpt><trkpt lat="53.2210433" lon="-6.69987"><ele>80.0</ele><time>2026-05-05T08:20:22.212Z</time></trkpt><trkpt lat="53.22076" lon="-6.70004"><ele>80.0</ele><time>2026-05-05T08:20:23.211Z</time></trkpt><trkpt lat="53.2204783" lon="-6.70021"><ele>81.0</ele><time>2026-05-05T08:20:24.212Z</time></trkpt><trkpt lat="53.2201883" lon="-6.70038"><ele>82.0</ele><time>2026-05-05T08:20:25.213Z</time></trkpt><trkpt lat="53.2199033" lon="-6.7005433"><ele>82.0</ele><time>2026-05-05T08:20:26.212Z</time></trkpt><trkpt lat="53.219625" lon="-6.7007133"><ele>82.0</ele><time>2026-05-05T08:20:27.213Z</time></trkpt><trkpt lat="53.2193467" lon="-6.7008717"><ele>82.0</ele><time>2026-05-05T08:20:28.213Z</time></trkpt><trkpt lat="53.2190583" lon="-6.7010333"><ele>82.0</ele><time>2026-05-05T08:20:29.212Z</time></trkpt><trkpt lat="53.2187867" lon="-6.7011883"><ele>80.5</ele><time>2026-05-05T08:20:30.212Z</time></trkpt><trkpt lat="53.218515" lon="-6.70135"><ele>79.0</ele><time>2026-05-05T08:20:31.212Z</time></trkpt><trkpt lat="53.2182417" lon="-6.701505"><ele>80.5</ele><time>2026-05-05T08:20:32.213Z</time></trkpt><trkpt lat="53.2179733" lon="-6.701655"><ele>82.0</ele><time>2026-05-05T08:20:33.212Z</time></trkpt><trkpt lat="53.2176983" lon="-6.70181"><ele>81.0</ele><time>2026-05-05T08:20:34.213Z</time></trkpt><trkpt lat="53.2174217" lon="-6.701965"><ele>80.0</ele><time>2026-05-05T08:20:35.213Z</time></trkpt><trkpt lat="53.217145" lon="-6.7021367"><ele>79.5</ele><time>2026-05-05T08:20:36.213Z</time></trkpt><trkpt lat="53.2168633" lon="-6.702305"><ele>79.0</ele><time>2026-05-05T08:20:37.213Z</time></trkpt><trkpt lat="53.21658" lon="-6.7024717"><ele>79.5</ele><time>2026-05-05T08:20:38.212Z</time></trkpt><trkpt lat="53.2162967" lon="-6.7026383"><ele>80.0</ele><time>2026-05-05T08:20:39.213Z</time></trkpt><trkpt lat="53.2160217" lon="-6.7028"><ele>80.5</ele><time>2026-05-05T08:20:40.212Z</time></trkpt><trkpt lat="53.2157467" lon="-6.7029717"><ele>81.0</ele><time>2026-05-05T08:20:41.213Z</time></trkpt><trkpt lat="53.2154733" lon="-6.7031333"><ele>81.0</ele><time>2026-05-05T08:20:42.213Z</time></trkpt><trkpt lat="53.2152133" lon="-6.703295"><ele>81.0</ele><time>2026-05-05T08:20:43.212Z</time></trkpt><trkpt lat="53.2149483" lon="-6.7034433"><ele>82.5</ele><time>2026-05-05T08:20:44.213Z</time></trkpt><trkpt lat="53.214685" lon="-6.7036"><ele>84.0</ele><time>2026-05-05T08:20:45.212Z</time></trkpt><trkpt lat="53.2144283" lon="-6.7037583"><ele>84.0</ele><time>2026-05-05T08:20:46.213Z</time></trkpt><trkpt lat="53.2141567" lon="-6.7039083"><ele>84.0</ele><time>2026-05-05T08:20:47.213Z</time></trkpt><trkpt lat="53.2139017" lon="-6.704115"><ele>84.0</ele><time>2026-05-05T08:20:48.213Z</time></trkpt><trkpt lat="53.2136433" lon="-6.70433"><ele>84.0</ele><time>2026-05-05T08:20:49.213Z</time></trkpt><trkpt lat="53.21339" lon="-6.7045767"><ele>85.5</ele><time>2026-05-05T08:20:50.213Z</time></trkpt><trkpt lat="53.21314" lon="-6.70483"><ele>87.0</ele><time>2026-05-05T08:20:51.212Z</time></trkpt><trkpt lat="53.2128883" lon="-6.7050833"><ele>86.5</ele><time>2026-05-05T08:20:52.212Z</time></trkpt><trkpt lat="53.212635" lon="-6.7053367"><ele>86.0</ele><time>2026-05-05T08:20:53.213Z</time></trkpt><trkpt lat="53.2123967" lon="-6.705625"><ele>85.0</ele><time>2026-05-05T08:20:54.213Z</time></trkpt><trkpt lat="53.2121617" lon="-6.7059167"><ele>84.0</ele><time>2026-05-05T08:20:55.213Z</time></trkpt><trkpt lat="53.21195" lon="-6.7062367"><ele>84.0</ele><time>2026-05-05T08:20:56.213Z</time></trkpt><trkpt lat="53.2117383" lon="-6.70656"><ele>84.0</ele><time>2026-05-05T08:20:57.212Z</time></trkpt><trkpt lat="53.211525" lon="-6.7068883"><ele>84.0</ele><time>2026-05-05T08:20:58.212Z</time></trkpt><trkpt lat="53.2113233" lon="-6.7072283"><ele>84.0</ele><time>2026-05-05T08:20:59.213Z</time></trkpt><trkpt lat="53.2111267" lon="-6.707565"><ele>83.0</ele><time>2026-05-05T08:21:00.213Z</time></trkpt><trkpt lat="53.2109467" lon="-6.70792"><ele>82.0</ele><time>2026-05-05T08:21:01.213Z</time></trkpt><trkpt lat="53.210755" lon="-6.7082683"><ele>82.5</ele><time>2026-05-05T08:21:02.213Z</time></trkpt><trkpt lat="53.2105767" lon="-6.7086433"><ele>83.0</ele><time>2026-05-05T08:21:03.213Z</time></trkpt><trkpt lat="53.2103817" lon="-6.709015"><ele>83.0</ele><time>2026-05-05T08:21:04.213Z</time></trkpt><trkpt lat="53.2102033" lon="-6.7093817"><ele>83.0</ele><time>2026-05-05T08:21:05.212Z</time></trkpt><trkpt lat="53.2100267" lon="-6.7097567"><ele>82.5</ele><time>2026-05-05T08:21:06.212Z</time></trkpt><trkpt lat="53.2098533" lon="-6.7101267"><ele>82.0</ele><time>2026-05-05T08:21:07.213Z</time></trkpt><trkpt lat="53.20967" lon="-6.7104833"><ele>82.0</ele><time>2026-05-05T08:21:08.212Z</time></trkpt><trkpt lat="53.2094833" lon="-6.7108383"><ele>82.0</ele><time>2026-05-05T08:21:09.213Z</time></trkpt><trkpt lat="53.2092967" lon="-6.7111917"><ele>82.0</ele><time>2026-05-05T08:21:10.212Z</time></trkpt><trkpt lat="53.2091067" lon="-6.7115433"><ele>82.0</ele><time>2026-05-05T08:21:11.213Z</time></trkpt><trkpt lat="53.20892" lon="-6.711905"><ele>84.0</ele><time>2026-05-05T08:21:12.213Z</time></trkpt><trkpt lat="53.2087217" lon="-6.7122533"><ele>86.0</ele><time>2026-05-05T08:21:13.213Z</time></trkpt><trkpt lat="53.20853" lon="-6.71262"><ele>85.0</ele><time>2026-05-05T08:21:14.212Z</time></trkpt><trkpt lat="53.2083233" lon="-6.7129783"><ele>84.0</ele><time>2026-05-05T08:21:15.213Z</time></trkpt><trkpt lat="53.2081333" lon="-6.7133583"><ele>83.5</ele><time>2026-05-05T08:21:16.212Z</time></trkpt><trkpt lat="53.2079483" lon="-6.713735"><ele>83.0</ele><time>2026-05-05T08:21:17.213Z</time></trkpt><trkpt lat="53.2077533" lon="-6.714095"><ele>84.0</ele><time>2026-05-05T08:21:18.212Z</time></trkpt><trkpt lat="53.207555" lon="-6.714445"><ele>85.0</ele><time>2026-05-05T08:21:19.213Z</time></trkpt><trkpt lat="53.2073583" lon="-6.714785"><ele>85.0</ele><time>2026-05-05T08:21:20.212Z</time></trkpt><trkpt lat="53.2071417" lon="-6.7151167"><ele>85.0</ele><time>2026-05-05T08:21:21.213Z</time></trkpt><trkpt lat="53.20692" lon="-6.71544"><ele>85.0</ele><time>2026-05-05T08:21:22.213Z</time></trkpt><trkpt lat="53.206695" lon="-6.7157467"><ele>85.0</ele><time>2026-05-05T08:21:23.213Z</time></trkpt><trkpt lat="53.2064567" lon="-6.71605"><ele>86.0</ele><time>2026-05-05T08:21:24.213Z</time></trkpt><trkpt lat="53.2062017" lon="-6.7163433"><ele>87.0</ele><time>2026-05-05T08:21:25.212Z</time></trkpt><trkpt lat="53.2059583" lon="-6.7166267"><ele>87.0</ele><time>2026-05-05T08:21:26.213Z</time></trkpt><trkpt lat="53.2057117" lon="-6.7168933"><ele>87.0</ele><time>2026-05-05T08:21:27.212Z</time></trkpt><trkpt lat="53.20547" lon="-6.7171533"><ele>87.0</ele><time>2026-05-05T08:21:28.213Z</time></trkpt><trkpt lat="53.205235" lon="-6.717395"><ele>87.0</ele><time>2026-05-05T08:21:29.213Z</time></trkpt><trkpt lat="53.20499" lon="-6.71763"><ele>87.0</ele><time>2026-05-05T08:21:30.213Z</time></trkpt><trkpt lat="53.2047433" lon="-6.7178483"><ele>87.0</ele><time>2026-05-05T08:21:31.212Z</time></trkpt><trkpt lat="53.2044967" lon="-6.7180433"><ele>87.0</ele><time>2026-05-05T08:21:32.213Z</time></trkpt><trkpt lat="53.2042267" lon="-6.7182383"><ele>87.0</ele><time>2026-05-05T08:21:33.213Z</time></trkpt><trkpt lat="53.203955" lon="-6.71843"><ele>87.0</ele><time>2026-05-05T08:21:34.213Z</time></trkpt><trkpt lat="53.2036783" lon="-6.71862"><ele>87.0</ele><time>2026-05-05T08:21:35.213Z</time></trkpt><trkpt lat="53.2034033" lon="-6.7187967"><ele>87.0</ele><time>2026-05-05T08:21:36.213Z</time></trkpt><trkpt lat="53.2031267" lon="-6.7189567"><ele>87.0</ele><time>2026-05-05T08:21:37.213Z</time></trkpt><trkpt lat="53.2028483" lon="-6.7190967"><ele>87.0</ele><time>2026-05-05T08:21:38.213Z</time></trkpt><trkpt lat="53.2025633" lon="-6.719235"><ele>87.0</ele><time>2026-05-05T08:21:39.213Z</time></trkpt><trkpt lat="53.2022833" lon="-6.7193567"><ele>86.5</ele><time>2026-05-05T08:21:40.212Z</time></trkpt><trkpt lat="53.2020033" lon="-6.71947"><ele>86.0</ele><time>2026-05-05T08:21:41.213Z</time></trkpt><trkpt lat="53.201715" lon="-6.7195583"><ele>86.0</ele><time>2026-05-05T08:21:42.213Z</time></trkpt><trkpt lat="53.2014333" lon="-6.7196283"><ele>86.0</ele><time>2026-05-05T08:21:43.213Z</time></trkpt><trkpt lat="53.2011583" lon="-6.7197183"><ele>86.0</ele><time>2026-05-05T08:21:44.212Z</time></trkpt><trkpt lat="53.200875" lon="-6.7198183"><ele>86.0</ele><time>2026-05-05T08:21:45.213Z</time></trkpt><trkpt lat="53.2005817" lon="-6.71991"><ele>86.5</ele><time>2026-05-05T08:21:46.212Z</time></trkpt><trkpt lat="53.2002917" lon="-6.7200217"><ele>87.0</ele><time>2026-05-05T08:21:47.212Z</time></trkpt><trkpt lat="53.1999933" lon="-6.72013"><ele>87.5</ele><time>2026-05-05T08:21:48.213Z</time></trkpt><trkpt lat="53.19969" lon="-6.72024"><ele>88.0</ele><time>2026-05-05T08:21:49.213Z</time></trkpt><trkpt lat="53.1993983" lon="-6.7203483"><ele>88.0</ele><time>2026-05-05T08:21:50.213Z</time></trkpt><trkpt lat="53.1991067" lon="-6.7204483"><ele>88.0</ele><time>2026-05-05T08:21:51.213Z</time></trkpt><trkpt lat="53.1988333" lon="-6.720545"><ele>88.0</ele><time>2026-05-05T08:21:52.213Z</time></trkpt><trkpt lat="53.1985617" lon="-6.720645"><ele>88.0</ele><time>2026-05-05T08:21:53.213Z</time></trkpt><trkpt lat="53.19828" lon="-6.72075"><ele>89.0</ele><time>2026-05-05T08:21:54.212Z</time></trkpt><trkpt lat="53.1979983" lon="-6.7208867"><ele>90.0</ele><time>2026-05-05T08:21:55.213Z</time></trkpt><trkpt lat="53.197705" lon="-6.7209967"><ele>90.0</ele><time>2026-05-05T08:21:56.213Z</time></trkpt><trkpt lat="53.1974067" lon="-6.7211367"><ele>90.0</ele><time>2026-05-05T08:21:57.213Z</time></trkpt><trkpt lat="53.19712" lon="-6.7212983"><ele>90.0</ele><time>2026-05-05T08:21:58.213Z</time></trkpt><trkpt lat="53.1968317" lon="-6.721455"><ele>90.0</ele><time>2026-05-05T08:21:59.213Z</time></trkpt><trkpt lat="53.1965533" lon="-6.7216133"><ele>90.0</ele><time>2026-05-05T08:22:00.213Z</time></trkpt><trkpt lat="53.196275" lon="-6.721795"><ele>90.0</ele><time>2026-05-05T08:22:01.213Z</time></trkpt><trkpt lat="53.19599" lon="-6.7219833"><ele>90.0</ele><time>2026-05-05T08:22:02.213Z</time></trkpt><trkpt lat="53.1957033" lon="-6.72218"><ele>90.0</ele><time>2026-05-05T08:22:03.212Z</time></trkpt><trkpt lat="53.1954217" lon="-6.7223917"><ele>90.0</ele><time>2026-05-05T08:22:04.213Z</time></trkpt><trkpt lat="53.1951433" lon="-6.7226133"><ele>90.0</ele><time>2026-05-05T08:22:05.212Z</time></trkpt><trkpt lat="53.1948633" lon="-6.7228433"><ele>90.5</ele><time>2026-05-05T08:22:06.213Z</time></trkpt><trkpt lat="53.1945867" lon="-6.7230833"><ele>91.0</ele><time>2026-05-05T08:22:07.213Z</time></trkpt><trkpt lat="53.1943117" lon="-6.723355"><ele>90.5</ele><time>2026-05-05T08:22:08.213Z</time></trkpt><trkpt lat="53.1940483" lon="-6.7236167"><ele>90.0</ele><time>2026-05-05T08:22:09.213Z</time></trkpt><trkpt lat="53.1937817" lon="-6.7238817"><ele>89.5</ele><time>2026-05-05T08:22:10.212Z</time></trkpt><trkpt lat="53.1935217" lon="-6.7241533"><ele>89.0</ele><time>2026-05-05T08:22:11.213Z</time></trkpt><trkpt lat="53.1932683" lon="-6.7244267"><ele>87.5</ele><time>2026-05-05T08:22:12.213Z</time></trkpt><trkpt lat="53.1930167" lon="-6.7246983"><ele>86.0</ele><time>2026-05-05T08:22:13.212Z</time></trkpt><trkpt lat="53.1927767" lon="-6.724985"><ele>86.0</ele><time>2026-05-05T08:22:14.212Z</time></trkpt><trkpt lat="53.192555" lon="-6.725285"><ele>86.0</ele><time>2026-05-05T08:22:15.213Z</time></trkpt><trkpt lat="53.1923067" lon="-6.7255517"><ele>86.0</ele><time>2026-05-05T08:22:16.213Z</time></trkpt><trkpt lat="53.1920767" lon="-6.7258283"><ele>86.0</ele><time>2026-05-05T08:22:17.213Z</time></trkpt><trkpt lat="53.19184" lon="-6.7260933"><ele>86.0</ele><time>2026-05-05T08:22:18.213Z</time></trkpt><trkpt lat="53.19159" lon="-6.7263617"><ele>86.0</ele><time>2026-05-05T08:22:19.213Z</time></trkpt><trkpt lat="53.1913433" lon="-6.7266233"><ele>87.0</ele><time>2026-05-05T08:22:20.213Z</time></trkpt><trkpt lat="53.191105" lon="-6.7269067"><ele>88.0</ele><time>2026-05-05T08:22:21.212Z</time></trkpt><trkpt lat="53.190865" lon="-6.7271783"><ele>88.5</ele><time>2026-05-05T08:22:22.212Z</time></trkpt><trkpt lat="53.19062" lon="-6.7274517"><ele>89.0</ele><time>2026-05-05T08:22:23.212Z</time></trkpt><trkpt lat="53.190385" lon="-6.7277267"><ele>88.0</ele><time>2026-05-05T08:22:24.213Z</time></trkpt><trkpt lat="53.190145" lon="-6.727995"><ele>87.0</ele><time>2026-05-05T08:22:25.213Z</time></trkpt><trkpt lat="53.1899083" lon="-6.72825"><ele>88.0</ele><time>2026-05-05T08:22:26.213Z</time></trkpt><trkpt lat="53.1896667" lon="-6.7285117"><ele>89.0</ele><time>2026-05-05T08:22:27.213Z</time></trkpt><trkpt lat="53.1894333" lon="-6.7287667"><ele>89.0</ele><time>2026-05-05T08:22:28.212Z</time></trkpt><trkpt lat="53.1892017" lon="-6.729045"><ele>89.0</ele><time>2026-05-05T08:22:29.212Z</time></trkpt><trkpt lat="53.18897" lon="-6.7293167"><ele>88.5</ele><time>2026-05-05T08:22:30.212Z</time></trkpt><trkpt lat="53.1887433" lon="-6.7295933"><ele>88.0</ele><time>2026-05-05T08:22:31.213Z</time></trkpt><trkpt lat="53.1885067" lon="-6.72987"><ele>88.0</ele><time>2026-05-05T08:22:32.213Z</time></trkpt><trkpt lat="53.188255" lon="-6.7301417"><ele>88.0</ele><time>2026-05-05T08:22:33.212Z</time></trkpt><trkpt lat="53.1880333" lon="-6.7303933"><ele>88.0</ele><time>2026-05-05T08:22:34.212Z</time></trkpt><trkpt lat="53.1878283" lon="-6.730615"><ele>88.0</ele><time>2026-05-05T08:22:35.213Z</time></trkpt><trkpt lat="53.187635" lon="-6.7308217"><ele>88.0</ele><time>2026-05-05T08:22:36.213Z</time></trkpt><trkpt lat="53.1874533" lon="-6.731035"><ele>88.0</ele><time>2026-05-05T08:22:37.212Z</time></trkpt><trkpt lat="53.18726" lon="-6.73125"><ele>88.0</ele><time>2026-05-05T08:22:38.212Z</time></trkpt><trkpt lat="53.1870617" lon="-6.7314667"><ele>88.0</ele><time>2026-05-05T08:22:39.213Z</time></trkpt><trkpt lat="53.1868583" lon="-6.7316783"><ele>88.0</ele><time>2026-05-05T08:22:40.213Z</time></trkpt><trkpt lat="53.186655" lon="-6.7319067"><ele>88.0</ele><time>2026-05-05T08:22:41.213Z</time></trkpt><trkpt lat="53.1864517" lon="-6.7321583"><ele>88.5</ele><time>2026-05-05T08:22:42.212Z</time></trkpt><trkpt lat="53.1862317" lon="-6.7324017"><ele>89.0</ele><time>2026-05-05T08:22:43.212Z</time></trkpt><trkpt lat="53.1860183" lon="-6.73264"><ele>89.0</ele><time>2026-05-05T08:22:44.213Z</time></trkpt><trkpt lat="53.1858" lon="-6.7328883"><ele>89.0</ele><time>2026-05-05T08:22:45.213Z</time></trkpt><trkpt lat="53.18558" lon="-6.7331317"><ele>89.0</ele><time>2026-05-05T08:22:46.212Z</time></trkpt><trkpt lat="53.185355" lon="-6.7333867"><ele>89.0</ele><time>2026-05-05T08:22:47.212Z</time></trkpt><trkpt lat="53.1851217" lon="-6.7336667"><ele>89.0</ele><time>2026-05-05T08:22:48.213Z</time></trkpt><trkpt lat="53.18488" lon="-6.7339317"><ele>89.0</ele><time>2026-05-05T08:22:49.213Z</time></trkpt><trkpt lat="53.18465" lon="-6.7342033"><ele>89.0</ele><time>2026-05-05T08:22:50.212Z</time></trkpt><trkpt lat="53.18442" lon="-6.7344767"><ele>89.0</ele><time>2026-05-05T08:22:51.212Z</time></trkpt><trkpt lat="53.184185" lon="-6.7347467"><ele>88.5</ele><time>2026-05-05T08:22:52.212Z</time></trkpt><trkpt lat="53.18395" lon="-6.7350183"><ele>88.0</ele><time>2026-05-05T08:22:53.213Z</time></trkpt><trkpt lat="53.183715" lon="-6.7352867"><ele>88.0</ele><time>2026-05-05T08:22:54.213Z</time></trkpt><trkpt lat="53.18348" lon="-6.7355517"><ele>88.0</ele><time>2026-05-05T08:22:55.213Z</time></trkpt><trkpt lat="53.1832433" lon="-6.7358283"><ele>88.5</ele><time>2026-05-05T08:22:56.212Z</time></trkpt><trkpt lat="53.183005" lon="-6.736115"><ele>89.0</ele><time>2026-05-05T08:22:57.213Z</time></trkpt><trkpt lat="53.1827583" lon="-6.7364"><ele>89.0</ele><time>2026-05-05T08:22:58.212Z</time></trkpt><trkpt lat="53.1825117" lon="-6.73667"><ele>89.0</ele><time>2026-05-05T08:22:59.213Z</time></trkpt><trkpt lat="53.1822783" lon="-6.736935"><ele>89.5</ele><time>2026-05-05T08:23:00.213Z</time></trkpt><trkpt lat="53.1820617" lon="-6.737195"><ele>90.0</ele><time>2026-05-05T08:23:01.212Z</time></trkpt><trkpt lat="53.18185" lon="-6.737435"><ele>90.0</ele><time>2026-05-05T08:23:02.213Z</time></trkpt><trkpt lat="53.1816433" lon="-6.7376667"><ele>90.0</ele><time>2026-05-05T08:23:03.213Z</time></trkpt><trkpt lat="53.1814433" lon="-6.7378867"><ele>90.0</ele><time>2026-05-05T08:23:04.213Z</time></trkpt><trkpt lat="53.1812433" lon="-6.7381133"><ele>90.0</ele><time>2026-05-05T08:23:05.213Z</time></trkpt><trkpt lat="53.181045" lon="-6.73836"><ele>89.5</ele><time>2026-05-05T08:23:06.212Z</time></trkpt><trkpt lat="53.1808333" lon="-6.738605"><ele>89.0</ele><time>2026-05-05T08:23:07.213Z</time></trkpt><trkpt lat="53.1806167" lon="-6.738835"><ele>89.0</ele><time>2026-05-05T08:23:08.213Z</time></trkpt><trkpt lat="53.18041" lon="-6.7390767"><ele>89.0</ele><time>2026-05-05T08:23:09.212Z</time></trkpt><trkpt lat="53.180215" lon="-6.739305"><ele>89.5</ele><time>2026-05-05T08:23:10.213Z</time></trkpt><trkpt lat="53.1800117" lon="-6.739495"><ele>90.0</ele><time>2026-05-05T08:23:11.213Z</time></trkpt><trkpt lat="53.1798183" lon="-6.7397117"><ele>90.0</ele><time>2026-05-05T08:23:12.213Z</time></trkpt><trkpt lat="53.1796267" lon="-6.739925"><ele>90.0</ele><time>2026-05-05T08:23:13.213Z</time></trkpt><trkpt lat="53.179435" lon="-6.7401517"><ele>89.5</ele><time>2026-05-05T08:23:14.212Z</time></trkpt><trkpt lat="53.1792333" lon="-6.740385"><ele>89.0</ele><time>2026-05-05T08:23:15.213Z</time></trkpt><trkpt lat="53.1790367" lon="-6.7406183"><ele>89.5</ele><time>2026-05-05T08:23:16.213Z</time></trkpt><trkpt lat="53.1788433" lon="-6.740845"><ele>90.0</ele><time>2026-05-05T08:23:17.213Z</time></trkpt><trkpt lat="53.178645" lon="-6.74107"><ele>90.5</ele><time>2026-05-05T08:23:18.213Z</time></trkpt><trkpt lat="53.178455" lon="-6.74129"><ele>91.0</ele><time>2026-05-05T08:23:19.213Z</time></trkpt><trkpt lat="53.1782617" lon="-6.7415133"><ele>91.0</ele><time>2026-05-05T08:23:20.212Z</time></trkpt><trkpt lat="53.17805" lon="-6.7417383"><ele>91.0</ele><time>2026-05-05T08:23:21.213Z</time></trkpt><trkpt lat="53.17783" lon="-6.74197"><ele>91.0</ele><time>2026-05-05T08:23:22.213Z</time></trkpt><trkpt lat="53.1776117" lon="-6.7422083"><ele>91.0</ele><time>2026-05-05T08:23:23.213Z</time></trkpt><trkpt lat="53.177405" lon="-6.742455"><ele>92.0</ele><time>2026-05-05T08:23:24.213Z</time></trkpt><trkpt lat="53.1771833" lon="-6.7426933"><ele>93.0</ele><time>2026-05-05T08:23:25.213Z</time></trkpt><trkpt lat="53.176965" lon="-6.742935"><ele>93.0</ele><time>2026-05-05T08:23:26.213Z</time></trkpt><trkpt lat="53.1767433" lon="-6.743185"><ele>93.0</ele><time>2026-05-05T08:23:27.212Z</time></trkpt><trkpt lat="53.176515" lon="-6.7434583"><ele>91.5</ele><time>2026-05-05T08:23:28.213Z</time></trkpt><trkpt lat="53.176285" lon="-6.7437167"><ele>90.0</ele><time>2026-05-05T08:23:29.213Z</time></trkpt><trkpt lat="53.1760617" lon="-6.7439767"><ele>90.0</ele><time>2026-05-05T08:23:30.213Z</time></trkpt><trkpt lat="53.1758433" lon="-6.7442483"><ele>90.0</ele><time>2026-05-05T08:23:31.213Z</time></trkpt><trkpt lat="53.1756183" lon="-6.7445267"><ele>90.5</ele><time>2026-05-05T08:23:32.213Z</time></trkpt><trkpt lat="53.1753967" lon="-6.7448233"><ele>91.0</ele><time>2026-05-05T08:23:33.212Z</time></trkpt><trkpt lat="53.1751867" lon="-6.74513"><ele>91.0</ele><time>2026-05-05T08:23:34.212Z</time></trkpt><trkpt lat="53.1749633" lon="-6.7454367"><ele>91.0</ele><time>2026-05-05T08:23:35.213Z</time></trkpt><trkpt lat="53.174725" lon="-6.7457433"><ele>91.5</ele><time>2026-05-05T08:23:36.213Z</time></trkpt><trkpt lat="53.1745017" lon="-6.746075"><ele>92.0</ele><time>2026-05-05T08:23:37.213Z</time></trkpt><trkpt lat="53.1742933" lon="-6.74642"><ele>92.0</ele><time>2026-05-05T08:23:38.213Z</time></trkpt><trkpt lat="53.1740767" lon="-6.7467517"><ele>92.0</ele><time>2026-05-05T08:23:39.213Z</time></trkpt><trkpt lat="53.1738683" lon="-6.747095"><ele>92.0</ele><time>2026-05-05T08:23:40.212Z</time></trkpt><trkpt lat="53.1736617" lon="-6.7474267"><ele>92.0</ele><time>2026-05-05T08:23:41.213Z</time></trkpt><trkpt lat="53.173455" lon="-6.747775"><ele>92.0</ele><time>2026-05-05T08:23:42.212Z</time></trkpt><trkpt lat="53.1732683" lon="-6.7481483"><ele>92.0</ele><time>2026-05-05T08:23:43.212Z</time></trkpt><trkpt lat="53.17307" lon="-6.748525"><ele>92.5</ele><time>2026-05-05T08:23:44.213Z</time></trkpt><trkpt lat="53.1728633" lon="-6.748895"><ele>93.0</ele><time>2026-05-05T08:23:45.212Z</time></trkpt><trkpt lat="53.17267" lon="-6.7492833"><ele>93.5</ele><time>2026-05-05T08:23:46.212Z</time></trkpt><trkpt lat="53.1724817" lon="-6.7496883"><ele>94.0</ele><time>2026-05-05T08:23:47.212Z</time></trkpt><trkpt lat="53.1722867" lon="-6.750095"><ele>93.5</ele><time>2026-05-05T08:23:48.212Z</time></trkpt><trkpt lat="53.1720933" lon="-6.75051"><ele>93.0</ele><time>2026-05-05T08:23:49.212Z</time></trkpt><trkpt lat="53.171905" lon="-6.7509233"><ele>92.5</ele><time>2026-05-05T08:23:50.212Z</time></trkpt><trkpt lat="53.1717367" lon="-6.7513533"><ele>92.0</ele><time>2026-05-05T08:23:51.213Z</time></trkpt><trkpt lat="53.1715667" lon="-6.7517967"><ele>91.5</ele><time>2026-05-05T08:23:52.213Z</time></trkpt><trkpt lat="53.1713917" lon="-6.7522283"><ele>91.0</ele><time>2026-05-05T08:23:53.212Z</time></trkpt><trkpt lat="53.1712167" lon="-6.7526617"><ele>91.0</ele><time>2026-05-05T08:23:54.213Z</time></trkpt><trkpt lat="53.1710567" lon="-6.7530967"><ele>91.0</ele><time>2026-05-05T08:23:55.213Z</time></trkpt><trkpt lat="53.1708967" lon="-6.753535"><ele>91.0</ele><time>2026-05-05T08:23:56.212Z</time></trkpt><trkpt lat="53.17074" lon="-6.7539733"><ele>91.0</ele><time>2026-05-05T08:23:57.213Z</time></trkpt><trkpt lat="53.1705967" lon="-6.7544117"><ele>90.5</ele><time>2026-05-05T08:23:58.212Z</time></trkpt><trkpt lat="53.170455" lon="-6.7548533"><ele>90.0</ele><time>2026-05-05T08:23:59.212Z</time></trkpt><trkpt lat="53.170315" lon="-6.75529"><ele>90.0</ele><time>2026-05-05T08:24:00.213Z</time></trkpt><trkpt lat="53.170175" lon="-6.755725"><ele>90.0</ele><time>2026-05-05T08:24:01.212Z</time></trkpt><trkpt lat="53.1700317" lon="-6.756165"><ele>89.5</ele><time>2026-05-05T08:24:02.213Z</time></trkpt><trkpt lat="53.16988" lon="-6.7565983"><ele>89.0</ele><time>2026-05-05T08:24:03.213Z</time></trkpt><trkpt lat="53.169735" lon="-6.7570317"><ele>90.0</ele><time>2026-05-05T08:24:04.212Z</time></trkpt><trkpt lat="53.1696017" lon="-6.7574717"><ele>91.0</ele><time>2026-05-05T08:24:05.212Z</time></trkpt><trkpt lat="53.1694533" lon="-6.7578867"><ele>91.0</ele><time>2026-05-05T08:24:06.213Z</time></trkpt><trkpt lat="53.16932" lon="-6.7583033"><ele>91.0</ele><time>2026-05-05T08:24:07.212Z</time></trkpt><trkpt lat="53.169195" lon="-6.75873"><ele>91.0</ele><time>2026-05-05T08:24:08.212Z</time></trkpt><trkpt lat="53.1690683" lon="-6.7591467"><ele>91.0</ele><time>2026-05-05T08:24:09.212Z</time></trkpt><trkpt lat="53.168935" lon="-6.7595683"><ele>91.0</ele><time>2026-05-05T08:24:10.213Z</time></trkpt><trkpt lat="53.1688133" lon="-6.7600167"><ele>91.0</ele><time>2026-05-05T08:24:11.213Z</time></trkpt><trkpt lat="53.168675" lon="-6.7604217"><ele>92.5</ele><time>2026-05-05T08:24:12.213Z</time></trkpt><trkpt lat="53.168535" lon="-6.760825"><ele>94.0</ele><time>2026-05-05T08:24:13.213Z</time></trkpt><trkpt lat="53.168405" lon="-6.7612367"><ele>95.0</ele><time>2026-05-05T08:24:14.212Z</time></trkpt><trkpt lat="53.1682683" lon="-6.7616667"><ele>96.0</ele><time>2026-05-05T08:24:15.213Z</time></trkpt><trkpt lat="53.1681283" lon="-6.7620967"><ele>97.5</ele><time>2026-05-05T08:24:16.213Z</time></trkpt><trkpt lat="53.167975" lon="-6.762545"><ele>99.0</ele><time>2026-05-05T08:24:17.213Z</time></trkpt><trkpt lat="53.16783" lon="-6.7629883"><ele>101.5</ele><time>2026-05-05T08:24:18.212Z</time></trkpt><trkpt lat="53.16769" lon="-6.76343"><ele>104.0</ele><time>2026-05-05T08:24:19.213Z</time></trkpt><trkpt lat="53.1675517" lon="-6.7638717"><ele>105.5</ele><time>2026-05-05T08:24:20.212Z</time></trkpt><trkpt lat="53.1674183" lon="-6.7643317"><ele>107.0</ele><time>2026-05-05T08:24:21.212Z</time></trkpt><trkpt lat="53.1672517" lon="-6.7648017"><ele>110.5</ele><time>2026-05-05T08:24:22.213Z</time></trkpt><trkpt lat="53.16711" lon="-6.76527"><ele>114.0</ele><time>2026-05-05T08:24:23.213Z</time></trkpt><trkpt lat="53.1669667" lon="-6.7657333"><ele>113.0</ele><time>2026-05-05T08:24:24.212Z</time></trkpt><trkpt lat="53.1668217" lon="-6.7661917"><ele>112.0</ele><time>2026-05-05T08:24:25.213Z</time></trkpt><trkpt lat="53.16667" lon="-6.766655"><ele>111.5</ele><time>2026-05-05T08:24:26.213Z</time></trkpt><trkpt lat="53.166525" lon="-6.7671183"><ele>111.0</ele><time>2026-05-05T08:24:27.212Z</time></trkpt><trkpt lat="53.1663717" lon="-6.767575"><ele>109.5</ele><time>2026-05-05T08:24:28.213Z</time></trkpt><trkpt lat="53.16623" lon="-6.7680467"><ele>108.0</ele><time>2026-05-05T08:24:29.213Z</time></trkpt><trkpt lat="53.166095" lon="-6.7685083"><ele>106.5</ele><time>2026-05-05T08:24:30.212Z</time></trkpt><trkpt lat="53.1659633" lon="-6.7689667"><ele>105.0</ele><time>2026-05-05T08:24:31.212Z</time></trkpt><trkpt lat="53.165825" lon="-6.7694133"><ele>101.0</ele><time>2026-05-05T08:24:32.213Z</time></trkpt><trkpt lat="53.165685" lon="-6.7698533"><ele>97.0</ele><time>2026-05-05T08:24:33.212Z</time></trkpt><trkpt lat="53.165535" lon="-6.77028"><ele>96.5</ele><time>2026-05-05T08:24:34.213Z</time></trkpt><trkpt lat="53.16539" lon="-6.7707167"><ele>96.0</ele><time>2026-05-05T08:24:35.213Z</time></trkpt><trkpt lat="53.1652433" lon="-6.7711483"><ele>95.5</ele><time>2026-05-05T08:24:36.212Z</time></trkpt><trkpt lat="53.1650917" lon="-6.77157"><ele>95.0</ele><time>2026-05-05T08:24:37.213Z</time></trkpt><trkpt lat="53.1649567" lon="-6.7720183"><ele>94.5</ele><time>2026-05-05T08:24:38.213Z</time></trkpt><trkpt lat="53.16482" lon="-6.7724617"><ele>94.0</ele><time>2026-05-05T08:24:39.213Z</time></trkpt><trkpt lat="53.1646867" lon="-6.7728883"><ele>94.0</ele><time>2026-05-05T08:24:40.213Z</time></trkpt><trkpt lat="53.1645617" lon="-6.7732917"><ele>94.0</ele><time>2026-05-05T08:24:41.212Z</time></trkpt><trkpt lat="53.164445" lon="-6.7736717"><ele>93.5</ele><time>2026-05-05T08:24:42.212Z</time></trkpt><trkpt lat="53.16434" lon="-6.7740417"><ele>93.0</ele><time>2026-05-05T08:24:43.213Z</time></trkpt><trkpt lat="53.1642283" lon="-6.7744333"><ele>93.5</ele><time>2026-05-05T08:24:44.212Z</time></trkpt><trkpt lat="53.1641133" lon="-6.774825"><ele>94.0</ele><time>2026-05-05T08:24:45.212Z</time></trkpt><trkpt lat="53.1639733" lon="-6.7752267"><ele>94.0</ele><time>2026-05-05T08:24:46.213Z</time></trkpt><trkpt lat="53.163835" lon="-6.77562"><ele>94.0</ele><time>2026-05-05T08:24:47.213Z</time></trkpt><trkpt lat="53.163705" lon="-6.7760383"><ele>94.0</ele><time>2026-05-05T08:24:48.212Z</time></trkpt><trkpt lat="53.1635717" lon="-6.77647"><ele>94.0</ele><time>2026-05-05T08:24:49.213Z</time></trkpt><trkpt lat="53.1634467" lon="-6.776915"><ele>94.0</ele><time>2026-05-05T08:24:50.212Z</time></trkpt><trkpt lat="53.1632967" lon="-6.7773433"><ele>94.0</ele><time>2026-05-05T08:24:51.213Z</time></trkpt><trkpt lat="53.1631583" lon="-6.777775"><ele>94.0</ele><time>2026-05-05T08:24:52.212Z</time></trkpt><trkpt lat="53.1630183" lon="-6.7782017"><ele>94.0</ele><time>2026-05-05T08:24:53.213Z</time></trkpt><trkpt lat="53.1628817" lon="-6.7786083"><ele>94.0</ele><time>2026-05-05T08:24:54.213Z</time></trkpt><trkpt lat="53.1627717" lon="-6.7790067"><ele>94.0</ele><time>2026-05-05T08:24:55.213Z</time></trkpt><trkpt lat="53.1626483" lon="-6.7793983"><ele>94.0</ele><time>2026-05-05T08:24:56.213Z</time></trkpt><trkpt lat="53.162515" lon="-6.7797783"><ele>94.0</ele><time>2026-05-05T08:24:57.213Z</time></trkpt><trkpt lat="53.1623883" lon="-6.7801567"><ele>93.5</ele><time>2026-05-05T08:24:58.213Z</time></trkpt><trkpt lat="53.1622633" lon="-6.7805483"><ele>93.0</ele><time>2026-05-05T08:24:59.213Z</time></trkpt><trkpt lat="53.162135" lon="-6.7809417"><ele>92.5</ele><time>2026-05-05T08:25:00.213Z</time></trkpt><trkpt lat="53.162015" lon="-6.781325"><ele>92.0</ele><time>2026-05-05T08:25:01.212Z</time></trkpt><trkpt lat="53.16189" lon="-6.7817233"><ele>92.0</ele><time>2026-05-05T08:25:02.213Z</time></trkpt><trkpt lat="53.1617783" lon="-6.7821183"><ele>92.0</ele><time>2026-05-05T08:25:03.213Z</time></trkpt><trkpt lat="53.1616633" lon="-6.7825"><ele>92.0</ele><time>2026-05-05T08:25:04.212Z</time></trkpt><trkpt lat="53.1615433" lon="-6.782865"><ele>92.0</ele><time>2026-05-05T08:25:05.213Z</time></trkpt><trkpt lat="53.1614183" lon="-6.7832233"><ele>93.0</ele><time>2026-05-05T08:25:06.212Z</time></trkpt><trkpt lat="53.1612983" lon="-6.7835983"><ele>94.0</ele><time>2026-05-05T08:25:07.213Z</time></trkpt><trkpt lat="53.16119" lon="-6.7839783"><ele>95.0</ele><time>2026-05-05T08:25:08.213Z</time></trkpt><trkpt lat="53.1610883" lon="-6.7843633"><ele>96.0</ele><time>2026-05-05T08:25:09.213Z</time></trkpt><trkpt lat="53.1609883" lon="-6.7847683"><ele>96.0</ele><time>2026-05-05T08:25:10.213Z</time></trkpt><trkpt lat="53.1608933" lon="-6.7851633"><ele>96.0</ele><time>2026-05-05T08:25:11.213Z</time></trkpt><trkpt lat="53.1607983" lon="-6.785555"><ele>97.0</ele><time>2026-05-05T08:25:12.213Z</time></trkpt><trkpt lat="53.160705" lon="-6.7859483"><ele>98.0</ele><time>2026-05-05T08:25:13.213Z</time></trkpt><trkpt lat="53.16062" lon="-6.786355"><ele>99.5</ele><time>2026-05-05T08:25:14.213Z</time></trkpt><trkpt lat="53.1605417" lon="-6.786765"><ele>101.0</ele><time>2026-05-05T08:25:15.213Z</time></trkpt><trkpt lat="53.1604683" lon="-6.78718"><ele>102.0</ele><time>2026-05-05T08:25:16.213Z</time></trkpt><trkpt lat="53.1603967" lon="-6.7876183"><ele>103.0</ele><time>2026-05-05T08:25:17.213Z</time></trkpt><trkpt lat="53.16032" lon="-6.78807"><ele>102.5</ele><time>2026-05-05T08:25:18.213Z</time></trkpt><trkpt lat="53.16025" lon="-6.7885317"><ele>102.0</ele><time>2026-05-05T08:25:19.213Z</time></trkpt><trkpt lat="53.1601917" lon="-6.78899"><ele>102.0</ele><time>2026-05-05T08:25:20.213Z</time></trkpt><trkpt lat="53.160145" lon="-6.78944"><ele>102.0</ele><time>2026-05-05T08:25:21.212Z</time></trkpt><trkpt lat="53.1601083" lon="-6.7898867"><ele>102.0</ele><time>2026-05-05T08:25:22.213Z</time></trkpt><trkpt lat="53.1600783" lon="-6.7903283"><ele>102.0</ele><time>2026-05-05T08:25:23.212Z</time></trkpt><trkpt lat="53.1600433" lon="-6.7907683"><ele>102.5</ele><time>2026-05-05T08:25:24.213Z</time></trkpt><trkpt lat="53.1600533" lon="-6.7912017"><ele>103.0</ele><time>2026-05-05T08:25:25.213Z</time></trkpt><trkpt lat="53.1600417" lon="-6.791635"><ele>103.0</ele><time>2026-05-05T08:25:26.213Z</time></trkpt><trkpt lat="53.160045" lon="-6.7920467"><ele>103.0</ele><time>2026-05-05T08:25:27.213Z</time></trkpt><trkpt lat="53.1600383" lon="-6.7924567"><ele>103.0</ele><time>2026-05-05T08:25:28.213Z</time></trkpt><trkpt lat="53.1600433" lon="-6.7928567"><ele>103.0</ele><time>2026-05-05T08:25:29.212Z</time></trkpt><trkpt lat="53.1600517" lon="-6.7932833"><ele>102.5</ele><time>2026-05-05T08:25:30.213Z</time></trkpt><trkpt lat="53.1600783" lon="-6.7937133"><ele>102.0</ele><time>2026-05-05T08:25:31.213Z</time></trkpt><trkpt lat="53.1601067" lon="-6.7941483"><ele>102.5</ele><time>2026-05-05T08:25:32.212Z</time></trkpt><trkpt lat="53.1601567" lon="-6.7945967"><ele>103.0</ele><time>2026-05-05T08:25:33.213Z</time></trkpt><trkpt lat="53.1602067" lon="-6.7950367"><ele>104.5</ele><time>2026-05-05T08:25:34.212Z</time></trkpt><trkpt lat="53.1602583" lon="-6.795495"><ele>106.0</ele><time>2026-05-05T08:25:35.212Z</time></trkpt><trkpt lat="53.1603083" lon="-6.7959667"><ele>105.5</ele><time>2026-05-05T08:25:36.213Z</time></trkpt><trkpt lat="53.1603717" lon="-6.79643"><ele>105.0</ele><time>2026-05-05T08:25:37.212Z</time></trkpt><trkpt lat="53.1604433" lon="-6.7968617"><ele>104.0</ele><time>2026-05-05T08:25:38.213Z</time></trkpt><trkpt lat="53.1605167" lon="-6.79729"><ele>103.0</ele><time>2026-05-05T08:25:39.213Z</time></trkpt><trkpt lat="53.1605917" lon="-6.7976833"><ele>103.0</ele><time>2026-05-05T08:25:40.213Z</time></trkpt><trkpt lat="53.1606617" lon="-6.7980633"><ele>103.0</ele><time>2026-05-05T08:25:41.213Z</time></trkpt><trkpt lat="53.1607467" lon="-6.798445"><ele>103.0</ele><time>2026-05-05T08:25:42.213Z</time></trkpt><trkpt lat="53.1607917" lon="-6.7988583"><ele>103.0</ele><time>2026-05-05T08:25:43.213Z</time></trkpt><trkpt lat="53.1608717" lon="-6.79924"><ele>102.0</ele><time>2026-05-05T08:25:44.212Z</time></trkpt><trkpt lat="53.1609933" lon="-6.7996433"><ele>101.0</ele><time>2026-05-05T08:25:45.213Z</time></trkpt><trkpt lat="53.1611533" lon="-6.8000367"><ele>101.5</ele><time>2026-05-05T08:25:46.213Z</time></trkpt><trkpt lat="53.1612767" lon="-6.80041"><ele>102.0</ele><time>2026-05-05T08:25:47.213Z</time></trkpt><trkpt lat="53.1613983" lon="-6.8008067"><ele>102.0</ele><time>2026-05-05T08:25:48.213Z</time></trkpt><trkpt lat="53.1615433" lon="-6.8012183"><ele>102.0</ele><time>2026-05-05T08:25:49.212Z</time></trkpt><trkpt lat="53.1616717" lon="-6.8016117"><ele>103.5</ele><time>2026-05-05T08:25:50.213Z</time></trkpt><trkpt lat="53.1617917" lon="-6.8019933"><ele>105.0</ele><time>2026-05-05T08:25:51.212Z</time></trkpt><trkpt lat="53.1618917" lon="-6.802385"><ele>106.0</ele><time>2026-05-05T08:25:52.213Z</time></trkpt><trkpt lat="53.16202" lon="-6.8027667"><ele>107.0</ele><time>2026-05-05T08:25:53.212Z</time></trkpt><trkpt lat="53.1621683" lon="-6.8031517"><ele>107.5</ele><time>2026-05-05T08:25:54.213Z</time></trkpt><trkpt lat="53.162295" lon="-6.8035517"><ele>108.0</ele><time>2026-05-05T08:25:55.212Z</time></trkpt><trkpt lat="53.1624167" lon="-6.8039667"><ele>106.5</ele><time>2026-05-05T08:25:56.212Z</time></trkpt><trkpt lat="53.1625283" lon="-6.8043817"><ele>105.0</ele><time>2026-05-05T08:25:57.212Z</time></trkpt><trkpt lat="53.162615" lon="-6.8048383"><ele>105.5</ele><time>2026-05-05T08:25:58.213Z</time></trkpt><trkpt lat="53.1626933" lon="-6.80531"><ele>106.0</ele><time>2026-05-05T08:25:59.212Z</time></trkpt><trkpt lat="53.1627733" lon="-6.8058183"><ele>106.0</ele><time>2026-05-05T08:26:00.213Z</time></trkpt><trkpt lat="53.162845" lon="-6.8062833"><ele>106.0</ele><time>2026-05-05T08:26:01.212Z</time></trkpt><trkpt lat="53.1628883" lon="-6.8067817"><ele>106.0</ele><time>2026-05-05T08:26:02.212Z</time></trkpt><trkpt lat="53.1629467" lon="-6.8072533"><ele>106.0</ele><time>2026-05-05T08:26:03.213Z</time></trkpt><trkpt lat="53.163005" lon="-6.8076917"><ele>106.0</ele><time>2026-05-05T08:26:04.213Z</time></trkpt><trkpt lat="53.16304" lon="-6.80812"><ele>106.0</ele><time>2026-05-05T08:26:05.213Z</time></trkpt><trkpt lat="53.1630317" lon="-6.8085667"><ele>106.0</ele><time>2026-05-05T08:26:06.213Z</time></trkpt><trkpt lat="53.16305" lon="-6.80901"><ele>106.0</ele><time>2026-05-05T08:26:07.212Z</time></trkpt><trkpt lat="53.1630617" lon="-6.8094783"><ele>106.0</ele><time>2026-05-05T08:26:08.213Z</time></trkpt><trkpt lat="53.1630717" lon="-6.8099417"><ele>106.0</ele><time>2026-05-05T08:26:09.213Z</time></trkpt><trkpt lat="53.163075" lon="-6.81043"><ele>106.0</ele><time>2026-05-05T08:26:10.211Z</time></trkpt><trkpt lat="53.1630717" lon="-6.8109"><ele>106.0</ele><time>2026-05-05T08:26:11.213Z</time></trkpt><trkpt lat="53.1630583" lon="-6.81137"><ele>105.5</ele><time>2026-05-05T08:26:12.212Z</time></trkpt><trkpt lat="53.1630417" lon="-6.811835"><ele>105.0</ele><time>2026-05-05T08:26:13.213Z</time></trkpt><trkpt lat="53.1630183" lon="-6.81232"><ele>103.0</ele><time>2026-05-05T08:26:14.213Z</time></trkpt><trkpt lat="53.16299" lon="-6.8128117"><ele>101.0</ele><time>2026-05-05T08:26:15.213Z</time></trkpt><trkpt lat="53.1629633" lon="-6.8133233"><ele>99.0</ele><time>2026-05-05T08:26:16.213Z</time></trkpt><trkpt lat="53.162935" lon="-6.8138333"><ele>97.0</ele><time>2026-05-05T08:26:17.213Z</time></trkpt><trkpt lat="53.16288" lon="-6.8143417"><ele>96.5</ele><time>2026-05-05T08:26:18.213Z</time></trkpt><trkpt lat="53.1628517" lon="-6.8148117"><ele>96.0</ele><time>2026-05-05T08:26:19.212Z</time></trkpt><trkpt lat="53.16281" lon="-6.8152983"><ele>96.0</ele><time>2026-05-05T08:26:20.213Z</time></trkpt><trkpt lat="53.1627783" lon="-6.815775"><ele>96.0</ele><time>2026-05-05T08:26:21.213Z</time></trkpt><trkpt lat="53.1627233" lon="-6.8162517"><ele>96.0</ele><time>2026-05-05T08:26:22.212Z</time></trkpt><trkpt lat="53.16269" lon="-6.8167333"><ele>96.0</ele><time>2026-05-05T08:26:23.213Z</time></trkpt><trkpt lat="53.1626633" lon="-6.8172167"><ele>96.5</ele><time>2026-05-05T08:26:24.212Z</time></trkpt><trkpt lat="53.16263" lon="-6.8176967"><ele>97.0</ele><time>2026-05-05T08:26:25.212Z</time></trkpt><trkpt lat="53.1625883" lon="-6.81818"><ele>97.5</ele><time>2026-05-05T08:26:26.212Z</time></trkpt><trkpt lat="53.1625383" lon="-6.81867"><ele>98.0</ele><time>2026-05-05T08:26:27.213Z</time></trkpt><trkpt lat="53.1624983" lon="-6.819165"><ele>98.5</ele><time>2026-05-05T08:26:28.213Z</time></trkpt><trkpt lat="53.16246" lon="-6.8196283"><ele>99.0</ele><time>2026-05-05T08:26:29.213Z</time></trkpt><trkpt lat="53.1624" lon="-6.82009"><ele>101.5</ele><time>2026-05-05T08:26:30.213Z</time></trkpt><trkpt lat="53.1623483" lon="-6.8205667"><ele>104.0</ele><time>2026-05-05T08:26:31.213Z</time></trkpt><trkpt lat="53.1623117" lon="-6.82106"><ele>104.0</ele><time>2026-05-05T08:26:32.212Z</time></trkpt><trkpt lat="53.1622517" lon="-6.8215667"><ele>104.0</ele><time>2026-05-05T08:26:33.212Z</time></trkpt><trkpt lat="53.1622083" lon="-6.822055"><ele>104.0</ele><time>2026-05-05T08:26:34.212Z</time></trkpt><trkpt lat="53.162165" lon="-6.822545"><ele>104.0</ele><time>2026-05-05T08:26:35.213Z</time></trkpt><trkpt lat="53.1621217" lon="-6.8230267"><ele>103.0</ele><time>2026-05-05T08:26:36.213Z</time></trkpt><trkpt lat="53.1620717" lon="-6.823545"><ele>102.0</ele><time>2026-05-05T08:26:37.213Z</time></trkpt><trkpt lat="53.1620333" lon="-6.824025"><ele>102.5</ele><time>2026-05-05T08:26:38.213Z</time></trkpt><trkpt lat="53.16199" lon="-6.824525"><ele>103.0</ele><time>2026-05-05T08:26:39.213Z</time></trkpt><trkpt lat="53.1619517" lon="-6.8250217"><ele>103.5</ele><time>2026-05-05T08:26:40.213Z</time></trkpt><trkpt lat="53.1619033" lon="-6.8255317"><ele>104.0</ele><time>2026-05-05T08:26:41.213Z</time></trkpt><trkpt lat="53.161865" lon="-6.8260317"><ele>103.0</ele><time>2026-05-05T08:26:42.212Z</time></trkpt><trkpt lat="53.16183" lon="-6.826535"><ele>102.0</ele><time>2026-05-05T08:26:43.213Z</time></trkpt><trkpt lat="53.1617983" lon="-6.827045"><ele>102.0</ele><time>2026-05-05T08:26:44.213Z</time></trkpt><trkpt lat="53.1617633" lon="-6.8275217"><ele>102.0</ele><time>2026-05-05T08:26:45.213Z</time></trkpt><trkpt lat="53.1617167" lon="-6.8280083"><ele>102.0</ele><time>2026-05-05T08:26:46.213Z</time></trkpt><trkpt lat="53.1616683" lon="-6.828515"><ele>102.0</ele><time>2026-05-05T08:26:47.213Z</time></trkpt><trkpt lat="53.161625" lon="-6.82901"><ele>101.5</ele><time>2026-05-05T08:26:48.213Z</time></trkpt><trkpt lat="53.1615733" lon="-6.82948"><ele>101.0</ele><time>2026-05-05T08:26:49.213Z</time></trkpt><trkpt lat="53.1615133" lon="-6.829945"><ele>103.5</ele><time>2026-05-05T08:26:50.213Z</time></trkpt><trkpt lat="53.1614583" lon="-6.830435"><ele>106.0</ele><time>2026-05-05T08:26:51.213Z</time></trkpt><trkpt lat="53.1614017" lon="-6.830925"><ele>105.5</ele><time>2026-05-05T08:26:52.212Z</time></trkpt><trkpt lat="53.1613433" lon="-6.8314117"><ele>105.0</ele><time>2026-05-05T08:26:53.212Z</time></trkpt><trkpt lat="53.1613133" lon="-6.83193"><ele>104.5</ele><time>2026-05-05T08:26:54.212Z</time></trkpt><trkpt lat="53.16127" lon="-6.8324283"><ele>104.0</ele><time>2026-05-05T08:26:55.212Z</time></trkpt><trkpt lat="53.1612117" lon="-6.8329433"><ele>103.5</ele><time>2026-05-05T08:26:56.213Z</time></trkpt><trkpt lat="53.16115" lon="-6.8334533"><ele>103.0</ele><time>2026-05-05T08:26:57.213Z</time></trkpt><trkpt lat="53.1610817" lon="-6.8339467"><ele>102.5</ele><time>2026-05-05T08:26:58.213Z</time></trkpt><trkpt lat="53.1610117" lon="-6.8344333"><ele>102.0</ele><time>2026-05-05T08:26:59.213Z</time></trkpt><trkpt lat="53.1609483" lon="-6.83491"><ele>102.5</ele><time>2026-05-05T08:27:00.213Z</time></trkpt><trkpt lat="53.16089" lon="-6.8353733"><ele>103.0</ele><time>2026-05-05T08:27:01.212Z</time></trkpt><trkpt lat="53.1608367" lon="-6.8358483"><ele>103.5</ele><time>2026-05-05T08:27:02.212Z</time></trkpt><trkpt lat="53.1607733" lon="-6.8363183"><ele>104.0</ele><time>2026-05-05T08:27:03.213Z</time></trkpt><trkpt lat="53.1607167" lon="-6.836785"><ele>103.5</ele><time>2026-05-05T08:27:04.213Z</time></trkpt><trkpt lat="53.1606567" lon="-6.8372333"><ele>103.0</ele><time>2026-05-05T08:27:05.213Z</time></trkpt><trkpt lat="53.16059" lon="-6.8376717"><ele>103.0</ele><time>2026-05-05T08:27:06.213Z</time></trkpt><trkpt lat="53.16052" lon="-6.83811"><ele>103.0</ele><time>2026-05-05T08:27:07.213Z</time></trkpt><trkpt lat="53.16045" lon="-6.8385367"><ele>103.5</ele><time>2026-05-05T08:27:08.213Z</time></trkpt><trkpt lat="53.160395" lon="-6.8389567"><ele>104.0</ele><time>2026-05-05T08:27:09.213Z</time></trkpt><trkpt lat="53.16034" lon="-6.8393767"><ele>104.0</ele><time>2026-05-05T08:27:10.212Z</time></trkpt><trkpt lat="53.1602917" lon="-6.8397783"><ele>104.0</ele><time>2026-05-05T08:27:11.213Z</time></trkpt><trkpt lat="53.1602367" lon="-6.8401883"><ele>104.0</ele><time>2026-05-05T08:27:12.213Z</time></trkpt><trkpt lat="53.1601683" lon="-6.8406133"><ele>104.0</ele><time>2026-05-05T08:27:13.213Z</time></trkpt><trkpt lat="53.1600933" lon="-6.8410467"><ele>105.0</ele><time>2026-05-05T08:27:14.213Z</time></trkpt><trkpt lat="53.16003" lon="-6.8415083"><ele>106.0</ele><time>2026-05-05T08:27:15.212Z</time></trkpt><trkpt lat="53.1599633" lon="-6.8419683"><ele>106.0</ele><time>2026-05-05T08:27:16.212Z</time></trkpt><trkpt lat="53.1598883" lon="-6.8424367"><ele>106.0</ele><time>2026-05-05T08:27:17.212Z</time></trkpt><trkpt lat="53.159825" lon="-6.8429017"><ele>106.5</ele><time>2026-05-05T08:27:18.212Z</time></trkpt><trkpt lat="53.1597567" lon="-6.8433917"><ele>107.0</ele><time>2026-05-05T08:27:19.213Z</time></trkpt><trkpt lat="53.1596933" lon="-6.8438683"><ele>107.5</ele><time>2026-05-05T08:27:20.213Z</time></trkpt><trkpt lat="53.15963" lon="-6.8443467"><ele>108.0</ele><time>2026-05-05T08:27:21.212Z</time></trkpt><trkpt lat="53.1595683" lon="-6.8448417"><ele>107.5</ele><time>2026-05-05T08:27:22.213Z</time></trkpt><trkpt lat="53.1595" lon="-6.84534"><ele>107.0</ele><time>2026-05-05T08:27:23.213Z</time></trkpt><trkpt lat="53.15943" lon="-6.8458233"><ele>107.0</ele><time>2026-05-05T08:27:24.212Z</time></trkpt><trkpt lat="53.1593583" lon="-6.84631"><ele>107.0</ele><time>2026-05-05T08:27:25.212Z</time></trkpt><trkpt lat="53.1592867" lon="-6.8467967"><ele>107.0</ele><time>2026-05-05T08:27:26.213Z</time></trkpt><trkpt lat="53.1592167" lon="-6.8472883"><ele>107.0</ele><time>2026-05-05T08:27:27.213Z</time></trkpt><trkpt lat="53.159145" lon="-6.8477833"><ele>107.0</ele><time>2026-05-05T08:27:28.212Z</time></trkpt><trkpt lat="53.159075" lon="-6.8482917"><ele>107.0</ele><time>2026-05-05T08:27:29.213Z</time></trkpt><trkpt lat="53.1590067" lon="-6.8488183"><ele>106.0</ele><time>2026-05-05T08:27:30.213Z</time></trkpt><trkpt lat="53.1589433" lon="-6.8493333"><ele>105.0</ele><time>2026-05-05T08:27:31.213Z</time></trkpt><trkpt lat="53.1588617" lon="-6.8498467"><ele>104.5</ele><time>2026-05-05T08:27:32.213Z</time></trkpt><trkpt lat="53.1587867" lon="-6.85035"><ele>104.0</ele><time>2026-05-05T08:27:33.213Z</time></trkpt><trkpt lat="53.1587183" lon="-6.8508683"><ele>104.5</ele><time>2026-05-05T08:27:34.212Z</time></trkpt><trkpt lat="53.1586433" lon="-6.85136"><ele>105.0</ele><time>2026-05-05T08:27:35.213Z</time></trkpt><trkpt lat="53.15857" lon="-6.851865"><ele>104.0</ele><time>2026-05-05T08:27:36.212Z</time></trkpt><trkpt lat="53.15849" lon="-6.8523483"><ele>103.0</ele><time>2026-05-05T08:27:37.212Z</time></trkpt><trkpt lat="53.158415" lon="-6.8528283"><ele>103.0</ele><time>2026-05-05T08:27:38.212Z</time></trkpt><trkpt lat="53.1583517" lon="-6.85329"><ele>103.0</ele><time>2026-05-05T08:27:39.213Z</time></trkpt><trkpt lat="53.15829" lon="-6.853755"><ele>103.0</ele><time>2026-05-05T08:27:40.213Z</time></trkpt><trkpt lat="53.1582183" lon="-6.8542233"><ele>103.0</ele><time>2026-05-05T08:27:41.213Z</time></trkpt><trkpt lat="53.1581483" lon="-6.854695"><ele>103.0</ele><time>2026-05-05T08:27:42.213Z</time></trkpt><trkpt lat="53.1580817" lon="-6.8551567"><ele>103.0</ele><time>2026-05-05T08:27:43.213Z</time></trkpt><trkpt lat="53.1580167" lon="-6.855625"><ele>103.5</ele><time>2026-05-05T08:27:44.212Z</time></trkpt><trkpt lat="53.15795" lon="-6.8560867"><ele>104.0</ele><time>2026-05-05T08:27:45.212Z</time></trkpt><trkpt lat="53.157885" lon="-6.8565667"><ele>104.5</ele><time>2026-05-05T08:27:46.212Z</time></trkpt><trkpt lat="53.157815" lon="-6.857045"><ele>105.0</ele><time>2026-05-05T08:27:47.212Z</time></trkpt><trkpt lat="53.1577517" lon="-6.857525"><ele>105.0</ele><time>2026-05-05T08:27:48.212Z</time></trkpt><trkpt lat="53.1576833" lon="-6.8579833"><ele>105.0</ele><time>2026-05-05T08:27:49.213Z</time></trkpt><trkpt lat="53.15762" lon="-6.85844"><ele>104.5</ele><time>2026-05-05T08:27:50.213Z</time></trkpt><trkpt lat="53.157545" lon="-6.8589217"><ele>104.0</ele><time>2026-05-05T08:27:51.213Z</time></trkpt><trkpt lat="53.15748" lon="-6.8593933"><ele>104.0</ele><time>2026-05-05T08:27:52.213Z</time></trkpt><trkpt lat="53.1574183" lon="-6.8598583"><ele>104.0</ele><time>2026-05-05T08:27:53.213Z</time></trkpt><trkpt lat="53.1573417" lon="-6.8603317"><ele>105.5</ele><time>2026-05-05T08:27:54.213Z</time></trkpt><trkpt lat="53.157265" lon="-6.8608017"><ele>107.0</ele><time>2026-05-05T08:27:55.213Z</time></trkpt><trkpt lat="53.1571883" lon="-6.8612683"><ele>108.0</ele><time>2026-05-05T08:27:56.213Z</time></trkpt><trkpt lat="53.157115" lon="-6.8617467"><ele>109.0</ele><time>2026-05-05T08:27:57.213Z</time></trkpt><trkpt lat="53.15704" lon="-6.8622417"><ele>110.0</ele><time>2026-05-05T08:27:58.213Z</time></trkpt><trkpt lat="53.15698" lon="-6.8627367"><ele>111.0</ele><time>2026-05-05T08:27:59.213Z</time></trkpt><trkpt lat="53.1569167" lon="-6.8632033"><ele>111.0</ele><time>2026-05-05T08:28:00.212Z</time></trkpt><trkpt lat="53.1568533" lon="-6.8636883"><ele>111.0</ele><time>2026-05-05T08:28:01.213Z</time></trkpt><trkpt lat="53.1567767" lon="-6.8641533"><ele>112.0</ele><time>2026-05-05T08:28:02.213Z</time></trkpt><trkpt lat="53.156715" lon="-6.8646417"><ele>113.0</ele><time>2026-05-05T08:28:03.212Z</time></trkpt><trkpt lat="53.1566383" lon="-6.8651"><ele>113.5</ele><time>2026-05-05T08:28:04.213Z</time></trkpt><trkpt lat="53.15657" lon="-6.8655667"><ele>114.0</ele><time>2026-05-05T08:28:05.212Z</time></trkpt><trkpt lat="53.1565017" lon="-6.86602"><ele>114.0</ele><time>2026-05-05T08:28:06.213Z</time></trkpt><trkpt lat="53.1564233" lon="-6.8664783"><ele>114.0</ele><time>2026-05-05T08:28:07.213Z</time></trkpt><trkpt lat="53.1563567" lon="-6.866925"><ele>114.0</ele><time>2026-05-05T08:28:08.213Z</time></trkpt><trkpt lat="53.156285" lon="-6.8673683"><ele>114.0</ele><time>2026-05-05T08:28:09.213Z</time></trkpt><trkpt lat="53.1562133" lon="-6.8678117"><ele>114.0</ele><time>2026-05-05T08:28:10.212Z</time></trkpt><trkpt lat="53.156135" lon="-6.8682567"><ele>114.0</ele><time>2026-05-05T08:28:11.213Z</time></trkpt><trkpt lat="53.1560467" lon="-6.8687083"><ele>114.0</ele><time>2026-05-05T08:28:12.212Z</time></trkpt><trkpt lat="53.15596" lon="-6.869155"><ele>114.0</ele><time>2026-05-05T08:28:13.213Z</time></trkpt><trkpt lat="53.1558683" lon="-6.8696133"><ele>114.0</ele><time>2026-05-05T08:28:14.213Z</time></trkpt><trkpt lat="53.1557867" lon="-6.8700633"><ele>114.0</ele><time>2026-05-05T08:28:15.213Z</time></trkpt><trkpt lat="53.1557083" lon="-6.87051"><ele>114.5</ele><time>2026-05-05T08:28:16.213Z</time></trkpt><trkpt lat="53.1556283" lon="-6.8709567"><ele>115.0</ele><time>2026-05-05T08:28:17.212Z</time></trkpt><trkpt lat="53.155535" lon="-6.8714"><ele>115.5</ele><time>2026-05-05T08:28:18.213Z</time></trkpt><trkpt lat="53.1554583" lon="-6.871865"><ele>116.0</ele><time>2026-05-05T08:28:19.212Z</time></trkpt><trkpt lat="53.1553783" lon="-6.8723"><ele>115.5</ele><time>2026-05-05T08:28:20.212Z</time></trkpt><trkpt lat="53.1552867" lon="-6.8727417"><ele>115.0</ele><time>2026-05-05T08:28:21.212Z</time></trkpt><trkpt lat="53.1551967" lon="-6.8731933"><ele>114.0</ele><time>2026-05-05T08:28:22.213Z</time></trkpt><trkpt lat="53.1551033" lon="-6.8736533"><ele>113.0</ele><time>2026-05-05T08:28:23.213Z</time></trkpt><trkpt lat="53.154995" lon="-6.8741"><ele>113.0</ele><time>2026-05-05T08:28:24.213Z</time></trkpt><trkpt lat="53.1549033" lon="-6.8745517"><ele>113.0</ele><time>2026-05-05T08:28:25.213Z</time></trkpt><trkpt lat="53.1548167" lon="-6.8749983"><ele>114.5</ele><time>2026-05-05T08:28:26.213Z</time></trkpt><trkpt lat="53.1547167" lon="-6.8754433"><ele>116.0</ele><time>2026-05-05T08:28:27.213Z</time></trkpt><trkpt lat="53.1546167" lon="-6.8759"><ele>114.5</ele><time>2026-05-05T08:28:28.213Z</time></trkpt><trkpt lat="53.1545217" lon="-6.8763467"><ele>113.0</ele><time>2026-05-05T08:28:29.213Z</time></trkpt><trkpt lat="53.154425" lon="-6.8768033"><ele>112.0</ele><time>2026-05-05T08:28:30.212Z</time></trkpt><trkpt lat="53.1543333" lon="-6.877245"><ele>111.0</ele><time>2026-05-05T08:28:31.212Z</time></trkpt><trkpt lat="53.1542383" lon="-6.8777083"><ele>110.5</ele><time>2026-05-05T08:28:32.213Z</time></trkpt><trkpt lat="53.15415" lon="-6.8781667"><ele>110.0</ele><time>2026-05-05T08:28:33.213Z</time></trkpt><trkpt lat="53.1540633" lon="-6.8786267"><ele>106.5</ele><time>2026-05-05T08:28:34.212Z</time></trkpt><trkpt lat="53.1539783" lon="-6.87909"><ele>103.0</ele><time>2026-05-05T08:28:35.213Z</time></trkpt><trkpt lat="53.1538917" lon="-6.8795533"><ele>101.5</ele><time>2026-05-05T08:28:36.213Z</time></trkpt><trkpt lat="53.1538017" lon="-6.8800117"><ele>100.0</ele><time>2026-05-05T08:28:37.213Z</time></trkpt><trkpt lat="53.1537067" lon="-6.8804783"><ele>98.5</ele><time>2026-05-05T08:28:38.212Z</time></trkpt><trkpt lat="53.1536183" lon="-6.8809333"><ele>97.0</ele><time>2026-05-05T08:28:39.213Z</time></trkpt><trkpt lat="53.1535267" lon="-6.8813817"><ele>96.0</ele><time>2026-05-05T08:28:40.213Z</time></trkpt><trkpt lat="53.1534283" lon="-6.8818483"><ele>95.0</ele><time>2026-05-05T08:28:41.213Z</time></trkpt><trkpt lat="53.1533233" lon="-6.8823583"><ele>94.0</ele><time>2026-05-05T08:28:42.213Z</time></trkpt><trkpt lat="53.153225" lon="-6.8828867"><ele>93.0</ele><time>2026-05-05T08:28:43.213Z</time></trkpt><trkpt lat="53.1531317" lon="-6.8834283"><ele>91.5</ele><time>2026-05-05T08:28:44.212Z</time></trkpt><trkpt lat="53.153035" lon="-6.88397"><ele>90.0</ele><time>2026-05-05T08:28:45.212Z</time></trkpt><trkpt lat="53.1529317" lon="-6.8845133"><ele>90.0</ele><time>2026-05-05T08:28:46.213Z</time></trkpt><trkpt lat="53.1528367" lon="-6.8850617"><ele>90.0</ele><time>2026-05-05T08:28:47.213Z</time></trkpt><trkpt lat="53.1527667" lon="-6.88559"><ele>90.0</ele><time>2026-05-05T08:28:48.212Z</time></trkpt><trkpt lat="53.152695" lon="-6.8860867"><ele>90.0</ele><time>2026-05-05T08:28:49.213Z</time></trkpt><trkpt lat="53.15262" lon="-6.886585"><ele>90.5</ele><time>2026-05-05T08:28:50.213Z</time></trkpt><trkpt lat="53.15252" lon="-6.8870883"><ele>91.0</ele><time>2026-05-05T08:28:51.213Z</time></trkpt><trkpt lat="53.152445" lon="-6.8875833"><ele>91.5</ele><time>2026-05-05T08:28:52.213Z</time></trkpt><trkpt lat="53.1523783" lon="-6.8880783"><ele>92.0</ele><time>2026-05-05T08:28:53.213Z</time></trkpt><trkpt lat="53.15231" lon="-6.8885767"><ele>91.0</ele><time>2026-05-05T08:28:54.212Z</time></trkpt><trkpt lat="53.1522433" lon="-6.8890733"><ele>90.0</ele><time>2026-05-05T08:28:55.213Z</time></trkpt><trkpt lat="53.1521767" lon="-6.889575"><ele>90.0</ele><time>2026-05-05T08:28:56.212Z</time></trkpt><trkpt lat="53.1521133" lon="-6.890075"><ele>90.0</ele><time>2026-05-05T08:28:57.213Z</time></trkpt><trkpt lat="53.152055" lon="-6.8905567"><ele>90.0</ele><time>2026-05-05T08:28:58.212Z</time></trkpt><trkpt lat="53.1519967" lon="-6.891045"><ele>90.0</ele><time>2026-05-05T08:28:59.213Z</time></trkpt><trkpt lat="53.15194" lon="-6.89155"><ele>91.0</ele><time>2026-05-05T08:29:00.212Z</time></trkpt><trkpt lat="53.1518783" lon="-6.892045"><ele>92.0</ele><time>2026-05-05T08:29:01.213Z</time></trkpt><trkpt lat="53.1518233" lon="-6.8925433"><ele>92.5</ele><time>2026-05-05T08:29:02.213Z</time></trkpt><trkpt lat="53.1517733" lon="-6.89305"><ele>93.0</ele><time>2026-05-05T08:29:03.213Z</time></trkpt><trkpt lat="53.1517133" lon="-6.8935533"><ele>93.0</ele><time>2026-05-05T08:29:04.213Z</time></trkpt><trkpt lat="53.1516667" lon="-6.894065"><ele>93.0</ele><time>2026-05-05T08:29:05.212Z</time></trkpt><trkpt lat="53.1516267" lon="-6.8945783"><ele>92.5</ele><time>2026-05-05T08:29:06.213Z</time></trkpt><trkpt lat="53.1515883" lon="-6.8951"><ele>92.0</ele><time>2026-05-05T08:29:07.213Z</time></trkpt><trkpt lat="53.1515467" lon="-6.8956"><ele>90.0</ele><time>2026-05-05T08:29:08.213Z</time></trkpt><trkpt lat="53.1515017" lon="-6.896085"><ele>88.0</ele><time>2026-05-05T08:29:09.213Z</time></trkpt><trkpt lat="53.1514667" lon="-6.8965683"><ele>88.5</ele><time>2026-05-05T08:29:10.212Z</time></trkpt><trkpt lat="53.1514367" lon="-6.8970517"><ele>89.0</ele><time>2026-05-05T08:29:11.212Z</time></trkpt><trkpt lat="53.1514067" lon="-6.8975117"><ele>89.0</ele><time>2026-05-05T08:29:12.212Z</time></trkpt><trkpt lat="53.1513783" lon="-6.8979717"><ele>89.0</ele><time>2026-05-05T08:29:13.213Z</time></trkpt><trkpt lat="53.1513683" lon="-6.8984517"><ele>89.0</ele><time>2026-05-05T08:29:14.213Z</time></trkpt><trkpt lat="53.1513467" lon="-6.8988767"><ele>89.0</ele><time>2026-05-05T08:29:15.213Z</time></trkpt><trkpt lat="53.15131" lon="-6.899325"><ele>89.0</ele><time>2026-05-05T08:29:16.212Z</time></trkpt><trkpt lat="53.151285" lon="-6.8997917"><ele>89.0</ele><time>2026-05-05T08:29:17.212Z</time></trkpt><trkpt lat="53.1512667" lon="-6.9002433"><ele>89.0</ele><time>2026-05-05T08:29:18.213Z</time></trkpt><trkpt lat="53.1512417" lon="-6.9006983"><ele>89.0</ele><time>2026-05-05T08:29:19.212Z</time></trkpt><trkpt lat="53.1512333" lon="-6.9011517"><ele>89.0</ele><time>2026-05-05T08:29:20.213Z</time></trkpt><trkpt lat="53.1512233" lon="-6.901605"><ele>89.0</ele><time>2026-05-05T08:29:21.213Z</time></trkpt><trkpt lat="53.15121" lon="-6.9020617"><ele>89.0</ele><time>2026-05-05T08:29:22.212Z</time></trkpt><trkpt lat="53.1511883" lon="-6.9025383"><ele>89.0</ele><time>2026-05-05T08:29:23.213Z</time></trkpt><trkpt lat="53.1511817" lon="-6.90304"><ele>87.5</ele><time>2026-05-05T08:29:24.213Z</time></trkpt><trkpt lat="53.15117" lon="-6.9035417"><ele>86.0</ele><time>2026-05-05T08:29:25.213Z</time></trkpt><trkpt lat="53.1511617" lon="-6.9040433"><ele>86.5</ele><time>2026-05-05T08:29:26.213Z</time></trkpt><trkpt lat="53.151155" lon="-6.9045333"><ele>87.0</ele><time>2026-05-05T08:29:27.212Z</time></trkpt><trkpt lat="53.1511533" lon="-6.905025"><ele>87.0</ele><time>2026-05-05T08:29:28.213Z</time></trkpt><trkpt lat="53.1511533" lon="-6.9055183"><ele>87.0</ele><time>2026-05-05T08:29:29.213Z</time></trkpt><trkpt lat="53.1511567" lon="-6.9059933"><ele>87.5</ele><time>2026-05-05T08:29:30.212Z</time></trkpt><trkpt lat="53.15117" lon="-6.9064583"><ele>88.0</ele><time>2026-05-05T08:29:31.213Z</time></trkpt><trkpt lat="53.1511567" lon="-6.9069367"><ele>88.5</ele><time>2026-05-05T08:29:32.213Z</time></trkpt><trkpt lat="53.1511567" lon="-6.90738"><ele>89.0</ele><time>2026-05-05T08:29:33.213Z</time></trkpt><trkpt lat="53.1511683" lon="-6.9077967"><ele>89.0</ele><time>2026-05-05T08:29:34.212Z</time></trkpt><trkpt lat="53.1511817" lon="-6.9082067"><ele>89.0</ele><time>2026-05-05T08:29:35.213Z</time></trkpt><trkpt lat="53.1512" lon="-6.908625"><ele>89.5</ele><time>2026-05-05T08:29:36.212Z</time></trkpt><trkpt lat="53.1512183" lon="-6.909045"><ele>90.0</ele><time>2026-05-05T08:29:37.213Z</time></trkpt><trkpt lat="53.1512433" lon="-6.90948"><ele>90.5</ele><time>2026-05-05T08:29:38.213Z</time></trkpt><trkpt lat="53.151265" lon="-6.9099283"><ele>91.0</ele><time>2026-05-05T08:29:39.212Z</time></trkpt><trkpt lat="53.1512817" lon="-6.9103783"><ele>91.0</ele><time>2026-05-05T08:29:40.213Z</time></trkpt><trkpt lat="53.1513117" lon="-6.9108467"><ele>91.0</ele><time>2026-05-05T08:29:41.213Z</time></trkpt><trkpt lat="53.1513317" lon="-6.9113133"><ele>90.0</ele><time>2026-05-05T08:29:42.212Z</time></trkpt><trkpt lat="53.1513567" lon="-6.9117867"><ele>89.0</ele><time>2026-05-05T08:29:43.213Z</time></trkpt><trkpt lat="53.1513817" lon="-6.9122733"><ele>89.0</ele><time>2026-05-05T08:29:44.213Z</time></trkpt><trkpt lat="53.1514033" lon="-6.9127617"><ele>89.0</ele><time>2026-05-05T08:29:45.212Z</time></trkpt><trkpt lat="53.15143" lon="-6.913215"><ele>89.5</ele><time>2026-05-05T08:29:46.213Z</time></trkpt><trkpt lat="53.15146" lon="-6.9136833"><ele>90.0</ele><time>2026-05-05T08:29:47.212Z</time></trkpt><trkpt lat="53.1514867" lon="-6.9141817"><ele>90.0</ele><time>2026-05-05T08:29:48.213Z</time></trkpt><trkpt lat="53.1515217" lon="-6.9146583"><ele>90.0</ele><time>2026-05-05T08:29:49.213Z</time></trkpt><trkpt lat="53.1515583" lon="-6.91514"><ele>90.0</ele><time>2026-05-05T08:29:50.213Z</time></trkpt><trkpt lat="53.1515967" lon="-6.915605"><ele>90.0</ele><time>2026-05-05T08:29:51.213Z</time></trkpt><trkpt lat="53.151635" lon="-6.9160833"><ele>89.5</ele><time>2026-05-05T08:29:52.212Z</time></trkpt><trkpt lat="53.1516733" lon="-6.9165383"><ele>89.0</ele><time>2026-05-05T08:29:53.212Z</time></trkpt><trkpt lat="53.15172" lon="-6.916975"><ele>88.5</ele><time>2026-05-05T08:29:54.213Z</time></trkpt><trkpt lat="53.1517667" lon="-6.9174117"><ele>88.0</ele><time>2026-05-05T08:29:55.213Z</time></trkpt><trkpt lat="53.1518183" lon="-6.917855"><ele>88.0</ele><time>2026-05-05T08:29:56.213Z</time></trkpt><trkpt lat="53.15186" lon="-6.9182817"><ele>88.0</ele><time>2026-05-05T08:29:57.213Z</time></trkpt><trkpt lat="53.1519083" lon="-6.91871"><ele>88.0</ele><time>2026-05-05T08:29:58.213Z</time></trkpt><trkpt lat="53.1519617" lon="-6.9191783"><ele>88.0</ele><time>2026-05-05T08:29:59.213Z</time></trkpt><trkpt lat="53.15202" lon="-6.9196217"><ele>88.0</ele><time>2026-05-05T08:30:00.213Z</time></trkpt><trkpt lat="53.15208" lon="-6.92011"><ele>88.0</ele><time>2026-05-05T08:30:01.212Z</time></trkpt><trkpt lat="53.1521383" lon="-6.92058"><ele>88.5</ele><time>2026-05-05T08:30:02.212Z</time></trkpt><trkpt lat="53.1521917" lon="-6.9210217"><ele>89.0</ele><time>2026-05-05T08:30:03.212Z</time></trkpt><trkpt lat="53.152245" lon="-6.9214733"><ele>89.5</ele><time>2026-05-05T08:30:04.213Z</time></trkpt><trkpt lat="53.15231" lon="-6.921925"><ele>90.0</ele><time>2026-05-05T08:30:05.213Z</time></trkpt><trkpt lat="53.152375" lon="-6.922365"><ele>89.5</ele><time>2026-05-05T08:30:06.212Z</time></trkpt><trkpt lat="53.1524367" lon="-6.92282"><ele>89.0</ele><time>2026-05-05T08:30:07.212Z</time></trkpt><trkpt lat="53.1524917" lon="-6.9232567"><ele>89.0</ele><time>2026-05-05T08:30:08.213Z</time></trkpt><trkpt lat="53.15255" lon="-6.9237233"><ele>89.0</ele><time>2026-05-05T08:30:09.213Z</time></trkpt><trkpt lat="53.1526117" lon="-6.92418"><ele>89.0</ele><time>2026-05-05T08:30:10.212Z</time></trkpt><trkpt lat="53.15267" lon="-6.9246333"><ele>89.0</ele><time>2026-05-05T08:30:11.213Z</time></trkpt><trkpt lat="53.15273" lon="-6.9250867"><ele>89.0</ele><time>2026-05-05T08:30:12.213Z</time></trkpt><trkpt lat="53.152795" lon="-6.9255383"><ele>89.0</ele><time>2026-05-05T08:30:13.212Z</time></trkpt><trkpt lat="53.1528617" lon="-6.9259917"><ele>88.5</ele><time>2026-05-05T08:30:14.212Z</time></trkpt><trkpt lat="53.1529217" lon="-6.9264467"><ele>88.0</ele><time>2026-05-05T08:30:15.212Z</time></trkpt><trkpt lat="53.1529617" lon="-6.9268983"><ele>88.0</ele><time>2026-05-05T08:30:16.212Z</time></trkpt><trkpt lat="53.1530217" lon="-6.9273583"><ele>88.0</ele><time>2026-05-05T08:30:17.213Z</time></trkpt><trkpt lat="53.1530817" lon="-6.92782"><ele>88.0</ele><time>2026-05-05T08:30:18.212Z</time></trkpt><trkpt lat="53.15314" lon="-6.9282833"><ele>88.0</ele><time>2026-05-05T08:30:19.213Z</time></trkpt><trkpt lat="53.153195" lon="-6.9287317"><ele>88.5</ele><time>2026-05-05T08:30:20.213Z</time></trkpt><trkpt lat="53.153255" lon="-6.9291867"><ele>89.0</ele><time>2026-05-05T08:30:21.213Z</time></trkpt><trkpt lat="53.1533167" lon="-6.9296317"><ele>90.0</ele><time>2026-05-05T08:30:22.213Z</time></trkpt><trkpt lat="53.153365" lon="-6.930065"><ele>91.0</ele><time>2026-05-05T08:30:23.212Z</time></trkpt><trkpt lat="53.1534267" lon="-6.930525"><ele>90.5</ele><time>2026-05-05T08:30:24.212Z</time></trkpt><trkpt lat="53.1534767" lon="-6.9309567"><ele>90.0</ele><time>2026-05-05T08:30:25.212Z</time></trkpt><trkpt lat="53.1535433" lon="-6.93138"><ele>89.0</ele><time>2026-05-05T08:30:26.212Z</time></trkpt><trkpt lat="53.153605" lon="-6.9318183"><ele>88.0</ele><time>2026-05-05T08:30:27.213Z</time></trkpt><trkpt lat="53.1536733" lon="-6.9322667"><ele>88.0</ele><time>2026-05-05T08:30:28.213Z</time></trkpt><trkpt lat="53.15374" lon="-6.932705"><ele>88.0</ele><time>2026-05-05T08:30:29.213Z</time></trkpt><trkpt lat="53.1538" lon="-6.9331533"><ele>88.0</ele><time>2026-05-05T08:30:30.213Z</time></trkpt><trkpt lat="53.153855" lon="-6.9335967"><ele>88.0</ele><time>2026-05-05T08:30:31.213Z</time></trkpt><trkpt lat="53.1539233" lon="-6.93404"><ele>88.5</ele><time>2026-05-05T08:30:32.213Z</time></trkpt><trkpt lat="53.1539783" lon="-6.934465"><ele>89.0</ele><time>2026-05-05T08:30:33.212Z</time></trkpt><trkpt lat="53.1540383" lon="-6.934895"><ele>90.0</ele><time>2026-05-05T08:30:34.212Z</time></trkpt><trkpt lat="53.1540983" lon="-6.9353383"><ele>91.0</ele><time>2026-05-05T08:30:35.213Z</time></trkpt><trkpt lat="53.1541433" lon="-6.9357833"><ele>91.0</ele><time>2026-05-05T08:30:36.213Z</time></trkpt><trkpt lat="53.1541833" lon="-6.9362433"><ele>91.0</ele><time>2026-05-05T08:30:37.213Z</time></trkpt><trkpt lat="53.154215" lon="-6.936705"><ele>91.5</ele><time>2026-05-05T08:30:38.213Z</time></trkpt><trkpt lat="53.1542517" lon="-6.9371717"><ele>92.0</ele><time>2026-05-05T08:30:39.212Z</time></trkpt><trkpt lat="53.1542917" lon="-6.9376367"><ele>92.0</ele><time>2026-05-05T08:30:40.212Z</time></trkpt><trkpt lat="53.1543333" lon="-6.9381117"><ele>92.0</ele><time>2026-05-05T08:30:41.213Z</time></trkpt><trkpt lat="53.1543767" lon="-6.93859"><ele>92.0</ele><time>2026-05-05T08:30:42.213Z</time></trkpt><trkpt lat="53.1544183" lon="-6.93907"><ele>92.0</ele><time>2026-05-05T08:30:43.212Z</time></trkpt><trkpt lat="53.15445" lon="-6.9395583"><ele>91.0</ele><time>2026-05-05T08:30:44.213Z</time></trkpt><trkpt lat="53.1544867" lon="-6.94007"><ele>90.0</ele><time>2026-05-05T08:30:45.213Z</time></trkpt><trkpt lat="53.1545317" lon="-6.940575"><ele>90.5</ele><time>2026-05-05T08:30:46.212Z</time></trkpt><trkpt lat="53.1545783" lon="-6.9411033"><ele>91.0</ele><time>2026-05-05T08:30:47.213Z</time></trkpt><trkpt lat="53.1545933" lon="-6.94164"><ele>90.5</ele><time>2026-05-05T08:30:48.212Z</time></trkpt><trkpt lat="53.15461" lon="-6.942175"><ele>90.0</ele><time>2026-05-05T08:30:49.213Z</time></trkpt><trkpt lat="53.15464" lon="-6.9427017"><ele>89.5</ele><time>2026-05-05T08:30:50.213Z</time></trkpt><trkpt lat="53.1546567" lon="-6.9432267"><ele>89.0</ele><time>2026-05-05T08:30:51.212Z</time></trkpt><trkpt lat="53.1546617" lon="-6.9437517"><ele>88.0</ele><time>2026-05-05T08:30:52.213Z</time></trkpt><trkpt lat="53.1546767" lon="-6.9442733"><ele>87.0</ele><time>2026-05-05T08:30:53.213Z</time></trkpt><trkpt lat="53.1546833" lon="-6.9447933"><ele>86.5</ele><time>2026-05-05T08:30:54.213Z</time></trkpt><trkpt lat="53.154685" lon="-6.945325"><ele>86.0</ele><time>2026-05-05T08:30:55.213Z</time></trkpt><trkpt lat="53.154685" lon="-6.9458483"><ele>86.0</ele><time>2026-05-05T08:30:56.213Z</time></trkpt><trkpt lat="53.1546767" lon="-6.9463717"><ele>86.0</ele><time>2026-05-05T08:30:57.213Z</time></trkpt><trkpt lat="53.1546683" lon="-6.9468883"><ele>86.0</ele><time>2026-05-05T08:30:58.212Z</time></trkpt><trkpt lat="53.15467" lon="-6.9474083"><ele>86.0</ele><time>2026-05-05T08:30:59.212Z</time></trkpt><trkpt lat="53.1546717" lon="-6.9479217"><ele>86.0</ele><time>2026-05-05T08:31:00.212Z</time></trkpt><trkpt lat="53.1546717" lon="-6.9484467"><ele>86.0</ele><time>2026-05-05T08:31:01.213Z</time></trkpt><trkpt lat="53.1546683" lon="-6.9489417"><ele>86.5</ele><time>2026-05-05T08:31:02.212Z</time></trkpt><trkpt lat="53.1546533" lon="-6.9494217"><ele>87.0</ele><time>2026-05-05T08:31:03.212Z</time></trkpt><trkpt lat="53.15464" lon="-6.9499"><ele>86.5</ele><time>2026-05-05T08:31:04.212Z</time></trkpt><trkpt lat="53.1546217" lon="-6.9503467"><ele>86.0</ele><time>2026-05-05T08:31:05.213Z</time></trkpt><trkpt lat="53.154595" lon="-6.95081"><ele>86.0</ele><time>2026-05-05T08:31:06.212Z</time></trkpt><trkpt lat="53.1545683" lon="-6.951265"><ele>86.0</ele><time>2026-05-05T08:31:07.213Z</time></trkpt><trkpt lat="53.154545" lon="-6.951715"><ele>86.0</ele><time>2026-05-05T08:31:08.213Z</time></trkpt><trkpt lat="53.1545117" lon="-6.9521717"><ele>86.0</ele><time>2026-05-05T08:31:09.212Z</time></trkpt><trkpt lat="53.154485" lon="-6.95265"><ele>85.0</ele><time>2026-05-05T08:31:10.212Z</time></trkpt><trkpt lat="53.154455" lon="-6.9531333"><ele>84.0</ele><time>2026-05-05T08:31:11.213Z</time></trkpt><trkpt lat="53.1544217" lon="-6.9536283"><ele>84.0</ele><time>2026-05-05T08:31:12.212Z</time></trkpt><trkpt lat="53.15438" lon="-6.9541167"><ele>84.0</ele><time>2026-05-05T08:31:13.212Z</time></trkpt><trkpt lat="53.1543367" lon="-6.95458"><ele>83.5</ele><time>2026-05-05T08:31:14.212Z</time></trkpt><trkpt lat="53.1543017" lon="-6.9550483"><ele>83.0</ele><time>2026-05-05T08:31:15.213Z</time></trkpt><trkpt lat="53.1542583" lon="-6.95553"><ele>84.0</ele><time>2026-05-05T08:31:16.213Z</time></trkpt><trkpt lat="53.154215" lon="-6.9560167"><ele>85.0</ele><time>2026-05-05T08:31:17.212Z</time></trkpt><trkpt lat="53.154155" lon="-6.9565"><ele>84.5</ele><time>2026-05-05T08:31:18.213Z</time></trkpt><trkpt lat="53.1541" lon="-6.9569917"><ele>84.0</ele><time>2026-05-05T08:31:19.213Z</time></trkpt><trkpt lat="53.154045" lon="-6.9574717"><ele>84.0</ele><time>2026-05-05T08:31:20.212Z</time></trkpt><trkpt lat="53.1539883" lon="-6.9579533"><ele>84.0</ele><time>2026-05-05T08:31:21.213Z</time></trkpt><trkpt lat="53.153935" lon="-6.9584467"><ele>83.5</ele><time>2026-05-05T08:31:22.212Z</time></trkpt><trkpt lat="53.1538833" lon="-6.958915"><ele>83.0</ele><time>2026-05-05T08:31:23.212Z</time></trkpt><trkpt lat="53.1538183" lon="-6.9593867"><ele>83.0</ele><time>2026-05-05T08:31:24.212Z</time></trkpt><trkpt lat="53.15375" lon="-6.95986"><ele>83.0</ele><time>2026-05-05T08:31:25.212Z</time></trkpt><trkpt lat="53.1536783" lon="-6.96035"><ele>83.0</ele><time>2026-05-05T08:31:26.213Z</time></trkpt><trkpt lat="53.153605" lon="-6.960835"><ele>83.0</ele><time>2026-05-05T08:31:27.213Z</time></trkpt><trkpt lat="53.1535267" lon="-6.9613183"><ele>83.5</ele><time>2026-05-05T08:31:28.213Z</time></trkpt><trkpt lat="53.1534617" lon="-6.9617883"><ele>84.0</ele><time>2026-05-05T08:31:29.212Z</time></trkpt><trkpt lat="53.1534" lon="-6.9622667"><ele>83.5</ele><time>2026-05-05T08:31:30.213Z</time></trkpt><trkpt lat="53.1533367" lon="-6.9627383"><ele>83.0</ele><time>2026-05-05T08:31:31.212Z</time></trkpt><trkpt lat="53.1532683" lon="-6.9632117"><ele>81.5</ele><time>2026-05-05T08:31:32.213Z</time></trkpt><trkpt lat="53.1531967" lon="-6.9636783"><ele>80.0</ele><time>2026-05-05T08:31:33.212Z</time></trkpt><trkpt lat="53.1531317" lon="-6.9641567"><ele>80.0</ele><time>2026-05-05T08:31:34.212Z</time></trkpt><trkpt lat="53.1530733" lon="-6.9646283"><ele>80.0</ele><time>2026-05-05T08:31:35.213Z</time></trkpt><trkpt lat="53.153015" lon="-6.9650933"><ele>80.5</ele><time>2026-05-05T08:31:36.213Z</time></trkpt><trkpt lat="53.1529467" lon="-6.9655583"><ele>81.0</ele><time>2026-05-05T08:31:37.213Z</time></trkpt><trkpt lat="53.1528767" lon="-6.96602"><ele>81.5</ele><time>2026-05-05T08:31:38.212Z</time></trkpt><trkpt lat="53.1528083" lon="-6.9664917"><ele>82.0</ele><time>2026-05-05T08:31:39.213Z</time></trkpt><trkpt lat="53.1527467" lon="-6.9669783"><ele>82.5</ele><time>2026-05-05T08:31:40.213Z</time></trkpt><trkpt lat="53.152675" lon="-6.9674683"><ele>83.0</ele><time>2026-05-05T08:31:41.213Z</time></trkpt><trkpt lat="53.1526" lon="-6.9679533"><ele>82.5</ele><time>2026-05-05T08:31:42.213Z</time></trkpt><trkpt lat="53.1525233" lon="-6.968435"><ele>82.0</ele><time>2026-05-05T08:31:43.213Z</time></trkpt><trkpt lat="53.1524533" lon="-6.9689183"><ele>81.5</ele><time>2026-05-05T08:31:44.213Z</time></trkpt><trkpt lat="53.1523883" lon="-6.9694017"><ele>81.0</ele><time>2026-05-05T08:31:45.212Z</time></trkpt><trkpt lat="53.15233" lon="-6.96988"><ele>79.5</ele><time>2026-05-05T08:31:46.212Z</time></trkpt><trkpt lat="53.1522633" lon="-6.9703617"><ele>78.0</ele><time>2026-05-05T08:31:47.213Z</time></trkpt><trkpt lat="53.1521967" lon="-6.9708317"><ele>77.5</ele><time>2026-05-05T08:31:48.213Z</time></trkpt><trkpt lat="53.1521267" lon="-6.9713083"><ele>77.0</ele><time>2026-05-05T08:31:49.213Z</time></trkpt><trkpt lat="53.1520617" lon="-6.971785"><ele>77.0</ele><time>2026-05-05T08:31:50.213Z</time></trkpt><trkpt lat="53.1519933" lon="-6.9722683"><ele>77.0</ele><time>2026-05-05T08:31:51.213Z</time></trkpt><trkpt lat="53.15193" lon="-6.9727633"><ele>77.0</ele><time>2026-05-05T08:31:52.213Z</time></trkpt><trkpt lat="53.151865" lon="-6.9732483"><ele>77.0</ele><time>2026-05-05T08:31:53.213Z</time></trkpt><trkpt lat="53.1517967" lon="-6.9737267"><ele>77.0</ele><time>2026-05-05T08:31:54.213Z</time></trkpt><trkpt lat="53.1517217" lon="-6.9741983"><ele>77.0</ele><time>2026-05-05T08:31:55.212Z</time></trkpt><trkpt lat="53.1516567" lon="-6.97467"><ele>77.0</ele><time>2026-05-05T08:31:56.213Z</time></trkpt><trkpt lat="53.1515917" lon="-6.9751333"><ele>77.0</ele><time>2026-05-05T08:31:57.212Z</time></trkpt><trkpt lat="53.15153" lon="-6.9756017"><ele>76.0</ele><time>2026-05-05T08:31:58.213Z</time></trkpt><trkpt lat="53.15147" lon="-6.9760667"><ele>75.0</ele><time>2026-05-05T08:31:59.212Z</time></trkpt><trkpt lat="53.151405" lon="-6.97654"><ele>75.5</ele><time>2026-05-05T08:32:00.213Z</time></trkpt><trkpt lat="53.151335" lon="-6.9770017"><ele>76.0</ele><time>2026-05-05T08:32:01.213Z</time></trkpt><trkpt lat="53.151265" lon="-6.9774617"><ele>77.0</ele><time>2026-05-05T08:32:02.213Z</time></trkpt><trkpt lat="53.1511983" lon="-6.977915"><ele>78.0</ele><time>2026-05-05T08:32:03.213Z</time></trkpt><trkpt lat="53.15114" lon="-6.9783683"><ele>78.5</ele><time>2026-05-05T08:32:04.213Z</time></trkpt><trkpt lat="53.151075" lon="-6.9788233"><ele>79.0</ele><time>2026-05-05T08:32:05.213Z</time></trkpt><trkpt lat="53.15101" lon="-6.9792733"><ele>79.0</ele><time>2026-05-05T08:32:06.213Z</time></trkpt><trkpt lat="53.150945" lon="-6.9797317"><ele>79.0</ele><time>2026-05-05T08:32:07.213Z</time></trkpt><trkpt lat="53.1508833" lon="-6.9801967"><ele>78.0</ele><time>2026-05-05T08:32:08.213Z</time></trkpt><trkpt lat="53.1508117" lon="-6.9806833"><ele>77.0</ele><time>2026-05-05T08:32:09.212Z</time></trkpt><trkpt lat="53.1507517" lon="-6.9811617"><ele>75.5</ele><time>2026-05-05T08:32:10.213Z</time></trkpt><trkpt lat="53.150695" lon="-6.9816283"><ele>74.0</ele><time>2026-05-05T08:32:11.213Z</time></trkpt><trkpt lat="53.1506267" lon="-6.9821"><ele>72.5</ele><time>2026-05-05T08:32:12.213Z</time></trkpt><trkpt lat="53.1505567" lon="-6.98257"><ele>71.0</ele><time>2026-05-05T08:32:13.213Z</time></trkpt><trkpt lat="53.1504933" lon="-6.9830283"><ele>70.5</ele><time>2026-05-05T08:32:14.212Z</time></trkpt><trkpt lat="53.1504167" lon="-6.9835017"><ele>70.0</ele><time>2026-05-05T08:32:15.213Z</time></trkpt><trkpt lat="53.1503517" lon="-6.9839717"><ele>71.0</ele><time>2026-05-05T08:32:16.212Z</time></trkpt><trkpt lat="53.1502833" lon="-6.9844333"><ele>72.0</ele><time>2026-05-05T08:32:17.213Z</time></trkpt><trkpt lat="53.1502067" lon="-6.9849133"><ele>72.0</ele><time>2026-05-05T08:32:18.213Z</time></trkpt><trkpt lat="53.1501333" lon="-6.9853817"><ele>72.0</ele><time>2026-05-05T08:32:19.213Z</time></trkpt><trkpt lat="53.1500583" lon="-6.9858517"><ele>72.0</ele><time>2026-05-05T08:32:20.212Z</time></trkpt><trkpt lat="53.1499917" lon="-6.9863217"><ele>72.0</ele><time>2026-05-05T08:32:21.213Z</time></trkpt><trkpt lat="53.14992" lon="-6.9867967"><ele>71.5</ele><time>2026-05-05T08:32:22.213Z</time></trkpt><trkpt lat="53.14985" lon="-6.98728"><ele>71.0</ele><time>2026-05-05T08:32:23.213Z</time></trkpt><trkpt lat="53.1497817" lon="-6.9877583"><ele>71.0</ele><time>2026-05-05T08:32:24.212Z</time></trkpt><trkpt lat="53.14972" lon="-6.9882183"><ele>71.0</ele><time>2026-05-05T08:32:25.212Z</time></trkpt><trkpt lat="53.1496683" lon="-6.9886483"><ele>71.0</ele><time>2026-05-05T08:32:26.213Z</time></trkpt><trkpt lat="53.1496183" lon="-6.989075"><ele>71.0</ele><time>2026-05-05T08:32:27.213Z</time></trkpt><trkpt lat="53.1495617" lon="-6.9895017"><ele>71.0</ele><time>2026-05-05T08:32:28.213Z</time></trkpt><trkpt lat="53.1495083" lon="-6.9899317"><ele>71.0</ele><time>2026-05-05T08:32:29.212Z</time></trkpt><trkpt lat="53.149455" lon="-6.9903683"><ele>71.0</ele><time>2026-05-05T08:32:30.213Z</time></trkpt><trkpt lat="53.1494033" lon="-6.9908217"><ele>71.0</ele><time>2026-05-05T08:32:31.213Z</time></trkpt><trkpt lat="53.1493467" lon="-6.9912667"><ele>71.0</ele><time>2026-05-05T08:32:32.212Z</time></trkpt><trkpt lat="53.149285" lon="-6.99172"><ele>71.0</ele><time>2026-05-05T08:32:33.213Z</time></trkpt><trkpt lat="53.1492217" lon="-6.99217"><ele>71.0</ele><time>2026-05-05T08:32:34.213Z</time></trkpt><trkpt lat="53.1491533" lon="-6.992625"><ele>71.0</ele><time>2026-05-05T08:32:35.212Z</time></trkpt><trkpt lat="53.14908" lon="-6.9930783"><ele>71.0</ele><time>2026-05-05T08:32:36.213Z</time></trkpt><trkpt lat="53.1490167" lon="-6.9935267"><ele>71.0</ele><time>2026-05-05T08:32:37.212Z</time></trkpt><trkpt lat="53.1489483" lon="-6.993975"><ele>71.0</ele><time>2026-05-05T08:32:38.212Z</time></trkpt><trkpt lat="53.1488817" lon="-6.9944117"><ele>71.0</ele><time>2026-05-05T08:32:39.212Z</time></trkpt><trkpt lat="53.14882" lon="-6.9948233"><ele>71.5</ele><time>2026-05-05T08:32:40.212Z</time></trkpt><trkpt lat="53.1487683" lon="-6.9952133"><ele>72.0</ele><time>2026-05-05T08:32:41.212Z</time></trkpt><trkpt lat="53.148705" lon="-6.9956133"><ele>74.0</ele><time>2026-05-05T08:32:42.213Z</time></trkpt><trkpt lat="53.1486417" lon="-6.996035"><ele>76.0</ele><time>2026-05-05T08:32:43.213Z</time></trkpt><trkpt lat="53.1485817" lon="-6.9964467"><ele>78.0</ele><time>2026-05-05T08:32:44.213Z</time></trkpt><trkpt lat="53.148525" lon="-6.996855"><ele>80.0</ele><time>2026-05-05T08:32:45.212Z</time></trkpt><trkpt lat="53.1484633" lon="-6.9972717"><ele>80.0</ele><time>2026-05-05T08:32:46.213Z</time></trkpt><trkpt lat="53.148405" lon="-6.9976933"><ele>80.0</ele><time>2026-05-05T08:32:47.213Z</time></trkpt><trkpt lat="53.14835" lon="-6.998095"><ele>79.5</ele><time>2026-05-05T08:32:48.213Z</time></trkpt><trkpt lat="53.148285" lon="-6.9984867"><ele>79.0</ele><time>2026-05-05T08:32:49.213Z</time></trkpt><trkpt lat="53.1482333" lon="-6.99885"><ele>79.33333333333333</ele><time>2026-05-05T08:32:50.213Z</time></trkpt><trkpt lat="53.1481767" lon="-6.999205"><ele>79.66666666666667</ele><time>2026-05-05T08:32:51.213Z</time></trkpt><trkpt lat="53.1481217" lon="-6.999575"><ele>80.0</ele><time>2026-05-05T08:32:52.213Z</time></trkpt><trkpt lat="53.1480583" lon="-6.9999533"><ele>80.0</ele><time>2026-05-05T08:32:53.212Z</time></trkpt><trkpt lat="53.148005" lon="-7.0003417"><ele>80.0</ele><time>2026-05-05T08:32:54.213Z</time></trkpt><trkpt lat="53.1479583" lon="-7.0007233"><ele>80.5</ele><time>2026-05-05T08:32:55.213Z</time></trkpt><trkpt lat="53.1479083" lon="-7.001095"><ele>81.0</ele><time>2026-05-05T08:32:56.213Z</time></trkpt><trkpt lat="53.1478617" lon="-7.0014733"><ele>80.0</ele><time>2026-05-05T08:32:57.212Z</time></trkpt><trkpt lat="53.1478183" lon="-7.0018583"><ele>79.0</ele><time>2026-05-05T08:32:58.213Z</time></trkpt><trkpt lat="53.1477683" lon="-7.0022483"><ele>77.5</ele><time>2026-05-05T08:32:59.212Z</time></trkpt><trkpt lat="53.1477117" lon="-7.002645"><ele>76.0</ele><time>2026-05-05T08:33:00.213Z</time></trkpt><trkpt lat="53.1476567" lon="-7.0030433"><ele>75.0</ele><time>2026-05-05T08:33:01.213Z</time></trkpt><trkpt lat="53.1476033" lon="-7.003415"><ele>74.0</ele><time>2026-05-05T08:33:02.213Z</time></trkpt><trkpt lat="53.1475517" lon="-7.003775"><ele>74.0</ele><time>2026-05-05T08:33:03.213Z</time></trkpt><trkpt lat="53.1475033" lon="-7.00411"><ele>74.0</ele><time>2026-05-05T08:33:04.213Z</time></trkpt><trkpt lat="53.1474567" lon="-7.0044317"><ele>74.0</ele><time>2026-05-05T08:33:05.213Z</time></trkpt><trkpt lat="53.1474117" lon="-7.0047383"><ele>73.66666666666667</ele><time>2026-05-05T08:33:06.213Z</time></trkpt><trkpt lat="53.147375" lon="-7.0050483"><ele>73.33333333333333</ele><time>2026-05-05T08:33:07.213Z</time></trkpt><trkpt lat="53.147335" lon="-7.0053517"><ele>73.0</ele><time>2026-05-05T08:33:08.212Z</time></trkpt><trkpt lat="53.1472917" lon="-7.005665"><ele>72.66666666666666</ele><time>2026-05-05T08:33:09.213Z</time></trkpt><trkpt lat="53.14725" lon="-7.0059833"><ele>72.33333333333333</ele><time>2026-05-05T08:33:10.212Z</time></trkpt><trkpt lat="53.1472033" lon="-7.0063067"><ele>72.0</ele><time>2026-05-05T08:33:11.213Z</time></trkpt><trkpt lat="53.147155" lon="-7.00665"><ele>72.0</ele><time>2026-05-05T08:33:12.213Z</time></trkpt><trkpt lat="53.1471067" lon="-7.0069983"><ele>72.0</ele><time>2026-05-05T08:33:13.213Z</time></trkpt><trkpt lat="53.1470533" lon="-7.00735"><ele>72.0</ele><time>2026-05-05T08:33:14.213Z</time></trkpt><trkpt lat="53.1469983" lon="-7.00769"><ele>72.0</ele><time>2026-05-05T08:33:15.213Z</time></trkpt><trkpt lat="53.1469517" lon="-7.00801"><ele>72.0</ele><time>2026-05-05T08:33:16.213Z</time></trkpt><trkpt lat="53.1469067" lon="-7.008335"><ele>72.0</ele><time>2026-05-05T08:33:17.214Z</time></trkpt><trkpt lat="53.1468583" lon="-7.0086133"><ele>72.33333333333333</ele><time>2026-05-05T08:33:18.213Z</time></trkpt><trkpt lat="53.14681" lon="-7.0088867"><ele>72.66666666666666</ele><time>2026-05-05T08:33:19.214Z</time></trkpt><trkpt lat="53.1467533" lon="-7.0091683"><ele>73.0</ele><time>2026-05-05T08:33:20.214Z</time></trkpt><trkpt lat="53.146705" lon="-7.0094483"><ele>73.0</ele><time>2026-05-05T08:33:21.214Z</time></trkpt><trkpt lat="53.14665" lon="-7.0097333"><ele>73.0</ele><time>2026-05-05T08:33:22.214Z</time></trkpt><trkpt lat="53.1465883" lon="-7.010025"><ele>73.0</ele><time>2026-05-05T08:33:23.213Z</time></trkpt><trkpt lat="53.1465233" lon="-7.010345"><ele>73.66666666666666</ele><time>2026-05-05T08:33:24.213Z</time></trkpt><trkpt lat="53.1464567" lon="-7.01068"><ele>74.33333333333333</ele><time>2026-05-05T08:33:25.214Z</time></trkpt><trkpt lat="53.1463717" lon="-7.0110333"><ele>75.0</ele><time>2026-05-05T08:33:26.213Z</time></trkpt><trkpt lat="53.1462833" lon="-7.0113833"><ele>75.66666666666667</ele><time>2026-05-05T08:33:27.213Z</time></trkpt><trkpt lat="53.1462067" lon="-7.0117083"><ele>76.33333333333334</ele><time>2026-05-05T08:33:28.214Z</time></trkpt><trkpt lat="53.1461267" lon="-7.0120217"><ele>77.0</ele><time>2026-05-05T08:33:29.214Z</time></trkpt><trkpt lat="53.146045" lon="-7.0123117"><ele>77.33333333333334</ele><time>2026-05-05T08:33:30.214Z</time></trkpt><trkpt lat="53.145975" lon="-7.0125733"><ele>77.66666666666667</ele><time>2026-05-05T08:33:31.214Z</time></trkpt><trkpt lat="53.1459083" lon="-7.0128133"><ele>78.0</ele><time>2026-05-05T08:33:32.214Z</time></trkpt><trkpt lat="53.1458517" lon="-7.01305"><ele>78.0</ele><time>2026-05-05T08:33:33.213Z</time></trkpt><trkpt lat="53.145795" lon="-7.013275"><ele>78.0</ele><time>2026-05-05T08:33:34.214Z</time></trkpt><trkpt lat="53.1457383" lon="-7.0134667"><ele>78.0</ele><time>2026-05-05T08:33:35.214Z</time></trkpt><trkpt lat="53.1456783" lon="-7.013625"><ele>78.0</ele><time>2026-05-05T08:33:36.214Z</time></trkpt><trkpt lat="53.1456267" lon="-7.01376"><ele>77.6</ele><time>2026-05-05T08:33:37.213Z</time></trkpt><trkpt lat="53.14559" lon="-7.013875"><ele>77.19999999999999</ele><time>2026-05-05T08:33:38.213Z</time></trkpt><trkpt lat="53.14555" lon="-7.0139783"><ele>76.8</ele><time>2026-05-05T08:33:39.213Z</time></trkpt><trkpt lat="53.1454717" lon="-7.0141017"><ele>76.39999999999999</ele><time>2026-05-05T08:33:41.213Z</time></trkpt><trkpt lat="53.1454033" lon="-7.0141733"><ele>76.0</ele><time>2026-05-05T08:33:43.214Z</time></trkpt><trkpt lat="53.1452767" lon="-7.0142117"><ele>76.0</ele><time>2026-05-05T08:33:45.214Z</time></trkpt><trkpt lat="53.1452083" lon="-7.0142217"><ele>76.0</ele><time>2026-05-05T08:33:46.214Z</time></trkpt><trkpt lat="53.1451267" lon="-7.0142167"><ele>76.0</ele><time>2026-05-05T08:33:47.214Z</time></trkpt><trkpt lat="53.14503" lon="-7.0141883"><ele>76.0</ele><time>2026-05-05T08:33:48.214Z</time></trkpt><trkpt lat="53.1449267" lon="-7.0141583"><ele>76.0</ele><time>2026-05-05T08:33:49.214Z</time></trkpt><trkpt lat="53.1448033" lon="-7.0140867"><ele>75.5</ele><time>2026-05-05T08:33:50.213Z</time></trkpt><trkpt lat="53.14468" lon="-7.0140033"><ele>75.0</ele><time>2026-05-05T08:33:51.214Z</time></trkpt><trkpt lat="53.144475" lon="-7.013875"><ele>74.5</ele><time>2026-05-05T08:33:53.214Z</time></trkpt><trkpt lat="53.1444117" lon="-7.013835"><ele>74.0</ele><time>2026-05-05T08:33:54.214Z</time></trkpt><trkpt lat="53.1443083" lon="-7.0137083"><ele>74.0</ele><time>2026-05-05T08:33:56.213Z</time></trkpt><trkpt lat="53.1443" lon="-7.01355"><ele>74.0</ele><time>2026-05-05T08:33:58.213Z</time></trkpt><trkpt lat="53.144365" lon="-7.013415"><ele>74.0</ele><time>2026-05-05T08:33:59.214Z</time></trkpt><trkpt lat="53.144415" lon="-7.0133017"><ele>74.0</ele><time>2026-05-05T08:34:00.213Z</time></trkpt><trkpt lat="53.1444483" lon="-7.013205"><ele>74.0</ele><time>2026-05-05T08:34:01.214Z</time></trkpt><trkpt lat="53.1445017" lon="-7.0130283"><ele>74.16666666666667</ele><time>2026-05-05T08:34:03.213Z</time></trkpt><trkpt lat="53.14454" lon="-7.0129067"><ele>74.33333333333334</ele><time>2026-05-05T08:34:05.213Z</time></trkpt><trkpt lat="53.1446067" lon="-7.0128533"><ele>74.5</ele><time>2026-05-05T08:34:08.214Z</time></trkpt><trkpt lat="53.1446583" lon="-7.012915"><ele>74.66666666666667</ele><time>2026-05-05T08:34:11.214Z</time></trkpt><trkpt lat="53.1446817" lon="-7.013025"><ele>74.83333333333333</ele><time>2026-05-05T08:34:13.214Z</time></trkpt><trkpt lat="53.1447267" lon="-7.0131133"><ele>75.0</ele><time>2026-05-05T08:34:17.213Z</time></trkpt><trkpt lat="53.1448533" lon="-7.0132417"><ele>75.0</ele><time>2026-05-05T08:36:08.213Z</time></trkpt><trkpt lat="53.1449433" lon="-7.013305"><ele>75.0</ele><time>2026-05-05T08:49:17.213Z</time></trkpt><trkpt lat="53.1449467" lon="-7.013195"><ele>75.0</ele><time>2026-05-05T08:49:54.214Z</time></trkpt><trkpt lat="53.1449767" lon="-7.0130367"><ele>75.0</ele><time>2026-05-05T08:49:56.214Z</time></trkpt><trkpt lat="53.14499" lon="-7.0129317"><ele>75.0</ele><time>2026-05-05T08:49:57.214Z</time></trkpt><trkpt lat="53.1450217" lon="-7.0127783"><ele>75.0</ele><time>2026-05-05T08:49:59.214Z</time></trkpt><trkpt lat="53.1450533" lon="-7.0126683"><ele>75.0</ele><time>2026-05-05T08:50:01.213Z</time></trkpt><trkpt lat="53.1450617" lon="-7.0125267"><ele>75.0</ele><time>2026-05-05T08:50:04.214Z</time></trkpt><trkpt lat="53.1450533" lon="-7.0124117"><ele>75.0</ele><time>2026-05-05T08:50:07.214Z</time></trkpt><trkpt lat="53.1449933" lon="-7.01234"><ele>75.0</ele><time>2026-05-05T08:50:09.213Z</time></trkpt><trkpt lat="53.1449033" lon="-7.0122817"><ele>75.0</ele><time>2026-05-05T08:50:11.214Z</time></trkpt><trkpt lat="53.1448467" lon="-7.012215"><ele>75.0</ele><time>2026-05-05T08:50:13.214Z</time></trkpt><trkpt lat="53.1447667" lon="-7.0121233"><ele>75.0</ele><time>2026-05-05T08:50:15.214Z</time></trkpt><trkpt lat="53.1447" lon="-7.0120033"><ele>75.0</ele><time>2026-05-05T08:50:17.214Z</time></trkpt><trkpt lat="53.1446233" lon="-7.0119167"><ele>75.0</ele><time>2026-05-05T08:50:19.214Z</time></trkpt><trkpt lat="53.1445367" lon="-7.011915"><ele>75.0</ele><time>2026-05-05T08:50:21.213Z</time></trkpt><trkpt lat="53.1444917" lon="-7.0120133"><ele>75.0</ele><time>2026-05-05T08:50:23.214Z</time></trkpt><trkpt lat="53.1445083" lon="-7.012185"><ele>75.0</ele><time>2026-05-05T08:50:25.214Z</time></trkpt><trkpt lat="53.1445233" lon="-7.01231"><ele>75.0</ele><time>2026-05-05T08:50:26.214Z</time></trkpt><trkpt lat="53.1445217" lon="-7.0124467"><ele>75.0</ele><time>2026-05-05T08:50:27.213Z</time></trkpt><trkpt lat="53.1445067" lon="-7.0125817"><ele>75.0</ele><time>2026-05-05T08:50:28.214Z</time></trkpt><trkpt lat="53.1444867" lon="-7.012715"><ele>75.0</ele><time>2026-05-05T08:50:29.213Z</time></trkpt><trkpt lat="53.144465" lon="-7.0128517"><ele>75.0</ele><time>2026-05-05T08:50:30.213Z</time></trkpt><trkpt lat="53.1444483" lon="-7.0129717"><ele>74.99999999999999</ele><time>2026-05-05T08:50:31.214Z</time></trkpt><trkpt lat="53.1444317" lon="-7.0130933"><ele>75.0</ele><time>2026-05-05T08:50:32.213Z</time></trkpt><trkpt lat="53.144405" lon="-7.0132017"><ele>75.0</ele><time>2026-05-05T08:50:33.214Z</time></trkpt><trkpt lat="53.1443767" lon="-7.0133133"><ele>75.0</ele><time>2026-05-05T08:50:34.213Z</time></trkpt><trkpt lat="53.14435" lon="-7.0134217"><ele>75.0</ele><time>2026-05-05T08:50:35.214Z</time></trkpt><trkpt lat="53.1443183" lon="-7.0135683"><ele>74.99999999999999</ele><time>2026-05-05T08:50:37.214Z</time></trkpt><trkpt lat="53.14432" lon="-7.01368"><ele>75.0</ele><time>2026-05-05T08:50:41.213Z</time></trkpt><trkpt lat="53.144345" lon="-7.0138033"><ele>74.83333333333333</ele><time>2026-05-05T08:50:47.214Z</time></trkpt><trkpt lat="53.1444133" lon="-7.013875"><ele>74.66666666666667</ele><time>2026-05-05T08:50:49.214Z</time></trkpt><trkpt lat="53.1444883" lon="-7.013905"><ele>74.5</ele><time>2026-05-05T08:50:50.213Z</time></trkpt><trkpt lat="53.1445767" lon="-7.0139433"><ele>74.33333333333334</ele><time>2026-05-05T08:50:51.214Z</time></trkpt><trkpt lat="53.1446717" lon="-7.0139817"><ele>74.16666666666667</ele><time>2026-05-05T08:50:52.214Z</time></trkpt><trkpt lat="53.144765" lon="-7.0140033"><ele>74.0</ele><time>2026-05-05T08:50:53.213Z</time></trkpt><trkpt lat="53.1448533" lon="-7.0140283"><ele>74.33333333333334</ele><time>2026-05-05T08:50:54.214Z</time></trkpt><trkpt lat="53.1449417" lon="-7.0140617"><ele>74.66666666666667</ele><time>2026-05-05T08:50:55.214Z</time></trkpt><trkpt lat="53.1450183" lon="-7.01411"><ele>75.0</ele><time>2026-05-05T08:50:56.213Z</time></trkpt><trkpt lat="53.1450933" lon="-7.01418"><ele>75.33333333333333</ele><time>2026-05-05T08:50:57.213Z</time></trkpt><trkpt lat="53.1451583" lon="-7.01425"><ele>75.66666666666666</ele><time>2026-05-05T08:50:58.214Z</time></trkpt><trkpt lat="53.1452117" lon="-7.0143317"><ele>76.0</ele><time>2026-05-05T08:50:59.214Z</time></trkpt><trkpt lat="53.1452533" lon="-7.0144283"><ele>76.0</ele><time>2026-05-05T08:51:00.213Z</time></trkpt><trkpt lat="53.1452783" lon="-7.014545"><ele>76.0</ele><time>2026-05-05T08:51:01.214Z</time></trkpt><trkpt lat="53.1453033" lon="-7.0146883"><ele>76.0</ele><time>2026-05-05T08:51:02.214Z</time></trkpt><trkpt lat="53.1453183" lon="-7.0148333"><ele>76.0</ele><time>2026-05-05T08:51:03.214Z</time></trkpt><trkpt lat="53.1453167" lon="-7.0149883"><ele>76.0</ele><time>2026-05-05T08:51:04.214Z</time></trkpt><trkpt lat="53.1453133" lon="-7.015175"><ele>76.0</ele><time>2026-05-05T08:51:05.214Z</time></trkpt><trkpt lat="53.1452933" lon="-7.0153533"><ele>76.0</ele><time>2026-05-05T08:51:06.214Z</time></trkpt><trkpt lat="53.145275" lon="-7.0155367"><ele>76.0</ele><time>2026-05-05T08:51:07.213Z</time></trkpt><trkpt lat="53.1452583" lon="-7.0157517"><ele>76.0</ele><time>2026-05-05T08:51:08.213Z</time></trkpt><trkpt lat="53.1452283" lon="-7.01597"><ele>76.0</ele><time>2026-05-05T08:51:09.213Z</time></trkpt><trkpt lat="53.1451917" lon="-7.016205"><ele>76.0</ele><time>2026-05-05T08:51:10.213Z</time></trkpt><trkpt lat="53.1451533" lon="-7.0164567"><ele>76.0</ele><time>2026-05-05T08:51:11.213Z</time></trkpt><trkpt lat="53.1451183" lon="-7.0167283"><ele>76.0</ele><time>2026-05-05T08:51:12.213Z</time></trkpt><trkpt lat="53.1450917" lon="-7.0170233"><ele>76.0</ele><time>2026-05-05T08:51:13.214Z</time></trkpt><trkpt lat="53.145045" lon="-7.0173283"><ele>76.0</ele><time>2026-05-05T08:51:14.213Z</time></trkpt><trkpt lat="53.145" lon="-7.0176133"><ele>75.33333333333333</ele><time>2026-05-05T08:51:15.214Z</time></trkpt><trkpt lat="53.1449667" lon="-7.017905"><ele>74.66666666666667</ele><time>2026-05-05T08:51:16.214Z</time></trkpt><trkpt lat="53.1449183" lon="-7.0181983"><ele>74.0</ele><time>2026-05-05T08:51:17.214Z</time></trkpt><trkpt lat="53.144865" lon="-7.0184817"><ele>73.66666666666667</ele><time>2026-05-05T08:51:18.214Z</time></trkpt><trkpt lat="53.1448117" lon="-7.018785"><ele>73.33333333333333</ele><time>2026-05-05T08:51:19.214Z</time></trkpt><trkpt lat="53.1447567" lon="-7.019115"><ele>73.0</ele><time>2026-05-05T08:51:20.213Z</time></trkpt><trkpt lat="53.1446933" lon="-7.0194417"><ele>72.33333333333333</ele><time>2026-05-05T08:51:21.214Z</time></trkpt><trkpt lat="53.1446317" lon="-7.0197517"><ele>71.66666666666667</ele><time>2026-05-05T08:51:22.214Z</time></trkpt><trkpt lat="53.144565" lon="-7.020055"><ele>71.0</ele><time>2026-05-05T08:51:23.214Z</time></trkpt><trkpt lat="53.14449" lon="-7.0203567"><ele>70.33333333333334</ele><time>2026-05-05T08:51:24.214Z</time></trkpt><trkpt lat="53.1444" lon="-7.0206817"><ele>69.66666666666667</ele><time>2026-05-05T08:51:25.214Z</time></trkpt><trkpt lat="53.1443283" lon="-7.0210033"><ele>69.0</ele><time>2026-05-05T08:51:26.214Z</time></trkpt><trkpt lat="53.1442333" lon="-7.02134"><ele>68.0</ele><time>2026-05-05T08:51:27.214Z</time></trkpt><trkpt lat="53.14413" lon="-7.021675"><ele>67.0</ele><time>2026-05-05T08:51:28.214Z</time></trkpt><trkpt lat="53.14402" lon="-7.0220283"><ele>65.5</ele><time>2026-05-05T08:51:29.213Z</time></trkpt><trkpt lat="53.1439" lon="-7.0223883"><ele>64.0</ele><time>2026-05-05T08:51:30.214Z</time></trkpt><trkpt lat="53.1437717" lon="-7.0227533"><ele>64.0</ele><time>2026-05-05T08:51:31.213Z</time></trkpt><trkpt lat="53.1436383" lon="-7.0231067"><ele>64.0</ele><time>2026-05-05T08:51:32.213Z</time></trkpt><trkpt lat="53.143505" lon="-7.0234317"><ele>64.5</ele><time>2026-05-05T08:51:33.213Z</time></trkpt><trkpt lat="53.14339" lon="-7.0237583"><ele>65.0</ele><time>2026-05-05T08:51:34.214Z</time></trkpt><trkpt lat="53.1432583" lon="-7.0240733"><ele>64.66666666666667</ele><time>2026-05-05T08:51:35.214Z</time></trkpt><trkpt lat="53.1431317" lon="-7.0243733"><ele>64.33333333333333</ele><time>2026-05-05T08:51:36.214Z</time></trkpt><trkpt lat="53.1430033" lon="-7.024675"><ele>64.0</ele><time>2026-05-05T08:51:37.214Z</time></trkpt><trkpt lat="53.1428817" lon="-7.024975"><ele>63.666666666666664</ele><time>2026-05-05T08:51:38.213Z</time></trkpt><trkpt lat="53.14277" lon="-7.02526"><ele>63.33333333333333</ele><time>2026-05-05T08:51:39.214Z</time></trkpt><trkpt lat="53.1426417" lon="-7.0255433"><ele>63.0</ele><time>2026-05-05T08:51:40.214Z</time></trkpt><trkpt lat="53.14252" lon="-7.0258183"><ele>63.0</ele><time>2026-05-05T08:51:41.213Z</time></trkpt><trkpt lat="53.1424" lon="-7.0261033"><ele>63.0</ele><time>2026-05-05T08:51:42.214Z</time></trkpt><trkpt lat="53.1422783" lon="-7.0263967"><ele>63.0</ele><time>2026-05-05T08:51:43.213Z</time></trkpt><trkpt lat="53.142135" lon="-7.026665"><ele>64.0</ele><time>2026-05-05T08:51:44.214Z</time></trkpt><trkpt lat="53.1419867" lon="-7.026945"><ele>65.0</ele><time>2026-05-05T08:51:45.214Z</time></trkpt><trkpt lat="53.1418283" lon="-7.0272183"><ele>64.5</ele><time>2026-05-05T08:51:46.213Z</time></trkpt><trkpt lat="53.1416717" lon="-7.0274967"><ele>64.0</ele><time>2026-05-05T08:51:47.213Z</time></trkpt><trkpt lat="53.1415067" lon="-7.02775"><ele>64.0</ele><time>2026-05-05T08:51:48.213Z</time></trkpt><trkpt lat="53.14135" lon="-7.02801"><ele>64.0</ele><time>2026-05-05T08:51:49.213Z</time></trkpt><trkpt lat="53.141195" lon="-7.02828"><ele>64.0</ele><time>2026-05-05T08:51:50.214Z</time></trkpt><trkpt lat="53.1410467" lon="-7.028565"><ele>64.5</ele><time>2026-05-05T08:51:51.214Z</time></trkpt><trkpt lat="53.1408783" lon="-7.0288433"><ele>65.0</ele><time>2026-05-05T08:51:52.213Z</time></trkpt><trkpt lat="53.1407067" lon="-7.029125"><ele>64.0</ele><time>2026-05-05T08:51:53.214Z</time></trkpt><trkpt lat="53.14054" lon="-7.029385"><ele>63.0</ele><time>2026-05-05T08:51:54.214Z</time></trkpt><trkpt lat="53.1403617" lon="-7.02964"><ele>63.0</ele><time>2026-05-05T08:51:55.214Z</time></trkpt><trkpt lat="53.1401717" lon="-7.029885"><ele>63.0</ele><time>2026-05-05T08:51:56.214Z</time></trkpt><trkpt lat="53.1399967" lon="-7.0301367"><ele>63.5</ele><time>2026-05-05T08:51:57.214Z</time></trkpt><trkpt lat="53.1398133" lon="-7.0304033"><ele>64.0</ele><time>2026-05-05T08:51:58.214Z</time></trkpt><trkpt lat="53.1396683" lon="-7.03071"><ele>64.5</ele><time>2026-05-05T08:51:59.213Z</time></trkpt><trkpt lat="53.1394767" lon="-7.0309967"><ele>65.0</ele><time>2026-05-05T08:52:00.214Z</time></trkpt><trkpt lat="53.1392583" lon="-7.0312517"><ele>65.0</ele><time>2026-05-05T08:52:01.214Z</time></trkpt><trkpt lat="53.1390417" lon="-7.0315017"><ele>65.0</ele><time>2026-05-05T08:52:02.214Z</time></trkpt><trkpt lat="53.1388383" lon="-7.03175"><ele>65.0</ele><time>2026-05-05T08:52:03.213Z</time></trkpt><trkpt lat="53.138635" lon="-7.0319983"><ele>65.0</ele><time>2026-05-05T08:52:04.214Z</time></trkpt><trkpt lat="53.138435" lon="-7.0322533"><ele>65.0</ele><time>2026-05-05T08:52:05.214Z</time></trkpt><trkpt lat="53.1382117" lon="-7.0325033"><ele>65.0</ele><time>2026-05-05T08:52:06.214Z</time></trkpt><trkpt lat="53.1379967" lon="-7.0327517"><ele>65.0</ele><time>2026-05-05T08:52:07.214Z</time></trkpt><trkpt lat="53.13776" lon="-7.0329783"><ele>65.0</ele><time>2026-05-05T08:52:08.213Z</time></trkpt><trkpt lat="53.13753" lon="-7.033195"><ele>64.5</ele><time>2026-05-05T08:52:09.213Z</time></trkpt><trkpt lat="53.1372967" lon="-7.03341"><ele>64.0</ele><time>2026-05-05T08:52:10.213Z</time></trkpt><trkpt lat="53.13706" lon="-7.0336333"><ele>64.0</ele><time>2026-05-05T08:52:11.213Z</time></trkpt><trkpt lat="53.13682" lon="-7.0338433"><ele>64.0</ele><time>2026-05-05T08:52:12.214Z</time></trkpt><trkpt lat="53.1365817" lon="-7.0340433"><ele>63.5</ele><time>2026-05-05T08:52:13.214Z</time></trkpt><trkpt lat="53.136345" lon="-7.034255"><ele>63.0</ele><time>2026-05-05T08:52:14.214Z</time></trkpt><trkpt lat="53.1361083" lon="-7.0344567"><ele>63.0</ele><time>2026-05-05T08:52:15.213Z</time></trkpt><trkpt lat="53.1358667" lon="-7.03467"><ele>63.0</ele><time>2026-05-05T08:52:16.214Z</time></trkpt><trkpt lat="53.1356083" lon="-7.03486"><ele>63.0</ele><time>2026-05-05T08:52:17.213Z</time></trkpt><trkpt lat="53.1353517" lon="-7.0350367"><ele>63.0</ele><time>2026-05-05T08:52:18.213Z</time></trkpt><trkpt lat="53.1350867" lon="-7.035205"><ele>63.5</ele><time>2026-05-05T08:52:19.214Z</time></trkpt><trkpt lat="53.134825" lon="-7.0353683"><ele>64.0</ele><time>2026-05-05T08:52:20.214Z</time></trkpt><trkpt lat="53.1345583" lon="-7.0355383"><ele>64.0</ele><time>2026-05-05T08:52:21.214Z</time></trkpt><trkpt lat="53.1343017" lon="-7.03572"><ele>64.0</ele><time>2026-05-05T08:52:22.213Z</time></trkpt><trkpt lat="53.13403" lon="-7.0358833"><ele>65.0</ele><time>2026-05-05T08:52:23.213Z</time></trkpt><trkpt lat="53.1337433" lon="-7.0360233"><ele>66.0</ele><time>2026-05-05T08:52:24.214Z</time></trkpt><trkpt lat="53.1334733" lon="-7.0361783"><ele>68.0</ele><time>2026-05-05T08:52:25.214Z</time></trkpt><trkpt lat="53.133205" lon="-7.0363267"><ele>70.0</ele><time>2026-05-05T08:52:26.213Z</time></trkpt><trkpt lat="53.132935" lon="-7.0364667"><ele>70.0</ele><time>2026-05-05T08:52:27.214Z</time></trkpt><trkpt lat="53.1326583" lon="-7.0365917"><ele>70.0</ele><time>2026-05-05T08:52:28.214Z</time></trkpt><trkpt lat="53.132375" lon="-7.0366933"><ele>74.0</ele><time>2026-05-05T08:52:29.214Z</time></trkpt><trkpt lat="53.1320883" lon="-7.036795"><ele>78.0</ele><time>2026-05-05T08:52:30.214Z</time></trkpt><trkpt lat="53.1317883" lon="-7.0368717"><ele>76.5</ele><time>2026-05-05T08:52:31.214Z</time></trkpt><trkpt lat="53.131495" lon="-7.0369733"><ele>75.0</ele><time>2026-05-05T08:52:32.214Z</time></trkpt><trkpt lat="53.1311833" lon="-7.0370367"><ele>75.0</ele><time>2026-05-05T08:52:33.214Z</time></trkpt><trkpt lat="53.1308917" lon="-7.03711"><ele>75.0</ele><time>2026-05-05T08:52:34.214Z</time></trkpt><trkpt lat="53.1305983" lon="-7.0371833"><ele>74.0</ele><time>2026-05-05T08:52:35.214Z</time></trkpt><trkpt lat="53.1302967" lon="-7.0372633"><ele>73.0</ele><time>2026-05-05T08:52:36.214Z</time></trkpt><trkpt lat="53.129995" lon="-7.037345"><ele>75.0</ele><time>2026-05-05T08:52:37.214Z</time></trkpt><trkpt lat="53.129695" lon="-7.037425"><ele>77.0</ele><time>2026-05-05T08:52:38.213Z</time></trkpt><trkpt lat="53.1294017" lon="-7.037515"><ele>77.5</ele><time>2026-05-05T08:52:39.214Z</time></trkpt><trkpt lat="53.12911" lon="-7.03762"><ele>78.0</ele><time>2026-05-05T08:52:40.214Z</time></trkpt><trkpt lat="53.1288167" lon="-7.0376867"><ele>76.0</ele><time>2026-05-05T08:52:41.214Z</time></trkpt><trkpt lat="53.1285267" lon="-7.0377217"><ele>74.0</ele><time>2026-05-05T08:52:42.214Z</time></trkpt><trkpt lat="53.1282333" lon="-7.0377733"><ele>72.5</ele><time>2026-05-05T08:52:43.214Z</time></trkpt><trkpt lat="53.1279467" lon="-7.0378583"><ele>71.0</ele><time>2026-05-05T08:52:44.214Z</time></trkpt><trkpt lat="53.1276683" lon="-7.03794"><ele>71.0</ele><time>2026-05-05T08:52:45.214Z</time></trkpt><trkpt lat="53.1273867" lon="-7.03802"><ele>71.0</ele><time>2026-05-05T08:52:46.213Z</time></trkpt><trkpt lat="53.1271067" lon="-7.038115"><ele>71.0</ele><time>2026-05-05T08:52:47.213Z</time></trkpt><trkpt lat="53.12684" lon="-7.0381983"><ele>71.0</ele><time>2026-05-05T08:52:48.214Z</time></trkpt><trkpt lat="53.12656" lon="-7.03825"><ele>73.5</ele><time>2026-05-05T08:52:49.214Z</time></trkpt><trkpt lat="53.12627" lon="-7.0383117"><ele>76.0</ele><time>2026-05-05T08:52:50.214Z</time></trkpt><trkpt lat="53.126015" lon="-7.0384267"><ele>76.0</ele><time>2026-05-05T08:52:51.214Z</time></trkpt><trkpt lat="53.12574" lon="-7.0385233"><ele>76.0</ele><time>2026-05-05T08:52:52.213Z</time></trkpt><trkpt lat="53.1254833" lon="-7.03864"><ele>78.5</ele><time>2026-05-05T08:52:53.214Z</time></trkpt><trkpt lat="53.1252167" lon="-7.038765"><ele>81.0</ele><time>2026-05-05T08:52:54.213Z</time></trkpt><trkpt lat="53.1249433" lon="-7.0388733"><ele>79.5</ele><time>2026-05-05T08:52:55.214Z</time></trkpt><trkpt lat="53.1246667" lon="-7.0389983"><ele>78.0</ele><time>2026-05-05T08:52:56.214Z</time></trkpt><trkpt lat="53.1243883" lon="-7.0391267"><ele>76.5</ele><time>2026-05-05T08:52:57.214Z</time></trkpt><trkpt lat="53.1241133" lon="-7.0392633"><ele>75.0</ele><time>2026-05-05T08:52:58.214Z</time></trkpt><trkpt lat="53.1238283" lon="-7.0393983"><ele>75.0</ele><time>2026-05-05T08:52:59.214Z</time></trkpt><trkpt lat="53.1235433" lon="-7.03954"><ele>75.0</ele><time>2026-05-05T08:53:00.214Z</time></trkpt><trkpt lat="53.1232367" lon="-7.0396767"><ele>77.0</ele><time>2026-05-05T08:53:01.214Z</time></trkpt><trkpt lat="53.122935" lon="-7.0398567"><ele>79.0</ele><time>2026-05-05T08:53:02.214Z</time></trkpt><trkpt lat="53.1226217" lon="-7.0400533"><ele>82.5</ele><time>2026-05-05T08:53:03.213Z</time></trkpt><trkpt lat="53.1223133" lon="-7.04024"><ele>86.0</ele><time>2026-05-05T08:53:04.213Z</time></trkpt><trkpt lat="53.1220117" lon="-7.04047"><ele>86.0</ele><time>2026-05-05T08:53:05.214Z</time></trkpt><trkpt lat="53.1217283" lon="-7.0406983"><ele>86.0</ele><time>2026-05-05T08:53:06.214Z</time></trkpt><trkpt lat="53.1214483" lon="-7.040925"><ele>90.0</ele><time>2026-05-05T08:53:07.214Z</time></trkpt><trkpt lat="53.1211817" lon="-7.0411367"><ele>94.0</ele><time>2026-05-05T08:53:08.214Z</time></trkpt><trkpt lat="53.12092" lon="-7.0413683"><ele>93.0</ele><time>2026-05-05T08:53:09.214Z</time></trkpt><trkpt lat="53.1206617" lon="-7.04162"><ele>92.0</ele><time>2026-05-05T08:53:10.213Z</time></trkpt><trkpt lat="53.1204067" lon="-7.04188"><ele>96.0</ele><time>2026-05-05T08:53:11.214Z</time></trkpt><trkpt lat="53.1201617" lon="-7.042155"><ele>100.0</ele><time>2026-05-05T08:53:12.213Z</time></trkpt><trkpt lat="53.11992" lon="-7.04244"><ele>98.0</ele><time>2026-05-05T08:53:13.214Z</time></trkpt><trkpt lat="53.1196767" lon="-7.0427467"><ele>96.0</ele><time>2026-05-05T08:53:14.214Z</time></trkpt><trkpt lat="53.1194333" lon="-7.0430617"><ele>97.0</ele><time>2026-05-05T08:53:15.214Z</time></trkpt><trkpt lat="53.1192033" lon="-7.0434033"><ele>98.0</ele><time>2026-05-05T08:53:16.214Z</time></trkpt><trkpt lat="53.1189717" lon="-7.04373"><ele>93.5</ele><time>2026-05-05T08:53:17.213Z</time></trkpt><trkpt lat="53.1187433" lon="-7.0440683"><ele>89.0</ele><time>2026-05-05T08:53:18.214Z</time></trkpt><trkpt lat="53.118515" lon="-7.04442"><ele>89.0</ele><time>2026-05-05T08:53:19.214Z</time></trkpt><trkpt lat="53.1182783" lon="-7.0447767"><ele>89.0</ele><time>2026-05-05T08:53:20.214Z</time></trkpt><trkpt lat="53.1180533" lon="-7.04512"><ele>83.5</ele><time>2026-05-05T08:53:21.214Z</time></trkpt><trkpt lat="53.117845" lon="-7.045515"><ele>78.0</ele><time>2026-05-05T08:53:22.214Z</time></trkpt><trkpt lat="53.1176317" lon="-7.0458983"><ele>77.5</ele><time>2026-05-05T08:53:23.214Z</time></trkpt><trkpt lat="53.1174267" lon="-7.04628"><ele>77.0</ele><time>2026-05-05T08:53:24.213Z</time></trkpt><trkpt lat="53.11723" lon="-7.0466667"><ele>77.0</ele><time>2026-05-05T08:53:25.214Z</time></trkpt><trkpt lat="53.117035" lon="-7.0470633"><ele>77.0</ele><time>2026-05-05T08:53:26.214Z</time></trkpt><trkpt lat="53.11684" lon="-7.0474483"><ele>77.0</ele><time>2026-05-05T08:53:27.214Z</time></trkpt><trkpt lat="53.116635" lon="-7.0478617"><ele>77.0</ele><time>2026-05-05T08:53:28.214Z</time></trkpt><trkpt lat="53.1164233" lon="-7.0482517"><ele>77.0</ele><time>2026-05-05T08:53:29.214Z</time></trkpt><trkpt lat="53.1162267" lon="-7.0486367"><ele>77.0</ele><time>2026-05-05T08:53:30.213Z</time></trkpt><trkpt lat="53.1160567" lon="-7.0490383"><ele>77.5</ele><time>2026-05-05T08:53:31.214Z</time></trkpt><trkpt lat="53.1158917" lon="-7.0494533"><ele>78.0</ele><time>2026-05-05T08:53:32.214Z</time></trkpt><trkpt lat="53.1157483" lon="-7.0498767"><ele>78.0</ele><time>2026-05-05T08:53:33.214Z</time></trkpt><trkpt lat="53.11561" lon="-7.05031"><ele>78.0</ele><time>2026-05-05T08:53:34.214Z</time></trkpt><trkpt lat="53.1154833" lon="-7.0507617"><ele>78.0</ele><time>2026-05-05T08:53:35.214Z</time></trkpt><trkpt lat="53.1153567" lon="-7.0512133"><ele>78.0</ele><time>2026-05-05T08:53:36.214Z</time></trkpt><trkpt lat="53.1152267" lon="-7.0516467"><ele>77.5</ele><time>2026-05-05T08:53:37.214Z</time></trkpt><trkpt lat="53.1150983" lon="-7.0520767"><ele>77.0</ele><time>2026-05-05T08:53:38.213Z</time></trkpt><trkpt lat="53.1149767" lon="-7.0525467"><ele>76.5</ele><time>2026-05-05T08:53:39.213Z</time></trkpt><trkpt lat="53.114865" lon="-7.0530033"><ele>76.0</ele><time>2026-05-05T08:53:40.214Z</time></trkpt><trkpt lat="53.114755" lon="-7.05346"><ele>75.5</ele><time>2026-05-05T08:53:41.213Z</time></trkpt><trkpt lat="53.1146467" lon="-7.05392"><ele>75.0</ele><time>2026-05-05T08:53:42.213Z</time></trkpt><trkpt lat="53.114555" lon="-7.0543883"><ele>73.5</ele><time>2026-05-05T08:53:43.213Z</time></trkpt><trkpt lat="53.1144617" lon="-7.0548517"><ele>72.0</ele><time>2026-05-05T08:53:44.214Z</time></trkpt><trkpt lat="53.114375" lon="-7.055325"><ele>71.0</ele><time>2026-05-05T08:53:45.213Z</time></trkpt><trkpt lat="53.1142767" lon="-7.055785"><ele>70.0</ele><time>2026-05-05T08:53:46.214Z</time></trkpt><trkpt lat="53.1142033" lon="-7.0562533"><ele>68.0</ele><time>2026-05-05T08:53:47.214Z</time></trkpt><trkpt lat="53.1141183" lon="-7.05675"><ele>66.0</ele><time>2026-05-05T08:53:48.213Z</time></trkpt><trkpt lat="53.1140383" lon="-7.0572433"><ele>65.0</ele><time>2026-05-05T08:53:49.213Z</time></trkpt><trkpt lat="53.113965" lon="-7.0577467"><ele>64.0</ele><time>2026-05-05T08:53:50.213Z</time></trkpt><trkpt lat="53.113895" lon="-7.0582483"><ele>64.0</ele><time>2026-05-05T08:53:51.214Z</time></trkpt><trkpt lat="53.1138283" lon="-7.0587483"><ele>64.0</ele><time>2026-05-05T08:53:52.213Z</time></trkpt><trkpt lat="53.113765" lon="-7.0592417"><ele>64.5</ele><time>2026-05-05T08:53:53.214Z</time></trkpt><trkpt lat="53.1137067" lon="-7.0597433"><ele>65.0</ele><time>2026-05-05T08:53:54.214Z</time></trkpt><trkpt lat="53.1136517" lon="-7.0602517"><ele>65.5</ele><time>2026-05-05T08:53:55.213Z</time></trkpt><trkpt lat="53.1136117" lon="-7.0607767"><ele>66.0</ele><time>2026-05-05T08:53:56.214Z</time></trkpt><trkpt lat="53.1135767" lon="-7.06129"><ele>65.0</ele><time>2026-05-05T08:53:57.214Z</time></trkpt><trkpt lat="53.113545" lon="-7.0618167"><ele>64.0</ele><time>2026-05-05T08:53:58.214Z</time></trkpt><trkpt lat="53.1135183" lon="-7.062345"><ele>63.5</ele><time>2026-05-05T08:53:59.214Z</time></trkpt><trkpt lat="53.113495" lon="-7.06288"><ele>63.0</ele><time>2026-05-05T08:54:00.214Z</time></trkpt><trkpt lat="53.1134767" lon="-7.0634067"><ele>62.5</ele><time>2026-05-05T08:54:01.214Z</time></trkpt><trkpt lat="53.11346" lon="-7.063925"><ele>62.0</ele><time>2026-05-05T08:54:02.214Z</time></trkpt><trkpt lat="53.1134517" lon="-7.0644467"><ele>61.0</ele><time>2026-05-05T08:54:03.214Z</time></trkpt><trkpt lat="53.113455" lon="-7.06497"><ele>60.0</ele><time>2026-05-05T08:54:04.214Z</time></trkpt><trkpt lat="53.1134717" lon="-7.0654467"><ele>60.0</ele><time>2026-05-05T08:54:05.214Z</time></trkpt><trkpt lat="53.1134883" lon="-7.0659217"><ele>60.0</ele><time>2026-05-05T08:54:06.214Z</time></trkpt><trkpt lat="53.1135133" lon="-7.066395"><ele>59.5</ele><time>2026-05-05T08:54:07.214Z</time></trkpt><trkpt lat="53.1135333" lon="-7.0668617"><ele>59.0</ele><time>2026-05-05T08:54:08.213Z</time></trkpt><trkpt lat="53.1135467" lon="-7.0673267"><ele>59.0</ele><time>2026-05-05T08:54:09.214Z</time></trkpt><trkpt lat="53.1135683" lon="-7.067815"><ele>59.0</ele><time>2026-05-05T08:54:10.214Z</time></trkpt><trkpt lat="53.1136033" lon="-7.0683233"><ele>59.0</ele><time>2026-05-05T08:54:11.214Z</time></trkpt><trkpt lat="53.1136267" lon="-7.0688217"><ele>59.0</ele><time>2026-05-05T08:54:12.214Z</time></trkpt><trkpt lat="53.113655" lon="-7.0693017"><ele>59.5</ele><time>2026-05-05T08:54:13.214Z</time></trkpt><trkpt lat="53.1136783" lon="-7.06976"><ele>60.0</ele><time>2026-05-05T08:54:14.214Z</time></trkpt><trkpt lat="53.1137017" lon="-7.0702117"><ele>61.0</ele><time>2026-05-05T08:54:15.214Z</time></trkpt><trkpt lat="53.1137283" lon="-7.0706717"><ele>62.0</ele><time>2026-05-05T08:54:16.214Z</time></trkpt><trkpt lat="53.1137583" lon="-7.0711317"><ele>64.5</ele><time>2026-05-05T08:54:17.214Z</time></trkpt><trkpt lat="53.1137883" lon="-7.0715933"><ele>67.0</ele><time>2026-05-05T08:54:18.214Z</time></trkpt><trkpt lat="53.1138233" lon="-7.0720767"><ele>68.0</ele><time>2026-05-05T08:54:19.214Z</time></trkpt><trkpt lat="53.113855" lon="-7.0725567"><ele>69.0</ele><time>2026-05-05T08:54:20.214Z</time></trkpt><trkpt lat="53.11389" lon="-7.0730283"><ele>68.0</ele><time>2026-05-05T08:54:21.213Z</time></trkpt><trkpt lat="53.113915" lon="-7.0735"><ele>67.0</ele><time>2026-05-05T08:54:22.214Z</time></trkpt><trkpt lat="53.1139433" lon="-7.0739783"><ele>67.0</ele><time>2026-05-05T08:54:23.214Z</time></trkpt><trkpt lat="53.11397" lon="-7.07445"><ele>67.0</ele><time>2026-05-05T08:54:24.213Z</time></trkpt><trkpt lat="53.1139883" lon="-7.0749217"><ele>68.0</ele><time>2026-05-05T08:54:25.214Z</time></trkpt><trkpt lat="53.114005" lon="-7.0754083"><ele>69.0</ele><time>2026-05-05T08:54:26.214Z</time></trkpt><trkpt lat="53.114025" lon="-7.0758883"><ele>67.0</ele><time>2026-05-05T08:54:27.214Z</time></trkpt><trkpt lat="53.11405" lon="-7.0763733"><ele>65.0</ele><time>2026-05-05T08:54:28.214Z</time></trkpt><trkpt lat="53.1140533" lon="-7.076875"><ele>61.5</ele><time>2026-05-05T08:54:29.214Z</time></trkpt><trkpt lat="53.11408" lon="-7.0773367"><ele>58.0</ele><time>2026-05-05T08:54:30.214Z</time></trkpt><trkpt lat="53.11411" lon="-7.07779"><ele>57.5</ele><time>2026-05-05T08:54:31.213Z</time></trkpt><trkpt lat="53.1141283" lon="-7.0782783"><ele>57.0</ele><time>2026-05-05T08:54:32.214Z</time></trkpt><trkpt lat="53.114145" lon="-7.0787483"><ele>57.0</ele><time>2026-05-05T08:54:33.214Z</time></trkpt><trkpt lat="53.1141583" lon="-7.0792283"><ele>57.0</ele><time>2026-05-05T08:54:34.214Z</time></trkpt><trkpt lat="53.1141667" lon="-7.0797033"><ele>57.0</ele><time>2026-05-05T08:54:35.213Z</time></trkpt><trkpt lat="53.114175" lon="-7.0801667"><ele>57.0</ele><time>2026-05-05T08:54:36.214Z</time></trkpt><trkpt lat="53.1141817" lon="-7.08064"><ele>57.0</ele><time>2026-05-05T08:54:37.214Z</time></trkpt><trkpt lat="53.1141883" lon="-7.0811083"><ele>57.0</ele><time>2026-05-05T08:54:38.213Z</time></trkpt><trkpt lat="53.1141817" lon="-7.081565"><ele>58.0</ele><time>2026-05-05T08:54:39.214Z</time></trkpt><trkpt lat="53.11417" lon="-7.082015"><ele>59.0</ele><time>2026-05-05T08:54:40.213Z</time></trkpt><trkpt lat="53.1141617" lon="-7.0824683"><ele>59.0</ele><time>2026-05-05T08:54:41.213Z</time></trkpt><trkpt lat="53.1141633" lon="-7.0829367"><ele>59.0</ele><time>2026-05-05T08:54:42.213Z</time></trkpt><trkpt lat="53.114165" lon="-7.0833883"><ele>59.0</ele><time>2026-05-05T08:54:43.214Z</time></trkpt><trkpt lat="53.114175" lon="-7.0838617"><ele>59.0</ele><time>2026-05-05T08:54:44.213Z</time></trkpt><trkpt lat="53.1141833" lon="-7.0843267"><ele>59.5</ele><time>2026-05-05T08:54:45.214Z</time></trkpt><trkpt lat="53.1141917" lon="-7.0847867"><ele>60.0</ele><time>2026-05-05T08:54:46.214Z</time></trkpt><trkpt lat="53.1141917" lon="-7.085265"><ele>60.5</ele><time>2026-05-05T08:54:47.214Z</time></trkpt><trkpt lat="53.11419" lon="-7.08574"><ele>61.0</ele><time>2026-05-05T08:54:48.213Z</time></trkpt><trkpt lat="53.1141817" lon="-7.0862283"><ele>61.5</ele><time>2026-05-05T08:54:49.214Z</time></trkpt><trkpt lat="53.1141667" lon="-7.0867067"><ele>62.0</ele><time>2026-05-05T08:54:50.214Z</time></trkpt><trkpt lat="53.1141533" lon="-7.087205"><ele>63.0</ele><time>2026-05-05T08:54:51.214Z</time></trkpt><trkpt lat="53.1141383" lon="-7.0877"><ele>64.0</ele><time>2026-05-05T08:54:52.214Z</time></trkpt><trkpt lat="53.1141217" lon="-7.0881883"><ele>64.5</ele><time>2026-05-05T08:54:53.214Z</time></trkpt><trkpt lat="53.1141033" lon="-7.088665"><ele>65.0</ele><time>2026-05-05T08:54:54.213Z</time></trkpt><trkpt lat="53.11408" lon="-7.08915"><ele>65.5</ele><time>2026-05-05T08:54:55.214Z</time></trkpt><trkpt lat="53.11406" lon="-7.08964"><ele>66.0</ele><time>2026-05-05T08:54:56.214Z</time></trkpt><trkpt lat="53.114025" lon="-7.0901367"><ele>66.0</ele><time>2026-05-05T08:54:57.213Z</time></trkpt><trkpt lat="53.1140017" lon="-7.09062"><ele>66.0</ele><time>2026-05-05T08:54:58.213Z</time></trkpt><trkpt lat="53.11398" lon="-7.0911183"><ele>66.0</ele><time>2026-05-05T08:54:59.213Z</time></trkpt><trkpt lat="53.11395" lon="-7.09161"><ele>66.0</ele><time>2026-05-05T08:55:00.214Z</time></trkpt><trkpt lat="53.113915" lon="-7.0921"><ele>66.0</ele><time>2026-05-05T08:55:01.214Z</time></trkpt><trkpt lat="53.1138817" lon="-7.0925833"><ele>66.0</ele><time>2026-05-05T08:55:02.214Z</time></trkpt><trkpt lat="53.1138517" lon="-7.0930967"><ele>66.0</ele><time>2026-05-05T08:55:03.214Z</time></trkpt><trkpt lat="53.1138067" lon="-7.0936133"><ele>66.0</ele><time>2026-05-05T08:55:04.214Z</time></trkpt><trkpt lat="53.1137633" lon="-7.0941183"><ele>66.0</ele><time>2026-05-05T08:55:05.214Z</time></trkpt><trkpt lat="53.1137233" lon="-7.0946183"><ele>66.0</ele><time>2026-05-05T08:55:06.214Z</time></trkpt><trkpt lat="53.1136783" lon="-7.0951133"><ele>66.5</ele><time>2026-05-05T08:55:07.213Z</time></trkpt><trkpt lat="53.1136233" lon="-7.0956083"><ele>67.0</ele><time>2026-05-05T08:55:08.213Z</time></trkpt><trkpt lat="53.1135717" lon="-7.0961017"><ele>67.0</ele><time>2026-05-05T08:55:09.214Z</time></trkpt><trkpt lat="53.1135117" lon="-7.09659"><ele>67.0</ele><time>2026-05-05T08:55:10.213Z</time></trkpt><trkpt lat="53.11346" lon="-7.0970817"><ele>67.5</ele><time>2026-05-05T08:55:11.214Z</time></trkpt><trkpt lat="53.1134117" lon="-7.0975833"><ele>68.0</ele><time>2026-05-05T08:55:12.213Z</time></trkpt><trkpt lat="53.1133417" lon="-7.0980617"><ele>68.5</ele><time>2026-05-05T08:55:13.214Z</time></trkpt><trkpt lat="53.1132817" lon="-7.098545"><ele>69.0</ele><time>2026-05-05T08:55:14.214Z</time></trkpt><trkpt lat="53.1132133" lon="-7.0989983"><ele>70.0</ele><time>2026-05-05T08:55:15.214Z</time></trkpt><trkpt lat="53.1131567" lon="-7.099455"><ele>71.0</ele><time>2026-05-05T08:55:16.213Z</time></trkpt><trkpt lat="53.113095" lon="-7.0999267"><ele>71.5</ele><time>2026-05-05T08:55:17.213Z</time></trkpt><trkpt lat="53.1130333" lon="-7.1004117"><ele>72.0</ele><time>2026-05-05T08:55:18.213Z</time></trkpt><trkpt lat="53.1129667" lon="-7.100905"><ele>72.5</ele><time>2026-05-05T08:55:19.214Z</time></trkpt><trkpt lat="53.1128983" lon="-7.10139"><ele>73.0</ele><time>2026-05-05T08:55:20.213Z</time></trkpt><trkpt lat="53.1128233" lon="-7.1018783"><ele>73.0</ele><time>2026-05-05T08:55:21.213Z</time></trkpt><trkpt lat="53.1127533" lon="-7.1023833"><ele>73.0</ele><time>2026-05-05T08:55:22.214Z</time></trkpt><trkpt lat="53.11268" lon="-7.1028717"><ele>72.5</ele><time>2026-05-05T08:55:23.213Z</time></trkpt><trkpt lat="53.112615" lon="-7.1033267"><ele>72.0</ele><time>2026-05-05T08:55:24.214Z</time></trkpt><trkpt lat="53.1125467" lon="-7.1037633"><ele>72.0</ele><time>2026-05-05T08:55:25.214Z</time></trkpt><trkpt lat="53.1124767" lon="-7.1041833"><ele>72.0</ele><time>2026-05-05T08:55:26.214Z</time></trkpt><trkpt lat="53.11241" lon="-7.10465"><ele>71.0</ele><time>2026-05-05T08:55:27.214Z</time></trkpt><trkpt lat="53.1123367" lon="-7.1051133"><ele>70.0</ele><time>2026-05-05T08:55:28.214Z</time></trkpt><trkpt lat="53.11226" lon="-7.10559"><ele>70.5</ele><time>2026-05-05T08:55:29.214Z</time></trkpt><trkpt lat="53.1121817" lon="-7.106065"><ele>71.0</ele><time>2026-05-05T08:55:30.214Z</time></trkpt><trkpt lat="53.1120983" lon="-7.1065433"><ele>71.0</ele><time>2026-05-05T08:55:31.214Z</time></trkpt><trkpt lat="53.11201" lon="-7.10702"><ele>71.0</ele><time>2026-05-05T08:55:32.214Z</time></trkpt><trkpt lat="53.1119117" lon="-7.107485"><ele>71.0</ele><time>2026-05-05T08:55:33.213Z</time></trkpt><trkpt lat="53.1118367" lon="-7.10795"><ele>71.0</ele><time>2026-05-05T08:55:34.214Z</time></trkpt><trkpt lat="53.11176" lon="-7.10842"><ele>70.5</ele><time>2026-05-05T08:55:35.214Z</time></trkpt><trkpt lat="53.111675" lon="-7.1088783"><ele>70.0</ele><time>2026-05-05T08:55:36.214Z</time></trkpt><trkpt lat="53.1115783" lon="-7.1093433"><ele>70.0</ele><time>2026-05-05T08:55:37.214Z</time></trkpt><trkpt lat="53.1114883" lon="-7.10979"><ele>70.0</ele><time>2026-05-05T08:55:38.214Z</time></trkpt><trkpt lat="53.1114017" lon="-7.1102333"><ele>70.0</ele><time>2026-05-05T08:55:39.213Z</time></trkpt><trkpt lat="53.1113133" lon="-7.1106833"><ele>70.0</ele><time>2026-05-05T08:55:40.214Z</time></trkpt><trkpt lat="53.1112317" lon="-7.1111483"><ele>69.5</ele><time>2026-05-05T08:55:41.214Z</time></trkpt><trkpt lat="53.111145" lon="-7.1116033"><ele>69.0</ele><time>2026-05-05T08:55:42.213Z</time></trkpt><trkpt lat="53.1110583" lon="-7.11205"><ele>69.5</ele><time>2026-05-05T08:55:43.214Z</time></trkpt><trkpt lat="53.1109767" lon="-7.1124917"><ele>70.0</ele><time>2026-05-05T08:55:44.214Z</time></trkpt><trkpt lat="53.110895" lon="-7.1129217"><ele>70.0</ele><time>2026-05-05T08:55:45.214Z</time></trkpt><trkpt lat="53.1108067" lon="-7.1133483"><ele>70.0</ele><time>2026-05-05T08:55:46.213Z</time></trkpt><trkpt lat="53.1107183" lon="-7.1137783"><ele>69.5</ele><time>2026-05-05T08:55:47.214Z</time></trkpt><trkpt lat="53.1106267" lon="-7.1142083"><ele>69.0</ele><time>2026-05-05T08:55:48.213Z</time></trkpt><trkpt lat="53.1105317" lon="-7.11464"><ele>69.5</ele><time>2026-05-05T08:55:49.214Z</time></trkpt><trkpt lat="53.1104417" lon="-7.1150717"><ele>70.0</ele><time>2026-05-05T08:55:50.214Z</time></trkpt><trkpt lat="53.11036" lon="-7.115505"><ele>70.0</ele><time>2026-05-05T08:55:51.214Z</time></trkpt><trkpt lat="53.1102833" lon="-7.115925"><ele>70.0</ele><time>2026-05-05T08:55:52.214Z</time></trkpt><trkpt lat="53.1102033" lon="-7.1163433"><ele>70.5</ele><time>2026-05-05T08:55:53.213Z</time></trkpt><trkpt lat="53.1101183" lon="-7.1167583"><ele>71.0</ele><time>2026-05-05T08:55:54.214Z</time></trkpt><trkpt lat="53.1100367" lon="-7.11717"><ele>71.5</ele><time>2026-05-05T08:55:55.214Z</time></trkpt><trkpt lat="53.10995" lon="-7.1175967"><ele>72.0</ele><time>2026-05-05T08:55:56.214Z</time></trkpt><trkpt lat="53.10986" lon="-7.1180217"><ele>73.0</ele><time>2026-05-05T08:55:57.214Z</time></trkpt><trkpt lat="53.1097667" lon="-7.11844"><ele>74.0</ele><time>2026-05-05T08:55:58.214Z</time></trkpt><trkpt lat="53.109675" lon="-7.1188667"><ele>73.5</ele><time>2026-05-05T08:55:59.213Z</time></trkpt><trkpt lat="53.10958" lon="-7.1193083"><ele>73.0</ele><time>2026-05-05T08:56:00.214Z</time></trkpt><trkpt lat="53.1094833" lon="-7.11975"><ele>73.5</ele><time>2026-05-05T08:56:01.213Z</time></trkpt><trkpt lat="53.1093867" lon="-7.1201883"><ele>74.0</ele><time>2026-05-05T08:56:02.213Z</time></trkpt><trkpt lat="53.109285" lon="-7.120625"><ele>73.5</ele><time>2026-05-05T08:56:03.213Z</time></trkpt><trkpt lat="53.1091967" lon="-7.1210517"><ele>73.0</ele><time>2026-05-05T08:56:04.213Z</time></trkpt><trkpt lat="53.109095" lon="-7.1214917"><ele>74.0</ele><time>2026-05-05T08:56:05.213Z</time></trkpt><trkpt lat="53.1090017" lon="-7.1219217"><ele>75.0</ele><time>2026-05-05T08:56:06.214Z</time></trkpt><trkpt lat="53.1089033" lon="-7.1223583"><ele>75.5</ele><time>2026-05-05T08:56:07.214Z</time></trkpt><trkpt lat="53.1088033" lon="-7.1228033"><ele>76.0</ele><time>2026-05-05T08:56:08.213Z</time></trkpt><trkpt lat="53.1087033" lon="-7.1232567"><ele>76.0</ele><time>2026-05-05T08:56:09.213Z</time></trkpt><trkpt lat="53.1086017" lon="-7.1237183"><ele>76.0</ele><time>2026-05-05T08:56:10.213Z</time></trkpt><trkpt lat="53.108515" lon="-7.1241783"><ele>76.0</ele><time>2026-05-05T08:56:11.214Z</time></trkpt><trkpt lat="53.108425" lon="-7.12465"><ele>76.0</ele><time>2026-05-05T08:56:12.214Z</time></trkpt><trkpt lat="53.10833" lon="-7.12513"><ele>77.0</ele><time>2026-05-05T08:56:13.214Z</time></trkpt><trkpt lat="53.108235" lon="-7.1255983"><ele>78.0</ele><time>2026-05-05T08:56:14.213Z</time></trkpt><trkpt lat="53.1081383" lon="-7.1260533"><ele>78.5</ele><time>2026-05-05T08:56:15.214Z</time></trkpt><trkpt lat="53.1080417" lon="-7.1264917"><ele>79.0</ele><time>2026-05-05T08:56:16.214Z</time></trkpt><trkpt lat="53.107935" lon="-7.1269333"><ele>79.0</ele><time>2026-05-05T08:56:17.213Z</time></trkpt><trkpt lat="53.107825" lon="-7.1273817"><ele>79.0</ele><time>2026-05-05T08:56:18.213Z</time></trkpt><trkpt lat="53.1077217" lon="-7.1278117"><ele>79.0</ele><time>2026-05-05T08:56:19.214Z</time></trkpt><trkpt lat="53.1076217" lon="-7.12823"><ele>79.0</ele><time>2026-05-05T08:56:20.214Z</time></trkpt><trkpt lat="53.1075233" lon="-7.1286433"><ele>79.0</ele><time>2026-05-05T08:56:21.214Z</time></trkpt><trkpt lat="53.107415" lon="-7.1290633"><ele>79.0</ele><time>2026-05-05T08:56:22.213Z</time></trkpt><trkpt lat="53.1073033" lon="-7.1294983"><ele>79.5</ele><time>2026-05-05T08:56:23.214Z</time></trkpt><trkpt lat="53.1071883" lon="-7.1299533"><ele>80.0</ele><time>2026-05-05T08:56:24.214Z</time></trkpt><trkpt lat="53.1070767" lon="-7.13041"><ele>79.0</ele><time>2026-05-05T08:56:25.214Z</time></trkpt><trkpt lat="53.1069567" lon="-7.1308717"><ele>78.0</ele><time>2026-05-05T08:56:26.213Z</time></trkpt><trkpt lat="53.1068283" lon="-7.131335"><ele>77.5</ele><time>2026-05-05T08:56:27.214Z</time></trkpt><trkpt lat="53.1067" lon="-7.1317983"><ele>77.0</ele><time>2026-05-05T08:56:28.214Z</time></trkpt><trkpt lat="53.106575" lon="-7.1322583"><ele>75.5</ele><time>2026-05-05T08:56:29.213Z</time></trkpt><trkpt lat="53.1064317" lon="-7.1327183"><ele>74.0</ele><time>2026-05-05T08:56:30.213Z</time></trkpt><trkpt lat="53.1063" lon="-7.1331733"><ele>74.0</ele><time>2026-05-05T08:56:31.214Z</time></trkpt><trkpt lat="53.1061833" lon="-7.1336217"><ele>74.0</ele><time>2026-05-05T08:56:32.214Z</time></trkpt><trkpt lat="53.1060717" lon="-7.1340583"><ele>73.5</ele><time>2026-05-05T08:56:33.213Z</time></trkpt><trkpt lat="53.10596" lon="-7.1345083"><ele>73.0</ele><time>2026-05-05T08:56:34.213Z</time></trkpt><trkpt lat="53.10585" lon="-7.1349467"><ele>73.0</ele><time>2026-05-05T08:56:35.214Z</time></trkpt><trkpt lat="53.1057317" lon="-7.1353683"><ele>73.0</ele><time>2026-05-05T08:56:36.213Z</time></trkpt><trkpt lat="53.1056117" lon="-7.1357933"><ele>73.0</ele><time>2026-05-05T08:56:37.214Z</time></trkpt><trkpt lat="53.1055017" lon="-7.1362283"><ele>73.0</ele><time>2026-05-05T08:56:38.214Z</time></trkpt><trkpt lat="53.1053767" lon="-7.1366567"><ele>74.0</ele><time>2026-05-05T08:56:39.213Z</time></trkpt><trkpt lat="53.1052483" lon="-7.1370867"><ele>75.0</ele><time>2026-05-05T08:56:40.214Z</time></trkpt><trkpt lat="53.1051167" lon="-7.1375183"><ele>76.5</ele><time>2026-05-05T08:56:41.214Z</time></trkpt><trkpt lat="53.10499" lon="-7.13796"><ele>78.0</ele><time>2026-05-05T08:56:42.213Z</time></trkpt><trkpt lat="53.10486" lon="-7.138395"><ele>79.0</ele><time>2026-05-05T08:56:43.214Z</time></trkpt><trkpt lat="53.10473" lon="-7.13882"><ele>80.0</ele><time>2026-05-05T08:56:44.214Z</time></trkpt><trkpt lat="53.10461" lon="-7.139255"><ele>80.0</ele><time>2026-05-05T08:56:45.214Z</time></trkpt><trkpt lat="53.1044817" lon="-7.1397033"><ele>80.0</ele><time>2026-05-05T08:56:46.214Z</time></trkpt><trkpt lat="53.1043633" lon="-7.1401733"><ele>78.5</ele><time>2026-05-05T08:56:47.213Z</time></trkpt><trkpt lat="53.1042283" lon="-7.1406383"><ele>77.0</ele><time>2026-05-05T08:56:48.214Z</time></trkpt><trkpt lat="53.1040917" lon="-7.1411117"><ele>74.5</ele><time>2026-05-05T08:56:49.214Z</time></trkpt><trkpt lat="53.1039567" lon="-7.1415783"><ele>72.0</ele><time>2026-05-05T08:56:50.213Z</time></trkpt><trkpt lat="53.1038217" lon="-7.1420467"><ele>72.5</ele><time>2026-05-05T08:56:51.214Z</time></trkpt><trkpt lat="53.1036833" lon="-7.142505"><ele>73.0</ele><time>2026-05-05T08:56:52.214Z</time></trkpt><trkpt lat="53.1035333" lon="-7.1429583"><ele>73.0</ele><time>2026-05-05T08:56:53.213Z</time></trkpt><trkpt lat="53.10339" lon="-7.143415"><ele>73.0</ele><time>2026-05-05T08:56:54.214Z</time></trkpt><trkpt lat="53.1032467" lon="-7.1438633"><ele>73.0</ele><time>2026-05-05T08:56:55.213Z</time></trkpt><trkpt lat="53.1031" lon="-7.14431"><ele>73.0</ele><time>2026-05-05T08:56:56.214Z</time></trkpt><trkpt lat="53.10295" lon="-7.144755"><ele>73.0</ele><time>2026-05-05T08:56:57.214Z</time></trkpt><trkpt lat="53.1028017" lon="-7.1451983"><ele>73.0</ele><time>2026-05-05T08:56:58.214Z</time></trkpt><trkpt lat="53.1026517" lon="-7.145645"><ele>72.5</ele><time>2026-05-05T08:56:59.214Z</time></trkpt><trkpt lat="53.102515" lon="-7.14609"><ele>72.0</ele><time>2026-05-05T08:57:00.214Z</time></trkpt><trkpt lat="53.10236" lon="-7.146545"><ele>71.0</ele><time>2026-05-05T08:57:01.214Z</time></trkpt><trkpt lat="53.1022167" lon="-7.147005"><ele>70.0</ele><time>2026-05-05T08:57:02.214Z</time></trkpt><trkpt lat="53.1020767" lon="-7.1474517"><ele>70.0</ele><time>2026-05-05T08:57:03.214Z</time></trkpt><trkpt lat="53.101935" lon="-7.1478783"><ele>70.0</ele><time>2026-05-05T08:57:04.214Z</time></trkpt><trkpt lat="53.1017933" lon="-7.1483017"><ele>71.0</ele><time>2026-05-05T08:57:05.214Z</time></trkpt><trkpt lat="53.1016483" lon="-7.1487083"><ele>72.0</ele><time>2026-05-05T08:57:06.214Z</time></trkpt><trkpt lat="53.1015033" lon="-7.1491067"><ele>76.5</ele><time>2026-05-05T08:57:07.214Z</time></trkpt><trkpt lat="53.101355" lon="-7.1495017"><ele>81.0</ele><time>2026-05-05T08:57:08.214Z</time></trkpt><trkpt lat="53.101195" lon="-7.1499017"><ele>81.0</ele><time>2026-05-05T08:57:09.214Z</time></trkpt><trkpt lat="53.1010483" lon="-7.1503133"><ele>81.0</ele><time>2026-05-05T08:57:10.214Z</time></trkpt><trkpt lat="53.1009" lon="-7.1507317"><ele>81.5</ele><time>2026-05-05T08:57:11.213Z</time></trkpt><trkpt lat="53.1007483" lon="-7.1511583"><ele>82.0</ele><time>2026-05-05T08:57:12.213Z</time></trkpt><trkpt lat="53.1005967" lon="-7.1515867"><ele>81.0</ele><time>2026-05-05T08:57:13.214Z</time></trkpt><trkpt lat="53.1004417" lon="-7.15201"><ele>80.0</ele><time>2026-05-05T08:57:14.213Z</time></trkpt><trkpt lat="53.10029" lon="-7.15243"><ele>78.0</ele><time>2026-05-05T08:57:15.213Z</time></trkpt><trkpt lat="53.100135" lon="-7.15285"><ele>76.0</ele><time>2026-05-05T08:57:16.214Z</time></trkpt><trkpt lat="53.0999783" lon="-7.153255"><ele>73.0</ele><time>2026-05-05T08:57:17.213Z</time></trkpt><trkpt lat="53.09982" lon="-7.1536633"><ele>70.0</ele><time>2026-05-05T08:57:18.214Z</time></trkpt><trkpt lat="53.0996667" lon="-7.15407"><ele>70.0</ele><time>2026-05-05T08:57:19.213Z</time></trkpt><trkpt lat="53.0995083" lon="-7.1544717"><ele>70.0</ele><time>2026-05-05T08:57:20.214Z</time></trkpt><trkpt lat="53.0993533" lon="-7.15488"><ele>69.5</ele><time>2026-05-05T08:57:21.213Z</time></trkpt><trkpt lat="53.0991967" lon="-7.1552817"><ele>69.0</ele><time>2026-05-05T08:57:22.214Z</time></trkpt><trkpt lat="53.09902" lon="-7.155695"><ele>69.5</ele><time>2026-05-05T08:57:23.214Z</time></trkpt><trkpt lat="53.098855" lon="-7.1561"><ele>70.0</ele><time>2026-05-05T08:57:24.213Z</time></trkpt><trkpt lat="53.098685" lon="-7.1565"><ele>70.0</ele><time>2026-05-05T08:57:25.213Z</time></trkpt><trkpt lat="53.0985083" lon="-7.15689"><ele>70.0</ele><time>2026-05-05T08:57:26.213Z</time></trkpt><trkpt lat="53.0983283" lon="-7.15728"><ele>71.0</ele><time>2026-05-05T08:57:27.214Z</time></trkpt><trkpt lat="53.0981417" lon="-7.157675"><ele>72.0</ele><time>2026-05-05T08:57:28.213Z</time></trkpt><trkpt lat="53.097955" lon="-7.1580783"><ele>73.0</ele><time>2026-05-05T08:57:29.214Z</time></trkpt><trkpt lat="53.0977633" lon="-7.15848"><ele>74.0</ele><time>2026-05-05T08:57:30.214Z</time></trkpt><trkpt lat="53.097565" lon="-7.1589133"><ele>74.5</ele><time>2026-05-05T08:57:31.214Z</time></trkpt><trkpt lat="53.0973783" lon="-7.1593217"><ele>75.0</ele><time>2026-05-05T08:57:32.214Z</time></trkpt><trkpt lat="53.097185" lon="-7.159725"><ele>75.5</ele><time>2026-05-05T08:57:33.214Z</time></trkpt><trkpt lat="53.0969883" lon="-7.1601183"><ele>76.0</ele><time>2026-05-05T08:57:34.213Z</time></trkpt><trkpt lat="53.0967833" lon="-7.1605083"><ele>77.5</ele><time>2026-05-05T08:57:35.214Z</time></trkpt><trkpt lat="53.0965717" lon="-7.1608883"><ele>79.0</ele><time>2026-05-05T08:57:36.214Z</time></trkpt><trkpt lat="53.0963683" lon="-7.1612467"><ele>78.5</ele><time>2026-05-05T08:57:37.214Z</time></trkpt><trkpt lat="53.0961633" lon="-7.1616033"><ele>78.0</ele><time>2026-05-05T08:57:38.214Z</time></trkpt><trkpt lat="53.095965" lon="-7.16195"><ele>78.0</ele><time>2026-05-05T08:57:39.214Z</time></trkpt><trkpt lat="53.0957617" lon="-7.16229"><ele>78.0</ele><time>2026-05-05T08:57:40.213Z</time></trkpt><trkpt lat="53.0955617" lon="-7.1626283"><ele>76.0</ele><time>2026-05-05T08:57:41.214Z</time></trkpt><trkpt lat="53.0953567" lon="-7.1629633"><ele>74.0</ele><time>2026-05-05T08:57:42.213Z</time></trkpt><trkpt lat="53.0951583" lon="-7.1632967"><ele>74.0</ele><time>2026-05-05T08:57:43.214Z</time></trkpt><trkpt lat="53.0949517" lon="-7.163635"><ele>74.0</ele><time>2026-05-05T08:57:44.213Z</time></trkpt><trkpt lat="53.09474" lon="-7.1639833"><ele>76.0</ele><time>2026-05-05T08:57:45.214Z</time></trkpt><trkpt lat="53.094535" lon="-7.1643267"><ele>78.0</ele><time>2026-05-05T08:57:46.213Z</time></trkpt><trkpt lat="53.0943233" lon="-7.1646617"><ele>77.5</ele><time>2026-05-05T08:57:47.213Z</time></trkpt><trkpt lat="53.0940983" lon="-7.1649867"><ele>77.0</ele><time>2026-05-05T08:57:48.213Z</time></trkpt><trkpt lat="53.0938883" lon="-7.165305"><ele>78.0</ele><time>2026-05-05T08:57:49.214Z</time></trkpt><trkpt lat="53.09368" lon="-7.1656283"><ele>79.0</ele><time>2026-05-05T08:57:50.214Z</time></trkpt><trkpt lat="53.0934633" lon="-7.1659417"><ele>78.5</ele><time>2026-05-05T08:57:51.214Z</time></trkpt><trkpt lat="53.09324" lon="-7.1662517"><ele>78.0</ele><time>2026-05-05T08:57:52.214Z</time></trkpt><trkpt lat="53.0930183" lon="-7.1665483"><ele>76.5</ele><time>2026-05-05T08:57:53.214Z</time></trkpt><trkpt lat="53.09278" lon="-7.1668567"><ele>75.0</ele><time>2026-05-05T08:57:54.214Z</time></trkpt><trkpt lat="53.0925367" lon="-7.1671617"><ele>75.0</ele><time>2026-05-05T08:57:55.214Z</time></trkpt><trkpt lat="53.09231" lon="-7.16747"><ele>75.0</ele><time>2026-05-05T08:57:56.213Z</time></trkpt><trkpt lat="53.092055" lon="-7.1677533"><ele>75.0</ele><time>2026-05-05T08:57:57.214Z</time></trkpt><trkpt lat="53.091815" lon="-7.1680583"><ele>75.0</ele><time>2026-05-05T08:57:58.214Z</time></trkpt><trkpt lat="53.0915733" lon="-7.168365"><ele>75.5</ele><time>2026-05-05T08:57:59.213Z</time></trkpt><trkpt lat="53.0913317" lon="-7.1686833"><ele>76.0</ele><time>2026-05-05T08:58:00.214Z</time></trkpt><trkpt lat="53.0911017" lon="-7.169005"><ele>76.5</ele><time>2026-05-05T08:58:01.214Z</time></trkpt><trkpt lat="53.090885" lon="-7.16935"><ele>77.0</ele><time>2026-05-05T08:58:02.214Z</time></trkpt><trkpt lat="53.09066" lon="-7.1696817"><ele>78.0</ele><time>2026-05-05T08:58:03.214Z</time></trkpt><trkpt lat="53.0904367" lon="-7.1700117"><ele>79.0</ele><time>2026-05-05T08:58:04.214Z</time></trkpt><trkpt lat="53.0902217" lon="-7.170345"><ele>79.0</ele><time>2026-05-05T08:58:05.213Z</time></trkpt><trkpt lat="53.09001" lon="-7.1706767"><ele>79.0</ele><time>2026-05-05T08:58:06.214Z</time></trkpt><trkpt lat="53.0898067" lon="-7.1710083"><ele>79.5</ele><time>2026-05-05T08:58:07.214Z</time></trkpt><trkpt lat="53.0896017" lon="-7.171345"><ele>80.0</ele><time>2026-05-05T08:58:08.214Z</time></trkpt><trkpt lat="53.0894017" lon="-7.171695"><ele>80.5</ele><time>2026-05-05T08:58:09.213Z</time></trkpt><trkpt lat="53.089195" lon="-7.1720267"><ele>81.0</ele><time>2026-05-05T08:58:10.214Z</time></trkpt><trkpt lat="53.08898" lon="-7.1723617"><ele>81.0</ele><time>2026-05-05T08:58:11.214Z</time></trkpt><trkpt lat="53.0887667" lon="-7.1727"><ele>81.0</ele><time>2026-05-05T08:58:12.214Z</time></trkpt><trkpt lat="53.0885617" lon="-7.173055"><ele>81.0</ele><time>2026-05-05T08:58:13.214Z</time></trkpt><trkpt lat="53.088355" lon="-7.1734117"><ele>81.0</ele><time>2026-05-05T08:58:14.214Z</time></trkpt><trkpt lat="53.0881517" lon="-7.17379"><ele>81.0</ele><time>2026-05-05T08:58:15.214Z</time></trkpt><trkpt lat="53.0879483" lon="-7.174155"><ele>81.0</ele><time>2026-05-05T08:58:16.213Z</time></trkpt><trkpt lat="53.0877467" lon="-7.17453"><ele>81.0</ele><time>2026-05-05T08:58:17.213Z</time></trkpt><trkpt lat="53.087555" lon="-7.1749083"><ele>81.0</ele><time>2026-05-05T08:58:18.214Z</time></trkpt><trkpt lat="53.087365" lon="-7.1752833"><ele>80.5</ele><time>2026-05-05T08:58:19.214Z</time></trkpt><trkpt lat="53.0871817" lon="-7.17564"><ele>80.0</ele><time>2026-05-05T08:58:20.213Z</time></trkpt><trkpt lat="53.087" lon="-7.17599"><ele>80.0</ele><time>2026-05-05T08:58:21.213Z</time></trkpt><trkpt lat="53.0868267" lon="-7.1763467"><ele>80.0</ele><time>2026-05-05T08:58:22.213Z</time></trkpt><trkpt lat="53.0866567" lon="-7.176715"><ele>79.0</ele><time>2026-05-05T08:58:23.213Z</time></trkpt><trkpt lat="53.0864883" lon="-7.1770933"><ele>78.0</ele><time>2026-05-05T08:58:24.214Z</time></trkpt><trkpt lat="53.086315" lon="-7.17746"><ele>78.0</ele><time>2026-05-05T08:58:25.214Z</time></trkpt><trkpt lat="53.08614" lon="-7.177835"><ele>78.0</ele><time>2026-05-05T08:58:26.214Z</time></trkpt><trkpt lat="53.0859667" lon="-7.1782217"><ele>78.0</ele><time>2026-05-05T08:58:27.214Z</time></trkpt><trkpt lat="53.0857967" lon="-7.178605"><ele>78.0</ele><time>2026-05-05T08:58:28.213Z</time></trkpt><trkpt lat="53.0856283" lon="-7.1790017"><ele>77.5</ele><time>2026-05-05T08:58:29.214Z</time></trkpt><trkpt lat="53.0854633" lon="-7.1794"><ele>77.0</ele><time>2026-05-05T08:58:30.213Z</time></trkpt><trkpt lat="53.0853" lon="-7.179815"><ele>77.5</ele><time>2026-05-05T08:58:31.214Z</time></trkpt><trkpt lat="53.0851367" lon="-7.1802217"><ele>78.0</ele><time>2026-05-05T08:58:32.213Z</time></trkpt><trkpt lat="53.084975" lon="-7.18063"><ele>79.0</ele><time>2026-05-05T08:58:33.214Z</time></trkpt><trkpt lat="53.08482" lon="-7.181045"><ele>80.0</ele><time>2026-05-05T08:58:34.213Z</time></trkpt><trkpt lat="53.0846733" lon="-7.1814733"><ele>80.5</ele><time>2026-05-05T08:58:35.214Z</time></trkpt><trkpt lat="53.084515" lon="-7.1818917"><ele>81.0</ele><time>2026-05-05T08:58:36.213Z</time></trkpt><trkpt lat="53.08435" lon="-7.1823033"><ele>81.0</ele><time>2026-05-05T08:58:37.214Z</time></trkpt><trkpt lat="53.0842067" lon="-7.1827183"><ele>81.0</ele><time>2026-05-05T08:58:38.214Z</time></trkpt><trkpt lat="53.084055" lon="-7.183135"><ele>82.0</ele><time>2026-05-05T08:58:39.214Z</time></trkpt><trkpt lat="53.0839017" lon="-7.1835617"><ele>83.0</ele><time>2026-05-05T08:58:40.214Z</time></trkpt><trkpt lat="53.0837533" lon="-7.1839883"><ele>83.5</ele><time>2026-05-05T08:58:41.213Z</time></trkpt><trkpt lat="53.0836133" lon="-7.1844117"><ele>84.0</ele><time>2026-05-05T08:58:42.214Z</time></trkpt><trkpt lat="53.0834883" lon="-7.1848233"><ele>83.5</ele><time>2026-05-05T08:58:43.214Z</time></trkpt><trkpt lat="53.0833717" lon="-7.1852483"><ele>83.0</ele><time>2026-05-05T08:58:44.214Z</time></trkpt><trkpt lat="53.0832533" lon="-7.1856583"><ele>83.0</ele><time>2026-05-05T08:58:45.213Z</time></trkpt><trkpt lat="53.083125" lon="-7.18608"><ele>83.0</ele><time>2026-05-05T08:58:46.214Z</time></trkpt><trkpt lat="53.0830117" lon="-7.186515"><ele>83.0</ele><time>2026-05-05T08:58:47.213Z</time></trkpt><trkpt lat="53.0828833" lon="-7.186945"><ele>83.0</ele><time>2026-05-05T08:58:48.213Z</time></trkpt><trkpt lat="53.0827583" lon="-7.1873833"><ele>83.0</ele><time>2026-05-05T08:58:49.214Z</time></trkpt><trkpt lat="53.0826233" lon="-7.187825"><ele>83.0</ele><time>2026-05-05T08:58:50.214Z</time></trkpt><trkpt lat="53.0824917" lon="-7.1882667"><ele>83.5</ele><time>2026-05-05T08:58:51.214Z</time></trkpt><trkpt lat="53.08236" lon="-7.1887067"><ele>84.0</ele><time>2026-05-05T08:58:52.213Z</time></trkpt><trkpt lat="53.0822317" lon="-7.189145"><ele>84.0</ele><time>2026-05-05T08:58:53.213Z</time></trkpt><trkpt lat="53.0820833" lon="-7.1895817"><ele>84.0</ele><time>2026-05-05T08:58:54.213Z</time></trkpt><trkpt lat="53.0819367" lon="-7.1900183"><ele>83.0</ele><time>2026-05-05T08:58:55.214Z</time></trkpt><trkpt lat="53.081795" lon="-7.1904533"><ele>82.0</ele><time>2026-05-05T08:58:56.214Z</time></trkpt><trkpt lat="53.08164" lon="-7.1908917"><ele>82.0</ele><time>2026-05-05T08:58:57.214Z</time></trkpt><trkpt lat="53.0814817" lon="-7.1913317"><ele>82.0</ele><time>2026-05-05T08:58:58.214Z</time></trkpt><trkpt lat="53.081315" lon="-7.1917633"><ele>82.0</ele><time>2026-05-05T08:58:59.213Z</time></trkpt><trkpt lat="53.0811483" lon="-7.1921883"><ele>82.0</ele><time>2026-05-05T08:59:00.214Z</time></trkpt><trkpt lat="53.0809833" lon="-7.1926067"><ele>81.5</ele><time>2026-05-05T08:59:01.213Z</time></trkpt><trkpt lat="53.0808233" lon="-7.1930217"><ele>81.0</ele><time>2026-05-05T08:59:02.214Z</time></trkpt><trkpt lat="53.0806617" lon="-7.193435"><ele>81.5</ele><time>2026-05-05T08:59:03.213Z</time></trkpt><trkpt lat="53.0804983" lon="-7.193845"><ele>82.0</ele><time>2026-05-05T08:59:04.214Z</time></trkpt><trkpt lat="53.0803233" lon="-7.1942333"><ele>82.0</ele><time>2026-05-05T08:59:05.214Z</time></trkpt><trkpt lat="53.08016" lon="-7.1946267"><ele>82.0</ele><time>2026-05-05T08:59:06.213Z</time></trkpt><trkpt lat="53.0799933" lon="-7.1950183"><ele>83.5</ele><time>2026-05-05T08:59:07.214Z</time></trkpt><trkpt lat="53.0798283" lon="-7.1954117"><ele>85.0</ele><time>2026-05-05T08:59:08.213Z</time></trkpt><trkpt lat="53.0796567" lon="-7.1958167"><ele>85.5</ele><time>2026-05-05T08:59:09.214Z</time></trkpt><trkpt lat="53.0794917" lon="-7.1962033"><ele>86.0</ele><time>2026-05-05T08:59:10.214Z</time></trkpt><trkpt lat="53.0793267" lon="-7.1965833"><ele>87.5</ele><time>2026-05-05T08:59:11.214Z</time></trkpt><trkpt lat="53.0791483" lon="-7.1969483"><ele>89.0</ele><time>2026-05-05T08:59:12.214Z</time></trkpt><trkpt lat="53.07898" lon="-7.1973283"><ele>91.5</ele><time>2026-05-05T08:59:13.214Z</time></trkpt><trkpt lat="53.078795" lon="-7.197695"><ele>94.0</ele><time>2026-05-05T08:59:14.214Z</time></trkpt><trkpt lat="53.078615" lon="-7.1980267"><ele>93.5</ele><time>2026-05-05T08:59:15.214Z</time></trkpt><trkpt lat="53.078435" lon="-7.1983717"><ele>93.0</ele><time>2026-05-05T08:59:16.214Z</time></trkpt><trkpt lat="53.078255" lon="-7.1987233"><ele>92.5</ele><time>2026-05-05T08:59:17.214Z</time></trkpt><trkpt lat="53.0780617" lon="-7.1990767"><ele>92.0</ele><time>2026-05-05T08:59:18.214Z</time></trkpt><trkpt lat="53.0778767" lon="-7.1994367"><ele>92.0</ele><time>2026-05-05T08:59:19.213Z</time></trkpt><trkpt lat="53.0776817" lon="-7.199795"><ele>92.0</ele><time>2026-05-05T08:59:20.214Z</time></trkpt><trkpt lat="53.0774883" lon="-7.2001583"><ele>90.0</ele><time>2026-05-05T08:59:21.214Z</time></trkpt><trkpt lat="53.0772917" lon="-7.2005217"><ele>88.0</ele><time>2026-05-05T08:59:22.214Z</time></trkpt><trkpt lat="53.0771" lon="-7.2008783"><ele>88.0</ele><time>2026-05-05T08:59:23.214Z</time></trkpt><trkpt lat="53.0768933" lon="-7.2012333"><ele>88.0</ele><time>2026-05-05T08:59:24.213Z</time></trkpt><trkpt lat="53.0766783" lon="-7.2015833"><ele>89.5</ele><time>2026-05-05T08:59:25.214Z</time></trkpt><trkpt lat="53.0764633" lon="-7.2019417"><ele>91.0</ele><time>2026-05-05T08:59:26.214Z</time></trkpt><trkpt lat="53.0762417" lon="-7.202295"><ele>90.5</ele><time>2026-05-05T08:59:27.214Z</time></trkpt><trkpt lat="53.0760233" lon="-7.2026517"><ele>90.0</ele><time>2026-05-05T08:59:28.213Z</time></trkpt><trkpt lat="53.0758" lon="-7.2029917"><ele>90.0</ele><time>2026-05-05T08:59:29.214Z</time></trkpt><trkpt lat="53.0755767" lon="-7.2033283"><ele>90.0</ele><time>2026-05-05T08:59:30.214Z</time></trkpt><trkpt lat="53.0753417" lon="-7.2036583"><ele>90.0</ele><time>2026-05-05T08:59:31.213Z</time></trkpt><trkpt lat="53.0751283" lon="-7.2039833"><ele>90.0</ele><time>2026-05-05T08:59:32.213Z</time></trkpt><trkpt lat="53.074915" lon="-7.2043067"><ele>90.0</ele><time>2026-05-05T08:59:33.214Z</time></trkpt><trkpt lat="53.0747017" lon="-7.20464"><ele>90.0</ele><time>2026-05-05T08:59:34.213Z</time></trkpt><trkpt lat="53.0744833" lon="-7.2049633"><ele>90.0</ele><time>2026-05-05T08:59:35.213Z</time></trkpt><trkpt lat="53.07426" lon="-7.2052967"><ele>90.0</ele><time>2026-05-05T08:59:36.214Z</time></trkpt><trkpt lat="53.07404" lon="-7.205635"><ele>90.5</ele><time>2026-05-05T08:59:37.213Z</time></trkpt><trkpt lat="53.073825" lon="-7.20599"><ele>91.0</ele><time>2026-05-05T08:59:38.213Z</time></trkpt><trkpt lat="53.0735917" lon="-7.2063383"><ele>90.5</ele><time>2026-05-05T08:59:39.213Z</time></trkpt><trkpt lat="53.0733667" lon="-7.20668"><ele>90.0</ele><time>2026-05-05T08:59:40.214Z</time></trkpt><trkpt lat="53.0731483" lon="-7.2070217"><ele>90.0</ele><time>2026-05-05T08:59:41.213Z</time></trkpt><trkpt lat="53.07293" lon="-7.2073617"><ele>90.0</ele><time>2026-05-05T08:59:42.213Z</time></trkpt><trkpt lat="53.0727033" lon="-7.2076867"><ele>90.0</ele><time>2026-05-05T08:59:43.214Z</time></trkpt><trkpt lat="53.0724933" lon="-7.2080167"><ele>90.0</ele><time>2026-05-05T08:59:44.214Z</time></trkpt><trkpt lat="53.0722817" lon="-7.2083383"><ele>90.0</ele><time>2026-05-05T08:59:45.214Z</time></trkpt><trkpt lat="53.0720617" lon="-7.2086633"><ele>90.0</ele><time>2026-05-05T08:59:46.214Z</time></trkpt><trkpt lat="53.0718433" lon="-7.2089933"><ele>90.0</ele><time>2026-05-05T08:59:47.214Z</time></trkpt><trkpt lat="53.071635" lon="-7.2093267"><ele>90.0</ele><time>2026-05-05T08:59:48.214Z</time></trkpt><trkpt lat="53.0714233" lon="-7.209665"><ele>90.0</ele><time>2026-05-05T08:59:49.213Z</time></trkpt><trkpt lat="53.0712133" lon="-7.21"><ele>90.0</ele><time>2026-05-05T08:59:50.214Z</time></trkpt><trkpt lat="53.0710017" lon="-7.2103517"><ele>89.5</ele><time>2026-05-05T08:59:51.214Z</time></trkpt><trkpt lat="53.0707717" lon="-7.2107017"><ele>89.0</ele><time>2026-05-05T08:59:52.214Z</time></trkpt><trkpt lat="53.0705533" lon="-7.2110567"><ele>89.0</ele><time>2026-05-05T08:59:53.214Z</time></trkpt><trkpt lat="53.0703333" lon="-7.2114"><ele>89.0</ele><time>2026-05-05T08:59:54.214Z</time></trkpt><trkpt lat="53.0701083" lon="-7.2117433"><ele>91.0</ele><time>2026-05-05T08:59:55.214Z</time></trkpt><trkpt lat="53.0698917" lon="-7.212085"><ele>93.0</ele><time>2026-05-05T08:59:56.214Z</time></trkpt><trkpt lat="53.0696817" lon="-7.2124267"><ele>93.0</ele><time>2026-05-05T08:59:57.213Z</time></trkpt><trkpt lat="53.0694667" lon="-7.2127533"><ele>93.0</ele><time>2026-05-05T08:59:58.213Z</time></trkpt><trkpt lat="53.06926" lon="-7.2130833"><ele>94.5</ele><time>2026-05-05T08:59:59.214Z</time></trkpt><trkpt lat="53.0690617" lon="-7.2134217"><ele>96.0</ele><time>2026-05-05T09:00:00.214Z</time></trkpt><trkpt lat="53.068855" lon="-7.2137483"><ele>96.0</ele><time>2026-05-05T09:00:01.213Z</time></trkpt><trkpt lat="53.068645" lon="-7.2140833"><ele>96.0</ele><time>2026-05-05T09:00:02.214Z</time></trkpt><trkpt lat="53.06843" lon="-7.21442"><ele>97.5</ele><time>2026-05-05T09:00:03.213Z</time></trkpt><trkpt lat="53.0682033" lon="-7.2147467"><ele>99.0</ele><time>2026-05-05T09:00:04.214Z</time></trkpt><trkpt lat="53.0679767" lon="-7.2150783"><ele>99.0</ele><time>2026-05-05T09:00:05.213Z</time></trkpt><trkpt lat="53.0677517" lon="-7.2154133"><ele>99.0</ele><time>2026-05-05T09:00:06.213Z</time></trkpt><trkpt lat="53.0675267" lon="-7.2157467"><ele>101.0</ele><time>2026-05-05T09:00:07.214Z</time></trkpt><trkpt lat="53.0672983" lon="-7.2160867"><ele>103.0</ele><time>2026-05-05T09:00:08.214Z</time></trkpt><trkpt lat="53.0670683" lon="-7.21642"><ele>102.0</ele><time>2026-05-05T09:00:09.214Z</time></trkpt><trkpt lat="53.066845" lon="-7.2167667"><ele>101.0</ele><time>2026-05-05T09:00:10.214Z</time></trkpt><trkpt lat="53.0666217" lon="-7.2171167"><ele>102.0</ele><time>2026-05-05T09:00:11.213Z</time></trkpt><trkpt lat="53.0663883" lon="-7.2174867"><ele>103.0</ele><time>2026-05-05T09:00:12.213Z</time></trkpt><trkpt lat="53.0661617" lon="-7.2178383"><ele>102.5</ele><time>2026-05-05T09:00:13.214Z</time></trkpt><trkpt lat="53.0659433" lon="-7.21819"><ele>102.0</ele><time>2026-05-05T09:00:14.214Z</time></trkpt><trkpt lat="53.065725" lon="-7.2185317"><ele>102.0</ele><time>2026-05-05T09:00:15.213Z</time></trkpt><trkpt lat="53.0655083" lon="-7.2188717"><ele>102.0</ele><time>2026-05-05T09:00:16.213Z</time></trkpt><trkpt lat="53.0652883" lon="-7.2192033"><ele>101.5</ele><time>2026-05-05T09:00:17.214Z</time></trkpt><trkpt lat="53.0650783" lon="-7.21954"><ele>101.0</ele><time>2026-05-05T09:00:18.214Z</time></trkpt><trkpt lat="53.0648667" lon="-7.2198717"><ele>102.0</ele><time>2026-05-05T09:00:19.214Z</time></trkpt><trkpt lat="53.06465" lon="-7.2202"><ele>103.0</ele><time>2026-05-05T09:00:20.213Z</time></trkpt><trkpt lat="53.064435" lon="-7.2205317"><ele>103.5</ele><time>2026-05-05T09:00:21.214Z</time></trkpt><trkpt lat="53.0642133" lon="-7.2208683"><ele>104.0</ele><time>2026-05-05T09:00:22.214Z</time></trkpt><trkpt lat="53.0639967" lon="-7.2212033"><ele>105.0</ele><time>2026-05-05T09:00:23.214Z</time></trkpt><trkpt lat="53.063775" lon="-7.2215217"><ele>106.0</ele><time>2026-05-05T09:00:24.213Z</time></trkpt><trkpt lat="53.06356" lon="-7.2218533"><ele>106.0</ele><time>2026-05-05T09:00:25.214Z</time></trkpt><trkpt lat="53.0633467" lon="-7.2221833"><ele>106.0</ele><time>2026-05-05T09:00:26.214Z</time></trkpt><trkpt lat="53.06313" lon="-7.2225117"><ele>106.5</ele><time>2026-05-05T09:00:27.213Z</time></trkpt><trkpt lat="53.0629167" lon="-7.2228383"><ele>107.0</ele><time>2026-05-05T09:00:28.214Z</time></trkpt><trkpt lat="53.0626933" lon="-7.2231683"><ele>107.0</ele><time>2026-05-05T09:00:29.214Z</time></trkpt><trkpt lat="53.0624717" lon="-7.2235067"><ele>107.0</ele><time>2026-05-05T09:00:30.213Z</time></trkpt><trkpt lat="53.0622517" lon="-7.223845"><ele>106.5</ele><time>2026-05-05T09:00:31.214Z</time></trkpt><trkpt lat="53.0620317" lon="-7.2241883"><ele>106.0</ele><time>2026-05-05T09:00:32.214Z</time></trkpt><trkpt lat="53.061805" lon="-7.22453"><ele>105.5</ele><time>2026-05-05T09:00:33.214Z</time></trkpt><trkpt lat="53.06158" lon="-7.2248617"><ele>105.0</ele><time>2026-05-05T09:00:34.214Z</time></trkpt><trkpt lat="53.0613567" lon="-7.2252"><ele>105.0</ele><time>2026-05-05T09:00:35.214Z</time></trkpt><trkpt lat="53.06113" lon="-7.2255417"><ele>105.0</ele><time>2026-05-05T09:00:36.214Z</time></trkpt><trkpt lat="53.06089" lon="-7.2258633"><ele>105.5</ele><time>2026-05-05T09:00:37.214Z</time></trkpt><trkpt lat="53.0606833" lon="-7.226185"><ele>106.0</ele><time>2026-05-05T09:00:38.214Z</time></trkpt><trkpt lat="53.060465" lon="-7.2265"><ele>105.0</ele><time>2026-05-05T09:00:39.213Z</time></trkpt><trkpt lat="53.0602483" lon="-7.2268117"><ele>104.0</ele><time>2026-05-05T09:00:40.213Z</time></trkpt><trkpt lat="53.0600367" lon="-7.2271183"><ele>104.5</ele><time>2026-05-05T09:00:41.214Z</time></trkpt><trkpt lat="53.059845" lon="-7.2274217"><ele>105.0</ele><time>2026-05-05T09:00:42.213Z</time></trkpt><trkpt lat="53.0596417" lon="-7.2277333"><ele>105.0</ele><time>2026-05-05T09:00:43.213Z</time></trkpt><trkpt lat="53.0594333" lon="-7.2280467"><ele>105.0</ele><time>2026-05-05T09:00:44.214Z</time></trkpt><trkpt lat="53.05921" lon="-7.2283617"><ele>106.0</ele><time>2026-05-05T09:00:45.213Z</time></trkpt><trkpt lat="53.0589983" lon="-7.2286517"><ele>107.0</ele><time>2026-05-05T09:00:46.214Z</time></trkpt><trkpt lat="53.0587817" lon="-7.2289433"><ele>107.0</ele><time>2026-05-05T09:00:47.214Z</time></trkpt><trkpt lat="53.0585533" lon="-7.229235"><ele>107.0</ele><time>2026-05-05T09:00:48.214Z</time></trkpt><trkpt lat="53.0583283" lon="-7.22952"><ele>107.0</ele><time>2026-05-05T09:00:49.214Z</time></trkpt><trkpt lat="53.0581" lon="-7.229795"><ele>107.0</ele><time>2026-05-05T09:00:50.213Z</time></trkpt><trkpt lat="53.057915" lon="-7.2300783"><ele>107.0</ele><time>2026-05-05T09:00:51.214Z</time></trkpt><trkpt lat="53.0576767" lon="-7.230355"><ele>107.0</ele><time>2026-05-05T09:00:52.214Z</time></trkpt><trkpt lat="53.0574433" lon="-7.2306533"><ele>106.0</ele><time>2026-05-05T09:00:53.214Z</time></trkpt><trkpt lat="53.0572017" lon="-7.2309467"><ele>105.0</ele><time>2026-05-05T09:00:54.213Z</time></trkpt><trkpt lat="53.05696" lon="-7.2312433"><ele>105.5</ele><time>2026-05-05T09:00:55.213Z</time></trkpt><trkpt lat="53.056715" lon="-7.2315367"><ele>106.0</ele><time>2026-05-05T09:00:56.213Z</time></trkpt><trkpt lat="53.0564667" lon="-7.2318267"><ele>106.0</ele><time>2026-05-05T09:00:57.214Z</time></trkpt><trkpt lat="53.05621" lon="-7.2321067"><ele>106.0</ele><time>2026-05-05T09:00:58.214Z</time></trkpt><trkpt lat="53.0559583" lon="-7.232375"><ele>106.0</ele><time>2026-05-05T09:00:59.213Z</time></trkpt><trkpt lat="53.0557267" lon="-7.2326583"><ele>106.0</ele><time>2026-05-05T09:01:00.213Z</time></trkpt><trkpt lat="53.055485" lon="-7.232935"><ele>106.5</ele><time>2026-05-05T09:01:01.214Z</time></trkpt><trkpt lat="53.0552783" lon="-7.233235"><ele>107.0</ele><time>2026-05-05T09:01:02.213Z</time></trkpt><trkpt lat="53.055055" lon="-7.2335233"><ele>107.0</ele><time>2026-05-05T09:01:03.214Z</time></trkpt><trkpt lat="53.0548367" lon="-7.233825"><ele>107.0</ele><time>2026-05-05T09:01:04.214Z</time></trkpt><trkpt lat="53.0546133" lon="-7.2341067"><ele>107.0</ele><time>2026-05-05T09:01:05.214Z</time></trkpt><trkpt lat="53.054395" lon="-7.2344083"><ele>107.0</ele><time>2026-05-05T09:01:06.214Z</time></trkpt><trkpt lat="53.0541783" lon="-7.234675"><ele>108.0</ele><time>2026-05-05T09:01:07.214Z</time></trkpt><trkpt lat="53.0539567" lon="-7.2349533"><ele>109.0</ele><time>2026-05-05T09:01:08.214Z</time></trkpt><trkpt lat="53.053725" lon="-7.2352333"><ele>109.0</ele><time>2026-05-05T09:01:09.213Z</time></trkpt><trkpt lat="53.0534917" lon="-7.2355"><ele>109.0</ele><time>2026-05-05T09:01:10.213Z</time></trkpt><trkpt lat="53.053255" lon="-7.23576"><ele>111.0</ele><time>2026-05-05T09:01:11.214Z</time></trkpt><trkpt lat="53.05303" lon="-7.2360317"><ele>113.0</ele><time>2026-05-05T09:01:12.214Z</time></trkpt><trkpt lat="53.0528033" lon="-7.23631"><ele>114.0</ele><time>2026-05-05T09:01:13.214Z</time></trkpt><trkpt lat="53.0525783" lon="-7.2365917"><ele>115.0</ele><time>2026-05-05T09:01:14.214Z</time></trkpt><trkpt lat="53.0523533" lon="-7.236875"><ele>116.0</ele><time>2026-05-05T09:01:15.214Z</time></trkpt><trkpt lat="53.0521183" lon="-7.2371483"><ele>117.0</ele><time>2026-05-05T09:01:16.214Z</time></trkpt><trkpt lat="53.05187" lon="-7.2374167"><ele>117.0</ele><time>2026-05-05T09:01:17.213Z</time></trkpt><trkpt lat="53.0516367" lon="-7.2376983"><ele>117.0</ele><time>2026-05-05T09:01:18.214Z</time></trkpt><trkpt lat="53.051395" lon="-7.237965"><ele>119.0</ele><time>2026-05-05T09:01:19.214Z</time></trkpt><trkpt lat="53.0511417" lon="-7.2382183"><ele>121.0</ele><time>2026-05-05T09:01:20.214Z</time></trkpt><trkpt lat="53.0508883" lon="-7.2384717"><ele>121.0</ele><time>2026-05-05T09:01:21.214Z</time></trkpt><trkpt lat="53.0506317" lon="-7.23873"><ele>121.0</ele><time>2026-05-05T09:01:22.214Z</time></trkpt><trkpt lat="53.0503617" lon="-7.23897"><ele>121.0</ele><time>2026-05-05T09:01:23.214Z</time></trkpt><trkpt lat="53.0500883" lon="-7.2392083"><ele>121.0</ele><time>2026-05-05T09:01:24.214Z</time></trkpt><trkpt lat="53.049805" lon="-7.239425"><ele>121.5</ele><time>2026-05-05T09:01:25.214Z</time></trkpt><trkpt lat="53.0495433" lon="-7.239665"><ele>122.0</ele><time>2026-05-05T09:01:26.214Z</time></trkpt><trkpt lat="53.0492733" lon="-7.2398917"><ele>121.5</ele><time>2026-05-05T09:01:27.214Z</time></trkpt><trkpt lat="53.0490033" lon="-7.2401167"><ele>121.0</ele><time>2026-05-05T09:01:28.213Z</time></trkpt><trkpt lat="53.0487333" lon="-7.2403367"><ele>121.0</ele><time>2026-05-05T09:01:29.214Z</time></trkpt><trkpt lat="53.0484667" lon="-7.2405533"><ele>121.0</ele><time>2026-05-05T09:01:30.214Z</time></trkpt><trkpt lat="53.0482033" lon="-7.24077"><ele>119.0</ele><time>2026-05-05T09:01:31.214Z</time></trkpt><trkpt lat="53.0479433" lon="-7.2409633"><ele>117.0</ele><time>2026-05-05T09:01:32.213Z</time></trkpt><trkpt lat="53.047655" lon="-7.2411367"><ele>116.5</ele><time>2026-05-05T09:01:33.214Z</time></trkpt><trkpt lat="53.0473817" lon="-7.2413167"><ele>116.0</ele><time>2026-05-05T09:01:34.214Z</time></trkpt><trkpt lat="53.0471133" lon="-7.241495"><ele>116.0</ele><time>2026-05-05T09:01:35.214Z</time></trkpt><trkpt lat="53.04683" lon="-7.2416567"><ele>116.0</ele><time>2026-05-05T09:01:36.214Z</time></trkpt><trkpt lat="53.046535" lon="-7.2418017"><ele>115.5</ele><time>2026-05-05T09:01:37.213Z</time></trkpt><trkpt lat="53.04624" lon="-7.2419217"><ele>115.0</ele><time>2026-05-05T09:01:38.214Z</time></trkpt><trkpt lat="53.0459433" lon="-7.242035"><ele>115.0</ele><time>2026-05-05T09:01:39.214Z</time></trkpt><trkpt lat="53.0456517" lon="-7.2421583"><ele>115.0</ele><time>2026-05-05T09:01:40.213Z</time></trkpt><trkpt lat="53.0453783" lon="-7.2423133"><ele>115.0</ele><time>2026-05-05T09:01:41.214Z</time></trkpt><trkpt lat="53.0450967" lon="-7.2424433"><ele>115.0</ele><time>2026-05-05T09:01:42.213Z</time></trkpt><trkpt lat="53.0447967" lon="-7.2425683"><ele>114.5</ele><time>2026-05-05T09:01:43.214Z</time></trkpt><trkpt lat="53.0445" lon="-7.2427017"><ele>114.0</ele><time>2026-05-05T09:01:44.214Z</time></trkpt><trkpt lat="53.0442033" lon="-7.2428333"><ele>114.0</ele><time>2026-05-05T09:01:45.214Z</time></trkpt><trkpt lat="53.043905" lon="-7.2429567"><ele>114.0</ele><time>2026-05-05T09:01:46.214Z</time></trkpt><trkpt lat="53.0436083" lon="-7.2430533"><ele>114.0</ele><time>2026-05-05T09:01:47.214Z</time></trkpt><trkpt lat="53.043305" lon="-7.24314"><ele>114.0</ele><time>2026-05-05T09:01:48.213Z</time></trkpt><trkpt lat="53.0429867" lon="-7.24323"><ele>114.5</ele><time>2026-05-05T09:01:49.214Z</time></trkpt><trkpt lat="53.0426817" lon="-7.243325"><ele>115.0</ele><time>2026-05-05T09:01:50.214Z</time></trkpt><trkpt lat="53.04237" lon="-7.243385"><ele>115.0</ele><time>2026-05-05T09:01:51.214Z</time></trkpt><trkpt lat="53.0420667" lon="-7.2434383"><ele>115.0</ele><time>2026-05-05T09:01:52.213Z</time></trkpt><trkpt lat="53.0417667" lon="-7.24349"><ele>115.0</ele><time>2026-05-05T09:01:53.214Z</time></trkpt><trkpt lat="53.041455" lon="-7.243545"><ele>115.0</ele><time>2026-05-05T09:01:54.214Z</time></trkpt><trkpt lat="53.0411483" lon="-7.2436017"><ele>115.0</ele><time>2026-05-05T09:01:55.214Z</time></trkpt><trkpt lat="53.0408383" lon="-7.24365"><ele>115.0</ele><time>2026-05-05T09:01:56.214Z</time></trkpt><trkpt lat="53.0405317" lon="-7.2437133"><ele>115.0</ele><time>2026-05-05T09:01:57.213Z</time></trkpt><trkpt lat="53.040245" lon="-7.243815"><ele>115.0</ele><time>2026-05-05T09:01:58.213Z</time></trkpt><trkpt lat="53.0399567" lon="-7.2439167"><ele>115.0</ele><time>2026-05-05T09:01:59.214Z</time></trkpt><trkpt lat="53.039655" lon="-7.2439917"><ele>115.0</ele><time>2026-05-05T09:02:00.214Z</time></trkpt><trkpt lat="53.03936" lon="-7.244055"><ele>114.5</ele><time>2026-05-05T09:02:01.214Z</time></trkpt><trkpt lat="53.039075" lon="-7.244145"><ele>114.0</ele><time>2026-05-05T09:02:02.214Z</time></trkpt><trkpt lat="53.03879" lon="-7.2442167"><ele>114.0</ele><time>2026-05-05T09:02:03.213Z</time></trkpt><trkpt lat="53.0385083" lon="-7.24431"><ele>114.0</ele><time>2026-05-05T09:02:04.213Z</time></trkpt><trkpt lat="53.0382433" lon="-7.2444133"><ele>114.5</ele><time>2026-05-05T09:02:05.214Z</time></trkpt><trkpt lat="53.037985" lon="-7.2445117"><ele>115.0</ele><time>2026-05-05T09:02:06.214Z</time></trkpt><trkpt lat="53.0377617" lon="-7.2446283"><ele>115.0</ele><time>2026-05-05T09:02:07.213Z</time></trkpt><trkpt lat="53.0375167" lon="-7.2447517"><ele>115.0</ele><time>2026-05-05T09:02:08.214Z</time></trkpt><trkpt lat="53.0372583" lon="-7.24487"><ele>114.5</ele><time>2026-05-05T09:02:09.214Z</time></trkpt><trkpt lat="53.0370133" lon="-7.2450017"><ele>114.0</ele><time>2026-05-05T09:02:10.213Z</time></trkpt><trkpt lat="53.036745" lon="-7.24515"><ele>114.5</ele><time>2026-05-05T09:02:11.214Z</time></trkpt><trkpt lat="53.0364633" lon="-7.2452917"><ele>115.0</ele><time>2026-05-05T09:02:12.214Z</time></trkpt><trkpt lat="53.036195" lon="-7.2454617"><ele>115.0</ele><time>2026-05-05T09:02:13.214Z</time></trkpt><trkpt lat="53.03592" lon="-7.2456267"><ele>115.0</ele><time>2026-05-05T09:02:14.214Z</time></trkpt><trkpt lat="53.0356333" lon="-7.245815"><ele>115.5</ele><time>2026-05-05T09:02:15.214Z</time></trkpt><trkpt lat="53.03534" lon="-7.2459867"><ele>116.0</ele><time>2026-05-05T09:02:16.214Z</time></trkpt><trkpt lat="53.0350533" lon="-7.2461783"><ele>116.0</ele><time>2026-05-05T09:02:17.213Z</time></trkpt><trkpt lat="53.0347683" lon="-7.2463933"><ele>116.0</ele><time>2026-05-05T09:02:18.214Z</time></trkpt><trkpt lat="53.03449" lon="-7.2466083"><ele>115.5</ele><time>2026-05-05T09:02:19.213Z</time></trkpt><trkpt lat="53.0342233" lon="-7.2468183"><ele>115.0</ele><time>2026-05-05T09:02:20.214Z</time></trkpt><trkpt lat="53.0339617" lon="-7.2470533"><ele>115.5</ele><time>2026-05-05T09:02:21.214Z</time></trkpt><trkpt lat="53.0337167" lon="-7.2472883"><ele>116.0</ele><time>2026-05-05T09:02:22.213Z</time></trkpt><trkpt lat="53.0334633" lon="-7.2475183"><ele>117.0</ele><time>2026-05-05T09:02:23.214Z</time></trkpt><trkpt lat="53.0332167" lon="-7.2477517"><ele>118.0</ele><time>2026-05-05T09:02:24.214Z</time></trkpt><trkpt lat="53.0329867" lon="-7.24801"><ele>118.0</ele><time>2026-05-05T09:02:25.214Z</time></trkpt><trkpt lat="53.0327567" lon="-7.2482717"><ele>118.0</ele><time>2026-05-05T09:02:26.214Z</time></trkpt><trkpt lat="53.032525" lon="-7.2485267"><ele>117.5</ele><time>2026-05-05T09:02:27.213Z</time></trkpt><trkpt lat="53.0323017" lon="-7.2487933"><ele>117.0</ele><time>2026-05-05T09:02:28.214Z</time></trkpt><trkpt lat="53.0320683" lon="-7.2490433"><ele>117.0</ele><time>2026-05-05T09:02:29.214Z</time></trkpt><trkpt lat="53.0318217" lon="-7.2493"><ele>117.0</ele><time>2026-05-05T09:02:30.214Z</time></trkpt><trkpt lat="53.0315967" lon="-7.2495533"><ele>118.0</ele><time>2026-05-05T09:02:31.214Z</time></trkpt><trkpt lat="53.0313733" lon="-7.2498167"><ele>119.0</ele><time>2026-05-05T09:02:32.214Z</time></trkpt><trkpt lat="53.0311417" lon="-7.2500767"><ele>119.0</ele><time>2026-05-05T09:02:33.214Z</time></trkpt><trkpt lat="53.0308967" lon="-7.2503367"><ele>119.0</ele><time>2026-05-05T09:02:34.214Z</time></trkpt><trkpt lat="53.0306633" lon="-7.2506"><ele>119.5</ele><time>2026-05-05T09:02:35.214Z</time></trkpt><trkpt lat="53.0304133" lon="-7.2508583"><ele>120.0</ele><time>2026-05-05T09:02:36.214Z</time></trkpt><trkpt lat="53.03018" lon="-7.251145"><ele>121.5</ele><time>2026-05-05T09:02:37.214Z</time></trkpt><trkpt lat="53.029925" lon="-7.2514167"><ele>123.0</ele><time>2026-05-05T09:02:38.214Z</time></trkpt><trkpt lat="53.02968" lon="-7.2517083"><ele>123.0</ele><time>2026-05-05T09:02:39.213Z</time></trkpt><trkpt lat="53.0294417" lon="-7.252"><ele>123.0</ele><time>2026-05-05T09:02:40.214Z</time></trkpt><trkpt lat="53.0292267" lon="-7.2522733"><ele>124.0</ele><time>2026-05-05T09:02:41.213Z</time></trkpt><trkpt lat="53.0289817" lon="-7.2525583"><ele>125.0</ele><time>2026-05-05T09:02:42.214Z</time></trkpt><trkpt lat="53.0287433" lon="-7.2528317"><ele>124.5</ele><time>2026-05-05T09:02:43.214Z</time></trkpt><trkpt lat="53.0284983" lon="-7.2531483"><ele>124.0</ele><time>2026-05-05T09:02:44.214Z</time></trkpt><trkpt lat="53.0282617" lon="-7.2534483"><ele>124.0</ele><time>2026-05-05T09:02:45.213Z</time></trkpt><trkpt lat="53.0280167" lon="-7.2537333"><ele>124.0</ele><time>2026-05-05T09:02:46.214Z</time></trkpt><trkpt lat="53.0277667" lon="-7.2540317"><ele>122.0</ele><time>2026-05-05T09:02:47.213Z</time></trkpt><trkpt lat="53.02752" lon="-7.25432"><ele>120.0</ele><time>2026-05-05T09:02:48.214Z</time></trkpt><trkpt lat="53.0272767" lon="-7.2546117"><ele>118.0</ele><time>2026-05-05T09:02:49.214Z</time></trkpt><trkpt lat="53.0270367" lon="-7.2549067"><ele>116.0</ele><time>2026-05-05T09:02:50.214Z</time></trkpt><trkpt lat="53.0268" lon="-7.2551933"><ele>115.5</ele><time>2026-05-05T09:02:51.214Z</time></trkpt><trkpt lat="53.02656" lon="-7.2554817"><ele>115.0</ele><time>2026-05-05T09:02:52.213Z</time></trkpt><trkpt lat="53.0263167" lon="-7.255775"><ele>114.0</ele><time>2026-05-05T09:02:53.214Z</time></trkpt><trkpt lat="53.0260767" lon="-7.2560667"><ele>113.0</ele><time>2026-05-05T09:02:54.213Z</time></trkpt><trkpt lat="53.02583" lon="-7.25636"><ele>112.0</ele><time>2026-05-05T09:02:55.214Z</time></trkpt><trkpt lat="53.025585" lon="-7.2566533"><ele>111.0</ele><time>2026-05-05T09:02:56.214Z</time></trkpt><trkpt lat="53.0253367" lon="-7.25694"><ele>111.0</ele><time>2026-05-05T09:02:57.213Z</time></trkpt><trkpt lat="53.0250883" lon="-7.2572383"><ele>111.0</ele><time>2026-05-05T09:02:58.213Z</time></trkpt><trkpt lat="53.0248383" lon="-7.257535"><ele>111.5</ele><time>2026-05-05T09:02:59.214Z</time></trkpt><trkpt lat="53.0245983" lon="-7.2578283"><ele>112.0</ele><time>2026-05-05T09:03:00.214Z</time></trkpt><trkpt lat="53.0243533" lon="-7.25812"><ele>111.0</ele><time>2026-05-05T09:03:01.214Z</time></trkpt><trkpt lat="53.0241" lon="-7.2584017"><ele>110.0</ele><time>2026-05-05T09:03:02.214Z</time></trkpt><trkpt lat="53.0238383" lon="-7.25867"><ele>110.0</ele><time>2026-05-05T09:03:03.214Z</time></trkpt><trkpt lat="53.0235933" lon="-7.2589417"><ele>110.0</ele><time>2026-05-05T09:03:04.214Z</time></trkpt><trkpt lat="53.0233617" lon="-7.259205"><ele>110.0</ele><time>2026-05-05T09:03:05.214Z</time></trkpt><trkpt lat="53.023105" lon="-7.2594633"><ele>110.0</ele><time>2026-05-05T09:03:06.214Z</time></trkpt><trkpt lat="53.0228583" lon="-7.259745"><ele>109.5</ele><time>2026-05-05T09:03:07.213Z</time></trkpt><trkpt lat="53.0226217" lon="-7.2600367"><ele>109.0</ele><time>2026-05-05T09:03:08.213Z</time></trkpt><trkpt lat="53.0223917" lon="-7.260345"><ele>108.5</ele><time>2026-05-05T09:03:09.214Z</time></trkpt><trkpt lat="53.0221567" lon="-7.26063"><ele>108.0</ele><time>2026-05-05T09:03:10.214Z</time></trkpt><trkpt lat="53.0219233" lon="-7.2609133"><ele>108.0</ele><time>2026-05-05T09:03:11.214Z</time></trkpt><trkpt lat="53.0216817" lon="-7.2611817"><ele>108.0</ele><time>2026-05-05T09:03:12.214Z</time></trkpt><trkpt lat="53.0214467" lon="-7.26146"><ele>108.5</ele><time>2026-05-05T09:03:13.214Z</time></trkpt><trkpt lat="53.021195" lon="-7.2617283"><ele>109.0</ele><time>2026-05-05T09:03:14.213Z</time></trkpt><trkpt lat="53.0209483" lon="-7.26201"><ele>109.0</ele><time>2026-05-05T09:03:15.214Z</time></trkpt><trkpt lat="53.0207133" lon="-7.2622983"><ele>109.0</ele><time>2026-05-05T09:03:16.213Z</time></trkpt><trkpt lat="53.0205" lon="-7.2626033"><ele>109.0</ele><time>2026-05-05T09:03:17.214Z</time></trkpt><trkpt lat="53.02029" lon="-7.2629183"><ele>109.0</ele><time>2026-05-05T09:03:18.214Z</time></trkpt><trkpt lat="53.0200633" lon="-7.26323"><ele>109.0</ele><time>2026-05-05T09:03:19.214Z</time></trkpt><trkpt lat="53.01984" lon="-7.2635483"><ele>109.0</ele><time>2026-05-05T09:03:20.213Z</time></trkpt><trkpt lat="53.0196167" lon="-7.2638667"><ele>109.5</ele><time>2026-05-05T09:03:21.214Z</time></trkpt><trkpt lat="53.0193967" lon="-7.2641883"><ele>110.0</ele><time>2026-05-05T09:03:22.214Z</time></trkpt><trkpt lat="53.01916" lon="-7.2645117"><ele>110.0</ele><time>2026-05-05T09:03:23.213Z</time></trkpt><trkpt lat="53.01891" lon="-7.264815"><ele>110.0</ele><time>2026-05-05T09:03:24.213Z</time></trkpt><trkpt lat="53.0186817" lon="-7.2651383"><ele>110.0</ele><time>2026-05-05T09:03:25.214Z</time></trkpt><trkpt lat="53.01846" lon="-7.26548"><ele>110.0</ele><time>2026-05-05T09:03:26.213Z</time></trkpt><trkpt lat="53.0182767" lon="-7.2658567"><ele>110.0</ele><time>2026-05-05T09:03:27.214Z</time></trkpt><trkpt lat="53.0180917" lon="-7.2662317"><ele>110.0</ele><time>2026-05-05T09:03:28.213Z</time></trkpt><trkpt lat="53.0178983" lon="-7.266615"><ele>110.0</ele><time>2026-05-05T09:03:29.214Z</time></trkpt><trkpt lat="53.0177083" lon="-7.2669983"><ele>110.0</ele><time>2026-05-05T09:03:30.214Z</time></trkpt><trkpt lat="53.017515" lon="-7.2673867"><ele>111.0</ele><time>2026-05-05T09:03:31.214Z</time></trkpt><trkpt lat="53.0173183" lon="-7.2677733"><ele>112.0</ele><time>2026-05-05T09:03:32.214Z</time></trkpt><trkpt lat="53.0171283" lon="-7.2681567"><ele>112.5</ele><time>2026-05-05T09:03:33.214Z</time></trkpt><trkpt lat="53.0169617" lon="-7.268545"><ele>113.0</ele><time>2026-05-05T09:03:34.214Z</time></trkpt><trkpt lat="53.0168217" lon="-7.2689267"><ele>113.5</ele><time>2026-05-05T09:03:35.213Z</time></trkpt><trkpt lat="53.016665" lon="-7.2692933"><ele>114.0</ele><time>2026-05-05T09:03:36.214Z</time></trkpt><trkpt lat="53.0165217" lon="-7.2696917"><ele>113.5</ele><time>2026-05-05T09:03:37.213Z</time></trkpt><trkpt lat="53.0163667" lon="-7.270085"><ele>113.0</ele><time>2026-05-05T09:03:38.213Z</time></trkpt><trkpt lat="53.0162183" lon="-7.2704733"><ele>112.5</ele><time>2026-05-05T09:03:39.213Z</time></trkpt><trkpt lat="53.0160683" lon="-7.270875"><ele>112.0</ele><time>2026-05-05T09:03:40.214Z</time></trkpt><trkpt lat="53.0159133" lon="-7.2713"><ele>113.0</ele><time>2026-05-05T09:03:41.214Z</time></trkpt><trkpt lat="53.01578" lon="-7.2717367"><ele>114.0</ele><time>2026-05-05T09:03:42.213Z</time></trkpt><trkpt lat="53.015645" lon="-7.2721617"><ele>114.0</ele><time>2026-05-05T09:03:43.213Z</time></trkpt><trkpt lat="53.0155" lon="-7.2726017"><ele>114.0</ele><time>2026-05-05T09:03:44.214Z</time></trkpt><trkpt lat="53.015365" lon="-7.2730417"><ele>113.0</ele><time>2026-05-05T09:03:45.213Z</time></trkpt><trkpt lat="53.0152333" lon="-7.2734817"><ele>112.0</ele><time>2026-05-05T09:03:46.213Z</time></trkpt><trkpt lat="53.0151033" lon="-7.2739267"><ele>112.5</ele><time>2026-05-05T09:03:47.214Z</time></trkpt><trkpt lat="53.0149817" lon="-7.2743767"><ele>113.0</ele><time>2026-05-05T09:03:48.213Z</time></trkpt><trkpt lat="53.0148567" lon="-7.2748217"><ele>113.0</ele><time>2026-05-05T09:03:49.213Z</time></trkpt><trkpt lat="53.0147383" lon="-7.275245"><ele>113.0</ele><time>2026-05-05T09:03:50.213Z</time></trkpt><trkpt lat="53.0146233" lon="-7.2756783"><ele>112.0</ele><time>2026-05-05T09:03:51.214Z</time></trkpt><trkpt lat="53.014505" lon="-7.2761217"><ele>111.0</ele><time>2026-05-05T09:03:52.213Z</time></trkpt><trkpt lat="53.014405" lon="-7.276615"><ele>111.0</ele><time>2026-05-05T09:03:53.213Z</time></trkpt><trkpt lat="53.0143283" lon="-7.27712"><ele>111.0</ele><time>2026-05-05T09:03:54.214Z</time></trkpt><trkpt lat="53.0142467" lon="-7.2776083"><ele>109.5</ele><time>2026-05-05T09:03:55.214Z</time></trkpt><trkpt lat="53.01416" lon="-7.278095"><ele>108.0</ele><time>2026-05-05T09:03:56.214Z</time></trkpt><trkpt lat="53.0140783" lon="-7.2785967"><ele>107.0</ele><time>2026-05-05T09:03:57.214Z</time></trkpt><trkpt lat="53.0139967" lon="-7.2791083"><ele>106.0</ele><time>2026-05-05T09:03:58.214Z</time></trkpt><trkpt lat="53.0139283" lon="-7.2796017"><ele>106.0</ele><time>2026-05-05T09:03:59.214Z</time></trkpt><trkpt lat="53.0138717" lon="-7.28008"><ele>106.0</ele><time>2026-05-05T09:04:00.214Z</time></trkpt><trkpt lat="53.0138067" lon="-7.28057"><ele>106.0</ele><time>2026-05-05T09:04:01.214Z</time></trkpt><trkpt lat="53.0137567" lon="-7.2810567"><ele>106.0</ele><time>2026-05-05T09:04:02.214Z</time></trkpt><trkpt lat="53.0137067" lon="-7.281545"><ele>106.0</ele><time>2026-05-05T09:04:03.214Z</time></trkpt><trkpt lat="53.0136617" lon="-7.2820267"><ele>106.0</ele><time>2026-05-05T09:04:04.214Z</time></trkpt><trkpt lat="53.0136183" lon="-7.2825133"><ele>105.5</ele><time>2026-05-05T09:04:05.213Z</time></trkpt><trkpt lat="53.013585" lon="-7.283"><ele>105.0</ele><time>2026-05-05T09:04:06.214Z</time></trkpt><trkpt lat="53.0135633" lon="-7.28348"><ele>104.0</ele><time>2026-05-05T09:04:07.214Z</time></trkpt><trkpt lat="53.0135433" lon="-7.2839483"><ele>103.0</ele><time>2026-05-05T09:04:08.213Z</time></trkpt><trkpt lat="53.0135333" lon="-7.2844017"><ele>102.5</ele><time>2026-05-05T09:04:09.214Z</time></trkpt><trkpt lat="53.0135017" lon="-7.284885"><ele>102.0</ele><time>2026-05-05T09:04:10.213Z</time></trkpt><trkpt lat="53.0134817" lon="-7.2853683"><ele>102.5</ele><time>2026-05-05T09:04:11.214Z</time></trkpt><trkpt lat="53.0134667" lon="-7.285845"><ele>103.0</ele><time>2026-05-05T09:04:12.213Z</time></trkpt><trkpt lat="53.0134583" lon="-7.28631"><ele>102.5</ele><time>2026-05-05T09:04:13.213Z</time></trkpt><trkpt lat="53.013455" lon="-7.2867833"><ele>102.0</ele><time>2026-05-05T09:04:14.213Z</time></trkpt><trkpt lat="53.0134417" lon="-7.2872433"><ele>101.0</ele><time>2026-05-05T09:04:15.214Z</time></trkpt><trkpt lat="53.0134317" lon="-7.2877067"><ele>100.0</ele><time>2026-05-05T09:04:16.214Z</time></trkpt><trkpt lat="53.013425" lon="-7.288175"><ele>100.0</ele><time>2026-05-05T09:04:17.214Z</time></trkpt><trkpt lat="53.0134183" lon="-7.2886483"><ele>100.0</ele><time>2026-05-05T09:04:18.213Z</time></trkpt><trkpt lat="53.013395" lon="-7.2891167"><ele>100.0</ele><time>2026-05-05T09:04:19.214Z</time></trkpt><trkpt lat="53.013385" lon="-7.2895567"><ele>100.0</ele><time>2026-05-05T09:04:20.214Z</time></trkpt><trkpt lat="53.013375" lon="-7.29002"><ele>100.0</ele><time>2026-05-05T09:04:21.214Z</time></trkpt><trkpt lat="53.0133817" lon="-7.2904917"><ele>100.0</ele><time>2026-05-05T09:04:22.214Z</time></trkpt><trkpt lat="53.0133883" lon="-7.290965"><ele>100.5</ele><time>2026-05-05T09:04:23.214Z</time></trkpt><trkpt lat="53.01339" lon="-7.2914483"><ele>101.0</ele><time>2026-05-05T09:04:24.214Z</time></trkpt><trkpt lat="53.013385" lon="-7.2919367"><ele>101.0</ele><time>2026-05-05T09:04:25.214Z</time></trkpt><trkpt lat="53.013375" lon="-7.2924317"><ele>101.0</ele><time>2026-05-05T09:04:26.213Z</time></trkpt><trkpt lat="53.0133667" lon="-7.2929133"><ele>101.0</ele><time>2026-05-05T09:04:27.214Z</time></trkpt><trkpt lat="53.01336" lon="-7.293385"><ele>101.0</ele><time>2026-05-05T09:04:28.214Z</time></trkpt><trkpt lat="53.01335" lon="-7.2938567"><ele>100.5</ele><time>2026-05-05T09:04:29.214Z</time></trkpt><trkpt lat="53.01334" lon="-7.2943383"><ele>100.0</ele><time>2026-05-05T09:04:30.214Z</time></trkpt><trkpt lat="53.013325" lon="-7.2948117"><ele>100.0</ele><time>2026-05-05T09:04:31.214Z</time></trkpt><trkpt lat="53.0133183" lon="-7.29529"><ele>100.0</ele><time>2026-05-05T09:04:32.214Z</time></trkpt><trkpt lat="53.0133167" lon="-7.2957717"><ele>100.5</ele><time>2026-05-05T09:04:33.214Z</time></trkpt><trkpt lat="53.0133183" lon="-7.2962683"><ele>101.0</ele><time>2026-05-05T09:04:34.213Z</time></trkpt><trkpt lat="53.0133233" lon="-7.296745"><ele>101.0</ele><time>2026-05-05T09:04:35.214Z</time></trkpt><trkpt lat="53.01332" lon="-7.2972517"><ele>101.0</ele><time>2026-05-05T09:04:36.214Z</time></trkpt><trkpt lat="53.013315" lon="-7.2977583"><ele>100.5</ele><time>2026-05-05T09:04:37.213Z</time></trkpt><trkpt lat="53.0133067" lon="-7.298265"><ele>100.0</ele><time>2026-05-05T09:04:38.213Z</time></trkpt><trkpt lat="53.013305" lon="-7.2987783"><ele>100.5</ele><time>2026-05-05T09:04:39.213Z</time></trkpt><trkpt lat="53.0133033" lon="-7.29927"><ele>101.0</ele><time>2026-05-05T09:04:40.213Z</time></trkpt><trkpt lat="53.0133" lon="-7.29976"><ele>101.0</ele><time>2026-05-05T09:04:41.214Z</time></trkpt><trkpt lat="53.0133067" lon="-7.300255"><ele>101.0</ele><time>2026-05-05T09:04:42.213Z</time></trkpt><trkpt lat="53.0133017" lon="-7.3007467"><ele>102.0</ele><time>2026-05-05T09:04:43.214Z</time></trkpt><trkpt lat="53.0133133" lon="-7.301255"><ele>103.0</ele><time>2026-05-05T09:04:44.213Z</time></trkpt><trkpt lat="53.0133183" lon="-7.3017517"><ele>104.0</ele><time>2026-05-05T09:04:45.214Z</time></trkpt><trkpt lat="53.0133167" lon="-7.30225"><ele>105.0</ele><time>2026-05-05T09:04:46.213Z</time></trkpt><trkpt lat="53.0133117" lon="-7.3027617"><ele>105.5</ele><time>2026-05-05T09:04:47.214Z</time></trkpt><trkpt lat="53.01329" lon="-7.30328"><ele>106.0</ele><time>2026-05-05T09:04:48.214Z</time></trkpt><trkpt lat="53.0132717" lon="-7.3037867"><ele>106.0</ele><time>2026-05-05T09:04:49.214Z</time></trkpt><trkpt lat="53.01326" lon="-7.3043217"><ele>106.0</ele><time>2026-05-05T09:04:50.214Z</time></trkpt><trkpt lat="53.0132517" lon="-7.3048217"><ele>106.0</ele><time>2026-05-05T09:04:51.214Z</time></trkpt><trkpt lat="53.0132267" lon="-7.3052883"><ele>106.0</ele><time>2026-05-05T09:04:52.214Z</time></trkpt><trkpt lat="53.0132117" lon="-7.3057583"><ele>106.5</ele><time>2026-05-05T09:04:53.214Z</time></trkpt><trkpt lat="53.013215" lon="-7.3062133"><ele>107.0</ele><time>2026-05-05T09:04:54.214Z</time></trkpt><trkpt lat="53.0132117" lon="-7.306655"><ele>107.0</ele><time>2026-05-05T09:04:55.214Z</time></trkpt><trkpt lat="53.0132083" lon="-7.307095"><ele>107.0</ele><time>2026-05-05T09:04:56.214Z</time></trkpt><trkpt lat="53.0132167" lon="-7.3075467"><ele>107.0</ele><time>2026-05-05T09:04:57.213Z</time></trkpt><trkpt lat="53.01323" lon="-7.30799"><ele>107.0</ele><time>2026-05-05T09:04:58.214Z</time></trkpt><trkpt lat="53.0132467" lon="-7.3084267"><ele>107.0</ele><time>2026-05-05T09:04:59.213Z</time></trkpt><trkpt lat="53.013275" lon="-7.30888"><ele>107.0</ele><time>2026-05-05T09:05:00.213Z</time></trkpt><trkpt lat="53.0133083" lon="-7.3093333"><ele>108.0</ele><time>2026-05-05T09:05:01.213Z</time></trkpt><trkpt lat="53.013345" lon="-7.30977"><ele>109.0</ele><time>2026-05-05T09:05:02.213Z</time></trkpt><trkpt lat="53.0133767" lon="-7.3102217"><ele>109.0</ele><time>2026-05-05T09:05:03.214Z</time></trkpt><trkpt lat="53.01342" lon="-7.3106767"><ele>109.0</ele><time>2026-05-05T09:05:04.214Z</time></trkpt><trkpt lat="53.0134617" lon="-7.3111117"><ele>109.0</ele><time>2026-05-05T09:05:05.214Z</time></trkpt><trkpt lat="53.0135167" lon="-7.3115483"><ele>109.0</ele><time>2026-05-05T09:05:06.214Z</time></trkpt><trkpt lat="53.0135667" lon="-7.311995"><ele>108.5</ele><time>2026-05-05T09:05:07.214Z</time></trkpt><trkpt lat="53.0136317" lon="-7.3124633"><ele>108.0</ele><time>2026-05-05T09:05:08.214Z</time></trkpt><trkpt lat="53.0136833" lon="-7.3129533"><ele>108.0</ele><time>2026-05-05T09:05:09.213Z</time></trkpt><trkpt lat="53.01375" lon="-7.3134417"><ele>108.0</ele><time>2026-05-05T09:05:10.213Z</time></trkpt><trkpt lat="53.0138167" lon="-7.3139417"><ele>108.5</ele><time>2026-05-05T09:05:11.214Z</time></trkpt><trkpt lat="53.0139117" lon="-7.3144367"><ele>109.0</ele><time>2026-05-05T09:05:12.213Z</time></trkpt><trkpt lat="53.0140083" lon="-7.31491"><ele>109.0</ele><time>2026-05-05T09:05:13.214Z</time></trkpt><trkpt lat="53.0141017" lon="-7.3153933"><ele>109.0</ele><time>2026-05-05T09:05:14.214Z</time></trkpt><trkpt lat="53.0141933" lon="-7.31586"><ele>109.0</ele><time>2026-05-05T09:05:15.214Z</time></trkpt><trkpt lat="53.0142933" lon="-7.3163217"><ele>109.0</ele><time>2026-05-05T09:05:16.214Z</time></trkpt><trkpt lat="53.0144" lon="-7.316775"><ele>109.0</ele><time>2026-05-05T09:05:17.214Z</time></trkpt><trkpt lat="53.0145" lon="-7.3172167"><ele>109.0</ele><time>2026-05-05T09:05:18.214Z</time></trkpt><trkpt lat="53.01463" lon="-7.317695"><ele>113.5</ele><time>2026-05-05T09:05:19.213Z</time></trkpt><trkpt lat="53.0147517" lon="-7.3181483"><ele>118.0</ele><time>2026-05-05T09:05:20.213Z</time></trkpt><trkpt lat="53.0148633" lon="-7.3185883"><ele>118.5</ele><time>2026-05-05T09:05:21.214Z</time></trkpt><trkpt lat="53.0149867" lon="-7.3190167"><ele>119.0</ele><time>2026-05-05T09:05:22.214Z</time></trkpt><trkpt lat="53.0151083" lon="-7.3194483"><ele>117.5</ele><time>2026-05-05T09:05:23.214Z</time></trkpt><trkpt lat="53.0152417" lon="-7.3198783"><ele>116.0</ele><time>2026-05-05T09:05:24.214Z</time></trkpt><trkpt lat="53.0153633" lon="-7.320295"><ele>116.5</ele><time>2026-05-05T09:05:25.214Z</time></trkpt><trkpt lat="53.0155033" lon="-7.3207217"><ele>117.0</ele><time>2026-05-05T09:05:26.214Z</time></trkpt><trkpt lat="53.0156217" lon="-7.3211333"><ele>117.5</ele><time>2026-05-05T09:05:27.214Z</time></trkpt><trkpt lat="53.01576" lon="-7.321565"><ele>118.0</ele><time>2026-05-05T09:05:28.214Z</time></trkpt><trkpt lat="53.015905" lon="-7.3219717"><ele>115.5</ele><time>2026-05-05T09:05:29.214Z</time></trkpt><trkpt lat="53.0160683" lon="-7.3223683"><ele>113.0</ele><time>2026-05-05T09:05:30.214Z</time></trkpt><trkpt lat="53.0162317" lon="-7.322755"><ele>113.5</ele><time>2026-05-05T09:05:31.214Z</time></trkpt><trkpt lat="53.0164" lon="-7.3231383"><ele>114.0</ele><time>2026-05-05T09:05:32.213Z</time></trkpt><trkpt lat="53.0165867" lon="-7.3235083"><ele>113.5</ele><time>2026-05-05T09:05:33.214Z</time></trkpt><trkpt lat="53.01675" lon="-7.32391"><ele>113.0</ele><time>2026-05-05T09:05:34.214Z</time></trkpt><trkpt lat="53.016905" lon="-7.3243133"><ele>113.0</ele><time>2026-05-05T09:05:35.214Z</time></trkpt><trkpt lat="53.0170783" lon="-7.3247217"><ele>113.0</ele><time>2026-05-05T09:05:36.214Z</time></trkpt><trkpt lat="53.0172667" lon="-7.3251033"><ele>113.5</ele><time>2026-05-05T09:05:37.214Z</time></trkpt><trkpt lat="53.0174533" lon="-7.3254917"><ele>114.0</ele><time>2026-05-05T09:05:38.213Z</time></trkpt><trkpt lat="53.0176217" lon="-7.3258667"><ele>112.0</ele><time>2026-05-05T09:05:39.213Z</time></trkpt><trkpt lat="53.0177983" lon="-7.3262683"><ele>110.0</ele><time>2026-05-05T09:05:40.214Z</time></trkpt><trkpt lat="53.017965" lon="-7.326655"><ele>110.0</ele><time>2026-05-05T09:05:41.214Z</time></trkpt><trkpt lat="53.0181333" lon="-7.3270783"><ele>110.0</ele><time>2026-05-05T09:05:42.214Z</time></trkpt><trkpt lat="53.018275" lon="-7.3275133"><ele>110.0</ele><time>2026-05-05T09:05:43.214Z</time></trkpt><trkpt lat="53.018425" lon="-7.32796"><ele>110.0</ele><time>2026-05-05T09:05:44.214Z</time></trkpt><trkpt lat="53.0185717" lon="-7.3284"><ele>110.5</ele><time>2026-05-05T09:05:45.214Z</time></trkpt><trkpt lat="53.01872" lon="-7.3288367"><ele>111.0</ele><time>2026-05-05T09:05:46.214Z</time></trkpt><trkpt lat="53.01885" lon="-7.329275"><ele>110.0</ele><time>2026-05-05T09:05:47.214Z</time></trkpt><trkpt lat="53.0189817" lon="-7.3297267"><ele>109.0</ele><time>2026-05-05T09:05:48.214Z</time></trkpt><trkpt lat="53.0191033" lon="-7.33018"><ele>110.5</ele><time>2026-05-05T09:05:49.213Z</time></trkpt><trkpt lat="53.019225" lon="-7.3306533"><ele>112.0</ele><time>2026-05-05T09:05:50.214Z</time></trkpt><trkpt lat="53.0193383" lon="-7.33113"><ele>111.5</ele><time>2026-05-05T09:05:51.213Z</time></trkpt><trkpt lat="53.0194417" lon="-7.3316233"><ele>111.0</ele><time>2026-05-05T09:05:52.213Z</time></trkpt><trkpt lat="53.019535" lon="-7.332105"><ele>111.0</ele><time>2026-05-05T09:05:53.214Z</time></trkpt><trkpt lat="53.0196133" lon="-7.3325583"><ele>111.0</ele><time>2026-05-05T09:05:54.214Z</time></trkpt><trkpt lat="53.01968" lon="-7.3330183"><ele>111.5</ele><time>2026-05-05T09:05:55.214Z</time></trkpt><trkpt lat="53.0197333" lon="-7.3334717"><ele>112.0</ele><time>2026-05-05T09:05:56.214Z</time></trkpt><trkpt lat="53.0197933" lon="-7.3339183"><ele>113.0</ele><time>2026-05-05T09:05:57.214Z</time></trkpt><trkpt lat="53.019855" lon="-7.3343667"><ele>114.0</ele><time>2026-05-05T09:05:58.213Z</time></trkpt><trkpt lat="53.0199117" lon="-7.3348267"><ele>115.0</ele><time>2026-05-05T09:05:59.214Z</time></trkpt><trkpt lat="53.019965" lon="-7.3353117"><ele>116.0</ele><time>2026-05-05T09:06:00.214Z</time></trkpt><trkpt lat="53.0200033" lon="-7.3357983"><ele>116.5</ele><time>2026-05-05T09:06:01.214Z</time></trkpt><trkpt lat="53.020035" lon="-7.3363"><ele>117.0</ele><time>2026-05-05T09:06:02.214Z</time></trkpt><trkpt lat="53.0200667" lon="-7.3368"><ele>117.0</ele><time>2026-05-05T09:06:03.214Z</time></trkpt><trkpt lat="53.0200917" lon="-7.3372983"><ele>117.0</ele><time>2026-05-05T09:06:04.213Z</time></trkpt><trkpt lat="53.020105" lon="-7.3378017"><ele>117.0</ele><time>2026-05-05T09:06:05.214Z</time></trkpt><trkpt lat="53.02011" lon="-7.3382983"><ele>117.0</ele><time>2026-05-05T09:06:06.213Z</time></trkpt><trkpt lat="53.02011" lon="-7.338795"><ele>117.0</ele><time>2026-05-05T09:06:07.214Z</time></trkpt><trkpt lat="53.0201067" lon="-7.3392933"><ele>117.0</ele><time>2026-05-05T09:06:08.214Z</time></trkpt><trkpt lat="53.0200917" lon="-7.3397717"><ele>117.0</ele><time>2026-05-05T09:06:09.213Z</time></trkpt><trkpt lat="53.0200783" lon="-7.34025"><ele>117.0</ele><time>2026-05-05T09:06:10.214Z</time></trkpt><trkpt lat="53.0200567" lon="-7.3407467"><ele>116.5</ele><time>2026-05-05T09:06:11.214Z</time></trkpt><trkpt lat="53.0200183" lon="-7.3412417"><ele>116.0</ele><time>2026-05-05T09:06:12.214Z</time></trkpt><trkpt lat="53.0199667" lon="-7.3417367"><ele>114.5</ele><time>2026-05-05T09:06:13.214Z</time></trkpt><trkpt lat="53.019915" lon="-7.342225"><ele>113.0</ele><time>2026-05-05T09:06:14.213Z</time></trkpt><trkpt lat="53.0198683" lon="-7.342715"><ele>112.5</ele><time>2026-05-05T09:06:15.214Z</time></trkpt><trkpt lat="53.0197983" lon="-7.3432133"><ele>112.0</ele><time>2026-05-05T09:06:16.214Z</time></trkpt><trkpt lat="53.0197417" lon="-7.343705"><ele>112.5</ele><time>2026-05-05T09:06:17.214Z</time></trkpt><trkpt lat="53.0196783" lon="-7.3441833"><ele>113.0</ele><time>2026-05-05T09:06:18.215Z</time></trkpt><trkpt lat="53.0196183" lon="-7.3446467"><ele>113.0</ele><time>2026-05-05T09:06:19.215Z</time></trkpt><trkpt lat="53.0195383" lon="-7.3451267"><ele>113.0</ele><time>2026-05-05T09:06:20.214Z</time></trkpt><trkpt lat="53.0194583" lon="-7.34561"><ele>113.0</ele><time>2026-05-05T09:06:21.215Z</time></trkpt><trkpt lat="53.01937" lon="-7.3460833"><ele>113.0</ele><time>2026-05-05T09:06:22.215Z</time></trkpt><trkpt lat="53.01927" lon="-7.3465383"><ele>113.0</ele><time>2026-05-05T09:06:23.215Z</time></trkpt><trkpt lat="53.01916" lon="-7.3469883"><ele>113.0</ele><time>2026-05-05T09:06:24.215Z</time></trkpt><trkpt lat="53.0190667" lon="-7.3474367"><ele>112.5</ele><time>2026-05-05T09:06:25.215Z</time></trkpt><trkpt lat="53.0189417" lon="-7.3478867"><ele>112.0</ele><time>2026-05-05T09:06:26.215Z</time></trkpt><trkpt lat="53.0188117" lon="-7.3483367"><ele>112.0</ele><time>2026-05-05T09:06:27.215Z</time></trkpt><trkpt lat="53.018675" lon="-7.3487867"><ele>112.0</ele><time>2026-05-05T09:06:28.215Z</time></trkpt><trkpt lat="53.018545" lon="-7.3492367"><ele>112.0</ele><time>2026-05-05T09:06:29.214Z</time></trkpt><trkpt lat="53.0184133" lon="-7.34968"><ele>112.0</ele><time>2026-05-05T09:06:30.215Z</time></trkpt><trkpt lat="53.0182783" lon="-7.3501283"><ele>112.0</ele><time>2026-05-05T09:06:31.215Z</time></trkpt><trkpt lat="53.018145" lon="-7.35058"><ele>112.0</ele><time>2026-05-05T09:06:32.215Z</time></trkpt><trkpt lat="53.0180167" lon="-7.3510317"><ele>111.5</ele><time>2026-05-05T09:06:33.215Z</time></trkpt><trkpt lat="53.0178883" lon="-7.3514783"><ele>111.0</ele><time>2026-05-05T09:06:34.215Z</time></trkpt><trkpt lat="53.0177567" lon="-7.3519267"><ele>110.5</ele><time>2026-05-05T09:06:35.215Z</time></trkpt><trkpt lat="53.0176267" lon="-7.3523617"><ele>110.0</ele><time>2026-05-05T09:06:36.215Z</time></trkpt><trkpt lat="53.0175017" lon="-7.3528"><ele>110.0</ele><time>2026-05-05T09:06:37.215Z</time></trkpt><trkpt lat="53.0173817" lon="-7.35324"><ele>110.0</ele><time>2026-05-05T09:06:38.215Z</time></trkpt><trkpt lat="53.0172433" lon="-7.3536883"><ele>109.5</ele><time>2026-05-05T09:06:39.215Z</time></trkpt><trkpt lat="53.017105" lon="-7.3541367"><ele>109.0</ele><time>2026-05-05T09:06:40.214Z</time></trkpt><trkpt lat="53.0169767" lon="-7.35458"><ele>109.0</ele><time>2026-05-05T09:06:41.215Z</time></trkpt><trkpt lat="53.0168467" lon="-7.3550217"><ele>109.0</ele><time>2026-05-05T09:06:42.215Z</time></trkpt><trkpt lat="53.0167117" lon="-7.3554717"><ele>109.0</ele><time>2026-05-05T09:06:43.214Z</time></trkpt><trkpt lat="53.016575" lon="-7.35592"><ele>109.0</ele><time>2026-05-05T09:06:44.215Z</time></trkpt><trkpt lat="53.016455" lon="-7.3563833"><ele>109.0</ele><time>2026-05-05T09:06:45.215Z</time></trkpt><trkpt lat="53.0163317" lon="-7.3568383"><ele>109.0</ele><time>2026-05-05T09:06:46.215Z</time></trkpt><trkpt lat="53.0161933" lon="-7.357295"><ele>109.0</ele><time>2026-05-05T09:06:47.215Z</time></trkpt><trkpt lat="53.016065" lon="-7.357735"><ele>109.0</ele><time>2026-05-05T09:06:48.214Z</time></trkpt><trkpt lat="53.0159417" lon="-7.3581683"><ele>109.0</ele><time>2026-05-05T09:06:49.214Z</time></trkpt><trkpt lat="53.0158167" lon="-7.3586217"><ele>109.0</ele><time>2026-05-05T09:06:50.215Z</time></trkpt><trkpt lat="53.0156733" lon="-7.3590533"><ele>109.0</ele><time>2026-05-05T09:06:51.214Z</time></trkpt><trkpt lat="53.0155333" lon="-7.3594933"><ele>109.0</ele><time>2026-05-05T09:06:52.215Z</time></trkpt><trkpt lat="53.015415" lon="-7.3599483"><ele>108.5</ele><time>2026-05-05T09:06:53.215Z</time></trkpt><trkpt lat="53.0152917" lon="-7.3603833"><ele>108.0</ele><time>2026-05-05T09:06:54.214Z</time></trkpt><trkpt lat="53.0151667" lon="-7.3608417"><ele>108.0</ele><time>2026-05-05T09:06:55.215Z</time></trkpt><trkpt lat="53.015035" lon="-7.3612883"><ele>108.0</ele><time>2026-05-05T09:06:56.215Z</time></trkpt><trkpt lat="53.0149017" lon="-7.3617233"><ele>108.5</ele><time>2026-05-05T09:06:57.215Z</time></trkpt><trkpt lat="53.0147567" lon="-7.3621633"><ele>109.0</ele><time>2026-05-05T09:06:58.214Z</time></trkpt><trkpt lat="53.0146217" lon="-7.3626167"><ele>109.0</ele><time>2026-05-05T09:06:59.215Z</time></trkpt><trkpt lat="53.0144867" lon="-7.3630683"><ele>109.0</ele><time>2026-05-05T09:07:00.215Z</time></trkpt><trkpt lat="53.01436" lon="-7.3635233"><ele>108.5</ele><time>2026-05-05T09:07:01.215Z</time></trkpt><trkpt lat="53.01423" lon="-7.36398"><ele>108.0</ele><time>2026-05-05T09:07:02.215Z</time></trkpt><trkpt lat="53.014095" lon="-7.3644183"><ele>108.0</ele><time>2026-05-05T09:07:03.215Z</time></trkpt><trkpt lat="53.01396" lon="-7.3648733"><ele>108.0</ele><time>2026-05-05T09:07:04.215Z</time></trkpt><trkpt lat="53.0138217" lon="-7.3653283"><ele>107.5</ele><time>2026-05-05T09:07:05.215Z</time></trkpt><trkpt lat="53.0136717" lon="-7.3657717"><ele>107.0</ele><time>2026-05-05T09:07:06.214Z</time></trkpt><trkpt lat="53.0135317" lon="-7.3662083"><ele>107.0</ele><time>2026-05-05T09:07:07.215Z</time></trkpt><trkpt lat="53.0134133" lon="-7.3666333"><ele>107.0</ele><time>2026-05-05T09:07:08.214Z</time></trkpt><trkpt lat="53.0133033" lon="-7.3670833"><ele>108.0</ele><time>2026-05-05T09:07:09.215Z</time></trkpt><trkpt lat="53.013165" lon="-7.36752"><ele>109.0</ele><time>2026-05-05T09:07:10.215Z</time></trkpt><trkpt lat="53.01303" lon="-7.3679583"><ele>109.0</ele><time>2026-05-05T09:07:11.215Z</time></trkpt><trkpt lat="53.01291" lon="-7.3683983"><ele>109.0</ele><time>2026-05-05T09:07:12.214Z</time></trkpt><trkpt lat="53.0127717" lon="-7.3688183"><ele>108.0</ele><time>2026-05-05T09:07:13.215Z</time></trkpt><trkpt lat="53.0126617" lon="-7.36928"><ele>107.0</ele><time>2026-05-05T09:07:14.215Z</time></trkpt><trkpt lat="53.0125133" lon="-7.3697267"><ele>106.5</ele><time>2026-05-05T09:07:15.214Z</time></trkpt><trkpt lat="53.0123667" lon="-7.370155"><ele>106.0</ele><time>2026-05-05T09:07:16.214Z</time></trkpt><trkpt lat="53.012225" lon="-7.3705883"><ele>106.0</ele><time>2026-05-05T09:07:17.214Z</time></trkpt><trkpt lat="53.012075" lon="-7.3710233"><ele>106.0</ele><time>2026-05-05T09:07:18.215Z</time></trkpt><trkpt lat="53.0119233" lon="-7.3714667"><ele>106.0</ele><time>2026-05-05T09:07:19.215Z</time></trkpt><trkpt lat="53.0117667" lon="-7.37189"><ele>106.0</ele><time>2026-05-05T09:07:20.215Z</time></trkpt><trkpt lat="53.0116067" lon="-7.37232"><ele>105.5</ele><time>2026-05-05T09:07:21.214Z</time></trkpt><trkpt lat="53.011445" lon="-7.372745"><ele>105.0</ele><time>2026-05-05T09:07:22.215Z</time></trkpt><trkpt lat="53.0112783" lon="-7.3731933"><ele>105.0</ele><time>2026-05-05T09:07:23.215Z</time></trkpt><trkpt lat="53.0111167" lon="-7.3736183"><ele>105.0</ele><time>2026-05-05T09:07:24.215Z</time></trkpt><trkpt lat="53.01096" lon="-7.3740167"><ele>104.0</ele><time>2026-05-05T09:07:25.215Z</time></trkpt><trkpt lat="53.0107867" lon="-7.3744167"><ele>103.0</ele><time>2026-05-05T09:07:26.215Z</time></trkpt><trkpt lat="53.0106117" lon="-7.3748217"><ele>103.0</ele><time>2026-05-05T09:07:27.215Z</time></trkpt><trkpt lat="53.010425" lon="-7.37522"><ele>103.0</ele><time>2026-05-05T09:07:28.215Z</time></trkpt><trkpt lat="53.0102583" lon="-7.3756067"><ele>103.0</ele><time>2026-05-05T09:07:29.215Z</time></trkpt><trkpt lat="53.0100883" lon="-7.3760033"><ele>103.0</ele><time>2026-05-05T09:07:30.215Z</time></trkpt><trkpt lat="53.0098933" lon="-7.3763933"><ele>103.0</ele><time>2026-05-05T09:07:31.215Z</time></trkpt><trkpt lat="53.0097033" lon="-7.37678"><ele>103.0</ele><time>2026-05-05T09:07:32.215Z</time></trkpt><trkpt lat="53.0095333" lon="-7.3771867"><ele>103.0</ele><time>2026-05-05T09:07:33.215Z</time></trkpt><trkpt lat="53.009345" lon="-7.37756"><ele>103.0</ele><time>2026-05-05T09:07:34.215Z</time></trkpt><trkpt lat="53.0091533" lon="-7.3779283"><ele>103.0</ele><time>2026-05-05T09:07:35.215Z</time></trkpt><trkpt lat="53.0089367" lon="-7.3783033"><ele>103.0</ele><time>2026-05-05T09:07:36.215Z</time></trkpt><trkpt lat="53.008745" lon="-7.378685"><ele>103.0</ele><time>2026-05-05T09:07:37.215Z</time></trkpt><trkpt lat="53.008545" lon="-7.37905"><ele>103.0</ele><time>2026-05-05T09:07:38.215Z</time></trkpt><trkpt lat="53.008345" lon="-7.3794183"><ele>103.5</ele><time>2026-05-05T09:07:39.214Z</time></trkpt><trkpt lat="53.0081433" lon="-7.3797817"><ele>104.0</ele><time>2026-05-05T09:07:40.215Z</time></trkpt><trkpt lat="53.0079483" lon="-7.380155"><ele>104.0</ele><time>2026-05-05T09:07:41.215Z</time></trkpt><trkpt lat="53.0077333" lon="-7.3805017"><ele>104.0</ele><time>2026-05-05T09:07:42.214Z</time></trkpt><trkpt lat="53.0075267" lon="-7.38085"><ele>104.5</ele><time>2026-05-05T09:07:43.215Z</time></trkpt><trkpt lat="53.0073117" lon="-7.381215"><ele>105.0</ele><time>2026-05-05T09:07:44.215Z</time></trkpt><trkpt lat="53.0071033" lon="-7.3815767"><ele>105.0</ele><time>2026-05-05T09:07:45.215Z</time></trkpt><trkpt lat="53.0068967" lon="-7.3819433"><ele>105.0</ele><time>2026-05-05T09:07:46.215Z</time></trkpt><trkpt lat="53.0066967" lon="-7.3823117"><ele>105.0</ele><time>2026-05-05T09:07:47.214Z</time></trkpt><trkpt lat="53.0064967" lon="-7.3826833"><ele>105.0</ele><time>2026-05-05T09:07:48.215Z</time></trkpt><trkpt lat="53.0062983" lon="-7.3830483"><ele>105.0</ele><time>2026-05-05T09:07:49.214Z</time></trkpt><trkpt lat="53.0061" lon="-7.383415"><ele>105.0</ele><time>2026-05-05T09:07:50.214Z</time></trkpt><trkpt lat="53.0058917" lon="-7.38377"><ele>106.0</ele><time>2026-05-05T09:07:51.215Z</time></trkpt><trkpt lat="53.0056883" lon="-7.3841233"><ele>107.0</ele><time>2026-05-05T09:07:52.215Z</time></trkpt><trkpt lat="53.0054933" lon="-7.3844417"><ele>106.0</ele><time>2026-05-05T09:07:53.214Z</time></trkpt><trkpt lat="53.0053133" lon="-7.3847517"><ele>105.0</ele><time>2026-05-05T09:07:54.214Z</time></trkpt><trkpt lat="53.00514" lon="-7.385055"><ele>105.0</ele><time>2026-05-05T09:07:55.215Z</time></trkpt><trkpt lat="53.0049783" lon="-7.38536"><ele>105.0</ele><time>2026-05-05T09:07:56.215Z</time></trkpt><trkpt lat="53.0047967" lon="-7.3856717"><ele>105.0</ele><time>2026-05-05T09:07:57.214Z</time></trkpt><trkpt lat="53.0046133" lon="-7.386"><ele>105.0</ele><time>2026-05-05T09:07:58.214Z</time></trkpt><trkpt lat="53.00443" lon="-7.3863117"><ele>104.5</ele><time>2026-05-05T09:07:59.215Z</time></trkpt><trkpt lat="53.0042517" lon="-7.3866217"><ele>104.0</ele><time>2026-05-05T09:08:00.215Z</time></trkpt><trkpt lat="53.0040733" lon="-7.3869017"><ele>103.5</ele><time>2026-05-05T09:08:01.214Z</time></trkpt><trkpt lat="53.0039183" lon="-7.387185"><ele>103.0</ele><time>2026-05-05T09:08:02.215Z</time></trkpt><trkpt lat="53.0037767" lon="-7.3874683"><ele>103.0</ele><time>2026-05-05T09:08:03.215Z</time></trkpt><trkpt lat="53.0036283" lon="-7.3877217"><ele>103.0</ele><time>2026-05-05T09:08:04.215Z</time></trkpt><trkpt lat="53.0034933" lon="-7.3879733"><ele>103.0</ele><time>2026-05-05T09:08:05.214Z</time></trkpt><trkpt lat="53.003355" lon="-7.38822"><ele>102.33333333333334</ele><time>2026-05-05T09:08:06.214Z</time></trkpt><trkpt lat="53.0032067" lon="-7.38846"><ele>101.66666666666666</ele><time>2026-05-05T09:08:07.214Z</time></trkpt><trkpt lat="53.00308" lon="-7.3887217"><ele>101.0</ele><time>2026-05-05T09:08:08.214Z</time></trkpt><trkpt lat="53.0029283" lon="-7.3889433"><ele>100.66666666666666</ele><time>2026-05-05T09:08:09.215Z</time></trkpt><trkpt lat="53.0028133" lon="-7.38918"><ele>100.33333333333334</ele><time>2026-05-05T09:08:10.214Z</time></trkpt><trkpt lat="53.002695" lon="-7.389385"><ele>100.0</ele><time>2026-05-05T09:08:11.215Z</time></trkpt><trkpt lat="53.0025767" lon="-7.3895767"><ele>100.0</ele><time>2026-05-05T09:08:12.215Z</time></trkpt><trkpt lat="53.002465" lon="-7.3897583"><ele>100.0</ele><time>2026-05-05T09:08:13.214Z</time></trkpt><trkpt lat="53.0023667" lon="-7.3899383"><ele>100.0</ele><time>2026-05-05T09:08:14.214Z</time></trkpt><trkpt lat="53.0022533" lon="-7.390105"><ele>100.0</ele><time>2026-05-05T09:08:15.214Z</time></trkpt><trkpt lat="53.002135" lon="-7.3902717"><ele>100.0</ele><time>2026-05-05T09:08:16.215Z</time></trkpt><trkpt lat="53.0020167" lon="-7.39043"><ele>100.0</ele><time>2026-05-05T09:08:17.215Z</time></trkpt><trkpt lat="53.0019067" lon="-7.3905983"><ele>100.0</ele><time>2026-05-05T09:08:18.215Z</time></trkpt><trkpt lat="53.0017917" lon="-7.39077"><ele>100.0</ele><time>2026-05-05T09:08:19.214Z</time></trkpt><trkpt lat="53.0016683" lon="-7.3909383"><ele>100.0</ele><time>2026-05-05T09:08:20.214Z</time></trkpt><trkpt lat="53.0015533" lon="-7.3911133"><ele>100.0</ele><time>2026-05-05T09:08:21.215Z</time></trkpt><trkpt lat="53.0014433" lon="-7.3912783"><ele>100.0</ele><time>2026-05-05T09:08:22.214Z</time></trkpt><trkpt lat="53.0013417" lon="-7.39143"><ele>100.0</ele><time>2026-05-05T09:08:23.214Z</time></trkpt><trkpt lat="53.00125" lon="-7.3915617"><ele>100.0</ele><time>2026-05-05T09:08:24.215Z</time></trkpt><trkpt lat="53.0011733" lon="-7.3916867"><ele>100.0</ele><time>2026-05-05T09:08:25.215Z</time></trkpt><trkpt lat="53.0011067" lon="-7.3918033"><ele>100.0</ele><time>2026-05-05T09:08:26.214Z</time></trkpt><trkpt lat="53.0010417" lon="-7.391905"><ele>100.0</ele><time>2026-05-05T09:08:27.215Z</time></trkpt><trkpt lat="53.0009783" lon="-7.392005"><ele>100.0</ele><time>2026-05-05T09:08:28.215Z</time></trkpt><trkpt lat="53.00091" lon="-7.392115"><ele>100.0</ele><time>2026-05-05T09:08:29.215Z</time></trkpt><trkpt lat="53.0008383" lon="-7.3922317"><ele>100.16666666666667</ele><time>2026-05-05T09:08:30.215Z</time></trkpt><trkpt lat="53.0007667" lon="-7.3923417"><ele>100.33333333333334</ele><time>2026-05-05T09:08:31.214Z</time></trkpt><trkpt lat="53.0007033" lon="-7.3924333"><ele>100.5</ele><time>2026-05-05T09:08:32.215Z</time></trkpt><trkpt lat="53.0006483" lon="-7.39252"><ele>100.66666666666666</ele><time>2026-05-05T09:08:33.215Z</time></trkpt><trkpt lat="53.000595" lon="-7.3926017"><ele>100.83333333333333</ele><time>2026-05-05T09:08:34.215Z</time></trkpt><trkpt lat="53.000545" lon="-7.39267"><ele>101.0</ele><time>2026-05-05T09:08:35.215Z</time></trkpt><trkpt lat="53.0004617" lon="-7.3927883"><ele>100.99999999999999</ele><time>2026-05-05T09:08:37.214Z</time></trkpt><trkpt lat="53.0004117" lon="-7.3928833"><ele>101.0</ele><time>2026-05-05T09:08:39.214Z</time></trkpt><trkpt lat="53.000375" lon="-7.3929783"><ele>101.0</ele><time>2026-05-05T09:08:42.214Z</time></trkpt><trkpt lat="53.0003533" lon="-7.3930783"><ele>101.0</ele><time>2026-05-05T09:08:46.215Z</time></trkpt><trkpt lat="53.0003383" lon="-7.3932167"><ele>100.99999999999999</ele><time>2026-05-05T09:10:14.215Z</time></trkpt><trkpt lat="53.0002367" lon="-7.3933867"><ele>101.0</ele><time>2026-05-05T09:10:16.215Z</time></trkpt><trkpt lat="53.0001683" lon="-7.39349"><ele>101.0</ele><time>2026-05-05T09:10:17.215Z</time></trkpt><trkpt lat="53.0001" lon="-7.393595"><ele>101.0</ele><time>2026-05-05T09:10:18.215Z</time></trkpt><trkpt lat="53.0000283" lon="-7.3936983"><ele>101.0</ele><time>2026-05-05T09:10:19.214Z</time></trkpt><trkpt lat="52.9999417" lon="-7.3938183"><ele>101.0</ele><time>2026-05-05T09:10:20.215Z</time></trkpt><trkpt lat="52.9998433" lon="-7.3939567"><ele>101.0</ele><time>2026-05-05T09:10:21.215Z</time></trkpt><trkpt lat="52.9997183" lon="-7.39409"><ele>101.4</ele><time>2026-05-05T09:10:22.215Z</time></trkpt><trkpt lat="52.9996283" lon="-7.3942067"><ele>101.8</ele><time>2026-05-05T09:10:23.215Z</time></trkpt><trkpt lat="52.999545" lon="-7.394335"><ele>102.2</ele><time>2026-05-05T09:10:24.214Z</time></trkpt><trkpt lat="52.9994767" lon="-7.3944517"><ele>102.60000000000001</ele><time>2026-05-05T09:10:25.214Z</time></trkpt><trkpt lat="52.99942" lon="-7.3945317"><ele>103.0</ele><time>2026-05-05T09:10:26.215Z</time></trkpt><trkpt lat="52.999355" lon="-7.39465"><ele>103.4</ele><time>2026-05-05T09:10:28.215Z</time></trkpt><trkpt lat="52.9992717" lon="-7.3947517"><ele>103.80000000000001</ele><time>2026-05-05T09:10:49.214Z</time></trkpt><trkpt lat="52.9992133" lon="-7.3948683"><ele>104.2</ele><time>2026-05-05T09:10:50.215Z</time></trkpt><trkpt lat="52.999145" lon="-7.3949983"><ele>104.6</ele><time>2026-05-05T09:10:51.215Z</time></trkpt><trkpt lat="52.99907" lon="-7.3951567"><ele>105.0</ele><time>2026-05-05T09:10:52.215Z</time></trkpt><trkpt lat="52.99899" lon="-7.3953533"><ele>105.33333333333334</ele><time>2026-05-05T09:10:53.214Z</time></trkpt><trkpt lat="52.998905" lon="-7.39556"><ele>105.66666666666667</ele><time>2026-05-05T09:10:54.215Z</time></trkpt><trkpt lat="52.998795" lon="-7.3958"><ele>106.0</ele><time>2026-05-05T09:10:55.215Z</time></trkpt><trkpt lat="52.9986683" lon="-7.396035"><ele>106.0</ele><time>2026-05-05T09:10:56.214Z</time></trkpt><trkpt lat="52.99856" lon="-7.39624"><ele>106.0</ele><time>2026-05-05T09:10:57.215Z</time></trkpt><trkpt lat="52.99847" lon="-7.3964317"><ele>106.0</ele><time>2026-05-05T09:10:58.215Z</time></trkpt><trkpt lat="52.99838" lon="-7.396605"><ele>106.0</ele><time>2026-05-05T09:10:59.215Z</time></trkpt><trkpt lat="52.9983017" lon="-7.3967617"><ele>106.0</ele><time>2026-05-05T09:11:00.214Z</time></trkpt><trkpt lat="52.9982367" lon="-7.3969217"><ele>106.0</ele><time>2026-05-05T09:11:01.215Z</time></trkpt><trkpt lat="52.99818" lon="-7.397105"><ele>106.0</ele><time>2026-05-05T09:11:02.215Z</time></trkpt><trkpt lat="52.9981083" lon="-7.3973117"><ele>106.0</ele><time>2026-05-05T09:11:03.215Z</time></trkpt><trkpt lat="52.99803" lon="-7.39754"><ele>105.33333333333334</ele><time>2026-05-05T09:11:04.214Z</time></trkpt><trkpt lat="52.9979283" lon="-7.39776"><ele>104.66666666666666</ele><time>2026-05-05T09:11:05.215Z</time></trkpt><trkpt lat="52.9978367" lon="-7.3979867"><ele>104.0</ele><time>2026-05-05T09:11:06.215Z</time></trkpt><trkpt lat="52.99774" lon="-7.3982433"><ele>103.66666666666666</ele><time>2026-05-05T09:11:07.215Z</time></trkpt><trkpt lat="52.9976083" lon="-7.3985133"><ele>103.33333333333334</ele><time>2026-05-05T09:11:08.215Z</time></trkpt><trkpt lat="52.9975033" lon="-7.3988167"><ele>103.0</ele><time>2026-05-05T09:11:09.214Z</time></trkpt><trkpt lat="52.99739" lon="-7.3991017"><ele>104.0</ele><time>2026-05-05T09:11:10.215Z</time></trkpt><trkpt lat="52.9972667" lon="-7.39939"><ele>105.0</ele><time>2026-05-05T09:11:11.214Z</time></trkpt><trkpt lat="52.99714" lon="-7.399685"><ele>106.0</ele><time>2026-05-05T09:11:12.215Z</time></trkpt><trkpt lat="52.9970317" lon="-7.3999967"><ele>106.0</ele><time>2026-05-05T09:11:13.214Z</time></trkpt><trkpt lat="52.996925" lon="-7.4003033"><ele>106.0</ele><time>2026-05-05T09:11:14.214Z</time></trkpt><trkpt lat="52.9968267" lon="-7.4006383"><ele>106.0</ele><time>2026-05-05T09:11:15.215Z</time></trkpt><trkpt lat="52.9967117" lon="-7.4009633"><ele>105.0</ele><time>2026-05-05T09:11:16.215Z</time></trkpt><trkpt lat="52.996605" lon="-7.4012983"><ele>104.0</ele><time>2026-05-05T09:11:17.215Z</time></trkpt><trkpt lat="52.9965017" lon="-7.4016367"><ele>103.66666666666666</ele><time>2026-05-05T09:11:18.215Z</time></trkpt><trkpt lat="52.996415" lon="-7.4019717"><ele>103.33333333333334</ele><time>2026-05-05T09:11:19.215Z</time></trkpt><trkpt lat="52.9963233" lon="-7.40231"><ele>103.0</ele><time>2026-05-05T09:11:20.214Z</time></trkpt><trkpt lat="52.99623" lon="-7.4026717"><ele>105.0</ele><time>2026-05-05T09:11:21.215Z</time></trkpt><trkpt lat="52.99614" lon="-7.4030333"><ele>107.0</ele><time>2026-05-05T09:11:22.215Z</time></trkpt><trkpt lat="52.9960417" lon="-7.4034333"><ele>108.0</ele><time>2026-05-05T09:11:23.214Z</time></trkpt><trkpt lat="52.9959467" lon="-7.40386"><ele>109.0</ele><time>2026-05-05T09:11:24.215Z</time></trkpt><trkpt lat="52.9958583" lon="-7.404295"><ele>109.0</ele><time>2026-05-05T09:11:25.214Z</time></trkpt><trkpt lat="52.995775" lon="-7.4047133"><ele>109.0</ele><time>2026-05-05T09:11:26.215Z</time></trkpt><trkpt lat="52.9957017" lon="-7.40516"><ele>108.0</ele><time>2026-05-05T09:11:27.214Z</time></trkpt><trkpt lat="52.9956217" lon="-7.4055817"><ele>107.0</ele><time>2026-05-05T09:11:28.215Z</time></trkpt><trkpt lat="52.9955583" lon="-7.4060133"><ele>106.0</ele><time>2026-05-05T09:11:29.215Z</time></trkpt><trkpt lat="52.995495" lon="-7.40644"><ele>105.0</ele><time>2026-05-05T09:11:30.215Z</time></trkpt><trkpt lat="52.9954383" lon="-7.406885"><ele>104.5</ele><time>2026-05-05T09:11:31.215Z</time></trkpt><trkpt lat="52.9953767" lon="-7.4073617"><ele>104.0</ele><time>2026-05-05T09:11:32.215Z</time></trkpt><trkpt lat="52.99533" lon="-7.40782"><ele>103.5</ele><time>2026-05-05T09:11:33.215Z</time></trkpt><trkpt lat="52.9952833" lon="-7.4082967"><ele>103.0</ele><time>2026-05-05T09:11:34.215Z</time></trkpt><trkpt lat="52.995255" lon="-7.4087767"><ele>103.5</ele><time>2026-05-05T09:11:35.215Z</time></trkpt><trkpt lat="52.9952233" lon="-7.40925"><ele>104.0</ele><time>2026-05-05T09:11:36.215Z</time></trkpt><trkpt lat="52.9951967" lon="-7.4097083"><ele>104.5</ele><time>2026-05-05T09:11:37.215Z</time></trkpt><trkpt lat="52.9951667" lon="-7.4101683"><ele>105.0</ele><time>2026-05-05T09:11:38.215Z</time></trkpt><trkpt lat="52.99516" lon="-7.4106167"><ele>105.0</ele><time>2026-05-05T09:11:39.215Z</time></trkpt><trkpt lat="52.9951583" lon="-7.4110633"><ele>105.0</ele><time>2026-05-05T09:11:40.214Z</time></trkpt><trkpt lat="52.9951533" lon="-7.4115067"><ele>105.0</ele><time>2026-05-05T09:11:41.215Z</time></trkpt><trkpt lat="52.995145" lon="-7.4119583"><ele>105.0</ele><time>2026-05-05T09:11:42.215Z</time></trkpt><trkpt lat="52.9951417" lon="-7.41242"><ele>104.5</ele><time>2026-05-05T09:11:43.214Z</time></trkpt><trkpt lat="52.9951367" lon="-7.4128817"><ele>104.0</ele><time>2026-05-05T09:11:44.214Z</time></trkpt><trkpt lat="52.9951333" lon="-7.4133467"><ele>103.5</ele><time>2026-05-05T09:11:45.215Z</time></trkpt><trkpt lat="52.9951333" lon="-7.41378"><ele>103.0</ele><time>2026-05-05T09:11:46.214Z</time></trkpt><trkpt lat="52.9951317" lon="-7.4142133"><ele>103.0</ele><time>2026-05-05T09:11:47.214Z</time></trkpt><trkpt lat="52.9951233" lon="-7.414645"><ele>103.0</ele><time>2026-05-05T09:11:48.215Z</time></trkpt><trkpt lat="52.99511" lon="-7.4150667"><ele>103.0</ele><time>2026-05-05T09:11:49.214Z</time></trkpt><trkpt lat="52.9950933" lon="-7.415485"><ele>103.0</ele><time>2026-05-05T09:11:50.214Z</time></trkpt><trkpt lat="52.9950733" lon="-7.4158867"><ele>103.5</ele><time>2026-05-05T09:11:51.215Z</time></trkpt><trkpt lat="52.9950317" lon="-7.416325"><ele>104.0</ele><time>2026-05-05T09:11:52.215Z</time></trkpt><trkpt lat="52.99498" lon="-7.4167683"><ele>105.5</ele><time>2026-05-05T09:11:53.215Z</time></trkpt><trkpt lat="52.9949317" lon="-7.4171917"><ele>107.0</ele><time>2026-05-05T09:11:54.215Z</time></trkpt><trkpt lat="52.994875" lon="-7.41762"><ele>106.5</ele><time>2026-05-05T09:11:55.215Z</time></trkpt><trkpt lat="52.9948117" lon="-7.4180617"><ele>106.0</ele><time>2026-05-05T09:11:56.214Z</time></trkpt><trkpt lat="52.994745" lon="-7.4185117"><ele>106.0</ele><time>2026-05-05T09:11:57.214Z</time></trkpt><trkpt lat="52.9946817" lon="-7.41895"><ele>106.0</ele><time>2026-05-05T09:11:58.214Z</time></trkpt><trkpt lat="52.9946" lon="-7.4194"><ele>106.0</ele><time>2026-05-05T09:11:59.215Z</time></trkpt><trkpt lat="52.9945033" lon="-7.419855"><ele>106.0</ele><time>2026-05-05T09:12:00.215Z</time></trkpt><trkpt lat="52.994395" lon="-7.4203067"><ele>106.5</ele><time>2026-05-05T09:12:01.214Z</time></trkpt><trkpt lat="52.99428" lon="-7.42076"><ele>107.0</ele><time>2026-05-05T09:12:02.215Z</time></trkpt><trkpt lat="52.9941567" lon="-7.4212383"><ele>108.0</ele><time>2026-05-05T09:12:03.214Z</time></trkpt><trkpt lat="52.9940283" lon="-7.4217117"><ele>109.0</ele><time>2026-05-05T09:12:04.215Z</time></trkpt><trkpt lat="52.99389" lon="-7.4221783"><ele>109.0</ele><time>2026-05-05T09:12:05.215Z</time></trkpt><trkpt lat="52.99374" lon="-7.422635"><ele>109.0</ele><time>2026-05-05T09:12:06.215Z</time></trkpt><trkpt lat="52.9935917" lon="-7.4230817"><ele>109.0</ele><time>2026-05-05T09:12:07.215Z</time></trkpt><trkpt lat="52.993425" lon="-7.423515"><ele>109.0</ele><time>2026-05-05T09:12:08.214Z</time></trkpt><trkpt lat="52.9932517" lon="-7.423935"><ele>109.5</ele><time>2026-05-05T09:12:09.214Z</time></trkpt><trkpt lat="52.9930767" lon="-7.4243333"><ele>110.0</ele><time>2026-05-05T09:12:10.215Z</time></trkpt><trkpt lat="52.9929117" lon="-7.4247133"><ele>110.0</ele><time>2026-05-05T09:12:11.215Z</time></trkpt><trkpt lat="52.9927483" lon="-7.4250867"><ele>110.0</ele><time>2026-05-05T09:12:12.215Z</time></trkpt><trkpt lat="52.9925783" lon="-7.42547"><ele>108.5</ele><time>2026-05-05T09:12:13.215Z</time></trkpt><trkpt lat="52.992415" lon="-7.425835"><ele>107.0</ele><time>2026-05-05T09:12:14.214Z</time></trkpt><trkpt lat="52.9922517" lon="-7.42617"><ele>108.0</ele><time>2026-05-05T09:12:15.215Z</time></trkpt><trkpt lat="52.9920533" lon="-7.4265317"><ele>109.0</ele><time>2026-05-05T09:12:16.215Z</time></trkpt><trkpt lat="52.9918667" lon="-7.4268817"><ele>108.0</ele><time>2026-05-05T09:12:17.215Z</time></trkpt><trkpt lat="52.9916567" lon="-7.4272417"><ele>107.0</ele><time>2026-05-05T09:12:18.215Z</time></trkpt><trkpt lat="52.9914367" lon="-7.4275967"><ele>107.0</ele><time>2026-05-05T09:12:19.214Z</time></trkpt><trkpt lat="52.9912033" lon="-7.4279517"><ele>107.0</ele><time>2026-05-05T09:12:20.214Z</time></trkpt><trkpt lat="52.99095" lon="-7.4283017"><ele>106.5</ele><time>2026-05-05T09:12:21.214Z</time></trkpt><trkpt lat="52.9906833" lon="-7.428615"><ele>106.0</ele><time>2026-05-05T09:12:22.214Z</time></trkpt><trkpt lat="52.9904283" lon="-7.4289233"><ele>106.0</ele><time>2026-05-05T09:12:23.215Z</time></trkpt><trkpt lat="52.99017" lon="-7.4292183"><ele>106.0</ele><time>2026-05-05T09:12:24.215Z</time></trkpt><trkpt lat="52.9898983" lon="-7.4295067"><ele>106.0</ele><time>2026-05-05T09:12:25.215Z</time></trkpt><trkpt lat="52.9896233" lon="-7.4297867"><ele>106.0</ele><time>2026-05-05T09:12:26.215Z</time></trkpt><trkpt lat="52.989355" lon="-7.43006"><ele>105.5</ele><time>2026-05-05T09:12:27.214Z</time></trkpt><trkpt lat="52.98909" lon="-7.4303133"><ele>105.0</ele><time>2026-05-05T09:12:28.214Z</time></trkpt><trkpt lat="52.9888317" lon="-7.4305633"><ele>105.0</ele><time>2026-05-05T09:12:29.215Z</time></trkpt><trkpt lat="52.9885683" lon="-7.4307917"><ele>105.0</ele><time>2026-05-05T09:12:30.214Z</time></trkpt><trkpt lat="52.9883067" lon="-7.431005"><ele>104.0</ele><time>2026-05-05T09:12:31.215Z</time></trkpt><trkpt lat="52.9880367" lon="-7.4312033"><ele>103.0</ele><time>2026-05-05T09:12:32.215Z</time></trkpt><trkpt lat="52.987765" lon="-7.4313933"><ele>102.0</ele><time>2026-05-05T09:12:33.215Z</time></trkpt><trkpt lat="52.9874983" lon="-7.4315717"><ele>101.0</ele><time>2026-05-05T09:12:34.214Z</time></trkpt><trkpt lat="52.9872233" lon="-7.4317433"><ele>101.0</ele><time>2026-05-05T09:12:35.215Z</time></trkpt><trkpt lat="52.9869383" lon="-7.4319033"><ele>101.0</ele><time>2026-05-05T09:12:36.215Z</time></trkpt><trkpt lat="52.9866483" lon="-7.4320417"><ele>103.0</ele><time>2026-05-05T09:12:37.215Z</time></trkpt><trkpt lat="52.986355" lon="-7.4321633"><ele>105.0</ele><time>2026-05-05T09:12:38.215Z</time></trkpt><trkpt lat="52.986065" lon="-7.4322733"><ele>104.5</ele><time>2026-05-05T09:12:39.215Z</time></trkpt><trkpt lat="52.9857783" lon="-7.4323717"><ele>104.0</ele><time>2026-05-05T09:12:40.215Z</time></trkpt><trkpt lat="52.9855117" lon="-7.43249"><ele>104.0</ele><time>2026-05-05T09:12:41.215Z</time></trkpt><trkpt lat="52.9852483" lon="-7.4325867"><ele>104.0</ele><time>2026-05-05T09:12:42.214Z</time></trkpt><trkpt lat="52.9849583" lon="-7.4326633"><ele>102.0</ele><time>2026-05-05T09:12:43.215Z</time></trkpt><trkpt lat="52.9846583" lon="-7.432725"><ele>100.0</ele><time>2026-05-05T09:12:44.215Z</time></trkpt><trkpt lat="52.984355" lon="-7.4327717"><ele>100.0</ele><time>2026-05-05T09:12:45.215Z</time></trkpt><trkpt lat="52.9840383" lon="-7.43279"><ele>100.0</ele><time>2026-05-05T09:12:46.214Z</time></trkpt><trkpt lat="52.983715" lon="-7.4328067"><ele>100.0</ele><time>2026-05-05T09:12:47.215Z</time></trkpt><trkpt lat="52.9833917" lon="-7.4328083"><ele>100.0</ele><time>2026-05-05T09:12:48.215Z</time></trkpt><trkpt lat="52.983055" lon="-7.4327917"><ele>100.0</ele><time>2026-05-05T09:12:49.215Z</time></trkpt><trkpt lat="52.9827317" lon="-7.43276"><ele>100.0</ele><time>2026-05-05T09:12:50.215Z</time></trkpt><trkpt lat="52.9824183" lon="-7.4327367"><ele>99.5</ele><time>2026-05-05T09:12:51.215Z</time></trkpt><trkpt lat="52.9821267" lon="-7.4326783"><ele>99.0</ele><time>2026-05-05T09:12:52.214Z</time></trkpt><trkpt lat="52.9818333" lon="-7.432615"><ele>98.5</ele><time>2026-05-05T09:12:53.215Z</time></trkpt><trkpt lat="52.9815367" lon="-7.4325533"><ele>98.0</ele><time>2026-05-05T09:12:54.214Z</time></trkpt><trkpt lat="52.9812533" lon="-7.4325133"><ele>98.0</ele><time>2026-05-05T09:12:55.215Z</time></trkpt><trkpt lat="52.9809717" lon="-7.4324767"><ele>98.0</ele><time>2026-05-05T09:12:56.215Z</time></trkpt><trkpt lat="52.9806867" lon="-7.4324433"><ele>99.5</ele><time>2026-05-05T09:12:57.215Z</time></trkpt><trkpt lat="52.980395" lon="-7.43241"><ele>101.0</ele><time>2026-05-05T09:12:58.215Z</time></trkpt><trkpt lat="52.9801083" lon="-7.4323817"><ele>100.5</ele><time>2026-05-05T09:12:59.215Z</time></trkpt><trkpt lat="52.9798133" lon="-7.432355"><ele>100.0</ele><time>2026-05-05T09:13:00.215Z</time></trkpt><trkpt lat="52.9795267" lon="-7.4323483"><ele>100.0</ele><time>2026-05-05T09:13:01.215Z</time></trkpt><trkpt lat="52.9792367" lon="-7.4323533"><ele>100.0</ele><time>2026-05-05T09:13:02.215Z</time></trkpt><trkpt lat="52.9789383" lon="-7.432355"><ele>99.0</ele><time>2026-05-05T09:13:03.215Z</time></trkpt><trkpt lat="52.978645" lon="-7.4323583"><ele>98.0</ele><time>2026-05-05T09:13:04.215Z</time></trkpt><trkpt lat="52.9783533" lon="-7.4323767"><ele>98.0</ele><time>2026-05-05T09:13:05.215Z</time></trkpt><trkpt lat="52.978075" lon="-7.4323933"><ele>98.0</ele><time>2026-05-05T09:13:06.215Z</time></trkpt><trkpt lat="52.9778033" lon="-7.432415"><ele>98.0</ele><time>2026-05-05T09:13:07.214Z</time></trkpt><trkpt lat="52.9775267" lon="-7.4324267"><ele>98.0</ele><time>2026-05-05T09:13:08.215Z</time></trkpt><trkpt lat="52.9772583" lon="-7.4324533"><ele>98.5</ele><time>2026-05-05T09:13:09.215Z</time></trkpt><trkpt lat="52.9770017" lon="-7.432515"><ele>99.0</ele><time>2026-05-05T09:13:10.214Z</time></trkpt><trkpt lat="52.9767433" lon="-7.43257"><ele>98.0</ele><time>2026-05-05T09:13:11.214Z</time></trkpt><trkpt lat="52.9764717" lon="-7.4326217"><ele>97.0</ele><time>2026-05-05T09:13:12.215Z</time></trkpt><trkpt lat="52.9761933" lon="-7.43268"><ele>97.0</ele><time>2026-05-05T09:13:13.215Z</time></trkpt><trkpt lat="52.9759" lon="-7.4327367"><ele>97.0</ele><time>2026-05-05T09:13:14.215Z</time></trkpt><trkpt lat="52.9755967" lon="-7.4327983"><ele>97.0</ele><time>2026-05-05T09:13:15.215Z</time></trkpt><trkpt lat="52.9752783" lon="-7.4328533"><ele>97.0</ele><time>2026-05-05T09:13:16.215Z</time></trkpt><trkpt lat="52.9749767" lon="-7.4329367"><ele>97.0</ele><time>2026-05-05T09:13:17.215Z</time></trkpt><trkpt lat="52.974675" lon="-7.4330183"><ele>97.0</ele><time>2026-05-05T09:13:18.215Z</time></trkpt><trkpt lat="52.97436" lon="-7.4330917"><ele>96.0</ele><time>2026-05-05T09:13:19.214Z</time></trkpt><trkpt lat="52.9740517" lon="-7.43321"><ele>95.0</ele><time>2026-05-05T09:13:20.215Z</time></trkpt><trkpt lat="52.973745" lon="-7.433335"><ele>95.0</ele><time>2026-05-05T09:13:21.215Z</time></trkpt><trkpt lat="52.973425" lon="-7.433415"><ele>95.0</ele><time>2026-05-05T09:13:22.215Z</time></trkpt><trkpt lat="52.9731083" lon="-7.4335217"><ele>95.0</ele><time>2026-05-05T09:13:23.215Z</time></trkpt><trkpt lat="52.9727983" lon="-7.4336417"><ele>95.0</ele><time>2026-05-05T09:13:24.214Z</time></trkpt><trkpt lat="52.972495" lon="-7.4337767"><ele>95.0</ele><time>2026-05-05T09:13:25.215Z</time></trkpt><trkpt lat="52.9721983" lon="-7.4338983"><ele>95.0</ele><time>2026-05-05T09:13:26.215Z</time></trkpt><trkpt lat="52.971915" lon="-7.4340317"><ele>96.0</ele><time>2026-05-05T09:13:27.215Z</time></trkpt><trkpt lat="52.971645" lon="-7.434175"><ele>97.0</ele><time>2026-05-05T09:13:28.215Z</time></trkpt><trkpt lat="52.9713617" lon="-7.434315"><ele>97.0</ele><time>2026-05-05T09:13:29.214Z</time></trkpt><trkpt lat="52.9710783" lon="-7.434455"><ele>97.0</ele><time>2026-05-05T09:13:30.215Z</time></trkpt><trkpt lat="52.970795" lon="-7.4346017"><ele>96.5</ele><time>2026-05-05T09:13:31.215Z</time></trkpt><trkpt lat="52.97049" lon="-7.4347333"><ele>96.0</ele><time>2026-05-05T09:13:32.214Z</time></trkpt><trkpt lat="52.9701883" lon="-7.4348867"><ele>95.5</ele><time>2026-05-05T09:13:33.215Z</time></trkpt><trkpt lat="52.9699267" lon="-7.4350767"><ele>95.0</ele><time>2026-05-05T09:13:34.215Z</time></trkpt><trkpt lat="52.969675" lon="-7.4352767"><ele>95.0</ele><time>2026-05-05T09:13:35.215Z</time></trkpt><trkpt lat="52.96941" lon="-7.4354733"><ele>95.0</ele><time>2026-05-05T09:13:36.214Z</time></trkpt><trkpt lat="52.9691467" lon="-7.4356767"><ele>95.0</ele><time>2026-05-05T09:13:37.215Z</time></trkpt><trkpt lat="52.9688767" lon="-7.4358617"><ele>95.0</ele><time>2026-05-05T09:13:38.215Z</time></trkpt><trkpt lat="52.9686067" lon="-7.436055"><ele>95.0</ele><time>2026-05-05T09:13:39.215Z</time></trkpt><trkpt lat="52.96833" lon="-7.43625"><ele>95.0</ele><time>2026-05-05T09:13:40.215Z</time></trkpt><trkpt lat="52.9680583" lon="-7.43645"><ele>95.0</ele><time>2026-05-05T09:13:41.215Z</time></trkpt><trkpt lat="52.9677867" lon="-7.43664"><ele>95.0</ele><time>2026-05-05T09:13:42.215Z</time></trkpt><trkpt lat="52.967515" lon="-7.4368367"><ele>95.5</ele><time>2026-05-05T09:13:43.215Z</time></trkpt><trkpt lat="52.9672483" lon="-7.4370317"><ele>96.0</ele><time>2026-05-05T09:13:44.214Z</time></trkpt><trkpt lat="52.9669767" lon="-7.437235"><ele>96.0</ele><time>2026-05-05T09:13:45.215Z</time></trkpt><trkpt lat="52.9667083" lon="-7.437415"><ele>96.0</ele><time>2026-05-05T09:13:46.215Z</time></trkpt><trkpt lat="52.9664267" lon="-7.4375717"><ele>97.0</ele><time>2026-05-05T09:13:47.215Z</time></trkpt><trkpt lat="52.9661567" lon="-7.4377433"><ele>98.0</ele><time>2026-05-05T09:13:48.215Z</time></trkpt><trkpt lat="52.9658983" lon="-7.4379217"><ele>98.0</ele><time>2026-05-05T09:13:49.215Z</time></trkpt><trkpt lat="52.9656233" lon="-7.4381017"><ele>98.0</ele><time>2026-05-05T09:13:50.214Z</time></trkpt><trkpt lat="52.96535" lon="-7.4382717"><ele>98.0</ele><time>2026-05-05T09:13:51.215Z</time></trkpt><trkpt lat="52.9650667" lon="-7.43842"><ele>98.0</ele><time>2026-05-05T09:13:52.215Z</time></trkpt><trkpt lat="52.96479" lon="-7.4385617"><ele>97.5</ele><time>2026-05-05T09:13:53.214Z</time></trkpt><trkpt lat="52.9645217" lon="-7.438715"><ele>97.0</ele><time>2026-05-05T09:13:54.214Z</time></trkpt><trkpt lat="52.9642467" lon="-7.4388533"><ele>97.0</ele><time>2026-05-05T09:13:55.215Z</time></trkpt><trkpt lat="52.963975" lon="-7.4389867"><ele>97.0</ele><time>2026-05-05T09:13:56.215Z</time></trkpt><trkpt lat="52.963715" lon="-7.4391583"><ele>97.0</ele><time>2026-05-05T09:13:57.214Z</time></trkpt><trkpt lat="52.963435" lon="-7.4392883"><ele>97.0</ele><time>2026-05-05T09:13:58.214Z</time></trkpt><trkpt lat="52.963145" lon="-7.4394167"><ele>96.5</ele><time>2026-05-05T09:13:59.214Z</time></trkpt><trkpt lat="52.9628567" lon="-7.4395517"><ele>96.0</ele><time>2026-05-05T09:14:00.215Z</time></trkpt><trkpt lat="52.9625667" lon="-7.4396833"><ele>95.5</ele><time>2026-05-05T09:14:01.214Z</time></trkpt><trkpt lat="52.962285" lon="-7.4398083"><ele>95.0</ele><time>2026-05-05T09:14:02.214Z</time></trkpt><trkpt lat="52.9620017" lon="-7.439925"><ele>95.0</ele><time>2026-05-05T09:14:03.215Z</time></trkpt><trkpt lat="52.9617233" lon="-7.4400517"><ele>95.0</ele><time>2026-05-05T09:14:04.214Z</time></trkpt><trkpt lat="52.9614383" lon="-7.4401767"><ele>94.0</ele><time>2026-05-05T09:14:05.215Z</time></trkpt><trkpt lat="52.96116" lon="-7.4403"><ele>93.0</ele><time>2026-05-05T09:14:06.215Z</time></trkpt><trkpt lat="52.9608667" lon="-7.4403967"><ele>92.5</ele><time>2026-05-05T09:14:07.215Z</time></trkpt><trkpt lat="52.9605717" lon="-7.4404967"><ele>92.0</ele><time>2026-05-05T09:14:08.215Z</time></trkpt><trkpt lat="52.9602817" lon="-7.4405917"><ele>92.5</ele><time>2026-05-05T09:14:09.214Z</time></trkpt><trkpt lat="52.95999" lon="-7.440695"><ele>93.0</ele><time>2026-05-05T09:14:10.215Z</time></trkpt><trkpt lat="52.959715" lon="-7.440805"><ele>93.0</ele><time>2026-05-05T09:14:11.215Z</time></trkpt><trkpt lat="52.9594317" lon="-7.4408983"><ele>93.0</ele><time>2026-05-05T09:14:12.215Z</time></trkpt><trkpt lat="52.959145" lon="-7.4409967"><ele>92.0</ele><time>2026-05-05T09:14:13.214Z</time></trkpt><trkpt lat="52.95886" lon="-7.4411017"><ele>91.0</ele><time>2026-05-05T09:14:14.215Z</time></trkpt><trkpt lat="52.9585767" lon="-7.441215"><ele>91.0</ele><time>2026-05-05T09:14:15.215Z</time></trkpt><trkpt lat="52.9582883" lon="-7.441315"><ele>91.0</ele><time>2026-05-05T09:14:16.215Z</time></trkpt><trkpt lat="52.958" lon="-7.441405"><ele>91.0</ele><time>2026-05-05T09:14:17.215Z</time></trkpt><trkpt lat="52.957715" lon="-7.4415"><ele>91.0</ele><time>2026-05-05T09:14:18.214Z</time></trkpt><trkpt lat="52.95743" lon="-7.441595"><ele>91.0</ele><time>2026-05-05T09:14:19.215Z</time></trkpt><trkpt lat="52.9571517" lon="-7.4416767"><ele>91.0</ele><time>2026-05-05T09:14:20.214Z</time></trkpt><trkpt lat="52.9568633" lon="-7.4417533"><ele>91.0</ele><time>2026-05-05T09:14:21.214Z</time></trkpt><trkpt lat="52.9566017" lon="-7.441875"><ele>91.0</ele><time>2026-05-05T09:14:22.215Z</time></trkpt><trkpt lat="52.9563233" lon="-7.4419633"><ele>91.0</ele><time>2026-05-05T09:14:23.214Z</time></trkpt><trkpt lat="52.9560517" lon="-7.442075"><ele>91.0</ele><time>2026-05-05T09:14:24.215Z</time></trkpt><trkpt lat="52.9557733" lon="-7.4421633"><ele>92.5</ele><time>2026-05-05T09:14:25.215Z</time></trkpt><trkpt lat="52.9554967" lon="-7.4422617"><ele>94.0</ele><time>2026-05-05T09:14:26.215Z</time></trkpt><trkpt lat="52.9552217" lon="-7.4423533"><ele>94.0</ele><time>2026-05-05T09:14:27.214Z</time></trkpt><trkpt lat="52.9549467" lon="-7.4424533"><ele>94.0</ele><time>2026-05-05T09:14:28.215Z</time></trkpt><trkpt lat="52.9546667" lon="-7.4425383"><ele>94.0</ele><time>2026-05-05T09:14:29.215Z</time></trkpt><trkpt lat="52.9543767" lon="-7.4426233"><ele>94.0</ele><time>2026-05-05T09:14:30.215Z</time></trkpt><trkpt lat="52.9541033" lon="-7.44271"><ele>93.0</ele><time>2026-05-05T09:14:31.215Z</time></trkpt><trkpt lat="52.95383" lon="-7.442815"><ele>92.0</ele><time>2026-05-05T09:14:32.214Z</time></trkpt><trkpt lat="52.95357" lon="-7.442925"><ele>90.5</ele><time>2026-05-05T09:14:33.214Z</time></trkpt><trkpt lat="52.953305" lon="-7.443025"><ele>89.0</ele><time>2026-05-05T09:14:34.214Z</time></trkpt><trkpt lat="52.9530383" lon="-7.4431283"><ele>89.0</ele><time>2026-05-05T09:14:35.215Z</time></trkpt><trkpt lat="52.952755" lon="-7.44322"><ele>89.0</ele><time>2026-05-05T09:14:36.215Z</time></trkpt><trkpt lat="52.9524733" lon="-7.4433167"><ele>89.0</ele><time>2026-05-05T09:14:37.214Z</time></trkpt><trkpt lat="52.9522117" lon="-7.4434267"><ele>89.0</ele><time>2026-05-05T09:14:38.214Z</time></trkpt><trkpt lat="52.951935" lon="-7.4435233"><ele>90.0</ele><time>2026-05-05T09:14:39.214Z</time></trkpt><trkpt lat="52.9516883" lon="-7.4436317"><ele>91.0</ele><time>2026-05-05T09:14:40.215Z</time></trkpt><trkpt lat="52.9514367" lon="-7.4437183"><ele>91.0</ele><time>2026-05-05T09:14:41.215Z</time></trkpt><trkpt lat="52.9511917" lon="-7.4437767"><ele>91.0</ele><time>2026-05-05T09:14:42.214Z</time></trkpt><trkpt lat="52.95096" lon="-7.4438617"><ele>91.5</ele><time>2026-05-05T09:14:43.214Z</time></trkpt><trkpt lat="52.95073" lon="-7.4439183"><ele>92.0</ele><time>2026-05-05T09:14:44.214Z</time></trkpt><trkpt lat="52.9505117" lon="-7.4439683"><ele>92.0</ele><time>2026-05-05T09:14:45.215Z</time></trkpt><trkpt lat="52.950325" lon="-7.4440517"><ele>92.0</ele><time>2026-05-05T09:14:46.215Z</time></trkpt><trkpt lat="52.9501467" lon="-7.444135"><ele>92.0</ele><time>2026-05-05T09:14:47.215Z</time></trkpt><trkpt lat="52.949985" lon="-7.444205"><ele>91.8</ele><time>2026-05-05T09:14:48.215Z</time></trkpt><trkpt lat="52.9498333" lon="-7.444245"><ele>91.6</ele><time>2026-05-05T09:14:49.215Z</time></trkpt><trkpt lat="52.9497233" lon="-7.4443067"><ele>91.39999999999999</ele><time>2026-05-05T09:14:50.214Z</time></trkpt><trkpt lat="52.9496283" lon="-7.4443433"><ele>91.19999999999999</ele><time>2026-05-05T09:14:51.215Z</time></trkpt><trkpt lat="52.94955" lon="-7.4443733"><ele>91.0</ele><time>2026-05-05T09:14:52.215Z</time></trkpt><trkpt lat="52.949475" lon="-7.4443933"><ele>91.0</ele><time>2026-05-05T09:14:53.214Z</time></trkpt><trkpt lat="52.9494133" lon="-7.4444217"><ele>91.0</ele><time>2026-05-05T09:14:55.214Z</time></trkpt><trkpt lat="52.9494733" lon="-7.44451"><ele>91.0</ele><time>2026-05-05T09:16:11.215Z</time></trkpt><trkpt lat="52.9494017" lon="-7.4445483"><ele>91.0</ele><time>2026-05-05T09:16:13.215Z</time></trkpt><trkpt lat="52.9493283" lon="-7.4445717"><ele>91.0</ele><time>2026-05-05T09:16:14.215Z</time></trkpt><trkpt lat="52.9492067" lon="-7.444605"><ele>91.0</ele><time>2026-05-05T09:16:15.215Z</time></trkpt><trkpt lat="52.9490567" lon="-7.444655"><ele>90.0</ele><time>2026-05-05T09:16:16.215Z</time></trkpt><trkpt lat="52.948855" lon="-7.4447567"><ele>89.0</ele><time>2026-05-05T09:16:17.215Z</time></trkpt><trkpt lat="52.94863" lon="-7.4448683"><ele>88.0</ele><time>2026-05-05T09:16:18.214Z</time></trkpt><trkpt lat="52.9484133" lon="-7.4449967"><ele>87.0</ele><time>2026-05-05T09:16:19.215Z</time></trkpt><trkpt lat="52.9481833" lon="-7.4451167"><ele>86.0</ele><time>2026-05-05T09:16:20.215Z</time></trkpt><trkpt lat="52.9479367" lon="-7.445255"><ele>86.0</ele><time>2026-05-05T09:16:21.215Z</time></trkpt><trkpt lat="52.947665" lon="-7.44541"><ele>86.0</ele><time>2026-05-05T09:16:22.215Z</time></trkpt><trkpt lat="52.9473983" lon="-7.445565"><ele>86.5</ele><time>2026-05-05T09:16:23.215Z</time></trkpt><trkpt lat="52.9471283" lon="-7.4457367"><ele>87.0</ele><time>2026-05-05T09:16:24.215Z</time></trkpt><trkpt lat="52.9468667" lon="-7.44592"><ele>87.5</ele><time>2026-05-05T09:16:25.215Z</time></trkpt><trkpt lat="52.946605" lon="-7.44612"><ele>88.0</ele><time>2026-05-05T09:16:26.215Z</time></trkpt><trkpt lat="52.9463417" lon="-7.4463333"><ele>87.5</ele><time>2026-05-05T09:16:27.215Z</time></trkpt><trkpt lat="52.9460733" lon="-7.4465683"><ele>87.0</ele><time>2026-05-05T09:16:28.215Z</time></trkpt><trkpt lat="52.9458133" lon="-7.44681"><ele>87.0</ele><time>2026-05-05T09:16:29.214Z</time></trkpt><trkpt lat="52.945545" lon="-7.4470467"><ele>87.0</ele><time>2026-05-05T09:16:30.215Z</time></trkpt><trkpt lat="52.9452833" lon="-7.4472833"><ele>86.0</ele><time>2026-05-05T09:16:31.215Z</time></trkpt><trkpt lat="52.94502" lon="-7.4475267"><ele>85.0</ele><time>2026-05-05T09:16:32.214Z</time></trkpt><trkpt lat="52.9447683" lon="-7.4477783"><ele>85.5</ele><time>2026-05-05T09:16:33.215Z</time></trkpt><trkpt lat="52.9445117" lon="-7.44803"><ele>86.0</ele><time>2026-05-05T09:16:34.214Z</time></trkpt><trkpt lat="52.9442483" lon="-7.4482983"><ele>85.5</ele><time>2026-05-05T09:16:35.214Z</time></trkpt><trkpt lat="52.9439817" lon="-7.448575"><ele>85.0</ele><time>2026-05-05T09:16:36.214Z</time></trkpt><trkpt lat="52.943715" lon="-7.448855"><ele>86.0</ele><time>2026-05-05T09:16:37.215Z</time></trkpt><trkpt lat="52.9434517" lon="-7.4491517"><ele>87.0</ele><time>2026-05-05T09:16:38.215Z</time></trkpt><trkpt lat="52.9431933" lon="-7.4494417"><ele>87.5</ele><time>2026-05-05T09:16:39.215Z</time></trkpt><trkpt lat="52.942935" lon="-7.4497533"><ele>88.0</ele><time>2026-05-05T09:16:40.215Z</time></trkpt><trkpt lat="52.9426783" lon="-7.4500633"><ele>87.0</ele><time>2026-05-05T09:16:41.215Z</time></trkpt><trkpt lat="52.942425" lon="-7.4503767"><ele>86.0</ele><time>2026-05-05T09:16:42.214Z</time></trkpt><trkpt lat="52.9421883" lon="-7.4506983"><ele>86.0</ele><time>2026-05-05T09:16:43.214Z</time></trkpt><trkpt lat="52.9419583" lon="-7.45102"><ele>86.0</ele><time>2026-05-05T09:16:44.215Z</time></trkpt><trkpt lat="52.941735" lon="-7.4513533"><ele>85.0</ele><time>2026-05-05T09:16:45.215Z</time></trkpt><trkpt lat="52.9415067" lon="-7.4516867"><ele>84.0</ele><time>2026-05-05T09:16:46.215Z</time></trkpt><trkpt lat="52.9412767" lon="-7.4520117"><ele>84.0</ele><time>2026-05-05T09:16:47.215Z</time></trkpt><trkpt lat="52.9410517" lon="-7.4523617"><ele>84.0</ele><time>2026-05-05T09:16:48.214Z</time></trkpt><trkpt lat="52.940825" lon="-7.4527167"><ele>86.0</ele><time>2026-05-05T09:16:49.214Z</time></trkpt><trkpt lat="52.9406017" lon="-7.4530867"><ele>88.0</ele><time>2026-05-05T09:16:50.215Z</time></trkpt><trkpt lat="52.9403833" lon="-7.45346"><ele>92.5</ele><time>2026-05-05T09:16:51.215Z</time></trkpt><trkpt lat="52.9401667" lon="-7.4538383"><ele>97.0</ele><time>2026-05-05T09:16:52.215Z</time></trkpt><trkpt lat="52.939955" lon="-7.45422"><ele>97.0</ele><time>2026-05-05T09:16:53.215Z</time></trkpt><trkpt lat="52.9397483" lon="-7.454615"><ele>97.0</ele><time>2026-05-05T09:16:54.215Z</time></trkpt><trkpt lat="52.9395433" lon="-7.4549983"><ele>97.5</ele><time>2026-05-05T09:16:55.215Z</time></trkpt><trkpt lat="52.93934" lon="-7.455405"><ele>98.0</ele><time>2026-05-05T09:16:56.214Z</time></trkpt><trkpt lat="52.9391267" lon="-7.455805"><ele>98.0</ele><time>2026-05-05T09:16:57.215Z</time></trkpt><trkpt lat="52.9389167" lon="-7.4562083"><ele>98.0</ele><time>2026-05-05T09:16:58.214Z</time></trkpt><trkpt lat="52.9387067" lon="-7.45661"><ele>97.5</ele><time>2026-05-05T09:16:59.215Z</time></trkpt><trkpt lat="52.9384967" lon="-7.4570117"><ele>97.0</ele><time>2026-05-05T09:17:00.214Z</time></trkpt><trkpt lat="52.93827" lon="-7.4573983"><ele>97.0</ele><time>2026-05-05T09:17:01.215Z</time></trkpt><trkpt lat="52.9380533" lon="-7.4577983"><ele>97.0</ele><time>2026-05-05T09:17:02.215Z</time></trkpt><trkpt lat="52.937835" lon="-7.4581833"><ele>97.5</ele><time>2026-05-05T09:17:03.215Z</time></trkpt><trkpt lat="52.93762" lon="-7.4585583"><ele>98.0</ele><time>2026-05-05T09:17:04.214Z</time></trkpt><trkpt lat="52.9374433" lon="-7.45896"><ele>98.0</ele><time>2026-05-05T09:17:05.214Z</time></trkpt><trkpt lat="52.9372517" lon="-7.45934"><ele>98.0</ele><time>2026-05-05T09:17:06.214Z</time></trkpt><trkpt lat="52.9370567" lon="-7.4597267"><ele>99.0</ele><time>2026-05-05T09:17:07.215Z</time></trkpt><trkpt lat="52.9368483" lon="-7.460105"><ele>100.0</ele><time>2026-05-05T09:17:08.215Z</time></trkpt><trkpt lat="52.93663" lon="-7.4604917"><ele>95.0</ele><time>2026-05-05T09:17:09.215Z</time></trkpt><trkpt lat="52.9364133" lon="-7.460885"><ele>90.0</ele><time>2026-05-05T09:17:10.215Z</time></trkpt><trkpt lat="52.9361983" lon="-7.4612667"><ele>90.0</ele><time>2026-05-05T09:17:11.215Z</time></trkpt><trkpt lat="52.9359767" lon="-7.461655"><ele>90.0</ele><time>2026-05-05T09:17:12.214Z</time></trkpt><trkpt lat="52.9357633" lon="-7.4620217"><ele>89.5</ele><time>2026-05-05T09:17:13.215Z</time></trkpt><trkpt lat="52.93554" lon="-7.4623967"><ele>89.0</ele><time>2026-05-05T09:17:14.214Z</time></trkpt><trkpt lat="52.9353167" lon="-7.462765"><ele>89.0</ele><time>2026-05-05T09:17:15.215Z</time></trkpt><trkpt lat="52.9350817" lon="-7.4631233"><ele>89.0</ele><time>2026-05-05T09:17:16.214Z</time></trkpt><trkpt lat="52.9348417" lon="-7.4634717"><ele>88.5</ele><time>2026-05-05T09:17:17.214Z</time></trkpt><trkpt lat="52.9346033" lon="-7.4638233"><ele>88.0</ele><time>2026-05-05T09:17:18.215Z</time></trkpt><trkpt lat="52.93439" lon="-7.46417"><ele>89.0</ele><time>2026-05-05T09:17:19.214Z</time></trkpt><trkpt lat="52.934165" lon="-7.4645267"><ele>90.0</ele><time>2026-05-05T09:17:20.215Z</time></trkpt><trkpt lat="52.9339317" lon="-7.4648733"><ele>90.0</ele><time>2026-05-05T09:17:21.214Z</time></trkpt><trkpt lat="52.9337033" lon="-7.4652317"><ele>90.0</ele><time>2026-05-05T09:17:22.215Z</time></trkpt><trkpt lat="52.93348" lon="-7.46561"><ele>91.0</ele><time>2026-05-05T09:17:23.215Z</time></trkpt><trkpt lat="52.9332567" lon="-7.4659683"><ele>92.0</ele><time>2026-05-05T09:17:24.215Z</time></trkpt><trkpt lat="52.9330267" lon="-7.4663433"><ele>92.0</ele><time>2026-05-05T09:17:25.215Z</time></trkpt><trkpt lat="52.9327633" lon="-7.46671"><ele>92.0</ele><time>2026-05-05T09:17:26.214Z</time></trkpt><trkpt lat="52.932515" lon="-7.4670883"><ele>90.5</ele><time>2026-05-05T09:17:27.215Z</time></trkpt><trkpt lat="52.9322683" lon="-7.4674567"><ele>89.0</ele><time>2026-05-05T09:17:28.214Z</time></trkpt><trkpt lat="52.9320267" lon="-7.4678283"><ele>87.0</ele><time>2026-05-05T09:17:29.215Z</time></trkpt><trkpt lat="52.93178" lon="-7.4681917"><ele>85.0</ele><time>2026-05-05T09:17:30.215Z</time></trkpt><trkpt lat="52.931535" lon="-7.4685467"><ele>82.5</ele><time>2026-05-05T09:17:31.215Z</time></trkpt><trkpt lat="52.93129" lon="-7.468895"><ele>80.0</ele><time>2026-05-05T09:17:32.215Z</time></trkpt><trkpt lat="52.93102" lon="-7.4692483"><ele>82.0</ele><time>2026-05-05T09:17:33.215Z</time></trkpt><trkpt lat="52.930765" lon="-7.4696"><ele>84.0</ele><time>2026-05-05T09:17:34.214Z</time></trkpt><trkpt lat="52.9304867" lon="-7.469955"><ele>84.5</ele><time>2026-05-05T09:17:35.215Z</time></trkpt><trkpt lat="52.9302167" lon="-7.4703083"><ele>85.0</ele><time>2026-05-05T09:17:36.214Z</time></trkpt><trkpt lat="52.9299583" lon="-7.4706617"><ele>86.0</ele><time>2026-05-05T09:17:37.215Z</time></trkpt><trkpt lat="52.9296917" lon="-7.4709967"><ele>87.0</ele><time>2026-05-05T09:17:38.215Z</time></trkpt><trkpt lat="52.9294333" lon="-7.4713317"><ele>87.0</ele><time>2026-05-05T09:17:39.214Z</time></trkpt><trkpt lat="52.9291733" lon="-7.471655"><ele>87.0</ele><time>2026-05-05T09:17:40.215Z</time></trkpt><trkpt lat="52.928945" lon="-7.471985"><ele>87.0</ele><time>2026-05-05T09:17:41.215Z</time></trkpt><trkpt lat="52.9287117" lon="-7.4723117"><ele>87.0</ele><time>2026-05-05T09:17:42.214Z</time></trkpt><trkpt lat="52.9284683" lon="-7.4726117"><ele>87.0</ele><time>2026-05-05T09:17:43.214Z</time></trkpt><trkpt lat="52.9282117" lon="-7.4729267"><ele>87.0</ele><time>2026-05-05T09:17:44.215Z</time></trkpt><trkpt lat="52.9279733" lon="-7.4732283"><ele>87.0</ele><time>2026-05-05T09:17:45.215Z</time></trkpt><trkpt lat="52.9277383" lon="-7.473495"><ele>87.0</ele><time>2026-05-05T09:17:46.214Z</time></trkpt><trkpt lat="52.92756" lon="-7.473765"><ele>88.0</ele><time>2026-05-05T09:17:47.215Z</time></trkpt><trkpt lat="52.9273567" lon="-7.4740133"><ele>89.0</ele><time>2026-05-05T09:17:48.215Z</time></trkpt><trkpt lat="52.9271517" lon="-7.4742633"><ele>89.0</ele><time>2026-05-05T09:17:49.215Z</time></trkpt><trkpt lat="52.9269767" lon="-7.4744883"><ele>89.0</ele><time>2026-05-05T09:17:50.215Z</time></trkpt><trkpt lat="52.9268283" lon="-7.47469"><ele>89.0</ele><time>2026-05-05T09:17:51.215Z</time></trkpt><trkpt lat="52.9267" lon="-7.4748883"><ele>89.33333333333334</ele><time>2026-05-05T09:17:52.214Z</time></trkpt><trkpt lat="52.926555" lon="-7.475055"><ele>89.66666666666667</ele><time>2026-05-05T09:17:53.215Z</time></trkpt><trkpt lat="52.9264217" lon="-7.4752067"><ele>90.0</ele><time>2026-05-05T09:17:54.214Z</time></trkpt><trkpt lat="52.9262967" lon="-7.4753567"><ele>89.75</ele><time>2026-05-05T09:17:55.215Z</time></trkpt><trkpt lat="52.9261917" lon="-7.475495"><ele>89.5</ele><time>2026-05-05T09:17:56.215Z</time></trkpt><trkpt lat="52.92608" lon="-7.4756317"><ele>89.25</ele><time>2026-05-05T09:17:57.215Z</time></trkpt><trkpt lat="52.9259783" lon="-7.475765"><ele>89.0</ele><time>2026-05-05T09:17:58.215Z</time></trkpt><trkpt lat="52.9258783" lon="-7.4758883"><ele>89.4</ele><time>2026-05-05T09:17:59.215Z</time></trkpt><trkpt lat="52.925785" lon="-7.4760033"><ele>89.80000000000001</ele><time>2026-05-05T09:18:00.214Z</time></trkpt><trkpt lat="52.9256933" lon="-7.47609"><ele>90.19999999999999</ele><time>2026-05-05T09:18:01.214Z</time></trkpt><trkpt lat="52.9256083" lon="-7.4761767"><ele>90.6</ele><time>2026-05-05T09:18:02.215Z</time></trkpt><trkpt lat="52.9255417" lon="-7.4762567"><ele>91.0</ele><time>2026-05-05T09:18:03.215Z</time></trkpt><trkpt lat="52.925485" lon="-7.4763233"><ele>91.19999999999999</ele><time>2026-05-05T09:18:04.214Z</time></trkpt><trkpt lat="52.9254083" lon="-7.47642"><ele>91.39999999999999</ele><time>2026-05-05T09:18:06.215Z</time></trkpt><trkpt lat="52.9253433" lon="-7.476525"><ele>91.6</ele><time>2026-05-05T09:18:53.215Z</time></trkpt><trkpt lat="52.92527" lon="-7.4766267"><ele>91.8</ele><time>2026-05-05T09:18:54.214Z</time></trkpt><trkpt lat="52.925195" lon="-7.47674"><ele>92.0</ele><time>2026-05-05T09:18:55.215Z</time></trkpt><trkpt lat="52.925105" lon="-7.476875"><ele>92.66666666666667</ele><time>2026-05-05T09:18:56.215Z</time></trkpt><trkpt lat="52.9250017" lon="-7.4770267"><ele>93.33333333333333</ele><time>2026-05-05T09:18:57.215Z</time></trkpt><trkpt lat="52.92487" lon="-7.47721"><ele>94.0</ele><time>2026-05-05T09:18:58.214Z</time></trkpt><trkpt lat="52.924715" lon="-7.4774117"><ele>94.0</ele><time>2026-05-05T09:18:59.215Z</time></trkpt><trkpt lat="52.9245367" lon="-7.4776267"><ele>94.0</ele><time>2026-05-05T09:19:00.215Z</time></trkpt><trkpt lat="52.924355" lon="-7.4778533"><ele>94.0</ele><time>2026-05-05T09:19:01.215Z</time></trkpt><trkpt lat="52.9241633" lon="-7.4780667"><ele>93.5</ele><time>2026-05-05T09:19:02.214Z</time></trkpt><trkpt lat="52.9239217" lon="-7.4782783"><ele>93.0</ele><time>2026-05-05T09:19:03.215Z</time></trkpt><trkpt lat="52.9237367" lon="-7.4784883"><ele>93.0</ele><time>2026-05-05T09:19:04.215Z</time></trkpt><trkpt lat="52.9235667" lon="-7.4787183"><ele>93.0</ele><time>2026-05-05T09:19:05.214Z</time></trkpt><trkpt lat="52.9233867" lon="-7.4789617"><ele>94.0</ele><time>2026-05-05T09:19:06.215Z</time></trkpt><trkpt lat="52.92317" lon="-7.4792383"><ele>95.0</ele><time>2026-05-05T09:19:07.214Z</time></trkpt><trkpt lat="52.9229683" lon="-7.47951"><ele>94.5</ele><time>2026-05-05T09:19:08.215Z</time></trkpt><trkpt lat="52.9227667" lon="-7.47976"><ele>94.0</ele><time>2026-05-05T09:19:09.215Z</time></trkpt><trkpt lat="52.9225567" lon="-7.48003"><ele>95.0</ele><time>2026-05-05T09:19:10.214Z</time></trkpt><trkpt lat="52.9223733" lon="-7.4803233"><ele>96.0</ele><time>2026-05-05T09:19:11.214Z</time></trkpt><trkpt lat="52.9221667" lon="-7.4805867"><ele>96.0</ele><time>2026-05-05T09:19:12.215Z</time></trkpt><trkpt lat="52.921975" lon="-7.48082"><ele>96.0</ele><time>2026-05-05T09:19:13.214Z</time></trkpt><trkpt lat="52.9217767" lon="-7.4810467"><ele>95.5</ele><time>2026-05-05T09:19:14.215Z</time></trkpt><trkpt lat="52.921585" lon="-7.4812883"><ele>95.0</ele><time>2026-05-05T09:19:15.215Z</time></trkpt><trkpt lat="52.9213933" lon="-7.4815267"><ele>95.0</ele><time>2026-05-05T09:19:16.215Z</time></trkpt><trkpt lat="52.921205" lon="-7.48177"><ele>95.0</ele><time>2026-05-05T09:19:17.215Z</time></trkpt><trkpt lat="52.9210067" lon="-7.4820233"><ele>94.0</ele><time>2026-05-05T09:19:18.215Z</time></trkpt><trkpt lat="52.920795" lon="-7.4822767"><ele>93.0</ele><time>2026-05-05T09:19:19.215Z</time></trkpt><trkpt lat="52.920575" lon="-7.4825517"><ele>93.0</ele><time>2026-05-05T09:19:20.215Z</time></trkpt><trkpt lat="52.9203667" lon="-7.4828233"><ele>93.0</ele><time>2026-05-05T09:19:21.215Z</time></trkpt><trkpt lat="52.92015" lon="-7.4830833"><ele>93.0</ele><time>2026-05-05T09:19:22.215Z</time></trkpt><trkpt lat="52.9199317" lon="-7.483335"><ele>93.0</ele><time>2026-05-05T09:19:23.215Z</time></trkpt><trkpt lat="52.9197217" lon="-7.4836083"><ele>92.5</ele><time>2026-05-05T09:19:24.215Z</time></trkpt><trkpt lat="52.9195" lon="-7.4838783"><ele>92.0</ele><time>2026-05-05T09:19:25.215Z</time></trkpt><trkpt lat="52.9192833" lon="-7.4841483"><ele>92.5</ele><time>2026-05-05T09:19:26.215Z</time></trkpt><trkpt lat="52.9190567" lon="-7.484405"><ele>93.0</ele><time>2026-05-05T09:19:27.214Z</time></trkpt><trkpt lat="52.91883" lon="-7.4846533"><ele>93.0</ele><time>2026-05-05T09:19:28.214Z</time></trkpt><trkpt lat="52.91859" lon="-7.484885"><ele>93.0</ele><time>2026-05-05T09:19:29.215Z</time></trkpt><trkpt lat="52.918345" lon="-7.4851"><ele>93.0</ele><time>2026-05-05T09:19:30.214Z</time></trkpt><trkpt lat="52.9180933" lon="-7.4853067"><ele>93.0</ele><time>2026-05-05T09:19:31.215Z</time></trkpt><trkpt lat="52.9178483" lon="-7.4855"><ele>93.0</ele><time>2026-05-05T09:19:32.215Z</time></trkpt><trkpt lat="52.917595" lon="-7.4856933"><ele>93.0</ele><time>2026-05-05T09:19:33.215Z</time></trkpt><trkpt lat="52.91734" lon="-7.4858767"><ele>93.5</ele><time>2026-05-05T09:19:34.215Z</time></trkpt><trkpt lat="52.91708" lon="-7.4860433"><ele>94.0</ele><time>2026-05-05T09:19:35.215Z</time></trkpt><trkpt lat="52.9168217" lon="-7.4861883"><ele>95.5</ele><time>2026-05-05T09:19:36.215Z</time></trkpt><trkpt lat="52.9165517" lon="-7.4863133"><ele>97.0</ele><time>2026-05-05T09:19:37.215Z</time></trkpt><trkpt lat="52.9162783" lon="-7.4864383"><ele>97.0</ele><time>2026-05-05T09:19:38.214Z</time></trkpt><trkpt lat="52.9160067" lon="-7.4865417"><ele>97.0</ele><time>2026-05-05T09:19:39.214Z</time></trkpt><trkpt lat="52.9157367" lon="-7.4866433"><ele>96.5</ele><time>2026-05-05T09:19:40.215Z</time></trkpt><trkpt lat="52.9154583" lon="-7.48673"><ele>96.0</ele><time>2026-05-05T09:19:41.215Z</time></trkpt><trkpt lat="52.9151833" lon="-7.4867983"><ele>97.5</ele><time>2026-05-05T09:19:42.215Z</time></trkpt><trkpt lat="52.91489" lon="-7.486845"><ele>99.0</ele><time>2026-05-05T09:19:43.215Z</time></trkpt><trkpt lat="52.914605" lon="-7.486895"><ele>99.0</ele><time>2026-05-05T09:19:44.215Z</time></trkpt><trkpt lat="52.9143183" lon="-7.4869217"><ele>99.0</ele><time>2026-05-05T09:19:45.215Z</time></trkpt><trkpt lat="52.9140267" lon="-7.4869467"><ele>99.5</ele><time>2026-05-05T09:19:46.215Z</time></trkpt><trkpt lat="52.9137367" lon="-7.486985"><ele>100.0</ele><time>2026-05-05T09:19:47.214Z</time></trkpt><trkpt lat="52.9134583" lon="-7.4870267"><ele>100.5</ele><time>2026-05-05T09:19:48.215Z</time></trkpt><trkpt lat="52.9131783" lon="-7.4870583"><ele>101.0</ele><time>2026-05-05T09:19:49.214Z</time></trkpt><trkpt lat="52.9129067" lon="-7.4871033"><ele>101.5</ele><time>2026-05-05T09:19:50.215Z</time></trkpt><trkpt lat="52.9126467" lon="-7.48716"><ele>102.0</ele><time>2026-05-05T09:19:51.215Z</time></trkpt><trkpt lat="52.9123817" lon="-7.4872033"><ele>103.5</ele><time>2026-05-05T09:19:52.215Z</time></trkpt><trkpt lat="52.9121033" lon="-7.4872367"><ele>105.0</ele><time>2026-05-05T09:19:53.215Z</time></trkpt><trkpt lat="52.911815" lon="-7.4872733"><ele>107.0</ele><time>2026-05-05T09:19:54.214Z</time></trkpt><trkpt lat="52.911525" lon="-7.4873033"><ele>109.0</ele><time>2026-05-05T09:19:55.215Z</time></trkpt><trkpt lat="52.9112367" lon="-7.4873367"><ele>109.0</ele><time>2026-05-05T09:19:56.215Z</time></trkpt><trkpt lat="52.91096" lon="-7.4873467"><ele>109.0</ele><time>2026-05-05T09:19:57.214Z</time></trkpt><trkpt lat="52.9106817" lon="-7.487395"><ele>111.0</ele><time>2026-05-05T09:19:58.215Z</time></trkpt><trkpt lat="52.9103983" lon="-7.4874267"><ele>113.0</ele><time>2026-05-05T09:19:59.214Z</time></trkpt><trkpt lat="52.9101217" lon="-7.4874717"><ele>113.5</ele><time>2026-05-05T09:20:00.214Z</time></trkpt><trkpt lat="52.9098633" lon="-7.4875"><ele>114.0</ele><time>2026-05-05T09:20:01.214Z</time></trkpt><trkpt lat="52.9096" lon="-7.4875417"><ele>114.0</ele><time>2026-05-05T09:20:02.214Z</time></trkpt><trkpt lat="52.9093483" lon="-7.4875767"><ele>114.0</ele><time>2026-05-05T09:20:03.215Z</time></trkpt><trkpt lat="52.9090883" lon="-7.4876167"><ele>113.5</ele><time>2026-05-05T09:20:04.215Z</time></trkpt><trkpt lat="52.90883" lon="-7.4876617"><ele>113.0</ele><time>2026-05-05T09:20:05.214Z</time></trkpt><trkpt lat="52.9085683" lon="-7.4877117"><ele>114.0</ele><time>2026-05-05T09:20:06.214Z</time></trkpt><trkpt lat="52.9082983" lon="-7.4877533"><ele>115.0</ele><time>2026-05-05T09:20:07.214Z</time></trkpt><trkpt lat="52.9080183" lon="-7.4877883"><ele>115.0</ele><time>2026-05-05T09:20:08.215Z</time></trkpt><trkpt lat="52.90774" lon="-7.4878183"><ele>115.0</ele><time>2026-05-05T09:20:09.215Z</time></trkpt><trkpt lat="52.9074517" lon="-7.487845"><ele>115.0</ele><time>2026-05-05T09:20:10.214Z</time></trkpt><trkpt lat="52.9071583" lon="-7.4878683"><ele>115.0</ele><time>2026-05-05T09:20:11.215Z</time></trkpt><trkpt lat="52.9068567" lon="-7.4879033"><ele>115.5</ele><time>2026-05-05T09:20:12.215Z</time></trkpt><trkpt lat="52.9065617" lon="-7.48791"><ele>116.0</ele><time>2026-05-05T09:20:13.214Z</time></trkpt><trkpt lat="52.9062617" lon="-7.4879183"><ele>115.0</ele><time>2026-05-05T09:20:14.215Z</time></trkpt><trkpt lat="52.9059517" lon="-7.4879567"><ele>114.0</ele><time>2026-05-05T09:20:15.215Z</time></trkpt><trkpt lat="52.9056667" lon="-7.4879983"><ele>113.5</ele><time>2026-05-05T09:20:16.214Z</time></trkpt><trkpt lat="52.9053833" lon="-7.4880467"><ele>113.0</ele><time>2026-05-05T09:20:17.214Z</time></trkpt><trkpt lat="52.9051017" lon="-7.4881"><ele>113.5</ele><time>2026-05-05T09:20:18.214Z</time></trkpt><trkpt lat="52.9048183" lon="-7.4881517"><ele>114.0</ele><time>2026-05-05T09:20:19.215Z</time></trkpt><trkpt lat="52.9045317" lon="-7.488205"><ele>114.5</ele><time>2026-05-05T09:20:20.214Z</time></trkpt><trkpt lat="52.9042333" lon="-7.48826"><ele>115.0</ele><time>2026-05-05T09:20:21.215Z</time></trkpt><trkpt lat="52.9039183" lon="-7.4883233"><ele>115.0</ele><time>2026-05-05T09:20:22.214Z</time></trkpt><trkpt lat="52.903615" lon="-7.4883767"><ele>115.0</ele><time>2026-05-05T09:20:23.214Z</time></trkpt><trkpt lat="52.9033083" lon="-7.4884333"><ele>115.5</ele><time>2026-05-05T09:20:24.214Z</time></trkpt><trkpt lat="52.903005" lon="-7.488505"><ele>116.0</ele><time>2026-05-05T09:20:25.214Z</time></trkpt><trkpt lat="52.90269" lon="-7.4885767"><ele>116.0</ele><time>2026-05-05T09:20:26.215Z</time></trkpt><trkpt lat="52.90238" lon="-7.4886633"><ele>116.0</ele><time>2026-05-05T09:20:27.215Z</time></trkpt><trkpt lat="52.90207" lon="-7.4887317"><ele>116.0</ele><time>2026-05-05T09:20:28.214Z</time></trkpt><trkpt lat="52.901765" lon="-7.4888033"><ele>116.0</ele><time>2026-05-05T09:20:29.215Z</time></trkpt><trkpt lat="52.90147" lon="-7.488875"><ele>115.5</ele><time>2026-05-05T09:20:30.215Z</time></trkpt><trkpt lat="52.901175" lon="-7.4889783"><ele>115.0</ele><time>2026-05-05T09:20:31.214Z</time></trkpt><trkpt lat="52.9008717" lon="-7.4890817"><ele>115.0</ele><time>2026-05-05T09:20:32.215Z</time></trkpt><trkpt lat="52.9005717" lon="-7.4891617"><ele>115.0</ele><time>2026-05-05T09:20:33.214Z</time></trkpt><trkpt lat="52.9002717" lon="-7.489245"><ele>114.0</ele><time>2026-05-05T09:20:34.214Z</time></trkpt><trkpt lat="52.8999767" lon="-7.4893233"><ele>113.0</ele><time>2026-05-05T09:20:35.214Z</time></trkpt><trkpt lat="52.8996867" lon="-7.4894033"><ele>113.0</ele><time>2026-05-05T09:20:36.214Z</time></trkpt><trkpt lat="52.8993983" lon="-7.48948"><ele>113.0</ele><time>2026-05-05T09:20:37.215Z</time></trkpt><trkpt lat="52.8991083" lon="-7.4895583"><ele>112.5</ele><time>2026-05-05T09:20:38.215Z</time></trkpt><trkpt lat="52.898825" lon="-7.489615"><ele>112.0</ele><time>2026-05-05T09:20:39.215Z</time></trkpt><trkpt lat="52.89854" lon="-7.4896817"><ele>112.0</ele><time>2026-05-05T09:20:40.215Z</time></trkpt><trkpt lat="52.8982467" lon="-7.4897717"><ele>112.0</ele><time>2026-05-05T09:20:41.215Z</time></trkpt><trkpt lat="52.89795" lon="-7.489855"><ele>112.0</ele><time>2026-05-05T09:20:42.214Z</time></trkpt><trkpt lat="52.8976583" lon="-7.4899467"><ele>112.0</ele><time>2026-05-05T09:20:43.215Z</time></trkpt><trkpt lat="52.8973683" lon="-7.4900333"><ele>112.5</ele><time>2026-05-05T09:20:44.214Z</time></trkpt><trkpt lat="52.8970783" lon="-7.4901317"><ele>113.0</ele><time>2026-05-05T09:20:45.214Z</time></trkpt><trkpt lat="52.8967817" lon="-7.49023"><ele>113.0</ele><time>2026-05-05T09:20:46.215Z</time></trkpt><trkpt lat="52.8964933" lon="-7.4902933"><ele>113.0</ele><time>2026-05-05T09:20:47.215Z</time></trkpt><trkpt lat="52.8961983" lon="-7.49039"><ele>112.5</ele><time>2026-05-05T09:20:48.214Z</time></trkpt><trkpt lat="52.8958917" lon="-7.4904767"><ele>112.0</ele><time>2026-05-05T09:20:49.215Z</time></trkpt><trkpt lat="52.8955867" lon="-7.490565"><ele>112.0</ele><time>2026-05-05T09:20:50.216Z</time></trkpt><trkpt lat="52.89528" lon="-7.4906567"><ele>112.0</ele><time>2026-05-05T09:20:51.216Z</time></trkpt><trkpt lat="52.894975" lon="-7.4907467"><ele>112.0</ele><time>2026-05-05T09:20:52.216Z</time></trkpt><trkpt lat="52.8946767" lon="-7.490825"><ele>112.0</ele><time>2026-05-05T09:20:53.215Z</time></trkpt><trkpt lat="52.894385" lon="-7.4909083"><ele>113.0</ele><time>2026-05-05T09:20:54.215Z</time></trkpt><trkpt lat="52.8940967" lon="-7.4909883"><ele>114.0</ele><time>2026-05-05T09:20:55.216Z</time></trkpt><trkpt lat="52.8938217" lon="-7.4910783"><ele>114.0</ele><time>2026-05-05T09:20:56.215Z</time></trkpt><trkpt lat="52.8935333" lon="-7.49115"><ele>114.0</ele><time>2026-05-05T09:20:57.216Z</time></trkpt><trkpt lat="52.8932483" lon="-7.491245"><ele>114.0</ele><time>2026-05-05T09:20:58.216Z</time></trkpt><trkpt lat="52.8929383" lon="-7.4912917"><ele>114.0</ele><time>2026-05-05T09:20:59.215Z</time></trkpt><trkpt lat="52.8926517" lon="-7.4913517"><ele>113.0</ele><time>2026-05-05T09:21:00.216Z</time></trkpt><trkpt lat="52.8923683" lon="-7.4914283"><ele>112.0</ele><time>2026-05-05T09:21:01.216Z</time></trkpt><trkpt lat="52.8920983" lon="-7.491505"><ele>112.0</ele><time>2026-05-05T09:21:02.215Z</time></trkpt><trkpt lat="52.89181" lon="-7.4915917"><ele>112.0</ele><time>2026-05-05T09:21:03.215Z</time></trkpt><trkpt lat="52.8915267" lon="-7.491665"><ele>110.0</ele><time>2026-05-05T09:21:04.215Z</time></trkpt><trkpt lat="52.8912367" lon="-7.4917317"><ele>108.0</ele><time>2026-05-05T09:21:05.215Z</time></trkpt><trkpt lat="52.8909533" lon="-7.4918"><ele>106.5</ele><time>2026-05-05T09:21:06.216Z</time></trkpt><trkpt lat="52.89067" lon="-7.4918717"><ele>105.0</ele><time>2026-05-05T09:21:07.215Z</time></trkpt><trkpt lat="52.8903917" lon="-7.4919517"><ele>105.0</ele><time>2026-05-05T09:21:08.216Z</time></trkpt><trkpt lat="52.8901233" lon="-7.492045"><ele>105.0</ele><time>2026-05-05T09:21:09.216Z</time></trkpt><trkpt lat="52.8898467" lon="-7.4921233"><ele>103.5</ele><time>2026-05-05T09:21:10.215Z</time></trkpt><trkpt lat="52.8895567" lon="-7.4922167"><ele>102.0</ele><time>2026-05-05T09:21:11.216Z</time></trkpt><trkpt lat="52.889255" lon="-7.4923033"><ele>101.5</ele><time>2026-05-05T09:21:12.216Z</time></trkpt><trkpt lat="52.8889533" lon="-7.4924"><ele>101.0</ele><time>2026-05-05T09:21:13.216Z</time></trkpt><trkpt lat="52.8886483" lon="-7.4925017"><ele>100.0</ele><time>2026-05-05T09:21:14.216Z</time></trkpt><trkpt lat="52.8883417" lon="-7.49259"><ele>99.0</ele><time>2026-05-05T09:21:15.215Z</time></trkpt><trkpt lat="52.8880267" lon="-7.4926717"><ele>99.0</ele><time>2026-05-05T09:21:16.216Z</time></trkpt><trkpt lat="52.8877117" lon="-7.4927433"><ele>99.0</ele><time>2026-05-05T09:21:17.215Z</time></trkpt><trkpt lat="52.8874117" lon="-7.4928133"><ele>98.5</ele><time>2026-05-05T09:21:18.215Z</time></trkpt><trkpt lat="52.8871233" lon="-7.4928783"><ele>98.0</ele><time>2026-05-05T09:21:19.216Z</time></trkpt><trkpt lat="52.8868483" lon="-7.4929367"><ele>98.5</ele><time>2026-05-05T09:21:20.216Z</time></trkpt><trkpt lat="52.8865683" lon="-7.4930033"><ele>99.0</ele><time>2026-05-05T09:21:21.215Z</time></trkpt><trkpt lat="52.88629" lon="-7.49306"><ele>99.0</ele><time>2026-05-05T09:21:22.216Z</time></trkpt><trkpt lat="52.88601" lon="-7.4931183"><ele>99.0</ele><time>2026-05-05T09:21:23.216Z</time></trkpt><trkpt lat="52.8857083" lon="-7.4931567"><ele>99.5</ele><time>2026-05-05T09:21:24.216Z</time></trkpt><trkpt lat="52.8854167" lon="-7.49321"><ele>100.0</ele><time>2026-05-05T09:21:25.216Z</time></trkpt><trkpt lat="52.8851217" lon="-7.4932367"><ele>99.5</ele><time>2026-05-05T09:21:26.215Z</time></trkpt><trkpt lat="52.8848333" lon="-7.4932533"><ele>99.0</ele><time>2026-05-05T09:21:27.216Z</time></trkpt><trkpt lat="52.8845333" lon="-7.4932367"><ele>98.5</ele><time>2026-05-05T09:21:28.215Z</time></trkpt><trkpt lat="52.8842517" lon="-7.4932317"><ele>98.0</ele><time>2026-05-05T09:21:29.215Z</time></trkpt><trkpt lat="52.88397" lon="-7.4932167"><ele>98.0</ele><time>2026-05-05T09:21:30.216Z</time></trkpt><trkpt lat="52.88366" lon="-7.4931583"><ele>98.0</ele><time>2026-05-05T09:21:31.216Z</time></trkpt><trkpt lat="52.8833417" lon="-7.4930817"><ele>98.5</ele><time>2026-05-05T09:21:32.216Z</time></trkpt><trkpt lat="52.8830333" lon="-7.493015"><ele>99.0</ele><time>2026-05-05T09:21:33.216Z</time></trkpt><trkpt lat="52.8827217" lon="-7.4929567"><ele>99.0</ele><time>2026-05-05T09:21:34.216Z</time></trkpt><trkpt lat="52.882415" lon="-7.4928667"><ele>99.0</ele><time>2026-05-05T09:21:35.216Z</time></trkpt><trkpt lat="52.8821083" lon="-7.4927817"><ele>99.0</ele><time>2026-05-05T09:21:36.216Z</time></trkpt><trkpt lat="52.8818083" lon="-7.4926683"><ele>99.0</ele><time>2026-05-05T09:21:37.216Z</time></trkpt><trkpt lat="52.8815133" lon="-7.4925417"><ele>100.0</ele><time>2026-05-05T09:21:38.216Z</time></trkpt><trkpt lat="52.8811933" lon="-7.49238"><ele>101.0</ele><time>2026-05-05T09:21:39.215Z</time></trkpt><trkpt lat="52.8808917" lon="-7.4922183"><ele>100.0</ele><time>2026-05-05T09:21:40.215Z</time></trkpt><trkpt lat="52.8805933" lon="-7.4920633"><ele>99.0</ele><time>2026-05-05T09:21:41.216Z</time></trkpt><trkpt lat="52.8802917" lon="-7.4919183"><ele>99.0</ele><time>2026-05-05T09:21:42.216Z</time></trkpt><trkpt lat="52.8799967" lon="-7.4917517"><ele>99.0</ele><time>2026-05-05T09:21:43.215Z</time></trkpt><trkpt lat="52.8797167" lon="-7.4915767"><ele>99.0</ele><time>2026-05-05T09:21:44.216Z</time></trkpt><trkpt lat="52.8794367" lon="-7.4913617"><ele>99.0</ele><time>2026-05-05T09:21:45.216Z</time></trkpt><trkpt lat="52.8791683" lon="-7.4912"><ele>97.5</ele><time>2026-05-05T09:21:46.215Z</time></trkpt><trkpt lat="52.8788833" lon="-7.4910067"><ele>96.0</ele><time>2026-05-05T09:21:47.215Z</time></trkpt><trkpt lat="52.8786" lon="-7.49083"><ele>95.5</ele><time>2026-05-05T09:21:48.215Z</time></trkpt><trkpt lat="52.878325" lon="-7.490685"><ele>95.0</ele><time>2026-05-05T09:21:49.216Z</time></trkpt><trkpt lat="52.8780683" lon="-7.4905417"><ele>95.5</ele><time>2026-05-05T09:21:50.216Z</time></trkpt><trkpt lat="52.8777917" lon="-7.4903983"><ele>96.0</ele><time>2026-05-05T09:21:51.216Z</time></trkpt><trkpt lat="52.8774833" lon="-7.4902333"><ele>94.5</ele><time>2026-05-05T09:21:52.216Z</time></trkpt><trkpt lat="52.8772" lon="-7.490065"><ele>93.0</ele><time>2026-05-05T09:21:53.215Z</time></trkpt><trkpt lat="52.8769217" lon="-7.489915"><ele>93.0</ele><time>2026-05-05T09:21:54.216Z</time></trkpt><trkpt lat="52.876645" lon="-7.48975"><ele>93.0</ele><time>2026-05-05T09:21:55.216Z</time></trkpt><trkpt lat="52.876365" lon="-7.4895917"><ele>93.5</ele><time>2026-05-05T09:21:56.215Z</time></trkpt><trkpt lat="52.876095" lon="-7.4894367"><ele>94.0</ele><time>2026-05-05T09:21:57.216Z</time></trkpt><trkpt lat="52.875825" lon="-7.4892867"><ele>95.0</ele><time>2026-05-05T09:21:58.215Z</time></trkpt><trkpt lat="52.8755583" lon="-7.4891417"><ele>96.0</ele><time>2026-05-05T09:21:59.216Z</time></trkpt><trkpt lat="52.8752967" lon="-7.4889833"><ele>96.0</ele><time>2026-05-05T09:22:00.216Z</time></trkpt><trkpt lat="52.8750317" lon="-7.4888383"><ele>96.0</ele><time>2026-05-05T09:22:01.215Z</time></trkpt><trkpt lat="52.8747633" lon="-7.4887"><ele>96.0</ele><time>2026-05-05T09:22:02.216Z</time></trkpt><trkpt lat="52.8744967" lon="-7.48855"><ele>96.0</ele><time>2026-05-05T09:22:03.216Z</time></trkpt><trkpt lat="52.8742267" lon="-7.4883983"><ele>96.0</ele><time>2026-05-05T09:22:04.216Z</time></trkpt><trkpt lat="52.8739633" lon="-7.4882367"><ele>96.0</ele><time>2026-05-05T09:22:05.216Z</time></trkpt><trkpt lat="52.8736967" lon="-7.4880833"><ele>97.0</ele><time>2026-05-05T09:22:06.216Z</time></trkpt><trkpt lat="52.873425" lon="-7.48792"><ele>98.0</ele><time>2026-05-05T09:22:07.216Z</time></trkpt><trkpt lat="52.8731517" lon="-7.4877417"><ele>98.0</ele><time>2026-05-05T09:22:08.216Z</time></trkpt><trkpt lat="52.872875" lon="-7.4875833"><ele>98.0</ele><time>2026-05-05T09:22:09.215Z</time></trkpt><trkpt lat="52.8725967" lon="-7.487425"><ele>100.5</ele><time>2026-05-05T09:22:10.215Z</time></trkpt><trkpt lat="52.8723667" lon="-7.48726"><ele>103.0</ele><time>2026-05-05T09:22:11.215Z</time></trkpt><trkpt lat="52.8720867" lon="-7.4871"><ele>102.5</ele><time>2026-05-05T09:22:12.216Z</time></trkpt><trkpt lat="52.8718133" lon="-7.4869433"><ele>102.0</ele><time>2026-05-05T09:22:13.216Z</time></trkpt><trkpt lat="52.8715367" lon="-7.48677"><ele>102.0</ele><time>2026-05-05T09:22:14.216Z</time></trkpt><trkpt lat="52.8712783" lon="-7.48659"><ele>102.0</ele><time>2026-05-05T09:22:15.216Z</time></trkpt><trkpt lat="52.8710117" lon="-7.4864367"><ele>101.5</ele><time>2026-05-05T09:22:16.215Z</time></trkpt><trkpt lat="52.8707517" lon="-7.4862733"><ele>101.0</ele><time>2026-05-05T09:22:17.215Z</time></trkpt><trkpt lat="52.87044" lon="-7.4861267"><ele>101.0</ele><time>2026-05-05T09:22:18.215Z</time></trkpt><trkpt lat="52.8701667" lon="-7.4859817"><ele>101.0</ele><time>2026-05-05T09:22:19.216Z</time></trkpt><trkpt lat="52.8698933" lon="-7.4858317"><ele>100.0</ele><time>2026-05-05T09:22:20.216Z</time></trkpt><trkpt lat="52.86961" lon="-7.4856833"><ele>99.0</ele><time>2026-05-05T09:22:21.216Z</time></trkpt><trkpt lat="52.8693183" lon="-7.4855417"><ele>97.0</ele><time>2026-05-05T09:22:22.215Z</time></trkpt><trkpt lat="52.8690233" lon="-7.48541"><ele>95.0</ele><time>2026-05-05T09:22:23.216Z</time></trkpt><trkpt lat="52.8687183" lon="-7.4852833"><ele>95.0</ele><time>2026-05-05T09:22:24.216Z</time></trkpt><trkpt lat="52.868415" lon="-7.4851767"><ele>95.0</ele><time>2026-05-05T09:22:25.215Z</time></trkpt><trkpt lat="52.868095" lon="-7.4850833"><ele>95.0</ele><time>2026-05-05T09:22:26.216Z</time></trkpt><trkpt lat="52.8678117" lon="-7.48499"><ele>95.0</ele><time>2026-05-05T09:22:27.216Z</time></trkpt><trkpt lat="52.86751" lon="-7.4848983"><ele>94.5</ele><time>2026-05-05T09:22:28.216Z</time></trkpt><trkpt lat="52.86721" lon="-7.4848033"><ele>94.0</ele><time>2026-05-05T09:22:29.216Z</time></trkpt><trkpt lat="52.8669083" lon="-7.4847283"><ele>92.5</ele><time>2026-05-05T09:22:30.215Z</time></trkpt><trkpt lat="52.866615" lon="-7.4846567"><ele>91.0</ele><time>2026-05-05T09:22:31.216Z</time></trkpt><trkpt lat="52.866335" lon="-7.4846183"><ele>91.5</ele><time>2026-05-05T09:22:32.216Z</time></trkpt><trkpt lat="52.8660433" lon="-7.4845767"><ele>92.0</ele><time>2026-05-05T09:22:33.215Z</time></trkpt><trkpt lat="52.86574" lon="-7.4845333"><ele>92.0</ele><time>2026-05-05T09:22:34.216Z</time></trkpt><trkpt lat="52.8654383" lon="-7.4844867"><ele>92.0</ele><time>2026-05-05T09:22:35.216Z</time></trkpt><trkpt lat="52.8651317" lon="-7.48446"><ele>91.5</ele><time>2026-05-05T09:22:36.215Z</time></trkpt><trkpt lat="52.86483" lon="-7.4844283"><ele>91.0</ele><time>2026-05-05T09:22:37.216Z</time></trkpt><trkpt lat="52.86453" lon="-7.484405"><ele>91.5</ele><time>2026-05-05T09:22:38.216Z</time></trkpt><trkpt lat="52.8642317" lon="-7.4843917"><ele>92.0</ele><time>2026-05-05T09:22:39.215Z</time></trkpt><trkpt lat="52.86393" lon="-7.4843883"><ele>92.0</ele><time>2026-05-05T09:22:40.216Z</time></trkpt><trkpt lat="52.8636317" lon="-7.4843933"><ele>92.0</ele><time>2026-05-05T09:22:41.215Z</time></trkpt><trkpt lat="52.863335" lon="-7.4843967"><ele>92.0</ele><time>2026-05-05T09:22:42.216Z</time></trkpt><trkpt lat="52.86303" lon="-7.484425"><ele>92.0</ele><time>2026-05-05T09:22:43.215Z</time></trkpt><trkpt lat="52.8627283" lon="-7.4844483"><ele>91.0</ele><time>2026-05-05T09:22:44.216Z</time></trkpt><trkpt lat="52.862415" lon="-7.4844833"><ele>90.0</ele><time>2026-05-05T09:22:45.216Z</time></trkpt><trkpt lat="52.86211" lon="-7.484525"><ele>90.0</ele><time>2026-05-05T09:22:46.215Z</time></trkpt><trkpt lat="52.8618033" lon="-7.484565"><ele>90.0</ele><time>2026-05-05T09:22:47.216Z</time></trkpt><trkpt lat="52.8615083" lon="-7.4846183"><ele>90.5</ele><time>2026-05-05T09:22:48.216Z</time></trkpt><trkpt lat="52.8612167" lon="-7.48468"><ele>91.0</ele><time>2026-05-05T09:22:49.216Z</time></trkpt><trkpt lat="52.8609233" lon="-7.4847517"><ele>89.5</ele><time>2026-05-05T09:22:50.216Z</time></trkpt><trkpt lat="52.8606367" lon="-7.484835"><ele>88.0</ele><time>2026-05-05T09:22:51.216Z</time></trkpt><trkpt lat="52.8603517" lon="-7.4849217"><ele>86.5</ele><time>2026-05-05T09:22:52.215Z</time></trkpt><trkpt lat="52.86005" lon="-7.48503"><ele>85.0</ele><time>2026-05-05T09:22:53.215Z</time></trkpt><trkpt lat="52.859765" lon="-7.4851317"><ele>85.0</ele><time>2026-05-05T09:22:54.215Z</time></trkpt><trkpt lat="52.8594883" lon="-7.48523"><ele>85.0</ele><time>2026-05-05T09:22:55.215Z</time></trkpt><trkpt lat="52.85922" lon="-7.4853483"><ele>85.0</ele><time>2026-05-05T09:22:56.216Z</time></trkpt><trkpt lat="52.8589467" lon="-7.485485"><ele>85.0</ele><time>2026-05-05T09:22:57.216Z</time></trkpt><trkpt lat="52.8586833" lon="-7.48561"><ele>84.5</ele><time>2026-05-05T09:22:58.216Z</time></trkpt><trkpt lat="52.858415" lon="-7.4857533"><ele>84.0</ele><time>2026-05-05T09:22:59.216Z</time></trkpt><trkpt lat="52.85816" lon="-7.4859117"><ele>84.0</ele><time>2026-05-05T09:23:00.216Z</time></trkpt><trkpt lat="52.857895" lon="-7.48605"><ele>84.0</ele><time>2026-05-05T09:23:01.215Z</time></trkpt><trkpt lat="52.8576267" lon="-7.486205"><ele>84.0</ele><time>2026-05-05T09:23:02.216Z</time></trkpt><trkpt lat="52.8573567" lon="-7.48636"><ele>84.0</ele><time>2026-05-05T09:23:03.216Z</time></trkpt><trkpt lat="52.85708" lon="-7.4864983"><ele>84.0</ele><time>2026-05-05T09:23:04.215Z</time></trkpt><trkpt lat="52.8568317" lon="-7.486645"><ele>84.0</ele><time>2026-05-05T09:23:05.216Z</time></trkpt><trkpt lat="52.8565783" lon="-7.4868083"><ele>85.0</ele><time>2026-05-05T09:23:06.216Z</time></trkpt><trkpt lat="52.8563233" lon="-7.4869733"><ele>86.0</ele><time>2026-05-05T09:23:07.216Z</time></trkpt><trkpt lat="52.856055" lon="-7.4871517"><ele>89.0</ele><time>2026-05-05T09:23:08.215Z</time></trkpt><trkpt lat="52.855795" lon="-7.4873567"><ele>92.0</ele><time>2026-05-05T09:23:09.216Z</time></trkpt><trkpt lat="52.8555383" lon="-7.4875683"><ele>92.0</ele><time>2026-05-05T09:23:10.216Z</time></trkpt><trkpt lat="52.8552817" lon="-7.4878"><ele>92.0</ele><time>2026-05-05T09:23:11.216Z</time></trkpt><trkpt lat="52.8550217" lon="-7.4880133"><ele>92.0</ele><time>2026-05-05T09:23:12.216Z</time></trkpt><trkpt lat="52.854765" lon="-7.48824"><ele>92.0</ele><time>2026-05-05T09:23:13.216Z</time></trkpt><trkpt lat="52.8545067" lon="-7.4884833"><ele>91.5</ele><time>2026-05-05T09:23:14.216Z</time></trkpt><trkpt lat="52.8542467" lon="-7.4887217"><ele>91.0</ele><time>2026-05-05T09:23:15.216Z</time></trkpt><trkpt lat="52.8539917" lon="-7.4889517"><ele>91.0</ele><time>2026-05-05T09:23:16.216Z</time></trkpt><trkpt lat="52.8537367" lon="-7.4891817"><ele>91.0</ele><time>2026-05-05T09:23:17.216Z</time></trkpt><trkpt lat="52.8534883" lon="-7.4894217"><ele>91.0</ele><time>2026-05-05T09:23:18.216Z</time></trkpt><trkpt lat="52.8532367" lon="-7.489655"><ele>91.0</ele><time>2026-05-05T09:23:19.215Z</time></trkpt><trkpt lat="52.8529817" lon="-7.4898917"><ele>91.0</ele><time>2026-05-05T09:23:20.216Z</time></trkpt><trkpt lat="52.8527167" lon="-7.49011"><ele>91.0</ele><time>2026-05-05T09:23:21.216Z</time></trkpt><trkpt lat="52.852475" lon="-7.4903383"><ele>91.5</ele><time>2026-05-05T09:23:22.215Z</time></trkpt><trkpt lat="52.8522183" lon="-7.4905683"><ele>92.0</ele><time>2026-05-05T09:23:23.216Z</time></trkpt><trkpt lat="52.8519733" lon="-7.490785"><ele>88.5</ele><time>2026-05-05T09:23:24.216Z</time></trkpt><trkpt lat="52.8517233" lon="-7.490995"><ele>85.0</ele><time>2026-05-05T09:23:25.215Z</time></trkpt><trkpt lat="52.8514833" lon="-7.4912367"><ele>84.5</ele><time>2026-05-05T09:23:26.215Z</time></trkpt><trkpt lat="52.85124" lon="-7.491475"><ele>84.0</ele><time>2026-05-05T09:23:27.216Z</time></trkpt><trkpt lat="52.8509917" lon="-7.4917017"><ele>83.5</ele><time>2026-05-05T09:23:28.216Z</time></trkpt><trkpt lat="52.8507267" lon="-7.4919217"><ele>83.0</ele><time>2026-05-05T09:23:29.215Z</time></trkpt><trkpt lat="52.850475" lon="-7.49214"><ele>82.0</ele><time>2026-05-05T09:23:30.216Z</time></trkpt><trkpt lat="52.85022" lon="-7.4923683"><ele>81.0</ele><time>2026-05-05T09:23:31.216Z</time></trkpt><trkpt lat="52.8499683" lon="-7.4925967"><ele>81.0</ele><time>2026-05-05T09:23:32.215Z</time></trkpt><trkpt lat="52.8497217" lon="-7.4928"><ele>81.0</ele><time>2026-05-05T09:23:33.216Z</time></trkpt><trkpt lat="52.8494933" lon="-7.4930183"><ele>80.5</ele><time>2026-05-05T09:23:34.215Z</time></trkpt><trkpt lat="52.8492433" lon="-7.4932467"><ele>80.0</ele><time>2026-05-05T09:23:35.216Z</time></trkpt><trkpt lat="52.8489833" lon="-7.493475"><ele>80.0</ele><time>2026-05-05T09:23:36.215Z</time></trkpt><trkpt lat="52.848725" lon="-7.4936983"><ele>80.0</ele><time>2026-05-05T09:23:37.216Z</time></trkpt><trkpt lat="52.8484633" lon="-7.4939283"><ele>80.0</ele><time>2026-05-05T09:23:38.216Z</time></trkpt><trkpt lat="52.8482117" lon="-7.494155"><ele>80.0</ele><time>2026-05-05T09:23:39.216Z</time></trkpt><trkpt lat="52.8479467" lon="-7.4943867"><ele>80.5</ele><time>2026-05-05T09:23:40.216Z</time></trkpt><trkpt lat="52.847685" lon="-7.494615"><ele>81.0</ele><time>2026-05-05T09:23:41.216Z</time></trkpt><trkpt lat="52.8474133" lon="-7.4948583"><ele>82.0</ele><time>2026-05-05T09:23:42.215Z</time></trkpt><trkpt lat="52.8471333" lon="-7.4951033"><ele>83.0</ele><time>2026-05-05T09:23:43.216Z</time></trkpt><trkpt lat="52.84685" lon="-7.4953517"><ele>84.5</ele><time>2026-05-05T09:23:44.216Z</time></trkpt><trkpt lat="52.84656" lon="-7.4956067"><ele>86.0</ele><time>2026-05-05T09:23:45.215Z</time></trkpt><trkpt lat="52.8462733" lon="-7.4958683"><ele>86.0</ele><time>2026-05-05T09:23:46.216Z</time></trkpt><trkpt lat="52.8459983" lon="-7.4961317"><ele>86.0</ele><time>2026-05-05T09:23:47.216Z</time></trkpt><trkpt lat="52.84571" lon="-7.4963767"><ele>86.0</ele><time>2026-05-05T09:23:48.216Z</time></trkpt><trkpt lat="52.8454317" lon="-7.4966333"><ele>86.0</ele><time>2026-05-05T09:23:49.216Z</time></trkpt><trkpt lat="52.8451483" lon="-7.4969083"><ele>85.5</ele><time>2026-05-05T09:23:50.215Z</time></trkpt><trkpt lat="52.8448583" lon="-7.4971833"><ele>85.0</ele><time>2026-05-05T09:23:51.215Z</time></trkpt><trkpt lat="52.844565" lon="-7.4974567"><ele>86.5</ele><time>2026-05-05T09:23:52.216Z</time></trkpt><trkpt lat="52.84427" lon="-7.4977367"><ele>88.0</ele><time>2026-05-05T09:23:53.216Z</time></trkpt><trkpt lat="52.84398" lon="-7.49801"><ele>88.0</ele><time>2026-05-05T09:23:54.216Z</time></trkpt><trkpt lat="52.8436983" lon="-7.49828"><ele>88.0</ele><time>2026-05-05T09:23:55.216Z</time></trkpt><trkpt lat="52.8434333" lon="-7.498535"><ele>84.5</ele><time>2026-05-05T09:23:56.216Z</time></trkpt><trkpt lat="52.8431733" lon="-7.49878"><ele>81.0</ele><time>2026-05-05T09:23:57.216Z</time></trkpt><trkpt lat="52.842905" lon="-7.4990217"><ele>81.0</ele><time>2026-05-05T09:23:58.216Z</time></trkpt><trkpt lat="52.8426333" lon="-7.499235"><ele>81.0</ele><time>2026-05-05T09:23:59.215Z</time></trkpt><trkpt lat="52.8423733" lon="-7.4994583"><ele>81.5</ele><time>2026-05-05T09:24:00.215Z</time></trkpt><trkpt lat="52.8421283" lon="-7.4996867"><ele>82.0</ele><time>2026-05-05T09:24:01.215Z</time></trkpt><trkpt lat="52.8418983" lon="-7.4998983"><ele>84.5</ele><time>2026-05-05T09:24:02.216Z</time></trkpt><trkpt lat="52.8416433" lon="-7.5001017"><ele>87.0</ele><time>2026-05-05T09:24:03.216Z</time></trkpt><trkpt lat="52.8413883" lon="-7.5002817"><ele>87.0</ele><time>2026-05-05T09:24:04.216Z</time></trkpt><trkpt lat="52.8411233" lon="-7.5004567"><ele>87.0</ele><time>2026-05-05T09:24:05.216Z</time></trkpt><trkpt lat="52.8408467" lon="-7.5006217"><ele>87.0</ele><time>2026-05-05T09:24:06.215Z</time></trkpt><trkpt lat="52.8405533" lon="-7.50075"><ele>87.0</ele><time>2026-05-05T09:24:07.215Z</time></trkpt><trkpt lat="52.8402517" lon="-7.50088"><ele>85.5</ele><time>2026-05-05T09:24:08.216Z</time></trkpt><trkpt lat="52.83995" lon="-7.5009917"><ele>84.0</ele><time>2026-05-05T09:24:09.215Z</time></trkpt><trkpt lat="52.8396417" lon="-7.5010833"><ele>84.0</ele><time>2026-05-05T09:24:10.216Z</time></trkpt><trkpt lat="52.8393283" lon="-7.5011683"><ele>84.0</ele><time>2026-05-05T09:24:11.216Z</time></trkpt><trkpt lat="52.83902" lon="-7.5012483"><ele>85.5</ele><time>2026-05-05T09:24:12.215Z</time></trkpt><trkpt lat="52.8387267" lon="-7.5013067"><ele>87.0</ele><time>2026-05-05T09:24:13.216Z</time></trkpt><trkpt lat="52.8384217" lon="-7.5013467"><ele>87.0</ele><time>2026-05-05T09:24:14.216Z</time></trkpt><trkpt lat="52.8381317" lon="-7.50139"><ele>87.0</ele><time>2026-05-05T09:24:15.215Z</time></trkpt><trkpt lat="52.8378383" lon="-7.501425"><ele>87.0</ele><time>2026-05-05T09:24:16.215Z</time></trkpt><trkpt lat="52.83753" lon="-7.5014333"><ele>87.0</ele><time>2026-05-05T09:24:17.216Z</time></trkpt><trkpt lat="52.83724" lon="-7.50143"><ele>87.0</ele><time>2026-05-05T09:24:18.216Z</time></trkpt><trkpt lat="52.83695" lon="-7.5013867"><ele>87.0</ele><time>2026-05-05T09:24:19.216Z</time></trkpt><trkpt lat="52.836665" lon="-7.501355"><ele>87.0</ele><time>2026-05-05T09:24:20.216Z</time></trkpt><trkpt lat="52.8363867" lon="-7.501335"><ele>87.0</ele><time>2026-05-05T09:24:21.216Z</time></trkpt><trkpt lat="52.8360933" lon="-7.5012833"><ele>86.0</ele><time>2026-05-05T09:24:22.216Z</time></trkpt><trkpt lat="52.835815" lon="-7.501245"><ele>85.0</ele><time>2026-05-05T09:24:23.216Z</time></trkpt><trkpt lat="52.8355317" lon="-7.5012033"><ele>85.0</ele><time>2026-05-05T09:24:24.216Z</time></trkpt><trkpt lat="52.83524" lon="-7.501165"><ele>85.0</ele><time>2026-05-05T09:24:25.215Z</time></trkpt><trkpt lat="52.8349483" lon="-7.5011233"><ele>86.0</ele><time>2026-05-05T09:24:26.216Z</time></trkpt><trkpt lat="52.8346683" lon="-7.501105"><ele>87.0</ele><time>2026-05-05T09:24:27.215Z</time></trkpt><trkpt lat="52.8343817" lon="-7.5010717"><ele>86.5</ele><time>2026-05-05T09:24:28.216Z</time></trkpt><trkpt lat="52.8340917" lon="-7.5010333"><ele>86.0</ele><time>2026-05-05T09:24:29.216Z</time></trkpt><trkpt lat="52.8338033" lon="-7.500995"><ele>86.0</ele><time>2026-05-05T09:24:30.216Z</time></trkpt><trkpt lat="52.833515" lon="-7.5009567"><ele>86.0</ele><time>2026-05-05T09:24:31.215Z</time></trkpt><trkpt lat="52.8332283" lon="-7.50091"><ele>86.0</ele><time>2026-05-05T09:24:32.215Z</time></trkpt><trkpt lat="52.8329383" lon="-7.5009067"><ele>86.0</ele><time>2026-05-05T09:24:33.215Z</time></trkpt><trkpt lat="52.8326533" lon="-7.500875"><ele>86.5</ele><time>2026-05-05T09:24:34.216Z</time></trkpt><trkpt lat="52.8323683" lon="-7.5008467"><ele>87.0</ele><time>2026-05-05T09:24:35.216Z</time></trkpt><trkpt lat="52.83207" lon="-7.500805"><ele>87.5</ele><time>2026-05-05T09:24:36.215Z</time></trkpt><trkpt lat="52.8317817" lon="-7.5007533"><ele>88.0</ele><time>2026-05-05T09:24:37.216Z</time></trkpt><trkpt lat="52.831495" lon="-7.5006967"><ele>88.0</ele><time>2026-05-05T09:24:38.216Z</time></trkpt><trkpt lat="52.8312167" lon="-7.5006383"><ele>88.0</ele><time>2026-05-05T09:24:39.215Z</time></trkpt><trkpt lat="52.8309367" lon="-7.5005817"><ele>87.0</ele><time>2026-05-05T09:24:40.216Z</time></trkpt><trkpt lat="52.8306617" lon="-7.500505"><ele>86.0</ele><time>2026-05-05T09:24:41.216Z</time></trkpt><trkpt lat="52.830385" lon="-7.5004267"><ele>88.0</ele><time>2026-05-05T09:24:42.216Z</time></trkpt><trkpt lat="52.8301083" lon="-7.500315"><ele>90.0</ele><time>2026-05-05T09:24:43.215Z</time></trkpt><trkpt lat="52.8298317" lon="-7.5001933"><ele>90.0</ele><time>2026-05-05T09:24:44.216Z</time></trkpt><trkpt lat="52.8295633" lon="-7.5000583"><ele>90.0</ele><time>2026-05-05T09:24:45.216Z</time></trkpt><trkpt lat="52.829285" lon="-7.4999317"><ele>92.0</ele><time>2026-05-05T09:24:46.215Z</time></trkpt><trkpt lat="52.829005" lon="-7.49978"><ele>94.0</ele><time>2026-05-05T09:24:47.216Z</time></trkpt><trkpt lat="52.8287283" lon="-7.499635"><ele>98.5</ele><time>2026-05-05T09:24:48.215Z</time></trkpt><trkpt lat="52.828465" lon="-7.49946"><ele>103.0</ele><time>2026-05-05T09:24:49.216Z</time></trkpt><trkpt lat="52.828215" lon="-7.4992817"><ele>103.0</ele><time>2026-05-05T09:24:50.216Z</time></trkpt><trkpt lat="52.827945" lon="-7.4991517"><ele>103.0</ele><time>2026-05-05T09:24:51.215Z</time></trkpt><trkpt lat="52.8276783" lon="-7.4989683"><ele>104.0</ele><time>2026-05-05T09:24:52.216Z</time></trkpt><trkpt lat="52.827405" lon="-7.498805"><ele>105.0</ele><time>2026-05-05T09:24:53.216Z</time></trkpt><trkpt lat="52.8271067" lon="-7.4986517"><ele>105.0</ele><time>2026-05-05T09:24:54.216Z</time></trkpt><trkpt lat="52.826815" lon="-7.4985083"><ele>105.0</ele><time>2026-05-05T09:24:55.216Z</time></trkpt><trkpt lat="52.826555" lon="-7.4983617"><ele>105.5</ele><time>2026-05-05T09:24:56.216Z</time></trkpt><trkpt lat="52.826285" lon="-7.4981933"><ele>106.0</ele><time>2026-05-05T09:24:57.216Z</time></trkpt><trkpt lat="52.8260167" lon="-7.4980167"><ele>106.0</ele><time>2026-05-05T09:24:58.215Z</time></trkpt><trkpt lat="52.825755" lon="-7.4978467"><ele>106.0</ele><time>2026-05-05T09:24:59.216Z</time></trkpt><trkpt lat="52.8254683" lon="-7.4976717"><ele>106.0</ele><time>2026-05-05T09:25:00.215Z</time></trkpt><trkpt lat="52.8251833" lon="-7.497485"><ele>106.0</ele><time>2026-05-05T09:25:01.216Z</time></trkpt><trkpt lat="52.8249133" lon="-7.4973067"><ele>105.0</ele><time>2026-05-05T09:25:02.216Z</time></trkpt><trkpt lat="52.8246417" lon="-7.4971433"><ele>104.0</ele><time>2026-05-05T09:25:03.215Z</time></trkpt><trkpt lat="52.8243667" lon="-7.4969933"><ele>104.0</ele><time>2026-05-05T09:25:04.215Z</time></trkpt><trkpt lat="52.8240967" lon="-7.4968367"><ele>104.0</ele><time>2026-05-05T09:25:05.216Z</time></trkpt><trkpt lat="52.8238233" lon="-7.49669"><ele>104.0</ele><time>2026-05-05T09:25:06.215Z</time></trkpt><trkpt lat="52.8235567" lon="-7.496535"><ele>104.0</ele><time>2026-05-05T09:25:07.216Z</time></trkpt><trkpt lat="52.8232833" lon="-7.4963567"><ele>104.5</ele><time>2026-05-05T09:25:08.215Z</time></trkpt><trkpt lat="52.8230217" lon="-7.4961917"><ele>105.0</ele><time>2026-05-05T09:25:09.216Z</time></trkpt><trkpt lat="52.8227517" lon="-7.4960317"><ele>103.0</ele><time>2026-05-05T09:25:10.216Z</time></trkpt><trkpt lat="52.822485" lon="-7.4958617"><ele>101.0</ele><time>2026-05-05T09:25:11.215Z</time></trkpt><trkpt lat="52.8222217" lon="-7.4956933"><ele>101.0</ele><time>2026-05-05T09:25:12.216Z</time></trkpt><trkpt lat="52.8219517" lon="-7.495525"><ele>101.0</ele><time>2026-05-05T09:25:13.216Z</time></trkpt><trkpt lat="52.8216817" lon="-7.495355"><ele>100.5</ele><time>2026-05-05T09:25:14.216Z</time></trkpt><trkpt lat="52.8214167" lon="-7.495185"><ele>100.0</ele><time>2026-05-05T09:25:15.216Z</time></trkpt><trkpt lat="52.8211483" lon="-7.4950267"><ele>97.5</ele><time>2026-05-05T09:25:16.216Z</time></trkpt><trkpt lat="52.82089" lon="-7.4948567"><ele>95.0</ele><time>2026-05-05T09:25:17.216Z</time></trkpt><trkpt lat="52.8206233" lon="-7.4947017"><ele>96.0</ele><time>2026-05-05T09:25:18.216Z</time></trkpt><trkpt lat="52.8203433" lon="-7.49455"><ele>97.0</ele><time>2026-05-05T09:25:19.216Z</time></trkpt><trkpt lat="52.8200683" lon="-7.4944033"><ele>94.5</ele><time>2026-05-05T09:25:20.216Z</time></trkpt><trkpt lat="52.8198083" lon="-7.4942683"><ele>92.0</ele><time>2026-05-05T09:25:21.216Z</time></trkpt><trkpt lat="52.81954" lon="-7.494135"><ele>90.5</ele><time>2026-05-05T09:25:22.216Z</time></trkpt><trkpt lat="52.8192567" lon="-7.4939917"><ele>89.0</ele><time>2026-05-05T09:25:23.216Z</time></trkpt><trkpt lat="52.81898" lon="-7.4938767"><ele>89.0</ele><time>2026-05-05T09:25:24.216Z</time></trkpt><trkpt lat="52.8186917" lon="-7.4937517"><ele>89.0</ele><time>2026-05-05T09:25:25.216Z</time></trkpt><trkpt lat="52.8184083" lon="-7.4936433"><ele>90.0</ele><time>2026-05-05T09:25:26.216Z</time></trkpt><trkpt lat="52.818135" lon="-7.4935467"><ele>91.0</ele><time>2026-05-05T09:25:27.216Z</time></trkpt><trkpt lat="52.81787" lon="-7.4934717"><ele>92.0</ele><time>2026-05-05T09:25:28.216Z</time></trkpt><trkpt lat="52.8175817" lon="-7.49341"><ele>93.0</ele><time>2026-05-05T09:25:29.216Z</time></trkpt><trkpt lat="52.8172767" lon="-7.4933367"><ele>93.0</ele><time>2026-05-05T09:25:30.216Z</time></trkpt><trkpt lat="52.8169883" lon="-7.493275"><ele>93.0</ele><time>2026-05-05T09:25:31.215Z</time></trkpt><trkpt lat="52.8167017" lon="-7.4932217"><ele>93.5</ele><time>2026-05-05T09:25:32.216Z</time></trkpt><trkpt lat="52.8164183" lon="-7.4931833"><ele>94.0</ele><time>2026-05-05T09:25:33.216Z</time></trkpt><trkpt lat="52.81614" lon="-7.4931567"><ele>95.0</ele><time>2026-05-05T09:25:34.215Z</time></trkpt><trkpt lat="52.815855" lon="-7.4931417"><ele>96.0</ele><time>2026-05-05T09:25:35.216Z</time></trkpt><trkpt lat="52.8155717" lon="-7.493135"><ele>96.0</ele><time>2026-05-05T09:25:36.215Z</time></trkpt><trkpt lat="52.8152883" lon="-7.4931317"><ele>96.0</ele><time>2026-05-05T09:25:37.216Z</time></trkpt><trkpt lat="52.8150067" lon="-7.4931517"><ele>96.5</ele><time>2026-05-05T09:25:38.215Z</time></trkpt><trkpt lat="52.8147233" lon="-7.49316"><ele>97.0</ele><time>2026-05-05T09:25:39.216Z</time></trkpt><trkpt lat="52.8144433" lon="-7.4931717"><ele>98.0</ele><time>2026-05-05T09:25:40.216Z</time></trkpt><trkpt lat="52.8141533" lon="-7.4932017"><ele>99.0</ele><time>2026-05-05T09:25:41.216Z</time></trkpt><trkpt lat="52.8138583" lon="-7.49326"><ele>99.0</ele><time>2026-05-05T09:25:42.216Z</time></trkpt><trkpt lat="52.81357" lon="-7.493295"><ele>99.0</ele><time>2026-05-05T09:25:43.216Z</time></trkpt><trkpt lat="52.8132917" lon="-7.493345"><ele>100.0</ele><time>2026-05-05T09:25:44.216Z</time></trkpt><trkpt lat="52.813025" lon="-7.49342"><ele>101.0</ele><time>2026-05-05T09:25:45.216Z</time></trkpt><trkpt lat="52.81275" lon="-7.4935067"><ele>102.0</ele><time>2026-05-05T09:25:46.216Z</time></trkpt><trkpt lat="52.8124683" lon="-7.4935733"><ele>103.0</ele><time>2026-05-05T09:25:47.216Z</time></trkpt><trkpt lat="52.812195" lon="-7.4936583"><ele>103.5</ele><time>2026-05-05T09:25:48.216Z</time></trkpt><trkpt lat="52.8119183" lon="-7.4937667"><ele>104.0</ele><time>2026-05-05T09:25:49.215Z</time></trkpt><trkpt lat="52.8116333" lon="-7.4938867"><ele>104.0</ele><time>2026-05-05T09:25:50.216Z</time></trkpt><trkpt lat="52.811355" lon="-7.4940133"><ele>104.0</ele><time>2026-05-05T09:25:51.216Z</time></trkpt><trkpt lat="52.8110717" lon="-7.49415"><ele>105.0</ele><time>2026-05-05T09:25:52.216Z</time></trkpt><trkpt lat="52.810795" lon="-7.494295"><ele>106.0</ele><time>2026-05-05T09:25:53.216Z</time></trkpt><trkpt lat="52.81052" lon="-7.494445"><ele>106.5</ele><time>2026-05-05T09:25:54.216Z</time></trkpt><trkpt lat="52.8102517" lon="-7.494595"><ele>107.0</ele><time>2026-05-05T09:25:55.215Z</time></trkpt><trkpt lat="52.809975" lon="-7.4947633"><ele>108.5</ele><time>2026-05-05T09:25:56.215Z</time></trkpt><trkpt lat="52.8097067" lon="-7.4949483"><ele>110.0</ele><time>2026-05-05T09:25:57.216Z</time></trkpt><trkpt lat="52.8094367" lon="-7.49514"><ele>109.0</ele><time>2026-05-05T09:25:58.215Z</time></trkpt><trkpt lat="52.8091717" lon="-7.4953317"><ele>108.0</ele><time>2026-05-05T09:25:59.216Z</time></trkpt><trkpt lat="52.8089067" lon="-7.4955217"><ele>108.0</ele><time>2026-05-05T09:26:00.216Z</time></trkpt><trkpt lat="52.8086567" lon="-7.495735"><ele>108.0</ele><time>2026-05-05T09:26:01.216Z</time></trkpt><trkpt lat="52.8084" lon="-7.4959617"><ele>107.5</ele><time>2026-05-05T09:26:02.216Z</time></trkpt><trkpt lat="52.8081533" lon="-7.4961883"><ele>107.0</ele><time>2026-05-05T09:26:03.216Z</time></trkpt><trkpt lat="52.8079117" lon="-7.4964233"><ele>107.0</ele><time>2026-05-05T09:26:04.216Z</time></trkpt><trkpt lat="52.8076733" lon="-7.4966617"><ele>107.0</ele><time>2026-05-05T09:26:05.216Z</time></trkpt><trkpt lat="52.8074283" lon="-7.4969083"><ele>108.5</ele><time>2026-05-05T09:26:06.215Z</time></trkpt><trkpt lat="52.8071883" lon="-7.497185"><ele>110.0</ele><time>2026-05-05T09:26:07.216Z</time></trkpt><trkpt lat="52.8069417" lon="-7.49742"><ele>110.0</ele><time>2026-05-05T09:26:08.216Z</time></trkpt><trkpt lat="52.8066967" lon="-7.4976667"><ele>110.0</ele><time>2026-05-05T09:26:09.216Z</time></trkpt><trkpt lat="52.8064717" lon="-7.4979583"><ele>110.0</ele><time>2026-05-05T09:26:10.216Z</time></trkpt><trkpt lat="52.8062417" lon="-7.4982333"><ele>110.0</ele><time>2026-05-05T09:26:11.216Z</time></trkpt><trkpt lat="52.8060117" lon="-7.49851"><ele>112.0</ele><time>2026-05-05T09:26:12.215Z</time></trkpt><trkpt lat="52.805785" lon="-7.49881"><ele>114.0</ele><time>2026-05-05T09:26:13.216Z</time></trkpt><trkpt lat="52.80556" lon="-7.4991133"><ele>114.0</ele><time>2026-05-05T09:26:14.216Z</time></trkpt><trkpt lat="52.80536" lon="-7.4994267"><ele>114.0</ele><time>2026-05-05T09:26:15.215Z</time></trkpt><trkpt lat="52.8051433" lon="-7.4997467"><ele>114.5</ele><time>2026-05-05T09:26:16.216Z</time></trkpt><trkpt lat="52.804925" lon="-7.5000717"><ele>115.0</ele><time>2026-05-05T09:26:17.216Z</time></trkpt><trkpt lat="52.8047167" lon="-7.5003917"><ele>115.0</ele><time>2026-05-05T09:26:18.216Z</time></trkpt><trkpt lat="52.8045133" lon="-7.500715"><ele>115.0</ele><time>2026-05-05T09:26:19.216Z</time></trkpt><trkpt lat="52.804325" lon="-7.5010517"><ele>114.0</ele><time>2026-05-05T09:26:20.216Z</time></trkpt><trkpt lat="52.8041383" lon="-7.5013883"><ele>113.0</ele><time>2026-05-05T09:26:21.215Z</time></trkpt><trkpt lat="52.8039533" lon="-7.5017383"><ele>113.0</ele><time>2026-05-05T09:26:22.216Z</time></trkpt><trkpt lat="52.80377" lon="-7.5021"><ele>113.0</ele><time>2026-05-05T09:26:23.215Z</time></trkpt><trkpt lat="52.803585" lon="-7.502465"><ele>113.5</ele><time>2026-05-05T09:26:24.216Z</time></trkpt><trkpt lat="52.8034033" lon="-7.5028283"><ele>114.0</ele><time>2026-05-05T09:26:25.215Z</time></trkpt><trkpt lat="52.80323" lon="-7.5031933"><ele>115.0</ele><time>2026-05-05T09:26:26.216Z</time></trkpt><trkpt lat="52.803045" lon="-7.5035717"><ele>116.0</ele><time>2026-05-05T09:26:27.216Z</time></trkpt><trkpt lat="52.8028417" lon="-7.5039517"><ele>116.5</ele><time>2026-05-05T09:26:28.216Z</time></trkpt><trkpt lat="52.8026483" lon="-7.5043183"><ele>117.0</ele><time>2026-05-05T09:26:29.216Z</time></trkpt><trkpt lat="52.8024633" lon="-7.5047083"><ele>117.0</ele><time>2026-05-05T09:26:30.215Z</time></trkpt><trkpt lat="52.8022733" lon="-7.5050867"><ele>117.0</ele><time>2026-05-05T09:26:31.216Z</time></trkpt><trkpt lat="52.8020883" lon="-7.5054517"><ele>117.5</ele><time>2026-05-05T09:26:32.216Z</time></trkpt><trkpt lat="52.8019067" lon="-7.505805"><ele>118.0</ele><time>2026-05-05T09:26:33.215Z</time></trkpt><trkpt lat="52.8017133" lon="-7.506155"><ele>118.0</ele><time>2026-05-05T09:26:34.216Z</time></trkpt><trkpt lat="52.80152" lon="-7.506485"><ele>118.0</ele><time>2026-05-05T09:26:35.215Z</time></trkpt><trkpt lat="52.801315" lon="-7.5068067"><ele>119.0</ele><time>2026-05-05T09:26:36.216Z</time></trkpt><trkpt lat="52.8011017" lon="-7.5071283"><ele>120.0</ele><time>2026-05-05T09:26:37.216Z</time></trkpt><trkpt lat="52.8008817" lon="-7.5074417"><ele>120.0</ele><time>2026-05-05T09:26:38.216Z</time></trkpt><trkpt lat="52.800665" lon="-7.5077433"><ele>120.0</ele><time>2026-05-05T09:26:39.216Z</time></trkpt><trkpt lat="52.8004383" lon="-7.50804"><ele>120.0</ele><time>2026-05-05T09:26:40.215Z</time></trkpt><trkpt lat="52.8002117" lon="-7.5083183"><ele>120.0</ele><time>2026-05-05T09:26:41.215Z</time></trkpt><trkpt lat="52.79997" lon="-7.5085983"><ele>119.0</ele><time>2026-05-05T09:26:42.216Z</time></trkpt><trkpt lat="52.7997267" lon="-7.50886"><ele>118.0</ele><time>2026-05-05T09:26:43.216Z</time></trkpt><trkpt lat="52.7994833" lon="-7.5091183"><ele>118.0</ele><time>2026-05-05T09:26:44.216Z</time></trkpt><trkpt lat="52.7992667" lon="-7.509375"><ele>118.0</ele><time>2026-05-05T09:26:45.215Z</time></trkpt><trkpt lat="52.799025" lon="-7.5096467"><ele>118.0</ele><time>2026-05-05T09:26:46.216Z</time></trkpt><trkpt lat="52.79878" lon="-7.5098967"><ele>118.0</ele><time>2026-05-05T09:26:47.215Z</time></trkpt><trkpt lat="52.7985217" lon="-7.510135"><ele>118.5</ele><time>2026-05-05T09:26:48.216Z</time></trkpt><trkpt lat="52.7982733" lon="-7.5103933"><ele>119.0</ele><time>2026-05-05T09:26:49.215Z</time></trkpt><trkpt lat="52.7980383" lon="-7.510655"><ele>118.5</ele><time>2026-05-05T09:26:50.216Z</time></trkpt><trkpt lat="52.797805" lon="-7.5109017"><ele>118.0</ele><time>2026-05-05T09:26:51.216Z</time></trkpt><trkpt lat="52.7976033" lon="-7.5111567"><ele>118.0</ele><time>2026-05-05T09:26:52.216Z</time></trkpt><trkpt lat="52.7973483" lon="-7.5114233"><ele>118.0</ele><time>2026-05-05T09:26:53.216Z</time></trkpt><trkpt lat="52.7970967" lon="-7.5116983"><ele>118.0</ele><time>2026-05-05T09:26:54.216Z</time></trkpt><trkpt lat="52.7968717" lon="-7.5119717"><ele>118.0</ele><time>2026-05-05T09:26:55.216Z</time></trkpt><trkpt lat="52.7963917" lon="-7.5125267"><ele>118.0</ele><time>2026-05-05T09:26:57.216Z</time></trkpt><trkpt lat="52.79615" lon="-7.512815"><ele>118.0</ele><time>2026-05-05T09:26:58.216Z</time></trkpt><trkpt lat="52.7959183" lon="-7.5131083"><ele>118.0</ele><time>2026-05-05T09:26:59.215Z</time></trkpt><trkpt lat="52.7956867" lon="-7.5133967"><ele>118.0</ele><time>2026-05-05T09:27:00.216Z</time></trkpt><trkpt lat="52.795455" lon="-7.5136867"><ele>118.0</ele><time>2026-05-05T09:27:01.216Z</time></trkpt><trkpt lat="52.7952233" lon="-7.51398"><ele>118.0</ele><time>2026-05-05T09:27:02.215Z</time></trkpt><trkpt lat="52.7949983" lon="-7.5142817"><ele>119.0</ele><time>2026-05-05T09:27:03.216Z</time></trkpt><trkpt lat="52.7947733" lon="-7.51459"><ele>120.0</ele><time>2026-05-05T09:27:04.216Z</time></trkpt><trkpt lat="52.794545" lon="-7.5148983"><ele>120.0</ele><time>2026-05-05T09:27:05.216Z</time></trkpt><trkpt lat="52.7943383" lon="-7.5152017"><ele>120.0</ele><time>2026-05-05T09:27:06.215Z</time></trkpt><trkpt lat="52.794125" lon="-7.5155167"><ele>119.5</ele><time>2026-05-05T09:27:07.215Z</time></trkpt><trkpt lat="52.79391" lon="-7.5158433"><ele>119.0</ele><time>2026-05-05T09:27:08.216Z</time></trkpt><trkpt lat="52.793705" lon="-7.5161783"><ele>121.0</ele><time>2026-05-05T09:27:09.216Z</time></trkpt><trkpt lat="52.7934867" lon="-7.5165133"><ele>123.0</ele><time>2026-05-05T09:27:10.215Z</time></trkpt><trkpt lat="52.7932667" lon="-7.51685"><ele>124.0</ele><time>2026-05-05T09:27:11.216Z</time></trkpt><trkpt lat="52.7930433" lon="-7.5171767"><ele>125.0</ele><time>2026-05-05T09:27:12.215Z</time></trkpt><trkpt lat="52.79282" lon="-7.5175"><ele>124.0</ele><time>2026-05-05T09:27:13.215Z</time></trkpt><trkpt lat="52.7925933" lon="-7.5178383"><ele>123.0</ele><time>2026-05-05T09:27:14.215Z</time></trkpt><trkpt lat="52.792375" lon="-7.5181783"><ele>122.0</ele><time>2026-05-05T09:27:15.215Z</time></trkpt><trkpt lat="52.7921583" lon="-7.51852"><ele>121.0</ele><time>2026-05-05T09:27:16.216Z</time></trkpt><trkpt lat="52.79193" lon="-7.51887"><ele>119.0</ele><time>2026-05-05T09:27:17.216Z</time></trkpt><trkpt lat="52.7917083" lon="-7.5192"><ele>117.0</ele><time>2026-05-05T09:27:18.215Z</time></trkpt><trkpt lat="52.7914817" lon="-7.519525"><ele>117.5</ele><time>2026-05-05T09:27:19.216Z</time></trkpt><trkpt lat="52.79125" lon="-7.519845"><ele>118.0</ele><time>2026-05-05T09:27:20.216Z</time></trkpt><trkpt lat="52.7910167" lon="-7.520165"><ele>116.5</ele><time>2026-05-05T09:27:21.216Z</time></trkpt><trkpt lat="52.7907833" lon="-7.5204833"><ele>115.0</ele><time>2026-05-05T09:27:22.216Z</time></trkpt><trkpt lat="52.790565" lon="-7.5207967"><ele>115.0</ele><time>2026-05-05T09:27:23.215Z</time></trkpt><trkpt lat="52.7903683" lon="-7.5211033"><ele>115.0</ele><time>2026-05-05T09:27:24.215Z</time></trkpt><trkpt lat="52.7901433" lon="-7.5214017"><ele>114.5</ele><time>2026-05-05T09:27:25.215Z</time></trkpt><trkpt lat="52.78994" lon="-7.5216983"><ele>114.0</ele><time>2026-05-05T09:27:26.216Z</time></trkpt><trkpt lat="52.7897117" lon="-7.5219917"><ele>114.0</ele><time>2026-05-05T09:27:27.215Z</time></trkpt><trkpt lat="52.7894917" lon="-7.5222833"><ele>114.0</ele><time>2026-05-05T09:27:28.216Z</time></trkpt><trkpt lat="52.7892667" lon="-7.5225783"><ele>114.0</ele><time>2026-05-05T09:27:29.216Z</time></trkpt><trkpt lat="52.7890383" lon="-7.5228717"><ele>114.0</ele><time>2026-05-05T09:27:30.216Z</time></trkpt><trkpt lat="52.7888183" lon="-7.5231767"><ele>114.0</ele><time>2026-05-05T09:27:31.216Z</time></trkpt><trkpt lat="52.7886" lon="-7.5234733"><ele>114.0</ele><time>2026-05-05T09:27:32.216Z</time></trkpt><trkpt lat="52.7883783" lon="-7.5237833"><ele>115.5</ele><time>2026-05-05T09:27:33.215Z</time></trkpt><trkpt lat="52.788155" lon="-7.5240783"><ele>117.0</ele><time>2026-05-05T09:27:34.216Z</time></trkpt><trkpt lat="52.7879533" lon="-7.5243567"><ele>117.0</ele><time>2026-05-05T09:27:35.215Z</time></trkpt><trkpt lat="52.7877383" lon="-7.5246517"><ele>117.0</ele><time>2026-05-05T09:27:36.215Z</time></trkpt><trkpt lat="52.7875133" lon="-7.5249317"><ele>118.0</ele><time>2026-05-05T09:27:37.215Z</time></trkpt><trkpt lat="52.7872833" lon="-7.5252233"><ele>119.0</ele><time>2026-05-05T09:27:38.216Z</time></trkpt><trkpt lat="52.7870567" lon="-7.5255183"><ele>119.0</ele><time>2026-05-05T09:27:39.216Z</time></trkpt><trkpt lat="52.786835" lon="-7.5258083"><ele>119.0</ele><time>2026-05-05T09:27:40.216Z</time></trkpt><trkpt lat="52.786615" lon="-7.526105"><ele>118.5</ele><time>2026-05-05T09:27:41.216Z</time></trkpt><trkpt lat="52.7863917" lon="-7.5263933"><ele>118.0</ele><time>2026-05-05T09:27:42.216Z</time></trkpt><trkpt lat="52.7861667" lon="-7.5266833"><ele>118.0</ele><time>2026-05-05T09:27:43.215Z</time></trkpt><trkpt lat="52.78594" lon="-7.5269717"><ele>118.0</ele><time>2026-05-05T09:27:44.216Z</time></trkpt><trkpt lat="52.7857167" lon="-7.5272667"><ele>118.0</ele><time>2026-05-05T09:27:45.216Z</time></trkpt><trkpt lat="52.7854867" lon="-7.527555"><ele>118.0</ele><time>2026-05-05T09:27:46.215Z</time></trkpt><trkpt lat="52.785255" lon="-7.527845"><ele>118.5</ele><time>2026-05-05T09:27:47.216Z</time></trkpt><trkpt lat="52.7850317" lon="-7.5281317"><ele>119.0</ele><time>2026-05-05T09:27:48.215Z</time></trkpt><trkpt lat="52.7848117" lon="-7.5284233"><ele>119.0</ele><time>2026-05-05T09:27:49.215Z</time></trkpt><trkpt lat="52.7845783" lon="-7.5287067"><ele>119.0</ele><time>2026-05-05T09:27:50.216Z</time></trkpt><trkpt lat="52.7843483" lon="-7.5289983"><ele>118.5</ele><time>2026-05-05T09:27:51.216Z</time></trkpt><trkpt lat="52.7841117" lon="-7.52929"><ele>118.0</ele><time>2026-05-05T09:27:52.216Z</time></trkpt><trkpt lat="52.7838767" lon="-7.52959"><ele>118.0</ele><time>2026-05-05T09:27:53.216Z</time></trkpt><trkpt lat="52.7836433" lon="-7.5298783"><ele>118.0</ele><time>2026-05-05T09:27:54.216Z</time></trkpt><trkpt lat="52.783415" lon="-7.5301567"><ele>117.5</ele><time>2026-05-05T09:27:55.216Z</time></trkpt><trkpt lat="52.78318" lon="-7.5304417"><ele>117.0</ele><time>2026-05-05T09:27:56.216Z</time></trkpt><trkpt lat="52.782945" lon="-7.53073"><ele>117.0</ele><time>2026-05-05T09:27:57.216Z</time></trkpt><trkpt lat="52.7827133" lon="-7.5310233"><ele>117.0</ele><time>2026-05-05T09:27:58.216Z</time></trkpt><trkpt lat="52.7824717" lon="-7.531335"><ele>116.0</ele><time>2026-05-05T09:27:59.215Z</time></trkpt><trkpt lat="52.78223" lon="-7.5316133"><ele>115.0</ele><time>2026-05-05T09:28:00.216Z</time></trkpt><trkpt lat="52.7820067" lon="-7.5318967"><ele>116.0</ele><time>2026-05-05T09:28:01.216Z</time></trkpt><trkpt lat="52.7817667" lon="-7.5321833"><ele>117.0</ele><time>2026-05-05T09:28:02.216Z</time></trkpt><trkpt lat="52.7815367" lon="-7.5324667"><ele>117.0</ele><time>2026-05-05T09:28:03.216Z</time></trkpt><trkpt lat="52.781305" lon="-7.5327483"><ele>117.0</ele><time>2026-05-05T09:28:04.215Z</time></trkpt><trkpt lat="52.7810683" lon="-7.533025"><ele>118.0</ele><time>2026-05-05T09:28:05.216Z</time></trkpt><trkpt lat="52.7808367" lon="-7.5332967"><ele>119.0</ele><time>2026-05-05T09:28:06.215Z</time></trkpt><trkpt lat="52.7805933" lon="-7.53358"><ele>118.0</ele><time>2026-05-05T09:28:07.216Z</time></trkpt><trkpt lat="52.7803617" lon="-7.533865"><ele>117.0</ele><time>2026-05-05T09:28:08.215Z</time></trkpt><trkpt lat="52.7801317" lon="-7.5341483"><ele>117.5</ele><time>2026-05-05T09:28:09.216Z</time></trkpt><trkpt lat="52.7798983" lon="-7.5344383"><ele>118.0</ele><time>2026-05-05T09:28:10.216Z</time></trkpt><trkpt lat="52.779665" lon="-7.53473"><ele>118.0</ele><time>2026-05-05T09:28:11.215Z</time></trkpt><trkpt lat="52.77943" lon="-7.5350183"><ele>118.0</ele><time>2026-05-05T09:28:12.216Z</time></trkpt><trkpt lat="52.7791933" lon="-7.5353"><ele>119.0</ele><time>2026-05-05T09:28:13.215Z</time></trkpt><trkpt lat="52.77895" lon="-7.53558"><ele>120.0</ele><time>2026-05-05T09:28:14.216Z</time></trkpt><trkpt lat="52.7787017" lon="-7.5358633"><ele>120.5</ele><time>2026-05-05T09:28:15.216Z</time></trkpt><trkpt lat="52.7784633" lon="-7.5361467"><ele>121.0</ele><time>2026-05-05T09:28:16.216Z</time></trkpt><trkpt lat="52.7782267" lon="-7.5364333"><ele>120.0</ele><time>2026-05-05T09:28:17.216Z</time></trkpt><trkpt lat="52.777995" lon="-7.53671"><ele>119.0</ele><time>2026-05-05T09:28:18.215Z</time></trkpt><trkpt lat="52.7777633" lon="-7.5369717"><ele>118.5</ele><time>2026-05-05T09:28:19.216Z</time></trkpt><trkpt lat="52.7775317" lon="-7.5372417"><ele>118.0</ele><time>2026-05-05T09:28:20.216Z</time></trkpt><trkpt lat="52.7772967" lon="-7.537525"><ele>118.0</ele><time>2026-05-05T09:28:21.216Z</time></trkpt><trkpt lat="52.77706" lon="-7.5377967"><ele>118.0</ele><time>2026-05-05T09:28:22.215Z</time></trkpt><trkpt lat="52.7768083" lon="-7.5380483"><ele>117.5</ele><time>2026-05-05T09:28:23.216Z</time></trkpt><trkpt lat="52.776565" lon="-7.5383117"><ele>117.0</ele><time>2026-05-05T09:28:24.216Z</time></trkpt><trkpt lat="52.7763217" lon="-7.5385633"><ele>116.5</ele><time>2026-05-05T09:28:25.216Z</time></trkpt><trkpt lat="52.7760767" lon="-7.5388117"><ele>116.0</ele><time>2026-05-05T09:28:26.215Z</time></trkpt><trkpt lat="52.7758167" lon="-7.5390583"><ele>117.0</ele><time>2026-05-05T09:28:27.216Z</time></trkpt><trkpt lat="52.7755617" lon="-7.539305"><ele>118.0</ele><time>2026-05-05T09:28:28.215Z</time></trkpt><trkpt lat="52.7753" lon="-7.539555"><ele>119.0</ele><time>2026-05-05T09:28:29.216Z</time></trkpt><trkpt lat="52.7750483" lon="-7.5397983"><ele>120.0</ele><time>2026-05-05T09:28:30.216Z</time></trkpt><trkpt lat="52.7748" lon="-7.5400333"><ele>120.0</ele><time>2026-05-05T09:28:31.216Z</time></trkpt><trkpt lat="52.7745433" lon="-7.5402767"><ele>120.0</ele><time>2026-05-05T09:28:32.215Z</time></trkpt><trkpt lat="52.774285" lon="-7.5405133"><ele>120.0</ele><time>2026-05-05T09:28:33.216Z</time></trkpt><trkpt lat="52.7740367" lon="-7.5407433"><ele>120.0</ele><time>2026-05-05T09:28:34.215Z</time></trkpt><trkpt lat="52.7737683" lon="-7.5409733"><ele>120.5</ele><time>2026-05-05T09:28:35.216Z</time></trkpt><trkpt lat="52.773495" lon="-7.5411983"><ele>121.0</ele><time>2026-05-05T09:28:36.215Z</time></trkpt><trkpt lat="52.77324" lon="-7.5414217"><ele>121.0</ele><time>2026-05-05T09:28:37.215Z</time></trkpt><trkpt lat="52.7729883" lon="-7.5416633"><ele>121.0</ele><time>2026-05-05T09:28:38.216Z</time></trkpt><trkpt lat="52.7727467" lon="-7.5419083"><ele>121.0</ele><time>2026-05-05T09:28:39.215Z</time></trkpt><trkpt lat="52.7724983" lon="-7.5421533"><ele>121.0</ele><time>2026-05-05T09:28:40.216Z</time></trkpt><trkpt lat="52.7722483" lon="-7.5424067"><ele>121.0</ele><time>2026-05-05T09:28:41.216Z</time></trkpt><trkpt lat="52.7719867" lon="-7.54265"><ele>121.0</ele><time>2026-05-05T09:28:42.216Z</time></trkpt><trkpt lat="52.7717283" lon="-7.542905"><ele>122.0</ele><time>2026-05-05T09:28:43.216Z</time></trkpt><trkpt lat="52.7714683" lon="-7.543155"><ele>123.0</ele><time>2026-05-05T09:28:44.215Z</time></trkpt><trkpt lat="52.7712183" lon="-7.5433883"><ele>123.5</ele><time>2026-05-05T09:28:45.216Z</time></trkpt><trkpt lat="52.770975" lon="-7.5436517"><ele>124.0</ele><time>2026-05-05T09:28:46.216Z</time></trkpt><trkpt lat="52.7707333" lon="-7.5439217"><ele>124.0</ele><time>2026-05-05T09:28:47.216Z</time></trkpt><trkpt lat="52.7704967" lon="-7.5442033"><ele>124.0</ele><time>2026-05-05T09:28:48.215Z</time></trkpt><trkpt lat="52.77026" lon="-7.5444867"><ele>124.0</ele><time>2026-05-05T09:28:49.215Z</time></trkpt><trkpt lat="52.7700267" lon="-7.5447683"><ele>124.0</ele><time>2026-05-05T09:28:50.215Z</time></trkpt><trkpt lat="52.769795" lon="-7.5450417"><ele>124.0</ele><time>2026-05-05T09:28:51.215Z</time></trkpt><trkpt lat="52.7695533" lon="-7.5453083"><ele>124.0</ele><time>2026-05-05T09:28:52.216Z</time></trkpt><trkpt lat="52.7693133" lon="-7.545595"><ele>124.5</ele><time>2026-05-05T09:28:53.215Z</time></trkpt><trkpt lat="52.76906" lon="-7.5458883"><ele>125.0</ele><time>2026-05-05T09:28:54.215Z</time></trkpt><trkpt lat="52.7688217" lon="-7.546165"><ele>125.5</ele><time>2026-05-05T09:28:55.216Z</time></trkpt><trkpt lat="52.7685817" lon="-7.5464433"><ele>126.0</ele><time>2026-05-05T09:28:56.216Z</time></trkpt><trkpt lat="52.768345" lon="-7.5467333"><ele>126.0</ele><time>2026-05-05T09:28:57.216Z</time></trkpt><trkpt lat="52.76811" lon="-7.5470367"><ele>126.0</ele><time>2026-05-05T09:28:58.215Z</time></trkpt><trkpt lat="52.7678883" lon="-7.547335"><ele>125.0</ele><time>2026-05-05T09:28:59.215Z</time></trkpt><trkpt lat="52.767665" lon="-7.5476333"><ele>124.0</ele><time>2026-05-05T09:29:00.215Z</time></trkpt><trkpt lat="52.76745" lon="-7.54795"><ele>124.0</ele><time>2026-05-05T09:29:01.216Z</time></trkpt><trkpt lat="52.7672183" lon="-7.54826"><ele>124.0</ele><time>2026-05-05T09:29:02.216Z</time></trkpt><trkpt lat="52.767" lon="-7.54857"><ele>123.0</ele><time>2026-05-05T09:29:03.216Z</time></trkpt><trkpt lat="52.7667933" lon="-7.5488933"><ele>122.0</ele><time>2026-05-05T09:29:04.215Z</time></trkpt><trkpt lat="52.7665717" lon="-7.5492167"><ele>122.0</ele><time>2026-05-05T09:29:05.215Z</time></trkpt><trkpt lat="52.76634" lon="-7.5495483"><ele>122.0</ele><time>2026-05-05T09:29:06.216Z</time></trkpt><trkpt lat="52.7661267" lon="-7.5498733"><ele>122.5</ele><time>2026-05-05T09:29:07.215Z</time></trkpt><trkpt lat="52.7659133" lon="-7.550195"><ele>123.0</ele><time>2026-05-05T09:29:08.216Z</time></trkpt><trkpt lat="52.7657033" lon="-7.55051"><ele>123.0</ele><time>2026-05-05T09:29:09.216Z</time></trkpt><trkpt lat="52.765495" lon="-7.55083"><ele>123.0</ele><time>2026-05-05T09:29:10.216Z</time></trkpt><trkpt lat="52.765285" lon="-7.55115"><ele>124.5</ele><time>2026-05-05T09:29:11.216Z</time></trkpt><trkpt lat="52.7650617" lon="-7.5514733"><ele>126.0</ele><time>2026-05-05T09:29:12.216Z</time></trkpt><trkpt lat="52.7648367" lon="-7.551795"><ele>126.0</ele><time>2026-05-05T09:29:13.216Z</time></trkpt><trkpt lat="52.7646167" lon="-7.5521117"><ele>126.0</ele><time>2026-05-05T09:29:14.215Z</time></trkpt><trkpt lat="52.7644" lon="-7.5524367"><ele>126.5</ele><time>2026-05-05T09:29:15.215Z</time></trkpt><trkpt lat="52.7641883" lon="-7.55277"><ele>127.0</ele><time>2026-05-05T09:29:16.216Z</time></trkpt><trkpt lat="52.7639683" lon="-7.5530983"><ele>127.0</ele><time>2026-05-05T09:29:17.216Z</time></trkpt><trkpt lat="52.7637517" lon="-7.55342"><ele>127.0</ele><time>2026-05-05T09:29:18.215Z</time></trkpt><trkpt lat="52.7635433" lon="-7.5537383"><ele>128.0</ele><time>2026-05-05T09:29:19.216Z</time></trkpt><trkpt lat="52.7633183" lon="-7.5540667"><ele>129.0</ele><time>2026-05-05T09:29:20.216Z</time></trkpt><trkpt lat="52.7631083" lon="-7.5544083"><ele>128.5</ele><time>2026-05-05T09:29:21.216Z</time></trkpt><trkpt lat="52.7629033" lon="-7.5547483"><ele>128.0</ele><time>2026-05-05T09:29:22.216Z</time></trkpt><trkpt lat="52.7627133" lon="-7.5551"><ele>129.5</ele><time>2026-05-05T09:29:23.215Z</time></trkpt><trkpt lat="52.7625117" lon="-7.5554467"><ele>131.0</ele><time>2026-05-05T09:29:24.216Z</time></trkpt><trkpt lat="52.762315" lon="-7.5558"><ele>131.0</ele><time>2026-05-05T09:29:25.216Z</time></trkpt><trkpt lat="52.7621217" lon="-7.556155"><ele>131.0</ele><time>2026-05-05T09:29:26.216Z</time></trkpt><trkpt lat="52.7619133" lon="-7.5565117"><ele>129.5</ele><time>2026-05-05T09:29:27.216Z</time></trkpt><trkpt lat="52.7616783" lon="-7.5568783"><ele>128.0</ele><time>2026-05-05T09:29:28.215Z</time></trkpt><trkpt lat="52.761495" lon="-7.5572317"><ele>126.5</ele><time>2026-05-05T09:29:29.215Z</time></trkpt><trkpt lat="52.7613267" lon="-7.5576183"><ele>125.0</ele><time>2026-05-05T09:29:30.215Z</time></trkpt><trkpt lat="52.76115" lon="-7.5579817"><ele>125.0</ele><time>2026-05-05T09:29:31.216Z</time></trkpt><trkpt lat="52.760995" lon="-7.5583917"><ele>125.0</ele><time>2026-05-05T09:29:32.216Z</time></trkpt><trkpt lat="52.7608333" lon="-7.55878"><ele>125.0</ele><time>2026-05-05T09:29:33.215Z</time></trkpt><trkpt lat="52.7606883" lon="-7.5591983"><ele>125.0</ele><time>2026-05-05T09:29:34.216Z</time></trkpt><trkpt lat="52.760535" lon="-7.5596"><ele>125.5</ele><time>2026-05-05T09:29:35.216Z</time></trkpt><trkpt lat="52.760405" lon="-7.5600083"><ele>126.0</ele><time>2026-05-05T09:29:36.216Z</time></trkpt><trkpt lat="52.76027" lon="-7.5604217"><ele>126.5</ele><time>2026-05-05T09:29:37.216Z</time></trkpt><trkpt lat="52.7601183" lon="-7.5608367"><ele>127.0</ele><time>2026-05-05T09:29:38.216Z</time></trkpt><trkpt lat="52.7599733" lon="-7.5612583"><ele>127.0</ele><time>2026-05-05T09:29:39.215Z</time></trkpt><trkpt lat="52.75983" lon="-7.56168"><ele>127.0</ele><time>2026-05-05T09:29:40.216Z</time></trkpt><trkpt lat="52.75965" lon="-7.5621117"><ele>127.0</ele><time>2026-05-05T09:29:41.215Z</time></trkpt><trkpt lat="52.7595167" lon="-7.562555"><ele>127.0</ele><time>2026-05-05T09:29:42.216Z</time></trkpt><trkpt lat="52.7593917" lon="-7.563"><ele>127.5</ele><time>2026-05-05T09:29:43.216Z</time></trkpt><trkpt lat="52.75928" lon="-7.5634233"><ele>128.0</ele><time>2026-05-05T09:29:44.215Z</time></trkpt><trkpt lat="52.7591633" lon="-7.5638717"><ele>129.0</ele><time>2026-05-05T09:29:45.216Z</time></trkpt><trkpt lat="52.7590467" lon="-7.564305"><ele>130.0</ele><time>2026-05-05T09:29:46.216Z</time></trkpt><trkpt lat="52.7589283" lon="-7.564735"><ele>130.0</ele><time>2026-05-05T09:29:47.216Z</time></trkpt><trkpt lat="52.758815" lon="-7.5651633"><ele>130.0</ele><time>2026-05-05T09:29:48.216Z</time></trkpt><trkpt lat="52.7586967" lon="-7.565595"><ele>130.0</ele><time>2026-05-05T09:29:49.216Z</time></trkpt><trkpt lat="52.7585617" lon="-7.566025"><ele>130.0</ele><time>2026-05-05T09:29:50.215Z</time></trkpt><trkpt lat="52.758425" lon="-7.5664483"><ele>127.0</ele><time>2026-05-05T09:29:51.216Z</time></trkpt><trkpt lat="52.7582717" lon="-7.566865"><ele>124.0</ele><time>2026-05-05T09:29:52.216Z</time></trkpt><trkpt lat="52.7581117" lon="-7.5672633"><ele>122.0</ele><time>2026-05-05T09:29:53.216Z</time></trkpt><trkpt lat="52.757955" lon="-7.56766"><ele>120.0</ele><time>2026-05-05T09:29:54.216Z</time></trkpt><trkpt lat="52.7577783" lon="-7.5680517"><ele>117.5</ele><time>2026-05-05T09:29:55.216Z</time></trkpt><trkpt lat="52.7575967" lon="-7.56843"><ele>115.0</ele><time>2026-05-05T09:29:56.216Z</time></trkpt><trkpt lat="52.7573867" lon="-7.56881"><ele>115.0</ele><time>2026-05-05T09:29:57.216Z</time></trkpt><trkpt lat="52.75716" lon="-7.5691783"><ele>115.0</ele><time>2026-05-05T09:29:58.215Z</time></trkpt><trkpt lat="52.7569367" lon="-7.5695267"><ele>115.5</ele><time>2026-05-05T09:29:59.215Z</time></trkpt><trkpt lat="52.75674" lon="-7.5698567"><ele>116.0</ele><time>2026-05-05T09:30:00.216Z</time></trkpt><trkpt lat="52.7565317" lon="-7.5701767"><ele>116.5</ele><time>2026-05-05T09:30:01.216Z</time></trkpt><trkpt lat="52.7563467" lon="-7.5704617"><ele>117.0</ele><time>2026-05-05T09:30:02.216Z</time></trkpt><trkpt lat="52.756125" lon="-7.57077"><ele>117.5</ele><time>2026-05-05T09:30:03.215Z</time></trkpt><trkpt lat="52.7558883" lon="-7.5710583"><ele>118.0</ele><time>2026-05-05T09:30:04.216Z</time></trkpt><trkpt lat="52.755645" lon="-7.5713317"><ele>118.0</ele><time>2026-05-05T09:30:05.216Z</time></trkpt><trkpt lat="52.7554" lon="-7.5715883"><ele>118.0</ele><time>2026-05-05T09:30:06.216Z</time></trkpt><trkpt lat="52.7551533" lon="-7.5718433"><ele>118.0</ele><time>2026-05-05T09:30:07.215Z</time></trkpt><trkpt lat="52.7548967" lon="-7.5721033"><ele>118.0</ele><time>2026-05-05T09:30:08.216Z</time></trkpt><trkpt lat="52.754635" lon="-7.57233"><ele>117.5</ele><time>2026-05-05T09:30:09.216Z</time></trkpt><trkpt lat="52.7543667" lon="-7.5725417"><ele>117.0</ele><time>2026-05-05T09:30:10.215Z</time></trkpt><trkpt lat="52.7540933" lon="-7.5727367"><ele>117.5</ele><time>2026-05-05T09:30:11.216Z</time></trkpt><trkpt lat="52.7538033" lon="-7.5729233"><ele>118.0</ele><time>2026-05-05T09:30:12.216Z</time></trkpt><trkpt lat="52.7535233" lon="-7.5730933"><ele>119.5</ele><time>2026-05-05T09:30:13.216Z</time></trkpt><trkpt lat="52.7532283" lon="-7.57325"><ele>121.0</ele><time>2026-05-05T09:30:14.216Z</time></trkpt><trkpt lat="52.752925" lon="-7.5733917"><ele>122.0</ele><time>2026-05-05T09:30:15.215Z</time></trkpt><trkpt lat="52.7526217" lon="-7.5735233"><ele>123.0</ele><time>2026-05-05T09:30:16.216Z</time></trkpt><trkpt lat="52.7523283" lon="-7.5736333"><ele>122.5</ele><time>2026-05-05T09:30:17.216Z</time></trkpt><trkpt lat="52.7520333" lon="-7.573725"><ele>122.0</ele><time>2026-05-05T09:30:18.216Z</time></trkpt><trkpt lat="52.7517417" lon="-7.5737933"><ele>122.0</ele><time>2026-05-05T09:30:19.216Z</time></trkpt><trkpt lat="52.7514533" lon="-7.5738367"><ele>122.0</ele><time>2026-05-05T09:30:20.215Z</time></trkpt><trkpt lat="52.7511633" lon="-7.573895"><ele>121.5</ele><time>2026-05-05T09:30:21.216Z</time></trkpt><trkpt lat="52.7508767" lon="-7.573955"><ele>121.0</ele><time>2026-05-05T09:30:22.216Z</time></trkpt><trkpt lat="52.7505933" lon="-7.5739817"><ele>121.0</ele><time>2026-05-05T09:30:23.216Z</time></trkpt><trkpt lat="52.750305" lon="-7.5740067"><ele>121.0</ele><time>2026-05-05T09:30:24.216Z</time></trkpt><trkpt lat="52.7500083" lon="-7.57406"><ele>120.5</ele><time>2026-05-05T09:30:25.215Z</time></trkpt><trkpt lat="52.74972" lon="-7.5741317"><ele>120.0</ele><time>2026-05-05T09:30:26.216Z</time></trkpt><trkpt lat="52.74945" lon="-7.5742133"><ele>119.5</ele><time>2026-05-05T09:30:27.216Z</time></trkpt><trkpt lat="52.7491583" lon="-7.5742983"><ele>119.0</ele><time>2026-05-05T09:30:28.216Z</time></trkpt><trkpt lat="52.7488583" lon="-7.574385"><ele>117.5</ele><time>2026-05-05T09:30:29.216Z</time></trkpt><trkpt lat="52.7485417" lon="-7.5744733"><ele>116.0</ele><time>2026-05-05T09:30:30.216Z</time></trkpt><trkpt lat="52.7482517" lon="-7.5745467"><ele>116.0</ele><time>2026-05-05T09:30:31.215Z</time></trkpt><trkpt lat="52.74797" lon="-7.574615"><ele>116.0</ele><time>2026-05-05T09:30:32.216Z</time></trkpt><trkpt lat="52.7476733" lon="-7.5746617"><ele>116.0</ele><time>2026-05-05T09:30:33.216Z</time></trkpt><trkpt lat="52.7473783" lon="-7.5746833"><ele>116.0</ele><time>2026-05-05T09:30:34.215Z</time></trkpt><trkpt lat="52.747095" lon="-7.5747383"><ele>116.0</ele><time>2026-05-05T09:30:35.216Z</time></trkpt><trkpt lat="52.746805" lon="-7.5747983"><ele>116.0</ele><time>2026-05-05T09:30:36.216Z</time></trkpt><trkpt lat="52.7465117" lon="-7.574875"><ele>116.0</ele><time>2026-05-05T09:30:37.216Z</time></trkpt><trkpt lat="52.7462167" lon="-7.5749483"><ele>116.0</ele><time>2026-05-05T09:30:38.216Z</time></trkpt><trkpt lat="52.745915" lon="-7.57504"><ele>118.0</ele><time>2026-05-05T09:30:39.216Z</time></trkpt><trkpt lat="52.745625" lon="-7.5751267"><ele>120.0</ele><time>2026-05-05T09:30:40.216Z</time></trkpt><trkpt lat="52.74532" lon="-7.57521"><ele>120.0</ele><time>2026-05-05T09:30:41.216Z</time></trkpt><trkpt lat="52.7450283" lon="-7.5753"><ele>120.0</ele><time>2026-05-05T09:30:42.216Z</time></trkpt><trkpt lat="52.74475" lon="-7.5754033"><ele>119.5</ele><time>2026-05-05T09:30:43.215Z</time></trkpt><trkpt lat="52.74445" lon="-7.5754983"><ele>119.0</ele><time>2026-05-05T09:30:44.215Z</time></trkpt><trkpt lat="52.7441533" lon="-7.5756"><ele>118.5</ele><time>2026-05-05T09:30:45.216Z</time></trkpt><trkpt lat="52.7438467" lon="-7.5757"><ele>118.0</ele><time>2026-05-05T09:30:46.216Z</time></trkpt><trkpt lat="52.7435517" lon="-7.5758"><ele>117.0</ele><time>2026-05-05T09:30:47.215Z</time></trkpt><trkpt lat="52.74327" lon="-7.5759183"><ele>116.0</ele><time>2026-05-05T09:30:48.215Z</time></trkpt><trkpt lat="52.7429717" lon="-7.576025"><ele>116.0</ele><time>2026-05-05T09:30:49.215Z</time></trkpt><trkpt lat="52.742675" lon="-7.57613"><ele>116.0</ele><time>2026-05-05T09:30:50.215Z</time></trkpt><trkpt lat="52.742405" lon="-7.5762433"><ele>114.5</ele><time>2026-05-05T09:30:51.215Z</time></trkpt><trkpt lat="52.7421167" lon="-7.5763533"><ele>113.0</ele><time>2026-05-05T09:30:52.215Z</time></trkpt><trkpt lat="52.7418267" lon="-7.576475"><ele>113.0</ele><time>2026-05-05T09:30:53.215Z</time></trkpt><trkpt lat="52.74155" lon="-7.5766"><ele>113.0</ele><time>2026-05-05T09:30:54.215Z</time></trkpt><trkpt lat="52.741275" lon="-7.5767217"><ele>113.0</ele><time>2026-05-05T09:30:55.215Z</time></trkpt><trkpt lat="52.7409917" lon="-7.5768483"><ele>113.0</ele><time>2026-05-05T09:30:56.216Z</time></trkpt><trkpt lat="52.7407" lon="-7.5769683"><ele>113.0</ele><time>2026-05-05T09:30:57.215Z</time></trkpt><trkpt lat="52.7404083" lon="-7.5770883"><ele>113.0</ele><time>2026-05-05T09:30:58.215Z</time></trkpt><trkpt lat="52.7401183" lon="-7.5772217"><ele>113.5</ele><time>2026-05-05T09:30:59.216Z</time></trkpt><trkpt lat="52.7398333" lon="-7.5773533"><ele>114.0</ele><time>2026-05-05T09:31:00.216Z</time></trkpt><trkpt lat="52.7395517" lon="-7.5774733"><ele>114.5</ele><time>2026-05-05T09:31:01.215Z</time></trkpt><trkpt lat="52.7392633" lon="-7.5776117"><ele>115.0</ele><time>2026-05-05T09:31:02.215Z</time></trkpt><trkpt lat="52.7389683" lon="-7.577745"><ele>116.0</ele><time>2026-05-05T09:31:03.215Z</time></trkpt><trkpt lat="52.73869" lon="-7.5778767"><ele>117.0</ele><time>2026-05-05T09:31:04.216Z</time></trkpt><trkpt lat="52.7383983" lon="-7.5780167"><ele>117.0</ele><time>2026-05-05T09:31:05.216Z</time></trkpt><trkpt lat="52.7381183" lon="-7.5781667"><ele>117.0</ele><time>2026-05-05T09:31:06.216Z</time></trkpt><trkpt lat="52.737825" lon="-7.57831"><ele>116.5</ele><time>2026-05-05T09:31:07.215Z</time></trkpt><trkpt lat="52.737535" lon="-7.5784667"><ele>116.0</ele><time>2026-05-05T09:31:08.215Z</time></trkpt><trkpt lat="52.73726" lon="-7.5786283"><ele>116.0</ele><time>2026-05-05T09:31:09.216Z</time></trkpt><trkpt lat="52.7369917" lon="-7.57879"><ele>116.0</ele><time>2026-05-05T09:31:10.215Z</time></trkpt><trkpt lat="52.7367183" lon="-7.5789533"><ele>115.5</ele><time>2026-05-05T09:31:11.216Z</time></trkpt><trkpt lat="52.73643" lon="-7.57911"><ele>115.0</ele><time>2026-05-05T09:31:12.216Z</time></trkpt><trkpt lat="52.7361483" lon="-7.57927"><ele>115.0</ele><time>2026-05-05T09:31:13.216Z</time></trkpt><trkpt lat="52.7358683" lon="-7.5794417"><ele>115.0</ele><time>2026-05-05T09:31:14.216Z</time></trkpt><trkpt lat="52.7355967" lon="-7.5796083"><ele>115.5</ele><time>2026-05-05T09:31:15.216Z</time></trkpt><trkpt lat="52.7353217" lon="-7.57979"><ele>116.0</ele><time>2026-05-05T09:31:16.216Z</time></trkpt><trkpt lat="52.7350483" lon="-7.5799767"><ele>116.0</ele><time>2026-05-05T09:31:17.215Z</time></trkpt><trkpt lat="52.7347717" lon="-7.5801683"><ele>116.0</ele><time>2026-05-05T09:31:18.216Z</time></trkpt><trkpt lat="52.7344983" lon="-7.58036"><ele>116.5</ele><time>2026-05-05T09:31:19.215Z</time></trkpt><trkpt lat="52.7342267" lon="-7.580565"><ele>117.0</ele><time>2026-05-05T09:31:20.216Z</time></trkpt><trkpt lat="52.7339533" lon="-7.580775"><ele>117.0</ele><time>2026-05-05T09:31:21.216Z</time></trkpt><trkpt lat="52.7336833" lon="-7.5809817"><ele>117.0</ele><time>2026-05-05T09:31:22.216Z</time></trkpt><trkpt lat="52.73342" lon="-7.5811933"><ele>117.0</ele><time>2026-05-05T09:31:23.215Z</time></trkpt><trkpt lat="52.7331667" lon="-7.581415"><ele>117.0</ele><time>2026-05-05T09:31:24.215Z</time></trkpt><trkpt lat="52.7328967" lon="-7.581645"><ele>117.0</ele><time>2026-05-05T09:31:25.215Z</time></trkpt><trkpt lat="52.7326333" lon="-7.58189"><ele>117.0</ele><time>2026-05-05T09:31:26.216Z</time></trkpt><trkpt lat="52.7323767" lon="-7.58213"><ele>117.0</ele><time>2026-05-05T09:31:27.216Z</time></trkpt><trkpt lat="52.7321133" lon="-7.5823733"><ele>117.0</ele><time>2026-05-05T09:31:28.216Z</time></trkpt><trkpt lat="52.7318633" lon="-7.58262"><ele>118.5</ele><time>2026-05-05T09:31:29.215Z</time></trkpt><trkpt lat="52.7316117" lon="-7.5828717"><ele>120.0</ele><time>2026-05-05T09:31:30.216Z</time></trkpt><trkpt lat="52.7313733" lon="-7.5831267"><ele>120.0</ele><time>2026-05-05T09:31:31.216Z</time></trkpt><trkpt lat="52.7311233" lon="-7.5833817"><ele>120.0</ele><time>2026-05-05T09:31:32.216Z</time></trkpt><trkpt lat="52.7308717" lon="-7.5836467"><ele>119.0</ele><time>2026-05-05T09:31:33.215Z</time></trkpt><trkpt lat="52.7306183" lon="-7.58391"><ele>118.0</ele><time>2026-05-05T09:31:34.216Z</time></trkpt><trkpt lat="52.7303683" lon="-7.5841733"><ele>119.0</ele><time>2026-05-05T09:31:35.215Z</time></trkpt><trkpt lat="52.7301183" lon="-7.5844467"><ele>120.0</ele><time>2026-05-05T09:31:36.215Z</time></trkpt><trkpt lat="52.7298833" lon="-7.5847317"><ele>120.5</ele><time>2026-05-05T09:31:37.216Z</time></trkpt><trkpt lat="52.7296633" lon="-7.585015"><ele>121.0</ele><time>2026-05-05T09:31:38.216Z</time></trkpt><trkpt lat="52.72943" lon="-7.58531"><ele>120.5</ele><time>2026-05-05T09:31:39.216Z</time></trkpt><trkpt lat="52.7291883" lon="-7.5856017"><ele>120.0</ele><time>2026-05-05T09:31:40.215Z</time></trkpt><trkpt lat="52.7289483" lon="-7.585915"><ele>120.0</ele><time>2026-05-05T09:31:41.215Z</time></trkpt><trkpt lat="52.7287133" lon="-7.5862117"><ele>120.0</ele><time>2026-05-05T09:31:42.216Z</time></trkpt><trkpt lat="52.72848" lon="-7.586515"><ele>120.0</ele><time>2026-05-05T09:31:43.216Z</time></trkpt><trkpt lat="52.7282517" lon="-7.5868317"><ele>120.0</ele><time>2026-05-05T09:31:44.216Z</time></trkpt><trkpt lat="52.7280267" lon="-7.5871483"><ele>120.5</ele><time>2026-05-05T09:31:45.215Z</time></trkpt><trkpt lat="52.7278083" lon="-7.5874617"><ele>121.0</ele><time>2026-05-05T09:31:46.216Z</time></trkpt><trkpt lat="52.7275917" lon="-7.5877783"><ele>121.0</ele><time>2026-05-05T09:31:47.216Z</time></trkpt><trkpt lat="52.727345" lon="-7.5881217"><ele>121.0</ele><time>2026-05-05T09:31:48.215Z</time></trkpt><trkpt lat="52.7271267" lon="-7.5884383"><ele>122.0</ele><time>2026-05-05T09:31:49.215Z</time></trkpt><trkpt lat="52.7268883" lon="-7.5887867"><ele>123.0</ele><time>2026-05-05T09:31:50.216Z</time></trkpt><trkpt lat="52.726665" lon="-7.58913"><ele>123.0</ele><time>2026-05-05T09:31:51.216Z</time></trkpt><trkpt lat="52.7264467" lon="-7.5894717"><ele>123.0</ele><time>2026-05-05T09:31:52.216Z</time></trkpt><trkpt lat="52.7262317" lon="-7.58981"><ele>123.0</ele><time>2026-05-05T09:31:53.215Z</time></trkpt><trkpt lat="52.7260117" lon="-7.5901433"><ele>123.0</ele><time>2026-05-05T09:31:54.215Z</time></trkpt><trkpt lat="52.725775" lon="-7.5904767"><ele>123.5</ele><time>2026-05-05T09:31:55.216Z</time></trkpt><trkpt lat="52.7255617" lon="-7.5908083"><ele>124.0</ele><time>2026-05-05T09:31:56.216Z</time></trkpt><trkpt lat="52.7253467" lon="-7.59113"><ele>123.5</ele><time>2026-05-05T09:31:57.215Z</time></trkpt><trkpt lat="52.7251283" lon="-7.59145"><ele>123.0</ele><time>2026-05-05T09:31:58.216Z</time></trkpt><trkpt lat="52.724895" lon="-7.591775"><ele>123.0</ele><time>2026-05-05T09:31:59.216Z</time></trkpt><trkpt lat="52.724675" lon="-7.5920817"><ele>123.0</ele><time>2026-05-05T09:32:00.216Z</time></trkpt><trkpt lat="52.7244483" lon="-7.592405"><ele>122.5</ele><time>2026-05-05T09:32:01.216Z</time></trkpt><trkpt lat="52.724215" lon="-7.5927117"><ele>122.0</ele><time>2026-05-05T09:32:02.215Z</time></trkpt><trkpt lat="52.7239767" lon="-7.5930167"><ele>123.0</ele><time>2026-05-05T09:32:03.216Z</time></trkpt><trkpt lat="52.7237383" lon="-7.5933233"><ele>124.0</ele><time>2026-05-05T09:32:04.216Z</time></trkpt><trkpt lat="52.723515" lon="-7.5936383"><ele>123.0</ele><time>2026-05-05T09:32:05.216Z</time></trkpt><trkpt lat="52.7232983" lon="-7.5939667"><ele>122.0</ele><time>2026-05-05T09:32:06.216Z</time></trkpt><trkpt lat="52.7230783" lon="-7.594285"><ele>122.5</ele><time>2026-05-05T09:32:07.215Z</time></trkpt><trkpt lat="52.72285" lon="-7.5945967"><ele>123.0</ele><time>2026-05-05T09:32:08.216Z</time></trkpt><trkpt lat="52.7226183" lon="-7.594905"><ele>122.0</ele><time>2026-05-05T09:32:09.216Z</time></trkpt><trkpt lat="52.7224017" lon="-7.5952083"><ele>121.0</ele><time>2026-05-05T09:32:10.216Z</time></trkpt><trkpt lat="52.7222" lon="-7.5955"><ele>121.0</ele><time>2026-05-05T09:32:11.216Z</time></trkpt><trkpt lat="52.7219983" lon="-7.5958033"><ele>121.0</ele><time>2026-05-05T09:32:12.215Z</time></trkpt><trkpt lat="52.721785" lon="-7.5960933"><ele>120.0</ele><time>2026-05-05T09:32:13.216Z</time></trkpt><trkpt lat="52.7215767" lon="-7.5963967"><ele>119.0</ele><time>2026-05-05T09:32:14.216Z</time></trkpt><trkpt lat="52.7213717" lon="-7.5967"><ele>118.5</ele><time>2026-05-05T09:32:15.216Z</time></trkpt><trkpt lat="52.7211717" lon="-7.5970183"><ele>118.0</ele><time>2026-05-05T09:32:16.215Z</time></trkpt><trkpt lat="52.7209783" lon="-7.5973333"><ele>118.0</ele><time>2026-05-05T09:32:17.215Z</time></trkpt><trkpt lat="52.720795" lon="-7.597665"><ele>118.0</ele><time>2026-05-05T09:32:18.215Z</time></trkpt><trkpt lat="52.7206017" lon="-7.598"><ele>118.5</ele><time>2026-05-05T09:32:19.215Z</time></trkpt><trkpt lat="52.7204117" lon="-7.598325"><ele>119.0</ele><time>2026-05-05T09:32:20.216Z</time></trkpt><trkpt lat="52.720225" lon="-7.5986483"><ele>121.0</ele><time>2026-05-05T09:32:21.216Z</time></trkpt><trkpt lat="52.7200433" lon="-7.5989883"><ele>123.0</ele><time>2026-05-05T09:32:22.215Z</time></trkpt><trkpt lat="52.7198583" lon="-7.5993383"><ele>125.0</ele><time>2026-05-05T09:32:23.215Z</time></trkpt><trkpt lat="52.7196683" lon="-7.5996883"><ele>127.0</ele><time>2026-05-05T09:32:24.215Z</time></trkpt><trkpt lat="52.7194767" lon="-7.6000417"><ele>123.0</ele><time>2026-05-05T09:32:25.216Z</time></trkpt><trkpt lat="52.71929" lon="-7.600385"><ele>119.0</ele><time>2026-05-05T09:32:26.216Z</time></trkpt><trkpt lat="52.7191067" lon="-7.6007267"><ele>119.0</ele><time>2026-05-05T09:32:27.216Z</time></trkpt><trkpt lat="52.71894" lon="-7.6010633"><ele>119.0</ele><time>2026-05-05T09:32:28.216Z</time></trkpt><trkpt lat="52.7187733" lon="-7.60141"><ele>119.0</ele><time>2026-05-05T09:32:29.215Z</time></trkpt><trkpt lat="52.7186017" lon="-7.6017633"><ele>119.0</ele><time>2026-05-05T09:32:30.215Z</time></trkpt><trkpt lat="52.7184167" lon="-7.6021167"><ele>119.0</ele><time>2026-05-05T09:32:31.216Z</time></trkpt><trkpt lat="52.7182783" lon="-7.6024817"><ele>119.0</ele><time>2026-05-05T09:32:32.215Z</time></trkpt><trkpt lat="52.718115" lon="-7.602835"><ele>119.0</ele><time>2026-05-05T09:32:33.216Z</time></trkpt><trkpt lat="52.717905" lon="-7.6032117"><ele>119.0</ele><time>2026-05-05T09:32:34.216Z</time></trkpt><trkpt lat="52.7177333" lon="-7.6035617"><ele>120.5</ele><time>2026-05-05T09:32:35.215Z</time></trkpt><trkpt lat="52.7175683" lon="-7.6039217"><ele>122.0</ele><time>2026-05-05T09:32:36.215Z</time></trkpt><trkpt lat="52.7173967" lon="-7.6042867"><ele>122.0</ele><time>2026-05-05T09:32:37.216Z</time></trkpt><trkpt lat="52.7172167" lon="-7.604655"><ele>122.0</ele><time>2026-05-05T09:32:38.216Z</time></trkpt><trkpt lat="52.7170467" lon="-7.6050183"><ele>123.0</ele><time>2026-05-05T09:32:39.216Z</time></trkpt><trkpt lat="52.7168767" lon="-7.6054017"><ele>124.0</ele><time>2026-05-05T09:32:40.215Z</time></trkpt><trkpt lat="52.716705" lon="-7.60578"><ele>124.0</ele><time>2026-05-05T09:32:41.216Z</time></trkpt><trkpt lat="52.7165367" lon="-7.6061417"><ele>124.0</ele><time>2026-05-05T09:32:42.215Z</time></trkpt><trkpt lat="52.7163667" lon="-7.606505"><ele>124.5</ele><time>2026-05-05T09:32:43.216Z</time></trkpt><trkpt lat="52.716195" lon="-7.6068833"><ele>125.0</ele><time>2026-05-05T09:32:44.216Z</time></trkpt><trkpt lat="52.7160217" lon="-7.60726"><ele>126.5</ele><time>2026-05-05T09:32:45.216Z</time></trkpt><trkpt lat="52.71585" lon="-7.6076267"><ele>128.0</ele><time>2026-05-05T09:32:46.216Z</time></trkpt><trkpt lat="52.71568" lon="-7.608"><ele>129.0</ele><time>2026-05-05T09:32:47.215Z</time></trkpt><trkpt lat="52.7155083" lon="-7.6083667"><ele>130.0</ele><time>2026-05-05T09:32:48.216Z</time></trkpt><trkpt lat="52.7153317" lon="-7.608745"><ele>130.0</ele><time>2026-05-05T09:32:49.216Z</time></trkpt><trkpt lat="52.715145" lon="-7.60914"><ele>130.0</ele><time>2026-05-05T09:32:50.216Z</time></trkpt><trkpt lat="52.71497" lon="-7.609525"><ele>130.0</ele><time>2026-05-05T09:32:51.215Z</time></trkpt><trkpt lat="52.7147967" lon="-7.609895"><ele>130.0</ele><time>2026-05-05T09:32:52.215Z</time></trkpt><trkpt lat="52.7146267" lon="-7.6102717"><ele>130.0</ele><time>2026-05-05T09:32:53.216Z</time></trkpt><trkpt lat="52.7144533" lon="-7.6106383"><ele>130.0</ele><time>2026-05-05T09:32:54.215Z</time></trkpt><trkpt lat="52.7142867" lon="-7.611005"><ele>129.5</ele><time>2026-05-05T09:32:55.216Z</time></trkpt><trkpt lat="52.714115" lon="-7.6113733"><ele>129.0</ele><time>2026-05-05T09:32:56.216Z</time></trkpt><trkpt lat="52.7139467" lon="-7.6117267"><ele>128.5</ele><time>2026-05-05T09:32:57.216Z</time></trkpt><trkpt lat="52.7137717" lon="-7.6120867"><ele>128.0</ele><time>2026-05-05T09:32:58.216Z</time></trkpt><trkpt lat="52.7135967" lon="-7.6124683"><ele>129.0</ele><time>2026-05-05T09:32:59.215Z</time></trkpt><trkpt lat="52.7134167" lon="-7.6128367"><ele>130.0</ele><time>2026-05-05T09:33:00.216Z</time></trkpt><trkpt lat="52.713245" lon="-7.6132117"><ele>130.0</ele><time>2026-05-05T09:33:01.215Z</time></trkpt><trkpt lat="52.713075" lon="-7.61358"><ele>130.0</ele><time>2026-05-05T09:33:02.215Z</time></trkpt><trkpt lat="52.7129017" lon="-7.6139467"><ele>131.0</ele><time>2026-05-05T09:33:03.216Z</time></trkpt><trkpt lat="52.712715" lon="-7.61431"><ele>132.0</ele><time>2026-05-05T09:33:04.216Z</time></trkpt><trkpt lat="52.7125383" lon="-7.6146617"><ele>132.5</ele><time>2026-05-05T09:33:05.216Z</time></trkpt><trkpt lat="52.712335" lon="-7.6150333"><ele>133.0</ele><time>2026-05-05T09:33:06.216Z</time></trkpt><trkpt lat="52.71219" lon="-7.61541"><ele>133.0</ele><time>2026-05-05T09:33:07.215Z</time></trkpt><trkpt lat="52.7120233" lon="-7.6157833"><ele>133.0</ele><time>2026-05-05T09:33:08.216Z</time></trkpt><trkpt lat="52.71186" lon="-7.616155"><ele>134.0</ele><time>2026-05-05T09:33:09.215Z</time></trkpt><trkpt lat="52.7116967" lon="-7.6165233"><ele>135.0</ele><time>2026-05-05T09:33:10.216Z</time></trkpt><trkpt lat="52.711545" lon="-7.6169083"><ele>135.0</ele><time>2026-05-05T09:33:11.216Z</time></trkpt><trkpt lat="52.7113717" lon="-7.6172817"><ele>135.0</ele><time>2026-05-05T09:33:12.216Z</time></trkpt><trkpt lat="52.7112167" lon="-7.617665"><ele>135.0</ele><time>2026-05-05T09:33:13.215Z</time></trkpt><trkpt lat="52.7110483" lon="-7.6180483"><ele>135.0</ele><time>2026-05-05T09:33:14.216Z</time></trkpt><trkpt lat="52.7108767" lon="-7.6184367"><ele>134.5</ele><time>2026-05-05T09:33:15.215Z</time></trkpt><trkpt lat="52.710725" lon="-7.6188417"><ele>134.0</ele><time>2026-05-05T09:33:16.216Z</time></trkpt><trkpt lat="52.7105667" lon="-7.61925"><ele>133.5</ele><time>2026-05-05T09:33:17.216Z</time></trkpt><trkpt lat="52.7104083" lon="-7.6196567"><ele>133.0</ele><time>2026-05-05T09:33:18.216Z</time></trkpt><trkpt lat="52.7102583" lon="-7.6200633"><ele>133.5</ele><time>2026-05-05T09:33:19.216Z</time></trkpt><trkpt lat="52.7101083" lon="-7.6204767"><ele>134.0</ele><time>2026-05-05T09:33:20.216Z</time></trkpt><trkpt lat="52.7099633" lon="-7.6208983"><ele>134.0</ele><time>2026-05-05T09:33:21.215Z</time></trkpt><trkpt lat="52.709825" lon="-7.6213167"><ele>134.0</ele><time>2026-05-05T09:33:22.215Z</time></trkpt><trkpt lat="52.7096733" lon="-7.6217367"><ele>133.5</ele><time>2026-05-05T09:33:23.216Z</time></trkpt><trkpt lat="52.70952" lon="-7.62214"><ele>133.0</ele><time>2026-05-05T09:33:24.216Z</time></trkpt><trkpt lat="52.7093767" lon="-7.622545"><ele>132.5</ele><time>2026-05-05T09:33:25.215Z</time></trkpt><trkpt lat="52.709235" lon="-7.6229483"><ele>132.0</ele><time>2026-05-05T09:33:26.215Z</time></trkpt><trkpt lat="52.709095" lon="-7.6233633"><ele>130.5</ele><time>2026-05-05T09:33:27.215Z</time></trkpt><trkpt lat="52.708955" lon="-7.62379"><ele>129.0</ele><time>2026-05-05T09:33:28.216Z</time></trkpt><trkpt lat="52.7088133" lon="-7.6242117"><ele>129.0</ele><time>2026-05-05T09:33:29.215Z</time></trkpt><trkpt lat="52.7086817" lon="-7.6246467"><ele>129.0</ele><time>2026-05-05T09:33:30.216Z</time></trkpt><trkpt lat="52.7085483" lon="-7.6250883"><ele>127.5</ele><time>2026-05-05T09:33:31.216Z</time></trkpt><trkpt lat="52.7084133" lon="-7.62552"><ele>126.0</ele><time>2026-05-05T09:33:32.216Z</time></trkpt><trkpt lat="52.7082883" lon="-7.625945"><ele>125.5</ele><time>2026-05-05T09:33:33.217Z</time></trkpt><trkpt lat="52.7081617" lon="-7.6263717"><ele>125.0</ele><time>2026-05-05T09:33:34.217Z</time></trkpt><trkpt lat="52.7080367" lon="-7.6268117"><ele>123.5</ele><time>2026-05-05T09:33:35.216Z</time></trkpt><trkpt lat="52.707905" lon="-7.6272533"><ele>122.0</ele><time>2026-05-05T09:33:36.217Z</time></trkpt><trkpt lat="52.7077717" lon="-7.6277117"><ele>123.0</ele><time>2026-05-05T09:33:37.217Z</time></trkpt><trkpt lat="52.7076317" lon="-7.628165"><ele>124.0</ele><time>2026-05-05T09:33:38.217Z</time></trkpt><trkpt lat="52.7074917" lon="-7.6286167"><ele>123.0</ele><time>2026-05-05T09:33:39.216Z</time></trkpt><trkpt lat="52.7073467" lon="-7.6290567"><ele>122.0</ele><time>2026-05-05T09:33:40.217Z</time></trkpt><trkpt lat="52.7072033" lon="-7.6294833"><ele>122.0</ele><time>2026-05-05T09:33:41.216Z</time></trkpt><trkpt lat="52.7070633" lon="-7.6299133"><ele>122.0</ele><time>2026-05-05T09:33:42.217Z</time></trkpt><trkpt lat="52.706935" lon="-7.6303583"><ele>122.0</ele><time>2026-05-05T09:33:43.217Z</time></trkpt><trkpt lat="52.7067967" lon="-7.6307917"><ele>122.0</ele><time>2026-05-05T09:33:44.216Z</time></trkpt><trkpt lat="52.7066583" lon="-7.6312117"><ele>122.0</ele><time>2026-05-05T09:33:45.217Z</time></trkpt><trkpt lat="52.70652" lon="-7.6316333"><ele>122.0</ele><time>2026-05-05T09:33:46.217Z</time></trkpt><trkpt lat="52.7063767" lon="-7.63205"><ele>121.0</ele><time>2026-05-05T09:33:47.217Z</time></trkpt><trkpt lat="52.7062333" lon="-7.6324683"><ele>120.0</ele><time>2026-05-05T09:33:48.216Z</time></trkpt><trkpt lat="52.7060933" lon="-7.6328783"><ele>120.0</ele><time>2026-05-05T09:33:49.217Z</time></trkpt><trkpt lat="52.7059567" lon="-7.6332867"><ele>120.0</ele><time>2026-05-05T09:33:50.216Z</time></trkpt><trkpt lat="52.7058133" lon="-7.6336967"><ele>121.0</ele><time>2026-05-05T09:33:51.217Z</time></trkpt><trkpt lat="52.70566" lon="-7.63409"><ele>122.0</ele><time>2026-05-05T09:33:52.217Z</time></trkpt><trkpt lat="52.7054983" lon="-7.63451"><ele>122.0</ele><time>2026-05-05T09:33:53.217Z</time></trkpt><trkpt lat="52.7053483" lon="-7.6349083"><ele>122.0</ele><time>2026-05-05T09:33:54.217Z</time></trkpt><trkpt lat="52.7051983" lon="-7.6353083"><ele>122.0</ele><time>2026-05-05T09:33:55.217Z</time></trkpt><trkpt lat="52.705045" lon="-7.6357"><ele>122.0</ele><time>2026-05-05T09:33:56.217Z</time></trkpt><trkpt lat="52.704895" lon="-7.6360933"><ele>122.5</ele><time>2026-05-05T09:33:57.216Z</time></trkpt><trkpt lat="52.7047483" lon="-7.6364917"><ele>123.0</ele><time>2026-05-05T09:33:58.216Z</time></trkpt><trkpt lat="52.7045967" lon="-7.6368917"><ele>123.0</ele><time>2026-05-05T09:33:59.217Z</time></trkpt><trkpt lat="52.7044467" lon="-7.63729"><ele>123.0</ele><time>2026-05-05T09:34:00.217Z</time></trkpt><trkpt lat="52.7042967" lon="-7.637675"><ele>122.5</ele><time>2026-05-05T09:34:01.217Z</time></trkpt><trkpt lat="52.7041417" lon="-7.6380583"><ele>122.0</ele><time>2026-05-05T09:34:02.217Z</time></trkpt><trkpt lat="52.7039967" lon="-7.6384517"><ele>122.5</ele><time>2026-05-05T09:34:03.217Z</time></trkpt><trkpt lat="52.7038383" lon="-7.6388367"><ele>123.0</ele><time>2026-05-05T09:34:04.216Z</time></trkpt><trkpt lat="52.7036817" lon="-7.63922"><ele>127.5</ele><time>2026-05-05T09:34:05.217Z</time></trkpt><trkpt lat="52.7035267" lon="-7.639605"><ele>132.0</ele><time>2026-05-05T09:34:06.217Z</time></trkpt><trkpt lat="52.7033733" lon="-7.6399883"><ele>131.5</ele><time>2026-05-05T09:34:07.216Z</time></trkpt><trkpt lat="52.7032267" lon="-7.6403633"><ele>131.0</ele><time>2026-05-05T09:34:08.216Z</time></trkpt><trkpt lat="52.703065" lon="-7.6407567"><ele>131.0</ele><time>2026-05-05T09:34:09.217Z</time></trkpt><trkpt lat="52.7029017" lon="-7.641145"><ele>131.0</ele><time>2026-05-05T09:34:10.217Z</time></trkpt><trkpt lat="52.7027383" lon="-7.6415367"><ele>131.0</ele><time>2026-05-05T09:34:11.217Z</time></trkpt><trkpt lat="52.702575" lon="-7.6419383"><ele>131.0</ele><time>2026-05-05T09:34:12.216Z</time></trkpt><trkpt lat="52.702405" lon="-7.6423367"><ele>131.0</ele><time>2026-05-05T09:34:13.217Z</time></trkpt><trkpt lat="52.7022367" lon="-7.6427367"><ele>131.0</ele><time>2026-05-05T09:34:14.217Z</time></trkpt><trkpt lat="52.7020667" lon="-7.6431367"><ele>126.5</ele><time>2026-05-05T09:34:15.217Z</time></trkpt><trkpt lat="52.7018883" lon="-7.64352"><ele>122.0</ele><time>2026-05-05T09:34:16.217Z</time></trkpt><trkpt lat="52.7017083" lon="-7.6438983"><ele>122.0</ele><time>2026-05-05T09:34:17.217Z</time></trkpt><trkpt lat="52.7015317" lon="-7.644275"><ele>122.0</ele><time>2026-05-05T09:34:18.216Z</time></trkpt><trkpt lat="52.701355" lon="-7.6446533"><ele>122.5</ele><time>2026-05-05T09:34:19.216Z</time></trkpt><trkpt lat="52.7011717" lon="-7.6450633"><ele>123.0</ele><time>2026-05-05T09:34:20.216Z</time></trkpt><trkpt lat="52.701" lon="-7.6454417"><ele>124.0</ele><time>2026-05-05T09:34:21.216Z</time></trkpt><trkpt lat="52.7008233" lon="-7.6458217"><ele>125.0</ele><time>2026-05-05T09:34:22.216Z</time></trkpt><trkpt lat="52.700645" lon="-7.6462133"><ele>126.0</ele><time>2026-05-05T09:34:23.217Z</time></trkpt><trkpt lat="52.70046" lon="-7.6466067"><ele>127.0</ele><time>2026-05-05T09:34:24.217Z</time></trkpt><trkpt lat="52.7002717" lon="-7.6470017"><ele>130.0</ele><time>2026-05-05T09:34:25.217Z</time></trkpt><trkpt lat="52.7000817" lon="-7.6473983"><ele>133.0</ele><time>2026-05-05T09:34:26.216Z</time></trkpt><trkpt lat="52.6998883" lon="-7.6477883"><ele>133.0</ele><time>2026-05-05T09:34:27.217Z</time></trkpt><trkpt lat="52.6997" lon="-7.6481667"><ele>133.0</ele><time>2026-05-05T09:34:28.217Z</time></trkpt><trkpt lat="52.6995283" lon="-7.6485167"><ele>132.5</ele><time>2026-05-05T09:34:29.217Z</time></trkpt><trkpt lat="52.699335" lon="-7.6488817"><ele>132.0</ele><time>2026-05-05T09:34:30.216Z</time></trkpt><trkpt lat="52.6991467" lon="-7.6492583"><ele>132.0</ele><time>2026-05-05T09:34:31.217Z</time></trkpt><trkpt lat="52.69897" lon="-7.64963"><ele>132.0</ele><time>2026-05-05T09:34:32.216Z</time></trkpt><trkpt lat="52.6987767" lon="-7.6499933"><ele>131.5</ele><time>2026-05-05T09:34:33.217Z</time></trkpt><trkpt lat="52.6986017" lon="-7.650345"><ele>131.0</ele><time>2026-05-05T09:34:34.216Z</time></trkpt><trkpt lat="52.69844" lon="-7.6506967"><ele>130.0</ele><time>2026-05-05T09:34:35.217Z</time></trkpt><trkpt lat="52.6982717" lon="-7.6510433"><ele>129.0</ele><time>2026-05-05T09:34:36.216Z</time></trkpt><trkpt lat="52.6981" lon="-7.6513733"><ele>129.0</ele><time>2026-05-05T09:34:37.217Z</time></trkpt><trkpt lat="52.6979083" lon="-7.651715"><ele>129.0</ele><time>2026-05-05T09:34:38.216Z</time></trkpt><trkpt lat="52.697715" lon="-7.6520517"><ele>128.0</ele><time>2026-05-05T09:34:39.217Z</time></trkpt><trkpt lat="52.6975417" lon="-7.6523933"><ele>127.0</ele><time>2026-05-05T09:34:40.216Z</time></trkpt><trkpt lat="52.697375" lon="-7.6527367"><ele>126.5</ele><time>2026-05-05T09:34:41.217Z</time></trkpt><trkpt lat="52.6972017" lon="-7.6530817"><ele>126.0</ele><time>2026-05-05T09:34:42.217Z</time></trkpt><trkpt lat="52.6970267" lon="-7.65343"><ele>126.0</ele><time>2026-05-05T09:34:43.217Z</time></trkpt><trkpt lat="52.6968567" lon="-7.65377"><ele>126.0</ele><time>2026-05-05T09:34:44.216Z</time></trkpt><trkpt lat="52.696685" lon="-7.65411"><ele>126.0</ele><time>2026-05-05T09:34:45.216Z</time></trkpt><trkpt lat="52.6965117" lon="-7.6544467"><ele>126.0</ele><time>2026-05-05T09:34:46.217Z</time></trkpt><trkpt lat="52.6963367" lon="-7.6547867"><ele>125.5</ele><time>2026-05-05T09:34:47.217Z</time></trkpt><trkpt lat="52.6961633" lon="-7.6551283"><ele>125.0</ele><time>2026-05-05T09:34:48.217Z</time></trkpt><trkpt lat="52.6959933" lon="-7.6554783"><ele>124.5</ele><time>2026-05-05T09:34:49.217Z</time></trkpt><trkpt lat="52.6958233" lon="-7.6558167"><ele>124.0</ele><time>2026-05-05T09:34:50.217Z</time></trkpt><trkpt lat="52.6956517" lon="-7.6561583"><ele>124.0</ele><time>2026-05-05T09:34:51.217Z</time></trkpt><trkpt lat="52.695475" lon="-7.6565067"><ele>124.0</ele><time>2026-05-05T09:34:52.217Z</time></trkpt><trkpt lat="52.6952967" lon="-7.65685"><ele>124.0</ele><time>2026-05-05T09:34:53.216Z</time></trkpt><trkpt lat="52.6951183" lon="-7.6572"><ele>124.0</ele><time>2026-05-05T09:34:54.217Z</time></trkpt><trkpt lat="52.69495" lon="-7.65754"><ele>124.0</ele><time>2026-05-05T09:34:55.216Z</time></trkpt><trkpt lat="52.6947867" lon="-7.65788"><ele>124.0</ele><time>2026-05-05T09:34:56.217Z</time></trkpt><trkpt lat="52.69461" lon="-7.6582233"><ele>124.0</ele><time>2026-05-05T09:34:57.216Z</time></trkpt><trkpt lat="52.6944317" lon="-7.6585733"><ele>124.0</ele><time>2026-05-05T09:34:58.217Z</time></trkpt><trkpt lat="52.6942617" lon="-7.65893"><ele>124.0</ele><time>2026-05-05T09:34:59.217Z</time></trkpt><trkpt lat="52.694095" lon="-7.65928"><ele>124.0</ele><time>2026-05-05T09:35:00.216Z</time></trkpt><trkpt lat="52.6939283" lon="-7.659635"><ele>124.0</ele><time>2026-05-05T09:35:01.217Z</time></trkpt><trkpt lat="52.693755" lon="-7.65999"><ele>124.0</ele><time>2026-05-05T09:35:02.217Z</time></trkpt><trkpt lat="52.69358" lon="-7.66034"><ele>124.0</ele><time>2026-05-05T09:35:03.217Z</time></trkpt><trkpt lat="52.6934017" lon="-7.66068"><ele>124.0</ele><time>2026-05-05T09:35:04.217Z</time></trkpt><trkpt lat="52.6932233" lon="-7.661025"><ele>123.5</ele><time>2026-05-05T09:35:05.217Z</time></trkpt><trkpt lat="52.6930417" lon="-7.6613633"><ele>123.0</ele><time>2026-05-05T09:35:06.217Z</time></trkpt><trkpt lat="52.692865" lon="-7.6617117"><ele>123.0</ele><time>2026-05-05T09:35:07.217Z</time></trkpt><trkpt lat="52.69269" lon="-7.6620583"><ele>123.0</ele><time>2026-05-05T09:35:08.217Z</time></trkpt><trkpt lat="52.6925117" lon="-7.6624"><ele>123.0</ele><time>2026-05-05T09:35:09.217Z</time></trkpt><trkpt lat="52.6923267" lon="-7.6627267"><ele>123.0</ele><time>2026-05-05T09:35:10.217Z</time></trkpt><trkpt lat="52.692135" lon="-7.66305"><ele>122.5</ele><time>2026-05-05T09:35:11.217Z</time></trkpt><trkpt lat="52.691955" lon="-7.663385"><ele>122.0</ele><time>2026-05-05T09:35:12.217Z</time></trkpt><trkpt lat="52.6917833" lon="-7.6637233"><ele>123.0</ele><time>2026-05-05T09:35:13.217Z</time></trkpt><trkpt lat="52.6916033" lon="-7.66406"><ele>124.0</ele><time>2026-05-05T09:35:14.216Z</time></trkpt><trkpt lat="52.6914183" lon="-7.6643933"><ele>124.0</ele><time>2026-05-05T09:35:15.217Z</time></trkpt><trkpt lat="52.691245" lon="-7.6647283"><ele>124.0</ele><time>2026-05-05T09:35:16.216Z</time></trkpt><trkpt lat="52.691055" lon="-7.665065"><ele>125.0</ele><time>2026-05-05T09:35:17.217Z</time></trkpt><trkpt lat="52.6908633" lon="-7.6653967"><ele>126.0</ele><time>2026-05-05T09:35:18.217Z</time></trkpt><trkpt lat="52.690665" lon="-7.6657267"><ele>126.0</ele><time>2026-05-05T09:35:19.216Z</time></trkpt><trkpt lat="52.6904733" lon="-7.666055"><ele>126.0</ele><time>2026-05-05T09:35:20.216Z</time></trkpt><trkpt lat="52.6902783" lon="-7.6663733"><ele>126.0</ele><time>2026-05-05T09:35:21.217Z</time></trkpt><trkpt lat="52.6900783" lon="-7.6667067"><ele>126.0</ele><time>2026-05-05T09:35:22.217Z</time></trkpt><trkpt lat="52.6898733" lon="-7.6670483"><ele>126.0</ele><time>2026-05-05T09:35:23.216Z</time></trkpt><trkpt lat="52.6896633" lon="-7.6673833"><ele>126.0</ele><time>2026-05-05T09:35:24.217Z</time></trkpt><trkpt lat="52.6894567" lon="-7.667725"><ele>124.5</ele><time>2026-05-05T09:35:25.217Z</time></trkpt><trkpt lat="52.6892467" lon="-7.6680633"><ele>123.0</ele><time>2026-05-05T09:35:26.217Z</time></trkpt><trkpt lat="52.6890267" lon="-7.6683933"><ele>122.0</ele><time>2026-05-05T09:35:27.217Z</time></trkpt><trkpt lat="52.6888033" lon="-7.6687267"><ele>121.0</ele><time>2026-05-05T09:35:28.216Z</time></trkpt><trkpt lat="52.6885933" lon="-7.6690717"><ele>121.0</ele><time>2026-05-05T09:35:29.217Z</time></trkpt><trkpt lat="52.6883783" lon="-7.6694133"><ele>121.0</ele><time>2026-05-05T09:35:30.217Z</time></trkpt><trkpt lat="52.6881667" lon="-7.6697417"><ele>121.0</ele><time>2026-05-05T09:35:31.217Z</time></trkpt><trkpt lat="52.6879533" lon="-7.6700867"><ele>121.0</ele><time>2026-05-05T09:35:32.216Z</time></trkpt><trkpt lat="52.6877333" lon="-7.6704267"><ele>121.5</ele><time>2026-05-05T09:35:33.216Z</time></trkpt><trkpt lat="52.68751" lon="-7.6707383"><ele>122.0</ele><time>2026-05-05T09:35:34.217Z</time></trkpt><trkpt lat="52.6872933" lon="-7.6710767"><ele>121.5</ele><time>2026-05-05T09:35:35.217Z</time></trkpt><trkpt lat="52.6870783" lon="-7.67141"><ele>121.0</ele><time>2026-05-05T09:35:36.217Z</time></trkpt><trkpt lat="52.6868633" lon="-7.6717317"><ele>120.5</ele><time>2026-05-05T09:35:37.217Z</time></trkpt><trkpt lat="52.6866517" lon="-7.6720467"><ele>120.0</ele><time>2026-05-05T09:35:38.217Z</time></trkpt><trkpt lat="52.6864467" lon="-7.672365"><ele>120.0</ele><time>2026-05-05T09:35:39.216Z</time></trkpt><trkpt lat="52.6862467" lon="-7.672685"><ele>120.0</ele><time>2026-05-05T09:35:40.216Z</time></trkpt><trkpt lat="52.68604" lon="-7.6729983"><ele>120.0</ele><time>2026-05-05T09:35:41.216Z</time></trkpt><trkpt lat="52.68583" lon="-7.6732883"><ele>120.0</ele><time>2026-05-05T09:35:42.216Z</time></trkpt><trkpt lat="52.685645" lon="-7.673575"><ele>120.0</ele><time>2026-05-05T09:35:43.217Z</time></trkpt><trkpt lat="52.6854417" lon="-7.6738717"><ele>120.0</ele><time>2026-05-05T09:35:44.217Z</time></trkpt><trkpt lat="52.68523" lon="-7.6741583"><ele>120.5</ele><time>2026-05-05T09:35:45.217Z</time></trkpt><trkpt lat="52.6850083" lon="-7.6744433"><ele>121.0</ele><time>2026-05-05T09:35:46.217Z</time></trkpt><trkpt lat="52.68479" lon="-7.6747267"><ele>121.0</ele><time>2026-05-05T09:35:47.216Z</time></trkpt><trkpt lat="52.68458" lon="-7.6750217"><ele>121.0</ele><time>2026-05-05T09:35:48.217Z</time></trkpt><trkpt lat="52.6843817" lon="-7.675315"><ele>122.5</ele><time>2026-05-05T09:35:49.217Z</time></trkpt><trkpt lat="52.6841483" lon="-7.6756117"><ele>124.0</ele><time>2026-05-05T09:35:50.216Z</time></trkpt><trkpt lat="52.6839133" lon="-7.6759133"><ele>123.5</ele><time>2026-05-05T09:35:51.217Z</time></trkpt><trkpt lat="52.68369" lon="-7.67621"><ele>123.0</ele><time>2026-05-05T09:35:52.217Z</time></trkpt><trkpt lat="52.683455" lon="-7.6765067"><ele>123.0</ele><time>2026-05-05T09:35:53.217Z</time></trkpt><trkpt lat="52.6832117" lon="-7.6768183"><ele>123.0</ele><time>2026-05-05T09:35:54.216Z</time></trkpt><trkpt lat="52.6829717" lon="-7.6771417"><ele>121.5</ele><time>2026-05-05T09:35:55.216Z</time></trkpt><trkpt lat="52.6827317" lon="-7.6774567"><ele>120.0</ele><time>2026-05-05T09:35:56.216Z</time></trkpt><trkpt lat="52.6824917" lon="-7.6777517"><ele>120.0</ele><time>2026-05-05T09:35:57.217Z</time></trkpt><trkpt lat="52.682255" lon="-7.6780283"><ele>120.0</ele><time>2026-05-05T09:35:58.216Z</time></trkpt><trkpt lat="52.6820017" lon="-7.6783"><ele>120.5</ele><time>2026-05-05T09:35:59.217Z</time></trkpt><trkpt lat="52.68175" lon="-7.6785683"><ele>121.0</ele><time>2026-05-05T09:36:00.217Z</time></trkpt><trkpt lat="52.6815083" lon="-7.6788483"><ele>120.0</ele><time>2026-05-05T09:36:01.217Z</time></trkpt><trkpt lat="52.6812733" lon="-7.6791267"><ele>119.0</ele><time>2026-05-05T09:36:02.217Z</time></trkpt><trkpt lat="52.6810367" lon="-7.679405"><ele>119.0</ele><time>2026-05-05T09:36:03.216Z</time></trkpt><trkpt lat="52.6808" lon="-7.67969"><ele>119.0</ele><time>2026-05-05T09:36:04.217Z</time></trkpt><trkpt lat="52.6805683" lon="-7.6799933"><ele>119.0</ele><time>2026-05-05T09:36:05.217Z</time></trkpt><trkpt lat="52.6803267" lon="-7.680285"><ele>119.0</ele><time>2026-05-05T09:36:06.217Z</time></trkpt><trkpt lat="52.6800867" lon="-7.68056"><ele>118.5</ele><time>2026-05-05T09:36:07.217Z</time></trkpt><trkpt lat="52.6798483" lon="-7.680835"><ele>118.0</ele><time>2026-05-05T09:36:08.216Z</time></trkpt><trkpt lat="52.6796083" lon="-7.6811317"><ele>118.0</ele><time>2026-05-05T09:36:09.217Z</time></trkpt><trkpt lat="52.6793733" lon="-7.6814133"><ele>118.0</ele><time>2026-05-05T09:36:10.217Z</time></trkpt><trkpt lat="52.679145" lon="-7.6816917"><ele>118.0</ele><time>2026-05-05T09:36:11.216Z</time></trkpt><trkpt lat="52.6789" lon="-7.68196"><ele>118.0</ele><time>2026-05-05T09:36:12.217Z</time></trkpt><trkpt lat="52.6786617" lon="-7.6822267"><ele>118.0</ele><time>2026-05-05T09:36:13.217Z</time></trkpt><trkpt lat="52.6784117" lon="-7.6825"><ele>118.0</ele><time>2026-05-05T09:36:14.217Z</time></trkpt><trkpt lat="52.6781583" lon="-7.682775"><ele>118.0</ele><time>2026-05-05T09:36:15.216Z</time></trkpt><trkpt lat="52.6779183" lon="-7.6830683"><ele>118.0</ele><time>2026-05-05T09:36:16.217Z</time></trkpt><trkpt lat="52.6776733" lon="-7.6833667"><ele>118.5</ele><time>2026-05-05T09:36:17.217Z</time></trkpt><trkpt lat="52.677425" lon="-7.6836683"><ele>119.0</ele><time>2026-05-05T09:36:18.217Z</time></trkpt><trkpt lat="52.67718" lon="-7.6839617"><ele>119.0</ele><time>2026-05-05T09:36:19.217Z</time></trkpt><trkpt lat="52.6769383" lon="-7.6842583"><ele>119.0</ele><time>2026-05-05T09:36:20.217Z</time></trkpt><trkpt lat="52.6767" lon="-7.6845783"><ele>118.0</ele><time>2026-05-05T09:36:21.217Z</time></trkpt><trkpt lat="52.6764717" lon="-7.68488"><ele>117.0</ele><time>2026-05-05T09:36:22.216Z</time></trkpt><trkpt lat="52.6762367" lon="-7.685185"><ele>117.0</ele><time>2026-05-05T09:36:23.216Z</time></trkpt><trkpt lat="52.676" lon="-7.685495"><ele>117.0</ele><time>2026-05-05T09:36:24.217Z</time></trkpt><trkpt lat="52.6757533" lon="-7.6858317"><ele>117.0</ele><time>2026-05-05T09:36:25.217Z</time></trkpt><trkpt lat="52.6755" lon="-7.6861733"><ele>117.0</ele><time>2026-05-05T09:36:26.216Z</time></trkpt><trkpt lat="52.6752433" lon="-7.686525"><ele>116.5</ele><time>2026-05-05T09:36:27.217Z</time></trkpt><trkpt lat="52.6749783" lon="-7.68689"><ele>116.0</ele><time>2026-05-05T09:36:28.217Z</time></trkpt><trkpt lat="52.6747167" lon="-7.6872517"><ele>116.0</ele><time>2026-05-05T09:36:29.217Z</time></trkpt><trkpt lat="52.674445" lon="-7.687645"><ele>116.0</ele><time>2026-05-05T09:36:30.217Z</time></trkpt><trkpt lat="52.6741717" lon="-7.6880183"><ele>116.0</ele><time>2026-05-05T09:36:31.217Z</time></trkpt><trkpt lat="52.673905" lon="-7.688395"><ele>116.0</ele><time>2026-05-05T09:36:32.217Z</time></trkpt><trkpt lat="52.67364" lon="-7.68877"><ele>116.5</ele><time>2026-05-05T09:36:33.217Z</time></trkpt><trkpt lat="52.673395" lon="-7.6891583"><ele>117.0</ele><time>2026-05-05T09:36:34.216Z</time></trkpt><trkpt lat="52.6731433" lon="-7.6895317"><ele>118.0</ele><time>2026-05-05T09:36:35.216Z</time></trkpt><trkpt lat="52.6729117" lon="-7.6899033"><ele>119.0</ele><time>2026-05-05T09:36:36.216Z</time></trkpt><trkpt lat="52.6726833" lon="-7.6902917"><ele>119.0</ele><time>2026-05-05T09:36:37.217Z</time></trkpt><trkpt lat="52.67246" lon="-7.6907017"><ele>119.0</ele><time>2026-05-05T09:36:38.217Z</time></trkpt><trkpt lat="52.6721983" lon="-7.6911183"><ele>119.0</ele><time>2026-05-05T09:36:39.217Z</time></trkpt><trkpt lat="52.671955" lon="-7.691545"><ele>119.0</ele><time>2026-05-05T09:36:40.217Z</time></trkpt><trkpt lat="52.67171" lon="-7.69198"><ele>119.0</ele><time>2026-05-05T09:36:41.217Z</time></trkpt><trkpt lat="52.6714633" lon="-7.6924117"><ele>119.0</ele><time>2026-05-05T09:36:42.216Z</time></trkpt><trkpt lat="52.6712133" lon="-7.6928417"><ele>118.5</ele><time>2026-05-05T09:36:43.216Z</time></trkpt><trkpt lat="52.6709733" lon="-7.6932583"><ele>118.0</ele><time>2026-05-05T09:36:44.216Z</time></trkpt><trkpt lat="52.6707333" lon="-7.6936667"><ele>118.0</ele><time>2026-05-05T09:36:45.217Z</time></trkpt><trkpt lat="52.6705" lon="-7.694075"><ele>118.0</ele><time>2026-05-05T09:36:46.217Z</time></trkpt><trkpt lat="52.6702867" lon="-7.6944817"><ele>118.0</ele><time>2026-05-05T09:36:47.216Z</time></trkpt><trkpt lat="52.6700883" lon="-7.6948733"><ele>118.0</ele><time>2026-05-05T09:36:48.216Z</time></trkpt><trkpt lat="52.6698833" lon="-7.6953033"><ele>118.5</ele><time>2026-05-05T09:36:49.217Z</time></trkpt><trkpt lat="52.6696917" lon="-7.6956717"><ele>119.0</ele><time>2026-05-05T09:36:50.216Z</time></trkpt><trkpt lat="52.6695117" lon="-7.6960333"><ele>121.0</ele><time>2026-05-05T09:36:51.217Z</time></trkpt><trkpt lat="52.6693283" lon="-7.6963817"><ele>123.0</ele><time>2026-05-05T09:36:52.217Z</time></trkpt><trkpt lat="52.6691317" lon="-7.696745"><ele>124.0</ele><time>2026-05-05T09:36:53.217Z</time></trkpt><trkpt lat="52.6689533" lon="-7.697115"><ele>125.0</ele><time>2026-05-05T09:36:54.217Z</time></trkpt><trkpt lat="52.6687733" lon="-7.6974883"><ele>125.0</ele><time>2026-05-05T09:36:55.217Z</time></trkpt><trkpt lat="52.6685933" lon="-7.6978617"><ele>125.0</ele><time>2026-05-05T09:36:56.217Z</time></trkpt><trkpt lat="52.6684167" lon="-7.6982417"><ele>126.0</ele><time>2026-05-05T09:36:57.217Z</time></trkpt><trkpt lat="52.6682317" lon="-7.6986083"><ele>127.0</ele><time>2026-05-05T09:36:58.217Z</time></trkpt><trkpt lat="52.66807" lon="-7.6989717"><ele>127.0</ele><time>2026-05-05T09:36:59.217Z</time></trkpt><trkpt lat="52.6678967" lon="-7.69935"><ele>127.0</ele><time>2026-05-05T09:37:00.217Z</time></trkpt><trkpt lat="52.6677317" lon="-7.6997267"><ele>126.0</ele><time>2026-05-05T09:37:01.217Z</time></trkpt><trkpt lat="52.6675633" lon="-7.7000817"><ele>125.0</ele><time>2026-05-05T09:37:02.217Z</time></trkpt><trkpt lat="52.6673967" lon="-7.70047"><ele>124.5</ele><time>2026-05-05T09:37:03.216Z</time></trkpt><trkpt lat="52.6672383" lon="-7.70087"><ele>124.0</ele><time>2026-05-05T09:37:04.217Z</time></trkpt><trkpt lat="52.667075" lon="-7.70126"><ele>123.5</ele><time>2026-05-05T09:37:05.216Z</time></trkpt><trkpt lat="52.666915" lon="-7.7016517"><ele>123.0</ele><time>2026-05-05T09:37:06.217Z</time></trkpt><trkpt lat="52.6667583" lon="-7.7020283"><ele>122.5</ele><time>2026-05-05T09:37:07.217Z</time></trkpt><trkpt lat="52.6666033" lon="-7.70242"><ele>122.0</ele><time>2026-05-05T09:37:08.216Z</time></trkpt><trkpt lat="52.66644" lon="-7.7028"><ele>121.0</ele><time>2026-05-05T09:37:09.216Z</time></trkpt><trkpt lat="52.6662833" lon="-7.7031917"><ele>120.0</ele><time>2026-05-05T09:37:10.217Z</time></trkpt><trkpt lat="52.6661317" lon="-7.703595"><ele>119.0</ele><time>2026-05-05T09:37:11.216Z</time></trkpt><trkpt lat="52.6659683" lon="-7.7040117"><ele>118.0</ele><time>2026-05-05T09:37:12.216Z</time></trkpt><trkpt lat="52.66582" lon="-7.7044083"><ele>117.5</ele><time>2026-05-05T09:37:13.216Z</time></trkpt><trkpt lat="52.6656633" lon="-7.7048"><ele>117.0</ele><time>2026-05-05T09:37:14.217Z</time></trkpt><trkpt lat="52.665525" lon="-7.7052017"><ele>117.0</ele><time>2026-05-05T09:37:15.217Z</time></trkpt><trkpt lat="52.66537" lon="-7.70561"><ele>117.0</ele><time>2026-05-05T09:37:16.217Z</time></trkpt><trkpt lat="52.6652233" lon="-7.70602"><ele>117.5</ele><time>2026-05-05T09:37:17.217Z</time></trkpt><trkpt lat="52.6650817" lon="-7.706425"><ele>118.0</ele><time>2026-05-05T09:37:18.216Z</time></trkpt><trkpt lat="52.6649367" lon="-7.7068317"><ele>117.5</ele><time>2026-05-05T09:37:19.217Z</time></trkpt><trkpt lat="52.664805" lon="-7.7072567"><ele>117.0</ele><time>2026-05-05T09:37:20.217Z</time></trkpt><trkpt lat="52.6646733" lon="-7.70769"><ele>117.5</ele><time>2026-05-05T09:37:21.217Z</time></trkpt><trkpt lat="52.6645367" lon="-7.7081183"><ele>118.0</ele><time>2026-05-05T09:37:22.217Z</time></trkpt><trkpt lat="52.6643967" lon="-7.7085433"><ele>117.0</ele><time>2026-05-05T09:37:23.217Z</time></trkpt><trkpt lat="52.6642667" lon="-7.70897"><ele>116.0</ele><time>2026-05-05T09:37:24.216Z</time></trkpt><trkpt lat="52.66413" lon="-7.7093867"><ele>116.5</ele><time>2026-05-05T09:37:25.216Z</time></trkpt><trkpt lat="52.6640017" lon="-7.7098033"><ele>117.0</ele><time>2026-05-05T09:37:26.217Z</time></trkpt><trkpt lat="52.6638667" lon="-7.71023"><ele>117.0</ele><time>2026-05-05T09:37:27.217Z</time></trkpt><trkpt lat="52.6637417" lon="-7.7106533"><ele>117.0</ele><time>2026-05-05T09:37:28.217Z</time></trkpt><trkpt lat="52.6636083" lon="-7.7110817"><ele>117.0</ele><time>2026-05-05T09:37:29.217Z</time></trkpt><trkpt lat="52.6634817" lon="-7.7115017"><ele>117.0</ele><time>2026-05-05T09:37:30.216Z</time></trkpt><trkpt lat="52.6633583" lon="-7.7119317"><ele>117.0</ele><time>2026-05-05T09:37:31.217Z</time></trkpt><trkpt lat="52.6632333" lon="-7.7123767"><ele>117.0</ele><time>2026-05-05T09:37:32.216Z</time></trkpt><trkpt lat="52.66311" lon="-7.71282"><ele>117.0</ele><time>2026-05-05T09:37:33.216Z</time></trkpt><trkpt lat="52.6629867" lon="-7.7132633"><ele>117.0</ele><time>2026-05-05T09:37:34.217Z</time></trkpt><trkpt lat="52.6628733" lon="-7.7137033"><ele>117.5</ele><time>2026-05-05T09:37:35.217Z</time></trkpt><trkpt lat="52.6627567" lon="-7.714145"><ele>118.0</ele><time>2026-05-05T09:37:36.217Z</time></trkpt><trkpt lat="52.662645" lon="-7.7145733"><ele>118.0</ele><time>2026-05-05T09:37:37.216Z</time></trkpt><trkpt lat="52.662535" lon="-7.7150167"><ele>118.0</ele><time>2026-05-05T09:37:38.217Z</time></trkpt><trkpt lat="52.6624267" lon="-7.71546"><ele>117.5</ele><time>2026-05-05T09:37:39.217Z</time></trkpt><trkpt lat="52.6623233" lon="-7.7158967"><ele>117.0</ele><time>2026-05-05T09:37:40.216Z</time></trkpt><trkpt lat="52.66222" lon="-7.71634"><ele>116.5</ele><time>2026-05-05T09:37:41.217Z</time></trkpt><trkpt lat="52.662105" lon="-7.7167933"><ele>116.0</ele><time>2026-05-05T09:37:42.217Z</time></trkpt><trkpt lat="52.6619967" lon="-7.7172417"><ele>116.0</ele><time>2026-05-05T09:37:43.216Z</time></trkpt><trkpt lat="52.6618917" lon="-7.717685"><ele>116.0</ele><time>2026-05-05T09:37:44.216Z</time></trkpt><trkpt lat="52.6618017" lon="-7.71813"><ele>116.0</ele><time>2026-05-05T09:37:45.216Z</time></trkpt><trkpt lat="52.6617033" lon="-7.7185817"><ele>116.0</ele><time>2026-05-05T09:37:46.217Z</time></trkpt><trkpt lat="52.661615" lon="-7.71904"><ele>116.5</ele><time>2026-05-05T09:37:47.217Z</time></trkpt><trkpt lat="52.661525" lon="-7.71949"><ele>117.0</ele><time>2026-05-05T09:37:48.216Z</time></trkpt><trkpt lat="52.66143" lon="-7.71994"><ele>117.0</ele><time>2026-05-05T09:37:49.217Z</time></trkpt><trkpt lat="52.661335" lon="-7.7203917"><ele>117.0</ele><time>2026-05-05T09:37:50.217Z</time></trkpt><trkpt lat="52.6612367" lon="-7.7208417"><ele>117.5</ele><time>2026-05-05T09:37:51.217Z</time></trkpt><trkpt lat="52.6611483" lon="-7.7213067"><ele>118.0</ele><time>2026-05-05T09:37:52.216Z</time></trkpt><trkpt lat="52.661065" lon="-7.721775"><ele>118.0</ele><time>2026-05-05T09:37:53.216Z</time></trkpt><trkpt lat="52.66098" lon="-7.722255"><ele>118.0</ele><time>2026-05-05T09:37:54.216Z</time></trkpt><trkpt lat="52.660905" lon="-7.7227367"><ele>118.0</ele><time>2026-05-05T09:37:55.217Z</time></trkpt><trkpt lat="52.6608233" lon="-7.7232283"><ele>118.0</ele><time>2026-05-05T09:37:56.217Z</time></trkpt><trkpt lat="52.6607333" lon="-7.7237183"><ele>118.0</ele><time>2026-05-05T09:37:57.217Z</time></trkpt><trkpt lat="52.660655" lon="-7.7242"><ele>118.0</ele><time>2026-05-05T09:37:58.217Z</time></trkpt><trkpt lat="52.6605733" lon="-7.7246817"><ele>119.0</ele><time>2026-05-05T09:37:59.216Z</time></trkpt><trkpt lat="52.6604967" lon="-7.7251733"><ele>120.0</ele><time>2026-05-05T09:38:00.216Z</time></trkpt><trkpt lat="52.6604333" lon="-7.7256567"><ele>120.0</ele><time>2026-05-05T09:38:01.217Z</time></trkpt><trkpt lat="52.6603417" lon="-7.7261283"><ele>120.0</ele><time>2026-05-05T09:38:02.217Z</time></trkpt><trkpt lat="52.6602683" lon="-7.7266167"><ele>120.5</ele><time>2026-05-05T09:38:03.217Z</time></trkpt><trkpt lat="52.6602017" lon="-7.72709"><ele>121.0</ele><time>2026-05-05T09:38:04.217Z</time></trkpt><trkpt lat="52.6601133" lon="-7.7275417"><ele>121.0</ele><time>2026-05-05T09:38:05.217Z</time></trkpt><trkpt lat="52.66" lon="-7.728015"><ele>121.0</ele><time>2026-05-05T09:38:06.216Z</time></trkpt><trkpt lat="52.6599017" lon="-7.7284667"><ele>120.5</ele><time>2026-05-05T09:38:07.217Z</time></trkpt><trkpt lat="52.6597867" lon="-7.7289317"><ele>120.0</ele><time>2026-05-05T09:38:08.217Z</time></trkpt><trkpt lat="52.6596833" lon="-7.729365"><ele>120.5</ele><time>2026-05-05T09:38:09.217Z</time></trkpt><trkpt lat="52.6595683" lon="-7.729795"><ele>121.0</ele><time>2026-05-05T09:38:10.217Z</time></trkpt><trkpt lat="52.659455" lon="-7.730225"><ele>120.0</ele><time>2026-05-05T09:38:11.217Z</time></trkpt><trkpt lat="52.6593167" lon="-7.7306567"><ele>119.0</ele><time>2026-05-05T09:38:12.217Z</time></trkpt><trkpt lat="52.6591933" lon="-7.7310733"><ele>119.0</ele><time>2026-05-05T09:38:13.217Z</time></trkpt><trkpt lat="52.6590417" lon="-7.731505"><ele>119.0</ele><time>2026-05-05T09:38:14.216Z</time></trkpt><trkpt lat="52.6588933" lon="-7.7319267"><ele>119.0</ele><time>2026-05-05T09:38:15.217Z</time></trkpt><trkpt lat="52.6587633" lon="-7.7323467"><ele>119.0</ele><time>2026-05-05T09:38:16.217Z</time></trkpt><trkpt lat="52.6586267" lon="-7.73278"><ele>118.0</ele><time>2026-05-05T09:38:17.216Z</time></trkpt><trkpt lat="52.658485" lon="-7.7332"><ele>117.0</ele><time>2026-05-05T09:38:18.217Z</time></trkpt><trkpt lat="52.6583267" lon="-7.733625"><ele>116.0</ele><time>2026-05-05T09:38:19.217Z</time></trkpt><trkpt lat="52.658185" lon="-7.7340567"><ele>115.0</ele><time>2026-05-05T09:38:20.217Z</time></trkpt><trkpt lat="52.65803" lon="-7.734475"><ele>114.0</ele><time>2026-05-05T09:38:21.217Z</time></trkpt><trkpt lat="52.657865" lon="-7.73488"><ele>113.0</ele><time>2026-05-05T09:38:22.217Z</time></trkpt><trkpt lat="52.6576917" lon="-7.7352883"><ele>113.0</ele><time>2026-05-05T09:38:23.216Z</time></trkpt><trkpt lat="52.6575383" lon="-7.73569"><ele>113.0</ele><time>2026-05-05T09:38:24.217Z</time></trkpt><trkpt lat="52.657365" lon="-7.73608"><ele>113.0</ele><time>2026-05-05T09:38:25.217Z</time></trkpt><trkpt lat="52.65718" lon="-7.7364817"><ele>113.0</ele><time>2026-05-05T09:38:26.216Z</time></trkpt><trkpt lat="52.6569883" lon="-7.7368933"><ele>113.5</ele><time>2026-05-05T09:38:27.217Z</time></trkpt><trkpt lat="52.6567983" lon="-7.7372767"><ele>114.0</ele><time>2026-05-05T09:38:28.217Z</time></trkpt><trkpt lat="52.65659" lon="-7.737685"><ele>114.0</ele><time>2026-05-05T09:38:29.217Z</time></trkpt><trkpt lat="52.656405" lon="-7.7380783"><ele>114.0</ele><time>2026-05-05T09:38:30.217Z</time></trkpt><trkpt lat="52.6561867" lon="-7.7384767"><ele>115.0</ele><time>2026-05-05T09:38:31.217Z</time></trkpt><trkpt lat="52.6559633" lon="-7.7388817"><ele>116.0</ele><time>2026-05-05T09:38:32.217Z</time></trkpt><trkpt lat="52.6557483" lon="-7.739275"><ele>116.5</ele><time>2026-05-05T09:38:33.217Z</time></trkpt><trkpt lat="52.655525" lon="-7.7396767"><ele>117.0</ele><time>2026-05-05T09:38:34.216Z</time></trkpt><trkpt lat="52.6553083" lon="-7.7400833"><ele>116.0</ele><time>2026-05-05T09:38:35.217Z</time></trkpt><trkpt lat="52.6550983" lon="-7.7405083"><ele>115.0</ele><time>2026-05-05T09:38:36.217Z</time></trkpt><trkpt lat="52.6548733" lon="-7.7409317"><ele>115.0</ele><time>2026-05-05T09:38:37.217Z</time></trkpt><trkpt lat="52.6546467" lon="-7.7413383"><ele>115.0</ele><time>2026-05-05T09:38:38.216Z</time></trkpt><trkpt lat="52.6544167" lon="-7.741725"><ele>115.0</ele><time>2026-05-05T09:38:39.217Z</time></trkpt><trkpt lat="52.6541883" lon="-7.7421083"><ele>115.0</ele><time>2026-05-05T09:38:40.217Z</time></trkpt><trkpt lat="52.65397" lon="-7.742495"><ele>115.0</ele><time>2026-05-05T09:38:41.217Z</time></trkpt><trkpt lat="52.6537833" lon="-7.7428867"><ele>115.0</ele><time>2026-05-05T09:38:42.217Z</time></trkpt><trkpt lat="52.6536033" lon="-7.7432683"><ele>115.5</ele><time>2026-05-05T09:38:43.216Z</time></trkpt><trkpt lat="52.6533717" lon="-7.74366"><ele>116.0</ele><time>2026-05-05T09:38:44.217Z</time></trkpt><trkpt lat="52.653145" lon="-7.7440617"><ele>116.0</ele><time>2026-05-05T09:38:45.217Z</time></trkpt><trkpt lat="52.6529267" lon="-7.7444617"><ele>116.0</ele><time>2026-05-05T09:38:46.217Z</time></trkpt><trkpt lat="52.6527117" lon="-7.7448283"><ele>116.5</ele><time>2026-05-05T09:38:47.217Z</time></trkpt><trkpt lat="52.6524833" lon="-7.7451883"><ele>117.0</ele><time>2026-05-05T09:38:48.217Z</time></trkpt><trkpt lat="52.6522667" lon="-7.7455467"><ele>117.0</ele><time>2026-05-05T09:38:49.217Z</time></trkpt><trkpt lat="52.652025" lon="-7.7459017"><ele>117.0</ele><time>2026-05-05T09:38:50.216Z</time></trkpt><trkpt lat="52.6517983" lon="-7.74627"><ele>117.5</ele><time>2026-05-05T09:38:51.217Z</time></trkpt><trkpt lat="52.6515733" lon="-7.7466233"><ele>118.0</ele><time>2026-05-05T09:38:52.217Z</time></trkpt><trkpt lat="52.6513533" lon="-7.7469683"><ele>118.0</ele><time>2026-05-05T09:38:53.216Z</time></trkpt><trkpt lat="52.65113" lon="-7.7473183"><ele>118.0</ele><time>2026-05-05T09:38:54.217Z</time></trkpt><trkpt lat="52.6508867" lon="-7.7476483"><ele>118.0</ele><time>2026-05-05T09:38:55.216Z</time></trkpt><trkpt lat="52.65064" lon="-7.7479683"><ele>118.0</ele><time>2026-05-05T09:38:56.216Z</time></trkpt><trkpt lat="52.650395" lon="-7.74829"><ele>118.0</ele><time>2026-05-05T09:38:57.217Z</time></trkpt><trkpt lat="52.6501467" lon="-7.7486083"><ele>118.0</ele><time>2026-05-05T09:38:58.216Z</time></trkpt><trkpt lat="52.6498917" lon="-7.74892"><ele>118.0</ele><time>2026-05-05T09:38:59.217Z</time></trkpt><trkpt lat="52.64965" lon="-7.7492133"><ele>118.0</ele><time>2026-05-05T09:39:00.217Z</time></trkpt><trkpt lat="52.649395" lon="-7.7495217"><ele>116.5</ele><time>2026-05-05T09:39:01.217Z</time></trkpt><trkpt lat="52.6491533" lon="-7.749805"><ele>115.0</ele><time>2026-05-05T09:39:02.216Z</time></trkpt><trkpt lat="52.6489233" lon="-7.750085"><ele>114.0</ele><time>2026-05-05T09:39:03.217Z</time></trkpt><trkpt lat="52.6486883" lon="-7.7503533"><ele>113.0</ele><time>2026-05-05T09:39:04.217Z</time></trkpt><trkpt lat="52.6484533" lon="-7.750635"><ele>112.5</ele><time>2026-05-05T09:39:05.217Z</time></trkpt><trkpt lat="52.64821" lon="-7.7509033"><ele>112.0</ele><time>2026-05-05T09:39:06.217Z</time></trkpt><trkpt lat="52.6479667" lon="-7.7511583"><ele>111.0</ele><time>2026-05-05T09:39:07.217Z</time></trkpt><trkpt lat="52.64772" lon="-7.7514233"><ele>110.0</ele><time>2026-05-05T09:39:08.217Z</time></trkpt><trkpt lat="52.647475" lon="-7.75169"><ele>110.5</ele><time>2026-05-05T09:39:09.216Z</time></trkpt><trkpt lat="52.6472183" lon="-7.7519433"><ele>111.0</ele><time>2026-05-05T09:39:10.217Z</time></trkpt><trkpt lat="52.6469633" lon="-7.7521983"><ele>111.0</ele><time>2026-05-05T09:39:11.217Z</time></trkpt><trkpt lat="52.646705" lon="-7.7524483"><ele>111.0</ele><time>2026-05-05T09:39:12.217Z</time></trkpt><trkpt lat="52.6464367" lon="-7.7526917"><ele>111.0</ele><time>2026-05-05T09:39:13.217Z</time></trkpt><trkpt lat="52.6461683" lon="-7.7529383"><ele>111.0</ele><time>2026-05-05T09:39:14.216Z</time></trkpt><trkpt lat="52.6459033" lon="-7.7531817"><ele>111.0</ele><time>2026-05-05T09:39:15.217Z</time></trkpt><trkpt lat="52.64564" lon="-7.7534217"><ele>111.0</ele><time>2026-05-05T09:39:16.217Z</time></trkpt><trkpt lat="52.6453783" lon="-7.753645"><ele>111.0</ele><time>2026-05-05T09:39:17.216Z</time></trkpt><trkpt lat="52.6451133" lon="-7.7538617"><ele>111.0</ele><time>2026-05-05T09:39:18.217Z</time></trkpt><trkpt lat="52.6448417" lon="-7.7540733"><ele>111.0</ele><time>2026-05-05T09:39:19.216Z</time></trkpt><trkpt lat="52.6445833" lon="-7.7542967"><ele>111.0</ele><time>2026-05-05T09:39:20.217Z</time></trkpt><trkpt lat="52.6443217" lon="-7.7545133"><ele>111.0</ele><time>2026-05-05T09:39:21.217Z</time></trkpt><trkpt lat="52.64406" lon="-7.754735"><ele>111.0</ele><time>2026-05-05T09:39:22.216Z</time></trkpt><trkpt lat="52.6438117" lon="-7.7549317"><ele>110.0</ele><time>2026-05-05T09:39:23.217Z</time></trkpt><trkpt lat="52.643555" lon="-7.75513"><ele>109.0</ele><time>2026-05-05T09:39:24.217Z</time></trkpt><trkpt lat="52.643295" lon="-7.7553317"><ele>108.5</ele><time>2026-05-05T09:39:25.217Z</time></trkpt><trkpt lat="52.64303" lon="-7.75554"><ele>108.0</ele><time>2026-05-05T09:39:26.217Z</time></trkpt><trkpt lat="52.6427617" lon="-7.7557433"><ele>107.5</ele><time>2026-05-05T09:39:27.216Z</time></trkpt><trkpt lat="52.6425" lon="-7.75594"><ele>107.0</ele><time>2026-05-05T09:39:28.216Z</time></trkpt><trkpt lat="52.6422433" lon="-7.7561483"><ele>106.5</ele><time>2026-05-05T09:39:29.216Z</time></trkpt><trkpt lat="52.64199" lon="-7.756345"><ele>106.0</ele><time>2026-05-05T09:39:30.217Z</time></trkpt><trkpt lat="52.64172" lon="-7.75656"><ele>106.0</ele><time>2026-05-05T09:39:31.216Z</time></trkpt><trkpt lat="52.64144" lon="-7.7567767"><ele>106.0</ele><time>2026-05-05T09:39:32.217Z</time></trkpt><trkpt lat="52.64116" lon="-7.756995"><ele>107.0</ele><time>2026-05-05T09:39:33.216Z</time></trkpt><trkpt lat="52.6408817" lon="-7.75722"><ele>108.0</ele><time>2026-05-05T09:39:34.216Z</time></trkpt><trkpt lat="52.6406" lon="-7.7574483"><ele>108.0</ele><time>2026-05-05T09:39:35.217Z</time></trkpt><trkpt lat="52.6403333" lon="-7.7576617"><ele>108.0</ele><time>2026-05-05T09:39:36.216Z</time></trkpt><trkpt lat="52.6400633" lon="-7.7578717"><ele>107.0</ele><time>2026-05-05T09:39:37.216Z</time></trkpt><trkpt lat="52.6397983" lon="-7.75808"><ele>106.0</ele><time>2026-05-05T09:39:38.217Z</time></trkpt><trkpt lat="52.6395233" lon="-7.7583017"><ele>107.0</ele><time>2026-05-05T09:39:39.217Z</time></trkpt><trkpt lat="52.6392667" lon="-7.7585167"><ele>108.0</ele><time>2026-05-05T09:39:40.216Z</time></trkpt><trkpt lat="52.6390167" lon="-7.7587383"><ele>108.5</ele><time>2026-05-05T09:39:41.217Z</time></trkpt><trkpt lat="52.6387783" lon="-7.758945"><ele>109.0</ele><time>2026-05-05T09:39:42.216Z</time></trkpt><trkpt lat="52.638525" lon="-7.759155"><ele>109.5</ele><time>2026-05-05T09:39:43.217Z</time></trkpt><trkpt lat="52.638275" lon="-7.7593567"><ele>110.0</ele><time>2026-05-05T09:39:44.216Z</time></trkpt><trkpt lat="52.6380133" lon="-7.7595533"><ele>110.5</ele><time>2026-05-05T09:39:45.217Z</time></trkpt><trkpt lat="52.6377583" lon="-7.7597517"><ele>111.0</ele><time>2026-05-05T09:39:46.217Z</time></trkpt><trkpt lat="52.6375" lon="-7.7599717"><ele>111.0</ele><time>2026-05-05T09:39:47.217Z</time></trkpt><trkpt lat="52.63724" lon="-7.7601933"><ele>111.0</ele><time>2026-05-05T09:39:48.217Z</time></trkpt><trkpt lat="52.6369783" lon="-7.7604083"><ele>110.0</ele><time>2026-05-05T09:39:49.217Z</time></trkpt><trkpt lat="52.6367133" lon="-7.7606217"><ele>109.0</ele><time>2026-05-05T09:39:50.216Z</time></trkpt><trkpt lat="52.6364467" lon="-7.76082"><ele>109.0</ele><time>2026-05-05T09:39:51.217Z</time></trkpt><trkpt lat="52.6361817" lon="-7.76102"><ele>109.0</ele><time>2026-05-05T09:39:52.216Z</time></trkpt><trkpt lat="52.635925" lon="-7.76123"><ele>108.5</ele><time>2026-05-05T09:39:53.216Z</time></trkpt><trkpt lat="52.6356733" lon="-7.7614167"><ele>108.0</ele><time>2026-05-05T09:39:54.217Z</time></trkpt><trkpt lat="52.6354267" lon="-7.76161"><ele>108.0</ele><time>2026-05-05T09:39:55.217Z</time></trkpt><trkpt lat="52.6351817" lon="-7.7618067"><ele>108.0</ele><time>2026-05-05T09:39:56.216Z</time></trkpt><trkpt lat="52.6349383" lon="-7.7620083"><ele>108.0</ele><time>2026-05-05T09:39:57.217Z</time></trkpt><trkpt lat="52.63469" lon="-7.7622283"><ele>108.0</ele><time>2026-05-05T09:39:58.216Z</time></trkpt><trkpt lat="52.6344417" lon="-7.7624333"><ele>108.5</ele><time>2026-05-05T09:39:59.216Z</time></trkpt><trkpt lat="52.6341883" lon="-7.7626467"><ele>109.0</ele><time>2026-05-05T09:40:00.217Z</time></trkpt><trkpt lat="52.633935" lon="-7.76285"><ele>109.0</ele><time>2026-05-05T09:40:01.217Z</time></trkpt><trkpt lat="52.6336783" lon="-7.76305"><ele>109.0</ele><time>2026-05-05T09:40:02.217Z</time></trkpt><trkpt lat="52.63343" lon="-7.763285"><ele>109.0</ele><time>2026-05-05T09:40:03.217Z</time></trkpt><trkpt lat="52.63317" lon="-7.7634883"><ele>109.0</ele><time>2026-05-05T09:40:04.217Z</time></trkpt><trkpt lat="52.6329117" lon="-7.76367"><ele>109.5</ele><time>2026-05-05T09:40:05.217Z</time></trkpt><trkpt lat="52.6326567" lon="-7.763875"><ele>110.0</ele><time>2026-05-05T09:40:06.217Z</time></trkpt><trkpt lat="52.632405" lon="-7.7640833"><ele>110.0</ele><time>2026-05-05T09:40:07.216Z</time></trkpt><trkpt lat="52.6321517" lon="-7.76428"><ele>110.0</ele><time>2026-05-05T09:40:08.217Z</time></trkpt><trkpt lat="52.63189" lon="-7.764485"><ele>109.5</ele><time>2026-05-05T09:40:09.216Z</time></trkpt><trkpt lat="52.6316267" lon="-7.7646917"><ele>109.0</ele><time>2026-05-05T09:40:10.216Z</time></trkpt><trkpt lat="52.6313633" lon="-7.7649067"><ele>109.5</ele><time>2026-05-05T09:40:11.217Z</time></trkpt><trkpt lat="52.6311133" lon="-7.7651317"><ele>110.0</ele><time>2026-05-05T09:40:12.217Z</time></trkpt><trkpt lat="52.6308583" lon="-7.7653517"><ele>110.0</ele><time>2026-05-05T09:40:13.217Z</time></trkpt><trkpt lat="52.6305917" lon="-7.7655567"><ele>110.0</ele><time>2026-05-05T09:40:14.217Z</time></trkpt><trkpt lat="52.630325" lon="-7.765765"><ele>110.5</ele><time>2026-05-05T09:40:15.217Z</time></trkpt><trkpt lat="52.6300583" lon="-7.7659783"><ele>111.0</ele><time>2026-05-05T09:40:16.217Z</time></trkpt><trkpt lat="52.629795" lon="-7.7661883"><ele>113.0</ele><time>2026-05-05T09:40:17.217Z</time></trkpt><trkpt lat="52.629525" lon="-7.7664133"><ele>115.0</ele><time>2026-05-05T09:40:18.217Z</time></trkpt><trkpt lat="52.6292633" lon="-7.7666483"><ele>115.5</ele><time>2026-05-05T09:40:19.217Z</time></trkpt><trkpt lat="52.629" lon="-7.7668933"><ele>116.0</ele><time>2026-05-05T09:40:20.217Z</time></trkpt><trkpt lat="52.6287433" lon="-7.76712"><ele>116.0</ele><time>2026-05-05T09:40:21.217Z</time></trkpt><trkpt lat="52.6284833" lon="-7.76736"><ele>116.0</ele><time>2026-05-05T09:40:22.217Z</time></trkpt><trkpt lat="52.62823" lon="-7.76762"><ele>115.5</ele><time>2026-05-05T09:40:23.216Z</time></trkpt><trkpt lat="52.62798" lon="-7.76788"><ele>115.0</ele><time>2026-05-05T09:40:24.216Z</time></trkpt><trkpt lat="52.6277267" lon="-7.7681333"><ele>115.0</ele><time>2026-05-05T09:40:25.217Z</time></trkpt><trkpt lat="52.627485" lon="-7.7683783"><ele>115.0</ele><time>2026-05-05T09:40:26.217Z</time></trkpt><trkpt lat="52.6272367" lon="-7.768645"><ele>115.0</ele><time>2026-05-05T09:40:27.217Z</time></trkpt><trkpt lat="52.6269967" lon="-7.768915"><ele>115.0</ele><time>2026-05-05T09:40:28.217Z</time></trkpt><trkpt lat="52.6267683" lon="-7.76919"><ele>115.0</ele><time>2026-05-05T09:40:29.216Z</time></trkpt><trkpt lat="52.6265367" lon="-7.7694567"><ele>115.0</ele><time>2026-05-05T09:40:30.217Z</time></trkpt><trkpt lat="52.6262983" lon="-7.7697317"><ele>115.0</ele><time>2026-05-05T09:40:31.217Z</time></trkpt><trkpt lat="52.6260617" lon="-7.7700083"><ele>115.0</ele><time>2026-05-05T09:40:32.217Z</time></trkpt><trkpt lat="52.6258133" lon="-7.77031"><ele>115.0</ele><time>2026-05-05T09:40:33.217Z</time></trkpt><trkpt lat="52.625575" lon="-7.7705983"><ele>115.0</ele><time>2026-05-05T09:40:34.217Z</time></trkpt><trkpt lat="52.625355" lon="-7.7709033"><ele>114.0</ele><time>2026-05-05T09:40:35.217Z</time></trkpt><trkpt lat="52.625135" lon="-7.7712083"><ele>113.0</ele><time>2026-05-05T09:40:36.216Z</time></trkpt><trkpt lat="52.6249117" lon="-7.771515"><ele>113.0</ele><time>2026-05-05T09:40:37.217Z</time></trkpt><trkpt lat="52.6246967" lon="-7.7718067"><ele>113.0</ele><time>2026-05-05T09:40:38.217Z</time></trkpt><trkpt lat="52.6244817" lon="-7.7721067"><ele>111.0</ele><time>2026-05-05T09:40:39.217Z</time></trkpt><trkpt lat="52.6242717" lon="-7.7723933"><ele>109.0</ele><time>2026-05-05T09:40:40.217Z</time></trkpt><trkpt lat="52.624065" lon="-7.7726833"><ele>109.5</ele><time>2026-05-05T09:40:41.217Z</time></trkpt><trkpt lat="52.6238533" lon="-7.7729933"><ele>110.0</ele><time>2026-05-05T09:40:42.217Z</time></trkpt><trkpt lat="52.6236433" lon="-7.7733167"><ele>110.5</ele><time>2026-05-05T09:40:43.216Z</time></trkpt><trkpt lat="52.623425" lon="-7.773645"><ele>111.0</ele><time>2026-05-05T09:40:44.216Z</time></trkpt><trkpt lat="52.6232167" lon="-7.7739817"><ele>111.0</ele><time>2026-05-05T09:40:45.216Z</time></trkpt><trkpt lat="52.623" lon="-7.774335"><ele>111.0</ele><time>2026-05-05T09:40:46.217Z</time></trkpt><trkpt lat="52.62277" lon="-7.774675"><ele>111.0</ele><time>2026-05-05T09:40:47.216Z</time></trkpt><trkpt lat="52.6225317" lon="-7.77505"><ele>111.0</ele><time>2026-05-05T09:40:48.217Z</time></trkpt><trkpt lat="52.62232" lon="-7.7754183"><ele>110.5</ele><time>2026-05-05T09:40:49.217Z</time></trkpt><trkpt lat="52.6221217" lon="-7.7757867"><ele>110.0</ele><time>2026-05-05T09:40:50.216Z</time></trkpt><trkpt lat="52.6219233" lon="-7.776145"><ele>110.0</ele><time>2026-05-05T09:40:51.216Z</time></trkpt><trkpt lat="52.6217283" lon="-7.7765"><ele>110.0</ele><time>2026-05-05T09:40:52.217Z</time></trkpt><trkpt lat="52.6215317" lon="-7.7768233"><ele>110.5</ele><time>2026-05-05T09:40:53.216Z</time></trkpt><trkpt lat="52.6213317" lon="-7.77716"><ele>111.0</ele><time>2026-05-05T09:40:54.216Z</time></trkpt><trkpt lat="52.62113" lon="-7.7775017"><ele>111.0</ele><time>2026-05-05T09:40:55.217Z</time></trkpt><trkpt lat="52.6209133" lon="-7.7778483"><ele>111.0</ele><time>2026-05-05T09:40:56.216Z</time></trkpt><trkpt lat="52.62069" lon="-7.7782167"><ele>111.0</ele><time>2026-05-05T09:40:57.216Z</time></trkpt><trkpt lat="52.6204567" lon="-7.7785883"><ele>111.0</ele><time>2026-05-05T09:40:58.217Z</time></trkpt><trkpt lat="52.6202267" lon="-7.7789533"><ele>111.0</ele><time>2026-05-05T09:40:59.216Z</time></trkpt><trkpt lat="52.6199983" lon="-7.779295"><ele>111.0</ele><time>2026-05-05T09:41:00.217Z</time></trkpt><trkpt lat="52.6197667" lon="-7.7796217"><ele>111.0</ele><time>2026-05-05T09:41:01.217Z</time></trkpt><trkpt lat="52.6195467" lon="-7.7799417"><ele>111.0</ele><time>2026-05-05T09:41:02.217Z</time></trkpt><trkpt lat="52.619305" lon="-7.7802533"><ele>111.0</ele><time>2026-05-05T09:41:03.217Z</time></trkpt><trkpt lat="52.6190783" lon="-7.7805467"><ele>111.0</ele><time>2026-05-05T09:41:04.217Z</time></trkpt><trkpt lat="52.6188483" lon="-7.7808283"><ele>111.0</ele><time>2026-05-05T09:41:05.217Z</time></trkpt><trkpt lat="52.618625" lon="-7.7811033"><ele>111.0</ele><time>2026-05-05T09:41:06.217Z</time></trkpt><trkpt lat="52.6183783" lon="-7.781375"><ele>111.0</ele><time>2026-05-05T09:41:07.216Z</time></trkpt><trkpt lat="52.618135" lon="-7.7816483"><ele>111.0</ele><time>2026-05-05T09:41:08.217Z</time></trkpt><trkpt lat="52.6178933" lon="-7.7819217"><ele>111.0</ele><time>2026-05-05T09:41:09.216Z</time></trkpt><trkpt lat="52.6176483" lon="-7.7822"><ele>111.0</ele><time>2026-05-05T09:41:10.216Z</time></trkpt><trkpt lat="52.6173983" lon="-7.78246"><ele>111.0</ele><time>2026-05-05T09:41:11.217Z</time></trkpt><trkpt lat="52.617145" lon="-7.7827283"><ele>111.0</ele><time>2026-05-05T09:41:12.217Z</time></trkpt><trkpt lat="52.6168967" lon="-7.7829733"><ele>111.0</ele><time>2026-05-05T09:41:13.216Z</time></trkpt><trkpt lat="52.6166367" lon="-7.7832267"><ele>111.0</ele><time>2026-05-05T09:41:14.217Z</time></trkpt><trkpt lat="52.6163833" lon="-7.783465"><ele>111.5</ele><time>2026-05-05T09:41:15.217Z</time></trkpt><trkpt lat="52.6161267" lon="-7.7836967"><ele>112.0</ele><time>2026-05-05T09:41:16.216Z</time></trkpt><trkpt lat="52.6158717" lon="-7.7839383"><ele>112.0</ele><time>2026-05-05T09:41:17.217Z</time></trkpt><trkpt lat="52.6156067" lon="-7.7841783"><ele>112.0</ele><time>2026-05-05T09:41:18.217Z</time></trkpt><trkpt lat="52.6153467" lon="-7.7844167"><ele>113.0</ele><time>2026-05-05T09:41:19.217Z</time></trkpt><trkpt lat="52.6150817" lon="-7.7846433"><ele>114.0</ele><time>2026-05-05T09:41:20.216Z</time></trkpt><trkpt lat="52.6148183" lon="-7.7848767"><ele>114.0</ele><time>2026-05-05T09:41:21.217Z</time></trkpt><trkpt lat="52.6145633" lon="-7.785115"><ele>114.0</ele><time>2026-05-05T09:41:22.216Z</time></trkpt><trkpt lat="52.61431" lon="-7.785355"><ele>113.5</ele><time>2026-05-05T09:41:23.217Z</time></trkpt><trkpt lat="52.6140583" lon="-7.7855883"><ele>113.0</ele><time>2026-05-05T09:41:24.217Z</time></trkpt><trkpt lat="52.6138067" lon="-7.78582"><ele>112.5</ele><time>2026-05-05T09:41:25.217Z</time></trkpt><trkpt lat="52.613565" lon="-7.78605"><ele>112.0</ele><time>2026-05-05T09:41:26.217Z</time></trkpt><trkpt lat="52.613325" lon="-7.7862667"><ele>112.0</ele><time>2026-05-05T09:41:27.217Z</time></trkpt><trkpt lat="52.6130967" lon="-7.7865017"><ele>112.0</ele><time>2026-05-05T09:41:28.217Z</time></trkpt><trkpt lat="52.6128717" lon="-7.7867267"><ele>112.0</ele><time>2026-05-05T09:41:29.217Z</time></trkpt><trkpt lat="52.612635" lon="-7.7869467"><ele>112.0</ele><time>2026-05-05T09:41:30.217Z</time></trkpt><trkpt lat="52.612395" lon="-7.7871817"><ele>112.0</ele><time>2026-05-05T09:41:31.217Z</time></trkpt><trkpt lat="52.6121467" lon="-7.787415"><ele>112.0</ele><time>2026-05-05T09:41:32.217Z</time></trkpt><trkpt lat="52.6119067" lon="-7.78766"><ele>111.5</ele><time>2026-05-05T09:41:33.217Z</time></trkpt><trkpt lat="52.6116633" lon="-7.7879117"><ele>111.0</ele><time>2026-05-05T09:41:34.216Z</time></trkpt><trkpt lat="52.6114283" lon="-7.7881733"><ele>111.0</ele><time>2026-05-05T09:41:35.216Z</time></trkpt><trkpt lat="52.6111967" lon="-7.78843"><ele>111.0</ele><time>2026-05-05T09:41:36.217Z</time></trkpt><trkpt lat="52.6109567" lon="-7.788685"><ele>111.5</ele><time>2026-05-05T09:41:37.216Z</time></trkpt><trkpt lat="52.6107183" lon="-7.7889283"><ele>112.0</ele><time>2026-05-05T09:41:38.217Z</time></trkpt><trkpt lat="52.6104833" lon="-7.7891817"><ele>112.0</ele><time>2026-05-05T09:41:39.217Z</time></trkpt><trkpt lat="52.610245" lon="-7.78944"><ele>112.0</ele><time>2026-05-05T09:41:40.216Z</time></trkpt><trkpt lat="52.61" lon="-7.7896983"><ele>112.0</ele><time>2026-05-05T09:41:41.216Z</time></trkpt><trkpt lat="52.6097467" lon="-7.7899533"><ele>112.0</ele><time>2026-05-05T09:41:42.217Z</time></trkpt><trkpt lat="52.6095033" lon="-7.7902117"><ele>113.0</ele><time>2026-05-05T09:41:43.217Z</time></trkpt><trkpt lat="52.6092667" lon="-7.7904767"><ele>114.0</ele><time>2026-05-05T09:41:44.217Z</time></trkpt><trkpt lat="52.6090383" lon="-7.7907517"><ele>113.5</ele><time>2026-05-05T09:41:45.216Z</time></trkpt><trkpt lat="52.6088017" lon="-7.79103"><ele>113.0</ele><time>2026-05-05T09:41:46.216Z</time></trkpt><trkpt lat="52.6085667" lon="-7.7912867"><ele>113.0</ele><time>2026-05-05T09:41:47.216Z</time></trkpt><trkpt lat="52.6083267" lon="-7.7915733"><ele>113.0</ele><time>2026-05-05T09:41:48.217Z</time></trkpt><trkpt lat="52.6081033" lon="-7.79185"><ele>113.0</ele><time>2026-05-05T09:41:49.217Z</time></trkpt><trkpt lat="52.6078717" lon="-7.792125"><ele>113.0</ele><time>2026-05-05T09:41:50.216Z</time></trkpt><trkpt lat="52.607645" lon="-7.79241"><ele>113.5</ele><time>2026-05-05T09:41:51.217Z</time></trkpt><trkpt lat="52.6074133" lon="-7.7926983"><ele>114.0</ele><time>2026-05-05T09:41:52.217Z</time></trkpt><trkpt lat="52.6071783" lon="-7.792995"><ele>114.0</ele><time>2026-05-05T09:41:53.216Z</time></trkpt><trkpt lat="52.6069367" lon="-7.7932917"><ele>114.0</ele><time>2026-05-05T09:41:54.217Z</time></trkpt><trkpt lat="52.6066883" lon="-7.7935883"><ele>114.5</ele><time>2026-05-05T09:41:55.217Z</time></trkpt><trkpt lat="52.6064417" lon="-7.793885"><ele>115.0</ele><time>2026-05-05T09:41:56.217Z</time></trkpt><trkpt lat="52.606195" lon="-7.7942"><ele>114.0</ele><time>2026-05-05T09:41:57.217Z</time></trkpt><trkpt lat="52.6059517" lon="-7.794515"><ele>113.0</ele><time>2026-05-05T09:41:58.217Z</time></trkpt><trkpt lat="52.6057067" lon="-7.7948283"><ele>113.0</ele><time>2026-05-05T09:41:59.216Z</time></trkpt><trkpt lat="52.605465" lon="-7.795145"><ele>113.0</ele><time>2026-05-05T09:42:00.217Z</time></trkpt><trkpt lat="52.6052333" lon="-7.7954783"><ele>112.0</ele><time>2026-05-05T09:42:01.216Z</time></trkpt><trkpt lat="52.605" lon="-7.7957883"><ele>111.0</ele><time>2026-05-05T09:42:02.216Z</time></trkpt><trkpt lat="52.6047667" lon="-7.7960983"><ele>111.0</ele><time>2026-05-05T09:42:03.217Z</time></trkpt><trkpt lat="52.6045333" lon="-7.796415"><ele>111.0</ele><time>2026-05-05T09:42:04.216Z</time></trkpt><trkpt lat="52.6043117" lon="-7.7967217"><ele>110.5</ele><time>2026-05-05T09:42:05.216Z</time></trkpt><trkpt lat="52.6040867" lon="-7.7970567"><ele>110.0</ele><time>2026-05-05T09:42:06.217Z</time></trkpt><trkpt lat="52.6038633" lon="-7.7973683"><ele>110.5</ele><time>2026-05-05T09:42:07.216Z</time></trkpt><trkpt lat="52.6036383" lon="-7.797675"><ele>111.0</ele><time>2026-05-05T09:42:08.216Z</time></trkpt><trkpt lat="52.6034217" lon="-7.7980033"><ele>111.0</ele><time>2026-05-05T09:42:09.216Z</time></trkpt><trkpt lat="52.6032167" lon="-7.7983233"><ele>111.0</ele><time>2026-05-05T09:42:10.217Z</time></trkpt><trkpt lat="52.603" lon="-7.7986383"><ele>112.5</ele><time>2026-05-05T09:42:11.217Z</time></trkpt><trkpt lat="52.602775" lon="-7.7989483"><ele>114.0</ele><time>2026-05-05T09:42:12.217Z</time></trkpt><trkpt lat="52.6025467" lon="-7.7992517"><ele>114.5</ele><time>2026-05-05T09:42:13.217Z</time></trkpt><trkpt lat="52.60232" lon="-7.7995667"><ele>115.0</ele><time>2026-05-05T09:42:14.217Z</time></trkpt><trkpt lat="52.602095" lon="-7.7998983"><ele>116.0</ele><time>2026-05-05T09:42:15.217Z</time></trkpt><trkpt lat="52.6018667" lon="-7.8002267"><ele>117.0</ele><time>2026-05-05T09:42:16.216Z</time></trkpt><trkpt lat="52.6016367" lon="-7.8005517"><ele>117.0</ele><time>2026-05-05T09:42:17.217Z</time></trkpt><trkpt lat="52.6014083" lon="-7.8008917"><ele>117.0</ele><time>2026-05-05T09:42:18.217Z</time></trkpt><trkpt lat="52.6011817" lon="-7.8012233"><ele>116.0</ele><time>2026-05-05T09:42:19.217Z</time></trkpt><trkpt lat="52.6009633" lon="-7.8015767"><ele>115.0</ele><time>2026-05-05T09:42:20.217Z</time></trkpt><trkpt lat="52.6007483" lon="-7.8019233"><ele>114.0</ele><time>2026-05-05T09:42:21.217Z</time></trkpt><trkpt lat="52.6005333" lon="-7.8022717"><ele>113.0</ele><time>2026-05-05T09:42:22.216Z</time></trkpt><trkpt lat="52.60033" lon="-7.8025833"><ele>112.5</ele><time>2026-05-05T09:42:23.217Z</time></trkpt><trkpt lat="52.600125" lon="-7.80288"><ele>112.0</ele><time>2026-05-05T09:42:24.217Z</time></trkpt><trkpt lat="52.5999433" lon="-7.8031717"><ele>112.0</ele><time>2026-05-05T09:42:25.217Z</time></trkpt><trkpt lat="52.599745" lon="-7.8034633"><ele>112.0</ele><time>2026-05-05T09:42:26.216Z</time></trkpt><trkpt lat="52.5995467" lon="-7.8037667"><ele>112.0</ele><time>2026-05-05T09:42:27.217Z</time></trkpt><trkpt lat="52.59934" lon="-7.8041033"><ele>112.0</ele><time>2026-05-05T09:42:28.217Z</time></trkpt><trkpt lat="52.59914" lon="-7.8044483"><ele>113.0</ele><time>2026-05-05T09:42:29.217Z</time></trkpt><trkpt lat="52.59893" lon="-7.8048017"><ele>114.0</ele><time>2026-05-05T09:42:30.217Z</time></trkpt><trkpt lat="52.5987233" lon="-7.80517"><ele>113.5</ele><time>2026-05-05T09:42:31.216Z</time></trkpt><trkpt lat="52.598505" lon="-7.805525"><ele>113.0</ele><time>2026-05-05T09:42:32.217Z</time></trkpt><trkpt lat="52.5982833" lon="-7.80588"><ele>113.5</ele><time>2026-05-05T09:42:33.217Z</time></trkpt><trkpt lat="52.5980617" lon="-7.8062417"><ele>114.0</ele><time>2026-05-05T09:42:34.216Z</time></trkpt><trkpt lat="52.5978417" lon="-7.8066033"><ele>115.0</ele><time>2026-05-05T09:42:35.217Z</time></trkpt><trkpt lat="52.5976217" lon="-7.80697"><ele>116.0</ele><time>2026-05-05T09:42:36.216Z</time></trkpt><trkpt lat="52.5974017" lon="-7.8073183"><ele>116.0</ele><time>2026-05-05T09:42:37.217Z</time></trkpt><trkpt lat="52.5971833" lon="-7.8076717"><ele>116.0</ele><time>2026-05-05T09:42:38.217Z</time></trkpt><trkpt lat="52.59697" lon="-7.8080283"><ele>116.0</ele><time>2026-05-05T09:42:39.217Z</time></trkpt><trkpt lat="52.5967517" lon="-7.808385"><ele>116.0</ele><time>2026-05-05T09:42:40.217Z</time></trkpt><trkpt lat="52.5965267" lon="-7.8087383"><ele>116.5</ele><time>2026-05-05T09:42:41.217Z</time></trkpt><trkpt lat="52.5962967" lon="-7.809065"><ele>117.0</ele><time>2026-05-05T09:42:42.217Z</time></trkpt><trkpt lat="52.5960833" lon="-7.8093967"><ele>117.5</ele><time>2026-05-05T09:42:43.217Z</time></trkpt><trkpt lat="52.5958733" lon="-7.8097217"><ele>118.0</ele><time>2026-05-05T09:42:44.216Z</time></trkpt><trkpt lat="52.59567" lon="-7.810035"><ele>118.5</ele><time>2026-05-05T09:42:45.217Z</time></trkpt><trkpt lat="52.5954667" lon="-7.810365"><ele>119.0</ele><time>2026-05-05T09:42:46.217Z</time></trkpt><trkpt lat="52.5952517" lon="-7.81067"><ele>119.0</ele><time>2026-05-05T09:42:47.217Z</time></trkpt><trkpt lat="52.59504" lon="-7.8110067"><ele>119.0</ele><time>2026-05-05T09:42:48.216Z</time></trkpt><trkpt lat="52.59482" lon="-7.81133"><ele>119.0</ele><time>2026-05-05T09:42:49.217Z</time></trkpt><trkpt lat="52.5945967" lon="-7.8116383"><ele>119.0</ele><time>2026-05-05T09:42:50.217Z</time></trkpt><trkpt lat="52.5943567" lon="-7.8119417"><ele>117.5</ele><time>2026-05-05T09:42:51.217Z</time></trkpt><trkpt lat="52.594125" lon="-7.8122267"><ele>116.0</ele><time>2026-05-05T09:42:52.217Z</time></trkpt><trkpt lat="52.5938917" lon="-7.8125117"><ele>115.0</ele><time>2026-05-05T09:42:53.216Z</time></trkpt><trkpt lat="52.59366" lon="-7.8127867"><ele>114.0</ele><time>2026-05-05T09:42:54.217Z</time></trkpt><trkpt lat="52.59342" lon="-7.81307"><ele>114.0</ele><time>2026-05-05T09:42:55.216Z</time></trkpt><trkpt lat="52.5931717" lon="-7.813345"><ele>114.0</ele><time>2026-05-05T09:42:56.216Z</time></trkpt><trkpt lat="52.5929083" lon="-7.8136083"><ele>113.5</ele><time>2026-05-05T09:42:57.217Z</time></trkpt><trkpt lat="52.5926517" lon="-7.8138767"><ele>113.0</ele><time>2026-05-05T09:42:58.217Z</time></trkpt><trkpt lat="52.5923917" lon="-7.814145"><ele>112.5</ele><time>2026-05-05T09:42:59.217Z</time></trkpt><trkpt lat="52.59213" lon="-7.8144033"><ele>112.0</ele><time>2026-05-05T09:43:00.217Z</time></trkpt><trkpt lat="52.59186" lon="-7.81465"><ele>112.0</ele><time>2026-05-05T09:43:01.216Z</time></trkpt><trkpt lat="52.5915983" lon="-7.81489"><ele>112.0</ele><time>2026-05-05T09:43:02.217Z</time></trkpt><trkpt lat="52.591335" lon="-7.8151233"><ele>112.0</ele><time>2026-05-05T09:43:03.216Z</time></trkpt><trkpt lat="52.5910717" lon="-7.8153367"><ele>112.0</ele><time>2026-05-05T09:43:04.217Z</time></trkpt><trkpt lat="52.590805" lon="-7.8155433"><ele>112.0</ele><time>2026-05-05T09:43:05.216Z</time></trkpt><trkpt lat="52.5905483" lon="-7.8157433"><ele>112.0</ele><time>2026-05-05T09:43:06.217Z</time></trkpt><trkpt lat="52.590305" lon="-7.8159283"><ele>112.5</ele><time>2026-05-05T09:43:07.217Z</time></trkpt><trkpt lat="52.5900683" lon="-7.8161017"><ele>113.0</ele><time>2026-05-05T09:43:08.217Z</time></trkpt><trkpt lat="52.5898317" lon="-7.816265"><ele>113.0</ele><time>2026-05-05T09:43:09.216Z</time></trkpt><trkpt lat="52.589585" lon="-7.8164217"><ele>113.0</ele><time>2026-05-05T09:43:10.217Z</time></trkpt><trkpt lat="52.5893233" lon="-7.8165767"><ele>113.0</ele><time>2026-05-05T09:43:11.216Z</time></trkpt><trkpt lat="52.58906" lon="-7.8167333"><ele>113.0</ele><time>2026-05-05T09:43:12.217Z</time></trkpt><trkpt lat="52.5887883" lon="-7.8168767"><ele>112.5</ele><time>2026-05-05T09:43:13.216Z</time></trkpt><trkpt lat="52.5885133" lon="-7.8170117"><ele>112.0</ele><time>2026-05-05T09:43:14.216Z</time></trkpt><trkpt lat="52.5882533" lon="-7.8171717"><ele>112.0</ele><time>2026-05-05T09:43:15.217Z</time></trkpt><trkpt lat="52.58797" lon="-7.8172633"><ele>112.0</ele><time>2026-05-05T09:43:16.217Z</time></trkpt><trkpt lat="52.587695" lon="-7.817365"><ele>112.5</ele><time>2026-05-05T09:43:17.217Z</time></trkpt><trkpt lat="52.58742" lon="-7.8174617"><ele>113.0</ele><time>2026-05-05T09:43:18.217Z</time></trkpt><trkpt lat="52.587125" lon="-7.8175533"><ele>113.5</ele><time>2026-05-05T09:43:19.217Z</time></trkpt><trkpt lat="52.5868233" lon="-7.817655"><ele>114.0</ele><time>2026-05-05T09:43:20.217Z</time></trkpt><trkpt lat="52.5865433" lon="-7.8177667"><ele>114.0</ele><time>2026-05-05T09:43:21.216Z</time></trkpt><trkpt lat="52.586255" lon="-7.817875"><ele>114.0</ele><time>2026-05-05T09:43:22.216Z</time></trkpt><trkpt lat="52.5859717" lon="-7.818"><ele>114.0</ele><time>2026-05-05T09:43:23.217Z</time></trkpt><trkpt lat="52.5856967" lon="-7.8181283"><ele>114.0</ele><time>2026-05-05T09:43:24.217Z</time></trkpt><trkpt lat="52.5854217" lon="-7.8182567"><ele>114.0</ele><time>2026-05-05T09:43:25.217Z</time></trkpt><trkpt lat="52.5851467" lon="-7.81839"><ele>114.0</ele><time>2026-05-05T09:43:26.217Z</time></trkpt><trkpt lat="52.58488" lon="-7.8185217"><ele>114.0</ele><time>2026-05-05T09:43:27.216Z</time></trkpt><trkpt lat="52.5846183" lon="-7.8186667"><ele>114.0</ele><time>2026-05-05T09:43:28.217Z</time></trkpt><trkpt lat="52.5843483" lon="-7.818805"><ele>115.0</ele><time>2026-05-05T09:43:29.217Z</time></trkpt><trkpt lat="52.5840783" lon="-7.818965"><ele>116.0</ele><time>2026-05-05T09:43:30.216Z</time></trkpt><trkpt lat="52.5838067" lon="-7.8191333"><ele>116.0</ele><time>2026-05-05T09:43:31.217Z</time></trkpt><trkpt lat="52.5835233" lon="-7.819295"><ele>116.0</ele><time>2026-05-05T09:43:32.217Z</time></trkpt><trkpt lat="52.58325" lon="-7.8194633"><ele>115.5</ele><time>2026-05-05T09:43:33.217Z</time></trkpt><trkpt lat="52.5829783" lon="-7.81965"><ele>115.0</ele><time>2026-05-05T09:43:34.216Z</time></trkpt><trkpt lat="52.5826967" lon="-7.8198283"><ele>115.5</ele><time>2026-05-05T09:43:35.217Z</time></trkpt><trkpt lat="52.58242" lon="-7.8200483"><ele>116.0</ele><time>2026-05-05T09:43:36.217Z</time></trkpt><trkpt lat="52.5821267" lon="-7.8202467"><ele>115.5</ele><time>2026-05-05T09:43:37.216Z</time></trkpt><trkpt lat="52.58185" lon="-7.8204417"><ele>115.0</ele><time>2026-05-05T09:43:38.217Z</time></trkpt><trkpt lat="52.5815767" lon="-7.8206433"><ele>115.0</ele><time>2026-05-05T09:43:39.217Z</time></trkpt><trkpt lat="52.5812967" lon="-7.82085"><ele>115.0</ele><time>2026-05-05T09:43:40.217Z</time></trkpt><trkpt lat="52.5810333" lon="-7.8210667"><ele>114.0</ele><time>2026-05-05T09:43:41.216Z</time></trkpt><trkpt lat="52.580765" lon="-7.8212883"><ele>113.0</ele><time>2026-05-05T09:43:42.216Z</time></trkpt><trkpt lat="52.5805" lon="-7.8215183"><ele>113.0</ele><time>2026-05-05T09:43:43.217Z</time></trkpt><trkpt lat="52.58025" lon="-7.8217633"><ele>113.0</ele><time>2026-05-05T09:43:44.217Z</time></trkpt><trkpt lat="52.57999" lon="-7.8219967"><ele>113.0</ele><time>2026-05-05T09:43:45.216Z</time></trkpt><trkpt lat="52.5797333" lon="-7.82224"><ele>113.0</ele><time>2026-05-05T09:43:46.217Z</time></trkpt><trkpt lat="52.5794667" lon="-7.8224767"><ele>112.5</ele><time>2026-05-05T09:43:47.217Z</time></trkpt><trkpt lat="52.5792117" lon="-7.8227233"><ele>112.0</ele><time>2026-05-05T09:43:48.217Z</time></trkpt><trkpt lat="52.5789533" lon="-7.8229633"><ele>112.0</ele><time>2026-05-05T09:43:49.217Z</time></trkpt><trkpt lat="52.5787" lon="-7.823205"><ele>112.0</ele><time>2026-05-05T09:43:50.217Z</time></trkpt><trkpt lat="52.578465" lon="-7.823455"><ele>112.5</ele><time>2026-05-05T09:43:51.217Z</time></trkpt><trkpt lat="52.5782283" lon="-7.8237033"><ele>113.0</ele><time>2026-05-05T09:43:52.217Z</time></trkpt><trkpt lat="52.5779983" lon="-7.82394"><ele>113.0</ele><time>2026-05-05T09:43:53.217Z</time></trkpt><trkpt lat="52.5777767" lon="-7.8241767"><ele>113.0</ele><time>2026-05-05T09:43:54.217Z</time></trkpt><trkpt lat="52.57755" lon="-7.824425"><ele>112.5</ele><time>2026-05-05T09:43:55.216Z</time></trkpt><trkpt lat="52.5773333" lon="-7.82469"><ele>112.0</ele><time>2026-05-05T09:43:56.217Z</time></trkpt><trkpt lat="52.5771183" lon="-7.8249683"><ele>112.5</ele><time>2026-05-05T09:43:57.217Z</time></trkpt><trkpt lat="52.5768967" lon="-7.8252483"><ele>113.0</ele><time>2026-05-05T09:43:58.216Z</time></trkpt><trkpt lat="52.5766733" lon="-7.8255183"><ele>113.0</ele><time>2026-05-05T09:43:59.217Z</time></trkpt><trkpt lat="52.5764417" lon="-7.8257933"><ele>113.0</ele><time>2026-05-05T09:44:00.217Z</time></trkpt><trkpt lat="52.5762217" lon="-7.826065"><ele>114.0</ele><time>2026-05-05T09:44:01.216Z</time></trkpt><trkpt lat="52.575995" lon="-7.8263533"><ele>115.0</ele><time>2026-05-05T09:44:02.217Z</time></trkpt><trkpt lat="52.5757767" lon="-7.8266567"><ele>115.5</ele><time>2026-05-05T09:44:03.216Z</time></trkpt><trkpt lat="52.57556" lon="-7.8269783"><ele>116.0</ele><time>2026-05-05T09:44:04.216Z</time></trkpt><trkpt lat="52.5753383" lon="-7.8272867"><ele>116.5</ele><time>2026-05-05T09:44:05.217Z</time></trkpt><trkpt lat="52.5751083" lon="-7.82761"><ele>117.0</ele><time>2026-05-05T09:44:06.217Z</time></trkpt><trkpt lat="52.5748783" lon="-7.8279233"><ele>117.0</ele><time>2026-05-05T09:44:07.216Z</time></trkpt><trkpt lat="52.5746533" lon="-7.8282567"><ele>117.0</ele><time>2026-05-05T09:44:08.216Z</time></trkpt><trkpt lat="52.5744367" lon="-7.8286067"><ele>118.0</ele><time>2026-05-05T09:44:09.217Z</time></trkpt><trkpt lat="52.5742167" lon="-7.82896"><ele>119.0</ele><time>2026-05-05T09:44:10.217Z</time></trkpt><trkpt lat="52.5740033" lon="-7.8293067"><ele>119.0</ele><time>2026-05-05T09:44:11.217Z</time></trkpt><trkpt lat="52.5737933" lon="-7.82965"><ele>119.0</ele><time>2026-05-05T09:44:12.216Z</time></trkpt><trkpt lat="52.5735883" lon="-7.8300067"><ele>119.5</ele><time>2026-05-05T09:44:13.217Z</time></trkpt><trkpt lat="52.5733833" lon="-7.83038"><ele>120.0</ele><time>2026-05-05T09:44:14.217Z</time></trkpt><trkpt lat="52.5731783" lon="-7.8307467"><ele>120.0</ele><time>2026-05-05T09:44:15.216Z</time></trkpt><trkpt lat="52.5729733" lon="-7.8311217"><ele>120.0</ele><time>2026-05-05T09:44:16.217Z</time></trkpt><trkpt lat="52.5727617" lon="-7.831495"><ele>121.0</ele><time>2026-05-05T09:44:17.217Z</time></trkpt><trkpt lat="52.57255" lon="-7.83186"><ele>122.0</ele><time>2026-05-05T09:44:18.217Z</time></trkpt><trkpt lat="52.5723367" lon="-7.8322317"><ele>122.0</ele><time>2026-05-05T09:44:19.217Z</time></trkpt><trkpt lat="52.57212" lon="-7.83261"><ele>122.0</ele><time>2026-05-05T09:44:20.217Z</time></trkpt><trkpt lat="52.5719" lon="-7.8329633"><ele>121.5</ele><time>2026-05-05T09:44:21.216Z</time></trkpt><trkpt lat="52.571665" lon="-7.8333533"><ele>121.0</ele><time>2026-05-05T09:44:22.216Z</time></trkpt><trkpt lat="52.5714467" lon="-7.8337317"><ele>121.0</ele><time>2026-05-05T09:44:23.217Z</time></trkpt><trkpt lat="52.5712117" lon="-7.8340883"><ele>121.0</ele><time>2026-05-05T09:44:24.216Z</time></trkpt><trkpt lat="52.5709867" lon="-7.8344417"><ele>121.0</ele><time>2026-05-05T09:44:25.216Z</time></trkpt><trkpt lat="52.5707583" lon="-7.8348067"><ele>121.0</ele><time>2026-05-05T09:44:26.216Z</time></trkpt><trkpt lat="52.5705233" lon="-7.835155"><ele>120.0</ele><time>2026-05-05T09:44:27.217Z</time></trkpt><trkpt lat="52.5702883" lon="-7.8355183"><ele>119.0</ele><time>2026-05-05T09:44:28.216Z</time></trkpt><trkpt lat="52.57005" lon="-7.8358617"><ele>119.0</ele><time>2026-05-05T09:44:29.217Z</time></trkpt><trkpt lat="52.5698117" lon="-7.836185"><ele>119.0</ele><time>2026-05-05T09:44:30.217Z</time></trkpt><trkpt lat="52.569585" lon="-7.8364917"><ele>119.0</ele><time>2026-05-05T09:44:31.216Z</time></trkpt><trkpt lat="52.5693517" lon="-7.8367933"><ele>119.0</ele><time>2026-05-05T09:44:32.217Z</time></trkpt><trkpt lat="52.5691267" lon="-7.837085"><ele>118.5</ele><time>2026-05-05T09:44:33.217Z</time></trkpt><trkpt lat="52.5688983" lon="-7.8373867"><ele>118.0</ele><time>2026-05-05T09:44:34.217Z</time></trkpt><trkpt lat="52.56867" lon="-7.83769"><ele>118.0</ele><time>2026-05-05T09:44:35.217Z</time></trkpt><trkpt lat="52.56845" lon="-7.8379917"><ele>118.0</ele><time>2026-05-05T09:44:36.216Z</time></trkpt><trkpt lat="52.56823" lon="-7.8382983"><ele>118.0</ele><time>2026-05-05T09:44:37.217Z</time></trkpt><trkpt lat="52.5680083" lon="-7.8386033"><ele>118.0</ele><time>2026-05-05T09:44:38.216Z</time></trkpt><trkpt lat="52.56779" lon="-7.8389133"><ele>117.0</ele><time>2026-05-05T09:44:39.216Z</time></trkpt><trkpt lat="52.56758" lon="-7.8392517"><ele>116.0</ele><time>2026-05-05T09:44:40.217Z</time></trkpt><trkpt lat="52.5673633" lon="-7.8395567"><ele>116.0</ele><time>2026-05-05T09:44:41.216Z</time></trkpt><trkpt lat="52.567135" lon="-7.8398483"><ele>116.0</ele><time>2026-05-05T09:44:42.216Z</time></trkpt><trkpt lat="52.5669117" lon="-7.84013"><ele>114.5</ele><time>2026-05-05T09:44:43.216Z</time></trkpt><trkpt lat="52.566685" lon="-7.8404217"><ele>113.0</ele><time>2026-05-05T09:44:44.217Z</time></trkpt><trkpt lat="52.5664567" lon="-7.840715"><ele>113.0</ele><time>2026-05-05T09:44:45.216Z</time></trkpt><trkpt lat="52.566225" lon="-7.8410117"><ele>113.0</ele><time>2026-05-05T09:44:46.216Z</time></trkpt><trkpt lat="52.5660017" lon="-7.8413267"><ele>113.0</ele><time>2026-05-05T09:44:47.217Z</time></trkpt><trkpt lat="52.56577" lon="-7.8416567"><ele>113.0</ele><time>2026-05-05T09:44:48.217Z</time></trkpt><trkpt lat="52.5655333" lon="-7.8419783"><ele>112.5</ele><time>2026-05-05T09:44:49.216Z</time></trkpt><trkpt lat="52.5652933" lon="-7.8422983"><ele>112.0</ele><time>2026-05-05T09:44:50.217Z</time></trkpt><trkpt lat="52.5650517" lon="-7.8426167"><ele>111.5</ele><time>2026-05-05T09:44:51.217Z</time></trkpt><trkpt lat="52.5648217" lon="-7.8429317"><ele>111.0</ele><time>2026-05-05T09:44:52.216Z</time></trkpt><trkpt lat="52.56459" lon="-7.843245"><ele>110.5</ele><time>2026-05-05T09:44:53.217Z</time></trkpt><trkpt lat="52.5643583" lon="-7.8435467"><ele>110.0</ele><time>2026-05-05T09:44:54.217Z</time></trkpt><trkpt lat="52.5641217" lon="-7.8438583"><ele>110.0</ele><time>2026-05-05T09:44:55.217Z</time></trkpt><trkpt lat="52.563895" lon="-7.8441733"><ele>110.0</ele><time>2026-05-05T09:44:56.217Z</time></trkpt><trkpt lat="52.5636533" lon="-7.84448"><ele>109.0</ele><time>2026-05-05T09:44:57.217Z</time></trkpt><trkpt lat="52.5634167" lon="-7.8447833"><ele>108.0</ele><time>2026-05-05T09:44:58.216Z</time></trkpt><trkpt lat="52.5631833" lon="-7.8450883"><ele>108.0</ele><time>2026-05-05T09:44:59.216Z</time></trkpt><trkpt lat="52.56296" lon="-7.8453833"><ele>108.0</ele><time>2026-05-05T09:45:00.217Z</time></trkpt><trkpt lat="52.5627283" lon="-7.8456767"><ele>107.0</ele><time>2026-05-05T09:45:01.217Z</time></trkpt><trkpt lat="52.5624917" lon="-7.8459683"><ele>106.0</ele><time>2026-05-05T09:45:02.217Z</time></trkpt><trkpt lat="52.5622517" lon="-7.84626"><ele>107.5</ele><time>2026-05-05T09:45:03.217Z</time></trkpt><trkpt lat="52.5620133" lon="-7.8465483"><ele>109.0</ele><time>2026-05-05T09:45:04.216Z</time></trkpt><trkpt lat="52.5617783" lon="-7.8468367"><ele>109.0</ele><time>2026-05-05T09:45:05.217Z</time></trkpt><trkpt lat="52.5615467" lon="-7.8471217"><ele>109.0</ele><time>2026-05-05T09:45:06.217Z</time></trkpt><trkpt lat="52.5613083" lon="-7.8473967"><ele>109.5</ele><time>2026-05-05T09:45:07.216Z</time></trkpt><trkpt lat="52.5610667" lon="-7.84767"><ele>110.0</ele><time>2026-05-05T09:45:08.217Z</time></trkpt><trkpt lat="52.5608217" lon="-7.84795"><ele>110.0</ele><time>2026-05-05T09:45:09.217Z</time></trkpt><trkpt lat="52.56057" lon="-7.8482283"><ele>110.0</ele><time>2026-05-05T09:45:10.217Z</time></trkpt><trkpt lat="52.560325" lon="-7.8485183"><ele>111.0</ele><time>2026-05-05T09:45:11.217Z</time></trkpt><trkpt lat="52.5600617" lon="-7.8488117"><ele>112.0</ele><time>2026-05-05T09:45:12.217Z</time></trkpt><trkpt lat="52.5598167" lon="-7.8490967"><ele>112.0</ele><time>2026-05-05T09:45:13.217Z</time></trkpt><trkpt lat="52.559555" lon="-7.8493767"><ele>112.0</ele><time>2026-05-05T09:45:14.218Z</time></trkpt><trkpt lat="52.5593" lon="-7.8496633"><ele>112.0</ele><time>2026-05-05T09:45:15.217Z</time></trkpt><trkpt lat="52.5590433" lon="-7.8499333"><ele>112.0</ele><time>2026-05-05T09:45:16.218Z</time></trkpt><trkpt lat="52.5587867" lon="-7.8501967"><ele>112.0</ele><time>2026-05-05T09:45:17.218Z</time></trkpt><trkpt lat="52.5585233" lon="-7.8504517"><ele>112.0</ele><time>2026-05-05T09:45:18.217Z</time></trkpt><trkpt lat="52.55827" lon="-7.8506967"><ele>112.0</ele><time>2026-05-05T09:45:19.218Z</time></trkpt><trkpt lat="52.558025" lon="-7.8509467"><ele>112.0</ele><time>2026-05-05T09:45:20.217Z</time></trkpt><trkpt lat="52.5577833" lon="-7.8511967"><ele>111.5</ele><time>2026-05-05T09:45:21.217Z</time></trkpt><trkpt lat="52.5575433" lon="-7.85144"><ele>111.0</ele><time>2026-05-05T09:45:22.218Z</time></trkpt><trkpt lat="52.5573067" lon="-7.851675"><ele>110.5</ele><time>2026-05-05T09:45:23.217Z</time></trkpt><trkpt lat="52.55706" lon="-7.851895"><ele>110.0</ele><time>2026-05-05T09:45:24.217Z</time></trkpt><trkpt lat="52.5568233" lon="-7.8521283"><ele>110.0</ele><time>2026-05-05T09:45:25.217Z</time></trkpt><trkpt lat="52.55658" lon="-7.8523717"><ele>110.0</ele><time>2026-05-05T09:45:26.218Z</time></trkpt><trkpt lat="52.5563333" lon="-7.8526417"><ele>110.5</ele><time>2026-05-05T09:45:27.217Z</time></trkpt><trkpt lat="52.5560767" lon="-7.852895"><ele>111.0</ele><time>2026-05-05T09:45:28.217Z</time></trkpt><trkpt lat="52.5558317" lon="-7.8531517"><ele>111.0</ele><time>2026-05-05T09:45:29.218Z</time></trkpt><trkpt lat="52.55558" lon="-7.8534133"><ele>111.0</ele><time>2026-05-05T09:45:30.217Z</time></trkpt><trkpt lat="52.55533" lon="-7.8536717"><ele>109.5</ele><time>2026-05-05T09:45:31.218Z</time></trkpt><trkpt lat="52.5550867" lon="-7.853925"><ele>108.0</ele><time>2026-05-05T09:45:32.217Z</time></trkpt><trkpt lat="52.5548467" lon="-7.8541883"><ele>107.5</ele><time>2026-05-05T09:45:33.217Z</time></trkpt><trkpt lat="52.554605" lon="-7.85444"><ele>107.0</ele><time>2026-05-05T09:45:34.217Z</time></trkpt><trkpt lat="52.5543567" lon="-7.8546917"><ele>107.0</ele><time>2026-05-05T09:45:35.217Z</time></trkpt><trkpt lat="52.55411" lon="-7.85494"><ele>107.0</ele><time>2026-05-05T09:45:36.217Z</time></trkpt><trkpt lat="52.5538683" lon="-7.8552283"><ele>107.0</ele><time>2026-05-05T09:45:37.217Z</time></trkpt><trkpt lat="52.55362" lon="-7.8555017"><ele>107.0</ele><time>2026-05-05T09:45:38.217Z</time></trkpt><trkpt lat="52.5533783" lon="-7.855775"><ele>107.0</ele><time>2026-05-05T09:45:39.218Z</time></trkpt><trkpt lat="52.5531367" lon="-7.8560533"><ele>107.0</ele><time>2026-05-05T09:45:40.218Z</time></trkpt><trkpt lat="52.5528967" lon="-7.856325"><ele>107.5</ele><time>2026-05-05T09:45:41.218Z</time></trkpt><trkpt lat="52.5526583" lon="-7.8565783"><ele>108.0</ele><time>2026-05-05T09:45:42.218Z</time></trkpt><trkpt lat="52.5524183" lon="-7.8568217"><ele>108.0</ele><time>2026-05-05T09:45:43.218Z</time></trkpt><trkpt lat="52.5521817" lon="-7.8570617"><ele>108.0</ele><time>2026-05-05T09:45:44.218Z</time></trkpt><trkpt lat="52.5519533" lon="-7.8573083"><ele>108.0</ele><time>2026-05-05T09:45:45.218Z</time></trkpt><trkpt lat="52.5517217" lon="-7.8575583"><ele>108.0</ele><time>2026-05-05T09:45:46.218Z</time></trkpt><trkpt lat="52.551485" lon="-7.8578217"><ele>108.5</ele><time>2026-05-05T09:45:47.218Z</time></trkpt><trkpt lat="52.5512483" lon="-7.85809"><ele>109.0</ele><time>2026-05-05T09:45:48.218Z</time></trkpt><trkpt lat="52.55101" lon="-7.8583667"><ele>109.5</ele><time>2026-05-05T09:45:49.218Z</time></trkpt><trkpt lat="52.5507617" lon="-7.8586317"><ele>110.0</ele><time>2026-05-05T09:45:50.218Z</time></trkpt><trkpt lat="52.55052" lon="-7.858905"><ele>110.0</ele><time>2026-05-05T09:45:51.217Z</time></trkpt><trkpt lat="52.5502783" lon="-7.8591883"><ele>110.0</ele><time>2026-05-05T09:45:52.217Z</time></trkpt><trkpt lat="52.5500283" lon="-7.8594683"><ele>110.0</ele><time>2026-05-05T09:45:53.217Z</time></trkpt><trkpt lat="52.5497883" lon="-7.8597467"><ele>110.0</ele><time>2026-05-05T09:45:54.218Z</time></trkpt><trkpt lat="52.5495417" lon="-7.860015"><ele>110.0</ele><time>2026-05-05T09:45:55.218Z</time></trkpt><trkpt lat="52.5492933" lon="-7.860265"><ele>110.0</ele><time>2026-05-05T09:45:56.218Z</time></trkpt><trkpt lat="52.549045" lon="-7.8605217"><ele>110.0</ele><time>2026-05-05T09:45:57.218Z</time></trkpt><trkpt lat="52.548795" lon="-7.8607683"><ele>110.0</ele><time>2026-05-05T09:45:58.218Z</time></trkpt><trkpt lat="52.5485383" lon="-7.861035"><ele>110.5</ele><time>2026-05-05T09:45:59.218Z</time></trkpt><trkpt lat="52.5482917" lon="-7.86129"><ele>111.0</ele><time>2026-05-05T09:46:00.218Z</time></trkpt><trkpt lat="52.5480417" lon="-7.8615533"><ele>111.5</ele><time>2026-05-05T09:46:01.218Z</time></trkpt><trkpt lat="52.5477817" lon="-7.8618067"><ele>112.0</ele><time>2026-05-05T09:46:02.217Z</time></trkpt><trkpt lat="52.54753" lon="-7.862055"><ele>112.0</ele><time>2026-05-05T09:46:03.218Z</time></trkpt><trkpt lat="52.54727" lon="-7.8623117"><ele>112.0</ele><time>2026-05-05T09:46:04.218Z</time></trkpt><trkpt lat="52.54702" lon="-7.862555"><ele>111.0</ele><time>2026-05-05T09:46:05.218Z</time></trkpt><trkpt lat="52.5467633" lon="-7.8628033"><ele>110.0</ele><time>2026-05-05T09:46:06.217Z</time></trkpt><trkpt lat="52.546505" lon="-7.8630417"><ele>110.0</ele><time>2026-05-05T09:46:07.218Z</time></trkpt><trkpt lat="52.546245" lon="-7.8632633"><ele>110.0</ele><time>2026-05-05T09:46:08.218Z</time></trkpt><trkpt lat="52.5459767" lon="-7.8634617"><ele>109.5</ele><time>2026-05-05T09:46:09.218Z</time></trkpt><trkpt lat="52.5456917" lon="-7.8636433"><ele>109.0</ele><time>2026-05-05T09:46:10.218Z</time></trkpt><trkpt lat="52.54541" lon="-7.8638133"><ele>108.5</ele><time>2026-05-05T09:46:11.217Z</time></trkpt><trkpt lat="52.5451267" lon="-7.863975"><ele>108.0</ele><time>2026-05-05T09:46:12.218Z</time></trkpt><trkpt lat="52.5448317" lon="-7.86413"><ele>108.0</ele><time>2026-05-05T09:46:13.218Z</time></trkpt><trkpt lat="52.5445517" lon="-7.8642817"><ele>108.0</ele><time>2026-05-05T09:46:14.218Z</time></trkpt><trkpt lat="52.5442733" lon="-7.8644133"><ele>108.0</ele><time>2026-05-05T09:46:15.217Z</time></trkpt><trkpt lat="52.54399" lon="-7.8645183"><ele>108.0</ele><time>2026-05-05T09:46:16.218Z</time></trkpt><trkpt lat="52.5437133" lon="-7.864615"><ele>109.0</ele><time>2026-05-05T09:46:17.218Z</time></trkpt><trkpt lat="52.5434367" lon="-7.8647117"><ele>110.0</ele><time>2026-05-05T09:46:18.217Z</time></trkpt><trkpt lat="52.5431583" lon="-7.8648"><ele>110.5</ele><time>2026-05-05T09:46:19.218Z</time></trkpt><trkpt lat="52.54286" lon="-7.8648633"><ele>111.0</ele><time>2026-05-05T09:46:20.217Z</time></trkpt><trkpt lat="52.5425733" lon="-7.86491"><ele>111.0</ele><time>2026-05-05T09:46:21.218Z</time></trkpt><trkpt lat="52.5422783" lon="-7.8649317"><ele>111.0</ele><time>2026-05-05T09:46:22.217Z</time></trkpt><trkpt lat="52.54197" lon="-7.8649333"><ele>111.5</ele><time>2026-05-05T09:46:23.218Z</time></trkpt><trkpt lat="52.5416533" lon="-7.86491"><ele>112.0</ele><time>2026-05-05T09:46:24.218Z</time></trkpt><trkpt lat="52.5413383" lon="-7.8648817"><ele>113.0</ele><time>2026-05-05T09:46:25.218Z</time></trkpt><trkpt lat="52.5410267" lon="-7.8648167"><ele>114.0</ele><time>2026-05-05T09:46:26.218Z</time></trkpt><trkpt lat="52.5407183" lon="-7.8647567"><ele>114.0</ele><time>2026-05-05T09:46:27.217Z</time></trkpt><trkpt lat="52.5404067" lon="-7.8646867"><ele>114.0</ele><time>2026-05-05T09:46:28.217Z</time></trkpt><trkpt lat="52.5401067" lon="-7.86461"><ele>114.5</ele><time>2026-05-05T09:46:29.218Z</time></trkpt><trkpt lat="52.5398133" lon="-7.864525"><ele>115.0</ele><time>2026-05-05T09:46:30.218Z</time></trkpt><trkpt lat="52.539525" lon="-7.864405"><ele>116.0</ele><time>2026-05-05T09:46:31.218Z</time></trkpt><trkpt lat="52.5392483" lon="-7.8642967"><ele>117.0</ele><time>2026-05-05T09:46:32.218Z</time></trkpt><trkpt lat="52.5389617" lon="-7.8641817"><ele>118.5</ele><time>2026-05-05T09:46:33.217Z</time></trkpt><trkpt lat="52.5386867" lon="-7.8640567"><ele>120.0</ele><time>2026-05-05T09:46:34.217Z</time></trkpt><trkpt lat="52.538405" lon="-7.8638917"><ele>120.0</ele><time>2026-05-05T09:46:35.218Z</time></trkpt><trkpt lat="52.5381317" lon="-7.8637417"><ele>120.0</ele><time>2026-05-05T09:46:36.218Z</time></trkpt><trkpt lat="52.5378567" lon="-7.8635817"><ele>124.5</ele><time>2026-05-05T09:46:37.217Z</time></trkpt><trkpt lat="52.537585" lon="-7.8634133"><ele>129.0</ele><time>2026-05-05T09:46:38.218Z</time></trkpt><trkpt lat="52.5373083" lon="-7.8632283"><ele>132.0</ele><time>2026-05-05T09:46:39.218Z</time></trkpt><trkpt lat="52.5370367" lon="-7.86305"><ele>135.0</ele><time>2026-05-05T09:46:40.218Z</time></trkpt><trkpt lat="52.5367733" lon="-7.8628633"><ele>135.0</ele><time>2026-05-05T09:46:41.218Z</time></trkpt><trkpt lat="52.536505" lon="-7.86266"><ele>135.0</ele><time>2026-05-05T09:46:42.218Z</time></trkpt><trkpt lat="52.5362383" lon="-7.8624533"><ele>138.0</ele><time>2026-05-05T09:46:43.217Z</time></trkpt><trkpt lat="52.5359717" lon="-7.8622533"><ele>141.0</ele><time>2026-05-05T09:46:44.217Z</time></trkpt><trkpt lat="52.5357033" lon="-7.8620483"><ele>141.0</ele><time>2026-05-05T09:46:45.217Z</time></trkpt><trkpt lat="52.5354333" lon="-7.8618517"><ele>141.0</ele><time>2026-05-05T09:46:46.217Z</time></trkpt><trkpt lat="52.5351883" lon="-7.8616383"><ele>148.5</ele><time>2026-05-05T09:46:47.218Z</time></trkpt><trkpt lat="52.534915" lon="-7.861445"><ele>156.0</ele><time>2026-05-05T09:46:48.218Z</time></trkpt><trkpt lat="52.5346467" lon="-7.8612467"><ele>159.5</ele><time>2026-05-05T09:46:49.217Z</time></trkpt><trkpt lat="52.5343733" lon="-7.861045"><ele>163.0</ele><time>2026-05-05T09:46:50.218Z</time></trkpt><trkpt lat="52.5341" lon="-7.8608383"><ele>163.0</ele><time>2026-05-05T09:46:51.217Z</time></trkpt><trkpt lat="52.53385" lon="-7.8606583"><ele>163.0</ele><time>2026-05-05T09:46:52.217Z</time></trkpt><trkpt lat="52.5335917" lon="-7.8604817"><ele>159.5</ele><time>2026-05-05T09:46:53.217Z</time></trkpt><trkpt lat="52.5333183" lon="-7.8603183"><ele>156.0</ele><time>2026-05-05T09:46:54.218Z</time></trkpt><trkpt lat="52.5330467" lon="-7.8601517"><ele>153.0</ele><time>2026-05-05T09:46:55.218Z</time></trkpt><trkpt lat="52.53277" lon="-7.8599767"><ele>150.0</ele><time>2026-05-05T09:46:56.218Z</time></trkpt><trkpt lat="52.5324767" lon="-7.859795"><ele>150.0</ele><time>2026-05-05T09:46:57.217Z</time></trkpt><trkpt lat="52.5321717" lon="-7.8596217"><ele>150.0</ele><time>2026-05-05T09:46:58.218Z</time></trkpt><trkpt lat="52.5318833" lon="-7.8594567"><ele>148.5</ele><time>2026-05-05T09:46:59.218Z</time></trkpt><trkpt lat="52.5315933" lon="-7.8593167"><ele>147.0</ele><time>2026-05-05T09:47:00.218Z</time></trkpt><trkpt lat="52.5312933" lon="-7.8592233"><ele>147.0</ele><time>2026-05-05T09:47:01.218Z</time></trkpt><trkpt lat="52.5309967" lon="-7.8590967"><ele>147.0</ele><time>2026-05-05T09:47:02.218Z</time></trkpt><trkpt lat="52.5306933" lon="-7.85899"><ele>147.0</ele><time>2026-05-05T09:47:03.218Z</time></trkpt><trkpt lat="52.5303933" lon="-7.8588833"><ele>147.0</ele><time>2026-05-05T09:47:04.217Z</time></trkpt><trkpt lat="52.5300883" lon="-7.8587883"><ele>148.0</ele><time>2026-05-05T09:47:05.218Z</time></trkpt><trkpt lat="52.52981" lon="-7.858665"><ele>149.0</ele><time>2026-05-05T09:47:06.217Z</time></trkpt><trkpt lat="52.52952" lon="-7.8585833"><ele>149.5</ele><time>2026-05-05T09:47:07.218Z</time></trkpt><trkpt lat="52.5292483" lon="-7.8585083"><ele>150.0</ele><time>2026-05-05T09:47:08.218Z</time></trkpt><trkpt lat="52.5289883" lon="-7.85844"><ele>150.0</ele><time>2026-05-05T09:47:09.218Z</time></trkpt><trkpt lat="52.5287217" lon="-7.8584"><ele>150.0</ele><time>2026-05-05T09:47:10.218Z</time></trkpt><trkpt lat="52.5284633" lon="-7.8583883"><ele>150.0</ele><time>2026-05-05T09:47:11.218Z</time></trkpt><trkpt lat="52.5281917" lon="-7.8583383"><ele>150.0</ele><time>2026-05-05T09:47:12.218Z</time></trkpt><trkpt lat="52.5279133" lon="-7.8582983"><ele>150.5</ele><time>2026-05-05T09:47:13.218Z</time></trkpt><trkpt lat="52.52762" lon="-7.85826"><ele>151.0</ele><time>2026-05-05T09:47:14.218Z</time></trkpt><trkpt lat="52.5273217" lon="-7.8582783"><ele>150.5</ele><time>2026-05-05T09:47:15.218Z</time></trkpt><trkpt lat="52.5270117" lon="-7.8582667"><ele>150.0</ele><time>2026-05-05T09:47:16.218Z</time></trkpt><trkpt lat="52.5266983" lon="-7.8582433"><ele>150.0</ele><time>2026-05-05T09:47:17.217Z</time></trkpt><trkpt lat="52.5263783" lon="-7.8582217"><ele>150.0</ele><time>2026-05-05T09:47:18.218Z</time></trkpt><trkpt lat="52.5260633" lon="-7.8582267"><ele>149.5</ele><time>2026-05-05T09:47:19.218Z</time></trkpt><trkpt lat="52.5257633" lon="-7.8582317"><ele>149.0</ele><time>2026-05-05T09:47:20.218Z</time></trkpt><trkpt lat="52.5254483" lon="-7.8582533"><ele>148.5</ele><time>2026-05-05T09:47:21.217Z</time></trkpt><trkpt lat="52.5251267" lon="-7.8582833"><ele>148.0</ele><time>2026-05-05T09:47:22.217Z</time></trkpt><trkpt lat="52.5248067" lon="-7.85831"><ele>147.5</ele><time>2026-05-05T09:47:23.218Z</time></trkpt><trkpt lat="52.52449" lon="-7.8583567"><ele>147.0</ele><time>2026-05-05T09:47:24.218Z</time></trkpt><trkpt lat="52.524175" lon="-7.858415"><ele>147.0</ele><time>2026-05-05T09:47:25.218Z</time></trkpt><trkpt lat="52.5238667" lon="-7.858475"><ele>147.0</ele><time>2026-05-05T09:47:26.218Z</time></trkpt><trkpt lat="52.5235633" lon="-7.8585517"><ele>145.0</ele><time>2026-05-05T09:47:27.218Z</time></trkpt><trkpt lat="52.5232617" lon="-7.8586483"><ele>143.0</ele><time>2026-05-05T09:47:28.218Z</time></trkpt><trkpt lat="52.522975" lon="-7.858715"><ele>142.5</ele><time>2026-05-05T09:47:29.218Z</time></trkpt><trkpt lat="52.52269" lon="-7.8587983"><ele>142.0</ele><time>2026-05-05T09:47:30.217Z</time></trkpt><trkpt lat="52.5224017" lon="-7.8589233"><ele>142.0</ele><time>2026-05-05T09:47:31.218Z</time></trkpt><trkpt lat="52.5221283" lon="-7.859035"><ele>142.0</ele><time>2026-05-05T09:47:32.218Z</time></trkpt><trkpt lat="52.521835" lon="-7.8591467"><ele>142.0</ele><time>2026-05-05T09:47:33.218Z</time></trkpt><trkpt lat="52.521545" lon="-7.8592533"><ele>142.0</ele><time>2026-05-05T09:47:34.218Z</time></trkpt><trkpt lat="52.521255" lon="-7.8593683"><ele>142.0</ele><time>2026-05-05T09:47:35.218Z</time></trkpt><trkpt lat="52.5209683" lon="-7.8594933"><ele>142.0</ele><time>2026-05-05T09:47:36.217Z</time></trkpt><trkpt lat="52.5206883" lon="-7.859635"><ele>142.0</ele><time>2026-05-05T09:47:37.217Z</time></trkpt><trkpt lat="52.5204083" lon="-7.8597833"><ele>142.0</ele><time>2026-05-05T09:47:38.217Z</time></trkpt><trkpt lat="52.5201333" lon="-7.859925"><ele>142.0</ele><time>2026-05-05T09:47:39.218Z</time></trkpt><trkpt lat="52.5198717" lon="-7.8600933"><ele>142.0</ele><time>2026-05-05T09:47:40.218Z</time></trkpt><trkpt lat="52.519615" lon="-7.8602583"><ele>141.5</ele><time>2026-05-05T09:47:41.218Z</time></trkpt><trkpt lat="52.5193683" lon="-7.860425"><ele>141.0</ele><time>2026-05-05T09:47:42.218Z</time></trkpt><trkpt lat="52.5191067" lon="-7.860595"><ele>141.0</ele><time>2026-05-05T09:47:43.218Z</time></trkpt><trkpt lat="52.5188517" lon="-7.8608067"><ele>141.0</ele><time>2026-05-05T09:47:44.218Z</time></trkpt><trkpt lat="52.5185767" lon="-7.8609933"><ele>141.0</ele><time>2026-05-05T09:47:45.218Z</time></trkpt><trkpt lat="52.5182967" lon="-7.8611967"><ele>141.0</ele><time>2026-05-05T09:47:46.218Z</time></trkpt><trkpt lat="52.518005" lon="-7.8614033"><ele>141.0</ele><time>2026-05-05T09:47:47.218Z</time></trkpt><trkpt lat="52.51772" lon="-7.8616117"><ele>141.0</ele><time>2026-05-05T09:47:48.217Z</time></trkpt><trkpt lat="52.517455" lon="-7.8618383"><ele>141.0</ele><time>2026-05-05T09:47:49.218Z</time></trkpt><trkpt lat="52.5171817" lon="-7.8620667"><ele>141.0</ele><time>2026-05-05T09:47:50.217Z</time></trkpt><trkpt lat="52.5169083" lon="-7.862295"><ele>141.0</ele><time>2026-05-05T09:47:51.218Z</time></trkpt><trkpt lat="52.5166367" lon="-7.8625217"><ele>141.0</ele><time>2026-05-05T09:47:52.218Z</time></trkpt><trkpt lat="52.5163567" lon="-7.8627483"><ele>141.5</ele><time>2026-05-05T09:47:53.217Z</time></trkpt><trkpt lat="52.5160567" lon="-7.862955"><ele>142.0</ele><time>2026-05-05T09:47:54.217Z</time></trkpt><trkpt lat="52.5157717" lon="-7.8631833"><ele>142.0</ele><time>2026-05-05T09:47:55.218Z</time></trkpt><trkpt lat="52.5154933" lon="-7.86343"><ele>142.0</ele><time>2026-05-05T09:47:56.217Z</time></trkpt><trkpt lat="52.5152217" lon="-7.8636833"><ele>140.0</ele><time>2026-05-05T09:47:57.217Z</time></trkpt><trkpt lat="52.5149417" lon="-7.86394"><ele>138.0</ele><time>2026-05-05T09:47:58.218Z</time></trkpt><trkpt lat="52.5146583" lon="-7.8642"><ele>137.0</ele><time>2026-05-05T09:47:59.217Z</time></trkpt><trkpt lat="52.5143767" lon="-7.8644617"><ele>136.0</ele><time>2026-05-05T09:48:00.218Z</time></trkpt><trkpt lat="52.514095" lon="-7.8647183"><ele>136.0</ele><time>2026-05-05T09:48:01.217Z</time></trkpt><trkpt lat="52.5138433" lon="-7.8649783"><ele>136.0</ele><time>2026-05-05T09:48:02.218Z</time></trkpt><trkpt lat="52.5136017" lon="-7.8652133"><ele>135.0</ele><time>2026-05-05T09:48:03.218Z</time></trkpt><trkpt lat="52.5133717" lon="-7.8654383"><ele>134.0</ele><time>2026-05-05T09:48:04.218Z</time></trkpt><trkpt lat="52.513155" lon="-7.8656533"><ele>134.0</ele><time>2026-05-05T09:48:05.218Z</time></trkpt><trkpt lat="52.512955" lon="-7.8658933"><ele>134.0</ele><time>2026-05-05T09:48:06.217Z</time></trkpt><trkpt lat="52.5127417" lon="-7.8661233"><ele>132.5</ele><time>2026-05-05T09:48:07.218Z</time></trkpt><trkpt lat="52.5125217" lon="-7.8663583"><ele>131.0</ele><time>2026-05-05T09:48:08.218Z</time></trkpt><trkpt lat="52.5122917" lon="-7.8666083"><ele>129.5</ele><time>2026-05-05T09:48:09.218Z</time></trkpt><trkpt lat="52.5120567" lon="-7.8668633"><ele>128.0</ele><time>2026-05-05T09:48:10.218Z</time></trkpt><trkpt lat="52.51182" lon="-7.86712"><ele>128.0</ele><time>2026-05-05T09:48:11.218Z</time></trkpt><trkpt lat="52.5115817" lon="-7.8673867"><ele>128.0</ele><time>2026-05-05T09:48:12.218Z</time></trkpt><trkpt lat="52.5113533" lon="-7.867665"><ele>127.5</ele><time>2026-05-05T09:48:13.218Z</time></trkpt><trkpt lat="52.511125" lon="-7.86795"><ele>127.0</ele><time>2026-05-05T09:48:14.217Z</time></trkpt><trkpt lat="52.5108933" lon="-7.8682433"><ele>126.0</ele><time>2026-05-05T09:48:15.217Z</time></trkpt><trkpt lat="52.51066" lon="-7.8685267"><ele>125.0</ele><time>2026-05-05T09:48:16.218Z</time></trkpt><trkpt lat="52.51043" lon="-7.86882"><ele>124.5</ele><time>2026-05-05T09:48:17.218Z</time></trkpt><trkpt lat="52.5102033" lon="-7.869115"><ele>124.0</ele><time>2026-05-05T09:48:18.218Z</time></trkpt><trkpt lat="52.50996" lon="-7.869405"><ele>124.0</ele><time>2026-05-05T09:48:19.217Z</time></trkpt><trkpt lat="52.5097117" lon="-7.8697183"><ele>124.0</ele><time>2026-05-05T09:48:20.217Z</time></trkpt><trkpt lat="52.5094633" lon="-7.870035"><ele>123.5</ele><time>2026-05-05T09:48:21.218Z</time></trkpt><trkpt lat="52.509215" lon="-7.8703633"><ele>123.0</ele><time>2026-05-05T09:48:22.218Z</time></trkpt><trkpt lat="52.5089767" lon="-7.8707117"><ele>122.0</ele><time>2026-05-05T09:48:23.218Z</time></trkpt><trkpt lat="52.50874" lon="-7.87103"><ele>121.0</ele><time>2026-05-05T09:48:24.218Z</time></trkpt><trkpt lat="52.50851" lon="-7.8713467"><ele>121.0</ele><time>2026-05-05T09:48:25.218Z</time></trkpt><trkpt lat="52.5082883" lon="-7.8716533"><ele>121.0</ele><time>2026-05-05T09:48:26.218Z</time></trkpt><trkpt lat="52.5080867" lon="-7.8719567"><ele>121.0</ele><time>2026-05-05T09:48:27.218Z</time></trkpt><trkpt lat="52.50787" lon="-7.872275"><ele>121.0</ele><time>2026-05-05T09:48:28.217Z</time></trkpt><trkpt lat="52.5076633" lon="-7.8725917"><ele>121.0</ele><time>2026-05-05T09:48:29.217Z</time></trkpt><trkpt lat="52.507455" lon="-7.8728933"><ele>121.0</ele><time>2026-05-05T09:48:30.218Z</time></trkpt><trkpt lat="52.5072583" lon="-7.8732083"><ele>120.5</ele><time>2026-05-05T09:48:31.218Z</time></trkpt><trkpt lat="52.507055" lon="-7.87352"><ele>120.0</ele><time>2026-05-05T09:48:32.218Z</time></trkpt><trkpt lat="52.5068533" lon="-7.8738433"><ele>120.0</ele><time>2026-05-05T09:48:33.218Z</time></trkpt><trkpt lat="52.5066433" lon="-7.8741633"><ele>120.0</ele><time>2026-05-05T09:48:34.218Z</time></trkpt><trkpt lat="52.5064317" lon="-7.8744883"><ele>119.5</ele><time>2026-05-05T09:48:35.218Z</time></trkpt><trkpt lat="52.50623" lon="-7.8748183"><ele>119.0</ele><time>2026-05-05T09:48:36.218Z</time></trkpt><trkpt lat="52.5060383" lon="-7.8751717"><ele>118.0</ele><time>2026-05-05T09:48:37.218Z</time></trkpt><trkpt lat="52.50585" lon="-7.87553"><ele>117.0</ele><time>2026-05-05T09:48:38.218Z</time></trkpt><trkpt lat="52.5056433" lon="-7.8758867"><ele>117.0</ele><time>2026-05-05T09:48:39.218Z</time></trkpt><trkpt lat="52.5054483" lon="-7.8762433"><ele>117.0</ele><time>2026-05-05T09:48:40.217Z</time></trkpt><trkpt lat="52.50525" lon="-7.8766083"><ele>118.0</ele><time>2026-05-05T09:48:41.218Z</time></trkpt><trkpt lat="52.505055" lon="-7.87696"><ele>119.0</ele><time>2026-05-05T09:48:42.217Z</time></trkpt><trkpt lat="52.504865" lon="-7.87731"><ele>119.0</ele><time>2026-05-05T09:48:43.217Z</time></trkpt><trkpt lat="52.5046683" lon="-7.8776417"><ele>119.0</ele><time>2026-05-05T09:48:44.217Z</time></trkpt><trkpt lat="52.5044717" lon="-7.8779983"><ele>119.0</ele><time>2026-05-05T09:48:45.217Z</time></trkpt><trkpt lat="52.50426" lon="-7.87837"><ele>119.0</ele><time>2026-05-05T09:48:46.218Z</time></trkpt><trkpt lat="52.5040683" lon="-7.87874"><ele>118.5</ele><time>2026-05-05T09:48:47.217Z</time></trkpt><trkpt lat="52.5038817" lon="-7.879115"><ele>118.0</ele><time>2026-05-05T09:48:48.217Z</time></trkpt><trkpt lat="52.503705" lon="-7.8794867"><ele>117.5</ele><time>2026-05-05T09:48:49.218Z</time></trkpt><trkpt lat="52.5035317" lon="-7.8798483"><ele>117.0</ele><time>2026-05-05T09:48:50.218Z</time></trkpt><trkpt lat="52.50336" lon="-7.8802033"><ele>117.0</ele><time>2026-05-05T09:48:51.218Z</time></trkpt><trkpt lat="52.5031983" lon="-7.88054"><ele>117.0</ele><time>2026-05-05T09:48:52.217Z</time></trkpt><trkpt lat="52.5030333" lon="-7.88088"><ele>117.5</ele><time>2026-05-05T09:48:53.217Z</time></trkpt><trkpt lat="52.50286" lon="-7.881225"><ele>118.0</ele><time>2026-05-05T09:48:54.218Z</time></trkpt><trkpt lat="52.5026867" lon="-7.88156"><ele>117.5</ele><time>2026-05-05T09:48:55.218Z</time></trkpt><trkpt lat="52.502525" lon="-7.881935"><ele>117.0</ele><time>2026-05-05T09:48:56.218Z</time></trkpt><trkpt lat="52.5023683" lon="-7.8822783"><ele>117.5</ele><time>2026-05-05T09:48:57.217Z</time></trkpt><trkpt lat="52.5021933" lon="-7.8826083"><ele>118.0</ele><time>2026-05-05T09:48:58.218Z</time></trkpt><trkpt lat="52.50201" lon="-7.8829267"><ele>118.0</ele><time>2026-05-05T09:48:59.218Z</time></trkpt><trkpt lat="52.5018383" lon="-7.8832517"><ele>118.0</ele><time>2026-05-05T09:49:00.218Z</time></trkpt><trkpt lat="52.5016617" lon="-7.8836033"><ele>118.5</ele><time>2026-05-05T09:49:01.218Z</time></trkpt><trkpt lat="52.5014967" lon="-7.883955"><ele>119.0</ele><time>2026-05-05T09:49:02.218Z</time></trkpt><trkpt lat="52.5013083" lon="-7.88429"><ele>119.0</ele><time>2026-05-05T09:49:03.218Z</time></trkpt><trkpt lat="52.5011233" lon="-7.88463"><ele>119.0</ele><time>2026-05-05T09:49:04.218Z</time></trkpt><trkpt lat="52.5009133" lon="-7.8849483"><ele>119.5</ele><time>2026-05-05T09:49:05.217Z</time></trkpt><trkpt lat="52.5006983" lon="-7.8852717"><ele>120.0</ele><time>2026-05-05T09:49:06.218Z</time></trkpt><trkpt lat="52.5004667" lon="-7.885585"><ele>119.5</ele><time>2026-05-05T09:49:07.218Z</time></trkpt><trkpt lat="52.500225" lon="-7.8858917"><ele>119.0</ele><time>2026-05-05T09:49:08.218Z</time></trkpt><trkpt lat="52.4999883" lon="-7.88618"><ele>119.0</ele><time>2026-05-05T09:49:09.218Z</time></trkpt><trkpt lat="52.499755" lon="-7.8864583"><ele>119.0</ele><time>2026-05-05T09:49:10.217Z</time></trkpt><trkpt lat="52.49951" lon="-7.8867217"><ele>118.0</ele><time>2026-05-05T09:49:11.218Z</time></trkpt><trkpt lat="52.4992617" lon="-7.8869717"><ele>117.0</ele><time>2026-05-05T09:49:12.218Z</time></trkpt><trkpt lat="52.4990133" lon="-7.88722"><ele>117.0</ele><time>2026-05-05T09:49:13.218Z</time></trkpt><trkpt lat="52.4987583" lon="-7.8874517"><ele>117.0</ele><time>2026-05-05T09:49:14.217Z</time></trkpt><trkpt lat="52.4985133" lon="-7.88769"><ele>117.5</ele><time>2026-05-05T09:49:15.218Z</time></trkpt><trkpt lat="52.498255" lon="-7.8879467"><ele>118.0</ele><time>2026-05-05T09:49:16.217Z</time></trkpt><trkpt lat="52.4979967" lon="-7.888205"><ele>119.0</ele><time>2026-05-05T09:49:17.217Z</time></trkpt><trkpt lat="52.497745" lon="-7.8884667"><ele>120.0</ele><time>2026-05-05T09:49:18.218Z</time></trkpt><trkpt lat="52.497495" lon="-7.888735"><ele>120.0</ele><time>2026-05-05T09:49:19.218Z</time></trkpt><trkpt lat="52.4972533" lon="-7.889015"><ele>120.0</ele><time>2026-05-05T09:49:20.218Z</time></trkpt><trkpt lat="52.4970133" lon="-7.8893183"><ele>118.0</ele><time>2026-05-05T09:49:21.217Z</time></trkpt><trkpt lat="52.4967867" lon="-7.8896433"><ele>116.0</ele><time>2026-05-05T09:49:22.218Z</time></trkpt><trkpt lat="52.4965567" lon="-7.8899817"><ele>115.5</ele><time>2026-05-05T09:49:23.217Z</time></trkpt><trkpt lat="52.496315" lon="-7.8903583"><ele>115.0</ele><time>2026-05-05T09:49:24.218Z</time></trkpt><trkpt lat="52.496095" lon="-7.89072"><ele>114.0</ele><time>2026-05-05T09:49:25.218Z</time></trkpt><trkpt lat="52.4958717" lon="-7.8910817"><ele>113.0</ele><time>2026-05-05T09:49:26.218Z</time></trkpt><trkpt lat="52.4956617" lon="-7.8914533"><ele>113.0</ele><time>2026-05-05T09:49:27.218Z</time></trkpt><trkpt lat="52.4954533" lon="-7.8918183"><ele>113.0</ele><time>2026-05-05T09:49:28.218Z</time></trkpt><trkpt lat="52.495255" lon="-7.8921417"><ele>113.5</ele><time>2026-05-05T09:49:29.218Z</time></trkpt><trkpt lat="52.4950667" lon="-7.89247"><ele>114.0</ele><time>2026-05-05T09:49:30.218Z</time></trkpt><trkpt lat="52.4948867" lon="-7.892815"><ele>113.0</ele><time>2026-05-05T09:49:31.218Z</time></trkpt><trkpt lat="52.4946883" lon="-7.8931583"><ele>112.0</ele><time>2026-05-05T09:49:32.217Z</time></trkpt><trkpt lat="52.494485" lon="-7.8935067"><ele>111.5</ele><time>2026-05-05T09:49:33.218Z</time></trkpt><trkpt lat="52.494275" lon="-7.8938467"><ele>111.0</ele><time>2026-05-05T09:49:34.217Z</time></trkpt><trkpt lat="52.4940633" lon="-7.8941867"><ele>111.5</ele><time>2026-05-05T09:49:35.218Z</time></trkpt><trkpt lat="52.49385" lon="-7.8945283"><ele>112.0</ele><time>2026-05-05T09:49:36.217Z</time></trkpt><trkpt lat="52.4936317" lon="-7.8948567"><ele>111.5</ele><time>2026-05-05T09:49:37.217Z</time></trkpt><trkpt lat="52.4934133" lon="-7.895185"><ele>111.0</ele><time>2026-05-05T09:49:38.217Z</time></trkpt><trkpt lat="52.493195" lon="-7.8955017"><ele>111.0</ele><time>2026-05-05T09:49:39.218Z</time></trkpt><trkpt lat="52.4929817" lon="-7.895805"><ele>111.0</ele><time>2026-05-05T09:49:40.217Z</time></trkpt><trkpt lat="52.492775" lon="-7.8961167"><ele>110.0</ele><time>2026-05-05T09:49:41.217Z</time></trkpt><trkpt lat="52.4925733" lon="-7.8964117"><ele>109.0</ele><time>2026-05-05T09:49:42.218Z</time></trkpt><trkpt lat="52.4923567" lon="-7.8967067"><ele>108.5</ele><time>2026-05-05T09:49:43.217Z</time></trkpt><trkpt lat="52.49214" lon="-7.897015"><ele>108.0</ele><time>2026-05-05T09:49:44.218Z</time></trkpt><trkpt lat="52.4919083" lon="-7.8973117"><ele>107.0</ele><time>2026-05-05T09:49:45.218Z</time></trkpt><trkpt lat="52.491675" lon="-7.8975883"><ele>106.0</ele><time>2026-05-05T09:49:46.218Z</time></trkpt><trkpt lat="52.4914467" lon="-7.8978783"><ele>106.0</ele><time>2026-05-05T09:49:47.217Z</time></trkpt><trkpt lat="52.49121" lon="-7.898155"><ele>106.0</ele><time>2026-05-05T09:49:48.218Z</time></trkpt><trkpt lat="52.4909667" lon="-7.89843"><ele>106.0</ele><time>2026-05-05T09:49:49.218Z</time></trkpt><trkpt lat="52.4907167" lon="-7.8987067"><ele>106.0</ele><time>2026-05-05T09:49:50.218Z</time></trkpt><trkpt lat="52.4904683" lon="-7.8989883"><ele>106.0</ele><time>2026-05-05T09:49:51.218Z</time></trkpt><trkpt lat="52.4902133" lon="-7.8992583"><ele>106.0</ele><time>2026-05-05T09:49:52.217Z</time></trkpt><trkpt lat="52.4899617" lon="-7.89953"><ele>106.0</ele><time>2026-05-05T09:49:53.218Z</time></trkpt><trkpt lat="52.4897117" lon="-7.8997967"><ele>106.0</ele><time>2026-05-05T09:49:54.217Z</time></trkpt><trkpt lat="52.4894583" lon="-7.9000567"><ele>106.0</ele><time>2026-05-05T09:49:55.217Z</time></trkpt><trkpt lat="52.489205" lon="-7.9003067"><ele>106.0</ele><time>2026-05-05T09:49:56.217Z</time></trkpt><trkpt lat="52.4889467" lon="-7.90056"><ele>105.0</ele><time>2026-05-05T09:49:57.217Z</time></trkpt><trkpt lat="52.488685" lon="-7.9008083"><ele>104.0</ele><time>2026-05-05T09:49:58.218Z</time></trkpt><trkpt lat="52.4884183" lon="-7.9010567"><ele>104.0</ele><time>2026-05-05T09:49:59.218Z</time></trkpt><trkpt lat="52.48816" lon="-7.9012933"><ele>104.0</ele><time>2026-05-05T09:50:00.217Z</time></trkpt><trkpt lat="52.4878983" lon="-7.9015383"><ele>105.0</ele><time>2026-05-05T09:50:01.218Z</time></trkpt><trkpt lat="52.4876317" lon="-7.9017717"><ele>106.0</ele><time>2026-05-05T09:50:02.218Z</time></trkpt><trkpt lat="52.48737" lon="-7.9020017"><ele>106.0</ele><time>2026-05-05T09:50:03.217Z</time></trkpt><trkpt lat="52.4871117" lon="-7.90223"><ele>106.0</ele><time>2026-05-05T09:50:04.217Z</time></trkpt><trkpt lat="52.486845" lon="-7.9024433"><ele>104.0</ele><time>2026-05-05T09:50:05.218Z</time></trkpt><trkpt lat="52.4865717" lon="-7.902645"><ele>102.0</ele><time>2026-05-05T09:50:06.217Z</time></trkpt><trkpt lat="52.4863033" lon="-7.90286"><ele>101.0</ele><time>2026-05-05T09:50:07.217Z</time></trkpt><trkpt lat="52.48603" lon="-7.90307"><ele>100.0</ele><time>2026-05-05T09:50:08.218Z</time></trkpt><trkpt lat="52.4857583" lon="-7.9032733"><ele>100.0</ele><time>2026-05-05T09:50:09.217Z</time></trkpt><trkpt lat="52.4854767" lon="-7.9034733"><ele>100.0</ele><time>2026-05-05T09:50:10.217Z</time></trkpt><trkpt lat="52.4851933" lon="-7.90366"><ele>100.0</ele><time>2026-05-05T09:50:11.217Z</time></trkpt><trkpt lat="52.4849117" lon="-7.903845"><ele>100.0</ele><time>2026-05-05T09:50:12.217Z</time></trkpt><trkpt lat="52.4846317" lon="-7.9040233"><ele>100.0</ele><time>2026-05-05T09:50:13.218Z</time></trkpt><trkpt lat="52.4843483" lon="-7.9041833"><ele>100.0</ele><time>2026-05-05T09:50:14.217Z</time></trkpt><trkpt lat="52.48408" lon="-7.904355"><ele>100.0</ele><time>2026-05-05T09:50:15.218Z</time></trkpt><trkpt lat="52.4838017" lon="-7.9045217"><ele>100.0</ele><time>2026-05-05T09:50:16.217Z</time></trkpt><trkpt lat="52.483525" lon="-7.9046767"><ele>99.5</ele><time>2026-05-05T09:50:17.218Z</time></trkpt><trkpt lat="52.4832417" lon="-7.9048133"><ele>99.0</ele><time>2026-05-05T09:50:18.217Z</time></trkpt><trkpt lat="52.4829667" lon="-7.9049567"><ele>99.0</ele><time>2026-05-05T09:50:19.218Z</time></trkpt><trkpt lat="52.4826883" lon="-7.9051"><ele>99.0</ele><time>2026-05-05T09:50:20.218Z</time></trkpt><trkpt lat="52.48241" lon="-7.9052417"><ele>99.0</ele><time>2026-05-05T09:50:21.218Z</time></trkpt><trkpt lat="52.48212" lon="-7.9053617"><ele>99.0</ele><time>2026-05-05T09:50:22.218Z</time></trkpt><trkpt lat="52.4818317" lon="-7.9054917"><ele>99.0</ele><time>2026-05-05T09:50:23.218Z</time></trkpt><trkpt lat="52.4815517" lon="-7.90561"><ele>99.0</ele><time>2026-05-05T09:50:24.218Z</time></trkpt><trkpt lat="52.4812733" lon="-7.90572"><ele>99.0</ele><time>2026-05-05T09:50:25.218Z</time></trkpt><trkpt lat="52.481" lon="-7.9058233"><ele>99.0</ele><time>2026-05-05T09:50:26.218Z</time></trkpt><trkpt lat="52.4807267" lon="-7.905925"><ele>98.0</ele><time>2026-05-05T09:50:27.217Z</time></trkpt><trkpt lat="52.4804567" lon="-7.9060133"><ele>97.0</ele><time>2026-05-05T09:50:28.217Z</time></trkpt><trkpt lat="52.4801883" lon="-7.9061033"><ele>99.0</ele><time>2026-05-05T09:50:29.218Z</time></trkpt><trkpt lat="52.4799067" lon="-7.906185"><ele>101.0</ele><time>2026-05-05T09:50:30.218Z</time></trkpt><trkpt lat="52.4796133" lon="-7.9062633"><ele>101.0</ele><time>2026-05-05T09:50:31.217Z</time></trkpt><trkpt lat="52.4793233" lon="-7.9063483"><ele>101.0</ele><time>2026-05-05T09:50:32.217Z</time></trkpt><trkpt lat="52.4790217" lon="-7.9064283"><ele>101.5</ele><time>2026-05-05T09:50:33.218Z</time></trkpt><trkpt lat="52.478715" lon="-7.9065033"><ele>102.0</ele><time>2026-05-05T09:50:34.218Z</time></trkpt><trkpt lat="52.4784167" lon="-7.9065733"><ele>102.0</ele><time>2026-05-05T09:50:35.217Z</time></trkpt><trkpt lat="52.478115" lon="-7.9066383"><ele>102.0</ele><time>2026-05-05T09:50:36.218Z</time></trkpt><trkpt lat="52.4778067" lon="-7.906695"><ele>100.0</ele><time>2026-05-05T09:50:37.217Z</time></trkpt><trkpt lat="52.4774983" lon="-7.906745"><ele>98.0</ele><time>2026-05-05T09:50:38.218Z</time></trkpt><trkpt lat="52.4771833" lon="-7.9068"><ele>98.0</ele><time>2026-05-05T09:50:39.218Z</time></trkpt><trkpt lat="52.4768683" lon="-7.9068317"><ele>98.0</ele><time>2026-05-05T09:50:40.218Z</time></trkpt><trkpt lat="52.4765567" lon="-7.9068717"><ele>97.0</ele><time>2026-05-05T09:50:41.217Z</time></trkpt><trkpt lat="52.47625" lon="-7.9068967"><ele>96.0</ele><time>2026-05-05T09:50:42.218Z</time></trkpt><trkpt lat="52.47595" lon="-7.9069267"><ele>96.0</ele><time>2026-05-05T09:50:43.218Z</time></trkpt><trkpt lat="52.4756533" lon="-7.9069483"><ele>96.0</ele><time>2026-05-05T09:50:44.218Z</time></trkpt><trkpt lat="52.4753583" lon="-7.906965"><ele>95.5</ele><time>2026-05-05T09:50:45.217Z</time></trkpt><trkpt lat="52.4750667" lon="-7.9069717"><ele>95.0</ele><time>2026-05-05T09:50:46.218Z</time></trkpt><trkpt lat="52.4747783" lon="-7.9069817"><ele>94.0</ele><time>2026-05-05T09:50:47.218Z</time></trkpt><trkpt lat="52.4744917" lon="-7.906995"><ele>93.0</ele><time>2026-05-05T09:50:48.218Z</time></trkpt><trkpt lat="52.4741967" lon="-7.906985"><ele>93.0</ele><time>2026-05-05T09:50:49.218Z</time></trkpt><trkpt lat="52.473895" lon="-7.9069567"><ele>93.0</ele><time>2026-05-05T09:50:50.218Z</time></trkpt><trkpt lat="52.4735883" lon="-7.9069267"><ele>93.5</ele><time>2026-05-05T09:50:51.218Z</time></trkpt><trkpt lat="52.4732867" lon="-7.9068933"><ele>94.0</ele><time>2026-05-05T09:50:52.218Z</time></trkpt><trkpt lat="52.4729817" lon="-7.9068617"><ele>95.0</ele><time>2026-05-05T09:50:53.218Z</time></trkpt><trkpt lat="52.47267" lon="-7.9068233"><ele>96.0</ele><time>2026-05-05T09:50:54.217Z</time></trkpt><trkpt lat="52.47235" lon="-7.9067767"><ele>95.5</ele><time>2026-05-05T09:50:55.217Z</time></trkpt><trkpt lat="52.47203" lon="-7.9067383"><ele>95.0</ele><time>2026-05-05T09:50:56.218Z</time></trkpt><trkpt lat="52.471715" lon="-7.9066917"><ele>95.0</ele><time>2026-05-05T09:50:57.218Z</time></trkpt><trkpt lat="52.4714" lon="-7.906645"><ele>95.0</ele><time>2026-05-05T09:50:58.218Z</time></trkpt><trkpt lat="52.471085" lon="-7.90658"><ele>95.5</ele><time>2026-05-05T09:50:59.218Z</time></trkpt><trkpt lat="52.470765" lon="-7.9065033"><ele>96.0</ele><time>2026-05-05T09:51:00.218Z</time></trkpt><trkpt lat="52.47045" lon="-7.9064283"><ele>96.5</ele><time>2026-05-05T09:51:01.217Z</time></trkpt><trkpt lat="52.4701233" lon="-7.906355"><ele>97.0</ele><time>2026-05-05T09:51:02.218Z</time></trkpt><trkpt lat="52.4698017" lon="-7.90628"><ele>97.5</ele><time>2026-05-05T09:51:03.217Z</time></trkpt><trkpt lat="52.469485" lon="-7.9062117"><ele>98.0</ele><time>2026-05-05T09:51:04.218Z</time></trkpt><trkpt lat="52.4691683" lon="-7.9061483"><ele>98.0</ele><time>2026-05-05T09:51:05.218Z</time></trkpt><trkpt lat="52.468855" lon="-7.9060967"><ele>98.0</ele><time>2026-05-05T09:51:06.218Z</time></trkpt><trkpt lat="52.4685683" lon="-7.906065"><ele>98.0</ele><time>2026-05-05T09:51:07.217Z</time></trkpt><trkpt lat="52.468295" lon="-7.906045"><ele>98.0</ele><time>2026-05-05T09:51:08.218Z</time></trkpt><trkpt lat="52.4680283" lon="-7.9060283"><ele>98.0</ele><time>2026-05-05T09:51:09.218Z</time></trkpt><trkpt lat="52.4677533" lon="-7.906015"><ele>98.0</ele><time>2026-05-05T09:51:10.218Z</time></trkpt><trkpt lat="52.4674667" lon="-7.9059917"><ele>98.0</ele><time>2026-05-05T09:51:11.218Z</time></trkpt><trkpt lat="52.46718" lon="-7.9059733"><ele>98.0</ele><time>2026-05-05T09:51:12.218Z</time></trkpt><trkpt lat="52.46689" lon="-7.9059817"><ele>97.0</ele><time>2026-05-05T09:51:13.218Z</time></trkpt><trkpt lat="52.46661" lon="-7.905985"><ele>96.0</ele><time>2026-05-05T09:51:14.217Z</time></trkpt><trkpt lat="52.466335" lon="-7.9059933"><ele>96.0</ele><time>2026-05-05T09:51:15.218Z</time></trkpt><trkpt lat="52.4660583" lon="-7.9060083"><ele>96.0</ele><time>2026-05-05T09:51:16.217Z</time></trkpt><trkpt lat="52.46578" lon="-7.9060283"><ele>96.0</ele><time>2026-05-05T09:51:17.218Z</time></trkpt><trkpt lat="52.4655017" lon="-7.9060383"><ele>96.0</ele><time>2026-05-05T09:51:18.217Z</time></trkpt><trkpt lat="52.4652183" lon="-7.906085"><ele>94.0</ele><time>2026-05-05T09:51:19.218Z</time></trkpt><trkpt lat="52.4649117" lon="-7.90611"><ele>92.0</ele><time>2026-05-05T09:51:20.217Z</time></trkpt><trkpt lat="52.46459" lon="-7.9061333"><ele>92.0</ele><time>2026-05-05T09:51:21.217Z</time></trkpt><trkpt lat="52.4642517" lon="-7.9061633"><ele>92.0</ele><time>2026-05-05T09:51:22.217Z</time></trkpt><trkpt lat="52.4639217" lon="-7.9062033"><ele>91.5</ele><time>2026-05-05T09:51:23.218Z</time></trkpt><trkpt lat="52.4635883" lon="-7.9062467"><ele>91.0</ele><time>2026-05-05T09:51:24.218Z</time></trkpt><trkpt lat="52.46326" lon="-7.9063133"><ele>91.0</ele><time>2026-05-05T09:51:25.217Z</time></trkpt><trkpt lat="52.4629417" lon="-7.9063833"><ele>91.0</ele><time>2026-05-05T09:51:26.218Z</time></trkpt><trkpt lat="52.4626167" lon="-7.9064383"><ele>91.0</ele><time>2026-05-05T09:51:27.217Z</time></trkpt><trkpt lat="52.462295" lon="-7.90649"><ele>91.0</ele><time>2026-05-05T09:51:28.218Z</time></trkpt><trkpt lat="52.4619917" lon="-7.9065483"><ele>90.0</ele><time>2026-05-05T09:51:29.217Z</time></trkpt><trkpt lat="52.4616867" lon="-7.9066"><ele>89.0</ele><time>2026-05-05T09:51:30.217Z</time></trkpt><trkpt lat="52.4613983" lon="-7.9066633"><ele>88.0</ele><time>2026-05-05T09:51:31.218Z</time></trkpt><trkpt lat="52.4611167" lon="-7.90673"><ele>87.0</ele><time>2026-05-05T09:51:32.218Z</time></trkpt><trkpt lat="52.4608333" lon="-7.9067883"><ele>86.5</ele><time>2026-05-05T09:51:33.218Z</time></trkpt><trkpt lat="52.4605467" lon="-7.9068533"><ele>86.0</ele><time>2026-05-05T09:51:34.218Z</time></trkpt><trkpt lat="52.4602533" lon="-7.906915"><ele>84.5</ele><time>2026-05-05T09:51:35.218Z</time></trkpt><trkpt lat="52.459955" lon="-7.9069683"><ele>83.0</ele><time>2026-05-05T09:51:36.218Z</time></trkpt><trkpt lat="52.459655" lon="-7.9070317"><ele>81.0</ele><time>2026-05-05T09:51:37.218Z</time></trkpt><trkpt lat="52.4593517" lon="-7.9070867"><ele>79.0</ele><time>2026-05-05T09:51:38.218Z</time></trkpt><trkpt lat="52.4590483" lon="-7.9071367"><ele>78.5</ele><time>2026-05-05T09:51:39.217Z</time></trkpt><trkpt lat="52.4587467" lon="-7.9071817"><ele>78.0</ele><time>2026-05-05T09:51:40.218Z</time></trkpt><trkpt lat="52.458445" lon="-7.9072417"><ele>78.0</ele><time>2026-05-05T09:51:41.218Z</time></trkpt><trkpt lat="52.4581383" lon="-7.9072983"><ele>78.0</ele><time>2026-05-05T09:51:42.218Z</time></trkpt><trkpt lat="52.4578367" lon="-7.907355"><ele>77.0</ele><time>2026-05-05T09:51:43.218Z</time></trkpt><trkpt lat="52.457525" lon="-7.9073983"><ele>76.0</ele><time>2026-05-05T09:51:44.218Z</time></trkpt><trkpt lat="52.4572133" lon="-7.90745"><ele>76.5</ele><time>2026-05-05T09:51:45.217Z</time></trkpt><trkpt lat="52.4569083" lon="-7.907505"><ele>77.0</ele><time>2026-05-05T09:51:46.218Z</time></trkpt><trkpt lat="52.4566083" lon="-7.9075583"><ele>77.5</ele><time>2026-05-05T09:51:47.217Z</time></trkpt><trkpt lat="52.4563133" lon="-7.9076467"><ele>78.0</ele><time>2026-05-05T09:51:48.218Z</time></trkpt><trkpt lat="52.4560133" lon="-7.9077133"><ele>78.5</ele><time>2026-05-05T09:51:49.218Z</time></trkpt><trkpt lat="52.4557233" lon="-7.90779"><ele>79.0</ele><time>2026-05-05T09:51:50.217Z</time></trkpt><trkpt lat="52.45543" lon="-7.9078417"><ele>79.0</ele><time>2026-05-05T09:51:51.217Z</time></trkpt><trkpt lat="52.4551333" lon="-7.9079"><ele>79.0</ele><time>2026-05-05T09:51:52.218Z</time></trkpt><trkpt lat="52.4548283" lon="-7.90796"><ele>79.5</ele><time>2026-05-05T09:51:53.218Z</time></trkpt><trkpt lat="52.4545333" lon="-7.908025"><ele>80.0</ele><time>2026-05-05T09:51:54.218Z</time></trkpt><trkpt lat="52.45424" lon="-7.9080883"><ele>80.0</ele><time>2026-05-05T09:51:55.218Z</time></trkpt><trkpt lat="52.4539383" lon="-7.90814"><ele>80.0</ele><time>2026-05-05T09:51:56.218Z</time></trkpt><trkpt lat="52.4536417" lon="-7.908195"><ele>82.0</ele><time>2026-05-05T09:51:57.218Z</time></trkpt><trkpt lat="52.4533383" lon="-7.908255"><ele>84.0</ele><time>2026-05-05T09:51:58.218Z</time></trkpt><trkpt lat="52.4530467" lon="-7.9083133"><ele>85.0</ele><time>2026-05-05T09:51:59.218Z</time></trkpt><trkpt lat="52.45275" lon="-7.90836"><ele>86.0</ele><time>2026-05-05T09:52:00.218Z</time></trkpt><trkpt lat="52.4524667" lon="-7.9084183"><ele>86.0</ele><time>2026-05-05T09:52:01.218Z</time></trkpt><trkpt lat="52.4521783" lon="-7.908475"><ele>86.0</ele><time>2026-05-05T09:52:02.217Z</time></trkpt><trkpt lat="52.451895" lon="-7.9085183"><ele>87.0</ele><time>2026-05-05T09:52:03.218Z</time></trkpt><trkpt lat="52.4516033" lon="-7.90858"><ele>88.0</ele><time>2026-05-05T09:52:04.218Z</time></trkpt><trkpt lat="52.4513183" lon="-7.90863"><ele>89.5</ele><time>2026-05-05T09:52:05.218Z</time></trkpt><trkpt lat="52.4510283" lon="-7.9087"><ele>91.0</ele><time>2026-05-05T09:52:06.218Z</time></trkpt><trkpt lat="52.4507417" lon="-7.9087583"><ele>91.0</ele><time>2026-05-05T09:52:07.217Z</time></trkpt><trkpt lat="52.45045" lon="-7.9088133"><ele>91.0</ele><time>2026-05-05T09:52:08.218Z</time></trkpt><trkpt lat="52.45017" lon="-7.9088867"><ele>91.0</ele><time>2026-05-05T09:52:09.217Z</time></trkpt><trkpt lat="52.4498767" lon="-7.90894"><ele>91.0</ele><time>2026-05-05T09:52:10.218Z</time></trkpt><trkpt lat="52.4495783" lon="-7.908985"><ele>89.5</ele><time>2026-05-05T09:52:11.218Z</time></trkpt><trkpt lat="52.44928" lon="-7.9090517"><ele>88.0</ele><time>2026-05-05T09:52:12.218Z</time></trkpt><trkpt lat="52.4489833" lon="-7.9091167"><ele>87.5</ele><time>2026-05-05T09:52:13.218Z</time></trkpt><trkpt lat="52.4486833" lon="-7.90918"><ele>87.0</ele><time>2026-05-05T09:52:14.217Z</time></trkpt><trkpt lat="52.4483867" lon="-7.9092417"><ele>86.0</ele><time>2026-05-05T09:52:15.218Z</time></trkpt><trkpt lat="52.448085" lon="-7.9092983"><ele>85.0</ele><time>2026-05-05T09:52:16.218Z</time></trkpt><trkpt lat="52.4477883" lon="-7.909345"><ele>84.5</ele><time>2026-05-05T09:52:17.218Z</time></trkpt><trkpt lat="52.447495" lon="-7.909395"><ele>84.0</ele><time>2026-05-05T09:52:18.217Z</time></trkpt><trkpt lat="52.4471983" lon="-7.90945"><ele>83.5</ele><time>2026-05-05T09:52:19.218Z</time></trkpt><trkpt lat="52.4469" lon="-7.9095017"><ele>83.0</ele><time>2026-05-05T09:52:20.218Z</time></trkpt><trkpt lat="52.4466033" lon="-7.9095617"><ele>83.0</ele><time>2026-05-05T09:52:21.218Z</time></trkpt><trkpt lat="52.446305" lon="-7.9096233"><ele>83.0</ele><time>2026-05-05T09:52:22.218Z</time></trkpt><trkpt lat="52.44601" lon="-7.9096883"><ele>83.0</ele><time>2026-05-05T09:52:23.218Z</time></trkpt><trkpt lat="52.44571" lon="-7.9097567"><ele>83.0</ele><time>2026-05-05T09:52:24.217Z</time></trkpt><trkpt lat="52.4454017" lon="-7.909835"><ele>83.0</ele><time>2026-05-05T09:52:25.217Z</time></trkpt><trkpt lat="52.4451" lon="-7.9098967"><ele>83.0</ele><time>2026-05-05T09:52:26.218Z</time></trkpt><trkpt lat="52.4447983" lon="-7.90996"><ele>82.5</ele><time>2026-05-05T09:52:27.218Z</time></trkpt><trkpt lat="52.44449" lon="-7.9100267"><ele>82.0</ele><time>2026-05-05T09:52:28.218Z</time></trkpt><trkpt lat="52.4441867" lon="-7.91009"><ele>82.0</ele><time>2026-05-05T09:52:29.218Z</time></trkpt><trkpt lat="52.4438817" lon="-7.9101567"><ele>82.0</ele><time>2026-05-05T09:52:30.218Z</time></trkpt><trkpt lat="52.4435833" lon="-7.9102183"><ele>81.5</ele><time>2026-05-05T09:52:31.217Z</time></trkpt><trkpt lat="52.443285" lon="-7.9102867"><ele>81.0</ele><time>2026-05-05T09:52:32.218Z</time></trkpt><trkpt lat="52.4429767" lon="-7.910335"><ele>81.5</ele><time>2026-05-05T09:52:33.218Z</time></trkpt><trkpt lat="52.44267" lon="-7.9103767"><ele>82.0</ele><time>2026-05-05T09:52:34.217Z</time></trkpt><trkpt lat="52.4423567" lon="-7.910435"><ele>81.0</ele><time>2026-05-05T09:52:35.218Z</time></trkpt><trkpt lat="52.4420383" lon="-7.9104933"><ele>80.0</ele><time>2026-05-05T09:52:36.218Z</time></trkpt><trkpt lat="52.441735" lon="-7.91057"><ele>80.0</ele><time>2026-05-05T09:52:37.218Z</time></trkpt><trkpt lat="52.4414317" lon="-7.9106417"><ele>80.0</ele><time>2026-05-05T09:52:38.218Z</time></trkpt><trkpt lat="52.44113" lon="-7.9107083"><ele>79.5</ele><time>2026-05-05T09:52:39.218Z</time></trkpt><trkpt lat="52.4408317" lon="-7.91078"><ele>79.0</ele><time>2026-05-05T09:52:40.217Z</time></trkpt><trkpt lat="52.4405417" lon="-7.9108633"><ele>78.5</ele><time>2026-05-05T09:52:41.218Z</time></trkpt><trkpt lat="52.4402567" lon="-7.9109383"><ele>78.0</ele><time>2026-05-05T09:52:42.218Z</time></trkpt><trkpt lat="52.4399817" lon="-7.91102"><ele>78.0</ele><time>2026-05-05T09:52:43.218Z</time></trkpt><trkpt lat="52.439705" lon="-7.9111067"><ele>78.0</ele><time>2026-05-05T09:52:44.217Z</time></trkpt><trkpt lat="52.439435" lon="-7.9111917"><ele>77.5</ele><time>2026-05-05T09:52:45.218Z</time></trkpt><trkpt lat="52.439155" lon="-7.91127"><ele>77.0</ele><time>2026-05-05T09:52:46.218Z</time></trkpt><trkpt lat="52.4388833" lon="-7.9113683"><ele>76.0</ele><time>2026-05-05T09:52:47.218Z</time></trkpt><trkpt lat="52.4386067" lon="-7.9114717"><ele>75.0</ele><time>2026-05-05T09:52:48.218Z</time></trkpt><trkpt lat="52.4383333" lon="-7.9115833"><ele>75.0</ele><time>2026-05-05T09:52:49.218Z</time></trkpt><trkpt lat="52.4380583" lon="-7.9116783"><ele>75.0</ele><time>2026-05-05T09:52:50.217Z</time></trkpt><trkpt lat="52.43778" lon="-7.91177"><ele>75.0</ele><time>2026-05-05T09:52:51.217Z</time></trkpt><trkpt lat="52.4374867" lon="-7.91185"><ele>75.0</ele><time>2026-05-05T09:52:52.217Z</time></trkpt><trkpt lat="52.4371983" lon="-7.911935"><ele>74.5</ele><time>2026-05-05T09:52:53.218Z</time></trkpt><trkpt lat="52.4369067" lon="-7.9120167"><ele>74.0</ele><time>2026-05-05T09:52:54.218Z</time></trkpt><trkpt lat="52.4366133" lon="-7.9121083"><ele>74.0</ele><time>2026-05-05T09:52:55.218Z</time></trkpt><trkpt lat="52.4363267" lon="-7.912205"><ele>74.0</ele><time>2026-05-05T09:52:56.217Z</time></trkpt><trkpt lat="52.4360383" lon="-7.9122967"><ele>74.0</ele><time>2026-05-05T09:52:57.217Z</time></trkpt><trkpt lat="52.4357517" lon="-7.9123933"><ele>74.0</ele><time>2026-05-05T09:52:58.218Z</time></trkpt><trkpt lat="52.4354617" lon="-7.91247"><ele>74.5</ele><time>2026-05-05T09:52:59.218Z</time></trkpt><trkpt lat="52.4351717" lon="-7.912545"><ele>75.0</ele><time>2026-05-05T09:53:00.217Z</time></trkpt><trkpt lat="52.4348867" lon="-7.9126367"><ele>75.0</ele><time>2026-05-05T09:53:01.218Z</time></trkpt><trkpt lat="52.434595" lon="-7.91271"><ele>75.0</ele><time>2026-05-05T09:53:02.217Z</time></trkpt><trkpt lat="52.4343133" lon="-7.9127767"><ele>75.0</ele><time>2026-05-05T09:53:03.218Z</time></trkpt><trkpt lat="52.4340233" lon="-7.91285"><ele>75.0</ele><time>2026-05-05T09:53:04.218Z</time></trkpt><trkpt lat="52.43373" lon="-7.91293"><ele>75.0</ele><time>2026-05-05T09:53:05.217Z</time></trkpt><trkpt lat="52.4334417" lon="-7.9130283"><ele>75.0</ele><time>2026-05-05T09:53:06.218Z</time></trkpt><trkpt lat="52.4331483" lon="-7.9131167"><ele>75.0</ele><time>2026-05-05T09:53:07.218Z</time></trkpt><trkpt lat="52.4328533" lon="-7.9132117"><ele>75.0</ele><time>2026-05-05T09:53:08.218Z</time></trkpt><trkpt lat="52.432565" lon="-7.9133"><ele>75.0</ele><time>2026-05-05T09:53:09.218Z</time></trkpt><trkpt lat="52.4322833" lon="-7.9133867"><ele>75.0</ele><time>2026-05-05T09:53:10.218Z</time></trkpt><trkpt lat="52.4320167" lon="-7.9134833"><ele>76.0</ele><time>2026-05-05T09:53:11.218Z</time></trkpt><trkpt lat="52.431745" lon="-7.9135767"><ele>77.0</ele><time>2026-05-05T09:53:12.217Z</time></trkpt><trkpt lat="52.4314633" lon="-7.9136633"><ele>77.5</ele><time>2026-05-05T09:53:13.218Z</time></trkpt><trkpt lat="52.4311883" lon="-7.9137683"><ele>78.0</ele><time>2026-05-05T09:53:14.218Z</time></trkpt><trkpt lat="52.4309" lon="-7.9138517"><ele>78.0</ele><time>2026-05-05T09:53:15.217Z</time></trkpt><trkpt lat="52.4306083" lon="-7.9139417"><ele>78.0</ele><time>2026-05-05T09:53:16.218Z</time></trkpt><trkpt lat="52.43034" lon="-7.9140317"><ele>77.5</ele><time>2026-05-05T09:53:17.218Z</time></trkpt><trkpt lat="52.430045" lon="-7.9141067"><ele>77.0</ele><time>2026-05-05T09:53:18.217Z</time></trkpt><trkpt lat="52.42976" lon="-7.9141883"><ele>77.5</ele><time>2026-05-05T09:53:19.218Z</time></trkpt><trkpt lat="52.4294533" lon="-7.914265"><ele>78.0</ele><time>2026-05-05T09:53:20.218Z</time></trkpt><trkpt lat="52.4291417" lon="-7.91433"><ele>78.0</ele><time>2026-05-05T09:53:21.218Z</time></trkpt><trkpt lat="52.4288383" lon="-7.9143967"><ele>78.0</ele><time>2026-05-05T09:53:22.218Z</time></trkpt><trkpt lat="52.4285367" lon="-7.9144583"><ele>77.5</ele><time>2026-05-05T09:53:23.218Z</time></trkpt><trkpt lat="52.428235" lon="-7.9145117"><ele>77.0</ele><time>2026-05-05T09:53:24.218Z</time></trkpt><trkpt lat="52.4279267" lon="-7.91457"><ele>75.5</ele><time>2026-05-05T09:53:25.218Z</time></trkpt><trkpt lat="52.42763" lon="-7.9146183"><ele>74.0</ele><time>2026-05-05T09:53:26.218Z</time></trkpt><trkpt lat="52.427345" lon="-7.9146767"><ele>73.0</ele><time>2026-05-05T09:53:27.218Z</time></trkpt><trkpt lat="52.42707" lon="-7.9146933"><ele>72.0</ele><time>2026-05-05T09:53:28.217Z</time></trkpt><trkpt lat="52.4268067" lon="-7.91473"><ele>72.0</ele><time>2026-05-05T09:53:29.217Z</time></trkpt><trkpt lat="52.42654" lon="-7.914755"><ele>72.0</ele><time>2026-05-05T09:53:30.218Z</time></trkpt><trkpt lat="52.4262717" lon="-7.91478"><ele>71.5</ele><time>2026-05-05T09:53:31.217Z</time></trkpt><trkpt lat="52.4259933" lon="-7.9148"><ele>71.0</ele><time>2026-05-05T09:53:32.217Z</time></trkpt><trkpt lat="52.42571" lon="-7.9148267"><ele>70.0</ele><time>2026-05-05T09:53:33.217Z</time></trkpt><trkpt lat="52.4254317" lon="-7.914845"><ele>69.0</ele><time>2026-05-05T09:53:34.218Z</time></trkpt><trkpt lat="52.4251467" lon="-7.9148517"><ele>69.0</ele><time>2026-05-05T09:53:35.218Z</time></trkpt><trkpt lat="52.4248567" lon="-7.914855"><ele>69.0</ele><time>2026-05-05T09:53:36.218Z</time></trkpt><trkpt lat="52.42457" lon="-7.9148667"><ele>70.0</ele><time>2026-05-05T09:53:37.218Z</time></trkpt><trkpt lat="52.4242833" lon="-7.9148733"><ele>71.0</ele><time>2026-05-05T09:53:38.218Z</time></trkpt><trkpt lat="52.4240067" lon="-7.9148833"><ele>72.5</ele><time>2026-05-05T09:53:39.218Z</time></trkpt><trkpt lat="52.4237183" lon="-7.91487"><ele>74.0</ele><time>2026-05-05T09:53:40.217Z</time></trkpt><trkpt lat="52.4234433" lon="-7.9148617"><ele>74.0</ele><time>2026-05-05T09:53:41.217Z</time></trkpt><trkpt lat="52.4231567" lon="-7.9148433"><ele>74.0</ele><time>2026-05-05T09:53:42.217Z</time></trkpt><trkpt lat="52.4228817" lon="-7.91484"><ele>75.5</ele><time>2026-05-05T09:53:43.217Z</time></trkpt><trkpt lat="52.422605" lon="-7.9148383"><ele>77.0</ele><time>2026-05-05T09:53:44.218Z</time></trkpt><trkpt lat="52.4223233" lon="-7.91482"><ele>76.0</ele><time>2026-05-05T09:53:45.217Z</time></trkpt><trkpt lat="52.422035" lon="-7.9147867"><ele>75.0</ele><time>2026-05-05T09:53:46.218Z</time></trkpt><trkpt lat="52.4217483" lon="-7.9147517"><ele>75.0</ele><time>2026-05-05T09:53:47.218Z</time></trkpt><trkpt lat="52.421455" lon="-7.91472"><ele>75.0</ele><time>2026-05-05T09:53:48.218Z</time></trkpt><trkpt lat="52.4211783" lon="-7.91467"><ele>73.5</ele><time>2026-05-05T09:53:49.218Z</time></trkpt><trkpt lat="52.4208967" lon="-7.91462"><ele>72.0</ele><time>2026-05-05T09:53:50.217Z</time></trkpt><trkpt lat="52.4206117" lon="-7.91458"><ele>70.5</ele><time>2026-05-05T09:53:51.218Z</time></trkpt><trkpt lat="52.4203267" lon="-7.91454"><ele>69.0</ele><time>2026-05-05T09:53:52.217Z</time></trkpt><trkpt lat="52.4200483" lon="-7.9145017"><ele>69.0</ele><time>2026-05-05T09:53:53.218Z</time></trkpt><trkpt lat="52.41977" lon="-7.9144517"><ele>69.0</ele><time>2026-05-05T09:53:54.218Z</time></trkpt><trkpt lat="52.4194883" lon="-7.9143917"><ele>67.5</ele><time>2026-05-05T09:53:55.218Z</time></trkpt><trkpt lat="52.41921" lon="-7.9143333"><ele>66.0</ele><time>2026-05-05T09:53:56.218Z</time></trkpt><trkpt lat="52.418925" lon="-7.9142267"><ele>64.5</ele><time>2026-05-05T09:53:57.218Z</time></trkpt><trkpt lat="52.4186417" lon="-7.9141533"><ele>63.0</ele><time>2026-05-05T09:53:58.217Z</time></trkpt><trkpt lat="52.4183467" lon="-7.9140867"><ele>63.0</ele><time>2026-05-05T09:53:59.217Z</time></trkpt><trkpt lat="52.4180783" lon="-7.9139817"><ele>63.0</ele><time>2026-05-05T09:54:00.218Z</time></trkpt><trkpt lat="52.417805" lon="-7.913915"><ele>62.0</ele><time>2026-05-05T09:54:01.218Z</time></trkpt><trkpt lat="52.41753" lon="-7.9138317"><ele>61.0</ele><time>2026-05-05T09:54:02.217Z</time></trkpt><trkpt lat="52.41724" lon="-7.91373"><ele>61.5</ele><time>2026-05-05T09:54:03.217Z</time></trkpt><trkpt lat="52.416955" lon="-7.9136483"><ele>62.0</ele><time>2026-05-05T09:54:04.218Z</time></trkpt><trkpt lat="52.4166733" lon="-7.91358"><ele>62.0</ele><time>2026-05-05T09:54:05.218Z</time></trkpt><trkpt lat="52.416395" lon="-7.9135067"><ele>62.0</ele><time>2026-05-05T09:54:06.217Z</time></trkpt><trkpt lat="52.4161167" lon="-7.91344"><ele>60.5</ele><time>2026-05-05T09:54:07.218Z</time></trkpt><trkpt lat="52.415815" lon="-7.9133683"><ele>59.0</ele><time>2026-05-05T09:54:08.218Z</time></trkpt><trkpt lat="52.4155217" lon="-7.913305"><ele>58.5</ele><time>2026-05-05T09:54:09.217Z</time></trkpt><trkpt lat="52.4152117" lon="-7.9132567"><ele>58.0</ele><time>2026-05-05T09:54:10.217Z</time></trkpt><trkpt lat="52.414895" lon="-7.9132033"><ele>58.5</ele><time>2026-05-05T09:54:11.218Z</time></trkpt><trkpt lat="52.4145733" lon="-7.91315"><ele>59.0</ele><time>2026-05-05T09:54:12.218Z</time></trkpt><trkpt lat="52.41426" lon="-7.913105"><ele>59.0</ele><time>2026-05-05T09:54:13.217Z</time></trkpt><trkpt lat="52.41394" lon="-7.9130567"><ele>59.0</ele><time>2026-05-05T09:54:14.218Z</time></trkpt><trkpt lat="52.4136183" lon="-7.913015"><ele>59.0</ele><time>2026-05-05T09:54:15.218Z</time></trkpt><trkpt lat="52.4132967" lon="-7.91298"><ele>59.0</ele><time>2026-05-05T09:54:16.218Z</time></trkpt><trkpt lat="52.41298" lon="-7.9129383"><ele>59.0</ele><time>2026-05-05T09:54:17.217Z</time></trkpt><trkpt lat="52.412645" lon="-7.91291"><ele>59.0</ele><time>2026-05-05T09:54:18.218Z</time></trkpt><trkpt lat="52.4123133" lon="-7.9128767"><ele>59.5</ele><time>2026-05-05T09:54:19.218Z</time></trkpt><trkpt lat="52.412005" lon="-7.9128617"><ele>60.0</ele><time>2026-05-05T09:54:20.218Z</time></trkpt><trkpt lat="52.411705" lon="-7.9128417"><ele>60.0</ele><time>2026-05-05T09:54:21.217Z</time></trkpt><trkpt lat="52.4114133" lon="-7.9128433"><ele>60.0</ele><time>2026-05-05T09:54:22.218Z</time></trkpt><trkpt lat="52.411115" lon="-7.9128583"><ele>60.5</ele><time>2026-05-05T09:54:23.218Z</time></trkpt><trkpt lat="52.4108167" lon="-7.912865"><ele>61.0</ele><time>2026-05-05T09:54:24.217Z</time></trkpt><trkpt lat="52.4105117" lon="-7.9128717"><ele>62.0</ele><time>2026-05-05T09:54:25.217Z</time></trkpt><trkpt lat="52.4102017" lon="-7.91286"><ele>63.0</ele><time>2026-05-05T09:54:26.218Z</time></trkpt><trkpt lat="52.4099017" lon="-7.9128617"><ele>62.0</ele><time>2026-05-05T09:54:27.218Z</time></trkpt><trkpt lat="52.4095967" lon="-7.9128767"><ele>61.0</ele><time>2026-05-05T09:54:28.218Z</time></trkpt><trkpt lat="52.4092667" lon="-7.9129"><ele>61.0</ele><time>2026-05-05T09:54:29.218Z</time></trkpt><trkpt lat="52.4089583" lon="-7.912965"><ele>61.0</ele><time>2026-05-05T09:54:30.217Z</time></trkpt><trkpt lat="52.408655" lon="-7.913025"><ele>59.5</ele><time>2026-05-05T09:54:31.218Z</time></trkpt><trkpt lat="52.4083617" lon="-7.9130633"><ele>58.0</ele><time>2026-05-05T09:54:32.218Z</time></trkpt><trkpt lat="52.4080667" lon="-7.913105"><ele>56.5</ele><time>2026-05-05T09:54:33.218Z</time></trkpt><trkpt lat="52.4077717" lon="-7.9131483"><ele>55.0</ele><time>2026-05-05T09:54:34.218Z</time></trkpt><trkpt lat="52.4074767" lon="-7.9131983"><ele>55.0</ele><time>2026-05-05T09:54:35.218Z</time></trkpt><trkpt lat="52.4071683" lon="-7.9132467"><ele>55.0</ele><time>2026-05-05T09:54:36.218Z</time></trkpt><trkpt lat="52.40687" lon="-7.91331"><ele>55.0</ele><time>2026-05-05T09:54:37.217Z</time></trkpt><trkpt lat="52.4065733" lon="-7.9133683"><ele>55.0</ele><time>2026-05-05T09:54:38.217Z</time></trkpt><trkpt lat="52.406275" lon="-7.91344"><ele>55.0</ele><time>2026-05-05T09:54:39.218Z</time></trkpt><trkpt lat="52.4059917" lon="-7.91353"><ele>55.0</ele><time>2026-05-05T09:54:40.217Z</time></trkpt><trkpt lat="52.405695" lon="-7.9135783"><ele>55.5</ele><time>2026-05-05T09:54:41.218Z</time></trkpt><trkpt lat="52.4053967" lon="-7.9136367"><ele>56.0</ele><time>2026-05-05T09:54:42.217Z</time></trkpt><trkpt lat="52.405105" lon="-7.9136933"><ele>56.0</ele><time>2026-05-05T09:54:43.218Z</time></trkpt><trkpt lat="52.4048117" lon="-7.9137533"><ele>56.0</ele><time>2026-05-05T09:54:44.218Z</time></trkpt><trkpt lat="52.4045383" lon="-7.9138217"><ele>55.0</ele><time>2026-05-05T09:54:45.217Z</time></trkpt><trkpt lat="52.404275" lon="-7.9138983"><ele>54.0</ele><time>2026-05-05T09:54:46.218Z</time></trkpt><trkpt lat="52.4040117" lon="-7.91398"><ele>53.0</ele><time>2026-05-05T09:54:47.217Z</time></trkpt><trkpt lat="52.4037467" lon="-7.9140633"><ele>52.0</ele><time>2026-05-05T09:54:48.218Z</time></trkpt><trkpt lat="52.4034833" lon="-7.9141417"><ele>52.0</ele><time>2026-05-05T09:54:49.218Z</time></trkpt><trkpt lat="52.4032133" lon="-7.9142283"><ele>52.0</ele><time>2026-05-05T09:54:50.218Z</time></trkpt><trkpt lat="52.4029533" lon="-7.91432"><ele>51.0</ele><time>2026-05-05T09:54:51.218Z</time></trkpt><trkpt lat="52.4026867" lon="-7.9144317"><ele>50.0</ele><time>2026-05-05T09:54:52.218Z</time></trkpt><trkpt lat="52.4024117" lon="-7.914545"><ele>51.0</ele><time>2026-05-05T09:54:53.217Z</time></trkpt><trkpt lat="52.4021417" lon="-7.914665"><ele>52.0</ele><time>2026-05-05T09:54:54.218Z</time></trkpt><trkpt lat="52.4018617" lon="-7.9147967"><ele>52.0</ele><time>2026-05-05T09:54:55.217Z</time></trkpt><trkpt lat="52.4015717" lon="-7.914915"><ele>52.0</ele><time>2026-05-05T09:54:56.217Z</time></trkpt><trkpt lat="52.4012817" lon="-7.9150467"><ele>52.5</ele><time>2026-05-05T09:54:57.218Z</time></trkpt><trkpt lat="52.401" lon="-7.9151733"><ele>53.0</ele><time>2026-05-05T09:54:58.218Z</time></trkpt><trkpt lat="52.4007133" lon="-7.91531"><ele>53.0</ele><time>2026-05-05T09:54:59.218Z</time></trkpt><trkpt lat="52.40043" lon="-7.9154567"><ele>53.0</ele><time>2026-05-05T09:55:00.217Z</time></trkpt><trkpt lat="52.400145" lon="-7.9156133"><ele>53.0</ele><time>2026-05-05T09:55:01.218Z</time></trkpt><trkpt lat="52.3998633" lon="-7.915765"><ele>53.0</ele><time>2026-05-05T09:55:02.217Z</time></trkpt><trkpt lat="52.3995767" lon="-7.9159267"><ele>52.5</ele><time>2026-05-05T09:55:03.218Z</time></trkpt><trkpt lat="52.3992833" lon="-7.9160967"><ele>52.0</ele><time>2026-05-05T09:55:04.218Z</time></trkpt><trkpt lat="52.39901" lon="-7.9162583"><ele>50.5</ele><time>2026-05-05T09:55:05.217Z</time></trkpt><trkpt lat="52.3987167" lon="-7.9164183"><ele>49.0</ele><time>2026-05-05T09:55:06.217Z</time></trkpt><trkpt lat="52.398425" lon="-7.91659"><ele>48.0</ele><time>2026-05-05T09:55:07.218Z</time></trkpt><trkpt lat="52.3981467" lon="-7.9167683"><ele>47.0</ele><time>2026-05-05T09:55:08.217Z</time></trkpt><trkpt lat="52.3978717" lon="-7.9169417"><ele>47.0</ele><time>2026-05-05T09:55:09.217Z</time></trkpt><trkpt lat="52.3976083" lon="-7.917135"><ele>47.0</ele><time>2026-05-05T09:55:10.218Z</time></trkpt><trkpt lat="52.3973383" lon="-7.9173367"><ele>47.0</ele><time>2026-05-05T09:55:11.217Z</time></trkpt><trkpt lat="52.397065" lon="-7.9175533"><ele>47.0</ele><time>2026-05-05T09:55:12.218Z</time></trkpt><trkpt lat="52.3968" lon="-7.9177917"><ele>47.0</ele><time>2026-05-05T09:55:13.217Z</time></trkpt><trkpt lat="52.3965417" lon="-7.918035"><ele>47.0</ele><time>2026-05-05T09:55:14.218Z</time></trkpt><trkpt lat="52.396275" lon="-7.9182817"><ele>44.5</ele><time>2026-05-05T09:55:15.218Z</time></trkpt><trkpt lat="52.396005" lon="-7.918515"><ele>42.0</ele><time>2026-05-05T09:55:16.218Z</time></trkpt><trkpt lat="52.3957433" lon="-7.918785"><ele>42.0</ele><time>2026-05-05T09:55:17.217Z</time></trkpt><trkpt lat="52.39549" lon="-7.9190767"><ele>42.0</ele><time>2026-05-05T09:55:18.217Z</time></trkpt><trkpt lat="52.3952433" lon="-7.9193533"><ele>41.5</ele><time>2026-05-05T09:55:19.218Z</time></trkpt><trkpt lat="52.395005" lon="-7.9196417"><ele>41.0</ele><time>2026-05-05T09:55:20.218Z</time></trkpt><trkpt lat="52.3947667" lon="-7.9199283"><ele>41.0</ele><time>2026-05-05T09:55:21.217Z</time></trkpt><trkpt lat="52.394535" lon="-7.9202267"><ele>41.0</ele><time>2026-05-05T09:55:22.217Z</time></trkpt><trkpt lat="52.3943117" lon="-7.9205367"><ele>41.0</ele><time>2026-05-05T09:55:23.218Z</time></trkpt><trkpt lat="52.3941067" lon="-7.9208617"><ele>41.0</ele><time>2026-05-05T09:55:24.218Z</time></trkpt><trkpt lat="52.3939" lon="-7.9211933"><ele>43.5</ele><time>2026-05-05T09:55:25.218Z</time></trkpt><trkpt lat="52.3937067" lon="-7.9215417"><ele>46.0</ele><time>2026-05-05T09:55:26.218Z</time></trkpt><trkpt lat="52.3935067" lon="-7.92187"><ele>49.0</ele><time>2026-05-05T09:55:27.217Z</time></trkpt><trkpt lat="52.3933167" lon="-7.92222"><ele>52.0</ele><time>2026-05-05T09:55:28.218Z</time></trkpt><trkpt lat="52.3931317" lon="-7.9225667"><ele>55.5</ele><time>2026-05-05T09:55:29.218Z</time></trkpt><trkpt lat="52.3929483" lon="-7.922945"><ele>59.0</ele><time>2026-05-05T09:55:30.218Z</time></trkpt><trkpt lat="52.3927733" lon="-7.9233083"><ele>61.5</ele><time>2026-05-05T09:55:31.217Z</time></trkpt><trkpt lat="52.3925933" lon="-7.9236883"><ele>64.0</ele><time>2026-05-05T09:55:32.218Z</time></trkpt><trkpt lat="52.3924217" lon="-7.9240833"><ele>64.5</ele><time>2026-05-05T09:55:33.218Z</time></trkpt><trkpt lat="52.3922583" lon="-7.9244817"><ele>65.0</ele><time>2026-05-05T09:55:34.217Z</time></trkpt><trkpt lat="52.3921" lon="-7.9248933"><ele>66.0</ele><time>2026-05-05T09:55:35.218Z</time></trkpt><trkpt lat="52.3919467" lon="-7.92532"><ele>67.0</ele><time>2026-05-05T09:55:36.217Z</time></trkpt><trkpt lat="52.391805" lon="-7.9257517"><ele>68.5</ele><time>2026-05-05T09:55:37.218Z</time></trkpt><trkpt lat="52.3916667" lon="-7.926185"><ele>70.0</ele><time>2026-05-05T09:55:38.218Z</time></trkpt><trkpt lat="52.391535" lon="-7.926615"><ele>71.0</ele><time>2026-05-05T09:55:39.218Z</time></trkpt><trkpt lat="52.3914067" lon="-7.92706"><ele>72.0</ele><time>2026-05-05T09:55:40.217Z</time></trkpt><trkpt lat="52.3912933" lon="-7.9275133"><ele>71.5</ele><time>2026-05-05T09:55:41.218Z</time></trkpt><trkpt lat="52.3911883" lon="-7.9279633"><ele>71.0</ele><time>2026-05-05T09:55:42.218Z</time></trkpt><trkpt lat="52.3911033" lon="-7.9284083"><ele>71.0</ele><time>2026-05-05T09:55:43.218Z</time></trkpt><trkpt lat="52.3910167" lon="-7.928845"><ele>71.0</ele><time>2026-05-05T09:55:44.218Z</time></trkpt><trkpt lat="52.3909333" lon="-7.9292783"><ele>74.0</ele><time>2026-05-05T09:55:45.218Z</time></trkpt><trkpt lat="52.3908567" lon="-7.9297117"><ele>77.0</ele><time>2026-05-05T09:55:46.218Z</time></trkpt><trkpt lat="52.3907783" lon="-7.9301517"><ele>76.5</ele><time>2026-05-05T09:55:47.217Z</time></trkpt><trkpt lat="52.390695" lon="-7.9306033"><ele>76.0</ele><time>2026-05-05T09:55:48.218Z</time></trkpt><trkpt lat="52.3905967" lon="-7.9310633"><ele>76.0</ele><time>2026-05-05T09:55:49.217Z</time></trkpt><trkpt lat="52.3905117" lon="-7.93149"><ele>76.0</ele><time>2026-05-05T09:55:50.218Z</time></trkpt><trkpt lat="52.3904217" lon="-7.9319033"><ele>69.5</ele><time>2026-05-05T09:55:51.218Z</time></trkpt><trkpt lat="52.3903283" lon="-7.932305"><ele>63.0</ele><time>2026-05-05T09:55:52.217Z</time></trkpt><trkpt lat="52.3902217" lon="-7.9327067"><ele>61.0</ele><time>2026-05-05T09:55:53.218Z</time></trkpt><trkpt lat="52.3901" lon="-7.9331"><ele>59.0</ele><time>2026-05-05T09:55:54.218Z</time></trkpt><trkpt lat="52.3899633" lon="-7.9334917"><ele>58.5</ele><time>2026-05-05T09:55:55.218Z</time></trkpt><trkpt lat="52.3898333" lon="-7.9338933"><ele>58.0</ele><time>2026-05-05T09:55:56.218Z</time></trkpt><trkpt lat="52.3896983" lon="-7.9342833"><ele>56.5</ele><time>2026-05-05T09:55:57.218Z</time></trkpt><trkpt lat="52.3895517" lon="-7.934685"><ele>55.0</ele><time>2026-05-05T09:55:58.217Z</time></trkpt><trkpt lat="52.3893933" lon="-7.9350667"><ele>55.0</ele><time>2026-05-05T09:55:59.218Z</time></trkpt><trkpt lat="52.3892317" lon="-7.9354383"><ele>55.0</ele><time>2026-05-05T09:56:00.217Z</time></trkpt><trkpt lat="52.3890683" lon="-7.9358133"><ele>58.5</ele><time>2026-05-05T09:56:01.217Z</time></trkpt><trkpt lat="52.388895" lon="-7.936165"><ele>62.0</ele><time>2026-05-05T09:56:02.217Z</time></trkpt><trkpt lat="52.3887083" lon="-7.9364967"><ele>64.5</ele><time>2026-05-05T09:56:03.217Z</time></trkpt><trkpt lat="52.3885167" lon="-7.9368267"><ele>67.0</ele><time>2026-05-05T09:56:04.218Z</time></trkpt><trkpt lat="52.3883217" lon="-7.9371517"><ele>67.0</ele><time>2026-05-05T09:56:05.217Z</time></trkpt><trkpt lat="52.388115" lon="-7.9374683"><ele>67.0</ele><time>2026-05-05T09:56:06.218Z</time></trkpt><trkpt lat="52.387905" lon="-7.9377883"><ele>68.0</ele><time>2026-05-05T09:56:07.217Z</time></trkpt><trkpt lat="52.3876817" lon="-7.9381017"><ele>69.0</ele><time>2026-05-05T09:56:08.218Z</time></trkpt><trkpt lat="52.3874533" lon="-7.9384067"><ele>70.0</ele><time>2026-05-05T09:56:09.218Z</time></trkpt><trkpt lat="52.3872183" lon="-7.9387"><ele>71.0</ele><time>2026-05-05T09:56:10.217Z</time></trkpt><trkpt lat="52.3869633" lon="-7.93897"><ele>74.5</ele><time>2026-05-05T09:56:11.217Z</time></trkpt><trkpt lat="52.3867167" lon="-7.9392417"><ele>78.0</ele><time>2026-05-05T09:56:12.218Z</time></trkpt><trkpt lat="52.3864617" lon="-7.93951"><ele>77.0</ele><time>2026-05-05T09:56:13.218Z</time></trkpt><trkpt lat="52.386195" lon="-7.9397683"><ele>76.0</ele><time>2026-05-05T09:56:14.217Z</time></trkpt><trkpt lat="52.3859267" lon="-7.939995"><ele>76.5</ele><time>2026-05-05T09:56:15.217Z</time></trkpt><trkpt lat="52.3856517" lon="-7.9402167"><ele>77.0</ele><time>2026-05-05T09:56:16.217Z</time></trkpt><trkpt lat="52.3853717" lon="-7.940425"><ele>77.0</ele><time>2026-05-05T09:56:17.217Z</time></trkpt><trkpt lat="52.38509" lon="-7.9406483"><ele>77.0</ele><time>2026-05-05T09:56:18.217Z</time></trkpt><trkpt lat="52.3848133" lon="-7.9408783"><ele>78.5</ele><time>2026-05-05T09:56:19.218Z</time></trkpt><trkpt lat="52.3845417" lon="-7.9411133"><ele>80.0</ele><time>2026-05-05T09:56:20.218Z</time></trkpt><trkpt lat="52.3842817" lon="-7.94136"><ele>80.0</ele><time>2026-05-05T09:56:21.217Z</time></trkpt><trkpt lat="52.3840233" lon="-7.941635"><ele>80.0</ele><time>2026-05-05T09:56:22.218Z</time></trkpt><trkpt lat="52.38376" lon="-7.9419083"><ele>79.5</ele><time>2026-05-05T09:56:23.218Z</time></trkpt><trkpt lat="52.3834983" lon="-7.9421883"><ele>79.0</ele><time>2026-05-05T09:56:24.217Z</time></trkpt><trkpt lat="52.3832417" lon="-7.9424783"><ele>78.5</ele><time>2026-05-05T09:56:25.218Z</time></trkpt><trkpt lat="52.3829983" lon="-7.942785"><ele>78.0</ele><time>2026-05-05T09:56:26.217Z</time></trkpt><trkpt lat="52.3827583" lon="-7.9431183"><ele>79.5</ele><time>2026-05-05T09:56:27.218Z</time></trkpt><trkpt lat="52.3825383" lon="-7.9434767"><ele>81.0</ele><time>2026-05-05T09:56:28.218Z</time></trkpt><trkpt lat="52.3823167" lon="-7.9438233"><ele>80.0</ele><time>2026-05-05T09:56:29.218Z</time></trkpt><trkpt lat="52.3821133" lon="-7.9441933"><ele>79.0</ele><time>2026-05-05T09:56:30.218Z</time></trkpt><trkpt lat="52.381915" lon="-7.9445433"><ele>79.0</ele><time>2026-05-05T09:56:31.217Z</time></trkpt><trkpt lat="52.381735" lon="-7.944925"><ele>79.0</ele><time>2026-05-05T09:56:32.217Z</time></trkpt><trkpt lat="52.3815483" lon="-7.945325"><ele>80.0</ele><time>2026-05-05T09:56:33.218Z</time></trkpt><trkpt lat="52.3813633" lon="-7.945725"><ele>81.0</ele><time>2026-05-05T09:56:34.218Z</time></trkpt><trkpt lat="52.3811783" lon="-7.9461367"><ele>81.0</ele><time>2026-05-05T09:56:35.217Z</time></trkpt><trkpt lat="52.3809933" lon="-7.946555"><ele>81.0</ele><time>2026-05-05T09:56:36.217Z</time></trkpt><trkpt lat="52.3808067" lon="-7.9469817"><ele>82.0</ele><time>2026-05-05T09:56:37.218Z</time></trkpt><trkpt lat="52.3806333" lon="-7.9473683"><ele>83.0</ele><time>2026-05-05T09:56:38.218Z</time></trkpt><trkpt lat="52.3804583" lon="-7.9477333"><ele>83.5</ele><time>2026-05-05T09:56:39.217Z</time></trkpt><trkpt lat="52.3802883" lon="-7.9480767"><ele>84.0</ele><time>2026-05-05T09:56:40.217Z</time></trkpt><trkpt lat="52.380115" lon="-7.9484067"><ele>86.0</ele><time>2026-05-05T09:56:41.217Z</time></trkpt><trkpt lat="52.3799467" lon="-7.9487383"><ele>88.0</ele><time>2026-05-05T09:56:42.218Z</time></trkpt><trkpt lat="52.37977" lon="-7.9490933"><ele>88.5</ele><time>2026-05-05T09:56:43.218Z</time></trkpt><trkpt lat="52.3795833" lon="-7.9494483"><ele>89.0</ele><time>2026-05-05T09:56:44.217Z</time></trkpt><trkpt lat="52.3793783" lon="-7.949825"><ele>90.0</ele><time>2026-05-05T09:56:45.218Z</time></trkpt><trkpt lat="52.3791683" lon="-7.9501733"><ele>91.0</ele><time>2026-05-05T09:56:46.218Z</time></trkpt><trkpt lat="52.3789383" lon="-7.9505267"><ele>89.0</ele><time>2026-05-05T09:56:47.218Z</time></trkpt><trkpt lat="52.3787117" lon="-7.9508683"><ele>87.0</ele><time>2026-05-05T09:56:48.218Z</time></trkpt><trkpt lat="52.378485" lon="-7.9512033"><ele>87.0</ele><time>2026-05-05T09:56:49.217Z</time></trkpt><trkpt lat="52.378255" lon="-7.9515233"><ele>87.0</ele><time>2026-05-05T09:56:50.218Z</time></trkpt><trkpt lat="52.378015" lon="-7.9518233"><ele>85.5</ele><time>2026-05-05T09:56:51.218Z</time></trkpt><trkpt lat="52.3777933" lon="-7.9521183"><ele>84.0</ele><time>2026-05-05T09:56:52.217Z</time></trkpt><trkpt lat="52.3775733" lon="-7.95241"><ele>84.5</ele><time>2026-05-05T09:56:53.217Z</time></trkpt><trkpt lat="52.3773467" lon="-7.9526967"><ele>85.0</ele><time>2026-05-05T09:56:54.217Z</time></trkpt><trkpt lat="52.3771133" lon="-7.9530067"><ele>85.0</ele><time>2026-05-05T09:56:55.218Z</time></trkpt><trkpt lat="52.3768883" lon="-7.9533333"><ele>85.0</ele><time>2026-05-05T09:56:56.217Z</time></trkpt><trkpt lat="52.3766517" lon="-7.95364"><ele>85.0</ele><time>2026-05-05T09:56:57.217Z</time></trkpt><trkpt lat="52.376415" lon="-7.953955"><ele>85.0</ele><time>2026-05-05T09:56:58.218Z</time></trkpt><trkpt lat="52.3761867" lon="-7.95427"><ele>85.0</ele><time>2026-05-05T09:56:59.218Z</time></trkpt><trkpt lat="52.3759533" lon="-7.9545883"><ele>85.0</ele><time>2026-05-05T09:57:00.218Z</time></trkpt><trkpt lat="52.375725" lon="-7.9549133"><ele>84.5</ele><time>2026-05-05T09:57:01.218Z</time></trkpt><trkpt lat="52.3754983" lon="-7.9552383"><ele>84.0</ele><time>2026-05-05T09:57:02.218Z</time></trkpt><trkpt lat="52.3752683" lon="-7.9555517"><ele>84.0</ele><time>2026-05-05T09:57:03.218Z</time></trkpt><trkpt lat="52.3750367" lon="-7.955865"><ele>84.0</ele><time>2026-05-05T09:57:04.218Z</time></trkpt><trkpt lat="52.3747983" lon="-7.956185"><ele>83.5</ele><time>2026-05-05T09:57:05.217Z</time></trkpt><trkpt lat="52.37455" lon="-7.9565033"><ele>83.0</ele><time>2026-05-05T09:57:06.218Z</time></trkpt><trkpt lat="52.3742983" lon="-7.9568167"><ele>83.0</ele><time>2026-05-05T09:57:07.218Z</time></trkpt><trkpt lat="52.3740567" lon="-7.9571467"><ele>83.0</ele><time>2026-05-05T09:57:08.218Z</time></trkpt><trkpt lat="52.3738083" lon="-7.9574667"><ele>81.5</ele><time>2026-05-05T09:57:09.218Z</time></trkpt><trkpt lat="52.373565" lon="-7.9577717"><ele>80.0</ele><time>2026-05-05T09:57:10.218Z</time></trkpt><trkpt lat="52.3733167" lon="-7.9580683"><ele>80.0</ele><time>2026-05-05T09:57:11.218Z</time></trkpt><trkpt lat="52.373075" lon="-7.9583667"><ele>80.0</ele><time>2026-05-05T09:57:12.218Z</time></trkpt><trkpt lat="52.372845" lon="-7.95868"><ele>79.5</ele><time>2026-05-05T09:57:13.218Z</time></trkpt><trkpt lat="52.3726117" lon="-7.9590067"><ele>79.0</ele><time>2026-05-05T09:57:14.218Z</time></trkpt><trkpt lat="52.3723833" lon="-7.959335"><ele>79.5</ele><time>2026-05-05T09:57:15.217Z</time></trkpt><trkpt lat="52.372155" lon="-7.9596583"><ele>80.0</ele><time>2026-05-05T09:57:16.218Z</time></trkpt><trkpt lat="52.3719233" lon="-7.9599883"><ele>81.0</ele><time>2026-05-05T09:57:17.218Z</time></trkpt><trkpt lat="52.3717017" lon="-7.960335"><ele>82.0</ele><time>2026-05-05T09:57:18.217Z</time></trkpt><trkpt lat="52.3714817" lon="-7.960675"><ele>80.5</ele><time>2026-05-05T09:57:19.218Z</time></trkpt><trkpt lat="52.3712617" lon="-7.9610267"><ele>79.0</ele><time>2026-05-05T09:57:20.218Z</time></trkpt><trkpt lat="52.3710367" lon="-7.9613783"><ele>79.5</ele><time>2026-05-05T09:57:21.218Z</time></trkpt><trkpt lat="52.3708317" lon="-7.9617567"><ele>80.0</ele><time>2026-05-05T09:57:22.218Z</time></trkpt><trkpt lat="52.3706317" lon="-7.9621367"><ele>79.5</ele><time>2026-05-05T09:57:23.218Z</time></trkpt><trkpt lat="52.3704467" lon="-7.9625283"><ele>79.0</ele><time>2026-05-05T09:57:24.218Z</time></trkpt><trkpt lat="52.370275" lon="-7.9629083"><ele>79.0</ele><time>2026-05-05T09:57:25.218Z</time></trkpt><trkpt lat="52.37011" lon="-7.963285"><ele>79.0</ele><time>2026-05-05T09:57:26.217Z</time></trkpt><trkpt lat="52.3699533" lon="-7.9636683"><ele>79.0</ele><time>2026-05-05T09:57:27.218Z</time></trkpt><trkpt lat="52.3697917" lon="-7.9640467"><ele>79.0</ele><time>2026-05-05T09:57:28.218Z</time></trkpt><trkpt lat="52.36964" lon="-7.96441"><ele>80.0</ele><time>2026-05-05T09:57:29.218Z</time></trkpt><trkpt lat="52.369485" lon="-7.96479"><ele>81.0</ele><time>2026-05-05T09:57:30.218Z</time></trkpt><trkpt lat="52.369335" lon="-7.9651783"><ele>82.0</ele><time>2026-05-05T09:57:31.219Z</time></trkpt><trkpt lat="52.36918" lon="-7.965565"><ele>83.0</ele><time>2026-05-05T09:57:32.218Z</time></trkpt><trkpt lat="52.36902" lon="-7.9659467"><ele>84.5</ele><time>2026-05-05T09:57:33.219Z</time></trkpt><trkpt lat="52.3688683" lon="-7.966335"><ele>86.0</ele><time>2026-05-05T09:57:34.218Z</time></trkpt><trkpt lat="52.3687133" lon="-7.9667283"><ele>86.5</ele><time>2026-05-05T09:57:35.219Z</time></trkpt><trkpt lat="52.3685417" lon="-7.9671267"><ele>87.0</ele><time>2026-05-05T09:57:36.219Z</time></trkpt><trkpt lat="52.3683683" lon="-7.9675333"><ele>89.0</ele><time>2026-05-05T09:57:37.219Z</time></trkpt><trkpt lat="52.368205" lon="-7.9679567"><ele>91.0</ele><time>2026-05-05T09:57:38.219Z</time></trkpt><trkpt lat="52.3680333" lon="-7.96838"><ele>91.0</ele><time>2026-05-05T09:57:39.219Z</time></trkpt><trkpt lat="52.3678667" lon="-7.9688017"><ele>91.0</ele><time>2026-05-05T09:57:40.218Z</time></trkpt><trkpt lat="52.3677017" lon="-7.9692317"><ele>92.0</ele><time>2026-05-05T09:57:41.218Z</time></trkpt><trkpt lat="52.3675383" lon="-7.96966"><ele>93.0</ele><time>2026-05-05T09:57:42.219Z</time></trkpt><trkpt lat="52.367375" lon="-7.9700917"><ele>94.5</ele><time>2026-05-05T09:57:43.219Z</time></trkpt><trkpt lat="52.3672167" lon="-7.97051"><ele>96.0</ele><time>2026-05-05T09:57:44.219Z</time></trkpt><trkpt lat="52.36706" lon="-7.970945"><ele>96.0</ele><time>2026-05-05T09:57:45.219Z</time></trkpt><trkpt lat="52.366905" lon="-7.9713783"><ele>96.0</ele><time>2026-05-05T09:57:46.219Z</time></trkpt><trkpt lat="52.3667467" lon="-7.9718133"><ele>96.5</ele><time>2026-05-05T09:57:47.218Z</time></trkpt><trkpt lat="52.366585" lon="-7.9722417"><ele>97.0</ele><time>2026-05-05T09:57:48.219Z</time></trkpt><trkpt lat="52.3664183" lon="-7.97266"><ele>96.5</ele><time>2026-05-05T09:57:49.219Z</time></trkpt><trkpt lat="52.3662467" lon="-7.9730667"><ele>96.0</ele><time>2026-05-05T09:57:50.218Z</time></trkpt><trkpt lat="52.366065" lon="-7.973465"><ele>96.0</ele><time>2026-05-05T09:57:51.219Z</time></trkpt><trkpt lat="52.3658917" lon="-7.97389"><ele>96.0</ele><time>2026-05-05T09:57:52.219Z</time></trkpt><trkpt lat="52.36574" lon="-7.9742933"><ele>96.0</ele><time>2026-05-05T09:57:53.218Z</time></trkpt><trkpt lat="52.3656017" lon="-7.9747"><ele>96.0</ele><time>2026-05-05T09:57:54.219Z</time></trkpt><trkpt lat="52.3654833" lon="-7.9751517"><ele>95.0</ele><time>2026-05-05T09:57:55.219Z</time></trkpt><trkpt lat="52.3653633" lon="-7.9756033"><ele>94.0</ele><time>2026-05-05T09:57:56.218Z</time></trkpt><trkpt lat="52.36521" lon="-7.976005"><ele>94.0</ele><time>2026-05-05T09:57:57.219Z</time></trkpt><trkpt lat="52.36506" lon="-7.9764017"><ele>94.0</ele><time>2026-05-05T09:57:58.219Z</time></trkpt><trkpt lat="52.364915" lon="-7.9767983"><ele>94.0</ele><time>2026-05-05T09:57:59.218Z</time></trkpt><trkpt lat="52.36477" lon="-7.9771967"><ele>94.0</ele><time>2026-05-05T09:58:00.219Z</time></trkpt><trkpt lat="52.36463" lon="-7.9776"><ele>93.0</ele><time>2026-05-05T09:58:01.218Z</time></trkpt><trkpt lat="52.3644883" lon="-7.978"><ele>92.0</ele><time>2026-05-05T09:58:02.218Z</time></trkpt><trkpt lat="52.3643467" lon="-7.9784"><ele>92.0</ele><time>2026-05-05T09:58:03.218Z</time></trkpt><trkpt lat="52.36419" lon="-7.97879"><ele>92.0</ele><time>2026-05-05T09:58:04.219Z</time></trkpt><trkpt lat="52.364045" lon="-7.9791817"><ele>92.5</ele><time>2026-05-05T09:58:05.219Z</time></trkpt><trkpt lat="52.3639117" lon="-7.9795917"><ele>93.0</ele><time>2026-05-05T09:58:06.219Z</time></trkpt><trkpt lat="52.363765" lon="-7.9799883"><ele>90.5</ele><time>2026-05-05T09:58:07.219Z</time></trkpt><trkpt lat="52.3636233" lon="-7.9803867"><ele>88.0</ele><time>2026-05-05T09:58:08.218Z</time></trkpt><trkpt lat="52.3634817" lon="-7.9807983"><ele>88.5</ele><time>2026-05-05T09:58:09.219Z</time></trkpt><trkpt lat="52.3633383" lon="-7.9812117"><ele>89.0</ele><time>2026-05-05T09:58:10.219Z</time></trkpt><trkpt lat="52.363195" lon="-7.9816267"><ele>89.5</ele><time>2026-05-05T09:58:11.219Z</time></trkpt><trkpt lat="52.36305" lon="-7.982035"><ele>90.0</ele><time>2026-05-05T09:58:12.219Z</time></trkpt><trkpt lat="52.3629017" lon="-7.9824567"><ele>89.0</ele><time>2026-05-05T09:58:13.218Z</time></trkpt><trkpt lat="52.3627483" lon="-7.9828767"><ele>88.0</ele><time>2026-05-05T09:58:14.218Z</time></trkpt><trkpt lat="52.3625983" lon="-7.98329"><ele>88.5</ele><time>2026-05-05T09:58:15.218Z</time></trkpt><trkpt lat="52.3624467" lon="-7.9836983"><ele>89.0</ele><time>2026-05-05T09:58:16.219Z</time></trkpt><trkpt lat="52.362295" lon="-7.984115"><ele>87.0</ele><time>2026-05-05T09:58:17.218Z</time></trkpt><trkpt lat="52.36215" lon="-7.9845317"><ele>85.0</ele><time>2026-05-05T09:58:18.219Z</time></trkpt><trkpt lat="52.3620033" lon="-7.9849467"><ele>85.5</ele><time>2026-05-05T09:58:19.219Z</time></trkpt><trkpt lat="52.3618567" lon="-7.9853633"><ele>86.0</ele><time>2026-05-05T09:58:20.218Z</time></trkpt><trkpt lat="52.3617067" lon="-7.9857767"><ele>87.5</ele><time>2026-05-05T09:58:21.219Z</time></trkpt><trkpt lat="52.3615533" lon="-7.9862"><ele>89.0</ele><time>2026-05-05T09:58:22.218Z</time></trkpt><trkpt lat="52.3614017" lon="-7.9866233"><ele>86.5</ele><time>2026-05-05T09:58:23.219Z</time></trkpt><trkpt lat="52.36125" lon="-7.9870467"><ele>84.0</ele><time>2026-05-05T09:58:24.219Z</time></trkpt><trkpt lat="52.361095" lon="-7.9874717"><ele>85.0</ele><time>2026-05-05T09:58:25.219Z</time></trkpt><trkpt lat="52.36094" lon="-7.9879017"><ele>86.0</ele><time>2026-05-05T09:58:26.219Z</time></trkpt><trkpt lat="52.3607833" lon="-7.98833"><ele>86.5</ele><time>2026-05-05T09:58:27.219Z</time></trkpt><trkpt lat="52.36063" lon="-7.988765"><ele>87.0</ele><time>2026-05-05T09:58:28.218Z</time></trkpt><trkpt lat="52.3604767" lon="-7.9891933"><ele>86.5</ele><time>2026-05-05T09:58:29.219Z</time></trkpt><trkpt lat="52.3603267" lon="-7.98962"><ele>86.0</ele><time>2026-05-05T09:58:30.219Z</time></trkpt><trkpt lat="52.3601833" lon="-7.9900317"><ele>86.0</ele><time>2026-05-05T09:58:31.218Z</time></trkpt><trkpt lat="52.3600267" lon="-7.9904533"><ele>86.0</ele><time>2026-05-05T09:58:32.219Z</time></trkpt><trkpt lat="52.3598767" lon="-7.990845"><ele>85.5</ele><time>2026-05-05T09:58:33.219Z</time></trkpt><trkpt lat="52.3597417" lon="-7.9912417"><ele>85.0</ele><time>2026-05-05T09:58:34.219Z</time></trkpt><trkpt lat="52.3595983" lon="-7.9916567"><ele>85.5</ele><time>2026-05-05T09:58:35.219Z</time></trkpt><trkpt lat="52.3594567" lon="-7.9920633"><ele>86.0</ele><time>2026-05-05T09:58:36.219Z</time></trkpt><trkpt lat="52.3593133" lon="-7.9924717"><ele>86.5</ele><time>2026-05-05T09:58:37.218Z</time></trkpt><trkpt lat="52.359175" lon="-7.9928867"><ele>87.0</ele><time>2026-05-05T09:58:38.218Z</time></trkpt><trkpt lat="52.3590283" lon="-7.9933067"><ele>88.5</ele><time>2026-05-05T09:58:39.219Z</time></trkpt><trkpt lat="52.3588817" lon="-7.993725"><ele>90.0</ele><time>2026-05-05T09:58:40.219Z</time></trkpt><trkpt lat="52.3587283" lon="-7.9941417"><ele>91.0</ele><time>2026-05-05T09:58:41.218Z</time></trkpt><trkpt lat="52.3585767" lon="-7.9945517"><ele>92.0</ele><time>2026-05-05T09:58:42.219Z</time></trkpt><trkpt lat="52.35842" lon="-7.9949533"><ele>92.0</ele><time>2026-05-05T09:58:43.218Z</time></trkpt><trkpt lat="52.358265" lon="-7.9953383"><ele>92.0</ele><time>2026-05-05T09:58:44.219Z</time></trkpt><trkpt lat="52.3581117" lon="-7.9957183"><ele>92.0</ele><time>2026-05-05T09:58:45.218Z</time></trkpt><trkpt lat="52.357965" lon="-7.9961183"><ele>92.0</ele><time>2026-05-05T09:58:46.219Z</time></trkpt><trkpt lat="52.3578167" lon="-7.996505"><ele>92.5</ele><time>2026-05-05T09:58:47.219Z</time></trkpt><trkpt lat="52.357665" lon="-7.9968933"><ele>93.0</ele><time>2026-05-05T09:58:48.218Z</time></trkpt><trkpt lat="52.3575117" lon="-7.9972683"><ele>93.0</ele><time>2026-05-05T09:58:49.218Z</time></trkpt><trkpt lat="52.3573567" lon="-7.99767"><ele>93.0</ele><time>2026-05-05T09:58:50.218Z</time></trkpt><trkpt lat="52.357175" lon="-7.9980467"><ele>92.5</ele><time>2026-05-05T09:58:51.219Z</time></trkpt><trkpt lat="52.356975" lon="-7.99841"><ele>92.0</ele><time>2026-05-05T09:58:52.219Z</time></trkpt><trkpt lat="52.3567717" lon="-7.9987683"><ele>92.0</ele><time>2026-05-05T09:58:53.219Z</time></trkpt><trkpt lat="52.356565" lon="-7.999105"><ele>92.0</ele><time>2026-05-05T09:58:54.219Z</time></trkpt><trkpt lat="52.3563417" lon="-7.99945"><ele>92.0</ele><time>2026-05-05T09:58:55.218Z</time></trkpt><trkpt lat="52.3561183" lon="-7.9997817"><ele>92.0</ele><time>2026-05-05T09:58:56.219Z</time></trkpt><trkpt lat="52.3558917" lon="-8.0001033"><ele>92.0</ele><time>2026-05-05T09:58:57.219Z</time></trkpt><trkpt lat="52.355645" lon="-8.00042"><ele>92.0</ele><time>2026-05-05T09:58:58.219Z</time></trkpt><trkpt lat="52.35539" lon="-8.00071"><ele>91.0</ele><time>2026-05-05T09:58:59.219Z</time></trkpt><trkpt lat="52.3551383" lon="-8.0009817"><ele>90.0</ele><time>2026-05-05T09:59:00.219Z</time></trkpt><trkpt lat="52.3548933" lon="-8.0012233"><ele>90.0</ele><time>2026-05-05T09:59:01.219Z</time></trkpt><trkpt lat="52.3546367" lon="-8.001465"><ele>90.0</ele><time>2026-05-05T09:59:02.218Z</time></trkpt><trkpt lat="52.3543767" lon="-8.0016983"><ele>90.0</ele><time>2026-05-05T09:59:03.218Z</time></trkpt><trkpt lat="52.354125" lon="-8.001935"><ele>90.0</ele><time>2026-05-05T09:59:04.218Z</time></trkpt><trkpt lat="52.353845" lon="-8.00215"><ele>89.5</ele><time>2026-05-05T09:59:05.219Z</time></trkpt><trkpt lat="52.35357" lon="-8.002355"><ele>89.0</ele><time>2026-05-05T09:59:06.218Z</time></trkpt><trkpt lat="52.3533" lon="-8.002565"><ele>89.0</ele><time>2026-05-05T09:59:07.219Z</time></trkpt><trkpt lat="52.353025" lon="-8.0027633"><ele>89.0</ele><time>2026-05-05T09:59:08.219Z</time></trkpt><trkpt lat="52.35276" lon="-8.00296"><ele>89.0</ele><time>2026-05-05T09:59:09.219Z</time></trkpt><trkpt lat="52.352485" lon="-8.0031567"><ele>89.0</ele><time>2026-05-05T09:59:10.219Z</time></trkpt><trkpt lat="52.3522217" lon="-8.003365"><ele>88.0</ele><time>2026-05-05T09:59:11.218Z</time></trkpt><trkpt lat="52.3519533" lon="-8.0035767"><ele>87.0</ele><time>2026-05-05T09:59:12.218Z</time></trkpt><trkpt lat="52.3516867" lon="-8.0038017"><ele>87.0</ele><time>2026-05-05T09:59:13.219Z</time></trkpt><trkpt lat="52.3514217" lon="-8.00403"><ele>87.0</ele><time>2026-05-05T09:59:14.218Z</time></trkpt><trkpt lat="52.35116" lon="-8.00426"><ele>85.5</ele><time>2026-05-05T09:59:15.218Z</time></trkpt><trkpt lat="52.3508983" lon="-8.0044933"><ele>84.0</ele><time>2026-05-05T09:59:16.218Z</time></trkpt><trkpt lat="52.3506383" lon="-8.004735"><ele>82.5</ele><time>2026-05-05T09:59:17.218Z</time></trkpt><trkpt lat="52.3503767" lon="-8.0049867"><ele>81.0</ele><time>2026-05-05T09:59:18.218Z</time></trkpt><trkpt lat="52.3501083" lon="-8.0052417"><ele>81.0</ele><time>2026-05-05T09:59:19.219Z</time></trkpt><trkpt lat="52.34984" lon="-8.0055117"><ele>81.0</ele><time>2026-05-05T09:59:20.219Z</time></trkpt><trkpt lat="52.3495833" lon="-8.00579"><ele>81.0</ele><time>2026-05-05T09:59:21.218Z</time></trkpt><trkpt lat="52.34933" lon="-8.0060683"><ele>81.0</ele><time>2026-05-05T09:59:22.219Z</time></trkpt><trkpt lat="52.3490817" lon="-8.0063633"><ele>80.5</ele><time>2026-05-05T09:59:23.218Z</time></trkpt><trkpt lat="52.348835" lon="-8.0066567"><ele>80.0</ele><time>2026-05-05T09:59:24.219Z</time></trkpt><trkpt lat="52.3485817" lon="-8.0069383"><ele>81.5</ele><time>2026-05-05T09:59:25.219Z</time></trkpt><trkpt lat="52.34833" lon="-8.0072283"><ele>83.0</ele><time>2026-05-05T09:59:26.218Z</time></trkpt><trkpt lat="52.3480817" lon="-8.0075317"><ele>82.5</ele><time>2026-05-05T09:59:27.218Z</time></trkpt><trkpt lat="52.3478233" lon="-8.0078133"><ele>82.0</ele><time>2026-05-05T09:59:28.219Z</time></trkpt><trkpt lat="52.3475683" lon="-8.0081067"><ele>82.5</ele><time>2026-05-05T09:59:29.219Z</time></trkpt><trkpt lat="52.3473183" lon="-8.0084083"><ele>83.0</ele><time>2026-05-05T09:59:30.219Z</time></trkpt><trkpt lat="52.3470983" lon="-8.0087417"><ele>83.0</ele><time>2026-05-05T09:59:31.219Z</time></trkpt><trkpt lat="52.3468667" lon="-8.0090567"><ele>83.0</ele><time>2026-05-05T09:59:32.219Z</time></trkpt><trkpt lat="52.34664" lon="-8.0093733"><ele>83.0</ele><time>2026-05-05T09:59:33.219Z</time></trkpt><trkpt lat="52.3464133" lon="-8.009685"><ele>83.0</ele><time>2026-05-05T09:59:34.219Z</time></trkpt><trkpt lat="52.346195" lon="-8.0099983"><ele>84.5</ele><time>2026-05-05T09:59:35.218Z</time></trkpt><trkpt lat="52.3459817" lon="-8.0103133"><ele>86.0</ele><time>2026-05-05T09:59:36.219Z</time></trkpt><trkpt lat="52.3457833" lon="-8.010635"><ele>85.5</ele><time>2026-05-05T09:59:37.219Z</time></trkpt><trkpt lat="52.34558" lon="-8.0109517"><ele>85.0</ele><time>2026-05-05T09:59:38.219Z</time></trkpt><trkpt lat="52.345375" lon="-8.0112667"><ele>86.5</ele><time>2026-05-05T09:59:39.218Z</time></trkpt><trkpt lat="52.3451767" lon="-8.011595"><ele>88.0</ele><time>2026-05-05T09:59:40.218Z</time></trkpt><trkpt lat="52.34497" lon="-8.0119083"><ele>88.0</ele><time>2026-05-05T09:59:41.219Z</time></trkpt><trkpt lat="52.3447617" lon="-8.0122267"><ele>88.0</ele><time>2026-05-05T09:59:42.219Z</time></trkpt><trkpt lat="52.34455" lon="-8.01256"><ele>87.0</ele><time>2026-05-05T09:59:43.219Z</time></trkpt><trkpt lat="52.3443533" lon="-8.01291"><ele>86.0</ele><time>2026-05-05T09:59:44.219Z</time></trkpt><trkpt lat="52.3441583" lon="-8.0132617"><ele>86.0</ele><time>2026-05-05T09:59:45.219Z</time></trkpt><trkpt lat="52.34395" lon="-8.0136183"><ele>86.0</ele><time>2026-05-05T09:59:46.218Z</time></trkpt><trkpt lat="52.3437467" lon="-8.013975"><ele>85.5</ele><time>2026-05-05T09:59:47.219Z</time></trkpt><trkpt lat="52.3435433" lon="-8.0143217"><ele>85.0</ele><time>2026-05-05T09:59:48.218Z</time></trkpt><trkpt lat="52.3433483" lon="-8.014655"><ele>84.5</ele><time>2026-05-05T09:59:49.219Z</time></trkpt><trkpt lat="52.3431583" lon="-8.0149933"><ele>84.0</ele><time>2026-05-05T09:59:50.218Z</time></trkpt><trkpt lat="52.34297" lon="-8.01532"><ele>83.0</ele><time>2026-05-05T09:59:51.219Z</time></trkpt><trkpt lat="52.3427633" lon="-8.0156833"><ele>82.0</ele><time>2026-05-05T09:59:52.218Z</time></trkpt><trkpt lat="52.34256" lon="-8.0160533"><ele>81.0</ele><time>2026-05-05T09:59:53.219Z</time></trkpt><trkpt lat="52.34236" lon="-8.0164367"><ele>80.0</ele><time>2026-05-05T09:59:54.218Z</time></trkpt><trkpt lat="52.3421567" lon="-8.0168217"><ele>79.5</ele><time>2026-05-05T09:59:55.218Z</time></trkpt><trkpt lat="52.3419417" lon="-8.0172083"><ele>79.0</ele><time>2026-05-05T09:59:56.219Z</time></trkpt><trkpt lat="52.341735" lon="-8.017595"><ele>78.5</ele><time>2026-05-05T09:59:57.219Z</time></trkpt><trkpt lat="52.3415383" lon="-8.0179633"><ele>78.0</ele><time>2026-05-05T09:59:58.219Z</time></trkpt><trkpt lat="52.3413467" lon="-8.0183383"><ele>77.0</ele><time>2026-05-05T09:59:59.219Z</time></trkpt><trkpt lat="52.3411583" lon="-8.0187233"><ele>76.0</ele><time>2026-05-05T10:00:00.219Z</time></trkpt><trkpt lat="52.3409683" lon="-8.019105"><ele>76.5</ele><time>2026-05-05T10:00:01.218Z</time></trkpt><trkpt lat="52.34078" lon="-8.0194867"><ele>77.0</ele><time>2026-05-05T10:00:02.218Z</time></trkpt><trkpt lat="52.3406017" lon="-8.0198533"><ele>77.0</ele><time>2026-05-05T10:00:03.219Z</time></trkpt><trkpt lat="52.34042" lon="-8.020205"><ele>77.0</ele><time>2026-05-05T10:00:04.218Z</time></trkpt><trkpt lat="52.3402367" lon="-8.02057"><ele>76.5</ele><time>2026-05-05T10:00:05.219Z</time></trkpt><trkpt lat="52.340055" lon="-8.02093"><ele>76.0</ele><time>2026-05-05T10:00:06.218Z</time></trkpt><trkpt lat="52.339865" lon="-8.02129"><ele>75.5</ele><time>2026-05-05T10:00:07.218Z</time></trkpt><trkpt lat="52.339685" lon="-8.0216383"><ele>75.0</ele><time>2026-05-05T10:00:08.219Z</time></trkpt><trkpt lat="52.339495" lon="-8.0219733"><ele>75.0</ele><time>2026-05-05T10:00:09.219Z</time></trkpt><trkpt lat="52.339305" lon="-8.0223167"><ele>75.0</ele><time>2026-05-05T10:00:10.218Z</time></trkpt><trkpt lat="52.339125" lon="-8.0226917"><ele>75.0</ele><time>2026-05-05T10:00:11.219Z</time></trkpt><trkpt lat="52.3389433" lon="-8.023055"><ele>75.0</ele><time>2026-05-05T10:00:12.218Z</time></trkpt><trkpt lat="52.3387567" lon="-8.0234217"><ele>75.0</ele><time>2026-05-05T10:00:13.219Z</time></trkpt><trkpt lat="52.3385617" lon="-8.0237767"><ele>75.0</ele><time>2026-05-05T10:00:14.219Z</time></trkpt><trkpt lat="52.3383567" lon="-8.02413"><ele>75.0</ele><time>2026-05-05T10:00:15.219Z</time></trkpt><trkpt lat="52.3381517" lon="-8.0244917"><ele>75.0</ele><time>2026-05-05T10:00:16.219Z</time></trkpt><trkpt lat="52.3379517" lon="-8.02484"><ele>75.5</ele><time>2026-05-05T10:00:17.218Z</time></trkpt><trkpt lat="52.3377517" lon="-8.0251817"><ele>76.0</ele><time>2026-05-05T10:00:18.219Z</time></trkpt><trkpt lat="52.3375333" lon="-8.0255483"><ele>76.5</ele><time>2026-05-05T10:00:19.219Z</time></trkpt><trkpt lat="52.337325" lon="-8.0258817"><ele>77.0</ele><time>2026-05-05T10:00:20.218Z</time></trkpt><trkpt lat="52.3371133" lon="-8.0262117"><ele>77.5</ele><time>2026-05-05T10:00:21.219Z</time></trkpt><trkpt lat="52.3369017" lon="-8.02656"><ele>78.0</ele><time>2026-05-05T10:00:22.219Z</time></trkpt><trkpt lat="52.3366917" lon="-8.0269167"><ele>78.5</ele><time>2026-05-05T10:00:23.218Z</time></trkpt><trkpt lat="52.3364783" lon="-8.0272717"><ele>79.0</ele><time>2026-05-05T10:00:24.219Z</time></trkpt><trkpt lat="52.33626" lon="-8.0276217"><ele>79.5</ele><time>2026-05-05T10:00:25.218Z</time></trkpt><trkpt lat="52.3360317" lon="-8.0279733"><ele>80.0</ele><time>2026-05-05T10:00:26.218Z</time></trkpt><trkpt lat="52.3358083" lon="-8.02833"><ele>80.5</ele><time>2026-05-05T10:00:27.219Z</time></trkpt><trkpt lat="52.3355933" lon="-8.02868"><ele>81.0</ele><time>2026-05-05T10:00:28.219Z</time></trkpt><trkpt lat="52.3353933" lon="-8.0290167"><ele>82.0</ele><time>2026-05-05T10:00:29.219Z</time></trkpt><trkpt lat="52.33519" lon="-8.0293583"><ele>83.0</ele><time>2026-05-05T10:00:30.219Z</time></trkpt><trkpt lat="52.33499" lon="-8.02969"><ele>83.0</ele><time>2026-05-05T10:00:31.219Z</time></trkpt><trkpt lat="52.3347983" lon="-8.030035"><ele>83.0</ele><time>2026-05-05T10:00:32.219Z</time></trkpt><trkpt lat="52.334615" lon="-8.0303867"><ele>82.5</ele><time>2026-05-05T10:00:33.218Z</time></trkpt><trkpt lat="52.3344517" lon="-8.0307667"><ele>82.0</ele><time>2026-05-05T10:00:34.219Z</time></trkpt><trkpt lat="52.3342833" lon="-8.0311267"><ele>82.0</ele><time>2026-05-05T10:00:35.219Z</time></trkpt><trkpt lat="52.33411" lon="-8.0315067"><ele>82.0</ele><time>2026-05-05T10:00:36.218Z</time></trkpt><trkpt lat="52.333925" lon="-8.031895"><ele>82.0</ele><time>2026-05-05T10:00:37.218Z</time></trkpt><trkpt lat="52.3337417" lon="-8.0323033"><ele>82.0</ele><time>2026-05-05T10:00:38.219Z</time></trkpt><trkpt lat="52.3335783" lon="-8.0327033"><ele>82.0</ele><time>2026-05-05T10:00:39.218Z</time></trkpt><trkpt lat="52.3334167" lon="-8.03312"><ele>82.0</ele><time>2026-05-05T10:00:40.218Z</time></trkpt><trkpt lat="52.3332567" lon="-8.0335283"><ele>82.0</ele><time>2026-05-05T10:00:41.219Z</time></trkpt><trkpt lat="52.3331083" lon="-8.03397"><ele>82.0</ele><time>2026-05-05T10:00:42.219Z</time></trkpt><trkpt lat="52.3329533" lon="-8.0344033"><ele>82.0</ele><time>2026-05-05T10:00:43.219Z</time></trkpt><trkpt lat="52.3328217" lon="-8.0348783"><ele>82.0</ele><time>2026-05-05T10:00:44.218Z</time></trkpt><trkpt lat="52.3326783" lon="-8.0353217"><ele>82.0</ele><time>2026-05-05T10:00:45.218Z</time></trkpt><trkpt lat="52.3325433" lon="-8.0357683"><ele>82.0</ele><time>2026-05-05T10:00:46.219Z</time></trkpt><trkpt lat="52.3324317" lon="-8.0362033"><ele>82.0</ele><time>2026-05-05T10:00:47.218Z</time></trkpt><trkpt lat="52.3323267" lon="-8.036655"><ele>82.0</ele><time>2026-05-05T10:00:48.219Z</time></trkpt><trkpt lat="52.332225" lon="-8.0370917"><ele>81.0</ele><time>2026-05-05T10:00:49.219Z</time></trkpt><trkpt lat="52.3321333" lon="-8.037525"><ele>80.0</ele><time>2026-05-05T10:00:50.219Z</time></trkpt><trkpt lat="52.3320383" lon="-8.0379667"><ele>80.5</ele><time>2026-05-05T10:00:51.219Z</time></trkpt><trkpt lat="52.3319533" lon="-8.0384017"><ele>81.0</ele><time>2026-05-05T10:00:52.219Z</time></trkpt><trkpt lat="52.331875" lon="-8.03885"><ele>81.5</ele><time>2026-05-05T10:00:53.219Z</time></trkpt><trkpt lat="52.3317983" lon="-8.0393017"><ele>82.0</ele><time>2026-05-05T10:00:54.218Z</time></trkpt><trkpt lat="52.331735" lon="-8.0397783"><ele>82.0</ele><time>2026-05-05T10:00:55.218Z</time></trkpt><trkpt lat="52.331665" lon="-8.04024"><ele>82.0</ele><time>2026-05-05T10:00:56.219Z</time></trkpt><trkpt lat="52.331595" lon="-8.0407083"><ele>82.0</ele><time>2026-05-05T10:00:57.219Z</time></trkpt><trkpt lat="52.3315233" lon="-8.0411933"><ele>82.0</ele><time>2026-05-05T10:00:58.219Z</time></trkpt><trkpt lat="52.3314617" lon="-8.0416433"><ele>82.5</ele><time>2026-05-05T10:00:59.219Z</time></trkpt><trkpt lat="52.3314" lon="-8.0421083"><ele>83.0</ele><time>2026-05-05T10:01:00.218Z</time></trkpt><trkpt lat="52.3313517" lon="-8.042565"><ele>83.0</ele><time>2026-05-05T10:01:01.218Z</time></trkpt><trkpt lat="52.3312833" lon="-8.04301"><ele>83.0</ele><time>2026-05-05T10:01:02.218Z</time></trkpt><trkpt lat="52.3311983" lon="-8.04348"><ele>83.0</ele><time>2026-05-05T10:01:03.218Z</time></trkpt><trkpt lat="52.3311167" lon="-8.04392"><ele>83.0</ele><time>2026-05-05T10:01:04.219Z</time></trkpt><trkpt lat="52.3310217" lon="-8.0443633"><ele>83.5</ele><time>2026-05-05T10:01:05.219Z</time></trkpt><trkpt lat="52.330945" lon="-8.0448217"><ele>84.0</ele><time>2026-05-05T10:01:06.219Z</time></trkpt><trkpt lat="52.3308783" lon="-8.0452683"><ele>85.5</ele><time>2026-05-05T10:01:07.219Z</time></trkpt><trkpt lat="52.33081" lon="-8.0457117"><ele>87.0</ele><time>2026-05-05T10:01:08.218Z</time></trkpt><trkpt lat="52.3307317" lon="-8.0461533"><ele>87.0</ele><time>2026-05-05T10:01:09.219Z</time></trkpt><trkpt lat="52.330655" lon="-8.0466017"><ele>87.0</ele><time>2026-05-05T10:01:10.219Z</time></trkpt><trkpt lat="52.3305833" lon="-8.047045"><ele>86.0</ele><time>2026-05-05T10:01:11.218Z</time></trkpt><trkpt lat="52.3305167" lon="-8.0474967"><ele>85.0</ele><time>2026-05-05T10:01:12.219Z</time></trkpt><trkpt lat="52.3304433" lon="-8.04795"><ele>86.0</ele><time>2026-05-05T10:01:13.218Z</time></trkpt><trkpt lat="52.3303717" lon="-8.048395"><ele>87.0</ele><time>2026-05-05T10:01:14.219Z</time></trkpt><trkpt lat="52.330295" lon="-8.048835"><ele>88.0</ele><time>2026-05-05T10:01:15.218Z</time></trkpt><trkpt lat="52.3302083" lon="-8.04927"><ele>89.0</ele><time>2026-05-05T10:01:16.219Z</time></trkpt><trkpt lat="52.3301233" lon="-8.0497017"><ele>89.0</ele><time>2026-05-05T10:01:17.219Z</time></trkpt><trkpt lat="52.3300367" lon="-8.050125"><ele>89.0</ele><time>2026-05-05T10:01:18.219Z</time></trkpt><trkpt lat="52.3299383" lon="-8.0505583"><ele>89.0</ele><time>2026-05-05T10:01:19.219Z</time></trkpt><trkpt lat="52.3298633" lon="-8.05098"><ele>89.0</ele><time>2026-05-05T10:01:20.219Z</time></trkpt><trkpt lat="52.329785" lon="-8.0514283"><ele>87.5</ele><time>2026-05-05T10:01:21.219Z</time></trkpt><trkpt lat="52.329695" lon="-8.051875"><ele>86.0</ele><time>2026-05-05T10:01:22.218Z</time></trkpt><trkpt lat="52.3296067" lon="-8.0523283"><ele>86.5</ele><time>2026-05-05T10:01:23.219Z</time></trkpt><trkpt lat="52.329515" lon="-8.0527783"><ele>87.0</ele><time>2026-05-05T10:01:24.218Z</time></trkpt><trkpt lat="52.329425" lon="-8.0532283"><ele>87.5</ele><time>2026-05-05T10:01:25.219Z</time></trkpt><trkpt lat="52.329335" lon="-8.0536833"><ele>88.0</ele><time>2026-05-05T10:01:26.219Z</time></trkpt><trkpt lat="52.32924" lon="-8.0541217"><ele>88.0</ele><time>2026-05-05T10:01:27.218Z</time></trkpt><trkpt lat="52.3291483" lon="-8.05456"><ele>88.0</ele><time>2026-05-05T10:01:28.219Z</time></trkpt><trkpt lat="52.3290583" lon="-8.05497"><ele>87.5</ele><time>2026-05-05T10:01:29.218Z</time></trkpt><trkpt lat="52.3289783" lon="-8.0553817"><ele>87.0</ele><time>2026-05-05T10:01:30.218Z</time></trkpt><trkpt lat="52.3289017" lon="-8.055815"><ele>86.5</ele><time>2026-05-05T10:01:31.218Z</time></trkpt><trkpt lat="52.3288133" lon="-8.05626"><ele>86.0</ele><time>2026-05-05T10:01:32.219Z</time></trkpt><trkpt lat="52.3287283" lon="-8.0566933"><ele>87.0</ele><time>2026-05-05T10:01:33.218Z</time></trkpt><trkpt lat="52.32864" lon="-8.05712"><ele>88.0</ele><time>2026-05-05T10:01:34.219Z</time></trkpt><trkpt lat="52.32855" lon="-8.05757"><ele>88.5</ele><time>2026-05-05T10:01:35.219Z</time></trkpt><trkpt lat="52.3284583" lon="-8.0580367"><ele>89.0</ele><time>2026-05-05T10:01:36.219Z</time></trkpt><trkpt lat="52.32836" lon="-8.0584983"><ele>89.5</ele><time>2026-05-05T10:01:37.219Z</time></trkpt><trkpt lat="52.3282717" lon="-8.0589567"><ele>90.0</ele><time>2026-05-05T10:01:38.219Z</time></trkpt><trkpt lat="52.328185" lon="-8.0594183"><ele>90.0</ele><time>2026-05-05T10:01:39.219Z</time></trkpt><trkpt lat="52.3281083" lon="-8.0599017"><ele>90.0</ele><time>2026-05-05T10:01:40.219Z</time></trkpt><trkpt lat="52.3280217" lon="-8.06036"><ele>90.0</ele><time>2026-05-05T10:01:41.219Z</time></trkpt><trkpt lat="52.3279283" lon="-8.0608133"><ele>90.0</ele><time>2026-05-05T10:01:42.218Z</time></trkpt><trkpt lat="52.3278383" lon="-8.0612683"><ele>90.5</ele><time>2026-05-05T10:01:43.218Z</time></trkpt><trkpt lat="52.3277433" lon="-8.0617133"><ele>91.0</ele><time>2026-05-05T10:01:44.218Z</time></trkpt><trkpt lat="52.3276517" lon="-8.06216"><ele>91.0</ele><time>2026-05-05T10:01:45.218Z</time></trkpt><trkpt lat="52.327565" lon="-8.0626117"><ele>91.0</ele><time>2026-05-05T10:01:46.219Z</time></trkpt><trkpt lat="52.327475" lon="-8.0630617"><ele>91.0</ele><time>2026-05-05T10:01:47.218Z</time></trkpt><trkpt lat="52.3273717" lon="-8.0635"><ele>91.0</ele><time>2026-05-05T10:01:48.218Z</time></trkpt><trkpt lat="52.327275" lon="-8.0639467"><ele>89.5</ele><time>2026-05-05T10:01:49.219Z</time></trkpt><trkpt lat="52.32719" lon="-8.064415"><ele>88.0</ele><time>2026-05-05T10:01:50.219Z</time></trkpt><trkpt lat="52.3270983" lon="-8.064895"><ele>88.5</ele><time>2026-05-05T10:01:51.218Z</time></trkpt><trkpt lat="52.3269933" lon="-8.0653567"><ele>89.0</ele><time>2026-05-05T10:01:52.219Z</time></trkpt><trkpt lat="52.3269" lon="-8.0658183"><ele>89.5</ele><time>2026-05-05T10:01:53.219Z</time></trkpt><trkpt lat="52.3268017" lon="-8.0662767"><ele>90.0</ele><time>2026-05-05T10:01:54.219Z</time></trkpt><trkpt lat="52.32672" lon="-8.0667417"><ele>90.5</ele><time>2026-05-05T10:01:55.219Z</time></trkpt><trkpt lat="52.3266333" lon="-8.0672017"><ele>91.0</ele><time>2026-05-05T10:01:56.219Z</time></trkpt><trkpt lat="52.32654" lon="-8.0676483"><ele>91.0</ele><time>2026-05-05T10:01:57.219Z</time></trkpt><trkpt lat="52.3264617" lon="-8.068095"><ele>91.0</ele><time>2026-05-05T10:01:58.219Z</time></trkpt><trkpt lat="52.3263817" lon="-8.0685767"><ele>91.0</ele><time>2026-05-05T10:01:59.219Z</time></trkpt><trkpt lat="52.3262933" lon="-8.069045"><ele>91.0</ele><time>2026-05-05T10:02:00.219Z</time></trkpt><trkpt lat="52.32621" lon="-8.0695067"><ele>90.0</ele><time>2026-05-05T10:02:01.219Z</time></trkpt><trkpt lat="52.3261117" lon="-8.06997"><ele>89.0</ele><time>2026-05-05T10:02:02.218Z</time></trkpt><trkpt lat="52.3260117" lon="-8.0704283"><ele>89.0</ele><time>2026-05-05T10:02:03.218Z</time></trkpt><trkpt lat="52.3259183" lon="-8.070885"><ele>89.0</ele><time>2026-05-05T10:02:04.218Z</time></trkpt><trkpt lat="52.3258133" lon="-8.0713367"><ele>89.0</ele><time>2026-05-05T10:02:05.219Z</time></trkpt><trkpt lat="52.3257167" lon="-8.071785"><ele>89.0</ele><time>2026-05-05T10:02:06.219Z</time></trkpt><trkpt lat="52.325645" lon="-8.0722617"><ele>87.5</ele><time>2026-05-05T10:02:07.218Z</time></trkpt><trkpt lat="52.3255533" lon="-8.0727317"><ele>86.0</ele><time>2026-05-05T10:02:08.219Z</time></trkpt><trkpt lat="52.32546" lon="-8.0731767"><ele>86.0</ele><time>2026-05-05T10:02:09.219Z</time></trkpt><trkpt lat="52.32537" lon="-8.0736367"><ele>86.0</ele><time>2026-05-05T10:02:10.219Z</time></trkpt><trkpt lat="52.3252983" lon="-8.0741133"><ele>86.0</ele><time>2026-05-05T10:02:11.218Z</time></trkpt><trkpt lat="52.325205" lon="-8.0745717"><ele>86.0</ele><time>2026-05-05T10:02:12.219Z</time></trkpt><trkpt lat="52.3251183" lon="-8.0750617"><ele>86.0</ele><time>2026-05-05T10:02:13.219Z</time></trkpt><trkpt lat="52.32505" lon="-8.0755333"><ele>86.0</ele><time>2026-05-05T10:02:14.219Z</time></trkpt><trkpt lat="52.3249733" lon="-8.0759683"><ele>86.0</ele><time>2026-05-05T10:02:15.219Z</time></trkpt><trkpt lat="52.324885" lon="-8.0764083"><ele>86.0</ele><time>2026-05-05T10:02:16.219Z</time></trkpt><trkpt lat="52.3247933" lon="-8.0768667"><ele>86.0</ele><time>2026-05-05T10:02:17.219Z</time></trkpt><trkpt lat="52.324715" lon="-8.0773417"><ele>86.0</ele><time>2026-05-05T10:02:18.219Z</time></trkpt><trkpt lat="52.3246267" lon="-8.0778033"><ele>86.5</ele><time>2026-05-05T10:02:19.218Z</time></trkpt><trkpt lat="52.3245433" lon="-8.0783083"><ele>87.0</ele><time>2026-05-05T10:02:20.218Z</time></trkpt><trkpt lat="52.3244717" lon="-8.0787867"><ele>88.0</ele><time>2026-05-05T10:02:21.219Z</time></trkpt><trkpt lat="52.324395" lon="-8.079255"><ele>89.0</ele><time>2026-05-05T10:02:22.219Z</time></trkpt><trkpt lat="52.32432" lon="-8.0797367"><ele>89.5</ele><time>2026-05-05T10:02:23.218Z</time></trkpt><trkpt lat="52.3242383" lon="-8.080195"><ele>90.0</ele><time>2026-05-05T10:02:24.219Z</time></trkpt><trkpt lat="52.3241583" lon="-8.0806567"><ele>91.5</ele><time>2026-05-05T10:02:25.219Z</time></trkpt><trkpt lat="52.3240733" lon="-8.081125"><ele>93.0</ele><time>2026-05-05T10:02:26.219Z</time></trkpt><trkpt lat="52.3239917" lon="-8.0815883"><ele>93.0</ele><time>2026-05-05T10:02:27.219Z</time></trkpt><trkpt lat="52.32391" lon="-8.0820467"><ele>93.0</ele><time>2026-05-05T10:02:28.219Z</time></trkpt><trkpt lat="52.323835" lon="-8.0825017"><ele>92.5</ele><time>2026-05-05T10:02:29.219Z</time></trkpt><trkpt lat="52.3237533" lon="-8.08294"><ele>92.0</ele><time>2026-05-05T10:02:30.218Z</time></trkpt><trkpt lat="52.3236733" lon="-8.08338"><ele>92.0</ele><time>2026-05-05T10:02:31.219Z</time></trkpt><trkpt lat="52.3235933" lon="-8.083825"><ele>92.0</ele><time>2026-05-05T10:02:32.219Z</time></trkpt><trkpt lat="52.32351" lon="-8.0842767"><ele>92.5</ele><time>2026-05-05T10:02:33.219Z</time></trkpt><trkpt lat="52.3234317" lon="-8.0847233"><ele>93.0</ele><time>2026-05-05T10:02:34.219Z</time></trkpt><trkpt lat="52.32335" lon="-8.0851933"><ele>93.5</ele><time>2026-05-05T10:02:35.218Z</time></trkpt><trkpt lat="52.32327" lon="-8.0856517"><ele>94.0</ele><time>2026-05-05T10:02:36.219Z</time></trkpt><trkpt lat="52.3231883" lon="-8.08611"><ele>94.0</ele><time>2026-05-05T10:02:37.218Z</time></trkpt><trkpt lat="52.3231117" lon="-8.08658"><ele>94.0</ele><time>2026-05-05T10:02:38.219Z</time></trkpt><trkpt lat="52.32303" lon="-8.08705"><ele>95.5</ele><time>2026-05-05T10:02:39.219Z</time></trkpt><trkpt lat="52.3229483" lon="-8.0875267"><ele>97.0</ele><time>2026-05-05T10:02:40.219Z</time></trkpt><trkpt lat="52.32287" lon="-8.0879967"><ele>99.0</ele><time>2026-05-05T10:02:41.218Z</time></trkpt><trkpt lat="52.3227867" lon="-8.08848"><ele>101.0</ele><time>2026-05-05T10:02:42.219Z</time></trkpt><trkpt lat="52.3227033" lon="-8.0889617"><ele>101.0</ele><time>2026-05-05T10:02:43.218Z</time></trkpt><trkpt lat="52.322625" lon="-8.08945"><ele>101.0</ele><time>2026-05-05T10:02:44.219Z</time></trkpt><trkpt lat="52.3225433" lon="-8.0899317"><ele>101.0</ele><time>2026-05-05T10:02:45.218Z</time></trkpt><trkpt lat="52.3224567" lon="-8.0904083"><ele>101.0</ele><time>2026-05-05T10:02:46.218Z</time></trkpt><trkpt lat="52.3223783" lon="-8.090875"><ele>100.0</ele><time>2026-05-05T10:02:47.219Z</time></trkpt><trkpt lat="52.3223083" lon="-8.0913433"><ele>99.0</ele><time>2026-05-05T10:02:48.219Z</time></trkpt><trkpt lat="52.3222383" lon="-8.0917967"><ele>97.5</ele><time>2026-05-05T10:02:49.219Z</time></trkpt><trkpt lat="52.3221633" lon="-8.0922533"><ele>96.0</ele><time>2026-05-05T10:02:50.219Z</time></trkpt><trkpt lat="52.322085" lon="-8.0927083"><ele>96.0</ele><time>2026-05-05T10:02:51.218Z</time></trkpt><trkpt lat="52.3220033" lon="-8.093155"><ele>96.0</ele><time>2026-05-05T10:02:52.219Z</time></trkpt><trkpt lat="52.32192" lon="-8.09359"><ele>96.0</ele><time>2026-05-05T10:02:53.218Z</time></trkpt><trkpt lat="52.3218383" lon="-8.0940267"><ele>96.0</ele><time>2026-05-05T10:02:54.218Z</time></trkpt><trkpt lat="52.321755" lon="-8.0944533"><ele>96.5</ele><time>2026-05-05T10:02:55.218Z</time></trkpt><trkpt lat="52.321665" lon="-8.0948783"><ele>97.0</ele><time>2026-05-05T10:02:56.219Z</time></trkpt><trkpt lat="52.3215617" lon="-8.095315"><ele>97.5</ele><time>2026-05-05T10:02:57.219Z</time></trkpt><trkpt lat="52.3214833" lon="-8.09575"><ele>98.0</ele><time>2026-05-05T10:02:58.218Z</time></trkpt><trkpt lat="52.3213833" lon="-8.0961933"><ele>98.5</ele><time>2026-05-05T10:02:59.218Z</time></trkpt><trkpt lat="52.3212833" lon="-8.0966333"><ele>99.0</ele><time>2026-05-05T10:03:00.219Z</time></trkpt><trkpt lat="52.3211967" lon="-8.0971017"><ele>99.5</ele><time>2026-05-05T10:03:01.219Z</time></trkpt><trkpt lat="52.32109" lon="-8.09755"><ele>100.0</ele><time>2026-05-05T10:03:02.219Z</time></trkpt><trkpt lat="52.320975" lon="-8.09795"><ele>101.5</ele><time>2026-05-05T10:03:03.219Z</time></trkpt><trkpt lat="52.3208417" lon="-8.0983617"><ele>103.0</ele><time>2026-05-05T10:03:04.219Z</time></trkpt><trkpt lat="52.3207167" lon="-8.098765"><ele>103.0</ele><time>2026-05-05T10:03:05.219Z</time></trkpt><trkpt lat="52.320595" lon="-8.09918"><ele>103.0</ele><time>2026-05-05T10:03:06.219Z</time></trkpt><trkpt lat="52.3204633" lon="-8.099565"><ele>103.5</ele><time>2026-05-05T10:03:07.219Z</time></trkpt><trkpt lat="52.3203217" lon="-8.09997"><ele>104.0</ele><time>2026-05-05T10:03:08.218Z</time></trkpt><trkpt lat="52.3201833" lon="-8.1003783"><ele>104.0</ele><time>2026-05-05T10:03:09.219Z</time></trkpt><trkpt lat="52.32005" lon="-8.1007833"><ele>104.0</ele><time>2026-05-05T10:03:10.218Z</time></trkpt><trkpt lat="52.3199133" lon="-8.1011767"><ele>104.0</ele><time>2026-05-05T10:03:11.219Z</time></trkpt><trkpt lat="52.3197733" lon="-8.1015833"><ele>104.0</ele><time>2026-05-05T10:03:12.219Z</time></trkpt><trkpt lat="52.3196317" lon="-8.101985"><ele>104.0</ele><time>2026-05-05T10:03:13.219Z</time></trkpt><trkpt lat="52.3194917" lon="-8.1023933"><ele>104.0</ele><time>2026-05-05T10:03:14.218Z</time></trkpt><trkpt lat="52.319365" lon="-8.102835"><ele>104.5</ele><time>2026-05-05T10:03:15.218Z</time></trkpt><trkpt lat="52.319225" lon="-8.1032617"><ele>105.0</ele><time>2026-05-05T10:03:16.219Z</time></trkpt><trkpt lat="52.31908" lon="-8.1036767"><ele>105.5</ele><time>2026-05-05T10:03:17.218Z</time></trkpt><trkpt lat="52.3189433" lon="-8.1041"><ele>106.0</ele><time>2026-05-05T10:03:18.219Z</time></trkpt><trkpt lat="52.3188183" lon="-8.1045517"><ele>105.0</ele><time>2026-05-05T10:03:19.218Z</time></trkpt><trkpt lat="52.318695" lon="-8.105005"><ele>104.0</ele><time>2026-05-05T10:03:20.219Z</time></trkpt><trkpt lat="52.3185717" lon="-8.105475"><ele>104.5</ele><time>2026-05-05T10:03:21.218Z</time></trkpt><trkpt lat="52.318455" lon="-8.1059633"><ele>105.0</ele><time>2026-05-05T10:03:22.219Z</time></trkpt><trkpt lat="52.3183583" lon="-8.106445"><ele>105.5</ele><time>2026-05-05T10:03:23.219Z</time></trkpt><trkpt lat="52.3182683" lon="-8.10693"><ele>106.0</ele><time>2026-05-05T10:03:24.219Z</time></trkpt><trkpt lat="52.3181783" lon="-8.1074117"><ele>106.0</ele><time>2026-05-05T10:03:25.219Z</time></trkpt><trkpt lat="52.3180883" lon="-8.1078783"><ele>106.0</ele><time>2026-05-05T10:03:26.219Z</time></trkpt><trkpt lat="52.3180183" lon="-8.1083533"><ele>105.5</ele><time>2026-05-05T10:03:27.218Z</time></trkpt><trkpt lat="52.31796" lon="-8.1088167"><ele>105.0</ele><time>2026-05-05T10:03:28.218Z</time></trkpt><trkpt lat="52.3179083" lon="-8.1092583"><ele>105.0</ele><time>2026-05-05T10:03:29.218Z</time></trkpt><trkpt lat="52.3178583" lon="-8.10967"><ele>105.0</ele><time>2026-05-05T10:03:30.218Z</time></trkpt><trkpt lat="52.3178083" lon="-8.1100917"><ele>106.0</ele><time>2026-05-05T10:03:31.219Z</time></trkpt><trkpt lat="52.3177683" lon="-8.110515"><ele>107.0</ele><time>2026-05-05T10:03:32.219Z</time></trkpt><trkpt lat="52.3177417" lon="-8.110955"><ele>107.0</ele><time>2026-05-05T10:03:33.219Z</time></trkpt><trkpt lat="52.31771" lon="-8.11144"><ele>107.0</ele><time>2026-05-05T10:03:34.218Z</time></trkpt><trkpt lat="52.3176783" lon="-8.11192"><ele>107.5</ele><time>2026-05-05T10:03:35.218Z</time></trkpt><trkpt lat="52.317655" lon="-8.11239"><ele>108.0</ele><time>2026-05-05T10:03:36.218Z</time></trkpt><trkpt lat="52.3176367" lon="-8.11287"><ele>108.5</ele><time>2026-05-05T10:03:37.218Z</time></trkpt><trkpt lat="52.31762" lon="-8.1133467"><ele>109.0</ele><time>2026-05-05T10:03:38.219Z</time></trkpt><trkpt lat="52.3176233" lon="-8.1137917"><ele>108.5</ele><time>2026-05-05T10:03:39.219Z</time></trkpt><trkpt lat="52.317615" lon="-8.114265"><ele>108.0</ele><time>2026-05-05T10:03:40.219Z</time></trkpt><trkpt lat="52.3176017" lon="-8.1147467"><ele>106.5</ele><time>2026-05-05T10:03:41.218Z</time></trkpt><trkpt lat="52.3175867" lon="-8.1152233"><ele>105.0</ele><time>2026-05-05T10:03:42.218Z</time></trkpt><trkpt lat="52.31758" lon="-8.1156917"><ele>105.5</ele><time>2026-05-05T10:03:43.219Z</time></trkpt><trkpt lat="52.3175683" lon="-8.11617"><ele>106.0</ele><time>2026-05-05T10:03:44.218Z</time></trkpt><trkpt lat="52.31756" lon="-8.1166633"><ele>107.0</ele><time>2026-05-05T10:03:45.218Z</time></trkpt><trkpt lat="52.3175467" lon="-8.1171583"><ele>108.0</ele><time>2026-05-05T10:03:46.219Z</time></trkpt><trkpt lat="52.3175283" lon="-8.117645"><ele>109.0</ele><time>2026-05-05T10:03:47.218Z</time></trkpt><trkpt lat="52.3175033" lon="-8.11814"><ele>110.0</ele><time>2026-05-05T10:03:48.218Z</time></trkpt><trkpt lat="52.317445" lon="-8.1186633"><ele>110.5</ele><time>2026-05-05T10:03:49.219Z</time></trkpt><trkpt lat="52.3173967" lon="-8.119155"><ele>111.0</ele><time>2026-05-05T10:03:50.219Z</time></trkpt><trkpt lat="52.31734" lon="-8.1196367"><ele>111.0</ele><time>2026-05-05T10:03:51.218Z</time></trkpt><trkpt lat="52.317275" lon="-8.120105"><ele>111.0</ele><time>2026-05-05T10:03:52.218Z</time></trkpt><trkpt lat="52.3172133" lon="-8.1205617"><ele>110.0</ele><time>2026-05-05T10:03:53.219Z</time></trkpt><trkpt lat="52.3171433" lon="-8.1210283"><ele>109.0</ele><time>2026-05-05T10:03:54.219Z</time></trkpt><trkpt lat="52.3170733" lon="-8.1215133"><ele>109.0</ele><time>2026-05-05T10:03:55.219Z</time></trkpt><trkpt lat="52.3169983" lon="-8.1220033"><ele>109.0</ele><time>2026-05-05T10:03:56.218Z</time></trkpt><trkpt lat="52.3169367" lon="-8.12249"><ele>109.5</ele><time>2026-05-05T10:03:57.219Z</time></trkpt><trkpt lat="52.3168817" lon="-8.1229867"><ele>110.0</ele><time>2026-05-05T10:03:58.219Z</time></trkpt><trkpt lat="52.3168033" lon="-8.1234833"><ele>111.0</ele><time>2026-05-05T10:03:59.218Z</time></trkpt><trkpt lat="52.316715" lon="-8.123955"><ele>112.0</ele><time>2026-05-05T10:04:00.218Z</time></trkpt><trkpt lat="52.3166283" lon="-8.12442"><ele>113.0</ele><time>2026-05-05T10:04:01.218Z</time></trkpt><trkpt lat="52.3165583" lon="-8.1249067"><ele>114.0</ele><time>2026-05-05T10:04:02.219Z</time></trkpt><trkpt lat="52.31648" lon="-8.1253667"><ele>113.5</ele><time>2026-05-05T10:04:03.219Z</time></trkpt><trkpt lat="52.3163967" lon="-8.125825"><ele>113.0</ele><time>2026-05-05T10:04:04.219Z</time></trkpt><trkpt lat="52.3163" lon="-8.1263117"><ele>113.5</ele><time>2026-05-05T10:04:05.219Z</time></trkpt><trkpt lat="52.3162117" lon="-8.1267617"><ele>114.0</ele><time>2026-05-05T10:04:06.219Z</time></trkpt><trkpt lat="52.31612" lon="-8.1272033"><ele>115.0</ele><time>2026-05-05T10:04:07.219Z</time></trkpt><trkpt lat="52.3160367" lon="-8.1276383"><ele>116.0</ele><time>2026-05-05T10:04:08.219Z</time></trkpt><trkpt lat="52.3159333" lon="-8.128105"><ele>116.5</ele><time>2026-05-05T10:04:09.218Z</time></trkpt><trkpt lat="52.3158333" lon="-8.12855"><ele>117.0</ele><time>2026-05-05T10:04:10.219Z</time></trkpt><trkpt lat="52.31572" lon="-8.1290033"><ele>117.0</ele><time>2026-05-05T10:04:11.218Z</time></trkpt><trkpt lat="52.31561" lon="-8.1294533"><ele>117.0</ele><time>2026-05-05T10:04:12.219Z</time></trkpt><trkpt lat="52.3155017" lon="-8.12989"><ele>117.5</ele><time>2026-05-05T10:04:13.219Z</time></trkpt><trkpt lat="52.315395" lon="-8.1303383"><ele>118.0</ele><time>2026-05-05T10:04:14.219Z</time></trkpt><trkpt lat="52.315285" lon="-8.13078"><ele>118.0</ele><time>2026-05-05T10:04:15.219Z</time></trkpt><trkpt lat="52.3151683" lon="-8.1312133"><ele>118.0</ele><time>2026-05-05T10:04:16.219Z</time></trkpt><trkpt lat="52.31506" lon="-8.1316667"><ele>118.5</ele><time>2026-05-05T10:04:17.219Z</time></trkpt><trkpt lat="52.314955" lon="-8.132115"><ele>119.0</ele><time>2026-05-05T10:04:18.219Z</time></trkpt><trkpt lat="52.314835" lon="-8.1325617"><ele>119.0</ele><time>2026-05-05T10:04:19.218Z</time></trkpt><trkpt lat="52.314715" lon="-8.133"><ele>119.0</ele><time>2026-05-05T10:04:20.218Z</time></trkpt><trkpt lat="52.3145983" lon="-8.1334367"><ele>119.0</ele><time>2026-05-05T10:04:21.218Z</time></trkpt><trkpt lat="52.3144833" lon="-8.13389"><ele>119.0</ele><time>2026-05-05T10:04:22.219Z</time></trkpt><trkpt lat="52.3143517" lon="-8.1343583"><ele>119.0</ele><time>2026-05-05T10:04:23.218Z</time></trkpt><trkpt lat="52.314215" lon="-8.1348383"><ele>119.0</ele><time>2026-05-05T10:04:24.219Z</time></trkpt><trkpt lat="52.31407" lon="-8.1353167"><ele>119.5</ele><time>2026-05-05T10:04:25.218Z</time></trkpt><trkpt lat="52.31393" lon="-8.1358017"><ele>120.0</ele><time>2026-05-05T10:04:26.219Z</time></trkpt><trkpt lat="52.3138" lon="-8.1362767"><ele>119.5</ele><time>2026-05-05T10:04:27.219Z</time></trkpt><trkpt lat="52.31366" lon="-8.1367383"><ele>119.0</ele><time>2026-05-05T10:04:28.219Z</time></trkpt><trkpt lat="52.3135167" lon="-8.1372083"><ele>119.0</ele><time>2026-05-05T10:04:29.219Z</time></trkpt><trkpt lat="52.3133883" lon="-8.137665"><ele>119.0</ele><time>2026-05-05T10:04:30.218Z</time></trkpt><trkpt lat="52.31325" lon="-8.13813"><ele>119.5</ele><time>2026-05-05T10:04:31.219Z</time></trkpt><trkpt lat="52.3131133" lon="-8.138565"><ele>120.0</ele><time>2026-05-05T10:04:32.219Z</time></trkpt><trkpt lat="52.3129783" lon="-8.1389867"><ele>120.0</ele><time>2026-05-05T10:04:33.219Z</time></trkpt><trkpt lat="52.3128483" lon="-8.1394117"><ele>120.0</ele><time>2026-05-05T10:04:34.219Z</time></trkpt><trkpt lat="52.3127217" lon="-8.1398317"><ele>120.0</ele><time>2026-05-05T10:04:35.218Z</time></trkpt><trkpt lat="52.3125967" lon="-8.140255"><ele>120.0</ele><time>2026-05-05T10:04:36.219Z</time></trkpt><trkpt lat="52.3124833" lon="-8.14068"><ele>119.5</ele><time>2026-05-05T10:04:37.218Z</time></trkpt><trkpt lat="52.3123683" lon="-8.1411233"><ele>119.0</ele><time>2026-05-05T10:04:38.219Z</time></trkpt><trkpt lat="52.3122567" lon="-8.1415467"><ele>119.5</ele><time>2026-05-05T10:04:39.219Z</time></trkpt><trkpt lat="52.3121383" lon="-8.1419783"><ele>120.0</ele><time>2026-05-05T10:04:40.219Z</time></trkpt><trkpt lat="52.3120183" lon="-8.1424167"><ele>120.5</ele><time>2026-05-05T10:04:41.219Z</time></trkpt><trkpt lat="52.3118967" lon="-8.14285"><ele>121.0</ele><time>2026-05-05T10:04:42.219Z</time></trkpt><trkpt lat="52.31177" lon="-8.1432767"><ele>121.0</ele><time>2026-05-05T10:04:43.218Z</time></trkpt><trkpt lat="52.31165" lon="-8.143705"><ele>121.0</ele><time>2026-05-05T10:04:44.219Z</time></trkpt><trkpt lat="52.31153" lon="-8.1441383"><ele>121.5</ele><time>2026-05-05T10:04:45.219Z</time></trkpt><trkpt lat="52.3114083" lon="-8.1445633"><ele>122.0</ele><time>2026-05-05T10:04:46.219Z</time></trkpt><trkpt lat="52.3112833" lon="-8.14499"><ele>122.0</ele><time>2026-05-05T10:04:47.218Z</time></trkpt><trkpt lat="52.3111583" lon="-8.1454117"><ele>122.0</ele><time>2026-05-05T10:04:48.219Z</time></trkpt><trkpt lat="52.3110283" lon="-8.1458317"><ele>122.5</ele><time>2026-05-05T10:04:49.218Z</time></trkpt><trkpt lat="52.3109033" lon="-8.1462717"><ele>123.0</ele><time>2026-05-05T10:04:50.219Z</time></trkpt><trkpt lat="52.3107783" lon="-8.1467117"><ele>123.5</ele><time>2026-05-05T10:04:51.219Z</time></trkpt><trkpt lat="52.3106483" lon="-8.1471333"><ele>124.0</ele><time>2026-05-05T10:04:52.219Z</time></trkpt><trkpt lat="52.3105217" lon="-8.1475567"><ele>124.0</ele><time>2026-05-05T10:04:53.219Z</time></trkpt><trkpt lat="52.3103867" lon="-8.1479917"><ele>124.0</ele><time>2026-05-05T10:04:54.219Z</time></trkpt><trkpt lat="52.3102567" lon="-8.1484067"><ele>124.0</ele><time>2026-05-05T10:04:55.219Z</time></trkpt><trkpt lat="52.310135" lon="-8.1488217"><ele>124.0</ele><time>2026-05-05T10:04:56.219Z</time></trkpt><trkpt lat="52.3100167" lon="-8.1492417"><ele>124.0</ele><time>2026-05-05T10:04:57.218Z</time></trkpt><trkpt lat="52.3098883" lon="-8.1496767"><ele>124.0</ele><time>2026-05-05T10:04:58.219Z</time></trkpt><trkpt lat="52.3097617" lon="-8.150095"><ele>124.0</ele><time>2026-05-05T10:04:59.218Z</time></trkpt><trkpt lat="52.309645" lon="-8.15052"><ele>124.0</ele><time>2026-05-05T10:05:00.218Z</time></trkpt><trkpt lat="52.30951" lon="-8.1509417"><ele>124.0</ele><time>2026-05-05T10:05:01.219Z</time></trkpt><trkpt lat="52.309385" lon="-8.15136"><ele>124.0</ele><time>2026-05-05T10:05:02.219Z</time></trkpt><trkpt lat="52.3092567" lon="-8.1517683"><ele>125.0</ele><time>2026-05-05T10:05:03.219Z</time></trkpt><trkpt lat="52.3091383" lon="-8.1521617"><ele>126.0</ele><time>2026-05-05T10:05:04.219Z</time></trkpt><trkpt lat="52.30902" lon="-8.152565"><ele>126.5</ele><time>2026-05-05T10:05:05.219Z</time></trkpt><trkpt lat="52.3088983" lon="-8.15296"><ele>127.0</ele><time>2026-05-05T10:05:06.218Z</time></trkpt><trkpt lat="52.30877" lon="-8.153365"><ele>127.0</ele><time>2026-05-05T10:05:07.219Z</time></trkpt><trkpt lat="52.3086417" lon="-8.1537717"><ele>127.0</ele><time>2026-05-05T10:05:08.218Z</time></trkpt><trkpt lat="52.3085283" lon="-8.1541983"><ele>126.5</ele><time>2026-05-05T10:05:09.218Z</time></trkpt><trkpt lat="52.3083833" lon="-8.15463"><ele>126.0</ele><time>2026-05-05T10:05:10.218Z</time></trkpt><trkpt lat="52.3082367" lon="-8.1550283"><ele>126.0</ele><time>2026-05-05T10:05:11.219Z</time></trkpt><trkpt lat="52.3081333" lon="-8.1554517"><ele>126.0</ele><time>2026-05-05T10:05:12.219Z</time></trkpt><trkpt lat="52.3080283" lon="-8.1558733"><ele>126.0</ele><time>2026-05-05T10:05:13.219Z</time></trkpt><trkpt lat="52.30791" lon="-8.1563017"><ele>126.0</ele><time>2026-05-05T10:05:14.219Z</time></trkpt><trkpt lat="52.307805" lon="-8.1567533"><ele>126.0</ele><time>2026-05-05T10:05:15.219Z</time></trkpt><trkpt lat="52.3076733" lon="-8.157195"><ele>126.0</ele><time>2026-05-05T10:05:16.219Z</time></trkpt><trkpt lat="52.3075583" lon="-8.1576517"><ele>126.0</ele><time>2026-05-05T10:05:17.219Z</time></trkpt><trkpt lat="52.3074283" lon="-8.1580933"><ele>126.0</ele><time>2026-05-05T10:05:18.219Z</time></trkpt><trkpt lat="52.3072967" lon="-8.1585433"><ele>126.0</ele><time>2026-05-05T10:05:19.218Z</time></trkpt><trkpt lat="52.3071667" lon="-8.1589933"><ele>126.0</ele><time>2026-05-05T10:05:20.219Z</time></trkpt><trkpt lat="52.3070383" lon="-8.1594217"><ele>126.0</ele><time>2026-05-05T10:05:21.219Z</time></trkpt><trkpt lat="52.3069083" lon="-8.1598583"><ele>126.0</ele><time>2026-05-05T10:05:22.218Z</time></trkpt><trkpt lat="52.3067883" lon="-8.160295"><ele>126.0</ele><time>2026-05-05T10:05:23.219Z</time></trkpt><trkpt lat="52.306665" lon="-8.16073"><ele>126.0</ele><time>2026-05-05T10:05:24.218Z</time></trkpt><trkpt lat="52.306535" lon="-8.1611533"><ele>126.5</ele><time>2026-05-05T10:05:25.218Z</time></trkpt><trkpt lat="52.3064067" lon="-8.16157"><ele>127.0</ele><time>2026-05-05T10:05:26.218Z</time></trkpt><trkpt lat="52.3062867" lon="-8.1619867"><ele>127.0</ele><time>2026-05-05T10:05:27.219Z</time></trkpt><trkpt lat="52.3061667" lon="-8.1624083"><ele>127.0</ele><time>2026-05-05T10:05:28.218Z</time></trkpt><trkpt lat="52.306045" lon="-8.1628417"><ele>126.0</ele><time>2026-05-05T10:05:29.219Z</time></trkpt><trkpt lat="52.3059133" lon="-8.1632767"><ele>125.0</ele><time>2026-05-05T10:05:30.219Z</time></trkpt><trkpt lat="52.305775" lon="-8.163715"><ele>124.5</ele><time>2026-05-05T10:05:31.218Z</time></trkpt><trkpt lat="52.3056333" lon="-8.1641533"><ele>124.0</ele><time>2026-05-05T10:05:32.219Z</time></trkpt><trkpt lat="52.3055083" lon="-8.1645883"><ele>123.5</ele><time>2026-05-05T10:05:33.219Z</time></trkpt><trkpt lat="52.3053883" lon="-8.16503"><ele>123.0</ele><time>2026-05-05T10:05:34.219Z</time></trkpt><trkpt lat="52.3052583" lon="-8.1654683"><ele>122.0</ele><time>2026-05-05T10:05:35.219Z</time></trkpt><trkpt lat="52.30513" lon="-8.1659033"><ele>121.0</ele><time>2026-05-05T10:05:36.219Z</time></trkpt><trkpt lat="52.305" lon="-8.166335"><ele>120.5</ele><time>2026-05-05T10:05:37.219Z</time></trkpt><trkpt lat="52.3048617" lon="-8.1667717"><ele>120.0</ele><time>2026-05-05T10:05:38.219Z</time></trkpt><trkpt lat="52.3047183" lon="-8.1672"><ele>119.5</ele><time>2026-05-05T10:05:39.218Z</time></trkpt><trkpt lat="52.3045683" lon="-8.1676133"><ele>119.0</ele><time>2026-05-05T10:05:40.218Z</time></trkpt><trkpt lat="52.3044067" lon="-8.168025"><ele>118.5</ele><time>2026-05-05T10:05:41.219Z</time></trkpt><trkpt lat="52.3042383" lon="-8.1684317"><ele>118.0</ele><time>2026-05-05T10:05:42.219Z</time></trkpt><trkpt lat="52.3040717" lon="-8.168835"><ele>119.0</ele><time>2026-05-05T10:05:43.218Z</time></trkpt><trkpt lat="52.3038933" lon="-8.1692317"><ele>120.0</ele><time>2026-05-05T10:05:44.218Z</time></trkpt><trkpt lat="52.3037017" lon="-8.1696317"><ele>119.5</ele><time>2026-05-05T10:05:45.219Z</time></trkpt><trkpt lat="52.3034867" lon="-8.170025"><ele>119.0</ele><time>2026-05-05T10:05:46.218Z</time></trkpt><trkpt lat="52.303265" lon="-8.170385"><ele>117.5</ele><time>2026-05-05T10:05:47.219Z</time></trkpt><trkpt lat="52.303045" lon="-8.170745"><ele>116.0</ele><time>2026-05-05T10:05:48.218Z</time></trkpt><trkpt lat="52.3028117" lon="-8.17108"><ele>116.0</ele><time>2026-05-05T10:05:49.219Z</time></trkpt><trkpt lat="52.3025767" lon="-8.1713883"><ele>116.0</ele><time>2026-05-05T10:05:50.219Z</time></trkpt><trkpt lat="52.30234" lon="-8.1716983"><ele>116.5</ele><time>2026-05-05T10:05:51.219Z</time></trkpt><trkpt lat="52.3020967" lon="-8.1719983"><ele>117.0</ele><time>2026-05-05T10:05:52.219Z</time></trkpt><trkpt lat="52.30186" lon="-8.1722933"><ele>117.5</ele><time>2026-05-05T10:05:53.218Z</time></trkpt><trkpt lat="52.3016317" lon="-8.1725967"><ele>118.0</ele><time>2026-05-05T10:05:54.219Z</time></trkpt><trkpt lat="52.30142" lon="-8.1729083"><ele>117.5</ele><time>2026-05-05T10:05:55.218Z</time></trkpt><trkpt lat="52.3012" lon="-8.1732267"><ele>117.0</ele><time>2026-05-05T10:05:56.218Z</time></trkpt><trkpt lat="52.300985" lon="-8.17355"><ele>117.0</ele><time>2026-05-05T10:05:57.219Z</time></trkpt><trkpt lat="52.3007683" lon="-8.173885"><ele>117.0</ele><time>2026-05-05T10:05:58.219Z</time></trkpt><trkpt lat="52.3005617" lon="-8.1742317"><ele>117.0</ele><time>2026-05-05T10:05:59.219Z</time></trkpt><trkpt lat="52.300355" lon="-8.17458"><ele>117.0</ele><time>2026-05-05T10:06:00.219Z</time></trkpt><trkpt lat="52.3001567" lon="-8.1749433"><ele>117.5</ele><time>2026-05-05T10:06:01.219Z</time></trkpt><trkpt lat="52.2999617" lon="-8.1753167"><ele>118.0</ele><time>2026-05-05T10:06:02.218Z</time></trkpt><trkpt lat="52.299775" lon="-8.1757"><ele>118.5</ele><time>2026-05-05T10:06:03.219Z</time></trkpt><trkpt lat="52.2995817" lon="-8.176095"><ele>119.0</ele><time>2026-05-05T10:06:04.219Z</time></trkpt><trkpt lat="52.299395" lon="-8.1765133"><ele>120.0</ele><time>2026-05-05T10:06:05.219Z</time></trkpt><trkpt lat="52.2992233" lon="-8.1769333"><ele>121.0</ele><time>2026-05-05T10:06:06.218Z</time></trkpt><trkpt lat="52.2990433" lon="-8.1773433"><ele>123.0</ele><time>2026-05-05T10:06:07.218Z</time></trkpt><trkpt lat="52.2988683" lon="-8.1777683"><ele>125.0</ele><time>2026-05-05T10:06:08.218Z</time></trkpt><trkpt lat="52.2987033" lon="-8.17819"><ele>126.0</ele><time>2026-05-05T10:06:09.219Z</time></trkpt><trkpt lat="52.298545" lon="-8.1786217"><ele>127.0</ele><time>2026-05-05T10:06:10.218Z</time></trkpt><trkpt lat="52.2983933" lon="-8.1790483"><ele>127.0</ele><time>2026-05-05T10:06:11.219Z</time></trkpt><trkpt lat="52.29826" lon="-8.1794483"><ele>127.0</ele><time>2026-05-05T10:06:12.218Z</time></trkpt><trkpt lat="52.29814" lon="-8.1798483"><ele>126.5</ele><time>2026-05-05T10:06:13.219Z</time></trkpt><trkpt lat="52.2980233" lon="-8.18025"><ele>126.0</ele><time>2026-05-05T10:06:14.219Z</time></trkpt><trkpt lat="52.2979067" lon="-8.1806633"><ele>125.5</ele><time>2026-05-05T10:06:15.219Z</time></trkpt><trkpt lat="52.2977917" lon="-8.1810783"><ele>125.0</ele><time>2026-05-05T10:06:16.219Z</time></trkpt><trkpt lat="52.2976783" lon="-8.1815017"><ele>125.5</ele><time>2026-05-05T10:06:17.219Z</time></trkpt><trkpt lat="52.2975633" lon="-8.1819283"><ele>126.0</ele><time>2026-05-05T10:06:18.218Z</time></trkpt><trkpt lat="52.2974517" lon="-8.1823517"><ele>126.0</ele><time>2026-05-05T10:06:19.219Z</time></trkpt><trkpt lat="52.2973417" lon="-8.182785"><ele>126.0</ele><time>2026-05-05T10:06:20.219Z</time></trkpt><trkpt lat="52.297235" lon="-8.1831983"><ele>125.5</ele><time>2026-05-05T10:06:21.218Z</time></trkpt><trkpt lat="52.2971383" lon="-8.183595"><ele>125.0</ele><time>2026-05-05T10:06:22.219Z</time></trkpt><trkpt lat="52.2970417" lon="-8.183995"><ele>124.5</ele><time>2026-05-05T10:06:23.218Z</time></trkpt><trkpt lat="52.2969333" lon="-8.1844083"><ele>124.0</ele><time>2026-05-05T10:06:24.219Z</time></trkpt><trkpt lat="52.29682" lon="-8.184835"><ele>123.5</ele><time>2026-05-05T10:06:25.219Z</time></trkpt><trkpt lat="52.2967117" lon="-8.1852683"><ele>123.0</ele><time>2026-05-05T10:06:26.219Z</time></trkpt><trkpt lat="52.296595" lon="-8.1857"><ele>122.0</ele><time>2026-05-05T10:06:27.219Z</time></trkpt><trkpt lat="52.2964683" lon="-8.1861383"><ele>121.0</ele><time>2026-05-05T10:06:28.219Z</time></trkpt><trkpt lat="52.296345" lon="-8.18657"><ele>120.0</ele><time>2026-05-05T10:06:29.218Z</time></trkpt><trkpt lat="52.296225" lon="-8.1870217"><ele>119.0</ele><time>2026-05-05T10:06:30.219Z</time></trkpt><trkpt lat="52.2960983" lon="-8.1874717"><ele>119.0</ele><time>2026-05-05T10:06:31.218Z</time></trkpt><trkpt lat="52.295965" lon="-8.1879367"><ele>119.0</ele><time>2026-05-05T10:06:32.218Z</time></trkpt><trkpt lat="52.2958267" lon="-8.1883917"><ele>119.5</ele><time>2026-05-05T10:06:33.218Z</time></trkpt><trkpt lat="52.2956867" lon="-8.1888517"><ele>120.0</ele><time>2026-05-05T10:06:34.218Z</time></trkpt><trkpt lat="52.2955433" lon="-8.189315"><ele>118.5</ele><time>2026-05-05T10:06:35.219Z</time></trkpt><trkpt lat="52.295395" lon="-8.1897783"><ele>117.0</ele><time>2026-05-05T10:06:36.218Z</time></trkpt><trkpt lat="52.2952517" lon="-8.1902383"><ele>116.0</ele><time>2026-05-05T10:06:37.218Z</time></trkpt><trkpt lat="52.2951133" lon="-8.1906817"><ele>115.0</ele><time>2026-05-05T10:06:38.219Z</time></trkpt><trkpt lat="52.294995" lon="-8.1911067"><ele>113.5</ele><time>2026-05-05T10:06:39.219Z</time></trkpt><trkpt lat="52.2948483" lon="-8.19153"><ele>112.0</ele><time>2026-05-05T10:06:40.218Z</time></trkpt><trkpt lat="52.294705" lon="-8.1919283"><ele>112.0</ele><time>2026-05-05T10:06:41.218Z</time></trkpt><trkpt lat="52.2945583" lon="-8.192355"><ele>112.0</ele><time>2026-05-05T10:06:42.219Z</time></trkpt><trkpt lat="52.2944" lon="-8.1927817"><ele>112.0</ele><time>2026-05-05T10:06:43.219Z</time></trkpt><trkpt lat="52.2942417" lon="-8.19322"><ele>112.0</ele><time>2026-05-05T10:06:44.219Z</time></trkpt><trkpt lat="52.2940833" lon="-8.1936567"><ele>111.5</ele><time>2026-05-05T10:06:45.219Z</time></trkpt><trkpt lat="52.2939217" lon="-8.194095"><ele>111.0</ele><time>2026-05-05T10:06:46.219Z</time></trkpt><trkpt lat="52.2937633" lon="-8.194525"><ele>112.0</ele><time>2026-05-05T10:06:47.219Z</time></trkpt><trkpt lat="52.293605" lon="-8.1949517"><ele>113.0</ele><time>2026-05-05T10:06:48.219Z</time></trkpt><trkpt lat="52.2934517" lon="-8.1953733"><ele>113.5</ele><time>2026-05-05T10:06:49.219Z</time></trkpt><trkpt lat="52.2932933" lon="-8.1957917"><ele>114.0</ele><time>2026-05-05T10:06:50.218Z</time></trkpt><trkpt lat="52.293145" lon="-8.1962267"><ele>114.5</ele><time>2026-05-05T10:06:51.219Z</time></trkpt><trkpt lat="52.292995" lon="-8.1966483"><ele>115.0</ele><time>2026-05-05T10:06:52.219Z</time></trkpt><trkpt lat="52.2928417" lon="-8.1970617"><ele>114.5</ele><time>2026-05-05T10:06:53.219Z</time></trkpt><trkpt lat="52.2926967" lon="-8.1974783"><ele>114.0</ele><time>2026-05-05T10:06:54.219Z</time></trkpt><trkpt lat="52.2925433" lon="-8.19789"><ele>114.0</ele><time>2026-05-05T10:06:55.218Z</time></trkpt><trkpt lat="52.2923883" lon="-8.198295"><ele>114.0</ele><time>2026-05-05T10:06:56.219Z</time></trkpt><trkpt lat="52.2922317" lon="-8.1986983"><ele>111.0</ele><time>2026-05-05T10:06:57.218Z</time></trkpt><trkpt lat="52.292075" lon="-8.1991083"><ele>108.0</ele><time>2026-05-05T10:06:58.218Z</time></trkpt><trkpt lat="52.2919133" lon="-8.19951"><ele>106.0</ele><time>2026-05-05T10:06:59.219Z</time></trkpt><trkpt lat="52.2917467" lon="-8.1999083"><ele>104.0</ele><time>2026-05-05T10:07:00.218Z</time></trkpt><trkpt lat="52.29158" lon="-8.20031"><ele>103.5</ele><time>2026-05-05T10:07:01.219Z</time></trkpt><trkpt lat="52.29142" lon="-8.20073"><ele>103.0</ele><time>2026-05-05T10:07:02.219Z</time></trkpt><trkpt lat="52.291255" lon="-8.2011333"><ele>102.0</ele><time>2026-05-05T10:07:03.218Z</time></trkpt><trkpt lat="52.29109" lon="-8.2015267"><ele>101.0</ele><time>2026-05-05T10:07:04.219Z</time></trkpt><trkpt lat="52.29092" lon="-8.2019133"><ele>101.0</ele><time>2026-05-05T10:07:05.219Z</time></trkpt><trkpt lat="52.29075" lon="-8.2022983"><ele>101.0</ele><time>2026-05-05T10:07:06.219Z</time></trkpt><trkpt lat="52.2905667" lon="-8.2026917"><ele>103.5</ele><time>2026-05-05T10:07:07.219Z</time></trkpt><trkpt lat="52.2903867" lon="-8.20309"><ele>106.0</ele><time>2026-05-05T10:07:08.218Z</time></trkpt><trkpt lat="52.2902067" lon="-8.2034917"><ele>106.0</ele><time>2026-05-05T10:07:09.218Z</time></trkpt><trkpt lat="52.2900267" lon="-8.2038983"><ele>106.0</ele><time>2026-05-05T10:07:10.219Z</time></trkpt><trkpt lat="52.2898517" lon="-8.2042917"><ele>107.5</ele><time>2026-05-05T10:07:11.219Z</time></trkpt><trkpt lat="52.2896867" lon="-8.2046667"><ele>109.0</ele><time>2026-05-05T10:07:12.219Z</time></trkpt><trkpt lat="52.2895183" lon="-8.2050283"><ele>109.0</ele><time>2026-05-05T10:07:13.219Z</time></trkpt><trkpt lat="52.2893583" lon="-8.2053633"><ele>109.0</ele><time>2026-05-05T10:07:14.219Z</time></trkpt><trkpt lat="52.2892067" lon="-8.2057083"><ele>109.0</ele><time>2026-05-05T10:07:15.219Z</time></trkpt><trkpt lat="52.2890417" lon="-8.206055"><ele>109.0</ele><time>2026-05-05T10:07:16.219Z</time></trkpt><trkpt lat="52.2888817" lon="-8.2064067"><ele>111.0</ele><time>2026-05-05T10:07:17.219Z</time></trkpt><trkpt lat="52.2887117" lon="-8.2067617"><ele>113.0</ele><time>2026-05-05T10:07:18.219Z</time></trkpt><trkpt lat="52.2885467" lon="-8.2071267"><ele>114.0</ele><time>2026-05-05T10:07:19.219Z</time></trkpt><trkpt lat="52.2883833" lon="-8.2075117"><ele>115.0</ele><time>2026-05-05T10:07:20.219Z</time></trkpt><trkpt lat="52.2882183" lon="-8.2078817"><ele>116.0</ele><time>2026-05-05T10:07:21.218Z</time></trkpt><trkpt lat="52.2880583" lon="-8.20825"><ele>117.0</ele><time>2026-05-05T10:07:22.218Z</time></trkpt><trkpt lat="52.2878917" lon="-8.20861"><ele>117.0</ele><time>2026-05-05T10:07:23.219Z</time></trkpt><trkpt lat="52.2877267" lon="-8.2089633"><ele>117.0</ele><time>2026-05-05T10:07:24.218Z</time></trkpt><trkpt lat="52.287545" lon="-8.2093083"><ele>117.0</ele><time>2026-05-05T10:07:25.219Z</time></trkpt><trkpt lat="52.287375" lon="-8.2096717"><ele>117.0</ele><time>2026-05-05T10:07:26.218Z</time></trkpt><trkpt lat="52.28721" lon="-8.2100617"><ele>117.0</ele><time>2026-05-05T10:07:27.218Z</time></trkpt><trkpt lat="52.2870583" lon="-8.2104667"><ele>117.0</ele><time>2026-05-05T10:07:28.219Z</time></trkpt><trkpt lat="52.28689" lon="-8.2108683"><ele>117.0</ele><time>2026-05-05T10:07:29.218Z</time></trkpt><trkpt lat="52.286725" lon="-8.2112767"><ele>117.0</ele><time>2026-05-05T10:07:30.219Z</time></trkpt><trkpt lat="52.2865583" lon="-8.211685"><ele>118.5</ele><time>2026-05-05T10:07:31.219Z</time></trkpt><trkpt lat="52.2863967" lon="-8.2121083"><ele>120.0</ele><time>2026-05-05T10:07:32.218Z</time></trkpt><trkpt lat="52.2862333" lon="-8.2125367"><ele>120.0</ele><time>2026-05-05T10:07:33.219Z</time></trkpt><trkpt lat="52.28607" lon="-8.212965"><ele>120.0</ele><time>2026-05-05T10:07:34.218Z</time></trkpt><trkpt lat="52.28591" lon="-8.2133883"><ele>120.5</ele><time>2026-05-05T10:07:35.218Z</time></trkpt><trkpt lat="52.2857533" lon="-8.2138167"><ele>121.0</ele><time>2026-05-05T10:07:36.219Z</time></trkpt><trkpt lat="52.2855967" lon="-8.2142433"><ele>121.5</ele><time>2026-05-05T10:07:37.219Z</time></trkpt><trkpt lat="52.2854467" lon="-8.214665"><ele>122.0</ele><time>2026-05-05T10:07:38.219Z</time></trkpt><trkpt lat="52.2853" lon="-8.215075"><ele>122.0</ele><time>2026-05-05T10:07:39.219Z</time></trkpt><trkpt lat="52.2851517" lon="-8.215485"><ele>122.0</ele><time>2026-05-05T10:07:40.219Z</time></trkpt><trkpt lat="52.2849933" lon="-8.2158933"><ele>122.0</ele><time>2026-05-05T10:07:41.219Z</time></trkpt><trkpt lat="52.2848417" lon="-8.21629"><ele>122.0</ele><time>2026-05-05T10:07:42.219Z</time></trkpt><trkpt lat="52.2846833" lon="-8.21668"><ele>121.5</ele><time>2026-05-05T10:07:43.218Z</time></trkpt><trkpt lat="52.2845233" lon="-8.2170667"><ele>121.0</ele><time>2026-05-05T10:07:44.218Z</time></trkpt><trkpt lat="52.284355" lon="-8.2174667"><ele>120.5</ele><time>2026-05-05T10:07:45.219Z</time></trkpt><trkpt lat="52.2841883" lon="-8.2178583"><ele>120.0</ele><time>2026-05-05T10:07:46.219Z</time></trkpt><trkpt lat="52.28402" lon="-8.2182483"><ele>119.0</ele><time>2026-05-05T10:07:47.219Z</time></trkpt><trkpt lat="52.283855" lon="-8.2186333"><ele>118.0</ele><time>2026-05-05T10:07:48.219Z</time></trkpt><trkpt lat="52.2836883" lon="-8.2190167"><ele>118.0</ele><time>2026-05-05T10:07:49.219Z</time></trkpt><trkpt lat="52.2835183" lon="-8.2194"><ele>118.0</ele><time>2026-05-05T10:07:50.219Z</time></trkpt><trkpt lat="52.2833367" lon="-8.2197867"><ele>118.5</ele><time>2026-05-05T10:07:51.219Z</time></trkpt><trkpt lat="52.28316" lon="-8.2201883"><ele>119.0</ele><time>2026-05-05T10:07:52.219Z</time></trkpt><trkpt lat="52.2829783" lon="-8.2205633"><ele>120.0</ele><time>2026-05-05T10:07:53.219Z</time></trkpt><trkpt lat="52.2827917" lon="-8.22093"><ele>121.0</ele><time>2026-05-05T10:07:54.219Z</time></trkpt><trkpt lat="52.2826033" lon="-8.2212967"><ele>121.0</ele><time>2026-05-05T10:07:55.219Z</time></trkpt><trkpt lat="52.2824133" lon="-8.221675"><ele>121.0</ele><time>2026-05-05T10:07:56.218Z</time></trkpt><trkpt lat="52.282235" lon="-8.2220617"><ele>121.5</ele><time>2026-05-05T10:07:57.219Z</time></trkpt><trkpt lat="52.2820483" lon="-8.2224367"><ele>122.0</ele><time>2026-05-05T10:07:58.219Z</time></trkpt><trkpt lat="52.2818617" lon="-8.2228233"><ele>121.0</ele><time>2026-05-05T10:07:59.218Z</time></trkpt><trkpt lat="52.281675" lon="-8.2232067"><ele>120.0</ele><time>2026-05-05T10:08:00.219Z</time></trkpt><trkpt lat="52.2814883" lon="-8.22358"><ele>122.0</ele><time>2026-05-05T10:08:01.219Z</time></trkpt><trkpt lat="52.281295" lon="-8.223945"><ele>124.0</ele><time>2026-05-05T10:08:02.219Z</time></trkpt><trkpt lat="52.281105" lon="-8.224315"><ele>124.0</ele><time>2026-05-05T10:08:03.219Z</time></trkpt><trkpt lat="52.28091" lon="-8.2246733"><ele>124.0</ele><time>2026-05-05T10:08:04.218Z</time></trkpt><trkpt lat="52.2807183" lon="-8.225025"><ele>126.0</ele><time>2026-05-05T10:08:05.219Z</time></trkpt><trkpt lat="52.2805167" lon="-8.2253817"><ele>128.0</ele><time>2026-05-05T10:08:06.219Z</time></trkpt><trkpt lat="52.2803083" lon="-8.2257333"><ele>128.0</ele><time>2026-05-05T10:08:07.219Z</time></trkpt><trkpt lat="52.2801033" lon="-8.2260833"><ele>128.0</ele><time>2026-05-05T10:08:08.219Z</time></trkpt><trkpt lat="52.2798967" lon="-8.2264167"><ele>128.0</ele><time>2026-05-05T10:08:09.219Z</time></trkpt><trkpt lat="52.2796817" lon="-8.2267567"><ele>128.0</ele><time>2026-05-05T10:08:10.219Z</time></trkpt><trkpt lat="52.27947" lon="-8.2270867"><ele>127.5</ele><time>2026-05-05T10:08:11.219Z</time></trkpt><trkpt lat="52.2792583" lon="-8.2274167"><ele>127.0</ele><time>2026-05-05T10:08:12.219Z</time></trkpt><trkpt lat="52.27904" lon="-8.2277333"><ele>126.5</ele><time>2026-05-05T10:08:13.219Z</time></trkpt><trkpt lat="52.27883" lon="-8.2280667"><ele>126.0</ele><time>2026-05-05T10:08:14.219Z</time></trkpt><trkpt lat="52.2786133" lon="-8.2283983"><ele>125.0</ele><time>2026-05-05T10:08:15.218Z</time></trkpt><trkpt lat="52.2783933" lon="-8.228715"><ele>124.0</ele><time>2026-05-05T10:08:16.218Z</time></trkpt><trkpt lat="52.27817" lon="-8.2290283"><ele>121.5</ele><time>2026-05-05T10:08:17.218Z</time></trkpt><trkpt lat="52.277945" lon="-8.2293517"><ele>119.0</ele><time>2026-05-05T10:08:18.218Z</time></trkpt><trkpt lat="52.27771" lon="-8.2296717"><ele>118.5</ele><time>2026-05-05T10:08:19.219Z</time></trkpt><trkpt lat="52.2774867" lon="-8.2299867"><ele>118.0</ele><time>2026-05-05T10:08:20.219Z</time></trkpt><trkpt lat="52.27726" lon="-8.2303"><ele>116.5</ele><time>2026-05-05T10:08:21.218Z</time></trkpt><trkpt lat="52.27703" lon="-8.2306067"><ele>115.0</ele><time>2026-05-05T10:08:22.219Z</time></trkpt><trkpt lat="52.276795" lon="-8.2308983"><ele>114.5</ele><time>2026-05-05T10:08:23.219Z</time></trkpt><trkpt lat="52.2765583" lon="-8.2311883"><ele>114.0</ele><time>2026-05-05T10:08:24.219Z</time></trkpt><trkpt lat="52.2763283" lon="-8.2314767"><ele>113.0</ele><time>2026-05-05T10:08:25.218Z</time></trkpt><trkpt lat="52.2761" lon="-8.231765"><ele>112.0</ele><time>2026-05-05T10:08:26.218Z</time></trkpt><trkpt lat="52.2758717" lon="-8.2320567"><ele>112.5</ele><time>2026-05-05T10:08:27.219Z</time></trkpt><trkpt lat="52.2756417" lon="-8.23235"><ele>113.0</ele><time>2026-05-05T10:08:28.218Z</time></trkpt><trkpt lat="52.27541" lon="-8.2326433"><ele>113.5</ele><time>2026-05-05T10:08:29.219Z</time></trkpt><trkpt lat="52.275175" lon="-8.2329383"><ele>114.0</ele><time>2026-05-05T10:08:30.218Z</time></trkpt><trkpt lat="52.2749317" lon="-8.2332333"><ele>114.5</ele><time>2026-05-05T10:08:31.219Z</time></trkpt><trkpt lat="52.2747" lon="-8.233525"><ele>115.0</ele><time>2026-05-05T10:08:32.218Z</time></trkpt><trkpt lat="52.274475" lon="-8.2338283"><ele>114.5</ele><time>2026-05-05T10:08:33.219Z</time></trkpt><trkpt lat="52.2742417" lon="-8.2341267"><ele>114.0</ele><time>2026-05-05T10:08:34.218Z</time></trkpt><trkpt lat="52.2740133" lon="-8.234435"><ele>114.0</ele><time>2026-05-05T10:08:35.218Z</time></trkpt><trkpt lat="52.2737817" lon="-8.2347467"><ele>114.0</ele><time>2026-05-05T10:08:36.219Z</time></trkpt><trkpt lat="52.2735567" lon="-8.2350583"><ele>113.5</ele><time>2026-05-05T10:08:37.219Z</time></trkpt><trkpt lat="52.2733383" lon="-8.235375"><ele>113.0</ele><time>2026-05-05T10:08:38.219Z</time></trkpt><trkpt lat="52.273115" lon="-8.2356917"><ele>112.0</ele><time>2026-05-05T10:08:39.218Z</time></trkpt><trkpt lat="52.2728967" lon="-8.2360033"><ele>111.0</ele><time>2026-05-05T10:08:40.219Z</time></trkpt><trkpt lat="52.272675" lon="-8.23632"><ele>110.5</ele><time>2026-05-05T10:08:41.218Z</time></trkpt><trkpt lat="52.2724617" lon="-8.2366467"><ele>110.0</ele><time>2026-05-05T10:08:42.219Z</time></trkpt><trkpt lat="52.2722433" lon="-8.23697"><ele>109.5</ele><time>2026-05-05T10:08:43.218Z</time></trkpt><trkpt lat="52.2720283" lon="-8.2372967"><ele>109.0</ele><time>2026-05-05T10:08:44.219Z</time></trkpt><trkpt lat="52.2718117" lon="-8.2376317"><ele>108.0</ele><time>2026-05-05T10:08:45.218Z</time></trkpt><trkpt lat="52.2716" lon="-8.237965"><ele>107.0</ele><time>2026-05-05T10:08:46.219Z</time></trkpt><trkpt lat="52.2713917" lon="-8.2383017"><ele>105.0</ele><time>2026-05-05T10:08:47.218Z</time></trkpt><trkpt lat="52.2711817" lon="-8.2386367"><ele>103.0</ele><time>2026-05-05T10:08:48.219Z</time></trkpt><trkpt lat="52.2709767" lon="-8.2389817"><ele>102.0</ele><time>2026-05-05T10:08:49.219Z</time></trkpt><trkpt lat="52.2707667" lon="-8.2393233"><ele>101.0</ele><time>2026-05-05T10:08:50.218Z</time></trkpt><trkpt lat="52.2705617" lon="-8.2396783"><ele>99.0</ele><time>2026-05-05T10:08:51.219Z</time></trkpt><trkpt lat="52.2703617" lon="-8.2400283"><ele>97.0</ele><time>2026-05-05T10:08:52.219Z</time></trkpt><trkpt lat="52.270165" lon="-8.240385"><ele>95.5</ele><time>2026-05-05T10:08:53.219Z</time></trkpt><trkpt lat="52.2699683" lon="-8.2407333"><ele>94.0</ele><time>2026-05-05T10:08:54.219Z</time></trkpt><trkpt lat="52.2697717" lon="-8.2410817"><ele>94.0</ele><time>2026-05-05T10:08:55.219Z</time></trkpt><trkpt lat="52.2695833" lon="-8.2414467"><ele>94.0</ele><time>2026-05-05T10:08:56.218Z</time></trkpt><trkpt lat="52.26939" lon="-8.241805"><ele>93.0</ele><time>2026-05-05T10:08:57.219Z</time></trkpt><trkpt lat="52.2691917" lon="-8.2421483"><ele>92.0</ele><time>2026-05-05T10:08:58.219Z</time></trkpt><trkpt lat="52.2689733" lon="-8.2424683"><ele>91.0</ele><time>2026-05-05T10:08:59.219Z</time></trkpt><trkpt lat="52.26876" lon="-8.24279"><ele>90.0</ele><time>2026-05-05T10:09:00.219Z</time></trkpt><trkpt lat="52.2685367" lon="-8.2431083"><ele>90.0</ele><time>2026-05-05T10:09:01.219Z</time></trkpt><trkpt lat="52.268305" lon="-8.2434117"><ele>90.0</ele><time>2026-05-05T10:09:02.218Z</time></trkpt><trkpt lat="52.2680933" lon="-8.24371"><ele>90.5</ele><time>2026-05-05T10:09:03.219Z</time></trkpt><trkpt lat="52.2678617" lon="-8.2439933"><ele>91.0</ele><time>2026-05-05T10:09:04.219Z</time></trkpt><trkpt lat="52.26762" lon="-8.2442917"><ele>91.0</ele><time>2026-05-05T10:09:05.218Z</time></trkpt><trkpt lat="52.2673817" lon="-8.2445833"><ele>91.0</ele><time>2026-05-05T10:09:06.219Z</time></trkpt><trkpt lat="52.2671467" lon="-8.2448667"><ele>91.0</ele><time>2026-05-05T10:09:07.219Z</time></trkpt><trkpt lat="52.266905" lon="-8.2451533"><ele>91.0</ele><time>2026-05-05T10:09:08.218Z</time></trkpt><trkpt lat="52.2666583" lon="-8.245425"><ele>90.5</ele><time>2026-05-05T10:09:09.219Z</time></trkpt><trkpt lat="52.266415" lon="-8.2456917"><ele>90.0</ele><time>2026-05-05T10:09:10.219Z</time></trkpt><trkpt lat="52.2661667" lon="-8.24596"><ele>90.0</ele><time>2026-05-05T10:09:11.218Z</time></trkpt><trkpt lat="52.2659217" lon="-8.2462233"><ele>90.0</ele><time>2026-05-05T10:09:12.218Z</time></trkpt><trkpt lat="52.265675" lon="-8.246475"><ele>90.0</ele><time>2026-05-05T10:09:13.218Z</time></trkpt><trkpt lat="52.2654233" lon="-8.246705"><ele>90.0</ele><time>2026-05-05T10:09:14.219Z</time></trkpt><trkpt lat="52.2651583" lon="-8.2469367"><ele>90.0</ele><time>2026-05-05T10:09:15.219Z</time></trkpt><trkpt lat="52.2649" lon="-8.2471583"><ele>90.0</ele><time>2026-05-05T10:09:16.219Z</time></trkpt><trkpt lat="52.26464" lon="-8.24738"><ele>90.0</ele><time>2026-05-05T10:09:17.218Z</time></trkpt><trkpt lat="52.264375" lon="-8.24759"><ele>90.0</ele><time>2026-05-05T10:09:18.218Z</time></trkpt><trkpt lat="52.2641067" lon="-8.2478"><ele>90.0</ele><time>2026-05-05T10:09:19.218Z</time></trkpt><trkpt lat="52.2638367" lon="-8.2480067"><ele>90.0</ele><time>2026-05-05T10:09:20.218Z</time></trkpt><trkpt lat="52.2635617" lon="-8.2482017"><ele>90.0</ele><time>2026-05-05T10:09:21.219Z</time></trkpt><trkpt lat="52.26329" lon="-8.2483967"><ele>90.0</ele><time>2026-05-05T10:09:22.219Z</time></trkpt><trkpt lat="52.26302" lon="-8.2485833"><ele>90.5</ele><time>2026-05-05T10:09:23.218Z</time></trkpt><trkpt lat="52.262745" lon="-8.2487633"><ele>91.0</ele><time>2026-05-05T10:09:24.218Z</time></trkpt><trkpt lat="52.2624683" lon="-8.2489317"><ele>90.5</ele><time>2026-05-05T10:09:25.219Z</time></trkpt><trkpt lat="52.2621933" lon="-8.2491017"><ele>90.0</ele><time>2026-05-05T10:09:26.218Z</time></trkpt><trkpt lat="52.2619233" lon="-8.2492733"><ele>90.0</ele><time>2026-05-05T10:09:27.219Z</time></trkpt><trkpt lat="52.2616533" lon="-8.2494467"><ele>90.0</ele><time>2026-05-05T10:09:28.218Z</time></trkpt><trkpt lat="52.2613733" lon="-8.2496133"><ele>90.5</ele><time>2026-05-05T10:09:29.219Z</time></trkpt><trkpt lat="52.2610967" lon="-8.2497817"><ele>91.0</ele><time>2026-05-05T10:09:30.219Z</time></trkpt><trkpt lat="52.2608233" lon="-8.24997"><ele>90.5</ele><time>2026-05-05T10:09:31.219Z</time></trkpt><trkpt lat="52.2605483" lon="-8.2501583"><ele>90.0</ele><time>2026-05-05T10:09:32.218Z</time></trkpt><trkpt lat="52.26028" lon="-8.2503617"><ele>90.0</ele><time>2026-05-05T10:09:33.219Z</time></trkpt><trkpt lat="52.2600217" lon="-8.2505683"><ele>90.0</ele><time>2026-05-05T10:09:34.219Z</time></trkpt><trkpt lat="52.259755" lon="-8.2507717"><ele>90.0</ele><time>2026-05-05T10:09:35.219Z</time></trkpt><trkpt lat="52.2594817" lon="-8.25096"><ele>90.0</ele><time>2026-05-05T10:09:36.219Z</time></trkpt><trkpt lat="52.2592133" lon="-8.2511667"><ele>90.5</ele><time>2026-05-05T10:09:37.219Z</time></trkpt><trkpt lat="52.258945" lon="-8.2513783"><ele>91.0</ele><time>2026-05-05T10:09:38.218Z</time></trkpt><trkpt lat="52.2586883" lon="-8.2516"><ele>91.0</ele><time>2026-05-05T10:09:39.218Z</time></trkpt><trkpt lat="52.2584233" lon="-8.251815"><ele>91.0</ele><time>2026-05-05T10:09:40.219Z</time></trkpt><trkpt lat="52.2581617" lon="-8.25204"><ele>92.5</ele><time>2026-05-05T10:09:41.219Z</time></trkpt><trkpt lat="52.2578983" lon="-8.2522633"><ele>94.0</ele><time>2026-05-05T10:09:42.218Z</time></trkpt><trkpt lat="52.2576383" lon="-8.2524883"><ele>94.0</ele><time>2026-05-05T10:09:43.219Z</time></trkpt><trkpt lat="52.2573833" lon="-8.25272"><ele>94.0</ele><time>2026-05-05T10:09:44.218Z</time></trkpt><trkpt lat="52.2571133" lon="-8.25294"><ele>95.5</ele><time>2026-05-05T10:09:45.218Z</time></trkpt><trkpt lat="52.2568617" lon="-8.2531767"><ele>97.0</ele><time>2026-05-05T10:09:46.218Z</time></trkpt><trkpt lat="52.2566067" lon="-8.2534183"><ele>98.0</ele><time>2026-05-05T10:09:47.219Z</time></trkpt><trkpt lat="52.2563617" lon="-8.2536583"><ele>99.0</ele><time>2026-05-05T10:09:48.218Z</time></trkpt><trkpt lat="52.2561067" lon="-8.253905"><ele>99.0</ele><time>2026-05-05T10:09:49.218Z</time></trkpt><trkpt lat="52.255845" lon="-8.25414"><ele>99.0</ele><time>2026-05-05T10:09:50.219Z</time></trkpt><trkpt lat="52.255585" lon="-8.2543783"><ele>99.0</ele><time>2026-05-05T10:09:51.218Z</time></trkpt><trkpt lat="52.25533" lon="-8.2546367"><ele>99.0</ele><time>2026-05-05T10:09:52.218Z</time></trkpt><trkpt lat="52.2550783" lon="-8.2548967"><ele>99.0</ele><time>2026-05-05T10:09:53.218Z</time></trkpt><trkpt lat="52.25486" lon="-8.2551983"><ele>99.0</ele><time>2026-05-05T10:09:54.218Z</time></trkpt><trkpt lat="52.254645" lon="-8.2554983"><ele>99.0</ele><time>2026-05-05T10:09:55.218Z</time></trkpt><trkpt lat="52.2544033" lon="-8.2557567"><ele>99.0</ele><time>2026-05-05T10:09:56.219Z</time></trkpt><trkpt lat="52.254165" lon="-8.256025"><ele>99.5</ele><time>2026-05-05T10:09:57.218Z</time></trkpt><trkpt lat="52.2539267" lon="-8.2563067"><ele>100.0</ele><time>2026-05-05T10:09:58.218Z</time></trkpt><trkpt lat="52.2536917" lon="-8.256595"><ele>100.0</ele><time>2026-05-05T10:09:59.219Z</time></trkpt><trkpt lat="52.2534517" lon="-8.2568817"><ele>100.0</ele><time>2026-05-05T10:10:00.218Z</time></trkpt><trkpt lat="52.2532183" lon="-8.2571683"><ele>100.5</ele><time>2026-05-05T10:10:01.218Z</time></trkpt><trkpt lat="52.2529867" lon="-8.25745"><ele>101.0</ele><time>2026-05-05T10:10:02.219Z</time></trkpt><trkpt lat="52.25275" lon="-8.2577483"><ele>101.0</ele><time>2026-05-05T10:10:03.218Z</time></trkpt><trkpt lat="52.2525167" lon="-8.2580383"><ele>101.0</ele><time>2026-05-05T10:10:04.218Z</time></trkpt><trkpt lat="52.2522817" lon="-8.2583367"><ele>101.0</ele><time>2026-05-05T10:10:05.219Z</time></trkpt><trkpt lat="52.252045" lon="-8.258645"><ele>101.0</ele><time>2026-05-05T10:10:06.218Z</time></trkpt><trkpt lat="52.2518217" lon="-8.25895"><ele>101.5</ele><time>2026-05-05T10:10:07.219Z</time></trkpt><trkpt lat="52.2515983" lon="-8.2592567"><ele>102.0</ele><time>2026-05-05T10:10:08.219Z</time></trkpt><trkpt lat="52.2513717" lon="-8.25957"><ele>103.5</ele><time>2026-05-05T10:10:09.218Z</time></trkpt><trkpt lat="52.2511533" lon="-8.25989"><ele>105.0</ele><time>2026-05-05T10:10:10.219Z</time></trkpt><trkpt lat="52.2509367" lon="-8.260215"><ele>105.0</ele><time>2026-05-05T10:10:11.218Z</time></trkpt><trkpt lat="52.2507233" lon="-8.2605383"><ele>105.0</ele><time>2026-05-05T10:10:12.219Z</time></trkpt><trkpt lat="52.25051" lon="-8.260865"><ele>104.5</ele><time>2026-05-05T10:10:13.219Z</time></trkpt><trkpt lat="52.25029" lon="-8.261205"><ele>104.0</ele><time>2026-05-05T10:10:14.219Z</time></trkpt><trkpt lat="52.2500667" lon="-8.2615283"><ele>104.0</ele><time>2026-05-05T10:10:15.218Z</time></trkpt><trkpt lat="52.24985" lon="-8.261865"><ele>104.0</ele><time>2026-05-05T10:10:16.218Z</time></trkpt><trkpt lat="52.24963" lon="-8.2621933"><ele>104.5</ele><time>2026-05-05T10:10:17.219Z</time></trkpt><trkpt lat="52.24942" lon="-8.2625333"><ele>105.0</ele><time>2026-05-05T10:10:18.219Z</time></trkpt><trkpt lat="52.2492133" lon="-8.262885"><ele>105.5</ele><time>2026-05-05T10:10:19.219Z</time></trkpt><trkpt lat="52.24901" lon="-8.2632333"><ele>106.0</ele><time>2026-05-05T10:10:20.219Z</time></trkpt><trkpt lat="52.248805" lon="-8.2635867"><ele>106.0</ele><time>2026-05-05T10:10:21.218Z</time></trkpt><trkpt lat="52.2486" lon="-8.26393"><ele>106.0</ele><time>2026-05-05T10:10:22.218Z</time></trkpt><trkpt lat="52.2484017" lon="-8.2642683"><ele>106.5</ele><time>2026-05-05T10:10:23.218Z</time></trkpt><trkpt lat="52.248205" lon="-8.26463"><ele>107.0</ele><time>2026-05-05T10:10:24.219Z</time></trkpt><trkpt lat="52.2480167" lon="-8.2649833"><ele>108.5</ele><time>2026-05-05T10:10:25.219Z</time></trkpt><trkpt lat="52.2478283" lon="-8.2653283"><ele>110.0</ele><time>2026-05-05T10:10:26.219Z</time></trkpt><trkpt lat="52.2476333" lon="-8.2656783"><ele>110.5</ele><time>2026-05-05T10:10:27.219Z</time></trkpt><trkpt lat="52.2474317" lon="-8.26603"><ele>111.0</ele><time>2026-05-05T10:10:28.218Z</time></trkpt><trkpt lat="52.2472133" lon="-8.2663567"><ele>113.0</ele><time>2026-05-05T10:10:29.219Z</time></trkpt><trkpt lat="52.247005" lon="-8.2666917"><ele>115.0</ele><time>2026-05-05T10:10:30.219Z</time></trkpt><trkpt lat="52.2467917" lon="-8.2670167"><ele>115.0</ele><time>2026-05-05T10:10:31.219Z</time></trkpt><trkpt lat="52.2465883" lon="-8.267345"><ele>115.0</ele><time>2026-05-05T10:10:32.219Z</time></trkpt><trkpt lat="52.2463733" lon="-8.2676733"><ele>115.5</ele><time>2026-05-05T10:10:33.218Z</time></trkpt><trkpt lat="52.2461483" lon="-8.2679917"><ele>116.0</ele><time>2026-05-05T10:10:34.219Z</time></trkpt><trkpt lat="52.2459267" lon="-8.26831"><ele>116.0</ele><time>2026-05-05T10:10:35.218Z</time></trkpt><trkpt lat="52.2456967" lon="-8.2686083"><ele>116.0</ele><time>2026-05-05T10:10:36.219Z</time></trkpt><trkpt lat="52.24546" lon="-8.2689017"><ele>117.0</ele><time>2026-05-05T10:10:37.218Z</time></trkpt><trkpt lat="52.2452167" lon="-8.269185"><ele>118.0</ele><time>2026-05-05T10:10:38.219Z</time></trkpt><trkpt lat="52.24497" lon="-8.2694683"><ele>120.0</ele><time>2026-05-05T10:10:39.219Z</time></trkpt><trkpt lat="52.2447267" lon="-8.26973"><ele>122.0</ele><time>2026-05-05T10:10:40.219Z</time></trkpt><trkpt lat="52.244485" lon="-8.2699833"><ele>122.0</ele><time>2026-05-05T10:10:41.218Z</time></trkpt><trkpt lat="52.244225" lon="-8.27022"><ele>122.0</ele><time>2026-05-05T10:10:42.218Z</time></trkpt><trkpt lat="52.2439633" lon="-8.2704433"><ele>122.5</ele><time>2026-05-05T10:10:43.219Z</time></trkpt><trkpt lat="52.243705" lon="-8.27068"><ele>123.0</ele><time>2026-05-05T10:10:44.219Z</time></trkpt><trkpt lat="52.2434417" lon="-8.27091"><ele>123.0</ele><time>2026-05-05T10:10:45.219Z</time></trkpt><trkpt lat="52.2431933" lon="-8.2711767"><ele>123.0</ele><time>2026-05-05T10:10:46.219Z</time></trkpt><trkpt lat="52.2429467" lon="-8.2714267"><ele>124.0</ele><time>2026-05-05T10:10:47.219Z</time></trkpt><trkpt lat="52.2427033" lon="-8.2716867"><ele>125.0</ele><time>2026-05-05T10:10:48.219Z</time></trkpt><trkpt lat="52.2424533" lon="-8.27195"><ele>126.0</ele><time>2026-05-05T10:10:49.218Z</time></trkpt><trkpt lat="52.242215" lon="-8.2722067"><ele>127.0</ele><time>2026-05-05T10:10:50.218Z</time></trkpt><trkpt lat="52.2419833" lon="-8.2724867"><ele>127.0</ele><time>2026-05-05T10:10:51.219Z</time></trkpt><trkpt lat="52.24175" lon="-8.27277"><ele>127.0</ele><time>2026-05-05T10:10:52.219Z</time></trkpt><trkpt lat="52.2415183" lon="-8.2730683"><ele>125.5</ele><time>2026-05-05T10:10:53.219Z</time></trkpt><trkpt lat="52.2412917" lon="-8.2733833"><ele>124.0</ele><time>2026-05-05T10:10:54.218Z</time></trkpt><trkpt lat="52.2410617" lon="-8.2737033"><ele>123.5</ele><time>2026-05-05T10:10:55.219Z</time></trkpt><trkpt lat="52.2408417" lon="-8.27403"><ele>123.0</ele><time>2026-05-05T10:10:56.219Z</time></trkpt><trkpt lat="52.2406333" lon="-8.2743733"><ele>125.0</ele><time>2026-05-05T10:10:57.219Z</time></trkpt><trkpt lat="52.2404267" lon="-8.274725"><ele>127.0</ele><time>2026-05-05T10:10:58.219Z</time></trkpt><trkpt lat="52.240235" lon="-8.275085"><ele>128.0</ele><time>2026-05-05T10:10:59.219Z</time></trkpt><trkpt lat="52.2400483" lon="-8.27546"><ele>129.0</ele><time>2026-05-05T10:11:00.219Z</time></trkpt><trkpt lat="52.2398683" lon="-8.2758417"><ele>132.5</ele><time>2026-05-05T10:11:01.219Z</time></trkpt><trkpt lat="52.2396967" lon="-8.2762283"><ele>136.0</ele><time>2026-05-05T10:11:02.219Z</time></trkpt><trkpt lat="52.2395267" lon="-8.2766267"><ele>136.5</ele><time>2026-05-05T10:11:03.218Z</time></trkpt><trkpt lat="52.239365" lon="-8.2770367"><ele>137.0</ele><time>2026-05-05T10:11:04.219Z</time></trkpt><trkpt lat="52.2392" lon="-8.2774367"><ele>137.0</ele><time>2026-05-05T10:11:05.219Z</time></trkpt><trkpt lat="52.2390333" lon="-8.2778367"><ele>137.0</ele><time>2026-05-05T10:11:06.218Z</time></trkpt><trkpt lat="52.2388783" lon="-8.2782483"><ele>137.5</ele><time>2026-05-05T10:11:07.218Z</time></trkpt><trkpt lat="52.23871" lon="-8.2786433"><ele>138.0</ele><time>2026-05-05T10:11:08.219Z</time></trkpt><trkpt lat="52.2385317" lon="-8.2790367"><ele>135.5</ele><time>2026-05-05T10:11:09.219Z</time></trkpt><trkpt lat="52.238345" lon="-8.279415"><ele>133.0</ele><time>2026-05-05T10:11:10.218Z</time></trkpt><trkpt lat="52.2381583" lon="-8.2797833"><ele>133.5</ele><time>2026-05-05T10:11:11.218Z</time></trkpt><trkpt lat="52.237965" lon="-8.2801467"><ele>134.0</ele><time>2026-05-05T10:11:12.219Z</time></trkpt><trkpt lat="52.2377683" lon="-8.2804983"><ele>132.0</ele><time>2026-05-05T10:11:13.218Z</time></trkpt><trkpt lat="52.2375717" lon="-8.280835"><ele>130.0</ele><time>2026-05-05T10:11:14.218Z</time></trkpt><trkpt lat="52.2373633" lon="-8.281175"><ele>129.0</ele><time>2026-05-05T10:11:15.219Z</time></trkpt><trkpt lat="52.236925" lon="-8.281835"><ele>129.0</ele><time>2026-05-05T10:11:17.219Z</time></trkpt><trkpt lat="52.2367017" lon="-8.2821567"><ele>129.0</ele><time>2026-05-05T10:11:18.218Z</time></trkpt><trkpt lat="52.2364717" lon="-8.2824517"><ele>130.0</ele><time>2026-05-05T10:11:19.219Z</time></trkpt><trkpt lat="52.2362317" lon="-8.2827367"><ele>131.0</ele><time>2026-05-05T10:11:20.218Z</time></trkpt><trkpt lat="52.2359967" lon="-8.283015"><ele>131.5</ele><time>2026-05-05T10:11:21.218Z</time></trkpt><trkpt lat="52.2357567" lon="-8.2832933"><ele>132.0</ele><time>2026-05-05T10:11:22.219Z</time></trkpt><trkpt lat="52.235515" lon="-8.2835617"><ele>132.0</ele><time>2026-05-05T10:11:23.218Z</time></trkpt><trkpt lat="52.2352683" lon="-8.2838183"><ele>132.0</ele><time>2026-05-05T10:11:24.219Z</time></trkpt><trkpt lat="52.23502" lon="-8.2840717"><ele>133.5</ele><time>2026-05-05T10:11:25.219Z</time></trkpt><trkpt lat="52.2347717" lon="-8.2843133"><ele>135.0</ele><time>2026-05-05T10:11:26.218Z</time></trkpt><trkpt lat="52.23451" lon="-8.2845483"><ele>133.5</ele><time>2026-05-05T10:11:27.218Z</time></trkpt><trkpt lat="52.234255" lon="-8.2847733"><ele>132.0</ele><time>2026-05-05T10:11:28.219Z</time></trkpt><trkpt lat="52.2339883" lon="-8.284985"><ele>134.0</ele><time>2026-05-05T10:11:29.218Z</time></trkpt><trkpt lat="52.2337083" lon="-8.285175"><ele>136.0</ele><time>2026-05-05T10:11:30.219Z</time></trkpt><trkpt lat="52.2334367" lon="-8.2853533"><ele>136.0</ele><time>2026-05-05T10:11:31.219Z</time></trkpt><trkpt lat="52.2331583" lon="-8.2855333"><ele>136.0</ele><time>2026-05-05T10:11:32.219Z</time></trkpt><trkpt lat="52.232865" lon="-8.285655"><ele>134.5</ele><time>2026-05-05T10:11:33.218Z</time></trkpt><trkpt lat="52.23259" lon="-8.2857783"><ele>133.0</ele><time>2026-05-05T10:11:34.218Z</time></trkpt><trkpt lat="52.232315" lon="-8.285915"><ele>132.5</ele><time>2026-05-05T10:11:35.218Z</time></trkpt><trkpt lat="52.2320433" lon="-8.28604"><ele>132.0</ele><time>2026-05-05T10:11:36.219Z</time></trkpt><trkpt lat="52.231805" lon="-8.2861767"><ele>132.0</ele><time>2026-05-05T10:11:37.218Z</time></trkpt><trkpt lat="52.2315533" lon="-8.2862867"><ele>132.0</ele><time>2026-05-05T10:11:38.218Z</time></trkpt><trkpt lat="52.231295" lon="-8.2863983"><ele>133.0</ele><time>2026-05-05T10:11:39.219Z</time></trkpt><trkpt lat="52.2310317" lon="-8.2864983"><ele>134.0</ele><time>2026-05-05T10:11:40.218Z</time></trkpt><trkpt lat="52.2307517" lon="-8.286595"><ele>136.0</ele><time>2026-05-05T10:11:41.218Z</time></trkpt><trkpt lat="52.23047" lon="-8.2866733"><ele>138.0</ele><time>2026-05-05T10:11:42.219Z</time></trkpt><trkpt lat="52.2301867" lon="-8.2867483"><ele>138.0</ele><time>2026-05-05T10:11:43.219Z</time></trkpt><trkpt lat="52.229895" lon="-8.2868067"><ele>138.0</ele><time>2026-05-05T10:11:44.219Z</time></trkpt><trkpt lat="52.229605" lon="-8.2868567"><ele>138.5</ele><time>2026-05-05T10:11:45.218Z</time></trkpt><trkpt lat="52.229325" lon="-8.2869083"><ele>139.0</ele><time>2026-05-05T10:11:46.219Z</time></trkpt><trkpt lat="52.2290283" lon="-8.28694"><ele>141.0</ele><time>2026-05-05T10:11:47.219Z</time></trkpt><trkpt lat="52.2287317" lon="-8.28698"><ele>143.0</ele><time>2026-05-05T10:11:48.219Z</time></trkpt><trkpt lat="52.2284367" lon="-8.2870267"><ele>143.0</ele><time>2026-05-05T10:11:49.219Z</time></trkpt><trkpt lat="52.2281483" lon="-8.28708"><ele>143.0</ele><time>2026-05-05T10:11:50.219Z</time></trkpt><trkpt lat="52.2278567" lon="-8.2871333"><ele>144.5</ele><time>2026-05-05T10:11:51.219Z</time></trkpt><trkpt lat="52.2275533" lon="-8.28718"><ele>146.0</ele><time>2026-05-05T10:11:52.219Z</time></trkpt><trkpt lat="52.2272483" lon="-8.28723"><ele>145.5</ele><time>2026-05-05T10:11:53.219Z</time></trkpt><trkpt lat="52.2269433" lon="-8.2872867"><ele>145.0</ele><time>2026-05-05T10:11:54.219Z</time></trkpt><trkpt lat="52.2266333" lon="-8.2873283"><ele>147.5</ele><time>2026-05-05T10:11:55.218Z</time></trkpt><trkpt lat="52.226325" lon="-8.2873783"><ele>150.0</ele><time>2026-05-05T10:11:56.219Z</time></trkpt><trkpt lat="52.2260183" lon="-8.2874267"><ele>150.0</ele><time>2026-05-05T10:11:57.219Z</time></trkpt><trkpt lat="52.2257233" lon="-8.2874717"><ele>150.0</ele><time>2026-05-05T10:11:58.218Z</time></trkpt><trkpt lat="52.2254267" lon="-8.2875067"><ele>151.5</ele><time>2026-05-05T10:11:59.218Z</time></trkpt><trkpt lat="52.225135" lon="-8.2875283"><ele>153.0</ele><time>2026-05-05T10:12:00.218Z</time></trkpt><trkpt lat="52.2248333" lon="-8.287555"><ele>155.5</ele><time>2026-05-05T10:12:01.219Z</time></trkpt><trkpt lat="52.2245367" lon="-8.28757"><ele>158.0</ele><time>2026-05-05T10:12:02.219Z</time></trkpt><trkpt lat="52.2242467" lon="-8.28757"><ele>160.5</ele><time>2026-05-05T10:12:03.219Z</time></trkpt><trkpt lat="52.22396" lon="-8.287555"><ele>163.0</ele><time>2026-05-05T10:12:04.219Z</time></trkpt><trkpt lat="52.22368" lon="-8.2875433"><ele>163.0</ele><time>2026-05-05T10:12:05.219Z</time></trkpt><trkpt lat="52.2233933" lon="-8.2875033"><ele>163.0</ele><time>2026-05-05T10:12:06.219Z</time></trkpt><trkpt lat="52.2231067" lon="-8.28744"><ele>166.0</ele><time>2026-05-05T10:12:07.219Z</time></trkpt><trkpt lat="52.22282" lon="-8.2873717"><ele>169.0</ele><time>2026-05-05T10:12:08.219Z</time></trkpt><trkpt lat="52.2225433" lon="-8.2872867"><ele>173.5</ele><time>2026-05-05T10:12:09.218Z</time></trkpt><trkpt lat="52.2222767" lon="-8.2871733"><ele>178.0</ele><time>2026-05-05T10:12:10.218Z</time></trkpt><trkpt lat="52.2220217" lon="-8.2870767"><ele>178.0</ele><time>2026-05-05T10:12:11.219Z</time></trkpt><trkpt lat="52.221765" lon="-8.2869717"><ele>178.0</ele><time>2026-05-05T10:12:12.219Z</time></trkpt><trkpt lat="52.2215083" lon="-8.2868367"><ele>180.5</ele><time>2026-05-05T10:12:13.219Z</time></trkpt><trkpt lat="52.2212383" lon="-8.2867067"><ele>183.0</ele><time>2026-05-05T10:12:14.219Z</time></trkpt><trkpt lat="52.2209717" lon="-8.28655"><ele>183.0</ele><time>2026-05-05T10:12:15.218Z</time></trkpt><trkpt lat="52.220695" lon="-8.286365"><ele>183.0</ele><time>2026-05-05T10:12:16.219Z</time></trkpt><trkpt lat="52.2204233" lon="-8.2861717"><ele>182.0</ele><time>2026-05-05T10:12:17.218Z</time></trkpt><trkpt lat="52.2201533" lon="-8.285955"><ele>181.0</ele><time>2026-05-05T10:12:18.219Z</time></trkpt><trkpt lat="52.2198867" lon="-8.2857183"><ele>180.0</ele><time>2026-05-05T10:12:19.219Z</time></trkpt><trkpt lat="52.2196217" lon="-8.2854583"><ele>179.0</ele><time>2026-05-05T10:12:20.219Z</time></trkpt><trkpt lat="52.219365" lon="-8.2851817"><ele>179.0</ele><time>2026-05-05T10:12:21.219Z</time></trkpt><trkpt lat="52.2191133" lon="-8.2849017"><ele>179.0</ele><time>2026-05-05T10:12:22.218Z</time></trkpt><trkpt lat="52.218865" lon="-8.2846017"><ele>178.0</ele><time>2026-05-05T10:12:23.219Z</time></trkpt><trkpt lat="52.2186333" lon="-8.2843133"><ele>177.0</ele><time>2026-05-05T10:12:24.219Z</time></trkpt><trkpt lat="52.2184183" lon="-8.2840233"><ele>178.0</ele><time>2026-05-05T10:12:25.218Z</time></trkpt><trkpt lat="52.2182133" lon="-8.2837617"><ele>179.0</ele><time>2026-05-05T10:12:26.219Z</time></trkpt><trkpt lat="52.218005" lon="-8.2834883"><ele>179.0</ele><time>2026-05-05T10:12:27.218Z</time></trkpt><trkpt lat="52.2178017" lon="-8.2832183"><ele>179.0</ele><time>2026-05-05T10:12:28.218Z</time></trkpt><trkpt lat="52.21759" lon="-8.28293"><ele>180.0</ele><time>2026-05-05T10:12:29.218Z</time></trkpt><trkpt lat="52.2173833" lon="-8.28261"><ele>181.0</ele><time>2026-05-05T10:12:30.218Z</time></trkpt><trkpt lat="52.2171717" lon="-8.2822717"><ele>180.5</ele><time>2026-05-05T10:12:31.218Z</time></trkpt><trkpt lat="52.2169683" lon="-8.2819517"><ele>180.0</ele><time>2026-05-05T10:12:32.219Z</time></trkpt><trkpt lat="52.2167783" lon="-8.281635"><ele>178.5</ele><time>2026-05-05T10:12:33.219Z</time></trkpt><trkpt lat="52.2166" lon="-8.2813383"><ele>177.0</ele><time>2026-05-05T10:12:34.219Z</time></trkpt><trkpt lat="52.216415" lon="-8.2810367"><ele>177.0</ele><time>2026-05-05T10:12:35.219Z</time></trkpt><trkpt lat="52.2162383" lon="-8.2807333"><ele>177.0</ele><time>2026-05-05T10:12:36.219Z</time></trkpt><trkpt lat="52.2160467" lon="-8.2804333"><ele>176.5</ele><time>2026-05-05T10:12:37.219Z</time></trkpt><trkpt lat="52.215855" lon="-8.2801383"><ele>176.0</ele><time>2026-05-05T10:12:38.219Z</time></trkpt><trkpt lat="52.215645" lon="-8.2798767"><ele>174.5</ele><time>2026-05-05T10:12:39.219Z</time></trkpt><trkpt lat="52.2154467" lon="-8.2796333"><ele>173.0</ele><time>2026-05-05T10:12:40.219Z</time></trkpt><trkpt lat="52.2152433" lon="-8.2793483"><ele>173.0</ele><time>2026-05-05T10:12:41.219Z</time></trkpt><trkpt lat="52.2150533" lon="-8.279105"><ele>173.0</ele><time>2026-05-05T10:12:42.218Z</time></trkpt><trkpt lat="52.214825" lon="-8.2788633"><ele>170.5</ele><time>2026-05-05T10:12:43.219Z</time></trkpt><trkpt lat="52.2146017" lon="-8.278625"><ele>168.0</ele><time>2026-05-05T10:12:44.219Z</time></trkpt><trkpt lat="52.21438" lon="-8.2783933"><ele>168.0</ele><time>2026-05-05T10:12:45.218Z</time></trkpt><trkpt lat="52.21414" lon="-8.2781833"><ele>168.0</ele><time>2026-05-05T10:12:46.218Z</time></trkpt><trkpt lat="52.2139017" lon="-8.2779967"><ele>168.0</ele><time>2026-05-05T10:12:47.219Z</time></trkpt><trkpt lat="52.21366" lon="-8.27781"><ele>168.0</ele><time>2026-05-05T10:12:48.219Z</time></trkpt><trkpt lat="52.2134067" lon="-8.2776367"><ele>168.0</ele><time>2026-05-05T10:12:49.219Z</time></trkpt><trkpt lat="52.2131517" lon="-8.2774783"><ele>168.0</ele><time>2026-05-05T10:12:50.218Z</time></trkpt><trkpt lat="52.2128833" lon="-8.2773017"><ele>167.5</ele><time>2026-05-05T10:12:51.218Z</time></trkpt><trkpt lat="52.2125967" lon="-8.2771183"><ele>167.0</ele><time>2026-05-05T10:12:52.218Z</time></trkpt><trkpt lat="52.212305" lon="-8.27695"><ele>167.0</ele><time>2026-05-05T10:12:53.218Z</time></trkpt><trkpt lat="52.2120167" lon="-8.2768083"><ele>167.0</ele><time>2026-05-05T10:12:54.218Z</time></trkpt><trkpt lat="52.211715" lon="-8.2766717"><ele>165.0</ele><time>2026-05-05T10:12:55.218Z</time></trkpt><trkpt lat="52.21141" lon="-8.2765233"><ele>163.0</ele><time>2026-05-05T10:12:56.219Z</time></trkpt><trkpt lat="52.21111" lon="-8.276365"><ele>162.5</ele><time>2026-05-05T10:12:57.219Z</time></trkpt><trkpt lat="52.21081" lon="-8.2762183"><ele>162.0</ele><time>2026-05-05T10:12:58.218Z</time></trkpt><trkpt lat="52.210515" lon="-8.2760783"><ele>160.5</ele><time>2026-05-05T10:12:59.219Z</time></trkpt><trkpt lat="52.210225" lon="-8.2759417"><ele>159.0</ele><time>2026-05-05T10:13:00.219Z</time></trkpt><trkpt lat="52.2099417" lon="-8.2758"><ele>156.5</ele><time>2026-05-05T10:13:01.219Z</time></trkpt><trkpt lat="52.20966" lon="-8.275665"><ele>154.0</ele><time>2026-05-05T10:13:02.219Z</time></trkpt><trkpt lat="52.209375" lon="-8.2755483"><ele>153.5</ele><time>2026-05-05T10:13:03.219Z</time></trkpt><trkpt lat="52.2090833" lon="-8.27543"><ele>153.0</ele><time>2026-05-05T10:13:04.219Z</time></trkpt><trkpt lat="52.20879" lon="-8.275325"><ele>151.5</ele><time>2026-05-05T10:13:05.219Z</time></trkpt><trkpt lat="52.2084983" lon="-8.2752067"><ele>150.0</ele><time>2026-05-05T10:13:06.218Z</time></trkpt><trkpt lat="52.2082033" lon="-8.2750783"><ele>147.5</ele><time>2026-05-05T10:13:07.219Z</time></trkpt><trkpt lat="52.2079067" lon="-8.2749617"><ele>145.0</ele><time>2026-05-05T10:13:08.219Z</time></trkpt><trkpt lat="52.2076083" lon="-8.27485"><ele>142.5</ele><time>2026-05-05T10:13:09.218Z</time></trkpt><trkpt lat="52.2073033" lon="-8.274755"><ele>140.0</ele><time>2026-05-05T10:13:10.218Z</time></trkpt><trkpt lat="52.2070067" lon="-8.2746717"><ele>140.0</ele><time>2026-05-05T10:13:11.218Z</time></trkpt><trkpt lat="52.2067083" lon="-8.2745833"><ele>140.0</ele><time>2026-05-05T10:13:12.219Z</time></trkpt><trkpt lat="52.2064117" lon="-8.274505"><ele>138.5</ele><time>2026-05-05T10:13:13.218Z</time></trkpt><trkpt lat="52.2061133" lon="-8.274445"><ele>137.0</ele><time>2026-05-05T10:13:14.219Z</time></trkpt><trkpt lat="52.205815" lon="-8.2743983"><ele>137.5</ele><time>2026-05-05T10:13:15.219Z</time></trkpt><trkpt lat="52.2055317" lon="-8.2743717"><ele>138.0</ele><time>2026-05-05T10:13:16.218Z</time></trkpt><trkpt lat="52.2052417" lon="-8.2743233"><ele>138.0</ele><time>2026-05-05T10:13:17.219Z</time></trkpt><trkpt lat="52.2049517" lon="-8.2742783"><ele>138.0</ele><time>2026-05-05T10:13:18.218Z</time></trkpt><trkpt lat="52.2046617" lon="-8.274245"><ele>139.0</ele><time>2026-05-05T10:13:19.218Z</time></trkpt><trkpt lat="52.20438" lon="-8.2742333"><ele>140.0</ele><time>2026-05-05T10:13:20.219Z</time></trkpt><trkpt lat="52.204095" lon="-8.27422"><ele>140.0</ele><time>2026-05-05T10:13:21.219Z</time></trkpt><trkpt lat="52.2038133" lon="-8.2742"><ele>140.0</ele><time>2026-05-05T10:13:22.218Z</time></trkpt><trkpt lat="52.203525" lon="-8.27418"><ele>140.0</ele><time>2026-05-05T10:13:23.219Z</time></trkpt><trkpt lat="52.20324" lon="-8.2741583"><ele>140.0</ele><time>2026-05-05T10:13:24.219Z</time></trkpt><trkpt lat="52.2029633" lon="-8.2741483"><ele>140.0</ele><time>2026-05-05T10:13:25.218Z</time></trkpt><trkpt lat="52.2026817" lon="-8.27415"><ele>140.0</ele><time>2026-05-05T10:13:26.219Z</time></trkpt><trkpt lat="52.2024017" lon="-8.274155"><ele>139.0</ele><time>2026-05-05T10:13:27.219Z</time></trkpt><trkpt lat="52.2021133" lon="-8.2741533"><ele>138.0</ele><time>2026-05-05T10:13:28.218Z</time></trkpt><trkpt lat="52.2018183" lon="-8.2741467"><ele>138.0</ele><time>2026-05-05T10:13:29.219Z</time></trkpt><trkpt lat="52.201525" lon="-8.274135"><ele>138.0</ele><time>2026-05-05T10:13:30.219Z</time></trkpt><trkpt lat="52.2012333" lon="-8.274095"><ele>137.5</ele><time>2026-05-05T10:13:31.218Z</time></trkpt><trkpt lat="52.20094" lon="-8.2740633"><ele>137.0</ele><time>2026-05-05T10:13:32.219Z</time></trkpt><trkpt lat="52.2006467" lon="-8.27403"><ele>137.0</ele><time>2026-05-05T10:13:33.218Z</time></trkpt><trkpt lat="52.20035" lon="-8.2739833"><ele>137.0</ele><time>2026-05-05T10:13:34.219Z</time></trkpt><trkpt lat="52.2000633" lon="-8.27393"><ele>137.0</ele><time>2026-05-05T10:13:35.219Z</time></trkpt><trkpt lat="52.19977" lon="-8.2738683"><ele>137.0</ele><time>2026-05-05T10:13:36.218Z</time></trkpt><trkpt lat="52.1994833" lon="-8.2738067"><ele>137.0</ele><time>2026-05-05T10:13:37.219Z</time></trkpt><trkpt lat="52.1992" lon="-8.2737567"><ele>137.0</ele><time>2026-05-05T10:13:38.218Z</time></trkpt><trkpt lat="52.198915" lon="-8.2736917"><ele>135.5</ele><time>2026-05-05T10:13:39.219Z</time></trkpt><trkpt lat="52.1986183" lon="-8.2736083"><ele>134.0</ele><time>2026-05-05T10:13:40.218Z</time></trkpt><trkpt lat="52.1983317" lon="-8.2735383"><ele>131.0</ele><time>2026-05-05T10:13:41.218Z</time></trkpt><trkpt lat="52.1980267" lon="-8.27344"><ele>128.0</ele><time>2026-05-05T10:13:42.218Z</time></trkpt><trkpt lat="52.1977183" lon="-8.2733367"><ele>128.0</ele><time>2026-05-05T10:13:43.219Z</time></trkpt><trkpt lat="52.197415" lon="-8.27325"><ele>128.0</ele><time>2026-05-05T10:13:44.218Z</time></trkpt><trkpt lat="52.1971083" lon="-8.2731683"><ele>123.5</ele><time>2026-05-05T10:13:45.219Z</time></trkpt><trkpt lat="52.1967967" lon="-8.27308"><ele>119.0</ele><time>2026-05-05T10:13:46.219Z</time></trkpt><trkpt lat="52.1964867" lon="-8.27301"><ele>117.5</ele><time>2026-05-05T10:13:47.219Z</time></trkpt><trkpt lat="52.19617" lon="-8.2729267"><ele>116.0</ele><time>2026-05-05T10:13:48.218Z</time></trkpt><trkpt lat="52.1958567" lon="-8.27284"><ele>115.0</ele><time>2026-05-05T10:13:49.219Z</time></trkpt><trkpt lat="52.1955467" lon="-8.27275"><ele>114.0</ele><time>2026-05-05T10:13:50.219Z</time></trkpt><trkpt lat="52.1952383" lon="-8.2726733"><ele>114.0</ele><time>2026-05-05T10:13:51.218Z</time></trkpt><trkpt lat="52.1949267" lon="-8.2725767"><ele>114.0</ele><time>2026-05-05T10:13:52.219Z</time></trkpt><trkpt lat="52.194625" lon="-8.27249"><ele>114.0</ele><time>2026-05-05T10:13:53.218Z</time></trkpt><trkpt lat="52.1943333" lon="-8.2723933"><ele>114.0</ele><time>2026-05-05T10:13:54.219Z</time></trkpt><trkpt lat="52.1940483" lon="-8.2723133"><ele>112.0</ele><time>2026-05-05T10:13:55.219Z</time></trkpt><trkpt lat="52.19376" lon="-8.2722167"><ele>110.0</ele><time>2026-05-05T10:13:56.218Z</time></trkpt><trkpt lat="52.193465" lon="-8.27214"><ele>107.0</ele><time>2026-05-05T10:13:57.218Z</time></trkpt><trkpt lat="52.1931683" lon="-8.2720683"><ele>104.0</ele><time>2026-05-05T10:13:58.219Z</time></trkpt><trkpt lat="52.1928683" lon="-8.27202"><ele>104.0</ele><time>2026-05-05T10:13:59.219Z</time></trkpt><trkpt lat="52.1925633" lon="-8.2719633"><ele>104.0</ele><time>2026-05-05T10:14:00.218Z</time></trkpt><trkpt lat="52.1922667" lon="-8.2719083"><ele>99.5</ele><time>2026-05-05T10:14:01.219Z</time></trkpt><trkpt lat="52.19197" lon="-8.2718583"><ele>95.0</ele><time>2026-05-05T10:14:02.219Z</time></trkpt><trkpt lat="52.191685" lon="-8.2718133"><ele>92.0</ele><time>2026-05-05T10:14:03.219Z</time></trkpt><trkpt lat="52.1914217" lon="-8.2717967"><ele>89.0</ele><time>2026-05-05T10:14:04.219Z</time></trkpt><trkpt lat="52.1911433" lon="-8.2717717"><ele>89.0</ele><time>2026-05-05T10:14:05.219Z</time></trkpt><trkpt lat="52.1908683" lon="-8.2717783"><ele>89.0</ele><time>2026-05-05T10:14:06.218Z</time></trkpt><trkpt lat="52.1905833" lon="-8.2717483"><ele>89.5</ele><time>2026-05-05T10:14:07.218Z</time></trkpt><trkpt lat="52.1902933" lon="-8.2717333"><ele>90.0</ele><time>2026-05-05T10:14:08.218Z</time></trkpt><trkpt lat="52.190005" lon="-8.27172"><ele>87.5</ele><time>2026-05-05T10:14:09.219Z</time></trkpt><trkpt lat="52.1897167" lon="-8.2717167"><ele>85.0</ele><time>2026-05-05T10:14:10.218Z</time></trkpt><trkpt lat="52.18943" lon="-8.27172"><ele>85.0</ele><time>2026-05-05T10:14:11.218Z</time></trkpt><trkpt lat="52.1891433" lon="-8.2717033"><ele>85.0</ele><time>2026-05-05T10:14:12.218Z</time></trkpt><trkpt lat="52.188845" lon="-8.2716817"><ele>84.0</ele><time>2026-05-05T10:14:13.218Z</time></trkpt><trkpt lat="52.1885483" lon="-8.27169"><ele>83.0</ele><time>2026-05-05T10:14:14.219Z</time></trkpt><trkpt lat="52.18826" lon="-8.27169"><ele>81.5</ele><time>2026-05-05T10:14:15.219Z</time></trkpt><trkpt lat="52.1879733" lon="-8.2716833"><ele>80.0</ele><time>2026-05-05T10:14:16.22Z</time></trkpt><trkpt lat="52.1876883" lon="-8.2716833"><ele>80.0</ele><time>2026-05-05T10:14:17.22Z</time></trkpt><trkpt lat="52.187415" lon="-8.2716833"><ele>80.0</ele><time>2026-05-05T10:14:18.219Z</time></trkpt><trkpt lat="52.1871367" lon="-8.2716783"><ele>78.0</ele><time>2026-05-05T10:14:19.22Z</time></trkpt><trkpt lat="52.1868517" lon="-8.2716733"><ele>76.0</ele><time>2026-05-05T10:14:20.22Z</time></trkpt><trkpt lat="52.1865617" lon="-8.2716633"><ele>74.0</ele><time>2026-05-05T10:14:21.22Z</time></trkpt><trkpt lat="52.1862783" lon="-8.2716733"><ele>72.0</ele><time>2026-05-05T10:14:22.219Z</time></trkpt><trkpt lat="52.1859933" lon="-8.27167"><ele>72.0</ele><time>2026-05-05T10:14:23.22Z</time></trkpt><trkpt lat="52.18571" lon="-8.2716633"><ele>72.0</ele><time>2026-05-05T10:14:24.22Z</time></trkpt><trkpt lat="52.1854217" lon="-8.2716467"><ele>71.0</ele><time>2026-05-05T10:14:25.22Z</time></trkpt><trkpt lat="52.1851267" lon="-8.2716233"><ele>70.0</ele><time>2026-05-05T10:14:26.219Z</time></trkpt><trkpt lat="52.184835" lon="-8.2716183"><ele>69.0</ele><time>2026-05-05T10:14:27.22Z</time></trkpt><trkpt lat="52.1845483" lon="-8.2716233"><ele>68.0</ele><time>2026-05-05T10:14:28.22Z</time></trkpt><trkpt lat="52.18426" lon="-8.2716367"><ele>66.0</ele><time>2026-05-05T10:14:29.22Z</time></trkpt><trkpt lat="52.1839733" lon="-8.2716633"><ele>64.0</ele><time>2026-05-05T10:14:30.22Z</time></trkpt><trkpt lat="52.18368" lon="-8.2716633"><ele>64.0</ele><time>2026-05-05T10:14:31.219Z</time></trkpt><trkpt lat="52.1833833" lon="-8.271655"><ele>64.0</ele><time>2026-05-05T10:14:32.22Z</time></trkpt><trkpt lat="52.1830967" lon="-8.2716533"><ele>61.5</ele><time>2026-05-05T10:14:33.22Z</time></trkpt><trkpt lat="52.1828133" lon="-8.2716667"><ele>59.0</ele><time>2026-05-05T10:14:34.22Z</time></trkpt><trkpt lat="52.1825167" lon="-8.27168"><ele>57.0</ele><time>2026-05-05T10:14:35.22Z</time></trkpt><trkpt lat="52.1822233" lon="-8.2716783"><ele>55.0</ele><time>2026-05-05T10:14:36.22Z</time></trkpt><trkpt lat="52.1819317" lon="-8.2716767"><ele>55.0</ele><time>2026-05-05T10:14:37.22Z</time></trkpt><trkpt lat="52.1816283" lon="-8.2716817"><ele>55.0</ele><time>2026-05-05T10:14:38.219Z</time></trkpt><trkpt lat="52.1813167" lon="-8.271665"><ele>50.0</ele><time>2026-05-05T10:14:39.22Z</time></trkpt><trkpt lat="52.1810133" lon="-8.2716517"><ele>45.0</ele><time>2026-05-05T10:14:40.22Z</time></trkpt><trkpt lat="52.1807217" lon="-8.2716583"><ele>45.5</ele><time>2026-05-05T10:14:41.22Z</time></trkpt><trkpt lat="52.1804317" lon="-8.2716533"><ele>46.0</ele><time>2026-05-05T10:14:42.22Z</time></trkpt><trkpt lat="52.1801383" lon="-8.2716483"><ele>46.0</ele><time>2026-05-05T10:14:43.22Z</time></trkpt><trkpt lat="52.1798517" lon="-8.2716567"><ele>46.0</ele><time>2026-05-05T10:14:44.22Z</time></trkpt><trkpt lat="52.17957" lon="-8.2716683"><ele>50.0</ele><time>2026-05-05T10:14:45.22Z</time></trkpt><trkpt lat="52.1792883" lon="-8.27167"><ele>54.0</ele><time>2026-05-05T10:14:46.219Z</time></trkpt><trkpt lat="52.179005" lon="-8.2716883"><ele>54.5</ele><time>2026-05-05T10:14:47.22Z</time></trkpt><trkpt lat="52.178705" lon="-8.2716967"><ele>55.0</ele><time>2026-05-05T10:14:48.22Z</time></trkpt><trkpt lat="52.17841" lon="-8.271695"><ele>54.0</ele><time>2026-05-05T10:14:49.219Z</time></trkpt><trkpt lat="52.1781117" lon="-8.2716783"><ele>53.0</ele><time>2026-05-05T10:14:50.219Z</time></trkpt><trkpt lat="52.1778167" lon="-8.271655"><ele>53.0</ele><time>2026-05-05T10:14:51.22Z</time></trkpt><trkpt lat="52.1775217" lon="-8.2716283"><ele>53.0</ele><time>2026-05-05T10:14:52.22Z</time></trkpt><trkpt lat="52.1772183" lon="-8.271585"><ele>54.0</ele><time>2026-05-05T10:14:53.219Z</time></trkpt><trkpt lat="52.1769117" lon="-8.2715383"><ele>55.0</ele><time>2026-05-05T10:14:54.22Z</time></trkpt><trkpt lat="52.1766067" lon="-8.2714967"><ele>55.5</ele><time>2026-05-05T10:14:55.22Z</time></trkpt><trkpt lat="52.1763017" lon="-8.2714433"><ele>56.0</ele><time>2026-05-05T10:14:56.219Z</time></trkpt><trkpt lat="52.1760017" lon="-8.2713917"><ele>56.0</ele><time>2026-05-05T10:14:57.22Z</time></trkpt><trkpt lat="52.17571" lon="-8.2713333"><ele>56.0</ele><time>2026-05-05T10:14:58.22Z</time></trkpt><trkpt lat="52.1754083" lon="-8.27128"><ele>54.5</ele><time>2026-05-05T10:14:59.22Z</time></trkpt><trkpt lat="52.175115" lon="-8.2712017"><ele>53.0</ele><time>2026-05-05T10:15:00.219Z</time></trkpt><trkpt lat="52.174835" lon="-8.2711233"><ele>49.5</ele><time>2026-05-05T10:15:01.219Z</time></trkpt><trkpt lat="52.1745583" lon="-8.2710283"><ele>46.0</ele><time>2026-05-05T10:15:02.22Z</time></trkpt><trkpt lat="52.174305" lon="-8.27093"><ele>46.0</ele><time>2026-05-05T10:15:03.22Z</time></trkpt><trkpt lat="52.17404" lon="-8.2708583"><ele>46.0</ele><time>2026-05-05T10:15:04.219Z</time></trkpt><trkpt lat="52.1737683" lon="-8.2707817"><ele>46.0</ele><time>2026-05-05T10:15:05.22Z</time></trkpt><trkpt lat="52.1734933" lon="-8.2706967"><ele>46.0</ele><time>2026-05-05T10:15:06.22Z</time></trkpt><trkpt lat="52.173215" lon="-8.2705883"><ele>44.0</ele><time>2026-05-05T10:15:07.22Z</time></trkpt><trkpt lat="52.172925" lon="-8.2704783"><ele>42.0</ele><time>2026-05-05T10:15:08.22Z</time></trkpt><trkpt lat="52.1726333" lon="-8.2703633"><ele>38.5</ele><time>2026-05-05T10:15:09.22Z</time></trkpt><trkpt lat="52.1723383" lon="-8.27023"><ele>35.0</ele><time>2026-05-05T10:15:10.22Z</time></trkpt><trkpt lat="52.1720383" lon="-8.2700967"><ele>35.0</ele><time>2026-05-05T10:15:11.219Z</time></trkpt><trkpt lat="52.1717633" lon="-8.2699783"><ele>35.0</ele><time>2026-05-05T10:15:12.219Z</time></trkpt><trkpt lat="52.171465" lon="-8.2698417"><ele>33.5</ele><time>2026-05-05T10:15:13.219Z</time></trkpt><trkpt lat="52.17117" lon="-8.269675"><ele>32.0</ele><time>2026-05-05T10:15:14.22Z</time></trkpt><trkpt lat="52.1708733" lon="-8.2695533"><ele>29.0</ele><time>2026-05-05T10:15:15.219Z</time></trkpt><trkpt lat="52.170615" lon="-8.2694"><ele>26.0</ele><time>2026-05-05T10:15:16.219Z</time></trkpt><trkpt lat="52.1703417" lon="-8.26926"><ele>26.0</ele><time>2026-05-05T10:15:17.22Z</time></trkpt><trkpt lat="52.170055" lon="-8.269125"><ele>26.0</ele><time>2026-05-05T10:15:18.22Z</time></trkpt><trkpt lat="52.1697783" lon="-8.268985"><ele>26.5</ele><time>2026-05-05T10:15:19.219Z</time></trkpt><trkpt lat="52.1695167" lon="-8.2688467"><ele>27.0</ele><time>2026-05-05T10:15:20.22Z</time></trkpt><trkpt lat="52.169265" lon="-8.2687033"><ele>31.5</ele><time>2026-05-05T10:15:21.22Z</time></trkpt><trkpt lat="52.1690217" lon="-8.268575"><ele>36.0</ele><time>2026-05-05T10:15:22.22Z</time></trkpt><trkpt lat="52.1687717" lon="-8.2684533"><ele>36.0</ele><time>2026-05-05T10:15:23.22Z</time></trkpt><trkpt lat="52.16853" lon="-8.26833"><ele>36.0</ele><time>2026-05-05T10:15:24.219Z</time></trkpt><trkpt lat="52.1682833" lon="-8.2681967"><ele>37.5</ele><time>2026-05-05T10:15:25.22Z</time></trkpt><trkpt lat="52.1680283" lon="-8.2680667"><ele>39.0</ele><time>2026-05-05T10:15:26.219Z</time></trkpt><trkpt lat="52.16777" lon="-8.267935"><ele>39.0</ele><time>2026-05-05T10:15:27.22Z</time></trkpt><trkpt lat="52.16751" lon="-8.2678033"><ele>39.0</ele><time>2026-05-05T10:15:28.22Z</time></trkpt><trkpt lat="52.167245" lon="-8.26767"><ele>41.5</ele><time>2026-05-05T10:15:29.219Z</time></trkpt><trkpt lat="52.1669733" lon="-8.2675317"><ele>44.0</ele><time>2026-05-05T10:15:30.219Z</time></trkpt><trkpt lat="52.1666983" lon="-8.2673883"><ele>45.0</ele><time>2026-05-05T10:15:31.219Z</time></trkpt><trkpt lat="52.1664117" lon="-8.2672483"><ele>46.0</ele><time>2026-05-05T10:15:32.22Z</time></trkpt><trkpt lat="52.16612" lon="-8.267115"><ele>46.0</ele><time>2026-05-05T10:15:33.22Z</time></trkpt><trkpt lat="52.165825" lon="-8.2669817"><ele>46.0</ele><time>2026-05-05T10:15:34.219Z</time></trkpt><trkpt lat="52.165525" lon="-8.2668567"><ele>46.0</ele><time>2026-05-05T10:15:35.22Z</time></trkpt><trkpt lat="52.1652217" lon="-8.2667383"><ele>46.0</ele><time>2026-05-05T10:15:36.22Z</time></trkpt><trkpt lat="52.16491" lon="-8.2666333"><ele>47.5</ele><time>2026-05-05T10:15:37.22Z</time></trkpt><trkpt lat="52.1646033" lon="-8.2665317"><ele>49.0</ele><time>2026-05-05T10:15:38.22Z</time></trkpt><trkpt lat="52.1642983" lon="-8.2664333"><ele>51.0</ele><time>2026-05-05T10:15:39.219Z</time></trkpt><trkpt lat="52.163995" lon="-8.2663583"><ele>53.0</ele><time>2026-05-05T10:15:40.219Z</time></trkpt><trkpt lat="52.1636967" lon="-8.26629"><ele>53.0</ele><time>2026-05-05T10:15:41.22Z</time></trkpt><trkpt lat="52.163395" lon="-8.2661983"><ele>53.0</ele><time>2026-05-05T10:15:42.22Z</time></trkpt><trkpt lat="52.1631017" lon="-8.266125"><ele>53.5</ele><time>2026-05-05T10:15:43.22Z</time></trkpt><trkpt lat="52.1628133" lon="-8.266055"><ele>54.0</ele><time>2026-05-05T10:15:44.219Z</time></trkpt><trkpt lat="52.1625183" lon="-8.2659983"><ele>54.0</ele><time>2026-05-05T10:15:45.219Z</time></trkpt><trkpt lat="52.1622217" lon="-8.2659417"><ele>54.0</ele><time>2026-05-05T10:15:46.22Z</time></trkpt><trkpt lat="52.1619283" lon="-8.26588"><ele>54.0</ele><time>2026-05-05T10:15:47.219Z</time></trkpt><trkpt lat="52.1616283" lon="-8.265825"><ele>54.0</ele><time>2026-05-05T10:15:48.22Z</time></trkpt><trkpt lat="52.1613267" lon="-8.265785"><ele>53.5</ele><time>2026-05-05T10:15:49.219Z</time></trkpt><trkpt lat="52.1610233" lon="-8.2657317"><ele>53.0</ele><time>2026-05-05T10:15:50.22Z</time></trkpt><trkpt lat="52.1607217" lon="-8.265675"><ele>53.5</ele><time>2026-05-05T10:15:51.22Z</time></trkpt><trkpt lat="52.16042" lon="-8.2656267"><ele>54.0</ele><time>2026-05-05T10:15:52.219Z</time></trkpt><trkpt lat="52.1601267" lon="-8.2655883"><ele>54.0</ele><time>2026-05-05T10:15:53.219Z</time></trkpt><trkpt lat="52.159845" lon="-8.265565"><ele>54.0</ele><time>2026-05-05T10:15:54.22Z</time></trkpt><trkpt lat="52.159565" lon="-8.2655567"><ele>54.0</ele><time>2026-05-05T10:15:55.219Z</time></trkpt><trkpt lat="52.1592817" lon="-8.2655467"><ele>54.0</ele><time>2026-05-05T10:15:56.22Z</time></trkpt><trkpt lat="52.158995" lon="-8.265545"><ele>53.0</ele><time>2026-05-05T10:15:57.219Z</time></trkpt><trkpt lat="52.1587067" lon="-8.2655517"><ele>52.0</ele><time>2026-05-05T10:15:58.22Z</time></trkpt><trkpt lat="52.1584267" lon="-8.2655583"><ele>52.0</ele><time>2026-05-05T10:15:59.22Z</time></trkpt><trkpt lat="52.1581683" lon="-8.2655717"><ele>52.0</ele><time>2026-05-05T10:16:00.22Z</time></trkpt><trkpt lat="52.157925" lon="-8.265595"><ele>52.5</ele><time>2026-05-05T10:16:01.22Z</time></trkpt><trkpt lat="52.157675" lon="-8.265625"><ele>53.0</ele><time>2026-05-05T10:16:02.22Z</time></trkpt><trkpt lat="52.1574133" lon="-8.2656633"><ele>52.0</ele><time>2026-05-05T10:16:03.22Z</time></trkpt><trkpt lat="52.157145" lon="-8.2656917"><ele>51.0</ele><time>2026-05-05T10:16:04.219Z</time></trkpt><trkpt lat="52.1568817" lon="-8.2657383"><ele>51.0</ele><time>2026-05-05T10:16:05.22Z</time></trkpt><trkpt lat="52.156615" lon="-8.2657917"><ele>51.0</ele><time>2026-05-05T10:16:06.219Z</time></trkpt><trkpt lat="52.15634" lon="-8.2658467"><ele>51.0</ele><time>2026-05-05T10:16:07.22Z</time></trkpt><trkpt lat="52.156065" lon="-8.2659067"><ele>51.0</ele><time>2026-05-05T10:16:08.22Z</time></trkpt><trkpt lat="52.1557867" lon="-8.26595"><ele>50.0</ele><time>2026-05-05T10:16:09.219Z</time></trkpt><trkpt lat="52.1555067" lon="-8.266005"><ele>49.0</ele><time>2026-05-05T10:16:10.22Z</time></trkpt><trkpt lat="52.1552133" lon="-8.2660483"><ele>49.0</ele><time>2026-05-05T10:16:11.219Z</time></trkpt><trkpt lat="52.1549183" lon="-8.266095"><ele>49.0</ele><time>2026-05-05T10:16:12.22Z</time></trkpt><trkpt lat="52.1546233" lon="-8.2661417"><ele>49.0</ele><time>2026-05-05T10:16:13.22Z</time></trkpt><trkpt lat="52.1543317" lon="-8.2661817"><ele>49.0</ele><time>2026-05-05T10:16:14.22Z</time></trkpt><trkpt lat="52.1540367" lon="-8.2662167"><ele>49.0</ele><time>2026-05-05T10:16:15.219Z</time></trkpt><trkpt lat="52.15373" lon="-8.26625"><ele>49.0</ele><time>2026-05-05T10:16:16.22Z</time></trkpt><trkpt lat="52.1534383" lon="-8.2662817"><ele>48.0</ele><time>2026-05-05T10:16:17.22Z</time></trkpt><trkpt lat="52.153145" lon="-8.2662967"><ele>47.0</ele><time>2026-05-05T10:16:18.22Z</time></trkpt><trkpt lat="52.152865" lon="-8.266315"><ele>47.0</ele><time>2026-05-05T10:16:19.22Z</time></trkpt><trkpt lat="52.15258" lon="-8.2663267"><ele>47.0</ele><time>2026-05-05T10:16:20.22Z</time></trkpt><trkpt lat="52.1522983" lon="-8.26633"><ele>45.0</ele><time>2026-05-05T10:16:21.219Z</time></trkpt><trkpt lat="52.1520017" lon="-8.266305"><ele>43.0</ele><time>2026-05-05T10:16:22.22Z</time></trkpt><trkpt lat="52.1517067" lon="-8.2662917"><ele>44.0</ele><time>2026-05-05T10:16:23.219Z</time></trkpt><trkpt lat="52.1514083" lon="-8.266275"><ele>45.0</ele><time>2026-05-05T10:16:24.22Z</time></trkpt><trkpt lat="52.1511133" lon="-8.26626"><ele>45.0</ele><time>2026-05-05T10:16:25.219Z</time></trkpt><trkpt lat="52.1508233" lon="-8.2662467"><ele>45.0</ele><time>2026-05-05T10:16:26.219Z</time></trkpt><trkpt lat="52.1505317" lon="-8.2662233"><ele>45.5</ele><time>2026-05-05T10:16:27.22Z</time></trkpt><trkpt lat="52.1502433" lon="-8.2661783"><ele>46.0</ele><time>2026-05-05T10:16:28.22Z</time></trkpt><trkpt lat="52.1499433" lon="-8.2661333"><ele>47.5</ele><time>2026-05-05T10:16:29.22Z</time></trkpt><trkpt lat="52.14965" lon="-8.266085"><ele>49.0</ele><time>2026-05-05T10:16:30.219Z</time></trkpt><trkpt lat="52.14936" lon="-8.2660333"><ele>49.0</ele><time>2026-05-05T10:16:31.219Z</time></trkpt><trkpt lat="52.1490733" lon="-8.2659833"><ele>49.0</ele><time>2026-05-05T10:16:32.219Z</time></trkpt><trkpt lat="52.14878" lon="-8.2659317"><ele>49.5</ele><time>2026-05-05T10:16:33.219Z</time></trkpt><trkpt lat="52.1484967" lon="-8.2658667"><ele>50.0</ele><time>2026-05-05T10:16:34.219Z</time></trkpt><trkpt lat="52.1482017" lon="-8.265805"><ele>51.0</ele><time>2026-05-05T10:16:35.219Z</time></trkpt><trkpt lat="52.1479083" lon="-8.2657217"><ele>52.0</ele><time>2026-05-05T10:16:36.219Z</time></trkpt><trkpt lat="52.1476117" lon="-8.2656467"><ele>52.0</ele><time>2026-05-05T10:16:37.22Z</time></trkpt><trkpt lat="52.1473133" lon="-8.26556"><ele>52.0</ele><time>2026-05-05T10:16:38.22Z</time></trkpt><trkpt lat="52.1470167" lon="-8.2654733"><ele>52.0</ele><time>2026-05-05T10:16:39.22Z</time></trkpt><trkpt lat="52.146725" lon="-8.2653767"><ele>52.0</ele><time>2026-05-05T10:16:40.219Z</time></trkpt><trkpt lat="52.1464317" lon="-8.2652767"><ele>52.5</ele><time>2026-05-05T10:16:41.22Z</time></trkpt><trkpt lat="52.1461433" lon="-8.2651717"><ele>53.0</ele><time>2026-05-05T10:16:42.219Z</time></trkpt><trkpt lat="52.145855" lon="-8.2650567"><ele>54.5</ele><time>2026-05-05T10:16:43.22Z</time></trkpt><trkpt lat="52.145565" lon="-8.2649417"><ele>56.0</ele><time>2026-05-05T10:16:44.22Z</time></trkpt><trkpt lat="52.1452717" lon="-8.2648117"><ele>56.0</ele><time>2026-05-05T10:16:45.22Z</time></trkpt><trkpt lat="52.144985" lon="-8.264685"><ele>56.0</ele><time>2026-05-05T10:16:46.22Z</time></trkpt><trkpt lat="52.1446967" lon="-8.2645467"><ele>54.5</ele><time>2026-05-05T10:16:47.22Z</time></trkpt><trkpt lat="52.1444033" lon="-8.2643983"><ele>53.0</ele><time>2026-05-05T10:16:48.22Z</time></trkpt><trkpt lat="52.1441117" lon="-8.26425"><ele>51.0</ele><time>2026-05-05T10:16:49.22Z</time></trkpt><trkpt lat="52.1438133" lon="-8.2641017"><ele>49.0</ele><time>2026-05-05T10:16:50.22Z</time></trkpt><trkpt lat="52.143515" lon="-8.2639517"><ele>44.0</ele><time>2026-05-05T10:16:51.22Z</time></trkpt><trkpt lat="52.14321" lon="-8.263805"><ele>39.0</ele><time>2026-05-05T10:16:52.219Z</time></trkpt><trkpt lat="52.1429117" lon="-8.2636733"><ele>39.0</ele><time>2026-05-05T10:16:53.22Z</time></trkpt><trkpt lat="52.1426217" lon="-8.2635333"><ele>39.0</ele><time>2026-05-05T10:16:54.22Z</time></trkpt><trkpt lat="52.1423433" lon="-8.2633983"><ele>33.0</ele><time>2026-05-05T10:16:55.22Z</time></trkpt><trkpt lat="52.14206" lon="-8.2632617"><ele>27.0</ele><time>2026-05-05T10:16:56.22Z</time></trkpt><trkpt lat="52.1417983" lon="-8.2630983"><ele>25.0</ele><time>2026-05-05T10:16:57.22Z</time></trkpt><trkpt lat="52.1415267" lon="-8.2629717"><ele>23.0</ele><time>2026-05-05T10:16:58.219Z</time></trkpt><trkpt lat="52.14126" lon="-8.26284"><ele>23.0</ele><time>2026-05-05T10:16:59.219Z</time></trkpt><trkpt lat="52.140995" lon="-8.2627083"><ele>23.0</ele><time>2026-05-05T10:17:00.219Z</time></trkpt><trkpt lat="52.14073" lon="-8.262565"><ele>22.0</ele><time>2026-05-05T10:17:01.22Z</time></trkpt><trkpt lat="52.1404467" lon="-8.2624383"><ele>21.0</ele><time>2026-05-05T10:17:02.22Z</time></trkpt><trkpt lat="52.140175" lon="-8.2623167"><ele>21.5</ele><time>2026-05-05T10:17:03.22Z</time></trkpt><trkpt lat="52.1399" lon="-8.2621767"><ele>22.0</ele><time>2026-05-05T10:17:04.22Z</time></trkpt><trkpt lat="52.139625" lon="-8.262035"><ele>23.0</ele><time>2026-05-05T10:17:05.219Z</time></trkpt><trkpt lat="52.13935" lon="-8.2618833"><ele>24.0</ele><time>2026-05-05T10:17:06.219Z</time></trkpt><trkpt lat="52.1390783" lon="-8.2617433"><ele>26.0</ele><time>2026-05-05T10:17:07.22Z</time></trkpt><trkpt lat="52.1388083" lon="-8.2616117"><ele>28.0</ele><time>2026-05-05T10:17:08.219Z</time></trkpt><trkpt lat="52.1385367" lon="-8.26148"><ele>28.5</ele><time>2026-05-05T10:17:09.22Z</time></trkpt><trkpt lat="52.13827" lon="-8.2613633"><ele>29.0</ele><time>2026-05-05T10:17:10.22Z</time></trkpt><trkpt lat="52.138" lon="-8.2612383"><ele>32.0</ele><time>2026-05-05T10:17:11.22Z</time></trkpt><trkpt lat="52.1377283" lon="-8.26111"><ele>35.0</ele><time>2026-05-05T10:17:12.219Z</time></trkpt><trkpt lat="52.137455" lon="-8.2609683"><ele>43.0</ele><time>2026-05-05T10:17:13.22Z</time></trkpt><trkpt lat="52.1371717" lon="-8.2608333"><ele>51.0</ele><time>2026-05-05T10:17:14.22Z</time></trkpt><trkpt lat="52.136885" lon="-8.2606867"><ele>51.0</ele><time>2026-05-05T10:17:15.219Z</time></trkpt><trkpt lat="52.136595" lon="-8.2605333"><ele>51.0</ele><time>2026-05-05T10:17:16.219Z</time></trkpt><trkpt lat="52.136305" lon="-8.260385"><ele>51.0</ele><time>2026-05-05T10:17:17.219Z</time></trkpt><trkpt lat="52.1360217" lon="-8.2602617"><ele>51.0</ele><time>2026-05-05T10:17:18.22Z</time></trkpt><trkpt lat="52.1357283" lon="-8.26013"><ele>55.5</ele><time>2026-05-05T10:17:19.219Z</time></trkpt><trkpt lat="52.1354383" lon="-8.2600233"><ele>60.0</ele><time>2026-05-05T10:17:20.22Z</time></trkpt><trkpt lat="52.1351517" lon="-8.2599233"><ele>60.5</ele><time>2026-05-05T10:17:21.219Z</time></trkpt><trkpt lat="52.1348683" lon="-8.259835"><ele>61.0</ele><time>2026-05-05T10:17:22.22Z</time></trkpt><trkpt lat="52.1345833" lon="-8.2597617"><ele>61.0</ele><time>2026-05-05T10:17:23.219Z</time></trkpt><trkpt lat="52.134305" lon="-8.259695"><ele>61.0</ele><time>2026-05-05T10:17:24.219Z</time></trkpt><trkpt lat="52.1340183" lon="-8.259635"><ele>61.0</ele><time>2026-05-05T10:17:25.22Z</time></trkpt><trkpt lat="52.133725" lon="-8.259585"><ele>61.0</ele><time>2026-05-05T10:17:26.219Z</time></trkpt><trkpt lat="52.1334367" lon="-8.25954"><ele>64.0</ele><time>2026-05-05T10:17:27.22Z</time></trkpt><trkpt lat="52.1331467" lon="-8.2594983"><ele>67.0</ele><time>2026-05-05T10:17:28.219Z</time></trkpt><trkpt lat="52.13286" lon="-8.2594683"><ele>67.0</ele><time>2026-05-05T10:17:29.219Z</time></trkpt><trkpt lat="52.132575" lon="-8.2594517"><ele>67.0</ele><time>2026-05-05T10:17:30.219Z</time></trkpt><trkpt lat="52.132275" lon="-8.2594667"><ele>67.0</ele><time>2026-05-05T10:17:31.219Z</time></trkpt><trkpt lat="52.1319817" lon="-8.259495"><ele>67.0</ele><time>2026-05-05T10:17:32.219Z</time></trkpt><trkpt lat="52.13169" lon="-8.2595117"><ele>64.5</ele><time>2026-05-05T10:17:33.22Z</time></trkpt><trkpt lat="52.13141" lon="-8.2595433"><ele>62.0</ele><time>2026-05-05T10:17:34.219Z</time></trkpt><trkpt lat="52.131135" lon="-8.2595817"><ele>62.0</ele><time>2026-05-05T10:17:35.219Z</time></trkpt><trkpt lat="52.1308567" lon="-8.2596233"><ele>62.0</ele><time>2026-05-05T10:17:36.22Z</time></trkpt><trkpt lat="52.1306" lon="-8.2597017"><ele>61.5</ele><time>2026-05-05T10:17:37.219Z</time></trkpt><trkpt lat="52.130325" lon="-8.2597617"><ele>61.0</ele><time>2026-05-05T10:17:38.219Z</time></trkpt><trkpt lat="52.1300517" lon="-8.2598217"><ele>62.0</ele><time>2026-05-05T10:17:39.219Z</time></trkpt><trkpt lat="52.1297633" lon="-8.2598933"><ele>63.0</ele><time>2026-05-05T10:17:40.22Z</time></trkpt><trkpt lat="52.12948" lon="-8.2599683"><ele>63.0</ele><time>2026-05-05T10:17:41.219Z</time></trkpt><trkpt lat="52.129185" lon="-8.2600367"><ele>63.0</ele><time>2026-05-05T10:17:42.219Z</time></trkpt><trkpt lat="52.12891" lon="-8.260145"><ele>64.0</ele><time>2026-05-05T10:17:43.219Z</time></trkpt><trkpt lat="52.1286367" lon="-8.2602717"><ele>65.0</ele><time>2026-05-05T10:17:44.22Z</time></trkpt><trkpt lat="52.128365" lon="-8.2604033"><ele>67.0</ele><time>2026-05-05T10:17:45.22Z</time></trkpt><trkpt lat="52.1281" lon="-8.2605567"><ele>69.0</ele><time>2026-05-05T10:17:46.219Z</time></trkpt><trkpt lat="52.1278433" lon="-8.2607233"><ele>70.0</ele><time>2026-05-05T10:17:47.22Z</time></trkpt><trkpt lat="52.1275717" lon="-8.260885"><ele>71.0</ele><time>2026-05-05T10:17:48.22Z</time></trkpt><trkpt lat="52.1273117" lon="-8.2610633"><ele>73.5</ele><time>2026-05-05T10:17:49.219Z</time></trkpt><trkpt lat="52.1270467" lon="-8.26125"><ele>76.0</ele><time>2026-05-05T10:17:50.219Z</time></trkpt><trkpt lat="52.1267933" lon="-8.2614433"><ele>80.0</ele><time>2026-05-05T10:17:51.22Z</time></trkpt><trkpt lat="52.1265467" lon="-8.2616183"><ele>84.0</ele><time>2026-05-05T10:17:52.22Z</time></trkpt><trkpt lat="52.1263033" lon="-8.2618233"><ele>84.0</ele><time>2026-05-05T10:17:53.22Z</time></trkpt><trkpt lat="52.12606" lon="-8.2620233"><ele>84.0</ele><time>2026-05-05T10:17:54.219Z</time></trkpt><trkpt lat="52.1258183" lon="-8.2622467"><ele>87.5</ele><time>2026-05-05T10:17:55.22Z</time></trkpt><trkpt lat="52.12559" lon="-8.26248"><ele>91.0</ele><time>2026-05-05T10:17:56.219Z</time></trkpt><trkpt lat="52.1253617" lon="-8.2627017"><ele>91.0</ele><time>2026-05-05T10:17:57.22Z</time></trkpt><trkpt lat="52.12513" lon="-8.2629267"><ele>91.0</ele><time>2026-05-05T10:17:58.22Z</time></trkpt><trkpt lat="52.1248983" lon="-8.2631633"><ele>92.5</ele><time>2026-05-05T10:17:59.22Z</time></trkpt><trkpt lat="52.12466" lon="-8.2634217"><ele>94.0</ele><time>2026-05-05T10:18:00.22Z</time></trkpt><trkpt lat="52.1244283" lon="-8.2636783"><ele>94.0</ele><time>2026-05-05T10:18:01.22Z</time></trkpt><trkpt lat="52.1241983" lon="-8.2639533"><ele>94.0</ele><time>2026-05-05T10:18:02.22Z</time></trkpt><trkpt lat="52.1239667" lon="-8.26424"><ele>94.0</ele><time>2026-05-05T10:18:03.22Z</time></trkpt><trkpt lat="52.1237433" lon="-8.2645383"><ele>94.0</ele><time>2026-05-05T10:18:04.219Z</time></trkpt><trkpt lat="52.123535" lon="-8.2648467"><ele>92.5</ele><time>2026-05-05T10:18:05.22Z</time></trkpt><trkpt lat="52.1233233" lon="-8.2651517"><ele>91.0</ele><time>2026-05-05T10:18:06.22Z</time></trkpt><trkpt lat="52.12311" lon="-8.2654683"><ele>88.0</ele><time>2026-05-05T10:18:07.22Z</time></trkpt><trkpt lat="52.1228983" lon="-8.2658017"><ele>85.0</ele><time>2026-05-05T10:18:08.22Z</time></trkpt><trkpt lat="52.1226783" lon="-8.26613"><ele>85.5</ele><time>2026-05-05T10:18:09.219Z</time></trkpt><trkpt lat="52.1224567" lon="-8.2664517"><ele>86.0</ele><time>2026-05-05T10:18:10.219Z</time></trkpt><trkpt lat="52.12224" lon="-8.2667717"><ele>86.0</ele><time>2026-05-05T10:18:11.219Z</time></trkpt><trkpt lat="52.12203" lon="-8.2670817"><ele>86.0</ele><time>2026-05-05T10:18:12.219Z</time></trkpt><trkpt lat="52.12182" lon="-8.26738"><ele>85.5</ele><time>2026-05-05T10:18:13.22Z</time></trkpt><trkpt lat="52.12161" lon="-8.2676733"><ele>85.0</ele><time>2026-05-05T10:18:14.22Z</time></trkpt><trkpt lat="52.1214083" lon="-8.2679817"><ele>86.0</ele><time>2026-05-05T10:18:15.22Z</time></trkpt><trkpt lat="52.1212083" lon="-8.2682817"><ele>87.0</ele><time>2026-05-05T10:18:16.22Z</time></trkpt><trkpt lat="52.121" lon="-8.26856"><ele>87.0</ele><time>2026-05-05T10:18:17.22Z</time></trkpt><trkpt lat="52.120785" lon="-8.2688233"><ele>87.0</ele><time>2026-05-05T10:18:18.22Z</time></trkpt><trkpt lat="52.1205683" lon="-8.2691033"><ele>86.5</ele><time>2026-05-05T10:18:19.22Z</time></trkpt><trkpt lat="52.12034" lon="-8.26938"><ele>86.0</ele><time>2026-05-05T10:18:20.22Z</time></trkpt><trkpt lat="52.120105" lon="-8.26966"><ele>86.0</ele><time>2026-05-05T10:18:21.22Z</time></trkpt><trkpt lat="52.11986" lon="-8.2699167"><ele>86.0</ele><time>2026-05-05T10:18:22.22Z</time></trkpt><trkpt lat="52.119615" lon="-8.2701967"><ele>86.0</ele><time>2026-05-05T10:18:23.22Z</time></trkpt><trkpt lat="52.1193717" lon="-8.2704783"><ele>86.0</ele><time>2026-05-05T10:18:24.22Z</time></trkpt><trkpt lat="52.1191117" lon="-8.2707267"><ele>80.5</ele><time>2026-05-05T10:18:25.22Z</time></trkpt><trkpt lat="52.1188367" lon="-8.27095"><ele>75.0</ele><time>2026-05-05T10:18:26.219Z</time></trkpt><trkpt lat="52.118555" lon="-8.2711783"><ele>75.0</ele><time>2026-05-05T10:18:27.22Z</time></trkpt><trkpt lat="52.1182733" lon="-8.27139"><ele>75.0</ele><time>2026-05-05T10:18:28.22Z</time></trkpt><trkpt lat="52.1179783" lon="-8.2715767"><ele>65.5</ele><time>2026-05-05T10:18:29.22Z</time></trkpt><trkpt lat="52.1176817" lon="-8.271745"><ele>56.0</ele><time>2026-05-05T10:18:30.219Z</time></trkpt><trkpt lat="52.1173933" lon="-8.2718983"><ele>54.0</ele><time>2026-05-05T10:18:31.22Z</time></trkpt><trkpt lat="52.1170933" lon="-8.27204"><ele>52.0</ele><time>2026-05-05T10:18:32.22Z</time></trkpt><trkpt lat="52.1167733" lon="-8.2721433"><ele>50.0</ele><time>2026-05-05T10:18:33.219Z</time></trkpt><trkpt lat="52.1164767" lon="-8.2722817"><ele>48.0</ele><time>2026-05-05T10:18:34.22Z</time></trkpt><trkpt lat="52.116185" lon="-8.2723883"><ele>48.0</ele><time>2026-05-05T10:18:35.22Z</time></trkpt><trkpt lat="52.11588" lon="-8.272485"><ele>48.0</ele><time>2026-05-05T10:18:36.22Z</time></trkpt><trkpt lat="52.1155817" lon="-8.2725883"><ele>48.5</ele><time>2026-05-05T10:18:37.219Z</time></trkpt><trkpt lat="52.115265" lon="-8.2726783"><ele>49.0</ele><time>2026-05-05T10:18:38.22Z</time></trkpt><trkpt lat="52.11495" lon="-8.27275"><ele>48.5</ele><time>2026-05-05T10:18:39.219Z</time></trkpt><trkpt lat="52.1146283" lon="-8.2727917"><ele>48.0</ele><time>2026-05-05T10:18:40.22Z</time></trkpt><trkpt lat="52.1143333" lon="-8.272875"><ele>48.0</ele><time>2026-05-05T10:18:41.22Z</time></trkpt><trkpt lat="52.1140333" lon="-8.2729483"><ele>48.0</ele><time>2026-05-05T10:18:42.22Z</time></trkpt><trkpt lat="52.1137383" lon="-8.27302"><ele>48.0</ele><time>2026-05-05T10:18:43.22Z</time></trkpt><trkpt lat="52.1134483" lon="-8.2730783"><ele>48.0</ele><time>2026-05-05T10:18:44.22Z</time></trkpt><trkpt lat="52.1131617" lon="-8.2731667"><ele>52.0</ele><time>2026-05-05T10:18:45.22Z</time></trkpt><trkpt lat="52.1128667" lon="-8.273225"><ele>56.0</ele><time>2026-05-05T10:18:46.22Z</time></trkpt><trkpt lat="52.11258" lon="-8.2732867"><ele>59.0</ele><time>2026-05-05T10:18:47.22Z</time></trkpt><trkpt lat="52.1122917" lon="-8.273345"><ele>62.0</ele><time>2026-05-05T10:18:48.22Z</time></trkpt><trkpt lat="52.111995" lon="-8.2734067"><ele>62.0</ele><time>2026-05-05T10:18:49.219Z</time></trkpt><trkpt lat="52.1117033" lon="-8.2734733"><ele>62.0</ele><time>2026-05-05T10:18:50.219Z</time></trkpt><trkpt lat="52.11142" lon="-8.27354"><ele>63.5</ele><time>2026-05-05T10:18:51.22Z</time></trkpt><trkpt lat="52.1111317" lon="-8.2736083"><ele>65.0</ele><time>2026-05-05T10:18:52.219Z</time></trkpt><trkpt lat="52.1108367" lon="-8.273685"><ele>66.0</ele><time>2026-05-05T10:18:53.219Z</time></trkpt><trkpt lat="52.11054" lon="-8.273765"><ele>67.0</ele><time>2026-05-05T10:18:54.22Z</time></trkpt><trkpt lat="52.11024" lon="-8.2738533"><ele>68.0</ele><time>2026-05-05T10:18:55.22Z</time></trkpt><trkpt lat="52.1099483" lon="-8.2739583"><ele>69.0</ele><time>2026-05-05T10:18:56.219Z</time></trkpt><trkpt lat="52.109665" lon="-8.274075"><ele>70.0</ele><time>2026-05-05T10:18:57.219Z</time></trkpt><trkpt lat="52.1093783" lon="-8.2742133"><ele>71.0</ele><time>2026-05-05T10:18:58.22Z</time></trkpt><trkpt lat="52.109105" lon="-8.2743683"><ele>70.5</ele><time>2026-05-05T10:18:59.22Z</time></trkpt><trkpt lat="52.108835" lon="-8.2745433"><ele>70.0</ele><time>2026-05-05T10:19:00.22Z</time></trkpt><trkpt lat="52.1085617" lon="-8.2747333"><ele>70.5</ele><time>2026-05-05T10:19:01.22Z</time></trkpt><trkpt lat="52.108285" lon="-8.2749433"><ele>71.0</ele><time>2026-05-05T10:19:02.219Z</time></trkpt><trkpt lat="52.1079983" lon="-8.2751767"><ele>71.0</ele><time>2026-05-05T10:19:03.22Z</time></trkpt><trkpt lat="52.107725" lon="-8.27542"><ele>71.0</ele><time>2026-05-05T10:19:04.22Z</time></trkpt><trkpt lat="52.10745" lon="-8.2756667"><ele>71.0</ele><time>2026-05-05T10:19:05.219Z</time></trkpt><trkpt lat="52.1071683" lon="-8.2759217"><ele>71.0</ele><time>2026-05-05T10:19:06.22Z</time></trkpt><trkpt lat="52.106895" lon="-8.2761867"><ele>71.5</ele><time>2026-05-05T10:19:07.22Z</time></trkpt><trkpt lat="52.106635" lon="-8.2764583"><ele>72.0</ele><time>2026-05-05T10:19:08.219Z</time></trkpt><trkpt lat="52.1063733" lon="-8.2767117"><ele>72.0</ele><time>2026-05-05T10:19:09.219Z</time></trkpt><trkpt lat="52.1061233" lon="-8.2769833"><ele>72.0</ele><time>2026-05-05T10:19:10.219Z</time></trkpt><trkpt lat="52.105855" lon="-8.2772333"><ele>73.0</ele><time>2026-05-05T10:19:11.219Z</time></trkpt><trkpt lat="52.1056033" lon="-8.277475"><ele>74.0</ele><time>2026-05-05T10:19:12.22Z</time></trkpt><trkpt lat="52.1053733" lon="-8.2777217"><ele>74.0</ele><time>2026-05-05T10:19:13.219Z</time></trkpt><trkpt lat="52.1051333" lon="-8.2779767"><ele>74.0</ele><time>2026-05-05T10:19:14.22Z</time></trkpt><trkpt lat="52.1048817" lon="-8.27823"><ele>74.5</ele><time>2026-05-05T10:19:15.22Z</time></trkpt><trkpt lat="52.1046183" lon="-8.2784867"><ele>75.0</ele><time>2026-05-05T10:19:16.22Z</time></trkpt><trkpt lat="52.1043467" lon="-8.2787417"><ele>75.5</ele><time>2026-05-05T10:19:17.22Z</time></trkpt><trkpt lat="52.104095" lon="-8.2789883"><ele>76.0</ele><time>2026-05-05T10:19:18.22Z</time></trkpt><trkpt lat="52.1038633" lon="-8.27922"><ele>76.0</ele><time>2026-05-05T10:19:19.219Z</time></trkpt><trkpt lat="52.1036417" lon="-8.2794383"><ele>76.0</ele><time>2026-05-05T10:19:20.22Z</time></trkpt><trkpt lat="52.1034333" lon="-8.2796433"><ele>76.0</ele><time>2026-05-05T10:19:21.219Z</time></trkpt><trkpt lat="52.1032217" lon="-8.2798483"><ele>76.0</ele><time>2026-05-05T10:19:22.22Z</time></trkpt><trkpt lat="52.103005" lon="-8.280055"><ele>76.0</ele><time>2026-05-05T10:19:23.22Z</time></trkpt><trkpt lat="52.1027817" lon="-8.28027"><ele>76.0</ele><time>2026-05-05T10:19:24.22Z</time></trkpt><trkpt lat="52.1025483" lon="-8.2804867"><ele>75.0</ele><time>2026-05-05T10:19:25.22Z</time></trkpt><trkpt lat="52.1023083" lon="-8.28072"><ele>74.0</ele><time>2026-05-05T10:19:26.22Z</time></trkpt><trkpt lat="52.1020583" lon="-8.2809583"><ele>74.0</ele><time>2026-05-05T10:19:27.22Z</time></trkpt><trkpt lat="52.10181" lon="-8.2812083"><ele>74.0</ele><time>2026-05-05T10:19:28.22Z</time></trkpt><trkpt lat="52.1015583" lon="-8.2814367"><ele>74.0</ele><time>2026-05-05T10:19:29.22Z</time></trkpt><trkpt lat="52.1013033" lon="-8.2816667"><ele>74.0</ele><time>2026-05-05T10:19:30.22Z</time></trkpt><trkpt lat="52.1010383" lon="-8.28192"><ele>74.0</ele><time>2026-05-05T10:19:31.22Z</time></trkpt><trkpt lat="52.1007783" lon="-8.2821833"><ele>74.0</ele><time>2026-05-05T10:19:32.219Z</time></trkpt><trkpt lat="52.10051" lon="-8.2824033"><ele>73.0</ele><time>2026-05-05T10:19:33.219Z</time></trkpt><trkpt lat="52.1002367" lon="-8.28263"><ele>72.0</ele><time>2026-05-05T10:19:34.22Z</time></trkpt><trkpt lat="52.0999667" lon="-8.2828633"><ele>72.0</ele><time>2026-05-05T10:19:35.22Z</time></trkpt><trkpt lat="52.0997" lon="-8.2830883"><ele>72.0</ele><time>2026-05-05T10:19:36.22Z</time></trkpt><trkpt lat="52.0994417" lon="-8.2833417"><ele>72.5</ele><time>2026-05-05T10:19:37.219Z</time></trkpt><trkpt lat="52.0991883" lon="-8.283595"><ele>73.0</ele><time>2026-05-05T10:19:38.219Z</time></trkpt><trkpt lat="52.0989233" lon="-8.2838333"><ele>73.5</ele><time>2026-05-05T10:19:39.22Z</time></trkpt><trkpt lat="52.0986717" lon="-8.284075"><ele>74.0</ele><time>2026-05-05T10:19:40.22Z</time></trkpt><trkpt lat="52.09842" lon="-8.2843083"><ele>74.5</ele><time>2026-05-05T10:19:41.22Z</time></trkpt><trkpt lat="52.098165" lon="-8.2845167"><ele>75.0</ele><time>2026-05-05T10:19:42.22Z</time></trkpt><trkpt lat="52.0979083" lon="-8.2847367"><ele>75.5</ele><time>2026-05-05T10:19:43.219Z</time></trkpt><trkpt lat="52.097655" lon="-8.2849683"><ele>76.0</ele><time>2026-05-05T10:19:44.22Z</time></trkpt><trkpt lat="52.0974033" lon="-8.2851983"><ele>76.5</ele><time>2026-05-05T10:19:45.219Z</time></trkpt><trkpt lat="52.0971633" lon="-8.28544"><ele>77.0</ele><time>2026-05-05T10:19:46.22Z</time></trkpt><trkpt lat="52.0969317" lon="-8.28568"><ele>77.5</ele><time>2026-05-05T10:19:47.219Z</time></trkpt><trkpt lat="52.0966967" lon="-8.2859167"><ele>78.0</ele><time>2026-05-05T10:19:48.22Z</time></trkpt><trkpt lat="52.09644" lon="-8.28614"><ele>79.0</ele><time>2026-05-05T10:19:49.219Z</time></trkpt><trkpt lat="52.096195" lon="-8.2863717"><ele>80.0</ele><time>2026-05-05T10:19:50.22Z</time></trkpt><trkpt lat="52.09594" lon="-8.28661"><ele>81.0</ele><time>2026-05-05T10:19:51.22Z</time></trkpt><trkpt lat="52.0956733" lon="-8.28685"><ele>82.0</ele><time>2026-05-05T10:19:52.22Z</time></trkpt><trkpt lat="52.09539" lon="-8.2871"><ele>81.5</ele><time>2026-05-05T10:19:53.219Z</time></trkpt><trkpt lat="52.095125" lon="-8.28736"><ele>81.0</ele><time>2026-05-05T10:19:54.22Z</time></trkpt><trkpt lat="52.09486" lon="-8.2876"><ele>80.0</ele><time>2026-05-05T10:19:55.22Z</time></trkpt><trkpt lat="52.0946033" lon="-8.287845"><ele>79.0</ele><time>2026-05-05T10:19:56.219Z</time></trkpt><trkpt lat="52.094345" lon="-8.2880833"><ele>78.0</ele><time>2026-05-05T10:19:57.22Z</time></trkpt><trkpt lat="52.0940967" lon="-8.28834"><ele>77.0</ele><time>2026-05-05T10:19:58.22Z</time></trkpt><trkpt lat="52.0938267" lon="-8.288565"><ele>76.0</ele><time>2026-05-05T10:19:59.22Z</time></trkpt><trkpt lat="52.0935583" lon="-8.2887767"><ele>75.0</ele><time>2026-05-05T10:20:00.22Z</time></trkpt><trkpt lat="52.0932867" lon="-8.2889933"><ele>74.0</ele><time>2026-05-05T10:20:01.22Z</time></trkpt><trkpt lat="52.0930333" lon="-8.2892267"><ele>73.0</ele><time>2026-05-05T10:20:02.22Z</time></trkpt><trkpt lat="52.0927767" lon="-8.2894717"><ele>73.0</ele><time>2026-05-05T10:20:03.22Z</time></trkpt><trkpt lat="52.0925167" lon="-8.289695"><ele>73.0</ele><time>2026-05-05T10:20:04.22Z</time></trkpt><trkpt lat="52.0922567" lon="-8.2899433"><ele>72.0</ele><time>2026-05-05T10:20:05.22Z</time></trkpt><trkpt lat="52.0919917" lon="-8.2901717"><ele>71.0</ele><time>2026-05-05T10:20:06.219Z</time></trkpt><trkpt lat="52.0917317" lon="-8.290395"><ele>71.0</ele><time>2026-05-05T10:20:07.219Z</time></trkpt><trkpt lat="52.091495" lon="-8.29061"><ele>71.0</ele><time>2026-05-05T10:20:08.22Z</time></trkpt><trkpt lat="52.09125" lon="-8.2908167"><ele>71.0</ele><time>2026-05-05T10:20:09.22Z</time></trkpt><trkpt lat="52.0910033" lon="-8.29102"><ele>71.0</ele><time>2026-05-05T10:20:10.22Z</time></trkpt><trkpt lat="52.0907483" lon="-8.2912217"><ele>73.0</ele><time>2026-05-05T10:20:11.22Z</time></trkpt><trkpt lat="52.090475" lon="-8.2914033"><ele>75.0</ele><time>2026-05-05T10:20:12.22Z</time></trkpt><trkpt lat="52.090205" lon="-8.2915967"><ele>75.0</ele><time>2026-05-05T10:20:13.22Z</time></trkpt><trkpt lat="52.0899517" lon="-8.2918033"><ele>75.0</ele><time>2026-05-05T10:20:14.22Z</time></trkpt><trkpt lat="52.08969" lon="-8.2919983"><ele>74.5</ele><time>2026-05-05T10:20:15.22Z</time></trkpt><trkpt lat="52.08944" lon="-8.2922067"><ele>74.0</ele><time>2026-05-05T10:20:16.22Z</time></trkpt><trkpt lat="52.089175" lon="-8.2923967"><ele>76.0</ele><time>2026-05-05T10:20:17.22Z</time></trkpt><trkpt lat="52.088925" lon="-8.2925883"><ele>78.0</ele><time>2026-05-05T10:20:18.219Z</time></trkpt><trkpt lat="52.0886617" lon="-8.29278"><ele>78.0</ele><time>2026-05-05T10:20:19.22Z</time></trkpt><trkpt lat="52.0883933" lon="-8.2929567"><ele>78.0</ele><time>2026-05-05T10:20:20.219Z</time></trkpt><trkpt lat="52.08813" lon="-8.2931433"><ele>78.0</ele><time>2026-05-05T10:20:21.22Z</time></trkpt><trkpt lat="52.08787" lon="-8.2933217"><ele>78.0</ele><time>2026-05-05T10:20:22.219Z</time></trkpt><trkpt lat="52.0875767" lon="-8.2934483"><ele>76.0</ele><time>2026-05-05T10:20:23.22Z</time></trkpt><trkpt lat="52.08732" lon="-8.293635"><ele>74.0</ele><time>2026-05-05T10:20:24.219Z</time></trkpt><trkpt lat="52.087065" lon="-8.29383"><ele>75.0</ele><time>2026-05-05T10:20:25.22Z</time></trkpt><trkpt lat="52.086815" lon="-8.2940333"><ele>76.0</ele><time>2026-05-05T10:20:26.22Z</time></trkpt><trkpt lat="52.086535" lon="-8.2941983"><ele>74.0</ele><time>2026-05-05T10:20:27.219Z</time></trkpt><trkpt lat="52.0862633" lon="-8.2943717"><ele>72.0</ele><time>2026-05-05T10:20:28.219Z</time></trkpt><trkpt lat="52.085975" lon="-8.294535"><ele>71.5</ele><time>2026-05-05T10:20:29.22Z</time></trkpt><trkpt lat="52.0856817" lon="-8.2946867"><ele>71.0</ele><time>2026-05-05T10:20:30.22Z</time></trkpt><trkpt lat="52.0853917" lon="-8.2948333"><ele>71.0</ele><time>2026-05-05T10:20:31.22Z</time></trkpt><trkpt lat="52.0850983" lon="-8.29498"><ele>71.0</ele><time>2026-05-05T10:20:32.22Z</time></trkpt><trkpt lat="52.0848183" lon="-8.2951367"><ele>71.0</ele><time>2026-05-05T10:20:33.22Z</time></trkpt><trkpt lat="52.0845433" lon="-8.2952933"><ele>71.0</ele><time>2026-05-05T10:20:34.22Z</time></trkpt><trkpt lat="52.0842783" lon="-8.295435"><ele>69.5</ele><time>2026-05-05T10:20:35.22Z</time></trkpt><trkpt lat="52.0840217" lon="-8.29557"><ele>68.0</ele><time>2026-05-05T10:20:36.22Z</time></trkpt><trkpt lat="52.0837583" lon="-8.2957133"><ele>68.0</ele><time>2026-05-05T10:20:37.22Z</time></trkpt><trkpt lat="52.083485" lon="-8.2958467"><ele>68.0</ele><time>2026-05-05T10:20:38.22Z</time></trkpt><trkpt lat="52.0832083" lon="-8.2959833"><ele>67.0</ele><time>2026-05-05T10:20:39.22Z</time></trkpt><trkpt lat="52.0829217" lon="-8.2961033"><ele>66.0</ele><time>2026-05-05T10:20:40.22Z</time></trkpt><trkpt lat="52.0826417" lon="-8.2962433"><ele>65.5</ele><time>2026-05-05T10:20:41.22Z</time></trkpt><trkpt lat="52.0823533" lon="-8.29637"><ele>65.0</ele><time>2026-05-05T10:20:42.22Z</time></trkpt><trkpt lat="52.08208" lon="-8.2965183"><ele>65.0</ele><time>2026-05-05T10:20:43.22Z</time></trkpt><trkpt lat="52.0818" lon="-8.2966833"><ele>65.0</ele><time>2026-05-05T10:20:44.22Z</time></trkpt><trkpt lat="52.081515" lon="-8.2968567"><ele>64.0</ele><time>2026-05-05T10:20:45.22Z</time></trkpt><trkpt lat="52.08123" lon="-8.2970333"><ele>63.0</ele><time>2026-05-05T10:20:46.219Z</time></trkpt><trkpt lat="52.0809433" lon="-8.2972167"><ele>63.0</ele><time>2026-05-05T10:20:47.22Z</time></trkpt><trkpt lat="52.08064" lon="-8.297395"><ele>63.0</ele><time>2026-05-05T10:20:48.22Z</time></trkpt><trkpt lat="52.0803433" lon="-8.2975683"><ele>63.0</ele><time>2026-05-05T10:20:49.22Z</time></trkpt><trkpt lat="52.0800917" lon="-8.29779"><ele>63.0</ele><time>2026-05-05T10:20:50.22Z</time></trkpt><trkpt lat="52.07982" lon="-8.298"><ele>62.0</ele><time>2026-05-05T10:20:51.22Z</time></trkpt><trkpt lat="52.0795567" lon="-8.2982133"><ele>61.0</ele><time>2026-05-05T10:20:52.219Z</time></trkpt><trkpt lat="52.0793" lon="-8.2984317"><ele>60.5</ele><time>2026-05-05T10:20:53.219Z</time></trkpt><trkpt lat="52.0790367" lon="-8.29864"><ele>60.0</ele><time>2026-05-05T10:20:54.219Z</time></trkpt><trkpt lat="52.0787867" lon="-8.2988733"><ele>60.5</ele><time>2026-05-05T10:20:55.22Z</time></trkpt><trkpt lat="52.078525" lon="-8.2990817"><ele>61.0</ele><time>2026-05-05T10:20:56.22Z</time></trkpt><trkpt lat="52.0782867" lon="-8.299315"><ele>61.0</ele><time>2026-05-05T10:20:57.22Z</time></trkpt><trkpt lat="52.0780267" lon="-8.2995167"><ele>61.0</ele><time>2026-05-05T10:20:58.22Z</time></trkpt><trkpt lat="52.0777733" lon="-8.299745"><ele>61.5</ele><time>2026-05-05T10:20:59.219Z</time></trkpt><trkpt lat="52.077515" lon="-8.2999633"><ele>62.0</ele><time>2026-05-05T10:21:00.22Z</time></trkpt><trkpt lat="52.0772367" lon="-8.300165"><ele>62.0</ele><time>2026-05-05T10:21:01.219Z</time></trkpt><trkpt lat="52.07695" lon="-8.3003633"><ele>62.0</ele><time>2026-05-05T10:21:02.22Z</time></trkpt><trkpt lat="52.0766633" lon="-8.3005483"><ele>63.0</ele><time>2026-05-05T10:21:03.22Z</time></trkpt><trkpt lat="52.0763683" lon="-8.3007433"><ele>64.0</ele><time>2026-05-05T10:21:04.22Z</time></trkpt><trkpt lat="52.0760817" lon="-8.300945"><ele>64.0</ele><time>2026-05-05T10:21:05.219Z</time></trkpt><trkpt lat="52.0758" lon="-8.30116"><ele>64.0</ele><time>2026-05-05T10:21:06.219Z</time></trkpt><trkpt lat="52.0755283" lon="-8.301375"><ele>64.5</ele><time>2026-05-05T10:21:07.219Z</time></trkpt><trkpt lat="52.075235" lon="-8.3015533"><ele>65.0</ele><time>2026-05-05T10:21:08.22Z</time></trkpt><trkpt lat="52.0749383" lon="-8.3017083"><ele>63.5</ele><time>2026-05-05T10:21:09.22Z</time></trkpt><trkpt lat="52.0746433" lon="-8.3018483"><ele>62.0</ele><time>2026-05-05T10:21:10.219Z</time></trkpt><trkpt lat="52.0743683" lon="-8.3020083"><ele>62.0</ele><time>2026-05-05T10:21:11.22Z</time></trkpt><trkpt lat="52.07409" lon="-8.3022083"><ele>62.0</ele><time>2026-05-05T10:21:12.22Z</time></trkpt><trkpt lat="52.073795" lon="-8.3023517"><ele>62.0</ele><time>2026-05-05T10:21:13.22Z</time></trkpt><trkpt lat="52.0735117" lon="-8.3025083"><ele>62.0</ele><time>2026-05-05T10:21:14.219Z</time></trkpt><trkpt lat="52.0732117" lon="-8.3026383"><ele>62.0</ele><time>2026-05-05T10:21:15.219Z</time></trkpt><trkpt lat="52.0729167" lon="-8.3027717"><ele>62.0</ele><time>2026-05-05T10:21:16.22Z</time></trkpt><trkpt lat="52.0726133" lon="-8.3029033"><ele>62.0</ele><time>2026-05-05T10:21:17.22Z</time></trkpt><trkpt lat="52.072315" lon="-8.30304"><ele>62.0</ele><time>2026-05-05T10:21:18.219Z</time></trkpt><trkpt lat="52.0720167" lon="-8.3031633"><ele>62.0</ele><time>2026-05-05T10:21:19.219Z</time></trkpt><trkpt lat="52.0717267" lon="-8.3032917"><ele>62.0</ele><time>2026-05-05T10:21:20.22Z</time></trkpt><trkpt lat="52.0714383" lon="-8.3034117"><ele>63.0</ele><time>2026-05-05T10:21:21.219Z</time></trkpt><trkpt lat="52.07115" lon="-8.30352"><ele>64.0</ele><time>2026-05-05T10:21:22.22Z</time></trkpt><trkpt lat="52.0708617" lon="-8.3036317"><ele>64.5</ele><time>2026-05-05T10:21:23.22Z</time></trkpt><trkpt lat="52.0705767" lon="-8.3037267"><ele>65.0</ele><time>2026-05-05T10:21:24.22Z</time></trkpt><trkpt lat="52.0702983" lon="-8.3037983"><ele>65.0</ele><time>2026-05-05T10:21:25.219Z</time></trkpt><trkpt lat="52.0700333" lon="-8.3038783"><ele>65.0</ele><time>2026-05-05T10:21:26.22Z</time></trkpt><trkpt lat="52.0697633" lon="-8.3039617"><ele>66.5</ele><time>2026-05-05T10:21:27.22Z</time></trkpt><trkpt lat="52.0694917" lon="-8.30404"><ele>68.0</ele><time>2026-05-05T10:21:28.219Z</time></trkpt><trkpt lat="52.0692167" lon="-8.304115"><ele>68.5</ele><time>2026-05-05T10:21:29.22Z</time></trkpt><trkpt lat="52.0689433" lon="-8.3041867"><ele>69.0</ele><time>2026-05-05T10:21:30.22Z</time></trkpt><trkpt lat="52.0686633" lon="-8.3042467"><ele>69.0</ele><time>2026-05-05T10:21:31.219Z</time></trkpt><trkpt lat="52.068385" lon="-8.3043"><ele>69.0</ele><time>2026-05-05T10:21:32.22Z</time></trkpt><trkpt lat="52.0681017" lon="-8.3043517"><ele>68.5</ele><time>2026-05-05T10:21:33.22Z</time></trkpt><trkpt lat="52.0678083" lon="-8.3044017"><ele>68.0</ele><time>2026-05-05T10:21:34.219Z</time></trkpt><trkpt lat="52.067515" lon="-8.3044417"><ele>67.0</ele><time>2026-05-05T10:21:35.22Z</time></trkpt><trkpt lat="52.0672183" lon="-8.30449"><ele>66.0</ele><time>2026-05-05T10:21:36.22Z</time></trkpt><trkpt lat="52.0669183" lon="-8.30453"><ele>66.0</ele><time>2026-05-05T10:21:37.219Z</time></trkpt><trkpt lat="52.066625" lon="-8.3045567"><ele>66.0</ele><time>2026-05-05T10:21:38.22Z</time></trkpt><trkpt lat="52.0663217" lon="-8.3045767"><ele>65.0</ele><time>2026-05-05T10:21:39.219Z</time></trkpt><trkpt lat="52.06601" lon="-8.304575"><ele>64.0</ele><time>2026-05-05T10:21:40.22Z</time></trkpt><trkpt lat="52.06571" lon="-8.30457"><ele>61.5</ele><time>2026-05-05T10:21:41.22Z</time></trkpt><trkpt lat="52.0654183" lon="-8.30456"><ele>59.0</ele><time>2026-05-05T10:21:42.219Z</time></trkpt><trkpt lat="52.0651283" lon="-8.304555"><ele>57.5</ele><time>2026-05-05T10:21:43.22Z</time></trkpt><trkpt lat="52.0648417" lon="-8.304545"><ele>56.0</ele><time>2026-05-05T10:21:44.22Z</time></trkpt><trkpt lat="52.06456" lon="-8.304535"><ele>56.0</ele><time>2026-05-05T10:21:45.22Z</time></trkpt><trkpt lat="52.0642833" lon="-8.30453"><ele>56.0</ele><time>2026-05-05T10:21:46.219Z</time></trkpt><trkpt lat="52.06401" lon="-8.3045217"><ele>54.5</ele><time>2026-05-05T10:21:47.22Z</time></trkpt><trkpt lat="52.0637367" lon="-8.3045033"><ele>53.0</ele><time>2026-05-05T10:21:48.22Z</time></trkpt><trkpt lat="52.0634567" lon="-8.3044617"><ele>52.0</ele><time>2026-05-05T10:21:49.219Z</time></trkpt><trkpt lat="52.063175" lon="-8.30442"><ele>51.0</ele><time>2026-05-05T10:21:50.22Z</time></trkpt><trkpt lat="52.0628883" lon="-8.3044067"><ele>51.0</ele><time>2026-05-05T10:21:51.22Z</time></trkpt><trkpt lat="52.0625883" lon="-8.3043717"><ele>51.0</ele><time>2026-05-05T10:21:52.22Z</time></trkpt><trkpt lat="52.0622983" lon="-8.3043367"><ele>52.0</ele><time>2026-05-05T10:21:53.22Z</time></trkpt><trkpt lat="52.0620083" lon="-8.3043183"><ele>53.0</ele><time>2026-05-05T10:21:54.22Z</time></trkpt><trkpt lat="52.0617117" lon="-8.3043033"><ele>56.0</ele><time>2026-05-05T10:21:55.22Z</time></trkpt><trkpt lat="52.06141" lon="-8.304305"><ele>59.0</ele><time>2026-05-05T10:21:56.22Z</time></trkpt><trkpt lat="52.061115" lon="-8.3043067"><ele>59.0</ele><time>2026-05-05T10:21:57.219Z</time></trkpt><trkpt lat="52.0608317" lon="-8.304325"><ele>59.0</ele><time>2026-05-05T10:21:58.219Z</time></trkpt><trkpt lat="52.0605533" lon="-8.3043367"><ele>64.0</ele><time>2026-05-05T10:21:59.22Z</time></trkpt><trkpt lat="52.0602917" lon="-8.3043717"><ele>69.0</ele><time>2026-05-05T10:22:00.219Z</time></trkpt><trkpt lat="52.0600067" lon="-8.3043883"><ele>74.5</ele><time>2026-05-05T10:22:01.219Z</time></trkpt><trkpt lat="52.0597333" lon="-8.3044167"><ele>80.0</ele><time>2026-05-05T10:22:02.22Z</time></trkpt><trkpt lat="52.0594567" lon="-8.3044433"><ele>80.0</ele><time>2026-05-05T10:22:03.22Z</time></trkpt><trkpt lat="52.0591833" lon="-8.3044833"><ele>80.0</ele><time>2026-05-05T10:22:04.22Z</time></trkpt><trkpt lat="52.05892" lon="-8.3045367"><ele>85.0</ele><time>2026-05-05T10:22:05.219Z</time></trkpt><trkpt lat="52.0586567" lon="-8.304585"><ele>90.0</ele><time>2026-05-05T10:22:06.219Z</time></trkpt><trkpt lat="52.0583817" lon="-8.304615"><ele>93.0</ele><time>2026-05-05T10:22:07.22Z</time></trkpt><trkpt lat="52.0581" lon="-8.304675"><ele>96.0</ele><time>2026-05-05T10:22:08.22Z</time></trkpt><trkpt lat="52.0578083" lon="-8.3047367"><ele>96.5</ele><time>2026-05-05T10:22:09.219Z</time></trkpt><trkpt lat="52.057515" lon="-8.3048067"><ele>97.0</ele><time>2026-05-05T10:22:10.22Z</time></trkpt><trkpt lat="52.0572067" lon="-8.30487"><ele>98.5</ele><time>2026-05-05T10:22:11.219Z</time></trkpt><trkpt lat="52.0569117" lon="-8.3049483"><ele>100.0</ele><time>2026-05-05T10:22:12.22Z</time></trkpt><trkpt lat="52.056625" lon="-8.3050333"><ele>100.0</ele><time>2026-05-05T10:22:13.219Z</time></trkpt><trkpt lat="52.0563317" lon="-8.3051217"><ele>100.0</ele><time>2026-05-05T10:22:14.219Z</time></trkpt><trkpt lat="52.0560517" lon="-8.3052133"><ele>98.5</ele><time>2026-05-05T10:22:15.219Z</time></trkpt><trkpt lat="52.055765" lon="-8.3053083"><ele>97.0</ele><time>2026-05-05T10:22:16.22Z</time></trkpt><trkpt lat="52.05547" lon="-8.3053933"><ele>97.0</ele><time>2026-05-05T10:22:17.22Z</time></trkpt><trkpt lat="52.0551933" lon="-8.30549"><ele>97.0</ele><time>2026-05-05T10:22:18.22Z</time></trkpt><trkpt lat="52.054905" lon="-8.3055883"><ele>95.5</ele><time>2026-05-05T10:22:19.22Z</time></trkpt><trkpt lat="52.0546217" lon="-8.3056917"><ele>94.0</ele><time>2026-05-05T10:22:20.219Z</time></trkpt><trkpt lat="52.05435" lon="-8.305785"><ele>92.5</ele><time>2026-05-05T10:22:21.219Z</time></trkpt><trkpt lat="52.0540833" lon="-8.3058783"><ele>91.0</ele><time>2026-05-05T10:22:22.22Z</time></trkpt><trkpt lat="52.0538217" lon="-8.3059783"><ele>91.0</ele><time>2026-05-05T10:22:23.22Z</time></trkpt><trkpt lat="52.0535567" lon="-8.3060683"><ele>91.0</ele><time>2026-05-05T10:22:24.22Z</time></trkpt><trkpt lat="52.053305" lon="-8.3061583"><ele>90.0</ele><time>2026-05-05T10:22:25.219Z</time></trkpt><trkpt lat="52.0530467" lon="-8.3062417"><ele>89.0</ele><time>2026-05-05T10:22:26.22Z</time></trkpt><trkpt lat="52.0527967" lon="-8.306335"><ele>90.0</ele><time>2026-05-05T10:22:27.219Z</time></trkpt><trkpt lat="52.052545" lon="-8.3064383"><ele>91.0</ele><time>2026-05-05T10:22:28.22Z</time></trkpt><trkpt lat="52.0522767" lon="-8.3065467"><ele>91.0</ele><time>2026-05-05T10:22:29.22Z</time></trkpt><trkpt lat="52.05201" lon="-8.30667"><ele>91.0</ele><time>2026-05-05T10:22:30.219Z</time></trkpt><trkpt lat="52.0517467" lon="-8.30681"><ele>91.0</ele><time>2026-05-05T10:22:31.219Z</time></trkpt><trkpt lat="52.051475" lon="-8.30694"><ele>91.0</ele><time>2026-05-05T10:22:32.219Z</time></trkpt><trkpt lat="52.0511983" lon="-8.3070767"><ele>91.0</ele><time>2026-05-05T10:22:33.22Z</time></trkpt><trkpt lat="52.0509167" lon="-8.3072133"><ele>91.0</ele><time>2026-05-05T10:22:34.219Z</time></trkpt><trkpt lat="52.05064" lon="-8.30739"><ele>90.0</ele><time>2026-05-05T10:22:35.219Z</time></trkpt><trkpt lat="52.0503667" lon="-8.3075567"><ele>89.0</ele><time>2026-05-05T10:22:36.22Z</time></trkpt><trkpt lat="52.0500783" lon="-8.30773"><ele>85.5</ele><time>2026-05-05T10:22:37.22Z</time></trkpt><trkpt lat="52.0497983" lon="-8.307905"><ele>82.0</ele><time>2026-05-05T10:22:38.219Z</time></trkpt><trkpt lat="52.0495267" lon="-8.30807"><ele>82.0</ele><time>2026-05-05T10:22:39.22Z</time></trkpt><trkpt lat="52.0492633" lon="-8.3082383"><ele>82.0</ele><time>2026-05-05T10:22:40.219Z</time></trkpt><trkpt lat="52.049" lon="-8.3084067"><ele>85.5</ele><time>2026-05-05T10:22:41.22Z</time></trkpt><trkpt lat="52.0487367" lon="-8.30859"><ele>89.0</ele><time>2026-05-05T10:22:42.22Z</time></trkpt><trkpt lat="52.0484733" lon="-8.3087883"><ele>94.0</ele><time>2026-05-05T10:22:43.22Z</time></trkpt><trkpt lat="52.0482133" lon="-8.3089717"><ele>99.0</ele><time>2026-05-05T10:22:44.219Z</time></trkpt><trkpt lat="52.047955" lon="-8.3091667"><ele>99.0</ele><time>2026-05-05T10:22:45.22Z</time></trkpt><trkpt lat="52.0477" lon="-8.30936"><ele>99.0</ele><time>2026-05-05T10:22:46.22Z</time></trkpt><trkpt lat="52.0474433" lon="-8.3095483"><ele>101.0</ele><time>2026-05-05T10:22:47.219Z</time></trkpt><trkpt lat="52.0471883" lon="-8.3097367"><ele>103.0</ele><time>2026-05-05T10:22:48.22Z</time></trkpt><trkpt lat="52.04693" lon="-8.3099267"><ele>103.0</ele><time>2026-05-05T10:22:49.22Z</time></trkpt><trkpt lat="52.0466833" lon="-8.3101367"><ele>103.0</ele><time>2026-05-05T10:22:50.219Z</time></trkpt><trkpt lat="52.0464333" lon="-8.310345"><ele>104.0</ele><time>2026-05-05T10:22:51.22Z</time></trkpt><trkpt lat="52.0461867" lon="-8.31057"><ele>105.0</ele><time>2026-05-05T10:22:52.22Z</time></trkpt><trkpt lat="52.045935" lon="-8.310815"><ele>106.0</ele><time>2026-05-05T10:22:53.219Z</time></trkpt><trkpt lat="52.045675" lon="-8.311065"><ele>107.0</ele><time>2026-05-05T10:22:54.22Z</time></trkpt><trkpt lat="52.0454183" lon="-8.3113033"><ele>107.0</ele><time>2026-05-05T10:22:55.22Z</time></trkpt><trkpt lat="52.0451583" lon="-8.31154"><ele>107.0</ele><time>2026-05-05T10:22:56.219Z</time></trkpt><trkpt lat="52.04492" lon="-8.31179"><ele>107.0</ele><time>2026-05-05T10:22:57.219Z</time></trkpt><trkpt lat="52.044685" lon="-8.312035"><ele>107.0</ele><time>2026-05-05T10:22:58.22Z</time></trkpt><trkpt lat="52.0444383" lon="-8.312275"><ele>105.5</ele><time>2026-05-05T10:22:59.219Z</time></trkpt><trkpt lat="52.04419" lon="-8.3125033"><ele>104.0</ele><time>2026-05-05T10:23:00.22Z</time></trkpt><trkpt lat="52.0439467" lon="-8.312735"><ele>105.5</ele><time>2026-05-05T10:23:01.219Z</time></trkpt><trkpt lat="52.0436967" lon="-8.3129417"><ele>107.0</ele><time>2026-05-05T10:23:02.219Z</time></trkpt><trkpt lat="52.0434467" lon="-8.3131367"><ele>110.0</ele><time>2026-05-05T10:23:03.22Z</time></trkpt><trkpt lat="52.0432033" lon="-8.3133417"><ele>113.0</ele><time>2026-05-05T10:23:04.22Z</time></trkpt><trkpt lat="52.0429633" lon="-8.3135483"><ele>113.0</ele><time>2026-05-05T10:23:05.22Z</time></trkpt><trkpt lat="52.04272" lon="-8.3137467"><ele>113.0</ele><time>2026-05-05T10:23:06.22Z</time></trkpt><trkpt lat="52.042475" lon="-8.31394"><ele>115.0</ele><time>2026-05-05T10:23:07.219Z</time></trkpt><trkpt lat="52.0422183" lon="-8.31412"><ele>117.0</ele><time>2026-05-05T10:23:08.219Z</time></trkpt><trkpt lat="52.04196" lon="-8.314295"><ele>117.0</ele><time>2026-05-05T10:23:09.219Z</time></trkpt><trkpt lat="52.041705" lon="-8.31448"><ele>117.0</ele><time>2026-05-05T10:23:10.219Z</time></trkpt><trkpt lat="52.0414567" lon="-8.3146833"><ele>116.0</ele><time>2026-05-05T10:23:11.219Z</time></trkpt><trkpt lat="52.0411967" lon="-8.3148483"><ele>115.0</ele><time>2026-05-05T10:23:12.22Z</time></trkpt><trkpt lat="52.0409383" lon="-8.31503"><ele>114.0</ele><time>2026-05-05T10:23:13.22Z</time></trkpt><trkpt lat="52.0406733" lon="-8.315165"><ele>113.0</ele><time>2026-05-05T10:23:14.219Z</time></trkpt><trkpt lat="52.040415" lon="-8.31531"><ele>113.0</ele><time>2026-05-05T10:23:15.219Z</time></trkpt><trkpt lat="52.0401533" lon="-8.3154617"><ele>113.0</ele><time>2026-05-05T10:23:16.22Z</time></trkpt><trkpt lat="52.03989" lon="-8.3156033"><ele>114.0</ele><time>2026-05-05T10:23:17.22Z</time></trkpt><trkpt lat="52.0396233" lon="-8.315745"><ele>115.0</ele><time>2026-05-05T10:23:18.219Z</time></trkpt><trkpt lat="52.039355" lon="-8.3158933"><ele>117.5</ele><time>2026-05-05T10:23:19.22Z</time></trkpt><trkpt lat="52.039095" lon="-8.3160367"><ele>120.0</ele><time>2026-05-05T10:23:20.22Z</time></trkpt><trkpt lat="52.03884" lon="-8.3161833"><ele>120.0</ele><time>2026-05-05T10:23:21.22Z</time></trkpt><trkpt lat="52.0385717" lon="-8.3163333"><ele>120.0</ele><time>2026-05-05T10:23:22.219Z</time></trkpt><trkpt lat="52.0382983" lon="-8.3164883"><ele>121.5</ele><time>2026-05-05T10:23:23.22Z</time></trkpt><trkpt lat="52.0380283" lon="-8.316645"><ele>123.0</ele><time>2026-05-05T10:23:24.22Z</time></trkpt><trkpt lat="52.03777" lon="-8.3168117"><ele>123.0</ele><time>2026-05-05T10:23:25.22Z</time></trkpt><trkpt lat="52.0374967" lon="-8.316975"><ele>123.0</ele><time>2026-05-05T10:23:26.22Z</time></trkpt><trkpt lat="52.0372267" lon="-8.317135"><ele>124.5</ele><time>2026-05-05T10:23:27.219Z</time></trkpt><trkpt lat="52.0369683" lon="-8.3173083"><ele>126.0</ele><time>2026-05-05T10:23:28.219Z</time></trkpt><trkpt lat="52.0366933" lon="-8.3174817"><ele>129.0</ele><time>2026-05-05T10:23:29.22Z</time></trkpt><trkpt lat="52.036415" lon="-8.3176517"><ele>132.0</ele><time>2026-05-05T10:23:30.22Z</time></trkpt><trkpt lat="52.0361217" lon="-8.31785"><ele>132.0</ele><time>2026-05-05T10:23:31.219Z</time></trkpt><trkpt lat="52.035825" lon="-8.3180417"><ele>132.0</ele><time>2026-05-05T10:23:32.22Z</time></trkpt><trkpt lat="52.03554" lon="-8.318245"><ele>133.0</ele><time>2026-05-05T10:23:33.219Z</time></trkpt><trkpt lat="52.0352583" lon="-8.31847"><ele>134.0</ele><time>2026-05-05T10:23:34.22Z</time></trkpt><trkpt lat="52.0349883" lon="-8.318695"><ele>133.0</ele><time>2026-05-05T10:23:35.22Z</time></trkpt><trkpt lat="52.0347167" lon="-8.318925"><ele>132.0</ele><time>2026-05-05T10:23:36.22Z</time></trkpt><trkpt lat="52.03445" lon="-8.31915"><ele>132.0</ele><time>2026-05-05T10:23:37.219Z</time></trkpt><trkpt lat="52.0341983" lon="-8.3193617"><ele>132.0</ele><time>2026-05-05T10:23:38.219Z</time></trkpt><trkpt lat="52.0339717" lon="-8.3195833"><ele>132.0</ele><time>2026-05-05T10:23:39.22Z</time></trkpt><trkpt lat="52.033755" lon="-8.3197883"><ele>132.0</ele><time>2026-05-05T10:23:40.22Z</time></trkpt><trkpt lat="52.033535" lon="-8.3200067"><ele>132.0</ele><time>2026-05-05T10:23:41.22Z</time></trkpt><trkpt lat="52.0333067" lon="-8.3202217"><ele>132.0</ele><time>2026-05-05T10:23:42.22Z</time></trkpt><trkpt lat="52.0330783" lon="-8.320455"><ele>134.0</ele><time>2026-05-05T10:23:43.219Z</time></trkpt><trkpt lat="52.03285" lon="-8.320695"><ele>136.0</ele><time>2026-05-05T10:23:44.22Z</time></trkpt><trkpt lat="52.0326117" lon="-8.320935"><ele>136.5</ele><time>2026-05-05T10:23:45.22Z</time></trkpt><trkpt lat="52.03238" lon="-8.321175"><ele>137.0</ele><time>2026-05-05T10:23:46.22Z</time></trkpt><trkpt lat="52.032145" lon="-8.321435"><ele>137.0</ele><time>2026-05-05T10:23:47.22Z</time></trkpt><trkpt lat="52.0319083" lon="-8.321685"><ele>137.0</ele><time>2026-05-05T10:23:48.22Z</time></trkpt><trkpt lat="52.0316817" lon="-8.32195"><ele>138.0</ele><time>2026-05-05T10:23:49.22Z</time></trkpt><trkpt lat="52.031455" lon="-8.3222133"><ele>139.0</ele><time>2026-05-05T10:23:50.219Z</time></trkpt><trkpt lat="52.0312383" lon="-8.32249"><ele>139.0</ele><time>2026-05-05T10:23:51.22Z</time></trkpt><trkpt lat="52.03101" lon="-8.3227667"><ele>139.0</ele><time>2026-05-05T10:23:52.219Z</time></trkpt><trkpt lat="52.030795" lon="-8.3230683"><ele>141.0</ele><time>2026-05-05T10:23:53.219Z</time></trkpt><trkpt lat="52.0305683" lon="-8.3233333"><ele>143.0</ele><time>2026-05-05T10:23:54.219Z</time></trkpt><trkpt lat="52.03036" lon="-8.323615"><ele>143.0</ele><time>2026-05-05T10:23:55.219Z</time></trkpt><trkpt lat="52.0301583" lon="-8.3238917"><ele>143.0</ele><time>2026-05-05T10:23:56.22Z</time></trkpt><trkpt lat="52.029955" lon="-8.3241583"><ele>143.5</ele><time>2026-05-05T10:23:57.22Z</time></trkpt><trkpt lat="52.029765" lon="-8.3244133"><ele>144.0</ele><time>2026-05-05T10:23:58.22Z</time></trkpt><trkpt lat="52.0295783" lon="-8.3246567"><ele>144.0</ele><time>2026-05-05T10:23:59.22Z</time></trkpt><trkpt lat="52.02941" lon="-8.3249"><ele>144.0</ele><time>2026-05-05T10:24:00.219Z</time></trkpt><trkpt lat="52.0292417" lon="-8.32515"><ele>145.33333333333334</ele><time>2026-05-05T10:24:01.22Z</time></trkpt><trkpt lat="52.029085" lon="-8.32538"><ele>146.66666666666669</ele><time>2026-05-05T10:24:02.219Z</time></trkpt><trkpt lat="52.0289467" lon="-8.32558"><ele>148.0</ele><time>2026-05-05T10:24:03.22Z</time></trkpt><trkpt lat="52.0288067" lon="-8.3257633"><ele>148.0</ele><time>2026-05-05T10:24:04.22Z</time></trkpt><trkpt lat="52.02867" lon="-8.32591"><ele>148.0</ele><time>2026-05-05T10:24:05.22Z</time></trkpt><trkpt lat="52.02854" lon="-8.3260383"><ele>148.0</ele><time>2026-05-05T10:24:06.22Z</time></trkpt><trkpt lat="52.028425" lon="-8.326165"><ele>149.75</ele><time>2026-05-05T10:24:07.22Z</time></trkpt><trkpt lat="52.0283067" lon="-8.32629"><ele>151.5</ele><time>2026-05-05T10:24:08.219Z</time></trkpt><trkpt lat="52.0282083" lon="-8.3264067"><ele>153.25</ele><time>2026-05-05T10:24:09.22Z</time></trkpt><trkpt lat="52.0281133" lon="-8.3265183"><ele>155.0</ele><time>2026-05-05T10:24:10.22Z</time></trkpt><trkpt lat="52.0280267" lon="-8.326625"><ele>155.0</ele><time>2026-05-05T10:24:11.22Z</time></trkpt><trkpt lat="52.0279367" lon="-8.32673"><ele>155.0</ele><time>2026-05-05T10:24:12.219Z</time></trkpt><trkpt lat="52.0278483" lon="-8.3268417"><ele>155.0</ele><time>2026-05-05T10:24:13.219Z</time></trkpt><trkpt lat="52.0277467" lon="-8.3269633"><ele>155.0</ele><time>2026-05-05T10:24:14.219Z</time></trkpt><trkpt lat="52.0276517" lon="-8.3270933"><ele>155.0</ele><time>2026-05-05T10:24:15.22Z</time></trkpt><trkpt lat="52.02757" lon="-8.327205"><ele>155.0</ele><time>2026-05-05T10:24:16.22Z</time></trkpt><trkpt lat="52.027495" lon="-8.3273017"><ele>155.0</ele><time>2026-05-05T10:24:17.22Z</time></trkpt><trkpt lat="52.02743" lon="-8.3273783"><ele>155.0</ele><time>2026-05-05T10:24:18.22Z</time></trkpt><trkpt lat="52.0273767" lon="-8.3274383"><ele>155.0</ele><time>2026-05-05T10:24:19.219Z</time></trkpt><trkpt lat="52.0272967" lon="-8.32753"><ele>155.0</ele><time>2026-05-05T10:24:21.219Z</time></trkpt><trkpt lat="52.02724" lon="-8.3276017"><ele>155.16666666666666</ele><time>2026-05-05T10:24:23.22Z</time></trkpt><trkpt lat="52.0271667" lon="-8.3276617"><ele>155.33333333333331</ele><time>2026-05-05T10:24:32.219Z</time></trkpt><trkpt lat="52.0270883" lon="-8.32774"><ele>155.5</ele><time>2026-05-05T10:24:52.219Z</time></trkpt><trkpt lat="52.0270367" lon="-8.3278383"><ele>155.66666666666666</ele><time>2026-05-05T10:25:15.22Z</time></trkpt><trkpt lat="52.0269467" lon="-8.3279667"><ele>155.83333333333334</ele><time>2026-05-05T10:25:57.22Z</time></trkpt><trkpt lat="52.0268783" lon="-8.327985"><ele>156.0</ele><time>2026-05-05T10:26:04.22Z</time></trkpt><trkpt lat="52.0268017" lon="-8.3281033"><ele>156.0</ele><time>2026-05-05T10:26:06.219Z</time></trkpt><trkpt lat="52.0267133" lon="-8.32822"><ele>156.0</ele><time>2026-05-05T10:26:08.22Z</time></trkpt><trkpt lat="52.0266567" lon="-8.328305"><ele>156.0</ele><time>2026-05-05T10:26:09.219Z</time></trkpt><trkpt lat="52.0265867" lon="-8.32838"><ele>156.0</ele><time>2026-05-05T10:26:10.22Z</time></trkpt><trkpt lat="52.0265133" lon="-8.328445"><ele>156.0</ele><time>2026-05-05T10:26:11.219Z</time></trkpt><trkpt lat="52.02643" lon="-8.32852"><ele>156.2</ele><time>2026-05-05T10:26:12.22Z</time></trkpt><trkpt lat="52.0263367" lon="-8.32859"><ele>156.39999999999998</ele><time>2026-05-05T10:26:13.22Z</time></trkpt><trkpt lat="52.02624" lon="-8.3286633"><ele>156.6</ele><time>2026-05-05T10:26:14.22Z</time></trkpt><trkpt lat="52.02615" lon="-8.32874"><ele>156.79999999999998</ele><time>2026-05-05T10:26:15.22Z</time></trkpt><trkpt lat="52.0260483" lon="-8.3288217"><ele>157.0</ele><time>2026-05-05T10:26:16.219Z</time></trkpt><trkpt lat="52.025945" lon="-8.32891"><ele>157.0</ele><time>2026-05-05T10:26:17.22Z</time></trkpt><trkpt lat="52.0258483" lon="-8.3289967"><ele>157.0</ele><time>2026-05-05T10:26:18.22Z</time></trkpt><trkpt lat="52.0257717" lon="-8.3290667"><ele>157.0</ele><time>2026-05-05T10:26:19.22Z</time></trkpt><trkpt lat="52.0257083" lon="-8.3291117"><ele>157.0</ele><time>2026-05-05T10:26:20.219Z</time></trkpt><trkpt lat="52.025645" lon="-8.3291633"><ele>157.0</ele><time>2026-05-05T10:26:22.219Z</time></trkpt><trkpt lat="52.0255833" lon="-8.3292933"><ele>157.0</ele><time>2026-05-05T10:27:52.219Z</time></trkpt><trkpt lat="52.0255117" lon="-8.3293683"><ele>157.0</ele><time>2026-05-05T10:27:54.22Z</time></trkpt><trkpt lat="52.02546" lon="-8.32944"><ele>157.0</ele><time>2026-05-05T10:27:56.22Z</time></trkpt><trkpt lat="52.0253867" lon="-8.329535"><ele>157.0</ele><time>2026-05-05T10:27:58.22Z</time></trkpt><trkpt lat="52.02529" lon="-8.329675"><ele>157.0</ele><time>2026-05-05T10:28:00.22Z</time></trkpt><trkpt lat="52.0252283" lon="-8.3297417"><ele>157.0</ele><time>2026-05-05T10:28:01.219Z</time></trkpt><trkpt lat="52.0251567" lon="-8.3298267"><ele>156.25</ele><time>2026-05-05T10:28:02.22Z</time></trkpt><trkpt lat="52.025065" lon="-8.3299367"><ele>155.5</ele><time>2026-05-05T10:28:03.22Z</time></trkpt><trkpt lat="52.0249483" lon="-8.330075"><ele>154.75</ele><time>2026-05-05T10:28:04.22Z</time></trkpt><trkpt lat="52.0248117" lon="-8.3302383"><ele>154.0</ele><time>2026-05-05T10:28:05.219Z</time></trkpt><trkpt lat="52.02465" lon="-8.3304183"><ele>153.66666666666669</ele><time>2026-05-05T10:28:06.219Z</time></trkpt><trkpt lat="52.024475" lon="-8.330615"><ele>153.33333333333334</ele><time>2026-05-05T10:28:07.219Z</time></trkpt><trkpt lat="52.0242717" lon="-8.33081"><ele>153.0</ele><time>2026-05-05T10:28:08.22Z</time></trkpt><trkpt lat="52.0240633" lon="-8.3310033"><ele>153.0</ele><time>2026-05-05T10:28:09.22Z</time></trkpt><trkpt lat="52.02384" lon="-8.3311833"><ele>153.0</ele><time>2026-05-05T10:28:10.22Z</time></trkpt><trkpt lat="52.0236233" lon="-8.3313567"><ele>151.5</ele><time>2026-05-05T10:28:11.219Z</time></trkpt><trkpt lat="52.0234067" lon="-8.3315483"><ele>150.0</ele><time>2026-05-05T10:28:12.22Z</time></trkpt><trkpt lat="52.0232017" lon="-8.3317433"><ele>150.0</ele><time>2026-05-05T10:28:13.22Z</time></trkpt><trkpt lat="52.0229967" lon="-8.3319217"><ele>150.0</ele><time>2026-05-05T10:28:14.22Z</time></trkpt><trkpt lat="52.0227883" lon="-8.3320967"><ele>147.5</ele><time>2026-05-05T10:28:15.219Z</time></trkpt><trkpt lat="52.02258" lon="-8.33227"><ele>145.0</ele><time>2026-05-05T10:28:16.22Z</time></trkpt><trkpt lat="52.02238" lon="-8.332435"><ele>144.5</ele><time>2026-05-05T10:28:17.22Z</time></trkpt><trkpt lat="52.0221783" lon="-8.3325933"><ele>144.0</ele><time>2026-05-05T10:28:18.22Z</time></trkpt><trkpt lat="52.0219583" lon="-8.3327483"><ele>144.0</ele><time>2026-05-05T10:28:19.22Z</time></trkpt><trkpt lat="52.021735" lon="-8.3328983"><ele>144.0</ele><time>2026-05-05T10:28:20.22Z</time></trkpt><trkpt lat="52.0214967" lon="-8.3330667"><ele>145.0</ele><time>2026-05-05T10:28:21.22Z</time></trkpt><trkpt lat="52.0212533" lon="-8.3332433"><ele>146.0</ele><time>2026-05-05T10:28:22.219Z</time></trkpt><trkpt lat="52.020985" lon="-8.333415"><ele>148.5</ele><time>2026-05-05T10:28:23.219Z</time></trkpt><trkpt lat="52.0207083" lon="-8.3335867"><ele>151.0</ele><time>2026-05-05T10:28:24.22Z</time></trkpt><trkpt lat="52.0204283" lon="-8.3337633"><ele>151.5</ele><time>2026-05-05T10:28:25.22Z</time></trkpt><trkpt lat="52.020155" lon="-8.333935"><ele>152.0</ele><time>2026-05-05T10:28:26.22Z</time></trkpt><trkpt lat="52.0198717" lon="-8.334105"><ele>154.5</ele><time>2026-05-05T10:28:27.219Z</time></trkpt><trkpt lat="52.019575" lon="-8.3342767"><ele>157.0</ele><time>2026-05-05T10:28:28.22Z</time></trkpt><trkpt lat="52.0192883" lon="-8.3344417"><ele>159.5</ele><time>2026-05-05T10:28:29.22Z</time></trkpt><trkpt lat="52.01902" lon="-8.3346133"><ele>162.0</ele><time>2026-05-05T10:28:30.22Z</time></trkpt><trkpt lat="52.0187317" lon="-8.3347583"><ele>162.5</ele><time>2026-05-05T10:28:31.22Z</time></trkpt><trkpt lat="52.01845" lon="-8.33491"><ele>163.0</ele><time>2026-05-05T10:28:32.22Z</time></trkpt><trkpt lat="52.018145" lon="-8.33506"><ele>165.0</ele><time>2026-05-05T10:28:33.219Z</time></trkpt><trkpt lat="52.0178317" lon="-8.3352183"><ele>167.0</ele><time>2026-05-05T10:28:34.22Z</time></trkpt><trkpt lat="52.0175067" lon="-8.335375"><ele>168.5</ele><time>2026-05-05T10:28:35.22Z</time></trkpt><trkpt lat="52.017175" lon="-8.3355283"><ele>170.0</ele><time>2026-05-05T10:28:36.22Z</time></trkpt><trkpt lat="52.0168517" lon="-8.3357"><ele>172.5</ele><time>2026-05-05T10:28:37.22Z</time></trkpt><trkpt lat="52.0165117" lon="-8.335865"><ele>175.0</ele><time>2026-05-05T10:28:38.22Z</time></trkpt><trkpt lat="52.0161733" lon="-8.3360467"><ele>175.0</ele><time>2026-05-05T10:28:39.22Z</time></trkpt><trkpt lat="52.01583" lon="-8.3362333"><ele>175.0</ele><time>2026-05-05T10:28:40.219Z</time></trkpt><trkpt lat="52.015485" lon="-8.3364233"><ele>177.0</ele><time>2026-05-05T10:28:41.22Z</time></trkpt><trkpt lat="52.0151467" lon="-8.3366167"><ele>179.0</ele><time>2026-05-05T10:28:42.22Z</time></trkpt><trkpt lat="52.0148233" lon="-8.3368083"><ele>179.0</ele><time>2026-05-05T10:28:43.219Z</time></trkpt><trkpt lat="52.0145033" lon="-8.3369983"><ele>179.0</ele><time>2026-05-05T10:28:44.219Z</time></trkpt><trkpt lat="52.0141733" lon="-8.3371783"><ele>176.5</ele><time>2026-05-05T10:28:45.219Z</time></trkpt><trkpt lat="52.0138433" lon="-8.3373683"><ele>174.0</ele><time>2026-05-05T10:28:46.22Z</time></trkpt><trkpt lat="52.0135217" lon="-8.337565"><ele>172.5</ele><time>2026-05-05T10:28:47.22Z</time></trkpt><trkpt lat="52.0132017" lon="-8.3377617"><ele>171.0</ele><time>2026-05-05T10:28:48.219Z</time></trkpt><trkpt lat="52.0128683" lon="-8.3379567"><ele>171.5</ele><time>2026-05-05T10:28:49.22Z</time></trkpt><trkpt lat="52.0125417" lon="-8.33816"><ele>172.0</ele><time>2026-05-05T10:28:50.22Z</time></trkpt><trkpt lat="52.0122117" lon="-8.33836"><ele>171.0</ele><time>2026-05-05T10:28:51.22Z</time></trkpt><trkpt lat="52.01189" lon="-8.3385617"><ele>170.0</ele><time>2026-05-05T10:28:52.219Z</time></trkpt><trkpt lat="52.0115683" lon="-8.3387617"><ele>170.0</ele><time>2026-05-05T10:28:53.22Z</time></trkpt><trkpt lat="52.011245" lon="-8.3389617"><ele>170.0</ele><time>2026-05-05T10:28:54.22Z</time></trkpt><trkpt lat="52.0109267" lon="-8.3391717"><ele>173.0</ele><time>2026-05-05T10:28:55.22Z</time></trkpt><trkpt lat="52.0106083" lon="-8.3393767"><ele>176.0</ele><time>2026-05-05T10:28:56.22Z</time></trkpt><trkpt lat="52.0102833" lon="-8.3395867"><ele>177.0</ele><time>2026-05-05T10:28:57.219Z</time></trkpt><trkpt lat="52.009965" lon="-8.3398033"><ele>178.0</ele><time>2026-05-05T10:28:58.219Z</time></trkpt><trkpt lat="52.009665" lon="-8.3400283"><ele>178.0</ele><time>2026-05-05T10:28:59.22Z</time></trkpt><trkpt lat="52.0094117" lon="-8.3402033"><ele>178.0</ele><time>2026-05-05T10:29:00.22Z</time></trkpt><trkpt lat="52.0091867" lon="-8.3403467"><ele>177.66666666666669</ele><time>2026-05-05T10:29:01.22Z</time></trkpt><trkpt lat="52.0089833" lon="-8.340495"><ele>177.33333333333334</ele><time>2026-05-05T10:29:02.219Z</time></trkpt><trkpt lat="52.008805" lon="-8.3406483"><ele>177.0</ele><time>2026-05-05T10:29:03.219Z</time></trkpt><trkpt lat="52.0086133" lon="-8.3407717"><ele>177.0</ele><time>2026-05-05T10:29:04.22Z</time></trkpt><trkpt lat="52.0084167" lon="-8.340905"><ele>177.0</ele><time>2026-05-05T10:29:05.219Z</time></trkpt><trkpt lat="52.0082117" lon="-8.3410433"><ele>177.0</ele><time>2026-05-05T10:29:06.22Z</time></trkpt><trkpt lat="52.00801" lon="-8.3411917"><ele>177.0</ele><time>2026-05-05T10:29:07.22Z</time></trkpt><trkpt lat="52.0078167" lon="-8.341345"><ele>177.0</ele><time>2026-05-05T10:29:08.22Z</time></trkpt><trkpt lat="52.0076183" lon="-8.3414917"><ele>177.0</ele><time>2026-05-05T10:29:09.22Z</time></trkpt><trkpt lat="52.007405" lon="-8.34163"><ele>177.0</ele><time>2026-05-05T10:29:10.22Z</time></trkpt><trkpt lat="52.0071917" lon="-8.3417733"><ele>177.0</ele><time>2026-05-05T10:29:11.219Z</time></trkpt><trkpt lat="52.0069683" lon="-8.3419217"><ele>177.0</ele><time>2026-05-05T10:29:12.219Z</time></trkpt><trkpt lat="52.006745" lon="-8.34207"><ele>177.0</ele><time>2026-05-05T10:29:13.22Z</time></trkpt><trkpt lat="52.0065267" lon="-8.3422333"><ele>176.0</ele><time>2026-05-05T10:29:14.219Z</time></trkpt><trkpt lat="52.0063083" lon="-8.3423967"><ele>175.0</ele><time>2026-05-05T10:29:15.22Z</time></trkpt><trkpt lat="52.0060933" lon="-8.3425683"><ele>175.0</ele><time>2026-05-05T10:29:16.219Z</time></trkpt><trkpt lat="52.0058817" lon="-8.3427467"><ele>175.0</ele><time>2026-05-05T10:29:17.22Z</time></trkpt><trkpt lat="52.005665" lon="-8.34292"><ele>173.0</ele><time>2026-05-05T10:29:18.22Z</time></trkpt><trkpt lat="52.0054383" lon="-8.34311"><ele>171.0</ele><time>2026-05-05T10:29:19.22Z</time></trkpt><trkpt lat="52.0052167" lon="-8.343295"><ele>171.0</ele><time>2026-05-05T10:29:20.22Z</time></trkpt><trkpt lat="52.0050033" lon="-8.3434733"><ele>171.0</ele><time>2026-05-05T10:29:21.219Z</time></trkpt><trkpt lat="52.0047867" lon="-8.3436567"><ele>169.5</ele><time>2026-05-05T10:29:22.219Z</time></trkpt><trkpt lat="52.004575" lon="-8.3438483"><ele>168.0</ele><time>2026-05-05T10:29:23.219Z</time></trkpt><trkpt lat="52.004375" lon="-8.3440483"><ele>167.66666666666666</ele><time>2026-05-05T10:29:24.22Z</time></trkpt><trkpt lat="52.00418" lon="-8.3442367"><ele>167.33333333333331</ele><time>2026-05-05T10:29:25.22Z</time></trkpt><trkpt lat="52.0039883" lon="-8.3444167"><ele>167.0</ele><time>2026-05-05T10:29:26.22Z</time></trkpt><trkpt lat="52.0038083" lon="-8.344605"><ele>166.0</ele><time>2026-05-05T10:29:27.219Z</time></trkpt><trkpt lat="52.0036283" lon="-8.3447817"><ele>165.0</ele><time>2026-05-05T10:29:28.22Z</time></trkpt><trkpt lat="52.0034483" lon="-8.3449683"><ele>164.0</ele><time>2026-05-05T10:29:29.219Z</time></trkpt><trkpt lat="52.0032667" lon="-8.3451517"><ele>163.33333333333331</ele><time>2026-05-05T10:29:30.219Z</time></trkpt><trkpt lat="52.0030867" lon="-8.3453367"><ele>162.66666666666666</ele><time>2026-05-05T10:29:31.22Z</time></trkpt><trkpt lat="52.0029033" lon="-8.3455267"><ele>162.0</ele><time>2026-05-05T10:29:32.22Z</time></trkpt><trkpt lat="52.0027233" lon="-8.3457217"><ele>161.66666666666666</ele><time>2026-05-05T10:29:33.22Z</time></trkpt><trkpt lat="52.0025367" lon="-8.3459183"><ele>161.33333333333331</ele><time>2026-05-05T10:29:34.219Z</time></trkpt><trkpt lat="52.0023467" lon="-8.34612"><ele>161.0</ele><time>2026-05-05T10:29:35.22Z</time></trkpt><trkpt lat="52.0021567" lon="-8.3463167"><ele>158.5</ele><time>2026-05-05T10:29:36.22Z</time></trkpt><trkpt lat="52.0019617" lon="-8.3465317"><ele>156.0</ele><time>2026-05-05T10:29:37.22Z</time></trkpt><trkpt lat="52.0017583" lon="-8.3467467"><ele>154.0</ele><time>2026-05-05T10:29:38.22Z</time></trkpt><trkpt lat="52.001575" lon="-8.3469767"><ele>152.0</ele><time>2026-05-05T10:29:39.219Z</time></trkpt><trkpt lat="52.0013917" lon="-8.34722"><ele>151.5</ele><time>2026-05-05T10:29:40.22Z</time></trkpt><trkpt lat="52.00119" lon="-8.3474483"><ele>151.0</ele><time>2026-05-05T10:29:41.219Z</time></trkpt><trkpt lat="52.0009833" lon="-8.347675"><ele>149.0</ele><time>2026-05-05T10:29:42.219Z</time></trkpt><trkpt lat="52.0007867" lon="-8.3479233"><ele>147.0</ele><time>2026-05-05T10:29:43.219Z</time></trkpt><trkpt lat="52.0005917" lon="-8.3481767"><ele>147.0</ele><time>2026-05-05T10:29:44.22Z</time></trkpt><trkpt lat="52.0003933" lon="-8.3484467"><ele>147.0</ele><time>2026-05-05T10:29:45.22Z</time></trkpt><trkpt lat="52.00019" lon="-8.34871"><ele>147.0</ele><time>2026-05-05T10:29:46.22Z</time></trkpt><trkpt lat="51.9999833" lon="-8.3489733"><ele>147.0</ele><time>2026-05-05T10:29:47.219Z</time></trkpt><trkpt lat="51.9997717" lon="-8.3492333"><ele>147.0</ele><time>2026-05-05T10:29:48.219Z</time></trkpt><trkpt lat="51.9995667" lon="-8.3494983"><ele>147.0</ele><time>2026-05-05T10:29:49.219Z</time></trkpt><trkpt lat="51.9993667" lon="-8.3497683"><ele>146.0</ele><time>2026-05-05T10:29:50.22Z</time></trkpt><trkpt lat="51.999175" lon="-8.3500367"><ele>145.0</ele><time>2026-05-05T10:29:51.219Z</time></trkpt><trkpt lat="51.99898" lon="-8.3502983"><ele>142.5</ele><time>2026-05-05T10:29:52.22Z</time></trkpt><trkpt lat="51.998795" lon="-8.3505717"><ele>140.0</ele><time>2026-05-05T10:29:53.219Z</time></trkpt><trkpt lat="51.998605" lon="-8.3508483"><ele>140.0</ele><time>2026-05-05T10:29:54.22Z</time></trkpt><trkpt lat="51.9984067" lon="-8.3511283"><ele>140.0</ele><time>2026-05-05T10:29:55.22Z</time></trkpt><trkpt lat="51.9982133" lon="-8.3514167"><ele>142.0</ele><time>2026-05-05T10:29:56.22Z</time></trkpt><trkpt lat="51.9980117" lon="-8.3517083"><ele>144.0</ele><time>2026-05-05T10:29:57.22Z</time></trkpt><trkpt lat="51.9978183" lon="-8.351995"><ele>143.5</ele><time>2026-05-05T10:29:58.219Z</time></trkpt><trkpt lat="51.9976133" lon="-8.3522867"><ele>143.0</ele><time>2026-05-05T10:29:59.22Z</time></trkpt><trkpt lat="51.997415" lon="-8.3525833"><ele>144.0</ele><time>2026-05-05T10:30:00.219Z</time></trkpt><trkpt lat="51.99722" lon="-8.3528817"><ele>145.0</ele><time>2026-05-05T10:30:01.219Z</time></trkpt><trkpt lat="51.997015" lon="-8.3531733"><ele>145.0</ele><time>2026-05-05T10:30:02.22Z</time></trkpt><trkpt lat="51.996805" lon="-8.3534617"><ele>145.0</ele><time>2026-05-05T10:30:03.22Z</time></trkpt><trkpt lat="51.9965867" lon="-8.3537517"><ele>145.0</ele><time>2026-05-05T10:30:04.22Z</time></trkpt><trkpt lat="51.9963617" lon="-8.3540383"><ele>145.0</ele><time>2026-05-05T10:30:05.219Z</time></trkpt><trkpt lat="51.9961367" lon="-8.3543367"><ele>145.0</ele><time>2026-05-05T10:30:06.22Z</time></trkpt><trkpt lat="51.99591" lon="-8.3546217"><ele>145.0</ele><time>2026-05-05T10:30:07.22Z</time></trkpt><trkpt lat="51.9956867" lon="-8.3548933"><ele>142.0</ele><time>2026-05-05T10:30:08.22Z</time></trkpt><trkpt lat="51.9954617" lon="-8.3551767"><ele>139.0</ele><time>2026-05-05T10:30:09.219Z</time></trkpt><trkpt lat="51.9952283" lon="-8.355445"><ele>136.5</ele><time>2026-05-05T10:30:10.22Z</time></trkpt><trkpt lat="51.9950017" lon="-8.3557233"><ele>134.0</ele><time>2026-05-05T10:30:11.22Z</time></trkpt><trkpt lat="51.9947783" lon="-8.356005"><ele>134.0</ele><time>2026-05-05T10:30:12.219Z</time></trkpt><trkpt lat="51.994555" lon="-8.35631"><ele>134.0</ele><time>2026-05-05T10:30:13.22Z</time></trkpt><trkpt lat="51.9943183" lon="-8.3565767"><ele>132.5</ele><time>2026-05-05T10:30:14.22Z</time></trkpt><trkpt lat="51.9940783" lon="-8.3568633"><ele>131.0</ele><time>2026-05-05T10:30:15.219Z</time></trkpt><trkpt lat="51.993845" lon="-8.357135"><ele>130.0</ele><time>2026-05-05T10:30:16.219Z</time></trkpt><trkpt lat="51.9935983" lon="-8.3574183"><ele>129.0</ele><time>2026-05-05T10:30:17.219Z</time></trkpt><trkpt lat="51.9933533" lon="-8.35769"><ele>128.5</ele><time>2026-05-05T10:30:18.22Z</time></trkpt><trkpt lat="51.9931033" lon="-8.357955"><ele>128.0</ele><time>2026-05-05T10:30:19.22Z</time></trkpt><trkpt lat="51.9928533" lon="-8.35823"><ele>127.5</ele><time>2026-05-05T10:30:20.22Z</time></trkpt><trkpt lat="51.99259" lon="-8.3585"><ele>127.0</ele><time>2026-05-05T10:30:21.219Z</time></trkpt><trkpt lat="51.9923233" lon="-8.3587717"><ele>126.0</ele><time>2026-05-05T10:30:22.219Z</time></trkpt><trkpt lat="51.9920483" lon="-8.3590217"><ele>125.0</ele><time>2026-05-05T10:30:23.22Z</time></trkpt><trkpt lat="51.9917967" lon="-8.3592933"><ele>125.0</ele><time>2026-05-05T10:30:24.22Z</time></trkpt><trkpt lat="51.9915383" lon="-8.3595567"><ele>125.0</ele><time>2026-05-05T10:30:25.22Z</time></trkpt><trkpt lat="51.9912633" lon="-8.3597883"><ele>123.5</ele><time>2026-05-05T10:30:26.22Z</time></trkpt><trkpt lat="51.9909967" lon="-8.36002"><ele>122.0</ele><time>2026-05-05T10:30:27.22Z</time></trkpt><trkpt lat="51.9907467" lon="-8.3602517"><ele>120.5</ele><time>2026-05-05T10:30:28.219Z</time></trkpt><trkpt lat="51.9905" lon="-8.36048"><ele>119.0</ele><time>2026-05-05T10:30:29.219Z</time></trkpt><trkpt lat="51.9902633" lon="-8.360705"><ele>117.5</ele><time>2026-05-05T10:30:30.219Z</time></trkpt><trkpt lat="51.9900183" lon="-8.3609033"><ele>116.0</ele><time>2026-05-05T10:30:31.219Z</time></trkpt><trkpt lat="51.9897683" lon="-8.361105"><ele>115.5</ele><time>2026-05-05T10:30:32.219Z</time></trkpt><trkpt lat="51.989515" lon="-8.3612967"><ele>115.0</ele><time>2026-05-05T10:30:33.219Z</time></trkpt><trkpt lat="51.9892617" lon="-8.3615"><ele>115.0</ele><time>2026-05-05T10:30:34.219Z</time></trkpt><trkpt lat="51.98901" lon="-8.3617033"><ele>115.0</ele><time>2026-05-05T10:30:35.22Z</time></trkpt><trkpt lat="51.9887583" lon="-8.36192"><ele>115.0</ele><time>2026-05-05T10:30:36.219Z</time></trkpt><trkpt lat="51.9884967" lon="-8.362105"><ele>115.0</ele><time>2026-05-05T10:30:37.22Z</time></trkpt><trkpt lat="51.98823" lon="-8.362295"><ele>117.5</ele><time>2026-05-05T10:30:38.22Z</time></trkpt><trkpt lat="51.9879633" lon="-8.3624767"><ele>120.0</ele><time>2026-05-05T10:30:39.22Z</time></trkpt><trkpt lat="51.9877" lon="-8.3626617"><ele>120.5</ele><time>2026-05-05T10:30:40.22Z</time></trkpt><trkpt lat="51.9874417" lon="-8.3628567"><ele>121.0</ele><time>2026-05-05T10:30:41.22Z</time></trkpt><trkpt lat="51.9871783" lon="-8.3630283"><ele>123.5</ele><time>2026-05-05T10:30:42.22Z</time></trkpt><trkpt lat="51.986915" lon="-8.3632"><ele>126.0</ele><time>2026-05-05T10:30:43.219Z</time></trkpt><trkpt lat="51.9866467" lon="-8.363375"><ele>126.5</ele><time>2026-05-05T10:30:44.22Z</time></trkpt><trkpt lat="51.986375" lon="-8.3635383"><ele>127.0</ele><time>2026-05-05T10:30:45.22Z</time></trkpt><trkpt lat="51.9861233" lon="-8.3637117"><ele>130.0</ele><time>2026-05-05T10:30:46.22Z</time></trkpt><trkpt lat="51.9858583" lon="-8.3638717"><ele>133.0</ele><time>2026-05-05T10:30:47.219Z</time></trkpt><trkpt lat="51.9856117" lon="-8.3640267"><ele>133.0</ele><time>2026-05-05T10:30:48.22Z</time></trkpt><trkpt lat="51.98537" lon="-8.3641683"><ele>133.0</ele><time>2026-05-05T10:30:49.22Z</time></trkpt><trkpt lat="51.9851233" lon="-8.364305"><ele>131.0</ele><time>2026-05-05T10:30:50.219Z</time></trkpt><trkpt lat="51.9848733" lon="-8.36444"><ele>129.0</ele><time>2026-05-05T10:30:51.22Z</time></trkpt><trkpt lat="51.9846" lon="-8.3645633"><ele>132.0</ele><time>2026-05-05T10:30:52.22Z</time></trkpt><trkpt lat="51.9843367" lon="-8.3647"><ele>135.0</ele><time>2026-05-05T10:30:53.22Z</time></trkpt><trkpt lat="51.9840767" lon="-8.364835"><ele>135.0</ele><time>2026-05-05T10:30:54.22Z</time></trkpt><trkpt lat="51.98381" lon="-8.364965"><ele>135.0</ele><time>2026-05-05T10:30:55.22Z</time></trkpt><trkpt lat="51.9835433" lon="-8.3651133"><ele>134.5</ele><time>2026-05-05T10:30:56.219Z</time></trkpt><trkpt lat="51.9832733" lon="-8.3652617"><ele>134.0</ele><time>2026-05-05T10:30:57.22Z</time></trkpt><trkpt lat="51.9829983" lon="-8.3654267"><ele>134.5</ele><time>2026-05-05T10:30:58.22Z</time></trkpt><trkpt lat="51.9827217" lon="-8.3655983"><ele>135.0</ele><time>2026-05-05T10:30:59.22Z</time></trkpt><trkpt lat="51.9824483" lon="-8.3657917"><ele>133.0</ele><time>2026-05-05T10:31:00.22Z</time></trkpt><trkpt lat="51.9821767" lon="-8.36598"><ele>131.0</ele><time>2026-05-05T10:31:01.219Z</time></trkpt><trkpt lat="51.9818833" lon="-8.3661533"><ele>130.0</ele><time>2026-05-05T10:31:02.22Z</time></trkpt><trkpt lat="51.9815933" lon="-8.36631"><ele>129.0</ele><time>2026-05-05T10:31:03.22Z</time></trkpt><trkpt lat="51.9813233" lon="-8.3664817"><ele>129.0</ele><time>2026-05-05T10:31:04.219Z</time></trkpt><trkpt lat="51.9810483" lon="-8.3666633"><ele>129.0</ele><time>2026-05-05T10:31:05.219Z</time></trkpt><trkpt lat="51.9807733" lon="-8.366855"><ele>129.0</ele><time>2026-05-05T10:31:06.219Z</time></trkpt><trkpt lat="51.9805017" lon="-8.367055"><ele>129.0</ele><time>2026-05-05T10:31:07.22Z</time></trkpt><trkpt lat="51.9802317" lon="-8.3672633"><ele>129.0</ele><time>2026-05-05T10:31:08.219Z</time></trkpt><trkpt lat="51.9799683" lon="-8.3674683"><ele>129.0</ele><time>2026-05-05T10:31:09.22Z</time></trkpt><trkpt lat="51.9797" lon="-8.3676683"><ele>129.0</ele><time>2026-05-05T10:31:10.22Z</time></trkpt><trkpt lat="51.9794483" lon="-8.3678783"><ele>129.0</ele><time>2026-05-05T10:31:11.219Z</time></trkpt><trkpt lat="51.9792" lon="-8.3680933"><ele>132.0</ele><time>2026-05-05T10:31:12.22Z</time></trkpt><trkpt lat="51.97895" lon="-8.3683083"><ele>135.0</ele><time>2026-05-05T10:31:13.22Z</time></trkpt><trkpt lat="51.9787017" lon="-8.3685317"><ele>135.0</ele><time>2026-05-05T10:31:14.22Z</time></trkpt><trkpt lat="51.9784433" lon="-8.3687617"><ele>135.0</ele><time>2026-05-05T10:31:15.22Z</time></trkpt><trkpt lat="51.97818" lon="-8.3689983"><ele>138.0</ele><time>2026-05-05T10:31:16.22Z</time></trkpt><trkpt lat="51.9779283" lon="-8.3692483"><ele>141.0</ele><time>2026-05-05T10:31:17.22Z</time></trkpt><trkpt lat="51.9776667" lon="-8.36948"><ele>142.0</ele><time>2026-05-05T10:31:18.22Z</time></trkpt><trkpt lat="51.9774067" lon="-8.3697183"><ele>143.0</ele><time>2026-05-05T10:31:19.22Z</time></trkpt><trkpt lat="51.9771633" lon="-8.3699667"><ele>143.0</ele><time>2026-05-05T10:31:20.219Z</time></trkpt><trkpt lat="51.976915" lon="-8.3702083"><ele>143.0</ele><time>2026-05-05T10:31:21.219Z</time></trkpt><trkpt lat="51.9766583" lon="-8.3704667"><ele>143.0</ele><time>2026-05-05T10:31:22.22Z</time></trkpt><trkpt lat="51.9764033" lon="-8.37073"><ele>143.0</ele><time>2026-05-05T10:31:23.22Z</time></trkpt><trkpt lat="51.9761433" lon="-8.3709983"><ele>143.0</ele><time>2026-05-05T10:31:24.22Z</time></trkpt><trkpt lat="51.9758967" lon="-8.3712767"><ele>143.0</ele><time>2026-05-05T10:31:25.22Z</time></trkpt><trkpt lat="51.9756483" lon="-8.371545"><ele>141.5</ele><time>2026-05-05T10:31:26.22Z</time></trkpt><trkpt lat="51.9753933" lon="-8.3718117"><ele>140.0</ele><time>2026-05-05T10:31:27.22Z</time></trkpt><trkpt lat="51.9751433" lon="-8.3720733"><ele>137.5</ele><time>2026-05-05T10:31:28.22Z</time></trkpt><trkpt lat="51.9748983" lon="-8.3723333"><ele>135.0</ele><time>2026-05-05T10:31:29.221Z</time></trkpt><trkpt lat="51.97466" lon="-8.372605"><ele>135.0</ele><time>2026-05-05T10:31:30.22Z</time></trkpt><trkpt lat="51.9744233" lon="-8.3728817"><ele>135.0</ele><time>2026-05-05T10:31:31.22Z</time></trkpt><trkpt lat="51.9741917" lon="-8.373155"><ele>132.0</ele><time>2026-05-05T10:31:32.221Z</time></trkpt><trkpt lat="51.973975" lon="-8.3734217"><ele>129.0</ele><time>2026-05-05T10:31:33.221Z</time></trkpt><trkpt lat="51.9737533" lon="-8.3736867"><ele>128.5</ele><time>2026-05-05T10:31:34.221Z</time></trkpt><trkpt lat="51.9735433" lon="-8.3739483"><ele>128.0</ele><time>2026-05-05T10:31:35.221Z</time></trkpt><trkpt lat="51.973335" lon="-8.3742233"><ele>124.5</ele><time>2026-05-05T10:31:36.221Z</time></trkpt><trkpt lat="51.9731183" lon="-8.3744667"><ele>121.0</ele><time>2026-05-05T10:31:37.22Z</time></trkpt><trkpt lat="51.9729117" lon="-8.37473"><ele>119.0</ele><time>2026-05-05T10:31:38.221Z</time></trkpt><trkpt lat="51.9726983" lon="-8.3750067"><ele>117.0</ele><time>2026-05-05T10:31:39.221Z</time></trkpt><trkpt lat="51.97248" lon="-8.375285"><ele>114.0</ele><time>2026-05-05T10:31:40.221Z</time></trkpt><trkpt lat="51.9722617" lon="-8.3755667"><ele>111.0</ele><time>2026-05-05T10:31:41.221Z</time></trkpt><trkpt lat="51.9720417" lon="-8.3758583"><ele>111.0</ele><time>2026-05-05T10:31:42.221Z</time></trkpt><trkpt lat="51.9718167" lon="-8.376155"><ele>111.0</ele><time>2026-05-05T10:31:43.22Z</time></trkpt><trkpt lat="51.9715983" lon="-8.376465"><ele>108.5</ele><time>2026-05-05T10:31:44.221Z</time></trkpt><trkpt lat="51.9713683" lon="-8.3767683"><ele>106.0</ele><time>2026-05-05T10:31:45.221Z</time></trkpt><trkpt lat="51.9711417" lon="-8.3770833"><ele>105.5</ele><time>2026-05-05T10:31:46.221Z</time></trkpt><trkpt lat="51.9709167" lon="-8.3773967"><ele>105.0</ele><time>2026-05-05T10:31:47.221Z</time></trkpt><trkpt lat="51.9706917" lon="-8.377705"><ele>105.0</ele><time>2026-05-05T10:31:48.221Z</time></trkpt><trkpt lat="51.9704717" lon="-8.3780117"><ele>105.0</ele><time>2026-05-05T10:31:49.221Z</time></trkpt><trkpt lat="51.9702433" lon="-8.378315"><ele>104.5</ele><time>2026-05-05T10:31:50.221Z</time></trkpt><trkpt lat="51.9700167" lon="-8.3786117"><ele>104.0</ele><time>2026-05-05T10:31:51.221Z</time></trkpt><trkpt lat="51.9697833" lon="-8.3789033"><ele>102.0</ele><time>2026-05-05T10:31:52.221Z</time></trkpt><trkpt lat="51.9695483" lon="-8.3791833"><ele>100.0</ele><time>2026-05-05T10:31:53.221Z</time></trkpt><trkpt lat="51.9693183" lon="-8.37947"><ele>97.0</ele><time>2026-05-05T10:31:54.221Z</time></trkpt><trkpt lat="51.969085" lon="-8.3797433"><ele>94.0</ele><time>2026-05-05T10:31:55.22Z</time></trkpt><trkpt lat="51.9688483" lon="-8.3800083"><ele>94.0</ele><time>2026-05-05T10:31:56.22Z</time></trkpt><trkpt lat="51.9686017" lon="-8.3802783"><ele>94.0</ele><time>2026-05-05T10:31:57.221Z</time></trkpt><trkpt lat="51.9683567" lon="-8.3805533"><ele>91.0</ele><time>2026-05-05T10:31:58.22Z</time></trkpt><trkpt lat="51.96812" lon="-8.3808233"><ele>88.0</ele><time>2026-05-05T10:31:59.221Z</time></trkpt><trkpt lat="51.96789" lon="-8.3810817"><ele>88.0</ele><time>2026-05-05T10:32:00.221Z</time></trkpt><trkpt lat="51.9676583" lon="-8.38134"><ele>88.0</ele><time>2026-05-05T10:32:01.22Z</time></trkpt><trkpt lat="51.9674133" lon="-8.3816083"><ele>84.0</ele><time>2026-05-05T10:32:02.22Z</time></trkpt><trkpt lat="51.9671733" lon="-8.3818617"><ele>80.0</ele><time>2026-05-05T10:32:03.221Z</time></trkpt><trkpt lat="51.96693" lon="-8.382105"><ele>79.0</ele><time>2026-05-05T10:32:04.22Z</time></trkpt><trkpt lat="51.96669" lon="-8.3823517"><ele>78.0</ele><time>2026-05-05T10:32:05.22Z</time></trkpt><trkpt lat="51.9664467" lon="-8.3826017"><ele>78.0</ele><time>2026-05-05T10:32:06.22Z</time></trkpt><trkpt lat="51.966205" lon="-8.382845"><ele>78.0</ele><time>2026-05-05T10:32:07.221Z</time></trkpt><trkpt lat="51.965955" lon="-8.3830817"><ele>82.0</ele><time>2026-05-05T10:32:08.221Z</time></trkpt><trkpt lat="51.9657117" lon="-8.3833083"><ele>86.0</ele><time>2026-05-05T10:32:09.221Z</time></trkpt><trkpt lat="51.9654633" lon="-8.38354"><ele>86.0</ele><time>2026-05-05T10:32:10.221Z</time></trkpt><trkpt lat="51.9652083" lon="-8.3837683"><ele>86.0</ele><time>2026-05-05T10:32:11.221Z</time></trkpt><trkpt lat="51.964955" lon="-8.384"><ele>88.0</ele><time>2026-05-05T10:32:12.221Z</time></trkpt><trkpt lat="51.9646817" lon="-8.3842083"><ele>90.0</ele><time>2026-05-05T10:32:13.221Z</time></trkpt><trkpt lat="51.9644033" lon="-8.3844067"><ele>89.0</ele><time>2026-05-05T10:32:14.221Z</time></trkpt><trkpt lat="51.9641167" lon="-8.3845833"><ele>88.0</ele><time>2026-05-05T10:32:15.221Z</time></trkpt><trkpt lat="51.9638333" lon="-8.3847367"><ele>88.0</ele><time>2026-05-05T10:32:16.221Z</time></trkpt><trkpt lat="51.963555" lon="-8.384895"><ele>88.0</ele><time>2026-05-05T10:32:17.221Z</time></trkpt><trkpt lat="51.9632733" lon="-8.3850467"><ele>82.0</ele><time>2026-05-05T10:32:18.221Z</time></trkpt><trkpt lat="51.962995" lon="-8.3851933"><ele>76.0</ele><time>2026-05-05T10:32:19.221Z</time></trkpt><trkpt lat="51.9627183" lon="-8.3853417"><ele>74.5</ele><time>2026-05-05T10:32:20.221Z</time></trkpt><trkpt lat="51.962435" lon="-8.3854617"><ele>73.0</ele><time>2026-05-05T10:32:21.221Z</time></trkpt><trkpt lat="51.9621467" lon="-8.3855717"><ele>76.5</ele><time>2026-05-05T10:32:22.22Z</time></trkpt><trkpt lat="51.9618583" lon="-8.3856583"><ele>80.0</ele><time>2026-05-05T10:32:23.221Z</time></trkpt><trkpt lat="51.961565" lon="-8.3857667"><ele>83.0</ele><time>2026-05-05T10:32:24.221Z</time></trkpt><trkpt lat="51.96128" lon="-8.3858633"><ele>86.0</ele><time>2026-05-05T10:32:25.22Z</time></trkpt><trkpt lat="51.961" lon="-8.3859517"><ele>88.0</ele><time>2026-05-05T10:32:26.221Z</time></trkpt><trkpt lat="51.960715" lon="-8.38604"><ele>90.0</ele><time>2026-05-05T10:32:27.221Z</time></trkpt><trkpt lat="51.960425" lon="-8.3861383"><ele>90.0</ele><time>2026-05-05T10:32:28.221Z</time></trkpt><trkpt lat="51.9601517" lon="-8.3862467"><ele>90.0</ele><time>2026-05-05T10:32:29.221Z</time></trkpt><trkpt lat="51.9598783" lon="-8.3863667"><ele>90.5</ele><time>2026-05-05T10:32:30.22Z</time></trkpt><trkpt lat="51.9596067" lon="-8.3864933"><ele>91.0</ele><time>2026-05-05T10:32:31.22Z</time></trkpt><trkpt lat="51.9593417" lon="-8.3866317"><ele>89.5</ele><time>2026-05-05T10:32:32.221Z</time></trkpt><trkpt lat="51.95907" lon="-8.38678"><ele>88.0</ele><time>2026-05-05T10:32:33.22Z</time></trkpt><trkpt lat="51.9588017" lon="-8.3869383"><ele>88.0</ele><time>2026-05-05T10:32:34.221Z</time></trkpt><trkpt lat="51.95854" lon="-8.3870933"><ele>88.0</ele><time>2026-05-05T10:32:35.221Z</time></trkpt><trkpt lat="51.9582767" lon="-8.387245"><ele>89.0</ele><time>2026-05-05T10:32:36.221Z</time></trkpt><trkpt lat="51.958005" lon="-8.387385"><ele>90.0</ele><time>2026-05-05T10:32:37.22Z</time></trkpt><trkpt lat="51.9577317" lon="-8.38755"><ele>89.5</ele><time>2026-05-05T10:32:38.221Z</time></trkpt><trkpt lat="51.9574617" lon="-8.38772"><ele>89.0</ele><time>2026-05-05T10:32:39.221Z</time></trkpt><trkpt lat="51.95721" lon="-8.387895"><ele>89.0</ele><time>2026-05-05T10:32:40.221Z</time></trkpt><trkpt lat="51.95696" lon="-8.38808"><ele>89.0</ele><time>2026-05-05T10:32:41.22Z</time></trkpt><trkpt lat="51.9566983" lon="-8.3882383"><ele>87.0</ele><time>2026-05-05T10:32:42.221Z</time></trkpt><trkpt lat="51.9564483" lon="-8.3884233"><ele>85.0</ele><time>2026-05-05T10:32:43.221Z</time></trkpt><trkpt lat="51.9561883" lon="-8.3886"><ele>85.0</ele><time>2026-05-05T10:32:44.221Z</time></trkpt><trkpt lat="51.9559383" lon="-8.38878"><ele>85.0</ele><time>2026-05-05T10:32:45.221Z</time></trkpt><trkpt lat="51.9557117" lon="-8.38897"><ele>83.0</ele><time>2026-05-05T10:32:46.221Z</time></trkpt><trkpt lat="51.955435" lon="-8.3891233"><ele>81.0</ele><time>2026-05-05T10:32:47.221Z</time></trkpt><trkpt lat="51.9551667" lon="-8.389265"><ele>79.0</ele><time>2026-05-05T10:32:48.221Z</time></trkpt><trkpt lat="51.9548783" lon="-8.3894033"><ele>77.0</ele><time>2026-05-05T10:32:49.221Z</time></trkpt><trkpt lat="51.954585" lon="-8.389535"><ele>77.0</ele><time>2026-05-05T10:32:50.221Z</time></trkpt><trkpt lat="51.954285" lon="-8.3896533"><ele>77.0</ele><time>2026-05-05T10:32:51.221Z</time></trkpt><trkpt lat="51.9540017" lon="-8.3897683"><ele>75.0</ele><time>2026-05-05T10:32:52.22Z</time></trkpt><trkpt lat="51.953705" lon="-8.3898633"><ele>73.0</ele><time>2026-05-05T10:32:53.22Z</time></trkpt><trkpt lat="51.9534183" lon="-8.3899733"><ele>72.5</ele><time>2026-05-05T10:32:54.22Z</time></trkpt><trkpt lat="51.9531183" lon="-8.3900583"><ele>72.0</ele><time>2026-05-05T10:32:55.22Z</time></trkpt><trkpt lat="51.952825" lon="-8.3901417"><ele>72.0</ele><time>2026-05-05T10:32:56.22Z</time></trkpt><trkpt lat="51.9525267" lon="-8.3902017"><ele>72.0</ele><time>2026-05-05T10:32:57.22Z</time></trkpt><trkpt lat="51.9522283" lon="-8.3902667"><ele>72.0</ele><time>2026-05-05T10:32:58.22Z</time></trkpt><trkpt lat="51.9519267" lon="-8.39032"><ele>72.0</ele><time>2026-05-05T10:32:59.221Z</time></trkpt><trkpt lat="51.95163" lon="-8.390355"><ele>72.0</ele><time>2026-05-05T10:33:00.22Z</time></trkpt><trkpt lat="51.9513317" lon="-8.3904033"><ele>72.0</ele><time>2026-05-05T10:33:01.221Z</time></trkpt><trkpt lat="51.9510417" lon="-8.390425"><ele>73.0</ele><time>2026-05-05T10:33:02.221Z</time></trkpt><trkpt lat="51.9507367" lon="-8.39047"><ele>74.0</ele><time>2026-05-05T10:33:03.221Z</time></trkpt><trkpt lat="51.9504417" lon="-8.3905283"><ele>73.5</ele><time>2026-05-05T10:33:04.221Z</time></trkpt><trkpt lat="51.9501533" lon="-8.3905967"><ele>73.0</ele><time>2026-05-05T10:33:05.221Z</time></trkpt><trkpt lat="51.94987" lon="-8.3906733"><ele>73.0</ele><time>2026-05-05T10:33:06.22Z</time></trkpt><trkpt lat="51.949605" lon="-8.3907817"><ele>73.0</ele><time>2026-05-05T10:33:07.22Z</time></trkpt><trkpt lat="51.9493333" lon="-8.39088"><ele>74.5</ele><time>2026-05-05T10:33:08.221Z</time></trkpt><trkpt lat="51.949085" lon="-8.39099"><ele>76.0</ele><time>2026-05-05T10:33:09.221Z</time></trkpt><trkpt lat="51.948855" lon="-8.391155"><ele>76.0</ele><time>2026-05-05T10:33:10.221Z</time></trkpt><trkpt lat="51.9486217" lon="-8.39133"><ele>76.0</ele><time>2026-05-05T10:33:11.221Z</time></trkpt><trkpt lat="51.948375" lon="-8.3914717"><ele>75.5</ele><time>2026-05-05T10:33:12.221Z</time></trkpt><trkpt lat="51.9481317" lon="-8.3916383"><ele>75.0</ele><time>2026-05-05T10:33:13.22Z</time></trkpt><trkpt lat="51.9478817" lon="-8.3918"><ele>75.0</ele><time>2026-05-05T10:33:14.221Z</time></trkpt><trkpt lat="51.9476217" lon="-8.3919817"><ele>75.0</ele><time>2026-05-05T10:33:15.221Z</time></trkpt><trkpt lat="51.9473633" lon="-8.392155"><ele>73.5</ele><time>2026-05-05T10:33:16.221Z</time></trkpt><trkpt lat="51.9471067" lon="-8.3923383"><ele>72.0</ele><time>2026-05-05T10:33:17.221Z</time></trkpt><trkpt lat="51.946845" lon="-8.3924983"><ele>71.5</ele><time>2026-05-05T10:33:18.22Z</time></trkpt><trkpt lat="51.9465833" lon="-8.3926317"><ele>71.0</ele><time>2026-05-05T10:33:19.22Z</time></trkpt><trkpt lat="51.9463133" lon="-8.3927533"><ele>71.0</ele><time>2026-05-05T10:33:20.22Z</time></trkpt><trkpt lat="51.9460217" lon="-8.3928083"><ele>71.0</ele><time>2026-05-05T10:33:21.22Z</time></trkpt><trkpt lat="51.9457617" lon="-8.392875"><ele>70.0</ele><time>2026-05-05T10:33:22.221Z</time></trkpt><trkpt lat="51.94553" lon="-8.3929367"><ele>69.0</ele><time>2026-05-05T10:33:23.221Z</time></trkpt><trkpt lat="51.9452717" lon="-8.3929483"><ele>66.0</ele><time>2026-05-05T10:33:24.22Z</time></trkpt><trkpt lat="51.9450317" lon="-8.3929467"><ele>63.0</ele><time>2026-05-05T10:33:25.221Z</time></trkpt><trkpt lat="51.94479" lon="-8.39292"><ele>63.0</ele><time>2026-05-05T10:33:26.22Z</time></trkpt><trkpt lat="51.9445633" lon="-8.3928783"><ele>63.0</ele><time>2026-05-05T10:33:27.221Z</time></trkpt><trkpt lat="51.9443417" lon="-8.3927967"><ele>60.5</ele><time>2026-05-05T10:33:28.221Z</time></trkpt><trkpt lat="51.9441283" lon="-8.392725"><ele>58.0</ele><time>2026-05-05T10:33:29.22Z</time></trkpt><trkpt lat="51.9439017" lon="-8.3926433"><ele>58.0</ele><time>2026-05-05T10:33:30.221Z</time></trkpt><trkpt lat="51.9437033" lon="-8.3925417"><ele>58.0</ele><time>2026-05-05T10:33:31.221Z</time></trkpt><trkpt lat="51.9435017" lon="-8.3924433"><ele>58.0</ele><time>2026-05-05T10:33:32.221Z</time></trkpt><trkpt lat="51.9432933" lon="-8.3923367"><ele>57.33333333333333</ele><time>2026-05-05T10:33:33.221Z</time></trkpt><trkpt lat="51.9430933" lon="-8.3922017"><ele>56.66666666666667</ele><time>2026-05-05T10:33:34.221Z</time></trkpt><trkpt lat="51.942905" lon="-8.39206"><ele>56.0</ele><time>2026-05-05T10:33:35.221Z</time></trkpt><trkpt lat="51.94273" lon="-8.391895"><ele>56.0</ele><time>2026-05-05T10:33:36.221Z</time></trkpt><trkpt lat="51.9425583" lon="-8.39174"><ele>56.0</ele><time>2026-05-05T10:33:37.22Z</time></trkpt><trkpt lat="51.9423867" lon="-8.391575"><ele>56.0</ele><time>2026-05-05T10:33:38.221Z</time></trkpt><trkpt lat="51.942195" lon="-8.391385"><ele>54.5</ele><time>2026-05-05T10:33:39.221Z</time></trkpt><trkpt lat="51.9420017" lon="-8.3911433"><ele>53.0</ele><time>2026-05-05T10:33:40.221Z</time></trkpt><trkpt lat="51.9417967" lon="-8.3909083"><ele>51.0</ele><time>2026-05-05T10:33:41.221Z</time></trkpt><trkpt lat="51.9415883" lon="-8.3906533"><ele>49.0</ele><time>2026-05-05T10:33:42.221Z</time></trkpt><trkpt lat="51.9413883" lon="-8.3903633"><ele>49.0</ele><time>2026-05-05T10:33:43.221Z</time></trkpt><trkpt lat="51.9411867" lon="-8.3900433"><ele>49.0</ele><time>2026-05-05T10:33:44.22Z</time></trkpt><trkpt lat="51.941" lon="-8.3897117"><ele>48.0</ele><time>2026-05-05T10:33:45.22Z</time></trkpt><trkpt lat="51.9408333" lon="-8.38937"><ele>47.0</ele><time>2026-05-05T10:33:46.22Z</time></trkpt><trkpt lat="51.94066" lon="-8.3890317"><ele>46.5</ele><time>2026-05-05T10:33:47.22Z</time></trkpt><trkpt lat="51.9404867" lon="-8.3886883"><ele>46.0</ele><time>2026-05-05T10:33:48.22Z</time></trkpt><trkpt lat="51.9403133" lon="-8.38835"><ele>46.0</ele><time>2026-05-05T10:33:49.22Z</time></trkpt><trkpt lat="51.9401383" lon="-8.3880367"><ele>46.0</ele><time>2026-05-05T10:33:50.22Z</time></trkpt><trkpt lat="51.9399533" lon="-8.3877233"><ele>42.0</ele><time>2026-05-05T10:33:51.22Z</time></trkpt><trkpt lat="51.93976" lon="-8.387425"><ele>38.0</ele><time>2026-05-05T10:33:52.221Z</time></trkpt><trkpt lat="51.9395567" lon="-8.38714"><ele>36.5</ele><time>2026-05-05T10:33:53.221Z</time></trkpt><trkpt lat="51.93936" lon="-8.3868633"><ele>35.0</ele><time>2026-05-05T10:33:54.22Z</time></trkpt><trkpt lat="51.93917" lon="-8.3866367"><ele>35.0</ele><time>2026-05-05T10:33:55.221Z</time></trkpt><trkpt lat="51.9389483" lon="-8.3863817"><ele>35.0</ele><time>2026-05-05T10:33:56.22Z</time></trkpt><trkpt lat="51.9387083" lon="-8.38616"><ele>34.0</ele><time>2026-05-05T10:33:57.221Z</time></trkpt><trkpt lat="51.9384917" lon="-8.3859233"><ele>33.0</ele><time>2026-05-05T10:33:58.221Z</time></trkpt><trkpt lat="51.93825" lon="-8.3857167"><ele>30.5</ele><time>2026-05-05T10:33:59.22Z</time></trkpt><trkpt lat="51.9380067" lon="-8.3855117"><ele>28.0</ele><time>2026-05-05T10:34:00.22Z</time></trkpt><trkpt lat="51.93775" lon="-8.3853417"><ele>29.0</ele><time>2026-05-05T10:34:01.22Z</time></trkpt><trkpt lat="51.9375133" lon="-8.385165"><ele>30.0</ele><time>2026-05-05T10:34:02.221Z</time></trkpt><trkpt lat="51.9372883" lon="-8.385005"><ele>30.0</ele><time>2026-05-05T10:34:03.221Z</time></trkpt><trkpt lat="51.9370667" lon="-8.384795"><ele>30.0</ele><time>2026-05-05T10:34:04.22Z</time></trkpt><trkpt lat="51.93684" lon="-8.3845667"><ele>29.0</ele><time>2026-05-05T10:34:05.221Z</time></trkpt><trkpt lat="51.936615" lon="-8.3843033"><ele>28.0</ele><time>2026-05-05T10:34:06.22Z</time></trkpt><trkpt lat="51.9364167" lon="-8.3840083"><ele>29.5</ele><time>2026-05-05T10:34:07.22Z</time></trkpt><trkpt lat="51.9362133" lon="-8.3836983"><ele>31.0</ele><time>2026-05-05T10:34:08.221Z</time></trkpt><trkpt lat="51.9360217" lon="-8.383375"><ele>30.0</ele><time>2026-05-05T10:34:09.22Z</time></trkpt><trkpt lat="51.9358367" lon="-8.3830283"><ele>29.0</ele><time>2026-05-05T10:34:10.221Z</time></trkpt><trkpt lat="51.9356733" lon="-8.3826667"><ele>31.5</ele><time>2026-05-05T10:34:11.22Z</time></trkpt><trkpt lat="51.9355117" lon="-8.3822783"><ele>34.0</ele><time>2026-05-05T10:34:12.22Z</time></trkpt><trkpt lat="51.9353567" lon="-8.381885"><ele>36.5</ele><time>2026-05-05T10:34:13.221Z</time></trkpt><trkpt lat="51.9352383" lon="-8.3814867"><ele>39.0</ele><time>2026-05-05T10:34:14.22Z</time></trkpt><trkpt lat="51.935115" lon="-8.3810783"><ele>39.0</ele><time>2026-05-05T10:34:15.221Z</time></trkpt><trkpt lat="51.9349983" lon="-8.38065"><ele>39.0</ele><time>2026-05-05T10:34:16.22Z</time></trkpt><trkpt lat="51.9348967" lon="-8.3802067"><ele>39.0</ele><time>2026-05-05T10:34:17.221Z</time></trkpt><trkpt lat="51.9348017" lon="-8.3797733"><ele>39.0</ele><time>2026-05-05T10:34:18.22Z</time></trkpt><trkpt lat="51.9347183" lon="-8.3793517"><ele>40.5</ele><time>2026-05-05T10:34:19.22Z</time></trkpt><trkpt lat="51.9346317" lon="-8.3789467"><ele>42.0</ele><time>2026-05-05T10:34:20.221Z</time></trkpt><trkpt lat="51.9345433" lon="-8.378545"><ele>43.0</ele><time>2026-05-05T10:34:21.221Z</time></trkpt><trkpt lat="51.9344317" lon="-8.3781583"><ele>44.0</ele><time>2026-05-05T10:34:22.221Z</time></trkpt><trkpt lat="51.9343033" lon="-8.377775"><ele>40.5</ele><time>2026-05-05T10:34:23.221Z</time></trkpt><trkpt lat="51.9341633" lon="-8.3774033"><ele>37.0</ele><time>2026-05-05T10:34:24.221Z</time></trkpt><trkpt lat="51.9340233" lon="-8.3770517"><ele>37.0</ele><time>2026-05-05T10:34:25.221Z</time></trkpt><trkpt lat="51.9338683" lon="-8.37673"><ele>37.0</ele><time>2026-05-05T10:34:26.22Z</time></trkpt><trkpt lat="51.9336933" lon="-8.3764067"><ele>37.5</ele><time>2026-05-05T10:34:27.221Z</time></trkpt><trkpt lat="51.93351" lon="-8.3761117"><ele>38.0</ele><time>2026-05-05T10:34:28.221Z</time></trkpt><trkpt lat="51.93328" lon="-8.37583"><ele>37.0</ele><time>2026-05-05T10:34:29.221Z</time></trkpt><trkpt lat="51.9330533" lon="-8.3755633"><ele>36.0</ele><time>2026-05-05T10:34:30.221Z</time></trkpt><trkpt lat="51.932815" lon="-8.375325"><ele>36.0</ele><time>2026-05-05T10:34:31.22Z</time></trkpt><trkpt lat="51.9325983" lon="-8.37509"><ele>36.0</ele><time>2026-05-05T10:34:32.22Z</time></trkpt><trkpt lat="51.93237" lon="-8.374875"><ele>33.5</ele><time>2026-05-05T10:34:33.221Z</time></trkpt><trkpt lat="51.9321517" lon="-8.3746817"><ele>31.0</ele><time>2026-05-05T10:34:34.221Z</time></trkpt><trkpt lat="51.93193" lon="-8.3744817"><ele>28.5</ele><time>2026-05-05T10:34:35.221Z</time></trkpt><trkpt lat="51.931675" lon="-8.3743283"><ele>26.0</ele><time>2026-05-05T10:34:36.221Z</time></trkpt><trkpt lat="51.9314083" lon="-8.3742117"><ele>26.0</ele><time>2026-05-05T10:34:37.221Z</time></trkpt><trkpt lat="51.9311167" lon="-8.37412"><ele>26.0</ele><time>2026-05-05T10:34:38.22Z</time></trkpt><trkpt lat="51.9308283" lon="-8.37406"><ele>24.5</ele><time>2026-05-05T10:34:39.22Z</time></trkpt><trkpt lat="51.93055" lon="-8.3740267"><ele>23.0</ele><time>2026-05-05T10:34:40.221Z</time></trkpt><trkpt lat="51.9302833" lon="-8.374025"><ele>22.5</ele><time>2026-05-05T10:34:41.22Z</time></trkpt><trkpt lat="51.9300333" lon="-8.374055"><ele>22.0</ele><time>2026-05-05T10:34:42.221Z</time></trkpt><trkpt lat="51.9297617" lon="-8.3741017"><ele>22.0</ele><time>2026-05-05T10:34:43.221Z</time></trkpt><trkpt lat="51.9294883" lon="-8.3741617"><ele>22.0</ele><time>2026-05-05T10:34:44.221Z</time></trkpt><trkpt lat="51.92922" lon="-8.3742517"><ele>24.5</ele><time>2026-05-05T10:34:45.221Z</time></trkpt><trkpt lat="51.9289517" lon="-8.3743433"><ele>27.0</ele><time>2026-05-05T10:34:46.22Z</time></trkpt><trkpt lat="51.9287233" lon="-8.37451"><ele>26.5</ele><time>2026-05-05T10:34:47.221Z</time></trkpt><trkpt lat="51.9284883" lon="-8.3746917"><ele>26.0</ele><time>2026-05-05T10:34:48.221Z</time></trkpt><trkpt lat="51.9282483" lon="-8.37488"><ele>31.0</ele><time>2026-05-05T10:34:49.22Z</time></trkpt><trkpt lat="51.9280117" lon="-8.375055"><ele>36.0</ele><time>2026-05-05T10:34:50.221Z</time></trkpt><trkpt lat="51.927785" lon="-8.37526"><ele>36.0</ele><time>2026-05-05T10:34:51.221Z</time></trkpt><trkpt lat="51.9275783" lon="-8.3755267"><ele>36.0</ele><time>2026-05-05T10:34:52.22Z</time></trkpt><trkpt lat="51.927355" lon="-8.37578"><ele>41.0</ele><time>2026-05-05T10:34:53.22Z</time></trkpt><trkpt lat="51.92715" lon="-8.3760517"><ele>46.0</ele><time>2026-05-05T10:34:54.22Z</time></trkpt><trkpt lat="51.9269783" lon="-8.3763733"><ele>46.0</ele><time>2026-05-05T10:34:55.221Z</time></trkpt><trkpt lat="51.9268017" lon="-8.3766967"><ele>46.0</ele><time>2026-05-05T10:34:56.22Z</time></trkpt><trkpt lat="51.9266033" lon="-8.3770067"><ele>49.0</ele><time>2026-05-05T10:34:57.221Z</time></trkpt><trkpt lat="51.9264" lon="-8.377335"><ele>52.0</ele><time>2026-05-05T10:34:58.221Z</time></trkpt><trkpt lat="51.9262083" lon="-8.3777017"><ele>53.5</ele><time>2026-05-05T10:34:59.22Z</time></trkpt><trkpt lat="51.9260233" lon="-8.3780733"><ele>55.0</ele><time>2026-05-05T10:35:00.22Z</time></trkpt><trkpt lat="51.92583" lon="-8.3784517"><ele>57.0</ele><time>2026-05-05T10:35:01.221Z</time></trkpt><trkpt lat="51.9256217" lon="-8.3788333"><ele>59.0</ele><time>2026-05-05T10:35:02.22Z</time></trkpt><trkpt lat="51.9253967" lon="-8.3792033"><ele>59.0</ele><time>2026-05-05T10:35:03.221Z</time></trkpt><trkpt lat="51.9251833" lon="-8.3795733"><ele>59.0</ele><time>2026-05-05T10:35:04.22Z</time></trkpt><trkpt lat="51.924965" lon="-8.379915"><ele>56.5</ele><time>2026-05-05T10:35:05.22Z</time></trkpt><trkpt lat="51.9247583" lon="-8.3802583"><ele>54.0</ele><time>2026-05-05T10:35:06.221Z</time></trkpt><trkpt lat="51.9245567" lon="-8.3805867"><ele>53.0</ele><time>2026-05-05T10:35:07.221Z</time></trkpt><trkpt lat="51.9243633" lon="-8.3808967"><ele>52.0</ele><time>2026-05-05T10:35:08.221Z</time></trkpt><trkpt lat="51.9241733" lon="-8.381195"><ele>56.0</ele><time>2026-05-05T10:35:09.22Z</time></trkpt><trkpt lat="51.923995" lon="-8.3814867"><ele>60.0</ele><time>2026-05-05T10:35:10.221Z</time></trkpt><trkpt lat="51.92382" lon="-8.3817633"><ele>60.0</ele><time>2026-05-05T10:35:11.22Z</time></trkpt><trkpt lat="51.92364" lon="-8.3820283"><ele>60.0</ele><time>2026-05-05T10:35:12.221Z</time></trkpt><trkpt lat="51.923465" lon="-8.3822867"><ele>61.33333333333333</ele><time>2026-05-05T10:35:13.221Z</time></trkpt><trkpt lat="51.9232983" lon="-8.3825217"><ele>62.666666666666664</ele><time>2026-05-05T10:35:14.221Z</time></trkpt><trkpt lat="51.923115" lon="-8.3827417"><ele>64.0</ele><time>2026-05-05T10:35:15.221Z</time></trkpt><trkpt lat="51.92292" lon="-8.38294"><ele>63.0</ele><time>2026-05-05T10:35:16.221Z</time></trkpt><trkpt lat="51.9227167" lon="-8.3831233"><ele>62.0</ele><time>2026-05-05T10:35:17.221Z</time></trkpt><trkpt lat="51.9225217" lon="-8.3833033"><ele>64.0</ele><time>2026-05-05T10:35:18.221Z</time></trkpt><trkpt lat="51.92229" lon="-8.383455"><ele>66.0</ele><time>2026-05-05T10:35:19.221Z</time></trkpt><trkpt lat="51.9220717" lon="-8.3835733"><ele>66.0</ele><time>2026-05-05T10:35:20.22Z</time></trkpt><trkpt lat="51.9218517" lon="-8.3836617"><ele>66.0</ele><time>2026-05-05T10:35:21.221Z</time></trkpt><trkpt lat="51.9216183" lon="-8.383735"><ele>66.5</ele><time>2026-05-05T10:35:22.221Z</time></trkpt><trkpt lat="51.9213733" lon="-8.3837833"><ele>67.0</ele><time>2026-05-05T10:35:23.22Z</time></trkpt><trkpt lat="51.92112" lon="-8.3838133"><ele>67.0</ele><time>2026-05-05T10:35:24.22Z</time></trkpt><trkpt lat="51.9208333" lon="-8.3838083"><ele>67.0</ele><time>2026-05-05T10:35:25.221Z</time></trkpt><trkpt lat="51.92057" lon="-8.3838083"><ele>67.0</ele><time>2026-05-05T10:35:26.221Z</time></trkpt><trkpt lat="51.920295" lon="-8.383795"><ele>67.0</ele><time>2026-05-05T10:35:27.22Z</time></trkpt><trkpt lat="51.9200167" lon="-8.3837367"><ele>67.5</ele><time>2026-05-05T10:35:28.221Z</time></trkpt><trkpt lat="51.9197433" lon="-8.3836483"><ele>68.0</ele><time>2026-05-05T10:35:29.221Z</time></trkpt><trkpt lat="51.9194717" lon="-8.38353"><ele>67.0</ele><time>2026-05-05T10:35:30.221Z</time></trkpt><trkpt lat="51.9192033" lon="-8.3834017"><ele>66.0</ele><time>2026-05-05T10:35:31.22Z</time></trkpt><trkpt lat="51.91893" lon="-8.3832533"><ele>66.0</ele><time>2026-05-05T10:35:32.221Z</time></trkpt><trkpt lat="51.9186717" lon="-8.38311"><ele>66.0</ele><time>2026-05-05T10:35:33.221Z</time></trkpt><trkpt lat="51.9184133" lon="-8.38295"><ele>65.5</ele><time>2026-05-05T10:35:34.221Z</time></trkpt><trkpt lat="51.9181683" lon="-8.3828033"><ele>65.0</ele><time>2026-05-05T10:35:35.221Z</time></trkpt><trkpt lat="51.91793" lon="-8.3826583"><ele>65.0</ele><time>2026-05-05T10:35:36.221Z</time></trkpt><trkpt lat="51.9176933" lon="-8.3825167"><ele>65.0</ele><time>2026-05-05T10:35:37.22Z</time></trkpt><trkpt lat="51.917465" lon="-8.3823767"><ele>65.5</ele><time>2026-05-05T10:35:38.221Z</time></trkpt><trkpt lat="51.9172217" lon="-8.382245"><ele>66.0</ele><time>2026-05-05T10:35:39.22Z</time></trkpt><trkpt lat="51.9169767" lon="-8.3821267"><ele>66.0</ele><time>2026-05-05T10:35:40.221Z</time></trkpt><trkpt lat="51.9167433" lon="-8.3819983"><ele>66.0</ele><time>2026-05-05T10:35:41.221Z</time></trkpt><trkpt lat="51.9165117" lon="-8.3818617"><ele>64.5</ele><time>2026-05-05T10:35:42.22Z</time></trkpt><trkpt lat="51.91629" lon="-8.3817317"><ele>63.0</ele><time>2026-05-05T10:35:43.221Z</time></trkpt><trkpt lat="51.9160617" lon="-8.3815933"><ele>62.5</ele><time>2026-05-05T10:35:44.22Z</time></trkpt><trkpt lat="51.9158417" lon="-8.381475"><ele>62.0</ele><time>2026-05-05T10:35:45.221Z</time></trkpt><trkpt lat="51.91561" lon="-8.381365"><ele>63.0</ele><time>2026-05-05T10:35:46.221Z</time></trkpt><trkpt lat="51.9153617" lon="-8.3812567"><ele>64.0</ele><time>2026-05-05T10:35:47.221Z</time></trkpt><trkpt lat="51.9151117" lon="-8.3811367"><ele>62.5</ele><time>2026-05-05T10:35:48.221Z</time></trkpt><trkpt lat="51.9148433" lon="-8.381"><ele>61.0</ele><time>2026-05-05T10:35:49.221Z</time></trkpt><trkpt lat="51.914595" lon="-8.3808667"><ele>61.0</ele><time>2026-05-05T10:35:50.221Z</time></trkpt><trkpt lat="51.9143517" lon="-8.3807333"><ele>61.0</ele><time>2026-05-05T10:35:51.22Z</time></trkpt><trkpt lat="51.914115" lon="-8.3806233"><ele>61.0</ele><time>2026-05-05T10:35:52.221Z</time></trkpt><trkpt lat="51.9138583" lon="-8.3805083"><ele>61.0</ele><time>2026-05-05T10:35:53.221Z</time></trkpt><trkpt lat="51.9135983" lon="-8.3804133"><ele>59.5</ele><time>2026-05-05T10:35:54.22Z</time></trkpt><trkpt lat="51.9133517" lon="-8.3803433"><ele>58.0</ele><time>2026-05-05T10:35:55.22Z</time></trkpt><trkpt lat="51.9130933" lon="-8.3802933"><ele>58.0</ele><time>2026-05-05T10:35:56.221Z</time></trkpt><trkpt lat="51.91283" lon="-8.3802533"><ele>58.0</ele><time>2026-05-05T10:35:57.221Z</time></trkpt><trkpt lat="51.912575" lon="-8.380235"><ele>56.0</ele><time>2026-05-05T10:35:58.221Z</time></trkpt><trkpt lat="51.9123217" lon="-8.3802533"><ele>54.0</ele><time>2026-05-05T10:35:59.22Z</time></trkpt><trkpt lat="51.91206" lon="-8.38029"><ele>54.0</ele><time>2026-05-05T10:36:00.221Z</time></trkpt><trkpt lat="51.91182" lon="-8.38035"><ele>54.0</ele><time>2026-05-05T10:36:01.221Z</time></trkpt><trkpt lat="51.91155" lon="-8.3804"><ele>53.0</ele><time>2026-05-05T10:36:02.22Z</time></trkpt><trkpt lat="51.9112883" lon="-8.3804767"><ele>52.0</ele><time>2026-05-05T10:36:03.221Z</time></trkpt><trkpt lat="51.91103" lon="-8.3805883"><ele>50.5</ele><time>2026-05-05T10:36:04.221Z</time></trkpt><trkpt lat="51.9107717" lon="-8.38071"><ele>49.0</ele><time>2026-05-05T10:36:05.221Z</time></trkpt><trkpt lat="51.9105033" lon="-8.380865"><ele>49.0</ele><time>2026-05-05T10:36:06.22Z</time></trkpt><trkpt lat="51.9102517" lon="-8.381085"><ele>49.0</ele><time>2026-05-05T10:36:07.221Z</time></trkpt><trkpt lat="51.9100217" lon="-8.3813267"><ele>46.0</ele><time>2026-05-05T10:36:08.221Z</time></trkpt><trkpt lat="51.90979" lon="-8.3815533"><ele>43.0</ele><time>2026-05-05T10:36:09.221Z</time></trkpt><trkpt lat="51.9095583" lon="-8.3817933"><ele>43.0</ele><time>2026-05-05T10:36:10.221Z</time></trkpt><trkpt lat="51.9093483" lon="-8.382065"><ele>43.0</ele><time>2026-05-05T10:36:11.221Z</time></trkpt><trkpt lat="51.9091267" lon="-8.3823417"><ele>41.0</ele><time>2026-05-05T10:36:12.22Z</time></trkpt><trkpt lat="51.9089183" lon="-8.382625"><ele>39.0</ele><time>2026-05-05T10:36:13.221Z</time></trkpt><trkpt lat="51.908725" lon="-8.38292"><ele>39.0</ele><time>2026-05-05T10:36:14.221Z</time></trkpt><trkpt lat="51.9085433" lon="-8.3831967"><ele>39.0</ele><time>2026-05-05T10:36:15.221Z</time></trkpt><trkpt lat="51.90837" lon="-8.3834717"><ele>34.5</ele><time>2026-05-05T10:36:16.221Z</time></trkpt><trkpt lat="51.90821" lon="-8.3837433"><ele>30.0</ele><time>2026-05-05T10:36:17.22Z</time></trkpt><trkpt lat="51.9080717" lon="-8.384025"><ele>29.333333333333336</ele><time>2026-05-05T10:36:18.221Z</time></trkpt><trkpt lat="51.907905" lon="-8.3842683"><ele>28.666666666666668</ele><time>2026-05-05T10:36:19.22Z</time></trkpt><trkpt lat="51.9077583" lon="-8.3844667"><ele>28.0</ele><time>2026-05-05T10:36:20.221Z</time></trkpt><trkpt lat="51.907635" lon="-8.384635"><ele>26.333333333333336</ele><time>2026-05-05T10:36:21.22Z</time></trkpt><trkpt lat="51.90752" lon="-8.3847767"><ele>24.666666666666668</ele><time>2026-05-05T10:36:22.22Z</time></trkpt><trkpt lat="51.907395" lon="-8.3849333"><ele>23.0</ele><time>2026-05-05T10:36:23.22Z</time></trkpt><trkpt lat="51.90725" lon="-8.385075"><ele>23.0</ele><time>2026-05-05T10:36:24.221Z</time></trkpt><trkpt lat="51.907095" lon="-8.3852333"><ele>23.0</ele><time>2026-05-05T10:36:25.221Z</time></trkpt><trkpt lat="51.906925" lon="-8.3853917"><ele>23.0</ele><time>2026-05-05T10:36:26.221Z</time></trkpt><trkpt lat="51.9067333" lon="-8.3855383"><ele>20.666666666666668</ele><time>2026-05-05T10:36:27.221Z</time></trkpt><trkpt lat="51.9065317" lon="-8.385675"><ele>18.333333333333332</ele><time>2026-05-05T10:36:28.221Z</time></trkpt><trkpt lat="51.90632" lon="-8.3857883"><ele>16.0</ele><time>2026-05-05T10:36:29.221Z</time></trkpt><trkpt lat="51.9061033" lon="-8.3858817"><ele>13.666666666666666</ele><time>2026-05-05T10:36:30.22Z</time></trkpt><trkpt lat="51.9059083" lon="-8.3859733"><ele>11.333333333333332</ele><time>2026-05-05T10:36:31.22Z</time></trkpt><trkpt lat="51.905735" lon="-8.38606"><ele>9.0</ele><time>2026-05-05T10:36:32.221Z</time></trkpt><trkpt lat="51.905585" lon="-8.3861567"><ele>9.0</ele><time>2026-05-05T10:36:33.221Z</time></trkpt><trkpt lat="51.905445" lon="-8.386235"><ele>9.0</ele><time>2026-05-05T10:36:34.221Z</time></trkpt><trkpt lat="51.9053" lon="-8.3863083"><ele>9.0</ele><time>2026-05-05T10:36:35.221Z</time></trkpt><trkpt lat="51.9051583" lon="-8.3863883"><ele>9.0</ele><time>2026-05-05T10:36:36.221Z</time></trkpt><trkpt lat="51.9050133" lon="-8.3864567"><ele>9.0</ele><time>2026-05-05T10:36:37.22Z</time></trkpt><trkpt lat="51.90485" lon="-8.3865233"><ele>9.0</ele><time>2026-05-05T10:36:38.221Z</time></trkpt><trkpt lat="51.9046833" lon="-8.3866017"><ele>9.0</ele><time>2026-05-05T10:36:39.221Z</time></trkpt><trkpt lat="51.9044983" lon="-8.386675"><ele>9.0</ele><time>2026-05-05T10:36:40.22Z</time></trkpt><trkpt lat="51.904315" lon="-8.3867783"><ele>9.0</ele><time>2026-05-05T10:36:41.221Z</time></trkpt><trkpt lat="51.9041267" lon="-8.3868767"><ele>8.666666666666666</ele><time>2026-05-05T10:36:42.22Z</time></trkpt><trkpt lat="51.9039483" lon="-8.3869917"><ele>8.333333333333332</ele><time>2026-05-05T10:36:43.221Z</time></trkpt><trkpt lat="51.9037917" lon="-8.3871967"><ele>8.0</ele><time>2026-05-05T10:36:44.22Z</time></trkpt><trkpt lat="51.9036517" lon="-8.3874617"><ele>7.666666666666666</ele><time>2026-05-05T10:36:45.221Z</time></trkpt><trkpt lat="51.9035433" lon="-8.3877317"><ele>7.333333333333334</ele><time>2026-05-05T10:36:46.221Z</time></trkpt><trkpt lat="51.9034483" lon="-8.3880433"><ele>7.0</ele><time>2026-05-05T10:36:47.221Z</time></trkpt><trkpt lat="51.9033617" lon="-8.3883317"><ele>6.333333333333334</ele><time>2026-05-05T10:36:48.22Z</time></trkpt><trkpt lat="51.903285" lon="-8.3886033"><ele>5.666666666666667</ele><time>2026-05-05T10:36:49.221Z</time></trkpt><trkpt lat="51.9031917" lon="-8.3888767"><ele>5.0</ele><time>2026-05-05T10:36:50.221Z</time></trkpt><trkpt lat="51.90308" lon="-8.3891233"><ele>4.333333333333334</ele><time>2026-05-05T10:36:51.221Z</time></trkpt><trkpt lat="51.9029483" lon="-8.389375"><ele>3.666666666666667</ele><time>2026-05-05T10:36:52.221Z</time></trkpt><trkpt lat="51.9027867" lon="-8.3895967"><ele>3.0</ele><time>2026-05-05T10:36:53.221Z</time></trkpt><trkpt lat="51.9026167" lon="-8.3898083"><ele>3.0</ele><time>2026-05-05T10:36:54.221Z</time></trkpt><trkpt lat="51.9024483" lon="-8.39002"><ele>3.0</ele><time>2026-05-05T10:36:55.22Z</time></trkpt><trkpt lat="51.9022883" lon="-8.3902217"><ele>3.0</ele><time>2026-05-05T10:36:56.22Z</time></trkpt><trkpt lat="51.9021017" lon="-8.390405"><ele>2.6666666666666665</ele><time>2026-05-05T10:36:57.22Z</time></trkpt><trkpt lat="51.9019267" lon="-8.39061"><ele>2.333333333333333</ele><time>2026-05-05T10:36:58.221Z</time></trkpt><trkpt lat="51.90175" lon="-8.390815"><ele>2.0</ele><time>2026-05-05T10:36:59.221Z</time></trkpt><trkpt lat="51.90157" lon="-8.3910217"><ele>2.0</ele><time>2026-05-05T10:37:00.221Z</time></trkpt><trkpt lat="51.9013933" lon="-8.3912417"><ele>2.0</ele><time>2026-05-05T10:37:01.221Z</time></trkpt><trkpt lat="51.8963383" lon="-8.3936033"><ele>2.0</ele><time>2026-05-05T10:37:29.211Z</time></trkpt><trkpt lat="51.895995" lon="-8.3934933"><ele>2.0</ele><time>2026-05-05T10:37:30.21Z</time></trkpt><trkpt lat="51.8957617" lon="-8.3934633"><ele>2.333333333333333</ele><time>2026-05-05T10:37:31.211Z</time></trkpt><trkpt lat="51.89558" lon="-8.3934467"><ele>2.6666666666666665</ele><time>2026-05-05T10:37:32.211Z</time></trkpt><trkpt lat="51.8953967" lon="-8.3934067"><ele>3.0</ele><time>2026-05-05T10:37:33.211Z</time></trkpt><trkpt lat="51.8952217" lon="-8.39338"><ele>3.666666666666667</ele><time>2026-05-05T10:37:34.211Z</time></trkpt><trkpt lat="51.8950483" lon="-8.3933317"><ele>4.333333333333334</ele><time>2026-05-05T10:37:35.21Z</time></trkpt><trkpt lat="51.8948717" lon="-8.3932833"><ele>5.0</ele><time>2026-05-05T10:37:36.21Z</time></trkpt><trkpt lat="51.894695" lon="-8.3932267"><ele>5.0</ele><time>2026-05-05T10:37:37.211Z</time></trkpt><trkpt lat="51.8945183" lon="-8.3931517"><ele>5.0</ele><time>2026-05-05T10:37:38.21Z</time></trkpt><trkpt lat="51.8943267" lon="-8.393065"><ele>5.0</ele><time>2026-05-05T10:37:39.211Z</time></trkpt><trkpt lat="51.8941233" lon="-8.3929733"><ele>5.0</ele><time>2026-05-05T10:37:40.211Z</time></trkpt><trkpt lat="51.8938867" lon="-8.39283"><ele>5.0</ele><time>2026-05-05T10:37:41.211Z</time></trkpt><trkpt lat="51.8936183" lon="-8.3926533"><ele>4.5</ele><time>2026-05-05T10:37:42.211Z</time></trkpt><trkpt lat="51.893375" lon="-8.392485"><ele>4.0</ele><time>2026-05-05T10:37:43.211Z</time></trkpt><trkpt lat="51.8931533" lon="-8.3923133"><ele>3.5</ele><time>2026-05-05T10:37:44.211Z</time></trkpt><trkpt lat="51.8929233" lon="-8.392155"><ele>3.0</ele><time>2026-05-05T10:37:45.21Z</time></trkpt><trkpt lat="51.8927067" lon="-8.3920017"><ele>3.5</ele><time>2026-05-05T10:37:46.211Z</time></trkpt><trkpt lat="51.892485" lon="-8.3918317"><ele>4.0</ele><time>2026-05-05T10:37:47.21Z</time></trkpt><trkpt lat="51.8922683" lon="-8.3916833"><ele>4.0</ele><time>2026-05-05T10:37:48.21Z</time></trkpt><trkpt lat="51.8920467" lon="-8.3915233"><ele>4.0</ele><time>2026-05-05T10:37:49.211Z</time></trkpt><trkpt lat="51.89183" lon="-8.3913717"><ele>4.333333333333333</ele><time>2026-05-05T10:37:50.211Z</time></trkpt><trkpt lat="51.8916233" lon="-8.3912367"><ele>4.666666666666667</ele><time>2026-05-05T10:37:51.21Z</time></trkpt><trkpt lat="51.8914167" lon="-8.3911233"><ele>5.0</ele><time>2026-05-05T10:37:52.21Z</time></trkpt><trkpt lat="51.8912117" lon="-8.3910317"><ele>5.0</ele><time>2026-05-05T10:37:53.211Z</time></trkpt><trkpt lat="51.8909917" lon="-8.3909283"><ele>5.0</ele><time>2026-05-05T10:37:54.211Z</time></trkpt><trkpt lat="51.890765" lon="-8.3908267"><ele>4.0</ele><time>2026-05-05T10:37:55.211Z</time></trkpt><trkpt lat="51.8905133" lon="-8.39071"><ele>3.0</ele><time>2026-05-05T10:37:56.211Z</time></trkpt><trkpt lat="51.8902767" lon="-8.390655"><ele>3.333333333333333</ele><time>2026-05-05T10:37:57.211Z</time></trkpt><trkpt lat="51.8900583" lon="-8.3906283"><ele>3.6666666666666665</ele><time>2026-05-05T10:37:58.211Z</time></trkpt><trkpt lat="51.889835" lon="-8.3905983"><ele>4.0</ele><time>2026-05-05T10:37:59.211Z</time></trkpt><trkpt lat="51.88962" lon="-8.3905983"><ele>4.0</ele><time>2026-05-05T10:38:00.211Z</time></trkpt><trkpt lat="51.8893917" lon="-8.3905983"><ele>4.0</ele><time>2026-05-05T10:38:01.211Z</time></trkpt><trkpt lat="51.8891767" lon="-8.39061"><ele>4.0</ele><time>2026-05-05T10:38:02.211Z</time></trkpt><trkpt lat="51.88895" lon="-8.3906217"><ele>4.5</ele><time>2026-05-05T10:38:03.211Z</time></trkpt><trkpt lat="51.888715" lon="-8.39064"><ele>5.0</ele><time>2026-05-05T10:38:04.211Z</time></trkpt><trkpt lat="51.88849" lon="-8.3906933"><ele>5.0</ele><time>2026-05-05T10:38:05.211Z</time></trkpt><trkpt lat="51.8882783" lon="-8.3907733"><ele>5.0</ele><time>2026-05-05T10:38:06.211Z</time></trkpt><trkpt lat="51.8880667" lon="-8.39085"><ele>5.0</ele><time>2026-05-05T10:38:07.211Z</time></trkpt><trkpt lat="51.8878467" lon="-8.3909417"><ele>5.0</ele><time>2026-05-05T10:38:08.21Z</time></trkpt><trkpt lat="51.887625" lon="-8.3910467"><ele>5.0</ele><time>2026-05-05T10:38:09.21Z</time></trkpt><trkpt lat="51.8874033" lon="-8.39117"><ele>5.0</ele><time>2026-05-05T10:38:10.21Z</time></trkpt><trkpt lat="51.8871867" lon="-8.39131"><ele>5.0</ele><time>2026-05-05T10:38:11.211Z</time></trkpt><trkpt lat="51.8869733" lon="-8.3914717"><ele>5.0</ele><time>2026-05-05T10:38:12.211Z</time></trkpt><trkpt lat="51.8867717" lon="-8.3916517"><ele>5.0</ele><time>2026-05-05T10:38:13.211Z</time></trkpt><trkpt lat="51.88655" lon="-8.3918333"><ele>5.5</ele><time>2026-05-05T10:38:14.21Z</time></trkpt><trkpt lat="51.8863383" lon="-8.3920367"><ele>6.0</ele><time>2026-05-05T10:38:15.21Z</time></trkpt><trkpt lat="51.8861367" lon="-8.39226"><ele>6.0</ele><time>2026-05-05T10:38:16.21Z</time></trkpt><trkpt lat="51.8859433" lon="-8.3925017"><ele>6.0</ele><time>2026-05-05T10:38:17.211Z</time></trkpt><trkpt lat="51.8857483" lon="-8.3927483"><ele>6.5</ele><time>2026-05-05T10:38:18.211Z</time></trkpt><trkpt lat="51.8855567" lon="-8.39301"><ele>7.0</ele><time>2026-05-05T10:38:19.211Z</time></trkpt><trkpt lat="51.8853717" lon="-8.3932833"><ele>7.0</ele><time>2026-05-05T10:38:20.21Z</time></trkpt><trkpt lat="51.8851983" lon="-8.3935533"><ele>7.0</ele><time>2026-05-05T10:38:21.211Z</time></trkpt><trkpt lat="51.8850367" lon="-8.3938383"><ele>8.0</ele><time>2026-05-05T10:38:22.211Z</time></trkpt><trkpt lat="51.8848933" lon="-8.394145"><ele>9.0</ele><time>2026-05-05T10:38:23.211Z</time></trkpt><trkpt lat="51.8847567" lon="-8.3944633"><ele>10.0</ele><time>2026-05-05T10:38:24.211Z</time></trkpt><trkpt lat="51.8846033" lon="-8.39478"><ele>11.0</ele><time>2026-05-05T10:38:25.21Z</time></trkpt><trkpt lat="51.8844483" lon="-8.3951083"><ele>11.0</ele><time>2026-05-05T10:38:26.211Z</time></trkpt><trkpt lat="51.88431" lon="-8.3954383"><ele>11.0</ele><time>2026-05-05T10:38:27.211Z</time></trkpt><trkpt lat="51.8841833" lon="-8.39577"><ele>11.333333333333332</ele><time>2026-05-05T10:38:28.211Z</time></trkpt><trkpt lat="51.8840683" lon="-8.3960817"><ele>11.666666666666666</ele><time>2026-05-05T10:38:29.21Z</time></trkpt><trkpt lat="51.8839667" lon="-8.3964017"><ele>12.0</ele><time>2026-05-05T10:38:30.21Z</time></trkpt><trkpt lat="51.8838667" lon="-8.39673"><ele>12.0</ele><time>2026-05-05T10:38:31.211Z</time></trkpt><trkpt lat="51.883795" lon="-8.3970917"><ele>12.0</ele><time>2026-05-05T10:38:32.211Z</time></trkpt><trkpt lat="51.8837033" lon="-8.39744"><ele>12.5</ele><time>2026-05-05T10:38:33.211Z</time></trkpt><trkpt lat="51.8836367" lon="-8.3978417"><ele>13.0</ele><time>2026-05-05T10:38:34.211Z</time></trkpt><trkpt lat="51.8835567" lon="-8.3982233"><ele>13.0</ele><time>2026-05-05T10:38:35.211Z</time></trkpt><trkpt lat="51.8835117" lon="-8.3986417"><ele>13.0</ele><time>2026-05-05T10:38:36.211Z</time></trkpt><trkpt lat="51.8834817" lon="-8.3990833"><ele>12.0</ele><time>2026-05-05T10:38:37.21Z</time></trkpt><trkpt lat="51.8834517" lon="-8.39952"><ele>11.0</ele><time>2026-05-05T10:38:38.211Z</time></trkpt><trkpt lat="51.8834" lon="-8.399955"><ele>10.0</ele><time>2026-05-05T10:38:39.21Z</time></trkpt><trkpt lat="51.8833417" lon="-8.40037"><ele>9.0</ele><time>2026-05-05T10:38:40.211Z</time></trkpt><trkpt lat="51.88328" lon="-8.4007683"><ele>9.0</ele><time>2026-05-05T10:38:41.21Z</time></trkpt><trkpt lat="51.88321" lon="-8.4011417"><ele>9.0</ele><time>2026-05-05T10:38:42.211Z</time></trkpt><trkpt lat="51.8831667" lon="-8.401515"><ele>9.0</ele><time>2026-05-05T10:38:43.211Z</time></trkpt><trkpt lat="51.883135" lon="-8.4018983"><ele>9.0</ele><time>2026-05-05T10:38:44.211Z</time></trkpt><trkpt lat="51.8830983" lon="-8.4022633"><ele>8.5</ele><time>2026-05-05T10:38:45.211Z</time></trkpt><trkpt lat="51.883055" lon="-8.4026283"><ele>8.0</ele><time>2026-05-05T10:38:46.211Z</time></trkpt><trkpt lat="51.8830083" lon="-8.4029783"><ele>8.333333333333332</ele><time>2026-05-05T10:38:47.21Z</time></trkpt><trkpt lat="51.8829633" lon="-8.40331"><ele>8.666666666666666</ele><time>2026-05-05T10:38:48.211Z</time></trkpt><trkpt lat="51.882935" lon="-8.40365"><ele>9.0</ele><time>2026-05-05T10:38:49.21Z</time></trkpt><trkpt lat="51.8828917" lon="-8.4040067"><ele>9.5</ele><time>2026-05-05T10:38:50.21Z</time></trkpt><trkpt lat="51.8828433" lon="-8.4043717"><ele>10.0</ele><time>2026-05-05T10:38:51.21Z</time></trkpt><trkpt lat="51.8827983" lon="-8.4047583"><ele>10.0</ele><time>2026-05-05T10:38:52.211Z</time></trkpt><trkpt lat="51.882755" lon="-8.4051583"><ele>10.0</ele><time>2026-05-05T10:38:53.21Z</time></trkpt><trkpt lat="51.88271" lon="-8.40556"><ele>9.5</ele><time>2026-05-05T10:38:54.211Z</time></trkpt><trkpt lat="51.8826483" lon="-8.4059417"><ele>9.0</ele><time>2026-05-05T10:38:55.211Z</time></trkpt><trkpt lat="51.8825967" lon="-8.4063467"><ele>7.5</ele><time>2026-05-05T10:38:56.211Z</time></trkpt><trkpt lat="51.8825283" lon="-8.4067467"><ele>6.0</ele><time>2026-05-05T10:38:57.211Z</time></trkpt><trkpt lat="51.8824833" lon="-8.4071383"><ele>6.0</ele><time>2026-05-05T10:38:58.211Z</time></trkpt><trkpt lat="51.8824283" lon="-8.407555"><ele>6.0</ele><time>2026-05-05T10:38:59.211Z</time></trkpt><trkpt lat="51.8823667" lon="-8.4079817"><ele>6.5</ele><time>2026-05-05T10:39:00.211Z</time></trkpt><trkpt lat="51.8823017" lon="-8.4084233"><ele>7.0</ele><time>2026-05-05T10:39:01.21Z</time></trkpt><trkpt lat="51.88225" lon="-8.4088683"><ele>7.5</ele><time>2026-05-05T10:39:02.21Z</time></trkpt><trkpt lat="51.8822017" lon="-8.409315"><ele>8.0</ele><time>2026-05-05T10:39:03.211Z</time></trkpt><trkpt lat="51.8821483" lon="-8.4097533"><ele>8.0</ele><time>2026-05-05T10:39:04.211Z</time></trkpt><trkpt lat="51.8820917" lon="-8.410195"><ele>8.0</ele><time>2026-05-05T10:39:05.21Z</time></trkpt><trkpt lat="51.8820167" lon="-8.4106383"><ele>7.5</ele><time>2026-05-05T10:39:06.21Z</time></trkpt><trkpt lat="51.8819317" lon="-8.41106"><ele>7.0</ele><time>2026-05-05T10:39:07.21Z</time></trkpt><trkpt lat="51.8818483" lon="-8.411475"><ele>7.0</ele><time>2026-05-05T10:39:08.211Z</time></trkpt><trkpt lat="51.8817633" lon="-8.4118717"><ele>7.0</ele><time>2026-05-05T10:39:09.211Z</time></trkpt><trkpt lat="51.8816683" lon="-8.4122433"><ele>7.0</ele><time>2026-05-05T10:39:10.211Z</time></trkpt><trkpt lat="51.8815917" lon="-8.4126167"><ele>7.0</ele><time>2026-05-05T10:39:11.211Z</time></trkpt><trkpt lat="51.8815067" lon="-8.4129667"><ele>7.5</ele><time>2026-05-05T10:39:12.21Z</time></trkpt><trkpt lat="51.881405" lon="-8.4133083"><ele>8.0</ele><time>2026-05-05T10:39:13.211Z</time></trkpt><trkpt lat="51.8813117" lon="-8.4136633"><ele>7.5</ele><time>2026-05-05T10:39:14.21Z</time></trkpt><trkpt lat="51.8812033" lon="-8.413995"><ele>7.0</ele><time>2026-05-05T10:39:15.211Z</time></trkpt><trkpt lat="51.8810867" lon="-8.414315"><ele>7.0</ele><time>2026-05-05T10:39:16.21Z</time></trkpt><trkpt lat="51.8809633" lon="-8.4146233"><ele>7.0</ele><time>2026-05-05T10:39:17.211Z</time></trkpt><trkpt lat="51.8808367" lon="-8.4149083"><ele>7.0</ele><time>2026-05-05T10:39:18.211Z</time></trkpt><trkpt lat="51.8807267" lon="-8.4151917"><ele>5.333333333333334</ele><time>2026-05-05T10:39:19.211Z</time></trkpt><trkpt lat="51.8806283" lon="-8.4154883"><ele>3.666666666666667</ele><time>2026-05-05T10:39:20.211Z</time></trkpt><trkpt lat="51.880545" lon="-8.415745"><ele>2.0</ele><time>2026-05-05T10:39:21.21Z</time></trkpt><trkpt lat="51.88045" lon="-8.4160483"><ele>2.5</ele><time>2026-05-05T10:39:22.211Z</time></trkpt><trkpt lat="51.8803717" lon="-8.4163883"><ele>3.0</ele><time>2026-05-05T10:39:23.211Z</time></trkpt><trkpt lat="51.88029" lon="-8.4167317"><ele>3.0</ele><time>2026-05-05T10:39:24.211Z</time></trkpt><trkpt lat="51.8802317" lon="-8.4170833"><ele>3.0</ele><time>2026-05-05T10:39:25.21Z</time></trkpt><trkpt lat="51.880165" lon="-8.4174383"><ele>2.0</ele><time>2026-05-05T10:39:26.211Z</time></trkpt><trkpt lat="51.8801183" lon="-8.417805"><ele>1.0</ele><time>2026-05-05T10:39:27.211Z</time></trkpt><trkpt lat="51.8800717" lon="-8.4181867"><ele>4.0</ele><time>2026-05-05T10:39:28.211Z</time></trkpt><trkpt lat="51.880025" lon="-8.41859"><ele>7.0</ele><time>2026-05-05T10:39:29.211Z</time></trkpt><trkpt lat="51.87998" lon="-8.4189833"><ele>7.0</ele><time>2026-05-05T10:39:30.211Z</time></trkpt><trkpt lat="51.8799567" lon="-8.4193933"><ele>7.0</ele><time>2026-05-05T10:39:31.211Z</time></trkpt><trkpt lat="51.8799533" lon="-8.4198117"><ele>6.5</ele><time>2026-05-05T10:39:32.211Z</time></trkpt><trkpt lat="51.8799383" lon="-8.42024"><ele>6.0</ele><time>2026-05-05T10:39:33.211Z</time></trkpt><trkpt lat="51.8799617" lon="-8.42066"><ele>6.0</ele><time>2026-05-05T10:39:34.211Z</time></trkpt><trkpt lat="51.88" lon="-8.4210683"><ele>6.0</ele><time>2026-05-05T10:39:35.211Z</time></trkpt><trkpt lat="51.8800383" lon="-8.4214767"><ele>6.0</ele><time>2026-05-05T10:39:36.211Z</time></trkpt><trkpt lat="51.8800733" lon="-8.4218667"><ele>6.0</ele><time>2026-05-05T10:39:37.21Z</time></trkpt><trkpt lat="51.880115" lon="-8.422265"><ele>5.5</ele><time>2026-05-05T10:39:38.211Z</time></trkpt><trkpt lat="51.880165" lon="-8.4226833"><ele>5.0</ele><time>2026-05-05T10:39:39.211Z</time></trkpt><trkpt lat="51.88022" lon="-8.4230967"><ele>4.0</ele><time>2026-05-05T10:39:40.21Z</time></trkpt><trkpt lat="51.8802667" lon="-8.4235067"><ele>3.0</ele><time>2026-05-05T10:39:41.21Z</time></trkpt><trkpt lat="51.8803017" lon="-8.42391"><ele>1.5</ele><time>2026-05-05T10:39:42.21Z</time></trkpt><trkpt lat="51.88033" lon="-8.4242933"><ele>0.0</ele><time>2026-05-05T10:39:43.21Z</time></trkpt><trkpt lat="51.8803483" lon="-8.4246567"><ele>-2.0</ele><time>2026-05-05T10:39:44.21Z</time></trkpt><trkpt lat="51.8803717" lon="-8.425035"><ele>-4.0</ele><time>2026-05-05T10:39:45.211Z</time></trkpt><trkpt lat="51.8803733" lon="-8.4254133"><ele>0.0</ele><time>2026-05-05T10:39:46.211Z</time></trkpt><trkpt lat="51.8803683" lon="-8.425795"><ele>4.0</ele><time>2026-05-05T10:39:47.211Z</time></trkpt><trkpt lat="51.8803367" lon="-8.4261867"><ele>4.0</ele><time>2026-05-05T10:39:48.21Z</time></trkpt><trkpt lat="51.8803" lon="-8.4265833"><ele>4.0</ele><time>2026-05-05T10:39:49.211Z</time></trkpt><trkpt lat="51.8802767" lon="-8.4269733"><ele>2.5</ele><time>2026-05-05T10:39:50.211Z</time></trkpt><trkpt lat="51.88025" lon="-8.4273483"><ele>1.0</ele><time>2026-05-05T10:39:51.21Z</time></trkpt><trkpt lat="51.8802133" lon="-8.4277467"><ele>1.5</ele><time>2026-05-05T10:39:52.211Z</time></trkpt><trkpt lat="51.880165" lon="-8.42814"><ele>2.0</ele><time>2026-05-05T10:39:53.211Z</time></trkpt><trkpt lat="51.8801067" lon="-8.4285417"><ele>2.5</ele><time>2026-05-05T10:39:54.211Z</time></trkpt><trkpt lat="51.8800567" lon="-8.4289333"><ele>3.0</ele><time>2026-05-05T10:39:55.211Z</time></trkpt><trkpt lat="51.88" lon="-8.4292967"><ele>3.0</ele><time>2026-05-05T10:39:56.211Z</time></trkpt><trkpt lat="51.879945" lon="-8.4296617"><ele>3.0</ele><time>2026-05-05T10:39:57.211Z</time></trkpt><trkpt lat="51.8798817" lon="-8.4300167"><ele>3.0</ele><time>2026-05-05T10:39:58.211Z</time></trkpt><trkpt lat="51.8798267" lon="-8.4303817"><ele>3.0</ele><time>2026-05-05T10:39:59.211Z</time></trkpt><trkpt lat="51.87977" lon="-8.430755"><ele>3.5</ele><time>2026-05-05T10:40:00.21Z</time></trkpt><trkpt lat="51.8796917" lon="-8.4311333"><ele>4.0</ele><time>2026-05-05T10:40:01.211Z</time></trkpt><trkpt lat="51.8796317" lon="-8.4315017"><ele>4.5</ele><time>2026-05-05T10:40:02.211Z</time></trkpt><trkpt lat="51.8795717" lon="-8.4318583"><ele>5.0</ele><time>2026-05-05T10:40:03.211Z</time></trkpt><trkpt lat="51.87951" lon="-8.432205"><ele>5.5</ele><time>2026-05-05T10:40:04.211Z</time></trkpt><trkpt lat="51.8794367" lon="-8.4325533"><ele>6.0</ele><time>2026-05-05T10:40:05.211Z</time></trkpt><trkpt lat="51.87938" lon="-8.4329017"><ele>5.666666666666667</ele><time>2026-05-05T10:40:06.211Z</time></trkpt><trkpt lat="51.87934" lon="-8.433255"><ele>5.333333333333334</ele><time>2026-05-05T10:40:07.211Z</time></trkpt><trkpt lat="51.8792733" lon="-8.4335933"><ele>5.0</ele><time>2026-05-05T10:40:08.211Z</time></trkpt><trkpt lat="51.8792167" lon="-8.4339483"><ele>5.0</ele><time>2026-05-05T10:40:09.21Z</time></trkpt><trkpt lat="51.8791783" lon="-8.4343083"><ele>5.0</ele><time>2026-05-05T10:40:10.211Z</time></trkpt><trkpt lat="51.879125" lon="-8.4346817"><ele>5.5</ele><time>2026-05-05T10:40:11.211Z</time></trkpt><trkpt lat="51.8790517" lon="-8.435065"><ele>6.0</ele><time>2026-05-05T10:40:12.211Z</time></trkpt><trkpt lat="51.8789917" lon="-8.4354733"><ele>6.0</ele><time>2026-05-05T10:40:13.21Z</time></trkpt><trkpt lat="51.878905" lon="-8.43588"><ele>6.0</ele><time>2026-05-05T10:40:14.21Z</time></trkpt><trkpt lat="51.878815" lon="-8.4362783"><ele>7.0</ele><time>2026-05-05T10:40:15.211Z</time></trkpt><trkpt lat="51.8787133" lon="-8.4366633"><ele>8.0</ele><time>2026-05-05T10:40:16.211Z</time></trkpt><trkpt lat="51.878605" lon="-8.437045"><ele>8.0</ele><time>2026-05-05T10:40:17.211Z</time></trkpt><trkpt lat="51.8784967" lon="-8.4374017"><ele>8.0</ele><time>2026-05-05T10:40:18.211Z</time></trkpt><trkpt lat="51.878385" lon="-8.437735"><ele>7.666666666666666</ele><time>2026-05-05T10:40:19.21Z</time></trkpt><trkpt lat="51.87827" lon="-8.4380333"><ele>7.333333333333334</ele><time>2026-05-05T10:40:20.21Z</time></trkpt><trkpt lat="51.8781667" lon="-8.43832"><ele>7.0</ele><time>2026-05-05T10:40:21.21Z</time></trkpt><trkpt lat="51.8780617" lon="-8.43861"><ele>8.0</ele><time>2026-05-05T10:40:22.211Z</time></trkpt><trkpt lat="51.8779567" lon="-8.4388967"><ele>9.0</ele><time>2026-05-05T10:40:23.21Z</time></trkpt><trkpt lat="51.8778517" lon="-8.439185"><ele>10.0</ele><time>2026-05-05T10:40:24.211Z</time></trkpt><trkpt lat="51.877745" lon="-8.4394817"><ele>9.666666666666668</ele><time>2026-05-05T10:40:25.21Z</time></trkpt><trkpt lat="51.8776333" lon="-8.4397683"><ele>9.333333333333334</ele><time>2026-05-05T10:40:26.211Z</time></trkpt><trkpt lat="51.8775233" lon="-8.4400483"><ele>9.0</ele><time>2026-05-05T10:40:27.21Z</time></trkpt><trkpt lat="51.87742" lon="-8.4403333"><ele>9.0</ele><time>2026-05-05T10:40:28.211Z</time></trkpt><trkpt lat="51.8773167" lon="-8.4406083"><ele>9.0</ele><time>2026-05-05T10:40:29.21Z</time></trkpt><trkpt lat="51.8772217" lon="-8.4408567"><ele>9.0</ele><time>2026-05-05T10:40:30.21Z</time></trkpt><trkpt lat="51.8771367" lon="-8.4411133"><ele>8.666666666666666</ele><time>2026-05-05T10:40:31.211Z</time></trkpt><trkpt lat="51.87703" lon="-8.4413767"><ele>8.333333333333332</ele><time>2026-05-05T10:40:32.21Z</time></trkpt><trkpt lat="51.87691" lon="-8.4417083"><ele>8.0</ele><time>2026-05-05T10:40:33.21Z</time></trkpt><trkpt lat="51.8767783" lon="-8.4420133"><ele>7.0</ele><time>2026-05-05T10:40:34.21Z</time></trkpt><trkpt lat="51.8766433" lon="-8.4423283"><ele>6.0</ele><time>2026-05-05T10:40:35.211Z</time></trkpt><trkpt lat="51.876525" lon="-8.442645"><ele>5.0</ele><time>2026-05-05T10:40:36.211Z</time></trkpt><trkpt lat="51.8764017" lon="-8.4429717"><ele>4.0</ele><time>2026-05-05T10:40:37.21Z</time></trkpt><trkpt lat="51.8762733" lon="-8.44329"><ele>4.0</ele><time>2026-05-05T10:40:38.211Z</time></trkpt><trkpt lat="51.8761417" lon="-8.443615"><ele>4.0</ele><time>2026-05-05T10:40:39.21Z</time></trkpt><trkpt lat="51.87601" lon="-8.4439683"><ele>4.5</ele><time>2026-05-05T10:40:40.211Z</time></trkpt><trkpt lat="51.8758783" lon="-8.4443183"><ele>5.0</ele><time>2026-05-05T10:40:41.211Z</time></trkpt><trkpt lat="51.875745" lon="-8.4446583"><ele>5.5</ele><time>2026-05-05T10:40:42.21Z</time></trkpt><trkpt lat="51.8756117" lon="-8.445"><ele>6.0</ele><time>2026-05-05T10:40:43.211Z</time></trkpt><trkpt lat="51.875485" lon="-8.4453417"><ele>6.0</ele><time>2026-05-05T10:40:44.211Z</time></trkpt><trkpt lat="51.8753583" lon="-8.4456867"><ele>6.0</ele><time>2026-05-05T10:40:45.211Z</time></trkpt><trkpt lat="51.8752267" lon="-8.4460317"><ele>6.5</ele><time>2026-05-05T10:40:46.21Z</time></trkpt><trkpt lat="51.87509" lon="-8.4463833"><ele>7.0</ele><time>2026-05-05T10:40:47.21Z</time></trkpt><trkpt lat="51.8749517" lon="-8.4467367"><ele>7.0</ele><time>2026-05-05T10:40:48.211Z</time></trkpt><trkpt lat="51.8748267" lon="-8.447075"><ele>7.0</ele><time>2026-05-05T10:40:49.211Z</time></trkpt><trkpt lat="51.8747017" lon="-8.447375"><ele>7.666666666666667</ele><time>2026-05-05T10:40:50.211Z</time></trkpt><trkpt lat="51.8745833" lon="-8.44765"><ele>8.333333333333334</ele><time>2026-05-05T10:40:51.211Z</time></trkpt><trkpt lat="51.8744817" lon="-8.4479167"><ele>9.0</ele><time>2026-05-05T10:40:52.21Z</time></trkpt><trkpt lat="51.874385" lon="-8.448185"><ele>9.0</ele><time>2026-05-05T10:40:53.211Z</time></trkpt><trkpt lat="51.8742867" lon="-8.4484767"><ele>9.0</ele><time>2026-05-05T10:40:54.21Z</time></trkpt><trkpt lat="51.874185" lon="-8.44877"><ele>9.0</ele><time>2026-05-05T10:40:55.211Z</time></trkpt><trkpt lat="51.874105" lon="-8.4490683"><ele>9.0</ele><time>2026-05-05T10:40:56.211Z</time></trkpt><trkpt lat="51.8740133" lon="-8.4493733"><ele>9.0</ele><time>2026-05-05T10:40:57.211Z</time></trkpt><trkpt lat="51.8739233" lon="-8.4496717"><ele>9.0</ele><time>2026-05-05T10:40:58.211Z</time></trkpt><trkpt lat="51.873835" lon="-8.44997"><ele>9.0</ele><time>2026-05-05T10:40:59.21Z</time></trkpt><trkpt lat="51.87376" lon="-8.450295"><ele>9.0</ele><time>2026-05-05T10:41:00.211Z</time></trkpt><trkpt lat="51.8737017" lon="-8.4506217"><ele>9.0</ele><time>2026-05-05T10:41:01.211Z</time></trkpt><trkpt lat="51.8736733" lon="-8.4509683"><ele>9.5</ele><time>2026-05-05T10:41:02.211Z</time></trkpt><trkpt lat="51.8736267" lon="-8.4513167"><ele>10.0</ele><time>2026-05-05T10:41:03.211Z</time></trkpt><trkpt lat="51.8735917" lon="-8.4516867"><ele>10.0</ele><time>2026-05-05T10:41:04.211Z</time></trkpt><trkpt lat="51.87357" lon="-8.4520567"><ele>10.0</ele><time>2026-05-05T10:41:05.211Z</time></trkpt><trkpt lat="51.87356" lon="-8.45243"><ele>10.0</ele><time>2026-05-05T10:41:06.211Z</time></trkpt><trkpt lat="51.8735583" lon="-8.4528"><ele>10.0</ele><time>2026-05-05T10:41:07.211Z</time></trkpt><trkpt lat="51.8735633" lon="-8.453165"><ele>10.0</ele><time>2026-05-05T10:41:08.211Z</time></trkpt><trkpt lat="51.873585" lon="-8.4535283"><ele>10.0</ele><time>2026-05-05T10:41:09.21Z</time></trkpt><trkpt lat="51.8736067" lon="-8.4538717"><ele>10.0</ele><time>2026-05-05T10:41:10.211Z</time></trkpt><trkpt lat="51.8736267" lon="-8.4542183"><ele>10.0</ele><time>2026-05-05T10:41:11.21Z</time></trkpt><trkpt lat="51.8736367" lon="-8.4545767"><ele>10.0</ele><time>2026-05-05T10:41:12.211Z</time></trkpt><trkpt lat="51.8736733" lon="-8.4549333"><ele>10.0</ele><time>2026-05-05T10:41:13.211Z</time></trkpt><trkpt lat="51.8736983" lon="-8.4552867"><ele>7.5</ele><time>2026-05-05T10:41:14.21Z</time></trkpt><trkpt lat="51.8737167" lon="-8.455655"><ele>5.0</ele><time>2026-05-05T10:41:15.211Z</time></trkpt><trkpt lat="51.87373" lon="-8.456035"><ele>5.0</ele><time>2026-05-05T10:41:16.21Z</time></trkpt><trkpt lat="51.8737383" lon="-8.4564067"><ele>5.0</ele><time>2026-05-05T10:41:17.211Z</time></trkpt><trkpt lat="51.8737583" lon="-8.456775"><ele>5.0</ele><time>2026-05-05T10:41:18.211Z</time></trkpt><trkpt lat="51.87378" lon="-8.4571267"><ele>5.0</ele><time>2026-05-05T10:41:19.211Z</time></trkpt><trkpt lat="51.8738017" lon="-8.4574883"><ele>5.0</ele><time>2026-05-05T10:41:20.21Z</time></trkpt><trkpt lat="51.8738167" lon="-8.457855"><ele>6.0</ele><time>2026-05-05T10:41:21.211Z</time></trkpt><trkpt lat="51.8738267" lon="-8.45821"><ele>7.0</ele><time>2026-05-05T10:41:22.211Z</time></trkpt><trkpt lat="51.8738433" lon="-8.4585667"><ele>8.0</ele><time>2026-05-05T10:41:23.21Z</time></trkpt><trkpt lat="51.87386" lon="-8.4589217"><ele>8.333333333333332</ele><time>2026-05-05T10:41:24.211Z</time></trkpt><trkpt lat="51.8738633" lon="-8.4592733"><ele>8.666666666666666</ele><time>2026-05-05T10:41:25.211Z</time></trkpt><trkpt lat="51.8738633" lon="-8.4596117"><ele>9.0</ele><time>2026-05-05T10:41:26.21Z</time></trkpt><trkpt lat="51.87387" lon="-8.459945"><ele>9.0</ele><time>2026-05-05T10:41:27.211Z</time></trkpt><trkpt lat="51.8738783" lon="-8.460265"><ele>9.0</ele><time>2026-05-05T10:41:28.211Z</time></trkpt><trkpt lat="51.8738917" lon="-8.4605733"><ele>9.0</ele><time>2026-05-05T10:41:29.211Z</time></trkpt><trkpt lat="51.8739" lon="-8.4608933"><ele>9.0</ele><time>2026-05-05T10:41:30.211Z</time></trkpt><trkpt lat="51.8738983" lon="-8.4612417"><ele>9.0</ele><time>2026-05-05T10:41:31.211Z</time></trkpt><trkpt lat="51.8738883" lon="-8.4615917"><ele>9.0</ele><time>2026-05-05T10:41:32.211Z</time></trkpt><trkpt lat="51.873875" lon="-8.4619533"><ele>10.5</ele><time>2026-05-05T10:41:33.211Z</time></trkpt><trkpt lat="51.8738583" lon="-8.462325"><ele>12.0</ele><time>2026-05-05T10:41:34.211Z</time></trkpt><trkpt lat="51.8738317" lon="-8.4627233"><ele>12.0</ele><time>2026-05-05T10:41:35.211Z</time></trkpt><trkpt lat="51.8738067" lon="-8.46311"><ele>12.0</ele><time>2026-05-05T10:41:36.21Z</time></trkpt><trkpt lat="51.8737767" lon="-8.4635183"><ele>11.5</ele><time>2026-05-05T10:41:37.211Z</time></trkpt><trkpt lat="51.873755" lon="-8.4639167"><ele>11.0</ele><time>2026-05-05T10:41:38.211Z</time></trkpt><trkpt lat="51.87372" lon="-8.4642867"><ele>11.0</ele><time>2026-05-05T10:41:39.211Z</time></trkpt><trkpt lat="51.8737367" lon="-8.4646433"><ele>11.0</ele><time>2026-05-05T10:41:40.21Z</time></trkpt><trkpt lat="51.8737333" lon="-8.4649467"><ele>11.0</ele><time>2026-05-05T10:41:41.211Z</time></trkpt><trkpt lat="51.8737083" lon="-8.4652167"><ele>10.5</ele><time>2026-05-05T10:41:42.211Z</time></trkpt><trkpt lat="51.8736917" lon="-8.4654783"><ele>10.0</ele><time>2026-05-05T10:41:43.211Z</time></trkpt><trkpt lat="51.8736817" lon="-8.4657117"><ele>9.5</ele><time>2026-05-05T10:41:44.211Z</time></trkpt><trkpt lat="51.8736733" lon="-8.4659317"><ele>9.0</ele><time>2026-05-05T10:41:45.211Z</time></trkpt><trkpt lat="51.873645" lon="-8.4661517"><ele>9.333333333333334</ele><time>2026-05-05T10:41:46.211Z</time></trkpt><trkpt lat="51.8736117" lon="-8.4663933"><ele>9.666666666666668</ele><time>2026-05-05T10:41:47.21Z</time></trkpt><trkpt lat="51.8735967" lon="-8.466655"><ele>10.0</ele><time>2026-05-05T10:41:48.211Z</time></trkpt><trkpt lat="51.873595" lon="-8.466875"><ele>10.0</ele><time>2026-05-05T10:41:49.211Z</time></trkpt><trkpt lat="51.8735683" lon="-8.46705"><ele>10.0</ele><time>2026-05-05T10:41:50.211Z</time></trkpt><trkpt lat="51.873555" lon="-8.4672267"><ele>10.0</ele><time>2026-05-05T10:41:51.211Z</time></trkpt><trkpt lat="51.8735167" lon="-8.467385"><ele>10.0</ele><time>2026-05-05T10:41:52.211Z</time></trkpt><trkpt lat="51.8734767" lon="-8.4675167"><ele>10.0</ele><time>2026-05-05T10:41:53.211Z</time></trkpt><trkpt lat="51.873445" lon="-8.4676633"><ele>11.75</ele><time>2026-05-05T10:41:54.21Z</time></trkpt><trkpt lat="51.873415" lon="-8.4678367"><ele>13.5</ele><time>2026-05-05T10:41:55.211Z</time></trkpt><trkpt lat="51.8733883" lon="-8.4680233"><ele>15.25</ele><time>2026-05-05T10:41:56.211Z</time></trkpt><trkpt lat="51.87337" lon="-8.4682183"><ele>17.0</ele><time>2026-05-05T10:41:57.211Z</time></trkpt><trkpt lat="51.87335" lon="-8.4684017"><ele>17.0</ele><time>2026-05-05T10:41:58.211Z</time></trkpt><trkpt lat="51.87334" lon="-8.4686017"><ele>17.0</ele><time>2026-05-05T10:41:59.211Z</time></trkpt><trkpt lat="51.8733283" lon="-8.4688133"><ele>17.0</ele><time>2026-05-05T10:42:00.211Z</time></trkpt><trkpt lat="51.8733167" lon="-8.46902"><ele>17.0</ele><time>2026-05-05T10:42:01.21Z</time></trkpt><trkpt lat="51.8733" lon="-8.4692283"><ele>16.75</ele><time>2026-05-05T10:42:02.211Z</time></trkpt><trkpt lat="51.8732883" lon="-8.469455"><ele>16.5</ele><time>2026-05-05T10:42:03.21Z</time></trkpt><trkpt lat="51.87323" lon="-8.4696683"><ele>16.25</ele><time>2026-05-05T10:42:04.211Z</time></trkpt><trkpt lat="51.873175" lon="-8.46985"><ele>16.0</ele><time>2026-05-05T10:42:05.211Z</time></trkpt><trkpt lat="51.873115" lon="-8.470015"><ele>16.0</ele><time>2026-05-05T10:42:06.211Z</time></trkpt><trkpt lat="51.8730483" lon="-8.4701733"><ele>16.0</ele><time>2026-05-05T10:42:07.21Z</time></trkpt><trkpt lat="51.873005" lon="-8.4703267"><ele>16.0</ele><time>2026-05-05T10:42:08.211Z</time></trkpt><trkpt lat="51.8729817" lon="-8.4704517"><ele>16.0</ele><time>2026-05-05T10:42:09.21Z</time></trkpt><trkpt lat="51.87295" lon="-8.4706267"><ele>16.0</ele><time>2026-05-05T10:42:11.211Z</time></trkpt><trkpt lat="51.872935" lon="-8.47078"><ele>16.2</ele><time>2026-05-05T10:42:13.211Z</time></trkpt><trkpt lat="51.8729167" lon="-8.4708983"><ele>16.400000000000002</ele><time>2026-05-05T10:42:15.211Z</time></trkpt><trkpt lat="51.8729017" lon="-8.4710033"><ele>16.6</ele><time>2026-05-05T10:42:18.211Z</time></trkpt><trkpt lat="51.8729167" lon="-8.471135"><ele>16.8</ele><time>2026-05-05T10:42:26.211Z</time></trkpt><trkpt lat="51.8728833" lon="-8.4713467"><ele>17.0</ele><time>2026-05-05T10:42:28.211Z</time></trkpt><trkpt lat="51.87284" lon="-8.471485"><ele>17.0</ele><time>2026-05-05T10:42:29.211Z</time></trkpt><trkpt lat="51.8727833" lon="-8.4716283"><ele>17.0</ele><time>2026-05-05T10:42:30.211Z</time></trkpt><trkpt lat="51.8727183" lon="-8.4717767"><ele>17.0</ele><time>2026-05-05T10:42:31.211Z</time></trkpt><trkpt lat="51.8726467" lon="-8.4719083"><ele>17.0</ele><time>2026-05-05T10:42:32.21Z</time></trkpt><trkpt lat="51.8725717" lon="-8.472085"><ele>18.0</ele><time>2026-05-05T10:42:33.211Z</time></trkpt><trkpt lat="51.8725133" lon="-8.4722767"><ele>19.0</ele><time>2026-05-05T10:42:34.211Z</time></trkpt><trkpt lat="51.8724633" lon="-8.4725033"><ele>20.0</ele><time>2026-05-05T10:42:35.211Z</time></trkpt><trkpt lat="51.8724117" lon="-8.4727417"><ele>21.0</ele><time>2026-05-05T10:42:36.21Z</time></trkpt><trkpt lat="51.87235" lon="-8.47298"><ele>21.0</ele><time>2026-05-05T10:42:37.211Z</time></trkpt><trkpt lat="51.872275" lon="-8.473235"><ele>21.0</ele><time>2026-05-05T10:42:38.21Z</time></trkpt><trkpt lat="51.87221" lon="-8.47349"><ele>21.0</ele><time>2026-05-05T10:42:39.21Z</time></trkpt><trkpt lat="51.8721367" lon="-8.4737183"><ele>21.333333333333332</ele><time>2026-05-05T10:42:40.21Z</time></trkpt><trkpt lat="51.8720633" lon="-8.4739567"><ele>21.666666666666664</ele><time>2026-05-05T10:42:41.211Z</time></trkpt><trkpt lat="51.8719867" lon="-8.4741867"><ele>22.0</ele><time>2026-05-05T10:42:42.211Z</time></trkpt><trkpt lat="51.87192" lon="-8.4744267"><ele>22.0</ele><time>2026-05-05T10:42:43.211Z</time></trkpt><trkpt lat="51.871845" lon="-8.4746933"><ele>22.0</ele><time>2026-05-05T10:42:44.211Z</time></trkpt><trkpt lat="51.8717767" lon="-8.47498"><ele>22.0</ele><time>2026-05-05T10:42:45.211Z</time></trkpt><trkpt lat="51.8717433" lon="-8.4753033"><ele>25.333333333333332</ele><time>2026-05-05T10:42:46.211Z</time></trkpt><trkpt lat="51.87168" lon="-8.475635"><ele>28.666666666666664</ele><time>2026-05-05T10:42:47.211Z</time></trkpt><trkpt lat="51.87161" lon="-8.4759733"><ele>32.0</ele><time>2026-05-05T10:42:48.211Z</time></trkpt><trkpt lat="51.8715383" lon="-8.4763083"><ele>32.666666666666664</ele><time>2026-05-05T10:42:49.211Z</time></trkpt><trkpt lat="51.8714667" lon="-8.476625"><ele>33.333333333333336</ele><time>2026-05-05T10:42:50.211Z</time></trkpt><trkpt lat="51.8714" lon="-8.4769333"><ele>34.0</ele><time>2026-05-05T10:42:51.211Z</time></trkpt><trkpt lat="51.8713367" lon="-8.47724"><ele>34.66666666666667</ele><time>2026-05-05T10:42:52.211Z</time></trkpt><trkpt lat="51.8712767" lon="-8.4775317"><ele>35.333333333333336</ele><time>2026-05-05T10:42:53.211Z</time></trkpt><trkpt lat="51.8712" lon="-8.477845"><ele>36.0</ele><time>2026-05-05T10:42:54.211Z</time></trkpt><trkpt lat="51.8710867" lon="-8.4781467"><ele>36.333333333333336</ele><time>2026-05-05T10:42:55.211Z</time></trkpt><trkpt lat="51.8709717" lon="-8.478445"><ele>36.66666666666667</ele><time>2026-05-05T10:42:56.211Z</time></trkpt><trkpt lat="51.8708217" lon="-8.4787183"><ele>37.0</ele><time>2026-05-05T10:42:57.211Z</time></trkpt><trkpt lat="51.87068" lon="-8.478985"><ele>40.0</ele><time>2026-05-05T10:42:58.211Z</time></trkpt><trkpt lat="51.8705133" lon="-8.479245"><ele>43.0</ele><time>2026-05-05T10:42:59.211Z</time></trkpt><trkpt lat="51.8703483" lon="-8.4794867"><ele>43.0</ele><time>2026-05-05T10:43:00.21Z</time></trkpt><trkpt lat="51.8701733" lon="-8.4797167"><ele>43.0</ele><time>2026-05-05T10:43:01.211Z</time></trkpt><trkpt lat="51.8700083" lon="-8.4799"><ele>43.0</ele><time>2026-05-05T10:43:02.21Z</time></trkpt><trkpt lat="51.8698517" lon="-8.480045"><ele>44.25</ele><time>2026-05-05T10:43:03.211Z</time></trkpt><trkpt lat="51.8697217" lon="-8.4801533"><ele>45.5</ele><time>2026-05-05T10:43:04.211Z</time></trkpt><trkpt lat="51.8696117" lon="-8.4802233"><ele>46.75</ele><time>2026-05-05T10:43:05.211Z</time></trkpt><trkpt lat="51.86949" lon="-8.4802917"><ele>48.0</ele><time>2026-05-05T10:43:06.211Z</time></trkpt><trkpt lat="51.86938" lon="-8.480365"><ele>48.0</ele><time>2026-05-05T10:43:07.211Z</time></trkpt><trkpt lat="51.8692817" lon="-8.480415"><ele>48.0</ele><time>2026-05-05T10:43:08.21Z</time></trkpt><trkpt lat="51.8691833" lon="-8.4804467"><ele>48.0</ele><time>2026-05-05T10:43:09.211Z</time></trkpt><trkpt lat="51.8691" lon="-8.480455"><ele>48.0</ele><time>2026-05-05T10:43:10.211Z</time></trkpt><trkpt lat="51.8690183" lon="-8.48045"><ele>48.0</ele><time>2026-05-05T10:43:11.211Z</time></trkpt><trkpt lat="51.8689533" lon="-8.480445"><ele>48.0</ele><time>2026-05-05T10:43:12.211Z</time></trkpt><trkpt lat="51.86883" lon="-8.480475"><ele>48.599999999999994</ele><time>2026-05-05T10:43:14.211Z</time></trkpt><trkpt lat="51.86874" lon="-8.4804933"><ele>49.199999999999996</ele><time>2026-05-05T10:43:15.211Z</time></trkpt><trkpt lat="51.8686233" lon="-8.480515"><ele>49.8</ele><time>2026-05-05T10:43:16.211Z</time></trkpt><trkpt lat="51.8685117" lon="-8.48053"><ele>50.4</ele><time>2026-05-05T10:43:17.211Z</time></trkpt><trkpt lat="51.868385" lon="-8.48052"><ele>51.0</ele><time>2026-05-05T10:43:18.211Z</time></trkpt><trkpt lat="51.8682733" lon="-8.4805033"><ele>51.599999999999994</ele><time>2026-05-05T10:43:19.211Z</time></trkpt><trkpt lat="51.868185" lon="-8.4804867"><ele>52.2</ele><time>2026-05-05T10:43:20.21Z</time></trkpt><trkpt lat="51.8680967" lon="-8.4804533"><ele>52.800000000000004</ele><time>2026-05-05T10:43:21.211Z</time></trkpt><trkpt lat="51.86801" lon="-8.48043"><ele>53.400000000000006</ele><time>2026-05-05T10:43:22.211Z</time></trkpt><trkpt lat="51.8679117" lon="-8.4804083"><ele>54.0</ele><time>2026-05-05T10:43:23.21Z</time></trkpt><trkpt lat="51.867815" lon="-8.4804017"><ele>54.400000000000006</ele><time>2026-05-05T10:43:24.211Z</time></trkpt><trkpt lat="51.8677167" lon="-8.4803883"><ele>54.800000000000004</ele><time>2026-05-05T10:43:25.211Z</time></trkpt><trkpt lat="51.8676183" lon="-8.4803817"><ele>55.199999999999996</ele><time>2026-05-05T10:43:26.211Z</time></trkpt><trkpt lat="51.8675183" lon="-8.48038"><ele>55.599999999999994</ele><time>2026-05-05T10:43:27.211Z</time></trkpt><trkpt lat="51.8674233" lon="-8.480375"><ele>56.0</ele><time>2026-05-05T10:43:28.211Z</time></trkpt><trkpt lat="51.8673267" lon="-8.4803633"><ele>57.0</ele><time>2026-05-05T10:43:29.211Z</time></trkpt><trkpt lat="51.8672167" lon="-8.4803583"><ele>58.0</ele><time>2026-05-05T10:43:30.21Z</time></trkpt><trkpt lat="51.8671117" lon="-8.48035"><ele>59.0</ele><time>2026-05-05T10:43:31.21Z</time></trkpt><trkpt lat="51.8669917" lon="-8.480335"><ele>60.0</ele><time>2026-05-05T10:43:32.21Z</time></trkpt><trkpt lat="51.8668483" lon="-8.48031"><ele>60.33333333333333</ele><time>2026-05-05T10:43:33.21Z</time></trkpt><trkpt lat="51.8667" lon="-8.4802967"><ele>60.666666666666664</ele><time>2026-05-05T10:43:34.21Z</time></trkpt><trkpt lat="51.8665217" lon="-8.4802783"><ele>61.0</ele><time>2026-05-05T10:43:35.211Z</time></trkpt><trkpt lat="51.8663183" lon="-8.4802367"><ele>61.0</ele><time>2026-05-05T10:43:36.21Z</time></trkpt><trkpt lat="51.8661" lon="-8.4801883"><ele>61.0</ele><time>2026-05-05T10:43:37.211Z</time></trkpt><trkpt lat="51.8658933" lon="-8.4801533"><ele>61.0</ele><time>2026-05-05T10:43:38.21Z</time></trkpt><trkpt lat="51.8656767" lon="-8.4801117"><ele>62.0</ele><time>2026-05-05T10:43:39.21Z</time></trkpt><trkpt lat="51.8654683" lon="-8.48006"><ele>63.0</ele><time>2026-05-05T10:43:40.21Z</time></trkpt><trkpt lat="51.8652683" lon="-8.4800117"><ele>64.0</ele><time>2026-05-05T10:43:41.211Z</time></trkpt><trkpt lat="51.8650717" lon="-8.4799633"><ele>64.66666666666666</ele><time>2026-05-05T10:43:42.211Z</time></trkpt><trkpt lat="51.86489" lon="-8.4799183"><ele>65.33333333333333</ele><time>2026-05-05T10:43:43.211Z</time></trkpt><trkpt lat="51.8647567" lon="-8.4798783"><ele>66.0</ele><time>2026-05-05T10:43:44.21Z</time></trkpt><trkpt lat="51.8645633" lon="-8.4798067"><ele>66.0</ele><time>2026-05-05T10:43:45.211Z</time></trkpt><trkpt lat="51.8643717" lon="-8.4797233"><ele>66.0</ele><time>2026-05-05T10:43:46.21Z</time></trkpt><trkpt lat="51.8641583" lon="-8.47963"><ele>66.0</ele><time>2026-05-05T10:43:47.21Z</time></trkpt><trkpt lat="51.86398" lon="-8.4795717"><ele>70.0</ele><time>2026-05-05T10:43:48.211Z</time></trkpt><trkpt lat="51.8637883" lon="-8.4794933"><ele>74.0</ele><time>2026-05-05T10:43:49.21Z</time></trkpt><trkpt lat="51.8636167" lon="-8.479415"><ele>78.0</ele><time>2026-05-05T10:43:50.21Z</time></trkpt><trkpt lat="51.8634183" lon="-8.4793167"><ele>78.0</ele><time>2026-05-05T10:43:51.211Z</time></trkpt><trkpt lat="51.863215" lon="-8.479235"><ele>78.0</ele><time>2026-05-05T10:43:52.211Z</time></trkpt><trkpt lat="51.8630267" lon="-8.4791983"><ele>78.0</ele><time>2026-05-05T10:43:53.21Z</time></trkpt><trkpt lat="51.8628367" lon="-8.47913"><ele>78.0</ele><time>2026-05-05T10:43:54.211Z</time></trkpt><trkpt lat="51.8626483" lon="-8.4790633"><ele>78.0</ele><time>2026-05-05T10:43:55.211Z</time></trkpt><trkpt lat="51.8624633" lon="-8.4789733"><ele>78.0</ele><time>2026-05-05T10:43:56.211Z</time></trkpt><trkpt lat="51.8622683" lon="-8.47887"><ele>80.66666666666667</ele><time>2026-05-05T10:43:57.211Z</time></trkpt><trkpt lat="51.8620767" lon="-8.4787667"><ele>83.33333333333334</ele><time>2026-05-05T10:43:58.211Z</time></trkpt><trkpt lat="51.8618617" lon="-8.47866"><ele>86.0</ele><time>2026-05-05T10:43:59.211Z</time></trkpt><trkpt lat="51.861665" lon="-8.4785583"><ele>86.0</ele><time>2026-05-05T10:44:00.21Z</time></trkpt><trkpt lat="51.8614633" lon="-8.4784467"><ele>86.0</ele><time>2026-05-05T10:44:01.211Z</time></trkpt><trkpt lat="51.8612867" lon="-8.47833"><ele>86.0</ele><time>2026-05-05T10:44:02.211Z</time></trkpt><trkpt lat="51.86112" lon="-8.4782117"><ele>87.0</ele><time>2026-05-05T10:44:03.21Z</time></trkpt><trkpt lat="51.860945" lon="-8.47805"><ele>88.0</ele><time>2026-05-05T10:44:04.211Z</time></trkpt><trkpt lat="51.8607617" lon="-8.4778633"><ele>89.0</ele><time>2026-05-05T10:44:05.21Z</time></trkpt><trkpt lat="51.8605617" lon="-8.4776833"><ele>89.0</ele><time>2026-05-05T10:44:06.211Z</time></trkpt><trkpt lat="51.8603767" lon="-8.477505"><ele>89.0</ele><time>2026-05-05T10:44:07.211Z</time></trkpt><trkpt lat="51.8601833" lon="-8.4773183"><ele>89.0</ele><time>2026-05-05T10:44:08.211Z</time></trkpt><trkpt lat="51.859985" lon="-8.4771283"><ele>91.33333333333334</ele><time>2026-05-05T10:44:09.21Z</time></trkpt><trkpt lat="51.8598033" lon="-8.4769533"><ele>93.66666666666667</ele><time>2026-05-05T10:44:10.211Z</time></trkpt><trkpt lat="51.8595967" lon="-8.4767983"><ele>96.0</ele><time>2026-05-05T10:44:11.211Z</time></trkpt><trkpt lat="51.8593933" lon="-8.47667"><ele>96.5</ele><time>2026-05-05T10:44:12.211Z</time></trkpt><trkpt lat="51.8591567" lon="-8.4765567"><ele>97.0</ele><time>2026-05-05T10:44:13.211Z</time></trkpt><trkpt lat="51.8589117" lon="-8.47646"><ele>97.0</ele><time>2026-05-05T10:44:14.211Z</time></trkpt><trkpt lat="51.8586883" lon="-8.4763767"><ele>97.0</ele><time>2026-05-05T10:44:15.211Z</time></trkpt><trkpt lat="51.85846" lon="-8.4763333"><ele>98.5</ele><time>2026-05-05T10:44:16.211Z</time></trkpt><trkpt lat="51.8582017" lon="-8.4763017"><ele>100.0</ele><time>2026-05-05T10:44:17.211Z</time></trkpt><trkpt lat="51.85797" lon="-8.4762883"><ele>100.0</ele><time>2026-05-05T10:44:18.21Z</time></trkpt><trkpt lat="51.8577567" lon="-8.4763333"><ele>100.0</ele><time>2026-05-05T10:44:19.21Z</time></trkpt><trkpt lat="51.85756" lon="-8.4763783"><ele>100.0</ele><time>2026-05-05T10:44:20.21Z</time></trkpt><trkpt lat="51.857375" lon="-8.4764283"><ele>101.33333333333334</ele><time>2026-05-05T10:44:21.211Z</time></trkpt><trkpt lat="51.857195" lon="-8.4765033"><ele>102.66666666666666</ele><time>2026-05-05T10:44:22.211Z</time></trkpt><trkpt lat="51.8570267" lon="-8.4765467"><ele>104.0</ele><time>2026-05-05T10:44:23.211Z</time></trkpt><trkpt lat="51.8568517" lon="-8.47658"><ele>107.0</ele><time>2026-05-05T10:44:24.21Z</time></trkpt><trkpt lat="51.856675" lon="-8.4766117"><ele>110.0</ele><time>2026-05-05T10:44:25.211Z</time></trkpt><trkpt lat="51.8564883" lon="-8.476635"><ele>113.0</ele><time>2026-05-05T10:44:26.211Z</time></trkpt><trkpt lat="51.8562917" lon="-8.4766533"><ele>113.0</ele><time>2026-05-05T10:44:27.21Z</time></trkpt><trkpt lat="51.8560817" lon="-8.4766733"><ele>113.0</ele><time>2026-05-05T10:44:28.21Z</time></trkpt><trkpt lat="51.8558483" lon="-8.47667"><ele>113.0</ele><time>2026-05-05T10:44:29.211Z</time></trkpt><trkpt lat="51.8556117" lon="-8.4766433"><ele>116.0</ele><time>2026-05-05T10:44:30.211Z</time></trkpt><trkpt lat="51.8553833" lon="-8.4766083"><ele>119.0</ele><time>2026-05-05T10:44:31.211Z</time></trkpt><trkpt lat="51.8551417" lon="-8.476585"><ele>121.0</ele><time>2026-05-05T10:44:32.21Z</time></trkpt><trkpt lat="51.85491" lon="-8.4765583"><ele>123.0</ele><time>2026-05-05T10:44:33.211Z</time></trkpt><trkpt lat="51.854675" lon="-8.4765183"><ele>123.0</ele><time>2026-05-05T10:44:34.211Z</time></trkpt><trkpt lat="51.8544417" lon="-8.4764733"><ele>123.0</ele><time>2026-05-05T10:44:35.21Z</time></trkpt><trkpt lat="51.8542083" lon="-8.4764483"><ele>124.66666666666666</ele><time>2026-05-05T10:44:36.211Z</time></trkpt><trkpt lat="51.853985" lon="-8.47644"><ele>126.33333333333333</ele><time>2026-05-05T10:44:37.211Z</time></trkpt><trkpt lat="51.8537717" lon="-8.476415"><ele>128.0</ele><time>2026-05-05T10:44:38.211Z</time></trkpt><trkpt lat="51.85356" lon="-8.4763917"><ele>129.0</ele><time>2026-05-05T10:44:39.21Z</time></trkpt><trkpt lat="51.8533517" lon="-8.476375"><ele>130.0</ele><time>2026-05-05T10:44:40.21Z</time></trkpt><trkpt lat="51.8531483" lon="-8.4763567"><ele>131.0</ele><time>2026-05-05T10:44:41.211Z</time></trkpt><trkpt lat="51.8529417" lon="-8.4763283"><ele>131.0</ele><time>2026-05-05T10:44:42.21Z</time></trkpt><trkpt lat="51.852735" lon="-8.4762967"><ele>131.0</ele><time>2026-05-05T10:44:43.21Z</time></trkpt><trkpt lat="51.8525133" lon="-8.47629"><ele>131.0</ele><time>2026-05-05T10:44:44.211Z</time></trkpt><trkpt lat="51.85229" lon="-8.47628"><ele>132.33333333333331</ele><time>2026-05-05T10:44:45.211Z</time></trkpt><trkpt lat="51.852065" lon="-8.4762767"><ele>133.66666666666666</ele><time>2026-05-05T10:44:46.211Z</time></trkpt><trkpt lat="51.8518633" lon="-8.4762767"><ele>135.0</ele><time>2026-05-05T10:44:47.211Z</time></trkpt><trkpt lat="51.851675" lon="-8.4762667"><ele>138.66666666666666</ele><time>2026-05-05T10:44:48.211Z</time></trkpt><trkpt lat="51.851495" lon="-8.4762483"><ele>142.33333333333331</ele><time>2026-05-05T10:44:49.211Z</time></trkpt><trkpt lat="51.85133" lon="-8.4762467"><ele>146.0</ele><time>2026-05-05T10:44:50.21Z</time></trkpt><trkpt lat="51.8511567" lon="-8.4762167"><ele>146.0</ele><time>2026-05-05T10:44:51.211Z</time></trkpt><trkpt lat="51.8510033" lon="-8.47619"><ele>146.0</ele><time>2026-05-05T10:44:52.21Z</time></trkpt><trkpt lat="51.8508367" lon="-8.4761567"><ele>146.0</ele><time>2026-05-05T10:44:53.211Z</time></trkpt><trkpt lat="51.8506783" lon="-8.476115"><ele>146.25</ele><time>2026-05-05T10:44:54.211Z</time></trkpt><trkpt lat="51.8505317" lon="-8.476105"><ele>146.5</ele><time>2026-05-05T10:44:55.211Z</time></trkpt><trkpt lat="51.8503817" lon="-8.4760833"><ele>146.75</ele><time>2026-05-05T10:44:56.21Z</time></trkpt><trkpt lat="51.850235" lon="-8.4760417"><ele>147.0</ele><time>2026-05-05T10:44:57.21Z</time></trkpt><trkpt lat="51.8500967" lon="-8.4760183"><ele>147.4</ele><time>2026-05-05T10:44:58.211Z</time></trkpt><trkpt lat="51.84998" lon="-8.4759917"><ele>147.79999999999998</ele><time>2026-05-05T10:44:59.211Z</time></trkpt><trkpt lat="51.8498817" lon="-8.475975"><ele>148.2</ele><time>2026-05-05T10:45:00.21Z</time></trkpt><trkpt lat="51.8497833" lon="-8.4759683"><ele>148.6</ele><time>2026-05-05T10:45:01.211Z</time></trkpt><trkpt lat="51.8496833" lon="-8.47596"><ele>149.0</ele><time>2026-05-05T10:45:02.211Z</time></trkpt><trkpt lat="51.8495783" lon="-8.47595"><ele>149.0</ele><time>2026-05-05T10:45:03.211Z</time></trkpt><trkpt lat="51.8494717" lon="-8.475935"><ele>149.0</ele><time>2026-05-05T10:45:04.21Z</time></trkpt><trkpt lat="51.8493767" lon="-8.4759283"><ele>149.0</ele><time>2026-05-05T10:45:05.211Z</time></trkpt><trkpt lat="51.8492983" lon="-8.4759133"><ele>149.0</ele><time>2026-05-05T10:45:06.21Z</time></trkpt><trkpt lat="51.849225" lon="-8.4758917"><ele>149.0</ele><time>2026-05-05T10:45:07.21Z</time></trkpt><trkpt lat="51.8491583" lon="-8.475875"><ele>149.0</ele><time>2026-05-05T10:45:08.211Z</time></trkpt><trkpt lat="51.84906" lon="-8.4758517"><ele>149.33333333333331</ele><time>2026-05-05T10:45:10.21Z</time></trkpt><trkpt lat="51.8489917" lon="-8.4758433"><ele>149.66666666666666</ele><time>2026-05-05T10:45:15.21Z</time></trkpt><trkpt lat="51.848925" lon="-8.475845"><ele>150.0</ele><time>2026-05-05T10:45:17.21Z</time></trkpt><trkpt lat="51.8488417" lon="-8.4758517"><ele>150.33333333333334</ele><time>2026-05-05T10:45:19.21Z</time></trkpt><trkpt lat="51.8487483" lon="-8.47581"><ele>150.66666666666669</ele><time>2026-05-05T10:45:21.211Z</time></trkpt><trkpt lat="51.8486483" lon="-8.475715"><ele>151.0</ele><time>2026-05-05T10:45:23.211Z</time></trkpt><trkpt lat="51.848585" lon="-8.4756683"><ele>151.0</ele><time>2026-05-05T10:45:24.21Z</time></trkpt><trkpt lat="51.8485117" lon="-8.4756517"><ele>151.0</ele><time>2026-05-05T10:45:25.21Z</time></trkpt><trkpt lat="51.8484283" lon="-8.4756717"><ele>151.0</ele><time>2026-05-05T10:45:26.21Z</time></trkpt><trkpt lat="51.8483517" lon="-8.4757567"><ele>151.0</ele><time>2026-05-05T10:45:27.211Z</time></trkpt><trkpt lat="51.8482733" lon="-8.4758467"><ele>151.0</ele><time>2026-05-05T10:45:28.211Z</time></trkpt><trkpt lat="51.8481767" lon="-8.4759483"><ele>151.0</ele><time>2026-05-05T10:45:29.211Z</time></trkpt><trkpt lat="51.8480533" lon="-8.4760367"><ele>151.0</ele><time>2026-05-05T10:45:30.211Z</time></trkpt><trkpt lat="51.8479017" lon="-8.4761133"><ele>151.0</ele><time>2026-05-05T10:45:31.211Z</time></trkpt><trkpt lat="51.8477383" lon="-8.476185"><ele>151.33333333333334</ele><time>2026-05-05T10:45:32.21Z</time></trkpt><trkpt lat="51.847575" lon="-8.4762367"><ele>151.66666666666666</ele><time>2026-05-05T10:45:33.211Z</time></trkpt><trkpt lat="51.8474033" lon="-8.4763017"><ele>152.0</ele><time>2026-05-05T10:45:34.211Z</time></trkpt><trkpt lat="51.8472417" lon="-8.4763733"><ele>152.0</ele><time>2026-05-05T10:45:35.211Z</time></trkpt><trkpt lat="51.847085" lon="-8.4764583"><ele>152.0</ele><time>2026-05-05T10:45:36.211Z</time></trkpt><trkpt lat="51.8469083" lon="-8.47653"><ele>152.0</ele><time>2026-05-05T10:45:37.211Z</time></trkpt><trkpt lat="51.8467333" lon="-8.476635"><ele>151.33333333333331</ele><time>2026-05-05T10:45:38.211Z</time></trkpt><trkpt lat="51.8465483" lon="-8.476765"><ele>150.66666666666666</ele><time>2026-05-05T10:45:39.21Z</time></trkpt><trkpt lat="51.846335" lon="-8.4768733"><ele>150.0</ele><time>2026-05-05T10:45:40.211Z</time></trkpt><trkpt lat="51.8461183" lon="-8.4769883"><ele>149.0</ele><time>2026-05-05T10:45:41.211Z</time></trkpt><trkpt lat="51.84591" lon="-8.47712"><ele>148.0</ele><time>2026-05-05T10:45:42.211Z</time></trkpt><trkpt lat="51.8456917" lon="-8.4772467"><ele>148.0</ele><time>2026-05-05T10:45:43.21Z</time></trkpt><trkpt lat="51.8454767" lon="-8.477385"><ele>148.0</ele><time>2026-05-05T10:45:44.211Z</time></trkpt><trkpt lat="51.8452583" lon="-8.4775067"><ele>147.0</ele><time>2026-05-05T10:45:45.211Z</time></trkpt><trkpt lat="51.84505" lon="-8.47763"><ele>146.0</ele><time>2026-05-05T10:45:46.211Z</time></trkpt><trkpt lat="51.8448333" lon="-8.477725"><ele>145.0</ele><time>2026-05-05T10:45:47.21Z</time></trkpt><trkpt lat="51.844645" lon="-8.4778167"><ele>145.0</ele><time>2026-05-05T10:45:48.211Z</time></trkpt><trkpt lat="51.8444783" lon="-8.4779067"><ele>145.0</ele><time>2026-05-05T10:45:49.211Z</time></trkpt><trkpt lat="51.8443267" lon="-8.4779883"><ele>145.0</ele><time>2026-05-05T10:45:50.21Z</time></trkpt><trkpt lat="51.8441667" lon="-8.4780717"><ele>144.0</ele><time>2026-05-05T10:45:51.211Z</time></trkpt><trkpt lat="51.8439867" lon="-8.4781667"><ele>143.0</ele><time>2026-05-05T10:45:52.211Z</time></trkpt><trkpt lat="51.8438" lon="-8.4782567"><ele>142.0</ele><time>2026-05-05T10:45:53.21Z</time></trkpt><trkpt lat="51.8436067" lon="-8.478355"><ele>141.0</ele><time>2026-05-05T10:45:54.211Z</time></trkpt><trkpt lat="51.843415" lon="-8.4784583"><ele>140.0</ele><time>2026-05-05T10:45:55.211Z</time></trkpt><trkpt lat="51.84323" lon="-8.4785483"><ele>139.0</ele><time>2026-05-05T10:45:56.21Z</time></trkpt><trkpt lat="51.8430367" lon="-8.4786333"><ele>139.0</ele><time>2026-05-05T10:45:57.211Z</time></trkpt><trkpt lat="51.842855" lon="-8.4787217"><ele>139.0</ele><time>2026-05-05T10:45:58.211Z</time></trkpt><trkpt lat="51.842665" lon="-8.4788217"><ele>139.0</ele><time>2026-05-05T10:45:59.21Z</time></trkpt><trkpt lat="51.8424717" lon="-8.4789167"><ele>138.33333333333334</ele><time>2026-05-05T10:46:00.211Z</time></trkpt><trkpt lat="51.8422767" lon="-8.479"><ele>137.66666666666666</ele><time>2026-05-05T10:46:01.211Z</time></trkpt><trkpt lat="51.8420817" lon="-8.4790783"><ele>137.0</ele><time>2026-05-05T10:46:02.211Z</time></trkpt><trkpt lat="51.841895" lon="-8.4791817"><ele>136.66666666666666</ele><time>2026-05-05T10:46:03.21Z</time></trkpt><trkpt lat="51.841705" lon="-8.4792717"><ele>136.33333333333334</ele><time>2026-05-05T10:46:04.21Z</time></trkpt><trkpt lat="51.8415217" lon="-8.4793667"><ele>136.0</ele><time>2026-05-05T10:46:05.211Z</time></trkpt><trkpt lat="51.8413433" lon="-8.479455"><ele>136.0</ele><time>2026-05-05T10:46:06.21Z</time></trkpt><trkpt lat="51.8411667" lon="-8.4795567"><ele>136.0</ele><time>2026-05-05T10:46:07.21Z</time></trkpt><trkpt lat="51.840985" lon="-8.4796533"><ele>136.0</ele><time>2026-05-05T10:46:08.21Z</time></trkpt><trkpt lat="51.8408083" lon="-8.4797317"><ele>135.66666666666669</ele><time>2026-05-05T10:46:09.21Z</time></trkpt><trkpt lat="51.8406383" lon="-8.4798033"><ele>135.33333333333334</ele><time>2026-05-05T10:46:10.21Z</time></trkpt><trkpt lat="51.8404733" lon="-8.4799067"><ele>135.0</ele><time>2026-05-05T10:46:11.21Z</time></trkpt><trkpt lat="51.840305" lon="-8.48001"><ele>135.0</ele><time>2026-05-05T10:46:12.211Z</time></trkpt><trkpt lat="51.8401383" lon="-8.4801067"><ele>135.0</ele><time>2026-05-05T10:46:13.211Z</time></trkpt><trkpt lat="51.83997" lon="-8.48022"><ele>135.0</ele><time>2026-05-05T10:46:14.21Z</time></trkpt><trkpt lat="51.8398067" lon="-8.4803383"><ele>134.66666666666666</ele><time>2026-05-05T10:46:15.211Z</time></trkpt><trkpt lat="51.8396467" lon="-8.4804617"><ele>134.33333333333331</ele><time>2026-05-05T10:46:16.211Z</time></trkpt><trkpt lat="51.8394983" lon="-8.4805867"><ele>134.0</ele><time>2026-05-05T10:46:17.21Z</time></trkpt><trkpt lat="51.8393567" lon="-8.4807233"><ele>133.0</ele><time>2026-05-05T10:46:18.211Z</time></trkpt><trkpt lat="51.83921" lon="-8.4808533"><ele>132.0</ele><time>2026-05-05T10:46:19.21Z</time></trkpt><trkpt lat="51.8390767" lon="-8.4809717"><ele>131.0</ele><time>2026-05-05T10:46:20.211Z</time></trkpt><trkpt lat="51.8389517" lon="-8.4810883"><ele>131.0</ele><time>2026-05-05T10:46:21.211Z</time></trkpt><trkpt lat="51.838845" lon="-8.4811917"><ele>131.0</ele><time>2026-05-05T10:46:22.21Z</time></trkpt><trkpt lat="51.8387367" lon="-8.48128"><ele>131.0</ele><time>2026-05-05T10:46:23.21Z</time></trkpt><trkpt lat="51.83864" lon="-8.4813467"><ele>131.0</ele><time>2026-05-05T10:46:24.21Z</time></trkpt><trkpt lat="51.8385583" lon="-8.481415"><ele>131.0</ele><time>2026-05-05T10:46:25.211Z</time></trkpt><trkpt lat="51.8384767" lon="-8.4814883"><ele>130.75</ele><time>2026-05-05T10:46:26.211Z</time></trkpt><trkpt lat="51.83837" lon="-8.4815533"><ele>130.5</ele><time>2026-05-05T10:46:27.211Z</time></trkpt><trkpt lat="51.8382533" lon="-8.4816183"><ele>130.25</ele><time>2026-05-05T10:46:28.21Z</time></trkpt><trkpt lat="51.8381267" lon="-8.481685"><ele>130.0</ele><time>2026-05-05T10:46:29.211Z</time></trkpt><trkpt lat="51.8380017" lon="-8.481735"><ele>130.0</ele><time>2026-05-05T10:46:30.211Z</time></trkpt><trkpt lat="51.8378783" lon="-8.4817733"><ele>130.0</ele><time>2026-05-05T10:46:31.21Z</time></trkpt><trkpt lat="51.8377583" lon="-8.481815"><ele>130.0</ele><time>2026-05-05T10:46:32.211Z</time></trkpt><trkpt lat="51.8376417" lon="-8.4818517"><ele>130.0</ele><time>2026-05-05T10:46:33.21Z</time></trkpt><trkpt lat="51.8375133" lon="-8.48189"><ele>130.25</ele><time>2026-05-05T10:46:34.21Z</time></trkpt><trkpt lat="51.8373783" lon="-8.4819217"><ele>130.5</ele><time>2026-05-05T10:46:35.211Z</time></trkpt><trkpt lat="51.8372433" lon="-8.4819717"><ele>130.75</ele><time>2026-05-05T10:46:36.211Z</time></trkpt><trkpt lat="51.8370967" lon="-8.481995"><ele>131.0</ele><time>2026-05-05T10:46:37.211Z</time></trkpt><trkpt lat="51.8369433" lon="-8.4820017"><ele>130.66666666666666</ele><time>2026-05-05T10:46:38.211Z</time></trkpt><trkpt lat="51.8367833" lon="-8.4819783"><ele>130.33333333333334</ele><time>2026-05-05T10:46:39.211Z</time></trkpt><trkpt lat="51.83662" lon="-8.4819367"><ele>130.0</ele><time>2026-05-05T10:46:40.211Z</time></trkpt><trkpt lat="51.8364633" lon="-8.4818667"><ele>130.0</ele><time>2026-05-05T10:46:41.211Z</time></trkpt><trkpt lat="51.836305" lon="-8.4817683"><ele>130.0</ele><time>2026-05-05T10:46:42.211Z</time></trkpt><trkpt lat="51.8361467" lon="-8.4816417"><ele>130.0</ele><time>2026-05-05T10:46:43.211Z</time></trkpt><trkpt lat="51.8359967" lon="-8.481485"><ele>129.66666666666669</ele><time>2026-05-05T10:46:44.211Z</time></trkpt><trkpt lat="51.83585" lon="-8.4813117"><ele>129.33333333333334</ele><time>2026-05-05T10:46:45.211Z</time></trkpt><trkpt lat="51.83572" lon="-8.481135"><ele>129.0</ele><time>2026-05-05T10:46:46.211Z</time></trkpt><trkpt lat="51.8355983" lon="-8.4809667"><ele>129.0</ele><time>2026-05-05T10:46:47.211Z</time></trkpt><trkpt lat="51.835475" lon="-8.4807733"><ele>129.0</ele><time>2026-05-05T10:46:48.21Z</time></trkpt><trkpt lat="51.8353383" lon="-8.4805733"><ele>129.0</ele><time>2026-05-05T10:46:49.211Z</time></trkpt><trkpt lat="51.835235" lon="-8.4803533"><ele>127.0</ele><time>2026-05-05T10:46:50.211Z</time></trkpt><trkpt lat="51.8351217" lon="-8.480125"><ele>125.0</ele><time>2026-05-05T10:46:51.21Z</time></trkpt><trkpt lat="51.83501" lon="-8.479895"><ele>123.0</ele><time>2026-05-05T10:46:52.21Z</time></trkpt><trkpt lat="51.834885" lon="-8.479655"><ele>120.66666666666666</ele><time>2026-05-05T10:46:53.211Z</time></trkpt><trkpt lat="51.8347417" lon="-8.47941"><ele>118.33333333333333</ele><time>2026-05-05T10:46:54.21Z</time></trkpt><trkpt lat="51.8345967" lon="-8.4791917"><ele>116.0</ele><time>2026-05-05T10:46:55.211Z</time></trkpt><trkpt lat="51.8344567" lon="-8.478975"><ele>115.66666666666666</ele><time>2026-05-05T10:46:56.21Z</time></trkpt><trkpt lat="51.834325" lon="-8.478755"><ele>115.33333333333334</ele><time>2026-05-05T10:46:57.211Z</time></trkpt><trkpt lat="51.834195" lon="-8.4785267"><ele>115.0</ele><time>2026-05-05T10:46:58.211Z</time></trkpt><trkpt lat="51.8340717" lon="-8.478315"><ele>115.0</ele><time>2026-05-05T10:46:59.21Z</time></trkpt><trkpt lat="51.833935" lon="-8.478085"><ele>115.0</ele><time>2026-05-05T10:47:00.211Z</time></trkpt><trkpt lat="51.833815" lon="-8.4778517"><ele>115.0</ele><time>2026-05-05T10:47:01.211Z</time></trkpt><trkpt lat="51.8337233" lon="-8.4775933"><ele>113.33333333333334</ele><time>2026-05-05T10:47:02.211Z</time></trkpt><trkpt lat="51.8336417" lon="-8.4773333"><ele>111.66666666666666</ele><time>2026-05-05T10:47:03.21Z</time></trkpt><trkpt lat="51.8335567" lon="-8.4770467"><ele>110.0</ele><time>2026-05-05T10:47:04.211Z</time></trkpt><trkpt lat="51.8334533" lon="-8.476785"><ele>110.0</ele><time>2026-05-05T10:47:05.21Z</time></trkpt><trkpt lat="51.8333367" lon="-8.4765317"><ele>110.0</ele><time>2026-05-05T10:47:06.21Z</time></trkpt><trkpt lat="51.8331833" lon="-8.4763317"><ele>110.0</ele><time>2026-05-05T10:47:07.211Z</time></trkpt><trkpt lat="51.8330133" lon="-8.4761383"><ele>105.5</ele><time>2026-05-05T10:47:08.211Z</time></trkpt><trkpt lat="51.8328317" lon="-8.4759033"><ele>101.0</ele><time>2026-05-05T10:47:09.211Z</time></trkpt><trkpt lat="51.832645" lon="-8.4756733"><ele>100.33333333333333</ele><time>2026-05-05T10:47:10.211Z</time></trkpt><trkpt lat="51.8324683" lon="-8.475455"><ele>99.66666666666666</ele><time>2026-05-05T10:47:11.211Z</time></trkpt><trkpt lat="51.8323117" lon="-8.47526"><ele>99.0</ele><time>2026-05-05T10:47:12.211Z</time></trkpt><trkpt lat="51.8321533" lon="-8.4750783"><ele>99.0</ele><time>2026-05-05T10:47:13.211Z</time></trkpt><trkpt lat="51.8319967" lon="-8.47492"><ele>99.0</ele><time>2026-05-05T10:47:14.211Z</time></trkpt><trkpt lat="51.8318417" lon="-8.47477"><ele>99.0</ele><time>2026-05-05T10:47:15.211Z</time></trkpt><trkpt lat="51.83167" lon="-8.47462"><ele>97.66666666666667</ele><time>2026-05-05T10:47:16.211Z</time></trkpt><trkpt lat="51.8314783" lon="-8.4745217"><ele>96.33333333333334</ele><time>2026-05-05T10:47:17.211Z</time></trkpt><trkpt lat="51.8312917" lon="-8.4744217"><ele>95.0</ele><time>2026-05-05T10:47:18.211Z</time></trkpt><trkpt lat="51.8310917" lon="-8.4743117"><ele>97.0</ele><time>2026-05-05T10:47:19.211Z</time></trkpt><trkpt lat="51.830885" lon="-8.47418"><ele>99.0</ele><time>2026-05-05T10:47:20.211Z</time></trkpt><trkpt lat="51.8306883" lon="-8.474035"><ele>101.0</ele><time>2026-05-05T10:47:21.211Z</time></trkpt><trkpt lat="51.830495" lon="-8.473865"><ele>100.0</ele><time>2026-05-05T10:47:22.21Z</time></trkpt><trkpt lat="51.8303033" lon="-8.473685"><ele>99.0</ele><time>2026-05-05T10:47:23.211Z</time></trkpt><trkpt lat="51.830125" lon="-8.4735067"><ele>98.0</ele><time>2026-05-05T10:47:24.211Z</time></trkpt><trkpt lat="51.8299483" lon="-8.4733183"><ele>98.0</ele><time>2026-05-05T10:47:25.211Z</time></trkpt><trkpt lat="51.8297683" lon="-8.4731383"><ele>98.0</ele><time>2026-05-05T10:47:26.211Z</time></trkpt><trkpt lat="51.8295883" lon="-8.4729733"><ele>98.0</ele><time>2026-05-05T10:47:27.21Z</time></trkpt><trkpt lat="51.8294133" lon="-8.47281"><ele>97.0</ele><time>2026-05-05T10:47:28.211Z</time></trkpt><trkpt lat="51.8292433" lon="-8.47265"><ele>96.0</ele><time>2026-05-05T10:47:29.211Z</time></trkpt><trkpt lat="51.82907" lon="-8.47248"><ele>95.0</ele><time>2026-05-05T10:47:30.211Z</time></trkpt><trkpt lat="51.828895" lon="-8.4723033"><ele>95.0</ele><time>2026-05-05T10:47:31.21Z</time></trkpt><trkpt lat="51.828725" lon="-8.47214"><ele>95.0</ele><time>2026-05-05T10:47:32.21Z</time></trkpt><trkpt lat="51.8285533" lon="-8.4719533"><ele>95.0</ele><time>2026-05-05T10:47:33.211Z</time></trkpt><trkpt lat="51.8284067" lon="-8.4717867"><ele>93.66666666666667</ele><time>2026-05-05T10:47:34.211Z</time></trkpt><trkpt lat="51.8282533" lon="-8.471675"><ele>92.33333333333333</ele><time>2026-05-05T10:47:35.211Z</time></trkpt><trkpt lat="51.8281017" lon="-8.4715733"><ele>91.0</ele><time>2026-05-05T10:47:36.211Z</time></trkpt><trkpt lat="51.8279467" lon="-8.4715083"><ele>91.0</ele><time>2026-05-05T10:47:37.21Z</time></trkpt><trkpt lat="51.8277817" lon="-8.4714833"><ele>91.0</ele><time>2026-05-05T10:47:38.211Z</time></trkpt><trkpt lat="51.8276067" lon="-8.47149"><ele>91.0</ele><time>2026-05-05T10:47:39.211Z</time></trkpt><trkpt lat="51.827465" lon="-8.4716233"><ele>90.33333333333333</ele><time>2026-05-05T10:47:40.211Z</time></trkpt><trkpt lat="51.8273483" lon="-8.47177"><ele>89.66666666666667</ele><time>2026-05-05T10:47:41.211Z</time></trkpt><trkpt lat="51.82721" lon="-8.4718617"><ele>89.0</ele><time>2026-05-05T10:47:42.21Z</time></trkpt><trkpt lat="51.827065" lon="-8.47198"><ele>89.0</ele><time>2026-05-05T10:47:43.211Z</time></trkpt><trkpt lat="51.8269067" lon="-8.472095"><ele>89.0</ele><time>2026-05-05T10:47:44.211Z</time></trkpt><trkpt lat="51.8267717" lon="-8.472205"><ele>89.0</ele><time>2026-05-05T10:47:45.21Z</time></trkpt><trkpt lat="51.8266317" lon="-8.4723133"><ele>88.0</ele><time>2026-05-05T10:47:46.211Z</time></trkpt><trkpt lat="51.82649" lon="-8.47243"><ele>87.0</ele><time>2026-05-05T10:47:47.21Z</time></trkpt><trkpt lat="51.8263617" lon="-8.4725483"><ele>86.0</ele><time>2026-05-05T10:47:48.211Z</time></trkpt><trkpt lat="51.826255" lon="-8.472685"><ele>85.0</ele><time>2026-05-05T10:47:49.211Z</time></trkpt><trkpt lat="51.8261433" lon="-8.4728117"><ele>84.25</ele><time>2026-05-05T10:47:50.211Z</time></trkpt><trkpt lat="51.8260267" lon="-8.4729467"><ele>83.5</ele><time>2026-05-05T10:47:51.211Z</time></trkpt><trkpt lat="51.8259167" lon="-8.47309"><ele>82.75</ele><time>2026-05-05T10:47:52.21Z</time></trkpt><trkpt lat="51.825825" lon="-8.4732433"><ele>82.0</ele><time>2026-05-05T10:47:53.211Z</time></trkpt><trkpt lat="51.8257267" lon="-8.4733833"><ele>82.0</ele><time>2026-05-05T10:47:54.211Z</time></trkpt><trkpt lat="51.8256267" lon="-8.4735433"><ele>82.0</ele><time>2026-05-05T10:47:55.21Z</time></trkpt><trkpt lat="51.825515" lon="-8.4737133"><ele>82.0</ele><time>2026-05-05T10:47:56.21Z</time></trkpt><trkpt lat="51.8254117" lon="-8.47389"><ele>82.0</ele><time>2026-05-05T10:47:57.211Z</time></trkpt><trkpt lat="51.8253283" lon="-8.47405"><ele>82.25</ele><time>2026-05-05T10:47:58.21Z</time></trkpt><trkpt lat="51.8252283" lon="-8.4742317"><ele>82.5</ele><time>2026-05-05T10:47:59.211Z</time></trkpt><trkpt lat="51.825135" lon="-8.4744017"><ele>82.75</ele><time>2026-05-05T10:48:00.211Z</time></trkpt><trkpt lat="51.8250417" lon="-8.4745567"><ele>83.0</ele><time>2026-05-05T10:48:01.21Z</time></trkpt><trkpt lat="51.8249583" lon="-8.47471"><ele>83.0</ele><time>2026-05-05T10:48:02.21Z</time></trkpt><trkpt lat="51.8248567" lon="-8.4748517"><ele>83.0</ele><time>2026-05-05T10:48:03.211Z</time></trkpt><trkpt lat="51.824725" lon="-8.4749733"><ele>83.0</ele><time>2026-05-05T10:48:04.211Z</time></trkpt><trkpt lat="51.8245817" lon="-8.4750867"><ele>83.0</ele><time>2026-05-05T10:48:05.211Z</time></trkpt><trkpt lat="51.824425" lon="-8.47519"><ele>82.25</ele><time>2026-05-05T10:48:06.211Z</time></trkpt><trkpt lat="51.82428" lon="-8.4752917"><ele>81.5</ele><time>2026-05-05T10:48:07.211Z</time></trkpt><trkpt lat="51.824135" lon="-8.4753633"><ele>80.75</ele><time>2026-05-05T10:48:08.211Z</time></trkpt><trkpt lat="51.8240067" lon="-8.4754483"><ele>80.0</ele><time>2026-05-05T10:48:09.21Z</time></trkpt><trkpt lat="51.823885" lon="-8.475545"><ele>80.0</ele><time>2026-05-05T10:48:10.211Z</time></trkpt><trkpt lat="51.8237467" lon="-8.4756517"><ele>80.0</ele><time>2026-05-05T10:48:11.21Z</time></trkpt><trkpt lat="51.8236217" lon="-8.4757883"><ele>80.0</ele><time>2026-05-05T10:48:12.211Z</time></trkpt><trkpt lat="51.82347" lon="-8.4759533"><ele>79.0</ele><time>2026-05-05T10:48:13.211Z</time></trkpt><trkpt lat="51.823335" lon="-8.4761217"><ele>78.0</ele><time>2026-05-05T10:48:14.211Z</time></trkpt><trkpt lat="51.8231967" lon="-8.47633"><ele>77.0</ele><time>2026-05-05T10:48:15.21Z</time></trkpt><trkpt lat="51.82307" lon="-8.4765233"><ele>77.0</ele><time>2026-05-05T10:48:16.211Z</time></trkpt><trkpt lat="51.82296" lon="-8.476685"><ele>77.0</ele><time>2026-05-05T10:48:17.211Z</time></trkpt><trkpt lat="51.8228467" lon="-8.47685"><ele>77.0</ele><time>2026-05-05T10:48:18.211Z</time></trkpt><trkpt lat="51.8227533" lon="-8.4770267"><ele>77.0</ele><time>2026-05-05T10:48:19.21Z</time></trkpt><trkpt lat="51.8226567" lon="-8.4771967"><ele>76.5</ele><time>2026-05-05T10:48:20.21Z</time></trkpt><trkpt lat="51.822585" lon="-8.4774033"><ele>76.0</ele><time>2026-05-05T10:48:21.21Z</time></trkpt><trkpt lat="51.8224883" lon="-8.4776"><ele>75.5</ele><time>2026-05-05T10:48:22.211Z</time></trkpt><trkpt lat="51.8224033" lon="-8.47779"><ele>75.0</ele><time>2026-05-05T10:48:23.21Z</time></trkpt><trkpt lat="51.82232" lon="-8.4779933"><ele>75.0</ele><time>2026-05-05T10:48:24.211Z</time></trkpt><trkpt lat="51.8222517" lon="-8.4782"><ele>75.0</ele><time>2026-05-05T10:48:25.211Z</time></trkpt><trkpt lat="51.82219" lon="-8.478395"><ele>75.0</ele><time>2026-05-05T10:48:26.21Z</time></trkpt><trkpt lat="51.8221417" lon="-8.4785883"><ele>75.0</ele><time>2026-05-05T10:48:27.211Z</time></trkpt><trkpt lat="51.8220933" lon="-8.47878"><ele>75.33333333333333</ele><time>2026-05-05T10:48:28.21Z</time></trkpt><trkpt lat="51.8220333" lon="-8.47901"><ele>75.66666666666666</ele><time>2026-05-05T10:48:29.211Z</time></trkpt><trkpt lat="51.8219583" lon="-8.4792633"><ele>76.0</ele><time>2026-05-05T10:48:30.211Z</time></trkpt><trkpt lat="51.821905" lon="-8.4795217"><ele>75.33333333333333</ele><time>2026-05-05T10:48:31.211Z</time></trkpt><trkpt lat="51.8218617" lon="-8.4797883"><ele>74.66666666666667</ele><time>2026-05-05T10:48:32.211Z</time></trkpt><trkpt lat="51.8218067" lon="-8.480045"><ele>74.0</ele><time>2026-05-05T10:48:33.21Z</time></trkpt><trkpt lat="51.821765" lon="-8.4802883"><ele>70.0</ele><time>2026-05-05T10:48:34.211Z</time></trkpt><trkpt lat="51.82174" lon="-8.48054"><ele>66.0</ele><time>2026-05-05T10:48:35.211Z</time></trkpt><trkpt lat="51.8216967" lon="-8.4807883"><ele>62.0</ele><time>2026-05-05T10:48:36.21Z</time></trkpt><trkpt lat="51.8216483" lon="-8.4810583"><ele>62.333333333333336</ele><time>2026-05-05T10:48:37.211Z</time></trkpt><trkpt lat="51.8215867" lon="-8.4813217"><ele>62.66666666666667</ele><time>2026-05-05T10:48:38.21Z</time></trkpt><trkpt lat="51.8215117" lon="-8.4815717"><ele>63.0</ele><time>2026-05-05T10:48:39.211Z</time></trkpt><trkpt lat="51.8214333" lon="-8.4817933"><ele>63.0</ele><time>2026-05-05T10:48:40.211Z</time></trkpt><trkpt lat="51.8213283" lon="-8.4819883"><ele>63.0</ele><time>2026-05-05T10:48:41.211Z</time></trkpt><trkpt lat="51.8212083" lon="-8.4821517"><ele>63.0</ele><time>2026-05-05T10:48:42.211Z</time></trkpt><trkpt lat="51.8210783" lon="-8.4822783"><ele>61.0</ele><time>2026-05-05T10:48:43.211Z</time></trkpt><trkpt lat="51.820945" lon="-8.4824083"><ele>59.0</ele><time>2026-05-05T10:48:44.211Z</time></trkpt><trkpt lat="51.8207917" lon="-8.48254"><ele>57.0</ele><time>2026-05-05T10:48:45.211Z</time></trkpt><trkpt lat="51.8206383" lon="-8.48268"><ele>57.0</ele><time>2026-05-05T10:48:46.211Z</time></trkpt><trkpt lat="51.820485" lon="-8.482835"><ele>57.0</ele><time>2026-05-05T10:48:47.211Z</time></trkpt><trkpt lat="51.82034" lon="-8.4829933"><ele>57.0</ele><time>2026-05-05T10:48:48.21Z</time></trkpt><trkpt lat="51.82021" lon="-8.4831533"><ele>55.66666666666667</ele><time>2026-05-05T10:48:49.211Z</time></trkpt><trkpt lat="51.82008" lon="-8.4833217"><ele>54.333333333333336</ele><time>2026-05-05T10:48:50.211Z</time></trkpt><trkpt lat="51.8199583" lon="-8.4834933"><ele>53.0</ele><time>2026-05-05T10:48:51.21Z</time></trkpt><trkpt lat="51.8198467" lon="-8.4836733"><ele>54.333333333333336</ele><time>2026-05-05T10:48:52.21Z</time></trkpt><trkpt lat="51.81975" lon="-8.48388"><ele>55.66666666666667</ele><time>2026-05-05T10:48:53.21Z</time></trkpt><trkpt lat="51.8196433" lon="-8.4840983"><ele>57.0</ele><time>2026-05-05T10:48:54.211Z</time></trkpt><trkpt lat="51.8195467" lon="-8.4843267"><ele>57.0</ele><time>2026-05-05T10:48:55.21Z</time></trkpt><trkpt lat="51.8194433" lon="-8.4845283"><ele>57.0</ele><time>2026-05-05T10:48:56.21Z</time></trkpt><trkpt lat="51.819335" lon="-8.48472"><ele>57.0</ele><time>2026-05-05T10:48:57.211Z</time></trkpt><trkpt lat="51.8192383" lon="-8.4849133"><ele>54.66666666666667</ele><time>2026-05-05T10:48:58.21Z</time></trkpt><trkpt lat="51.8191167" lon="-8.4850867"><ele>52.333333333333336</ele><time>2026-05-05T10:48:59.211Z</time></trkpt><trkpt lat="51.8189833" lon="-8.4852567"><ele>50.0</ele><time>2026-05-05T10:49:00.211Z</time></trkpt><trkpt lat="51.8188583" lon="-8.4854183"><ele>50.75</ele><time>2026-05-05T10:49:01.211Z</time></trkpt><trkpt lat="51.818745" lon="-8.4855983"><ele>51.5</ele><time>2026-05-05T10:49:02.21Z</time></trkpt><trkpt lat="51.81864" lon="-8.4857833"><ele>52.25</ele><time>2026-05-05T10:49:03.21Z</time></trkpt><trkpt lat="51.8185583" lon="-8.4859533"><ele>53.0</ele><time>2026-05-05T10:49:04.21Z</time></trkpt><trkpt lat="51.81846" lon="-8.4861167"><ele>50.333333333333336</ele><time>2026-05-05T10:49:05.211Z</time></trkpt><trkpt lat="51.818405" lon="-8.486355"><ele>47.66666666666667</ele><time>2026-05-05T10:49:06.211Z</time></trkpt><trkpt lat="51.8183533" lon="-8.4866033"><ele>45.0</ele><time>2026-05-05T10:49:07.211Z</time></trkpt><trkpt lat="51.8182917" lon="-8.4868333"><ele>45.0</ele><time>2026-05-05T10:49:08.211Z</time></trkpt><trkpt lat="51.81822" lon="-8.4870317"><ele>45.0</ele><time>2026-05-05T10:49:09.21Z</time></trkpt><trkpt lat="51.8181533" lon="-8.4872467"><ele>45.0</ele><time>2026-05-05T10:49:10.211Z</time></trkpt><trkpt lat="51.8180917" lon="-8.4875183"><ele>45.333333333333336</ele><time>2026-05-05T10:49:11.211Z</time></trkpt><trkpt lat="51.8180333" lon="-8.4878067"><ele>45.66666666666667</ele><time>2026-05-05T10:49:12.211Z</time></trkpt><trkpt lat="51.8179617" lon="-8.4881167"><ele>46.0</ele><time>2026-05-05T10:49:13.211Z</time></trkpt><trkpt lat="51.8178867" lon="-8.488415"><ele>46.0</ele><time>2026-05-05T10:49:14.211Z</time></trkpt><trkpt lat="51.8177867" lon="-8.4887267"><ele>46.0</ele><time>2026-05-05T10:49:15.211Z</time></trkpt><trkpt lat="51.8177183" lon="-8.489025"><ele>46.0</ele><time>2026-05-05T10:49:16.211Z</time></trkpt><trkpt lat="51.8176633" lon="-8.4892867"><ele>43.66666666666667</ele><time>2026-05-05T10:49:17.21Z</time></trkpt><trkpt lat="51.8176033" lon="-8.4895383"><ele>41.333333333333336</ele><time>2026-05-05T10:49:18.211Z</time></trkpt><trkpt lat="51.8175417" lon="-8.489775"><ele>39.0</ele><time>2026-05-05T10:49:19.211Z</time></trkpt><trkpt lat="51.8174917" lon="-8.489985"><ele>39.0</ele><time>2026-05-05T10:49:20.21Z</time></trkpt><trkpt lat="51.81745" lon="-8.4901817"><ele>39.0</ele><time>2026-05-05T10:49:21.21Z</time></trkpt><trkpt lat="51.8173483" lon="-8.4903783"><ele>39.0</ele><time>2026-05-05T10:49:22.211Z</time></trkpt><trkpt lat="51.8172767" lon="-8.4905983"><ele>39.0</ele><time>2026-05-05T10:49:23.211Z</time></trkpt><trkpt lat="51.817205" lon="-8.4908017"><ele>39.666666666666664</ele><time>2026-05-05T10:49:24.211Z</time></trkpt><trkpt lat="51.8171217" lon="-8.4910133"><ele>40.33333333333333</ele><time>2026-05-05T10:49:25.211Z</time></trkpt><trkpt lat="51.8170317" lon="-8.4912333"><ele>41.0</ele><time>2026-05-05T10:49:26.21Z</time></trkpt><trkpt lat="51.8169317" lon="-8.4914467"><ele>38.666666666666664</ele><time>2026-05-05T10:49:27.211Z</time></trkpt><trkpt lat="51.8168167" lon="-8.491625"><ele>36.333333333333336</ele><time>2026-05-05T10:49:28.211Z</time></trkpt><trkpt lat="51.816695" lon="-8.4917933"><ele>34.0</ele><time>2026-05-05T10:49:29.211Z</time></trkpt><trkpt lat="51.8165567" lon="-8.4919717"><ele>34.66666666666667</ele><time>2026-05-05T10:49:30.211Z</time></trkpt><trkpt lat="51.81644" lon="-8.4921433"><ele>35.333333333333336</ele><time>2026-05-05T10:49:31.211Z</time></trkpt><trkpt lat="51.81633" lon="-8.49231"><ele>36.0</ele><time>2026-05-05T10:49:32.211Z</time></trkpt><trkpt lat="51.816215" lon="-8.4924467"><ele>36.0</ele><time>2026-05-05T10:49:33.211Z</time></trkpt><trkpt lat="51.8160933" lon="-8.492575"><ele>36.0</ele><time>2026-05-05T10:49:34.21Z</time></trkpt><trkpt lat="51.8159633" lon="-8.4927217"><ele>36.0</ele><time>2026-05-05T10:49:35.21Z</time></trkpt><trkpt lat="51.8158133" lon="-8.4928667"><ele>34.666666666666664</ele><time>2026-05-05T10:49:36.211Z</time></trkpt><trkpt lat="51.8156433" lon="-8.49301"><ele>33.33333333333333</ele><time>2026-05-05T10:49:37.211Z</time></trkpt><trkpt lat="51.8154467" lon="-8.4931483"><ele>32.0</ele><time>2026-05-05T10:49:38.211Z</time></trkpt><trkpt lat="51.8152333" lon="-8.4932767"><ele>31.333333333333332</ele><time>2026-05-05T10:49:39.211Z</time></trkpt><trkpt lat="51.8150383" lon="-8.4934067"><ele>30.666666666666664</ele><time>2026-05-05T10:49:40.211Z</time></trkpt><trkpt lat="51.8148483" lon="-8.4935533"><ele>30.0</ele><time>2026-05-05T10:49:41.21Z</time></trkpt><trkpt lat="51.8146633" lon="-8.4936967"><ele>29.666666666666664</ele><time>2026-05-05T10:49:42.211Z</time></trkpt><trkpt lat="51.8145" lon="-8.4938467"><ele>29.333333333333332</ele><time>2026-05-05T10:49:43.211Z</time></trkpt><trkpt lat="51.8143367" lon="-8.4939833"><ele>29.0</ele><time>2026-05-05T10:49:44.211Z</time></trkpt><trkpt lat="51.8141583" lon="-8.4941217"><ele>29.0</ele><time>2026-05-05T10:49:45.21Z</time></trkpt><trkpt lat="51.8139533" lon="-8.4942317"><ele>29.0</ele><time>2026-05-05T10:49:46.211Z</time></trkpt><trkpt lat="51.8137617" lon="-8.4943533"><ele>29.0</ele><time>2026-05-05T10:49:47.21Z</time></trkpt><trkpt lat="51.8135733" lon="-8.49449"><ele>30.0</ele><time>2026-05-05T10:49:48.211Z</time></trkpt><trkpt lat="51.8133717" lon="-8.494625"><ele>31.0</ele><time>2026-05-05T10:49:49.21Z</time></trkpt><trkpt lat="51.813165" lon="-8.4947517"><ele>32.0</ele><time>2026-05-05T10:49:50.211Z</time></trkpt><trkpt lat="51.8129433" lon="-8.4948617"><ele>32.0</ele><time>2026-05-05T10:49:51.211Z</time></trkpt><trkpt lat="51.8127117" lon="-8.4949417"><ele>32.0</ele><time>2026-05-05T10:49:52.211Z</time></trkpt><trkpt lat="51.8124817" lon="-8.4949733"><ele>35.0</ele><time>2026-05-05T10:49:53.211Z</time></trkpt><trkpt lat="51.8122467" lon="-8.4950017"><ele>38.0</ele><time>2026-05-05T10:49:54.21Z</time></trkpt><trkpt lat="51.8120217" lon="-8.49501"><ele>40.0</ele><time>2026-05-05T10:49:55.211Z</time></trkpt><trkpt lat="51.8118167" lon="-8.4949967"><ele>42.0</ele><time>2026-05-05T10:49:56.211Z</time></trkpt><trkpt lat="51.811645" lon="-8.4949667"><ele>44.0</ele><time>2026-05-05T10:49:57.211Z</time></trkpt><trkpt lat="51.81148" lon="-8.49492"><ele>44.0</ele><time>2026-05-05T10:49:58.211Z</time></trkpt><trkpt lat="51.8113417" lon="-8.4948717"><ele>44.0</ele><time>2026-05-05T10:49:59.211Z</time></trkpt><trkpt lat="51.8112217" lon="-8.4948183"><ele>44.0</ele><time>2026-05-05T10:50:00.21Z</time></trkpt><trkpt lat="51.811115" lon="-8.4947467"><ele>44.0</ele><time>2026-05-05T10:50:01.211Z</time></trkpt><trkpt lat="51.8110033" lon="-8.49468"><ele>44.25</ele><time>2026-05-05T10:50:02.21Z</time></trkpt><trkpt lat="51.810885" lon="-8.494595"><ele>44.5</ele><time>2026-05-05T10:50:03.211Z</time></trkpt><trkpt lat="51.8107667" lon="-8.4945133"><ele>44.75</ele><time>2026-05-05T10:50:04.211Z</time></trkpt><trkpt lat="51.8106383" lon="-8.4944417"><ele>45.0</ele><time>2026-05-05T10:50:05.211Z</time></trkpt><trkpt lat="51.81052" lon="-8.494375"><ele>45.0</ele><time>2026-05-05T10:50:06.21Z</time></trkpt><trkpt lat="51.8104133" lon="-8.4943133"><ele>45.0</ele><time>2026-05-05T10:50:07.211Z</time></trkpt><trkpt lat="51.8103117" lon="-8.4942467"><ele>45.0</ele><time>2026-05-05T10:50:08.21Z</time></trkpt><trkpt lat="51.8102017" lon="-8.4941767"><ele>45.0</ele><time>2026-05-05T10:50:09.211Z</time></trkpt><trkpt lat="51.81009" lon="-8.4940867"><ele>45.25</ele><time>2026-05-05T10:50:10.211Z</time></trkpt><trkpt lat="51.8099633" lon="-8.494"><ele>45.5</ele><time>2026-05-05T10:50:11.211Z</time></trkpt><trkpt lat="51.80983" lon="-8.4939017"><ele>45.75</ele><time>2026-05-05T10:50:12.21Z</time></trkpt><trkpt lat="51.80968" lon="-8.4937967"><ele>46.0</ele><time>2026-05-05T10:50:13.211Z</time></trkpt><trkpt lat="51.809515" lon="-8.493675"><ele>46.0</ele><time>2026-05-05T10:50:14.21Z</time></trkpt><trkpt lat="51.8093283" lon="-8.49356"><ele>46.0</ele><time>2026-05-05T10:50:15.211Z</time></trkpt><trkpt lat="51.8091517" lon="-8.49343"><ele>46.0</ele><time>2026-05-05T10:50:16.211Z</time></trkpt><trkpt lat="51.8089717" lon="-8.4932967"><ele>46.66666666666667</ele><time>2026-05-05T10:50:17.211Z</time></trkpt><trkpt lat="51.8087933" lon="-8.4931633"><ele>47.333333333333336</ele><time>2026-05-05T10:50:18.211Z</time></trkpt><trkpt lat="51.808615" lon="-8.4930317"><ele>48.0</ele><time>2026-05-05T10:50:19.21Z</time></trkpt><trkpt lat="51.80844" lon="-8.4928983"><ele>48.33333333333333</ele><time>2026-05-05T10:50:20.21Z</time></trkpt><trkpt lat="51.8082833" lon="-8.4927767"><ele>48.666666666666664</ele><time>2026-05-05T10:50:21.21Z</time></trkpt><trkpt lat="51.80812" lon="-8.49267"><ele>49.0</ele><time>2026-05-05T10:50:22.211Z</time></trkpt><trkpt lat="51.80796" lon="-8.4925633"><ele>49.0</ele><time>2026-05-05T10:50:23.211Z</time></trkpt><trkpt lat="51.807805" lon="-8.49246"><ele>49.0</ele><time>2026-05-05T10:50:24.211Z</time></trkpt><trkpt lat="51.80764" lon="-8.492355"><ele>49.0</ele><time>2026-05-05T10:50:25.211Z</time></trkpt><trkpt lat="51.8074717" lon="-8.4922267"><ele>49.33333333333333</ele><time>2026-05-05T10:50:26.21Z</time></trkpt><trkpt lat="51.8072983" lon="-8.4921033"><ele>49.66666666666667</ele><time>2026-05-05T10:50:27.21Z</time></trkpt><trkpt lat="51.80714" lon="-8.491995"><ele>50.0</ele><time>2026-05-05T10:50:28.21Z</time></trkpt><trkpt lat="51.8070033" lon="-8.491895"><ele>50.0</ele><time>2026-05-05T10:50:29.211Z</time></trkpt><trkpt lat="51.8068717" lon="-8.4917983"><ele>50.0</ele><time>2026-05-05T10:50:30.211Z</time></trkpt><trkpt lat="51.8067417" lon="-8.4917"><ele>50.0</ele><time>2026-05-05T10:50:31.211Z</time></trkpt><trkpt lat="51.8066017" lon="-8.4916083"><ele>50.0</ele><time>2026-05-05T10:50:32.21Z</time></trkpt><trkpt lat="51.80645" lon="-8.491505"><ele>50.333333333333336</ele><time>2026-05-05T10:50:33.21Z</time></trkpt><trkpt lat="51.806295" lon="-8.4913983"><ele>50.66666666666667</ele><time>2026-05-05T10:50:34.211Z</time></trkpt><trkpt lat="51.8061317" lon="-8.491285"><ele>51.0</ele><time>2026-05-05T10:50:35.211Z</time></trkpt><trkpt lat="51.8059683" lon="-8.4911633"><ele>51.33333333333333</ele><time>2026-05-05T10:50:36.211Z</time></trkpt><trkpt lat="51.8058033" lon="-8.4910367"><ele>51.666666666666664</ele><time>2026-05-05T10:50:37.21Z</time></trkpt><trkpt lat="51.805635" lon="-8.4909117"><ele>52.0</ele><time>2026-05-05T10:50:38.211Z</time></trkpt><trkpt lat="51.8054583" lon="-8.4907883"><ele>52.0</ele><time>2026-05-05T10:50:39.21Z</time></trkpt><trkpt lat="51.80528" lon="-8.4906633"><ele>52.0</ele><time>2026-05-05T10:50:40.21Z</time></trkpt><trkpt lat="51.8051" lon="-8.490545"><ele>52.0</ele><time>2026-05-05T10:50:41.21Z</time></trkpt><trkpt lat="51.80493" lon="-8.4904333"><ele>52.0</ele><time>2026-05-05T10:50:42.211Z</time></trkpt><trkpt lat="51.8047733" lon="-8.49034"><ele>52.0</ele><time>2026-05-05T10:50:43.21Z</time></trkpt><trkpt lat="51.8046133" lon="-8.4902467"><ele>52.0</ele><time>2026-05-05T10:50:44.21Z</time></trkpt><trkpt lat="51.804445" lon="-8.4901283"><ele>52.33333333333333</ele><time>2026-05-05T10:50:45.211Z</time></trkpt><trkpt lat="51.8042783" lon="-8.490005"><ele>52.66666666666667</ele><time>2026-05-05T10:50:46.211Z</time></trkpt><trkpt lat="51.804115" lon="-8.489895"><ele>53.0</ele><time>2026-05-05T10:50:47.211Z</time></trkpt><trkpt lat="51.803965" lon="-8.4897567"><ele>53.0</ele><time>2026-05-05T10:50:48.21Z</time></trkpt><trkpt lat="51.803815" lon="-8.4896333"><ele>53.0</ele><time>2026-05-05T10:50:49.211Z</time></trkpt><trkpt lat="51.8036717" lon="-8.4895133"><ele>53.0</ele><time>2026-05-05T10:50:50.211Z</time></trkpt><trkpt lat="51.80354" lon="-8.4894317"><ele>53.0</ele><time>2026-05-05T10:50:51.21Z</time></trkpt><trkpt lat="51.8034283" lon="-8.489325"><ele>53.0</ele><time>2026-05-05T10:50:52.21Z</time></trkpt><trkpt lat="51.803285" lon="-8.489225"><ele>53.0</ele><time>2026-05-05T10:50:53.211Z</time></trkpt><trkpt lat="51.8031567" lon="-8.4891167"><ele>53.0</ele><time>2026-05-05T10:50:54.211Z</time></trkpt><trkpt lat="51.8030567" lon="-8.4890383"><ele>53.00000000000001</ele><time>2026-05-05T10:50:55.211Z</time></trkpt><trkpt lat="51.8029783" lon="-8.4889683"><ele>53.0</ele><time>2026-05-05T10:50:56.211Z</time></trkpt><trkpt lat="51.802915" lon="-8.48891"><ele>53.0</ele><time>2026-05-05T10:50:57.211Z</time></trkpt><trkpt lat="51.80284" lon="-8.4888233"><ele>53.0</ele><time>2026-05-05T10:50:59.211Z</time></trkpt><trkpt lat="51.80279" lon="-8.4887467"><ele>53.00000000000001</ele><time>2026-05-05T10:51:01.211Z</time></trkpt><trkpt lat="51.8026983" lon="-8.4886933"><ele>53.0</ele><time>2026-05-05T10:56:35.211Z</time></trkpt><trkpt lat="51.80261" lon="-8.4886217"><ele>53.0</ele><time>2026-05-05T10:56:38.21Z</time></trkpt><trkpt lat="51.80252" lon="-8.4885217"><ele>53.0</ele><time>2026-05-05T10:56:40.21Z</time></trkpt><trkpt lat="51.8024083" lon="-8.4884317"><ele>53.0</ele><time>2026-05-05T10:56:42.211Z</time></trkpt><trkpt lat="51.8023183" lon="-8.48837"><ele>53.0</ele><time>2026-05-05T10:56:44.211Z</time></trkpt><trkpt lat="51.802245" lon="-8.48832"><ele>53.0</ele><time>2026-05-05T10:56:46.21Z</time></trkpt><trkpt lat="51.8021783" lon="-8.48825"><ele>53.00000000000001</ele><time>2026-05-05T10:56:48.211Z</time></trkpt><trkpt lat="51.8020983" lon="-8.4881833"><ele>53.0</ele><time>2026-05-05T10:56:50.21Z</time></trkpt><trkpt lat="51.8020283" lon="-8.4881133"><ele>53.0</ele><time>2026-05-05T10:56:52.211Z</time></trkpt><trkpt lat="51.801955" lon="-8.48806"><ele>53.0</ele><time>2026-05-05T10:56:54.21Z</time></trkpt><trkpt lat="51.8018867" lon="-8.4880133"><ele>53.00000000000001</ele><time>2026-05-05T10:56:55.211Z</time></trkpt><trkpt lat="51.80181" lon="-8.4879667"><ele>53.0</ele><time>2026-05-05T10:56:56.211Z</time></trkpt><trkpt lat="51.8017217" lon="-8.4879033"><ele>54.0</ele><time>2026-05-05T10:56:57.211Z</time></trkpt><trkpt lat="51.8016167" lon="-8.4878417"><ele>55.0</ele><time>2026-05-05T10:56:58.211Z</time></trkpt><trkpt lat="51.8014833" lon="-8.4877683"><ele>56.0</ele><time>2026-05-05T10:56:59.21Z</time></trkpt><trkpt lat="51.8013633" lon="-8.487675"><ele>57.0</ele><time>2026-05-05T10:57:00.21Z</time></trkpt><trkpt lat="51.8012167" lon="-8.487585"><ele>57.0</ele><time>2026-05-05T10:57:01.211Z</time></trkpt><trkpt lat="51.80105" lon="-8.48749"><ele>57.0</ele><time>2026-05-05T10:57:02.211Z</time></trkpt><trkpt lat="51.8008883" lon="-8.48739"><ele>57.0</ele><time>2026-05-05T10:57:03.21Z</time></trkpt><trkpt lat="51.8007467" lon="-8.4872917"><ele>58.0</ele><time>2026-05-05T10:57:04.211Z</time></trkpt><trkpt lat="51.800595" lon="-8.4872117"><ele>59.0</ele><time>2026-05-05T10:57:05.211Z</time></trkpt><trkpt lat="51.8004517" lon="-8.4871583"><ele>60.0</ele><time>2026-05-05T10:57:06.211Z</time></trkpt><trkpt lat="51.80029" lon="-8.487105"><ele>59.66666666666667</ele><time>2026-05-05T10:57:07.211Z</time></trkpt><trkpt lat="51.8001467" lon="-8.4870883"><ele>59.333333333333336</ele><time>2026-05-05T10:57:08.211Z</time></trkpt><trkpt lat="51.7999933" lon="-8.48709"><ele>59.0</ele><time>2026-05-05T10:57:09.211Z</time></trkpt><trkpt lat="51.7998217" lon="-8.4871333"><ele>58.66666666666667</ele><time>2026-05-05T10:57:10.211Z</time></trkpt><trkpt lat="51.7996567" lon="-8.4872233"><ele>58.33333333333333</ele><time>2026-05-05T10:57:11.211Z</time></trkpt><trkpt lat="51.799475" lon="-8.4873083"><ele>58.0</ele><time>2026-05-05T10:57:12.21Z</time></trkpt><trkpt lat="51.7992967" lon="-8.4874067"><ele>57.0</ele><time>2026-05-05T10:57:13.211Z</time></trkpt><trkpt lat="51.7990917" lon="-8.4875167"><ele>56.0</ele><time>2026-05-05T10:57:14.21Z</time></trkpt><trkpt lat="51.7988833" lon="-8.4876317"><ele>55.0</ele><time>2026-05-05T10:57:15.211Z</time></trkpt><trkpt lat="51.7986817" lon="-8.4877683"><ele>53.5</ele><time>2026-05-05T10:57:16.211Z</time></trkpt><trkpt lat="51.79846" lon="-8.4878983"><ele>52.0</ele><time>2026-05-05T10:57:17.211Z</time></trkpt><trkpt lat="51.79825" lon="-8.4880067"><ele>51.666666666666664</ele><time>2026-05-05T10:57:18.211Z</time></trkpt><trkpt lat="51.7980417" lon="-8.4881133"><ele>51.33333333333333</ele><time>2026-05-05T10:57:19.21Z</time></trkpt><trkpt lat="51.7978333" lon="-8.4882183"><ele>51.0</ele><time>2026-05-05T10:57:20.211Z</time></trkpt><trkpt lat="51.7976417" lon="-8.4883267"><ele>51.0</ele><time>2026-05-05T10:57:21.21Z</time></trkpt><trkpt lat="51.7974667" lon="-8.48844"><ele>51.0</ele><time>2026-05-05T10:57:22.211Z</time></trkpt><trkpt lat="51.7972917" lon="-8.48857"><ele>51.0</ele><time>2026-05-05T10:57:23.211Z</time></trkpt><trkpt lat="51.7971333" lon="-8.4887183"><ele>51.0</ele><time>2026-05-05T10:57:24.21Z</time></trkpt><trkpt lat="51.796975" lon="-8.4888683"><ele>51.0</ele><time>2026-05-05T10:57:25.211Z</time></trkpt><trkpt lat="51.7968183" lon="-8.4890383"><ele>51.0</ele><time>2026-05-05T10:57:26.211Z</time></trkpt><trkpt lat="51.7966617" lon="-8.48922"><ele>51.66666666666667</ele><time>2026-05-05T10:57:27.211Z</time></trkpt><trkpt lat="51.7965017" lon="-8.4894133"><ele>52.333333333333336</ele><time>2026-05-05T10:57:28.21Z</time></trkpt><trkpt lat="51.7963183" lon="-8.4896083"><ele>53.0</ele><time>2026-05-05T10:57:29.211Z</time></trkpt><trkpt lat="51.7961367" lon="-8.489805"><ele>53.333333333333336</ele><time>2026-05-05T10:57:30.21Z</time></trkpt><trkpt lat="51.79595" lon="-8.490015"><ele>53.66666666666667</ele><time>2026-05-05T10:57:31.211Z</time></trkpt><trkpt lat="51.7957683" lon="-8.4902167"><ele>54.0</ele><time>2026-05-05T10:57:32.21Z</time></trkpt><trkpt lat="51.7956017" lon="-8.490415"><ele>53.33333333333333</ele><time>2026-05-05T10:57:33.211Z</time></trkpt><trkpt lat="51.7954433" lon="-8.4906"><ele>52.666666666666664</ele><time>2026-05-05T10:57:34.211Z</time></trkpt><trkpt lat="51.79532" lon="-8.49077"><ele>52.0</ele><time>2026-05-05T10:57:35.211Z</time></trkpt><trkpt lat="51.7951767" lon="-8.4909283"><ele>52.0</ele><time>2026-05-05T10:57:36.211Z</time></trkpt><trkpt lat="51.7950283" lon="-8.49109"><ele>52.0</ele><time>2026-05-05T10:57:37.211Z</time></trkpt><trkpt lat="51.7948767" lon="-8.491255"><ele>52.0</ele><time>2026-05-05T10:57:38.211Z</time></trkpt><trkpt lat="51.7947167" lon="-8.4914067"><ele>52.0</ele><time>2026-05-05T10:57:39.21Z</time></trkpt><trkpt lat="51.794535" lon="-8.4915417"><ele>52.0</ele><time>2026-05-05T10:57:40.211Z</time></trkpt><trkpt lat="51.7943517" lon="-8.4916417"><ele>52.0</ele><time>2026-05-05T10:57:41.211Z</time></trkpt><trkpt lat="51.7941517" lon="-8.4917067"><ele>52.0</ele><time>2026-05-05T10:57:42.211Z</time></trkpt><trkpt lat="51.793935" lon="-8.4917317"><ele>52.0</ele><time>2026-05-05T10:57:43.211Z</time></trkpt><trkpt lat="51.79371" lon="-8.49172"><ele>52.0</ele><time>2026-05-05T10:57:44.211Z</time></trkpt><trkpt lat="51.7934833" lon="-8.4916833"><ele>52.0</ele><time>2026-05-05T10:57:45.211Z</time></trkpt><trkpt lat="51.7932433" lon="-8.4916467"><ele>52.0</ele><time>2026-05-05T10:57:46.211Z</time></trkpt><trkpt lat="51.7929883" lon="-8.49159"><ele>52.0</ele><time>2026-05-05T10:57:47.211Z</time></trkpt><trkpt lat="51.7927317" lon="-8.49152"><ele>52.0</ele><time>2026-05-05T10:57:48.21Z</time></trkpt><trkpt lat="51.7924817" lon="-8.491465"><ele>51.0</ele><time>2026-05-05T10:57:49.21Z</time></trkpt><trkpt lat="51.7922583" lon="-8.4914067"><ele>50.0</ele><time>2026-05-05T10:57:50.21Z</time></trkpt><trkpt lat="51.7920267" lon="-8.4913517"><ele>49.5</ele><time>2026-05-05T10:57:51.211Z</time></trkpt><trkpt lat="51.7918083" lon="-8.4912683"><ele>49.0</ele><time>2026-05-05T10:57:52.21Z</time></trkpt><trkpt lat="51.79158" lon="-8.491185"><ele>51.5</ele><time>2026-05-05T10:57:53.211Z</time></trkpt><trkpt lat="51.791355" lon="-8.4910983"><ele>54.0</ele><time>2026-05-05T10:57:54.211Z</time></trkpt><trkpt lat="51.7911317" lon="-8.491015"><ele>53.0</ele><time>2026-05-05T10:57:55.21Z</time></trkpt><trkpt lat="51.790905" lon="-8.490925"><ele>52.0</ele><time>2026-05-05T10:57:56.211Z</time></trkpt><trkpt lat="51.7906633" lon="-8.4908467"><ele>52.0</ele><time>2026-05-05T10:57:57.211Z</time></trkpt><trkpt lat="51.7904483" lon="-8.4907983"><ele>52.0</ele><time>2026-05-05T10:57:58.211Z</time></trkpt><trkpt lat="51.7902633" lon="-8.4907417"><ele>52.0</ele><time>2026-05-05T10:57:59.21Z</time></trkpt><trkpt lat="51.7900633" lon="-8.4906933"><ele>51.666666666666664</ele><time>2026-05-05T10:58:00.211Z</time></trkpt><trkpt lat="51.7898667" lon="-8.4906"><ele>51.33333333333333</ele><time>2026-05-05T10:58:01.21Z</time></trkpt><trkpt lat="51.78965" lon="-8.4904867"><ele>51.0</ele><time>2026-05-05T10:58:02.21Z</time></trkpt><trkpt lat="51.7894383" lon="-8.4903483"><ele>51.5</ele><time>2026-05-05T10:58:03.211Z</time></trkpt><trkpt lat="51.7892117" lon="-8.4902283"><ele>52.0</ele><time>2026-05-05T10:58:04.211Z</time></trkpt><trkpt lat="51.7889883" lon="-8.4901233"><ele>52.0</ele><time>2026-05-05T10:58:05.211Z</time></trkpt><trkpt lat="51.7887583" lon="-8.4901017"><ele>52.0</ele><time>2026-05-05T10:58:06.211Z</time></trkpt><trkpt lat="51.7885367" lon="-8.4900817"><ele>51.33333333333333</ele><time>2026-05-05T10:58:07.211Z</time></trkpt><trkpt lat="51.7883333" lon="-8.4900833"><ele>50.66666666666667</ele><time>2026-05-05T10:58:08.211Z</time></trkpt><trkpt lat="51.7881383" lon="-8.4901033"><ele>50.0</ele><time>2026-05-05T10:58:09.21Z</time></trkpt><trkpt lat="51.7879367" lon="-8.4901583"><ele>50.0</ele><time>2026-05-05T10:58:10.211Z</time></trkpt><trkpt lat="51.787735" lon="-8.49025"><ele>50.0</ele><time>2026-05-05T10:58:11.211Z</time></trkpt><trkpt lat="51.787505" lon="-8.4904217"><ele>48.0</ele><time>2026-05-05T10:58:12.21Z</time></trkpt><trkpt lat="51.78727" lon="-8.4905417"><ele>46.0</ele><time>2026-05-05T10:58:13.21Z</time></trkpt><trkpt lat="51.787045" lon="-8.49068"><ele>46.0</ele><time>2026-05-05T10:58:14.21Z</time></trkpt><trkpt lat="51.7868083" lon="-8.4907983"><ele>46.0</ele><time>2026-05-05T10:58:15.21Z</time></trkpt><trkpt lat="51.7865883" lon="-8.4909367"><ele>46.0</ele><time>2026-05-05T10:58:16.21Z</time></trkpt><trkpt lat="51.78637" lon="-8.49107"><ele>46.0</ele><time>2026-05-05T10:58:17.21Z</time></trkpt><trkpt lat="51.7861567" lon="-8.4912067"><ele>46.0</ele><time>2026-05-05T10:58:18.211Z</time></trkpt><trkpt lat="51.78594" lon="-8.4913383"><ele>46.0</ele><time>2026-05-05T10:58:19.21Z</time></trkpt><trkpt lat="51.785725" lon="-8.49146"><ele>46.0</ele><time>2026-05-05T10:58:20.21Z</time></trkpt><trkpt lat="51.7855133" lon="-8.49155"><ele>46.0</ele><time>2026-05-05T10:58:21.211Z</time></trkpt><trkpt lat="51.785295" lon="-8.4916217"><ele>46.0</ele><time>2026-05-05T10:58:22.211Z</time></trkpt><trkpt lat="51.785075" lon="-8.491695"><ele>46.0</ele><time>2026-05-05T10:58:23.211Z</time></trkpt><trkpt lat="51.7848433" lon="-8.491765"><ele>46.0</ele><time>2026-05-05T10:58:24.21Z</time></trkpt><trkpt lat="51.784605" lon="-8.4918083"><ele>46.0</ele><time>2026-05-05T10:58:25.21Z</time></trkpt><trkpt lat="51.7843717" lon="-8.4918417"><ele>46.0</ele><time>2026-05-05T10:58:26.211Z</time></trkpt><trkpt lat="51.784135" lon="-8.4918683"><ele>46.0</ele><time>2026-05-05T10:58:27.211Z</time></trkpt><trkpt lat="51.7839467" lon="-8.49194"><ele>46.0</ele><time>2026-05-05T10:58:28.211Z</time></trkpt><trkpt lat="51.7837733" lon="-8.4920083"><ele>46.0</ele><time>2026-05-05T10:58:29.211Z</time></trkpt><trkpt lat="51.7836283" lon="-8.4921133"><ele>46.0</ele><time>2026-05-05T10:58:30.211Z</time></trkpt><trkpt lat="51.7834783" lon="-8.49225"><ele>46.0</ele><time>2026-05-05T10:58:31.211Z</time></trkpt><trkpt lat="51.7833433" lon="-8.4924583"><ele>46.0</ele><time>2026-05-05T10:58:32.211Z</time></trkpt><trkpt lat="51.7832233" lon="-8.4927067"><ele>45.333333333333336</ele><time>2026-05-05T10:58:33.21Z</time></trkpt><trkpt lat="51.7830917" lon="-8.4929383"><ele>44.666666666666664</ele><time>2026-05-05T10:58:34.211Z</time></trkpt><trkpt lat="51.7829533" lon="-8.493145"><ele>44.0</ele><time>2026-05-05T10:58:35.21Z</time></trkpt><trkpt lat="51.7828167" lon="-8.4933733"><ele>44.0</ele><time>2026-05-05T10:58:36.211Z</time></trkpt><trkpt lat="51.7826983" lon="-8.493595"><ele>44.0</ele><time>2026-05-05T10:58:37.21Z</time></trkpt><trkpt lat="51.7825817" lon="-8.4938017"><ele>44.0</ele><time>2026-05-05T10:58:38.211Z</time></trkpt><trkpt lat="51.7824317" lon="-8.4939567"><ele>44.0</ele><time>2026-05-05T10:58:39.211Z</time></trkpt><trkpt lat="51.7822783" lon="-8.4940717"><ele>44.0</ele><time>2026-05-05T10:58:40.211Z</time></trkpt><trkpt lat="51.7821217" lon="-8.4941567"><ele>44.0</ele><time>2026-05-05T10:58:41.211Z</time></trkpt><trkpt lat="51.7819567" lon="-8.4941717"><ele>43.33333333333333</ele><time>2026-05-05T10:58:42.21Z</time></trkpt><trkpt lat="51.7817833" lon="-8.494115"><ele>42.666666666666664</ele><time>2026-05-05T10:58:43.211Z</time></trkpt><trkpt lat="51.78162" lon="-8.4940067"><ele>42.0</ele><time>2026-05-05T10:58:44.211Z</time></trkpt><trkpt lat="51.7814767" lon="-8.4938667"><ele>42.0</ele><time>2026-05-05T10:58:45.211Z</time></trkpt><trkpt lat="51.7813317" lon="-8.4936933"><ele>42.0</ele><time>2026-05-05T10:58:46.211Z</time></trkpt><trkpt lat="51.78118" lon="-8.4934967"><ele>42.0</ele><time>2026-05-05T10:58:47.211Z</time></trkpt><trkpt lat="51.780995" lon="-8.4933283"><ele>42.0</ele><time>2026-05-05T10:58:48.211Z</time></trkpt><trkpt lat="51.7808233" lon="-8.4932233"><ele>42.0</ele><time>2026-05-05T10:58:49.211Z</time></trkpt><trkpt lat="51.7806367" lon="-8.4931567"><ele>42.0</ele><time>2026-05-05T10:58:50.211Z</time></trkpt><trkpt lat="51.780455" lon="-8.4931333"><ele>42.0</ele><time>2026-05-05T10:58:51.21Z</time></trkpt><trkpt lat="51.7802783" lon="-8.4931117"><ele>42.0</ele><time>2026-05-05T10:58:52.211Z</time></trkpt><trkpt lat="51.7801117" lon="-8.493125"><ele>42.0</ele><time>2026-05-05T10:58:53.211Z</time></trkpt><trkpt lat="51.7799433" lon="-8.49321"><ele>42.0</ele><time>2026-05-05T10:58:54.211Z</time></trkpt><trkpt lat="51.7797717" lon="-8.49332"><ele>42.0</ele><time>2026-05-05T10:58:55.21Z</time></trkpt><trkpt lat="51.7795983" lon="-8.4934283"><ele>42.0</ele><time>2026-05-05T10:58:56.211Z</time></trkpt><trkpt lat="51.7794183" lon="-8.4935917"><ele>41.666666666666664</ele><time>2026-05-05T10:58:57.211Z</time></trkpt><trkpt lat="51.7792483" lon="-8.4937783"><ele>41.33333333333333</ele><time>2026-05-05T10:58:58.211Z</time></trkpt><trkpt lat="51.7790767" lon="-8.493955"><ele>41.0</ele><time>2026-05-05T10:58:59.211Z</time></trkpt><trkpt lat="51.7789" lon="-8.4941317"><ele>41.0</ele><time>2026-05-05T10:59:00.21Z</time></trkpt><trkpt lat="51.7787283" lon="-8.494315"><ele>41.0</ele><time>2026-05-05T10:59:01.211Z</time></trkpt><trkpt lat="51.7785533" lon="-8.4944867"><ele>41.0</ele><time>2026-05-05T10:59:02.211Z</time></trkpt><trkpt lat="51.7783717" lon="-8.4946583"><ele>41.33333333333333</ele><time>2026-05-05T10:59:03.211Z</time></trkpt><trkpt lat="51.7781983" lon="-8.4948517"><ele>41.666666666666664</ele><time>2026-05-05T10:59:04.21Z</time></trkpt><trkpt lat="51.77802" lon="-8.4950367"><ele>42.0</ele><time>2026-05-05T10:59:05.211Z</time></trkpt><trkpt lat="51.7778417" lon="-8.49522"><ele>41.333333333333336</ele><time>2026-05-05T10:59:06.211Z</time></trkpt><trkpt lat="51.7776817" lon="-8.4953967"><ele>40.66666666666667</ele><time>2026-05-05T10:59:07.211Z</time></trkpt><trkpt lat="51.7774967" lon="-8.495555"><ele>40.0</ele><time>2026-05-05T10:59:08.211Z</time></trkpt><trkpt lat="51.77731" lon="-8.4956883"><ele>40.0</ele><time>2026-05-05T10:59:09.211Z</time></trkpt><trkpt lat="51.777105" lon="-8.4957783"><ele>40.0</ele><time>2026-05-05T10:59:10.211Z</time></trkpt><trkpt lat="51.7768933" lon="-8.4958617"><ele>40.0</ele><time>2026-05-05T10:59:11.211Z</time></trkpt><trkpt lat="51.77666" lon="-8.495915"><ele>42.0</ele><time>2026-05-05T10:59:12.211Z</time></trkpt><trkpt lat="51.7764367" lon="-8.495995"><ele>44.0</ele><time>2026-05-05T10:59:13.211Z</time></trkpt><trkpt lat="51.77622" lon="-8.496065"><ele>44.5</ele><time>2026-05-05T10:59:14.21Z</time></trkpt><trkpt lat="51.7759933" lon="-8.4961283"><ele>45.0</ele><time>2026-05-05T10:59:15.211Z</time></trkpt><trkpt lat="51.775775" lon="-8.496175"><ele>45.0</ele><time>2026-05-05T10:59:16.211Z</time></trkpt><trkpt lat="51.775555" lon="-8.4962067"><ele>45.0</ele><time>2026-05-05T10:59:17.21Z</time></trkpt><trkpt lat="51.7753467" lon="-8.49624"><ele>45.0</ele><time>2026-05-05T10:59:18.211Z</time></trkpt><trkpt lat="51.775155" lon="-8.4962583"><ele>44.333333333333336</ele><time>2026-05-05T10:59:19.211Z</time></trkpt><trkpt lat="51.77496" lon="-8.4962567"><ele>43.66666666666667</ele><time>2026-05-05T10:59:20.211Z</time></trkpt><trkpt lat="51.7747883" lon="-8.49623"><ele>43.0</ele><time>2026-05-05T10:59:21.211Z</time></trkpt><trkpt lat="51.7746233" lon="-8.4962233"><ele>43.0</ele><time>2026-05-05T10:59:22.21Z</time></trkpt><trkpt lat="51.77447" lon="-8.4962133"><ele>43.0</ele><time>2026-05-05T10:59:23.21Z</time></trkpt><trkpt lat="51.774335" lon="-8.4962"><ele>43.0</ele><time>2026-05-05T10:59:24.211Z</time></trkpt><trkpt lat="51.774205" lon="-8.4961783"><ele>43.0</ele><time>2026-05-05T10:59:25.211Z</time></trkpt><trkpt lat="51.7740767" lon="-8.4961717"><ele>42.8</ele><time>2026-05-05T10:59:26.21Z</time></trkpt><trkpt lat="51.773955" lon="-8.4961517"><ele>42.599999999999994</ele><time>2026-05-05T10:59:27.21Z</time></trkpt><trkpt lat="51.773855" lon="-8.4961367"><ele>42.400000000000006</ele><time>2026-05-05T10:59:28.21Z</time></trkpt><trkpt lat="51.773765" lon="-8.4961367"><ele>42.2</ele><time>2026-05-05T10:59:29.211Z</time></trkpt><trkpt lat="51.7736783" lon="-8.4961383"><ele>42.0</ele><time>2026-05-05T10:59:30.211Z</time></trkpt><trkpt lat="51.773565" lon="-8.4961267"><ele>41.0</ele><time>2026-05-05T10:59:31.211Z</time></trkpt><trkpt lat="51.7734633" lon="-8.4960983"><ele>40.0</ele><time>2026-05-05T10:59:32.211Z</time></trkpt><trkpt lat="51.7733683" lon="-8.4960867"><ele>39.0</ele><time>2026-05-05T10:59:33.209Z</time></trkpt><trkpt lat="51.7732667" lon="-8.4960783"><ele>38.0</ele><time>2026-05-05T10:59:34.211Z</time></trkpt><trkpt lat="51.7731533" lon="-8.496055"><ele>37.0</ele><time>2026-05-05T10:59:35.211Z</time></trkpt><trkpt lat="51.7730383" lon="-8.49604"><ele>37.0</ele><time>2026-05-05T10:59:36.211Z</time></trkpt><trkpt lat="51.77292" lon="-8.49602"><ele>37.0</ele><time>2026-05-05T10:59:37.211Z</time></trkpt><trkpt lat="51.77279" lon="-8.4960133"><ele>37.0</ele><time>2026-05-05T10:59:38.21Z</time></trkpt><trkpt lat="51.772655" lon="-8.4960133"><ele>37.0</ele><time>2026-05-05T10:59:39.211Z</time></trkpt><trkpt lat="51.7725183" lon="-8.4960133"><ele>37.5</ele><time>2026-05-05T10:59:40.21Z</time></trkpt><trkpt lat="51.7723883" lon="-8.4960117"><ele>38.0</ele><time>2026-05-05T10:59:41.211Z</time></trkpt><trkpt lat="51.7722633" lon="-8.4960117"><ele>38.5</ele><time>2026-05-05T10:59:42.211Z</time></trkpt><trkpt lat="51.772145" lon="-8.496005"><ele>39.0</ele><time>2026-05-05T10:59:43.211Z</time></trkpt><trkpt lat="51.7720383" lon="-8.4959967"><ele>39.0</ele><time>2026-05-05T10:59:44.21Z</time></trkpt><trkpt lat="51.77195" lon="-8.4959933"><ele>39.0</ele><time>2026-05-05T10:59:45.211Z</time></trkpt><trkpt lat="51.77187" lon="-8.4959883"><ele>39.0</ele><time>2026-05-05T10:59:46.21Z</time></trkpt><trkpt lat="51.7718067" lon="-8.495985"><ele>39.0</ele><time>2026-05-05T10:59:47.21Z</time></trkpt><trkpt lat="51.7717217" lon="-8.495975"><ele>39.0</ele><time>2026-05-05T10:59:49.211Z</time></trkpt><trkpt lat="51.771645" lon="-8.49596"><ele>39.0</ele><time>2026-05-05T10:59:52.21Z</time></trkpt><trkpt lat="51.7715567" lon="-8.4958783"><ele>39.0</ele><time>2026-05-05T11:00:24.211Z</time></trkpt><trkpt lat="51.7716067" lon="-8.4957983"><ele>39.0</ele><time>2026-05-05T11:00:28.211Z</time></trkpt><trkpt lat="51.7716917" lon="-8.49579"><ele>39.0</ele><time>2026-05-05T11:00:31.21Z</time></trkpt><trkpt lat="51.771755" lon="-8.495785"><ele>39.0</ele><time>2026-05-05T11:00:33.211Z</time></trkpt><trkpt lat="51.771835" lon="-8.4958083"><ele>39.0</ele><time>2026-05-05T11:00:36.211Z</time></trkpt><trkpt lat="51.7718983" lon="-8.4958067"><ele>39.0</ele><time>2026-05-05T11:00:39.211Z</time></trkpt><trkpt lat="51.77197" lon="-8.49577"><ele>39.0</ele><time>2026-05-05T11:00:47.211Z</time></trkpt><trkpt lat="51.77191" lon="-8.4957033"><ele>39.0</ele><time>2026-05-05T11:01:32.21Z</time></trkpt><trkpt lat="51.77178" lon="-8.495765"><ele>39.0</ele><time>2026-05-05T11:06:04.211Z</time></trkpt><trkpt lat="51.7717883" lon="-8.495655"><ele>39.0</ele><time>2026-05-05T11:09:02.211Z</time></trkpt><trkpt lat="51.7717183" lon="-8.4955967"><ele>39.0</ele><time>2026-05-05T11:15:48.21Z</time></trkpt><trkpt lat="51.77179" lon="-8.495655"><ele>39.0</ele><time>2026-05-05T11:39:16.207Z</time></trkpt><trkpt lat="51.7718083" lon="-8.495755"><ele>39.0</ele><time>2026-05-05T11:46:51.204Z</time></trkpt><trkpt lat="51.7718883" lon="-8.4957617"><ele>39.0</ele><time>2026-05-05T11:46:54.204Z</time></trkpt><trkpt lat="51.7719483" lon="-8.495795"><ele>39.0</ele><time>2026-05-05T11:46:57.204Z</time></trkpt><trkpt lat="51.771985" lon="-8.49595"><ele>39.0</ele><time>2026-05-05T11:47:29.205Z</time></trkpt><trkpt lat="51.7718683" lon="-8.4959583"><ele>39.0</ele><time>2026-05-05T11:47:32.205Z</time></trkpt><trkpt lat="51.7717983" lon="-8.49596"><ele>39.0</ele><time>2026-05-05T11:47:33.204Z</time></trkpt><trkpt lat="51.771715" lon="-8.4959567"><ele>39.0</ele><time>2026-05-05T11:47:34.205Z</time></trkpt><trkpt lat="51.771615" lon="-8.495945"><ele>40.0</ele><time>2026-05-05T11:47:35.204Z</time></trkpt><trkpt lat="51.77149" lon="-8.49593"><ele>41.0</ele><time>2026-05-05T11:47:36.204Z</time></trkpt><trkpt lat="51.77138" lon="-8.4959133"><ele>42.0</ele><time>2026-05-05T11:47:37.204Z</time></trkpt><trkpt lat="51.7712567" lon="-8.4958783"><ele>43.0</ele><time>2026-05-05T11:47:38.205Z</time></trkpt><trkpt lat="51.7711383" lon="-8.49584"><ele>43.5</ele><time>2026-05-05T11:47:39.205Z</time></trkpt><trkpt lat="51.7710067" lon="-8.4957817"><ele>44.0</ele><time>2026-05-05T11:47:40.205Z</time></trkpt><trkpt lat="51.7708633" lon="-8.4957117"><ele>44.5</ele><time>2026-05-05T11:47:41.205Z</time></trkpt><trkpt lat="51.770725" lon="-8.495635"><ele>45.0</ele><time>2026-05-05T11:47:42.204Z</time></trkpt><trkpt lat="51.77061" lon="-8.49556"><ele>45.0</ele><time>2026-05-05T11:47:43.204Z</time></trkpt><trkpt lat="51.7704917" lon="-8.4954833"><ele>45.0</ele><time>2026-05-05T11:47:44.204Z</time></trkpt><trkpt lat="51.770375" lon="-8.4954067"><ele>45.0</ele><time>2026-05-05T11:47:45.204Z</time></trkpt><trkpt lat="51.7702633" lon="-8.4953267"><ele>45.0</ele><time>2026-05-05T11:47:46.205Z</time></trkpt><trkpt lat="51.7701417" lon="-8.4952333"><ele>43.75</ele><time>2026-05-05T11:47:47.205Z</time></trkpt><trkpt lat="51.7700267" lon="-8.4951467"><ele>42.5</ele><time>2026-05-05T11:47:48.204Z</time></trkpt><trkpt lat="51.76991" lon="-8.4950633"><ele>41.25</ele><time>2026-05-05T11:47:49.205Z</time></trkpt><trkpt lat="51.7697783" lon="-8.4949833"><ele>40.0</ele><time>2026-05-05T11:47:50.205Z</time></trkpt><trkpt lat="51.769655" lon="-8.4949517"><ele>40.0</ele><time>2026-05-05T11:47:51.204Z</time></trkpt><trkpt lat="51.7694967" lon="-8.49492"><ele>40.0</ele><time>2026-05-05T11:47:52.205Z</time></trkpt><trkpt lat="51.76936" lon="-8.4948883"><ele>40.0</ele><time>2026-05-05T11:47:53.205Z</time></trkpt><trkpt lat="51.769215" lon="-8.49485"><ele>40.0</ele><time>2026-05-05T11:47:54.205Z</time></trkpt><trkpt lat="51.76906" lon="-8.4948283"><ele>39.333333333333336</ele><time>2026-05-05T11:47:55.205Z</time></trkpt><trkpt lat="51.7688883" lon="-8.4947933"><ele>38.666666666666664</ele><time>2026-05-05T11:47:56.204Z</time></trkpt><trkpt lat="51.7687067" lon="-8.49475"><ele>38.0</ele><time>2026-05-05T11:47:57.204Z</time></trkpt><trkpt lat="51.7685183" lon="-8.4947017"><ele>38.0</ele><time>2026-05-05T11:47:58.204Z</time></trkpt><trkpt lat="51.768345" lon="-8.49466"><ele>38.0</ele><time>2026-05-05T11:47:59.204Z</time></trkpt><trkpt lat="51.76817" lon="-8.4946117"><ele>38.0</ele><time>2026-05-05T11:48:00.205Z</time></trkpt><trkpt lat="51.7680033" lon="-8.494575"><ele>36.666666666666664</ele><time>2026-05-05T11:48:01.205Z</time></trkpt><trkpt lat="51.7678333" lon="-8.4945333"><ele>35.333333333333336</ele><time>2026-05-05T11:48:02.205Z</time></trkpt><trkpt lat="51.7676683" lon="-8.4944933"><ele>34.0</ele><time>2026-05-05T11:48:03.205Z</time></trkpt><trkpt lat="51.7675083" lon="-8.4944683"><ele>34.0</ele><time>2026-05-05T11:48:04.204Z</time></trkpt><trkpt lat="51.7673567" lon="-8.4944817"><ele>34.0</ele><time>2026-05-05T11:48:05.205Z</time></trkpt><trkpt lat="51.7672133" lon="-8.4945117"><ele>34.0</ele><time>2026-05-05T11:48:06.204Z</time></trkpt><trkpt lat="51.767065" lon="-8.4945617"><ele>34.0</ele><time>2026-05-05T11:48:07.205Z</time></trkpt><trkpt lat="51.766915" lon="-8.494615"><ele>34.333333333333336</ele><time>2026-05-05T11:48:08.205Z</time></trkpt><trkpt lat="51.76676" lon="-8.4946983"><ele>34.666666666666664</ele><time>2026-05-05T11:48:09.205Z</time></trkpt><trkpt lat="51.7666217" lon="-8.4948033"><ele>35.0</ele><time>2026-05-05T11:48:10.205Z</time></trkpt><trkpt lat="51.7664967" lon="-8.4949317"><ele>35.0</ele><time>2026-05-05T11:48:11.205Z</time></trkpt><trkpt lat="51.76638" lon="-8.4950733"><ele>35.0</ele><time>2026-05-05T11:48:12.205Z</time></trkpt><trkpt lat="51.766265" lon="-8.4952483"><ele>35.0</ele><time>2026-05-05T11:48:13.204Z</time></trkpt><trkpt lat="51.76615" lon="-8.49544"><ele>34.25</ele><time>2026-05-05T11:48:14.204Z</time></trkpt><trkpt lat="51.76605" lon="-8.4956283"><ele>33.5</ele><time>2026-05-05T11:48:15.205Z</time></trkpt><trkpt lat="51.7659833" lon="-8.4958283"><ele>32.75</ele><time>2026-05-05T11:48:16.205Z</time></trkpt><trkpt lat="51.7658983" lon="-8.4960167"><ele>32.0</ele><time>2026-05-05T11:48:17.204Z</time></trkpt><trkpt lat="51.7658217" lon="-8.4962133"><ele>32.666666666666664</ele><time>2026-05-05T11:48:18.204Z</time></trkpt><trkpt lat="51.7657383" lon="-8.49641"><ele>33.333333333333336</ele><time>2026-05-05T11:48:19.204Z</time></trkpt><trkpt lat="51.7656433" lon="-8.4966117"><ele>34.0</ele><time>2026-05-05T11:48:20.205Z</time></trkpt><trkpt lat="51.7655483" lon="-8.49679"><ele>34.0</ele><time>2026-05-05T11:48:21.204Z</time></trkpt><trkpt lat="51.765435" lon="-8.4969617"><ele>34.0</ele><time>2026-05-05T11:48:22.204Z</time></trkpt><trkpt lat="51.7653067" lon="-8.49712"><ele>34.0</ele><time>2026-05-05T11:48:23.205Z</time></trkpt><trkpt lat="51.7651783" lon="-8.49725"><ele>33.5</ele><time>2026-05-05T11:48:24.204Z</time></trkpt><trkpt lat="51.76505" lon="-8.4973517"><ele>33.0</ele><time>2026-05-05T11:48:25.205Z</time></trkpt><trkpt lat="51.7649283" lon="-8.4974483"><ele>32.5</ele><time>2026-05-05T11:48:26.205Z</time></trkpt><trkpt lat="51.7648017" lon="-8.4975283"><ele>32.0</ele><time>2026-05-05T11:48:27.205Z</time></trkpt><trkpt lat="51.7646833" lon="-8.4975933"><ele>32.0</ele><time>2026-05-05T11:48:28.205Z</time></trkpt><trkpt lat="51.7645583" lon="-8.4976383"><ele>32.0</ele><time>2026-05-05T11:48:29.205Z</time></trkpt><trkpt lat="51.7644367" lon="-8.49765"><ele>32.0</ele><time>2026-05-05T11:48:30.205Z</time></trkpt><trkpt lat="51.7642917" lon="-8.497605"><ele>32.0</ele><time>2026-05-05T11:48:31.205Z</time></trkpt><trkpt lat="51.764155" lon="-8.49757"><ele>32.5</ele><time>2026-05-05T11:48:32.205Z</time></trkpt><trkpt lat="51.7640217" lon="-8.4975333"><ele>33.0</ele><time>2026-05-05T11:48:33.205Z</time></trkpt><trkpt lat="51.7638833" lon="-8.49748"><ele>33.5</ele><time>2026-05-05T11:48:34.204Z</time></trkpt><trkpt lat="51.7637383" lon="-8.4974233"><ele>34.0</ele><time>2026-05-05T11:48:35.205Z</time></trkpt><trkpt lat="51.7636" lon="-8.497375"><ele>34.5</ele><time>2026-05-05T11:48:36.205Z</time></trkpt><trkpt lat="51.763515" lon="-8.49733"><ele>35.0</ele><time>2026-05-05T11:48:37.204Z</time></trkpt><trkpt lat="51.7633933" lon="-8.4972833"><ele>35.5</ele><time>2026-05-05T11:48:38.205Z</time></trkpt><trkpt lat="51.7632717" lon="-8.4972467"><ele>36.0</ele><time>2026-05-05T11:48:39.204Z</time></trkpt><trkpt lat="51.7631517" lon="-8.4972133"><ele>36.0</ele><time>2026-05-05T11:48:40.204Z</time></trkpt><trkpt lat="51.76304" lon="-8.4971717"><ele>36.0</ele><time>2026-05-05T11:48:41.205Z</time></trkpt><trkpt lat="51.7629433" lon="-8.4971467"><ele>36.0</ele><time>2026-05-05T11:48:42.204Z</time></trkpt><trkpt lat="51.7628133" lon="-8.49711"><ele>36.0</ele><time>2026-05-05T11:48:43.204Z</time></trkpt><trkpt lat="51.7627283" lon="-8.4970883"><ele>36.0</ele><time>2026-05-05T11:48:44.205Z</time></trkpt><trkpt lat="51.76262" lon="-8.497035"><ele>33.75</ele><time>2026-05-05T11:48:45.205Z</time></trkpt><trkpt lat="51.7625033" lon="-8.496985"><ele>31.5</ele><time>2026-05-05T11:48:46.205Z</time></trkpt><trkpt lat="51.76236" lon="-8.4969433"><ele>29.25</ele><time>2026-05-05T11:48:47.205Z</time></trkpt><trkpt lat="51.76222" lon="-8.4969233"><ele>27.0</ele><time>2026-05-05T11:48:48.205Z</time></trkpt><trkpt lat="51.762035" lon="-8.4968883"><ele>27.0</ele><time>2026-05-05T11:48:49.204Z</time></trkpt><trkpt lat="51.7618833" lon="-8.496935"><ele>27.0</ele><time>2026-05-05T11:48:50.205Z</time></trkpt><trkpt lat="51.7617183" lon="-8.497"><ele>27.0</ele><time>2026-05-05T11:48:51.205Z</time></trkpt><trkpt lat="51.76154" lon="-8.4970683"><ele>27.666666666666664</ele><time>2026-05-05T11:48:52.205Z</time></trkpt><trkpt lat="51.7613567" lon="-8.4971017"><ele>28.333333333333332</ele><time>2026-05-05T11:48:53.205Z</time></trkpt><trkpt lat="51.7611917" lon="-8.4971217"><ele>29.0</ele><time>2026-05-05T11:48:54.205Z</time></trkpt><trkpt lat="51.7610117" lon="-8.497115"><ele>29.333333333333332</ele><time>2026-05-05T11:48:55.205Z</time></trkpt><trkpt lat="51.7608367" lon="-8.497105"><ele>29.666666666666664</ele><time>2026-05-05T11:48:56.204Z</time></trkpt><trkpt lat="51.7606817" lon="-8.4970783"><ele>30.0</ele><time>2026-05-05T11:48:57.204Z</time></trkpt><trkpt lat="51.7605367" lon="-8.4970417"><ele>29.5</ele><time>2026-05-05T11:48:58.205Z</time></trkpt><trkpt lat="51.7604" lon="-8.496985"><ele>29.0</ele><time>2026-05-05T11:48:59.205Z</time></trkpt><trkpt lat="51.7602767" lon="-8.4969017"><ele>28.5</ele><time>2026-05-05T11:49:00.204Z</time></trkpt><trkpt lat="51.7601533" lon="-8.4967817"><ele>28.0</ele><time>2026-05-05T11:49:01.205Z</time></trkpt><trkpt lat="51.759995" lon="-8.4966117"><ele>27.75</ele><time>2026-05-05T11:49:02.205Z</time></trkpt><trkpt lat="51.7598833" lon="-8.49647"><ele>27.5</ele><time>2026-05-05T11:49:03.205Z</time></trkpt><trkpt lat="51.75977" lon="-8.4963317"><ele>27.25</ele><time>2026-05-05T11:49:04.204Z</time></trkpt><trkpt lat="51.7596667" lon="-8.4962167"><ele>27.0</ele><time>2026-05-05T11:49:05.204Z</time></trkpt><trkpt lat="51.7595417" lon="-8.496125"><ele>28.5</ele><time>2026-05-05T11:49:06.204Z</time></trkpt><trkpt lat="51.7594317" lon="-8.4960617"><ele>30.0</ele><time>2026-05-05T11:49:07.205Z</time></trkpt><trkpt lat="51.759315" lon="-8.4960217"><ele>31.5</ele><time>2026-05-05T11:49:08.205Z</time></trkpt><trkpt lat="51.75918" lon="-8.4959733"><ele>33.0</ele><time>2026-05-05T11:49:09.205Z</time></trkpt><trkpt lat="51.7590383" lon="-8.4959583"><ele>34.5</ele><time>2026-05-05T11:49:10.205Z</time></trkpt><trkpt lat="51.7588833" lon="-8.4959917"><ele>36.0</ele><time>2026-05-05T11:49:11.204Z</time></trkpt><trkpt lat="51.7587533" lon="-8.4960333"><ele>37.5</ele><time>2026-05-05T11:49:12.204Z</time></trkpt><trkpt lat="51.7586317" lon="-8.49609"><ele>39.0</ele><time>2026-05-05T11:49:13.205Z</time></trkpt><trkpt lat="51.7584967" lon="-8.4961083"><ele>39.666666666666664</ele><time>2026-05-05T11:49:14.204Z</time></trkpt><trkpt lat="51.7583583" lon="-8.496105"><ele>40.33333333333333</ele><time>2026-05-05T11:49:15.205Z</time></trkpt><trkpt lat="51.75819" lon="-8.496115"><ele>41.0</ele><time>2026-05-05T11:49:16.205Z</time></trkpt><trkpt lat="51.75803" lon="-8.49609"><ele>41.0</ele><time>2026-05-05T11:49:17.205Z</time></trkpt><trkpt lat="51.7578517" lon="-8.49606"><ele>41.0</ele><time>2026-05-05T11:49:18.204Z</time></trkpt><trkpt lat="51.7576783" lon="-8.4960167"><ele>41.0</ele><time>2026-05-05T11:49:19.205Z</time></trkpt><trkpt lat="51.7575083" lon="-8.4959617"><ele>39.0</ele><time>2026-05-05T11:49:20.204Z</time></trkpt><trkpt lat="51.7573467" lon="-8.4959017"><ele>37.0</ele><time>2026-05-05T11:49:21.204Z</time></trkpt><trkpt lat="51.7571967" lon="-8.49585"><ele>35.0</ele><time>2026-05-05T11:49:22.205Z</time></trkpt><trkpt lat="51.757055" lon="-8.49578"><ele>35.0</ele><time>2026-05-05T11:49:23.204Z</time></trkpt><trkpt lat="51.7569067" lon="-8.4956883"><ele>35.0</ele><time>2026-05-05T11:49:24.205Z</time></trkpt><trkpt lat="51.7567617" lon="-8.4955967"><ele>35.0</ele><time>2026-05-05T11:49:25.205Z</time></trkpt><trkpt lat="51.7566233" lon="-8.495495"><ele>35.0</ele><time>2026-05-05T11:49:26.205Z</time></trkpt><trkpt lat="51.7564583" lon="-8.4953633"><ele>35.0</ele><time>2026-05-05T11:49:27.205Z</time></trkpt><trkpt lat="51.7562783" lon="-8.495225"><ele>35.0</ele><time>2026-05-05T11:49:28.205Z</time></trkpt><trkpt lat="51.7561067" lon="-8.4951083"><ele>33.666666666666664</ele><time>2026-05-05T11:49:29.205Z</time></trkpt><trkpt lat="51.7559467" lon="-8.494985"><ele>32.333333333333336</ele><time>2026-05-05T11:49:30.204Z</time></trkpt><trkpt lat="51.75578" lon="-8.4948767"><ele>31.0</ele><time>2026-05-05T11:49:31.205Z</time></trkpt><trkpt lat="51.7556033" lon="-8.4947583"><ele>31.0</ele><time>2026-05-05T11:49:32.205Z</time></trkpt><trkpt lat="51.755425" lon="-8.4946683"><ele>31.0</ele><time>2026-05-05T11:49:33.204Z</time></trkpt><trkpt lat="51.7552567" lon="-8.4945833"><ele>31.0</ele><time>2026-05-05T11:49:34.205Z</time></trkpt><trkpt lat="51.755085" lon="-8.4945"><ele>32.333333333333336</ele><time>2026-05-05T11:49:35.204Z</time></trkpt><trkpt lat="51.7549167" lon="-8.4943983"><ele>33.666666666666664</ele><time>2026-05-05T11:49:36.204Z</time></trkpt><trkpt lat="51.7547483" lon="-8.49432"><ele>35.0</ele><time>2026-05-05T11:49:37.205Z</time></trkpt><trkpt lat="51.7545833" lon="-8.494245"><ele>35.0</ele><time>2026-05-05T11:49:38.205Z</time></trkpt><trkpt lat="51.75443" lon="-8.494175"><ele>35.0</ele><time>2026-05-05T11:49:39.204Z</time></trkpt><trkpt lat="51.7542617" lon="-8.49414"><ele>35.0</ele><time>2026-05-05T11:49:40.205Z</time></trkpt><trkpt lat="51.754105" lon="-8.4941283"><ele>35.0</ele><time>2026-05-05T11:49:41.205Z</time></trkpt><trkpt lat="51.75394" lon="-8.4941467"><ele>35.0</ele><time>2026-05-05T11:49:42.205Z</time></trkpt><trkpt lat="51.753765" lon="-8.4941633"><ele>35.0</ele><time>2026-05-05T11:49:43.205Z</time></trkpt><trkpt lat="51.7535983" lon="-8.4942067"><ele>36.666666666666664</ele><time>2026-05-05T11:49:44.204Z</time></trkpt><trkpt lat="51.7534333" lon="-8.49427"><ele>38.333333333333336</ele><time>2026-05-05T11:49:45.204Z</time></trkpt><trkpt lat="51.75328" lon="-8.4942933"><ele>40.0</ele><time>2026-05-05T11:49:46.205Z</time></trkpt><trkpt lat="51.7531183" lon="-8.49432"><ele>40.0</ele><time>2026-05-05T11:49:47.204Z</time></trkpt><trkpt lat="51.75296" lon="-8.4943717"><ele>40.0</ele><time>2026-05-05T11:49:48.205Z</time></trkpt><trkpt lat="51.7528117" lon="-8.4944517"><ele>40.0</ele><time>2026-05-05T11:49:49.205Z</time></trkpt><trkpt lat="51.7526817" lon="-8.4945483"><ele>39.0</ele><time>2026-05-05T11:49:50.204Z</time></trkpt><trkpt lat="51.7525433" lon="-8.4946383"><ele>38.0</ele><time>2026-05-05T11:49:51.204Z</time></trkpt><trkpt lat="51.7524067" lon="-8.494805"><ele>37.0</ele><time>2026-05-05T11:49:52.204Z</time></trkpt><trkpt lat="51.7522883" lon="-8.4949533"><ele>37.0</ele><time>2026-05-05T11:49:53.204Z</time></trkpt><trkpt lat="51.752145" lon="-8.49504"><ele>37.0</ele><time>2026-05-05T11:49:54.204Z</time></trkpt><trkpt lat="51.7520017" lon="-8.495125"><ele>37.0</ele><time>2026-05-05T11:49:55.205Z</time></trkpt><trkpt lat="51.7518583" lon="-8.4952183"><ele>36.75</ele><time>2026-05-05T11:49:56.205Z</time></trkpt><trkpt lat="51.7517267" lon="-8.4952933"><ele>36.5</ele><time>2026-05-05T11:49:57.205Z</time></trkpt><trkpt lat="51.7515917" lon="-8.4953133"><ele>36.25</ele><time>2026-05-05T11:49:58.204Z</time></trkpt><trkpt lat="51.7514517" lon="-8.495355"><ele>36.0</ele><time>2026-05-05T11:49:59.205Z</time></trkpt><trkpt lat="51.7513117" lon="-8.4953933"><ele>36.0</ele><time>2026-05-05T11:50:00.205Z</time></trkpt><trkpt lat="51.751165" lon="-8.4953883"><ele>36.0</ele><time>2026-05-05T11:50:01.205Z</time></trkpt><trkpt lat="51.7509533" lon="-8.4953483"><ele>36.0</ele><time>2026-05-05T11:50:02.204Z</time></trkpt><trkpt lat="51.7507733" lon="-8.4953067"><ele>34.0</ele><time>2026-05-05T11:50:03.205Z</time></trkpt><trkpt lat="51.750595" lon="-8.495255"><ele>32.0</ele><time>2026-05-05T11:50:04.204Z</time></trkpt><trkpt lat="51.7504017" lon="-8.4951883"><ele>30.0</ele><time>2026-05-05T11:50:05.204Z</time></trkpt><trkpt lat="51.7502133" lon="-8.4951183"><ele>27.333333333333332</ele><time>2026-05-05T11:50:06.205Z</time></trkpt><trkpt lat="51.7500267" lon="-8.4950217"><ele>24.666666666666664</ele><time>2026-05-05T11:50:07.204Z</time></trkpt><trkpt lat="51.7498417" lon="-8.49491"><ele>22.0</ele><time>2026-05-05T11:50:08.205Z</time></trkpt><trkpt lat="51.749655" lon="-8.4947583"><ele>22.0</ele><time>2026-05-05T11:50:09.205Z</time></trkpt><trkpt lat="51.7494833" lon="-8.4946417"><ele>22.0</ele><time>2026-05-05T11:50:10.205Z</time></trkpt><trkpt lat="51.7493083" lon="-8.4944383"><ele>22.0</ele><time>2026-05-05T11:50:11.205Z</time></trkpt><trkpt lat="51.749145" lon="-8.4942867"><ele>21.333333333333332</ele><time>2026-05-05T11:50:12.204Z</time></trkpt><trkpt lat="51.748945" lon="-8.494115"><ele>20.666666666666668</ele><time>2026-05-05T11:50:13.204Z</time></trkpt><trkpt lat="51.7488" lon="-8.493905"><ele>20.0</ele><time>2026-05-05T11:50:14.205Z</time></trkpt><trkpt lat="51.74866" lon="-8.4937083"><ele>19.0</ele><time>2026-05-05T11:50:15.204Z</time></trkpt><trkpt lat="51.7485783" lon="-8.4935067"><ele>18.0</ele><time>2026-05-05T11:50:16.205Z</time></trkpt><trkpt lat="51.7484533" lon="-8.4933033"><ele>17.0</ele><time>2026-05-05T11:50:17.205Z</time></trkpt><trkpt lat="51.748405" lon="-8.4930817"><ele>17.0</ele><time>2026-05-05T11:50:18.205Z</time></trkpt><trkpt lat="51.7483633" lon="-8.4928633"><ele>17.0</ele><time>2026-05-05T11:50:19.204Z</time></trkpt><trkpt lat="51.7482783" lon="-8.4926433"><ele>17.0</ele><time>2026-05-05T11:50:20.205Z</time></trkpt><trkpt lat="51.7481617" lon="-8.4923967"><ele>17.0</ele><time>2026-05-05T11:50:21.205Z</time></trkpt><trkpt lat="51.7480883" lon="-8.4922167"><ele>17.0</ele><time>2026-05-05T11:50:22.205Z</time></trkpt><trkpt lat="51.7479667" lon="-8.4920117"><ele>17.0</ele><time>2026-05-05T11:50:23.205Z</time></trkpt><trkpt lat="51.7478267" lon="-8.4918083"><ele>16.333333333333336</ele><time>2026-05-05T11:50:24.205Z</time></trkpt><trkpt lat="51.7476883" lon="-8.4916217"><ele>15.666666666666668</ele><time>2026-05-05T11:50:25.205Z</time></trkpt><trkpt lat="51.74754" lon="-8.491415"><ele>15.0</ele><time>2026-05-05T11:50:26.205Z</time></trkpt><trkpt lat="51.747375" lon="-8.4912183"><ele>15.0</ele><time>2026-05-05T11:50:27.205Z</time></trkpt><trkpt lat="51.7471933" lon="-8.4910467"><ele>15.0</ele><time>2026-05-05T11:50:28.205Z</time></trkpt><trkpt lat="51.7470167" lon="-8.4909017"><ele>15.0</ele><time>2026-05-05T11:50:29.205Z</time></trkpt><trkpt lat="51.746825" lon="-8.4907733"><ele>15.0</ele><time>2026-05-05T11:50:30.204Z</time></trkpt><trkpt lat="51.74663" lon="-8.4906533"><ele>15.0</ele><time>2026-05-05T11:50:31.205Z</time></trkpt><trkpt lat="51.7464417" lon="-8.4905617"><ele>15.0</ele><time>2026-05-05T11:50:32.204Z</time></trkpt><trkpt lat="51.74625" lon="-8.4904683"><ele>15.666666666666668</ele><time>2026-05-05T11:50:33.204Z</time></trkpt><trkpt lat="51.7460783" lon="-8.4903817"><ele>16.333333333333336</ele><time>2026-05-05T11:50:34.205Z</time></trkpt><trkpt lat="51.7459033" lon="-8.4903083"><ele>17.0</ele><time>2026-05-05T11:50:35.205Z</time></trkpt><trkpt lat="51.7457217" lon="-8.49027"><ele>17.0</ele><time>2026-05-05T11:50:36.204Z</time></trkpt><trkpt lat="51.7455417" lon="-8.4902517"><ele>17.0</ele><time>2026-05-05T11:50:37.205Z</time></trkpt><trkpt lat="51.745355" lon="-8.4902567"><ele>17.0</ele><time>2026-05-05T11:50:38.205Z</time></trkpt><trkpt lat="51.74516" lon="-8.490255"><ele>17.333333333333336</ele><time>2026-05-05T11:50:39.205Z</time></trkpt><trkpt lat="51.7449617" lon="-8.4902733"><ele>17.666666666666668</ele><time>2026-05-05T11:50:40.205Z</time></trkpt><trkpt lat="51.7447267" lon="-8.49029"><ele>18.0</ele><time>2026-05-05T11:50:41.204Z</time></trkpt><trkpt lat="51.7445117" lon="-8.490325"><ele>18.666666666666668</ele><time>2026-05-05T11:50:42.204Z</time></trkpt><trkpt lat="51.744335" lon="-8.4903617"><ele>19.333333333333336</ele><time>2026-05-05T11:50:43.205Z</time></trkpt><trkpt lat="51.7441333" lon="-8.490385"><ele>20.0</ele><time>2026-05-05T11:50:44.204Z</time></trkpt><trkpt lat="51.743945" lon="-8.490415"><ele>18.666666666666668</ele><time>2026-05-05T11:50:45.205Z</time></trkpt><trkpt lat="51.7437633" lon="-8.4904617"><ele>17.333333333333332</ele><time>2026-05-05T11:50:46.204Z</time></trkpt><trkpt lat="51.7435833" lon="-8.4904867"><ele>16.0</ele><time>2026-05-05T11:50:47.205Z</time></trkpt><trkpt lat="51.7434033" lon="-8.490535"><ele>15.666666666666666</ele><time>2026-05-05T11:50:48.205Z</time></trkpt><trkpt lat="51.743235" lon="-8.4905583"><ele>15.333333333333332</ele><time>2026-05-05T11:50:49.204Z</time></trkpt><trkpt lat="51.7430683" lon="-8.4905533"><ele>15.0</ele><time>2026-05-05T11:50:50.205Z</time></trkpt><trkpt lat="51.7429033" lon="-8.49052"><ele>15.0</ele><time>2026-05-05T11:50:51.204Z</time></trkpt><trkpt lat="51.7427383" lon="-8.4904617"><ele>15.0</ele><time>2026-05-05T11:50:52.204Z</time></trkpt><trkpt lat="51.7425767" lon="-8.4903917"><ele>15.0</ele><time>2026-05-05T11:50:53.205Z</time></trkpt><trkpt lat="51.74243" lon="-8.4902983"><ele>15.666666666666668</ele><time>2026-05-05T11:50:54.205Z</time></trkpt><trkpt lat="51.74229" lon="-8.4901683"><ele>16.333333333333336</ele><time>2026-05-05T11:50:55.205Z</time></trkpt><trkpt lat="51.7421483" lon="-8.490015"><ele>17.0</ele><time>2026-05-05T11:50:56.205Z</time></trkpt><trkpt lat="51.7420117" lon="-8.4898633"><ele>16.666666666666668</ele><time>2026-05-05T11:50:57.205Z</time></trkpt><trkpt lat="51.74187" lon="-8.4896683"><ele>16.333333333333332</ele><time>2026-05-05T11:50:58.205Z</time></trkpt><trkpt lat="51.7417383" lon="-8.4894567"><ele>16.0</ele><time>2026-05-05T11:50:59.204Z</time></trkpt><trkpt lat="51.74161" lon="-8.48924"><ele>16.0</ele><time>2026-05-05T11:51:00.205Z</time></trkpt><trkpt lat="51.741475" lon="-8.48901"><ele>16.0</ele><time>2026-05-05T11:51:01.205Z</time></trkpt><trkpt lat="51.7413217" lon="-8.4887233"><ele>16.0</ele><time>2026-05-05T11:51:02.205Z</time></trkpt><trkpt lat="51.7411717" lon="-8.4884617"><ele>15.0</ele><time>2026-05-05T11:51:03.205Z</time></trkpt><trkpt lat="51.7410183" lon="-8.4882"><ele>14.0</ele><time>2026-05-05T11:51:04.205Z</time></trkpt><trkpt lat="51.7408783" lon="-8.487945"><ele>13.0</ele><time>2026-05-05T11:51:05.205Z</time></trkpt><trkpt lat="51.74075" lon="-8.4877033"><ele>13.0</ele><time>2026-05-05T11:51:06.204Z</time></trkpt><trkpt lat="51.7405467" lon="-8.4874667"><ele>13.0</ele><time>2026-05-05T11:51:07.205Z</time></trkpt><trkpt lat="51.740385" lon="-8.4872517"><ele>12.75</ele><time>2026-05-05T11:51:08.204Z</time></trkpt><trkpt lat="51.74027" lon="-8.4870483"><ele>12.5</ele><time>2026-05-05T11:51:09.205Z</time></trkpt><trkpt lat="51.7401917" lon="-8.486875"><ele>12.25</ele><time>2026-05-05T11:51:10.204Z</time></trkpt><trkpt lat="51.7401" lon="-8.4867083"><ele>12.0</ele><time>2026-05-05T11:51:11.204Z</time></trkpt><trkpt lat="51.7400117" lon="-8.4865467"><ele>12.0</ele><time>2026-05-05T11:51:12.204Z</time></trkpt><trkpt lat="51.73993" lon="-8.4864167"><ele>12.0</ele><time>2026-05-05T11:51:13.205Z</time></trkpt><trkpt lat="51.7398367" lon="-8.4862583"><ele>12.0</ele><time>2026-05-05T11:51:14.204Z</time></trkpt><trkpt lat="51.7397467" lon="-8.4861383"><ele>12.0</ele><time>2026-05-05T11:51:15.205Z</time></trkpt><trkpt lat="51.739645" lon="-8.486"><ele>12.0</ele><time>2026-05-05T11:51:16.205Z</time></trkpt><trkpt lat="51.73956" lon="-8.48585"><ele>12.0</ele><time>2026-05-05T11:51:17.205Z</time></trkpt><trkpt lat="51.7394233" lon="-8.4856967"><ele>12.0</ele><time>2026-05-05T11:51:18.205Z</time></trkpt><trkpt lat="51.7392717" lon="-8.48552"><ele>12.0</ele><time>2026-05-05T11:51:19.204Z</time></trkpt><trkpt lat="51.739135" lon="-8.4853583"><ele>12.0</ele><time>2026-05-05T11:51:20.205Z</time></trkpt><trkpt lat="51.7390283" lon="-8.4852117"><ele>12.0</ele><time>2026-05-05T11:51:21.204Z</time></trkpt><trkpt lat="51.7389217" lon="-8.4850833"><ele>12.0</ele><time>2026-05-05T11:51:22.205Z</time></trkpt><trkpt lat="51.738825" lon="-8.484965"><ele>12.0</ele><time>2026-05-05T11:51:23.205Z</time></trkpt><trkpt lat="51.7387283" lon="-8.4848567"><ele>12.0</ele><time>2026-05-05T11:51:24.204Z</time></trkpt><trkpt lat="51.7386433" lon="-8.4847417"><ele>12.0</ele><time>2026-05-05T11:51:25.204Z</time></trkpt><trkpt lat="51.7385417" lon="-8.4846283"><ele>12.0</ele><time>2026-05-05T11:51:26.205Z</time></trkpt><trkpt lat="51.738425" lon="-8.4845267"><ele>12.5</ele><time>2026-05-05T11:51:27.204Z</time></trkpt><trkpt lat="51.7383083" lon="-8.4844267"><ele>13.0</ele><time>2026-05-05T11:51:28.204Z</time></trkpt><trkpt lat="51.738195" lon="-8.4843233"><ele>13.5</ele><time>2026-05-05T11:51:29.205Z</time></trkpt><trkpt lat="51.7380683" lon="-8.48422"><ele>14.0</ele><time>2026-05-05T11:51:30.205Z</time></trkpt><trkpt lat="51.737935" lon="-8.4841167"><ele>14.0</ele><time>2026-05-05T11:51:31.205Z</time></trkpt><trkpt lat="51.737815" lon="-8.4840283"><ele>14.0</ele><time>2026-05-05T11:51:32.205Z</time></trkpt><trkpt lat="51.737695" lon="-8.4839333"><ele>14.0</ele><time>2026-05-05T11:51:33.205Z</time></trkpt><trkpt lat="51.7375883" lon="-8.4838617"><ele>14.0</ele><time>2026-05-05T11:51:34.205Z</time></trkpt><trkpt lat="51.7374483" lon="-8.4837933"><ele>13.2</ele><time>2026-05-05T11:51:35.204Z</time></trkpt><trkpt lat="51.7373083" lon="-8.4837717"><ele>12.399999999999999</ele><time>2026-05-05T11:51:36.205Z</time></trkpt><trkpt lat="51.737205" lon="-8.4837517"><ele>11.6</ele><time>2026-05-05T11:51:37.204Z</time></trkpt><trkpt lat="51.737115" lon="-8.48373"><ele>10.8</ele><time>2026-05-05T11:51:38.205Z</time></trkpt><trkpt lat="51.7370417" lon="-8.48372"><ele>10.0</ele><time>2026-05-05T11:51:39.204Z</time></trkpt><trkpt lat="51.736935" lon="-8.4837133"><ele>9.6</ele><time>2026-05-05T11:51:41.205Z</time></trkpt><trkpt lat="51.7368383" lon="-8.4837117"><ele>9.2</ele><time>2026-05-05T11:51:43.205Z</time></trkpt><trkpt lat="51.7367367" lon="-8.4837167"><ele>8.8</ele><time>2026-05-05T11:51:45.205Z</time></trkpt><trkpt lat="51.7366433" lon="-8.4837117"><ele>8.4</ele><time>2026-05-05T11:51:47.204Z</time></trkpt><trkpt lat="51.73656" lon="-8.4837217"><ele>8.0</ele><time>2026-05-05T11:51:49.203Z</time></trkpt><trkpt lat="51.736485" lon="-8.483745"><ele>7.999999999999999</ele><time>2026-05-05T11:51:52.204Z</time></trkpt><trkpt lat="51.736415" lon="-8.4837617"><ele>8.0</ele><time>2026-05-05T11:51:54.203Z</time></trkpt><trkpt lat="51.7362967" lon="-8.4837733"><ele>8.0</ele><time>2026-05-05T11:51:56.204Z</time></trkpt><trkpt lat="51.7362217" lon="-8.4837817"><ele>8.0</ele><time>2026-05-05T11:51:57.204Z</time></trkpt><trkpt lat="51.73614" lon="-8.4838"><ele>7.999999999999999</ele><time>2026-05-05T11:51:58.204Z</time></trkpt><trkpt lat="51.7360583" lon="-8.4838267"><ele>8.0</ele><time>2026-05-05T11:51:59.204Z</time></trkpt><trkpt lat="51.7359767" lon="-8.4838433"><ele>7.6000000000000005</ele><time>2026-05-05T11:52:00.203Z</time></trkpt><trkpt lat="51.7358783" lon="-8.4838417"><ele>7.200000000000001</ele><time>2026-05-05T11:52:01.203Z</time></trkpt><trkpt lat="51.7357683" lon="-8.483825"><ele>6.8</ele><time>2026-05-05T11:52:02.203Z</time></trkpt><trkpt lat="51.7356533" lon="-8.4838067"><ele>6.4</ele><time>2026-05-05T11:52:03.204Z</time></trkpt><trkpt lat="51.7355417" lon="-8.48378"><ele>6.0</ele><time>2026-05-05T11:52:04.204Z</time></trkpt><trkpt lat="51.7354283" lon="-8.483735"><ele>7.0</ele><time>2026-05-05T11:52:05.204Z</time></trkpt><trkpt lat="51.7353117" lon="-8.4836733"><ele>8.0</ele><time>2026-05-05T11:52:06.204Z</time></trkpt><trkpt lat="51.7352" lon="-8.4835983"><ele>9.0</ele><time>2026-05-05T11:52:07.204Z</time></trkpt><trkpt lat="51.7350933" lon="-8.4835383"><ele>10.0</ele><time>2026-05-05T11:52:08.203Z</time></trkpt><trkpt lat="51.7349933" lon="-8.4834717"><ele>10.0</ele><time>2026-05-05T11:52:09.203Z</time></trkpt><trkpt lat="51.7348933" lon="-8.4834017"><ele>10.0</ele><time>2026-05-05T11:52:10.204Z</time></trkpt><trkpt lat="51.7347917" lon="-8.4833267"><ele>10.0</ele><time>2026-05-05T11:52:11.203Z</time></trkpt><trkpt lat="51.7346933" lon="-8.4832517"><ele>10.0</ele><time>2026-05-05T11:52:12.204Z</time></trkpt><trkpt lat="51.734595" lon="-8.4831433"><ele>10.0</ele><time>2026-05-05T11:52:13.204Z</time></trkpt><trkpt lat="51.7344983" lon="-8.483065"><ele>10.0</ele><time>2026-05-05T11:52:14.203Z</time></trkpt><trkpt lat="51.7344067" lon="-8.482985"><ele>10.0</ele><time>2026-05-05T11:52:15.204Z</time></trkpt><trkpt lat="51.7343167" lon="-8.4829067"><ele>10.0</ele><time>2026-05-05T11:52:16.204Z</time></trkpt><trkpt lat="51.7342217" lon="-8.4828183"><ele>10.0</ele><time>2026-05-05T11:52:17.203Z</time></trkpt><trkpt lat="51.7341217" lon="-8.4827233"><ele>10.0</ele><time>2026-05-05T11:52:18.204Z</time></trkpt><trkpt lat="51.7339867" lon="-8.4826033"><ele>11.0</ele><time>2026-05-05T11:52:19.204Z</time></trkpt><trkpt lat="51.7338633" lon="-8.482495"><ele>12.0</ele><time>2026-05-05T11:52:20.203Z</time></trkpt><trkpt lat="51.7337133" lon="-8.482385"><ele>13.0</ele><time>2026-05-05T11:52:21.204Z</time></trkpt><trkpt lat="51.7335667" lon="-8.48228"><ele>12.333333333333332</ele><time>2026-05-05T11:52:22.204Z</time></trkpt><trkpt lat="51.7334283" lon="-8.4821733"><ele>11.666666666666666</ele><time>2026-05-05T11:52:23.204Z</time></trkpt><trkpt lat="51.7332867" lon="-8.48207"><ele>11.0</ele><time>2026-05-05T11:52:24.203Z</time></trkpt><trkpt lat="51.7331417" lon="-8.48197"><ele>11.0</ele><time>2026-05-05T11:52:25.203Z</time></trkpt><trkpt lat="51.7329883" lon="-8.4819267"><ele>11.0</ele><time>2026-05-05T11:52:26.204Z</time></trkpt><trkpt lat="51.7328333" lon="-8.4819083"><ele>11.0</ele><time>2026-05-05T11:52:27.203Z</time></trkpt><trkpt lat="51.7326683" lon="-8.4819433"><ele>9.333333333333332</ele><time>2026-05-05T11:52:28.203Z</time></trkpt><trkpt lat="51.7325067" lon="-8.4819883"><ele>7.666666666666666</ele><time>2026-05-05T11:52:29.203Z</time></trkpt><trkpt lat="51.732345" lon="-8.4820683"><ele>6.0</ele><time>2026-05-05T11:52:30.204Z</time></trkpt><trkpt lat="51.7321917" lon="-8.4821817"><ele>5.666666666666667</ele><time>2026-05-05T11:52:31.204Z</time></trkpt><trkpt lat="51.7320417" lon="-8.4823317"><ele>5.333333333333334</ele><time>2026-05-05T11:52:32.204Z</time></trkpt><trkpt lat="51.731915" lon="-8.4824983"><ele>5.0</ele><time>2026-05-05T11:52:33.204Z</time></trkpt><trkpt lat="51.7317733" lon="-8.4826333"><ele>6.333333333333334</ele><time>2026-05-05T11:52:34.204Z</time></trkpt><trkpt lat="51.7316167" lon="-8.4827317"><ele>7.666666666666667</ele><time>2026-05-05T11:52:35.204Z</time></trkpt><trkpt lat="51.7314633" lon="-8.4828067"><ele>9.0</ele><time>2026-05-05T11:52:36.203Z</time></trkpt><trkpt lat="51.7313017" lon="-8.482875"><ele>8.0</ele><time>2026-05-05T11:52:37.203Z</time></trkpt><trkpt lat="51.7311283" lon="-8.4829317"><ele>7.0</ele><time>2026-05-05T11:52:38.203Z</time></trkpt><trkpt lat="51.7309483" lon="-8.48297"><ele>6.0</ele><time>2026-05-05T11:52:39.203Z</time></trkpt><trkpt lat="51.7307817" lon="-8.4829767"><ele>6.0</ele><time>2026-05-05T11:52:40.204Z</time></trkpt><trkpt lat="51.73062" lon="-8.48301"><ele>6.0</ele><time>2026-05-05T11:52:41.204Z</time></trkpt><trkpt lat="51.73045" lon="-8.4830383"><ele>6.0</ele><time>2026-05-05T11:52:42.203Z</time></trkpt><trkpt lat="51.73029" lon="-8.4830983"><ele>7.333333333333334</ele><time>2026-05-05T11:52:43.204Z</time></trkpt><trkpt lat="51.730145" lon="-8.4831517"><ele>8.666666666666668</ele><time>2026-05-05T11:52:44.204Z</time></trkpt><trkpt lat="51.7299933" lon="-8.4832683"><ele>10.0</ele><time>2026-05-05T11:52:45.204Z</time></trkpt><trkpt lat="51.729855" lon="-8.483405"><ele>10.0</ele><time>2026-05-05T11:52:46.203Z</time></trkpt><trkpt lat="51.7297333" lon="-8.4835883"><ele>10.0</ele><time>2026-05-05T11:52:47.203Z</time></trkpt><trkpt lat="51.7296167" lon="-8.4837933"><ele>10.0</ele><time>2026-05-05T11:52:48.204Z</time></trkpt><trkpt lat="51.7294983" lon="-8.484025"><ele>9.0</ele><time>2026-05-05T11:52:49.204Z</time></trkpt><trkpt lat="51.7293517" lon="-8.4842633"><ele>8.0</ele><time>2026-05-05T11:52:50.204Z</time></trkpt><trkpt lat="51.7292167" lon="-8.4844933"><ele>7.0</ele><time>2026-05-05T11:52:51.204Z</time></trkpt><trkpt lat="51.7291033" lon="-8.4847617"><ele>7.0</ele><time>2026-05-05T11:52:52.203Z</time></trkpt><trkpt lat="51.7290317" lon="-8.48508"><ele>7.0</ele><time>2026-05-05T11:52:53.204Z</time></trkpt><trkpt lat="51.7289783" lon="-8.48543"><ele>7.0</ele><time>2026-05-05T11:52:54.203Z</time></trkpt><trkpt lat="51.7289367" lon="-8.4857933"><ele>6.0</ele><time>2026-05-05T11:52:55.204Z</time></trkpt><trkpt lat="51.728855" lon="-8.4861867"><ele>5.0</ele><time>2026-05-05T11:52:56.203Z</time></trkpt><trkpt lat="51.728735" lon="-8.4865833"><ele>4.5</ele><time>2026-05-05T11:52:57.203Z</time></trkpt><trkpt lat="51.72865" lon="-8.4869833"><ele>4.0</ele><time>2026-05-05T11:52:58.204Z</time></trkpt><trkpt lat="51.7285717" lon="-8.4873667"><ele>9.0</ele><time>2026-05-05T11:52:59.203Z</time></trkpt><trkpt lat="51.728475" lon="-8.4877433"><ele>14.0</ele><time>2026-05-05T11:53:00.203Z</time></trkpt><trkpt lat="51.7284017" lon="-8.4881083"><ele>14.0</ele><time>2026-05-05T11:53:01.203Z</time></trkpt><trkpt lat="51.728365" lon="-8.4884433"><ele>14.0</ele><time>2026-05-05T11:53:02.203Z</time></trkpt><trkpt lat="51.728305" lon="-8.4887583"><ele>14.0</ele><time>2026-05-05T11:53:03.203Z</time></trkpt><trkpt lat="51.7282433" lon="-8.4890683"><ele>12.333333333333334</ele><time>2026-05-05T11:53:04.204Z</time></trkpt><trkpt lat="51.7281667" lon="-8.4893667"><ele>10.666666666666668</ele><time>2026-05-05T11:53:05.204Z</time></trkpt><trkpt lat="51.7280867" lon="-8.4896717"><ele>9.0</ele><time>2026-05-05T11:53:06.204Z</time></trkpt><trkpt lat="51.727995" lon="-8.4899733"><ele>8.666666666666666</ele><time>2026-05-05T11:53:07.204Z</time></trkpt><trkpt lat="51.7278883" lon="-8.4902517"><ele>8.333333333333332</ele><time>2026-05-05T11:53:08.204Z</time></trkpt><trkpt lat="51.727725" lon="-8.490515"><ele>8.0</ele><time>2026-05-05T11:53:09.204Z</time></trkpt><trkpt lat="51.7275917" lon="-8.490785"><ele>8.666666666666666</ele><time>2026-05-05T11:53:10.204Z</time></trkpt><trkpt lat="51.7274517" lon="-8.4910367"><ele>9.333333333333334</ele><time>2026-05-05T11:53:11.204Z</time></trkpt><trkpt lat="51.7272867" lon="-8.4912617"><ele>10.0</ele><time>2026-05-05T11:53:12.203Z</time></trkpt><trkpt lat="51.7270917" lon="-8.4914917"><ele>10.0</ele><time>2026-05-05T11:53:13.204Z</time></trkpt><trkpt lat="51.7269217" lon="-8.4916817"><ele>10.0</ele><time>2026-05-05T11:53:14.204Z</time></trkpt><trkpt lat="51.7267433" lon="-8.491825"><ele>10.0</ele><time>2026-05-05T11:53:15.204Z</time></trkpt><trkpt lat="51.72655" lon="-8.491935"><ele>10.0</ele><time>2026-05-05T11:53:16.204Z</time></trkpt><trkpt lat="51.7263517" lon="-8.4919867"><ele>10.0</ele><time>2026-05-05T11:53:17.204Z</time></trkpt><trkpt lat="51.726135" lon="-8.4919783"><ele>10.0</ele><time>2026-05-05T11:53:18.204Z</time></trkpt><trkpt lat="51.7259267" lon="-8.4919383"><ele>9.666666666666668</ele><time>2026-05-05T11:53:19.203Z</time></trkpt><trkpt lat="51.7257317" lon="-8.4918717"><ele>9.333333333333334</ele><time>2026-05-05T11:53:20.204Z</time></trkpt><trkpt lat="51.72554" lon="-8.4917633"><ele>9.0</ele><time>2026-05-05T11:53:21.204Z</time></trkpt><trkpt lat="51.7253667" lon="-8.4915933"><ele>9.0</ele><time>2026-05-05T11:53:22.204Z</time></trkpt><trkpt lat="51.7252017" lon="-8.4913717"><ele>9.0</ele><time>2026-05-05T11:53:23.204Z</time></trkpt><trkpt lat="51.7250517" lon="-8.4911233"><ele>9.0</ele><time>2026-05-05T11:53:24.204Z</time></trkpt><trkpt lat="51.724875" lon="-8.4908433"><ele>9.0</ele><time>2026-05-05T11:53:25.204Z</time></trkpt><trkpt lat="51.72472" lon="-8.490565"><ele>9.0</ele><time>2026-05-05T11:53:26.204Z</time></trkpt><trkpt lat="51.7245333" lon="-8.4903017"><ele>8.333333333333334</ele><time>2026-05-05T11:53:27.203Z</time></trkpt><trkpt lat="51.72438" lon="-8.4900617"><ele>7.666666666666667</ele><time>2026-05-05T11:53:28.204Z</time></trkpt><trkpt lat="51.7242233" lon="-8.4898317"><ele>7.0</ele><time>2026-05-05T11:53:29.203Z</time></trkpt><trkpt lat="51.7240583" lon="-8.4895867"><ele>10.0</ele><time>2026-05-05T11:53:30.203Z</time></trkpt><trkpt lat="51.7239217" lon="-8.48938"><ele>13.0</ele><time>2026-05-05T11:53:31.204Z</time></trkpt><trkpt lat="51.72378" lon="-8.489145"><ele>16.0</ele><time>2026-05-05T11:53:32.203Z</time></trkpt><trkpt lat="51.723635" lon="-8.4889467"><ele>17.333333333333332</ele><time>2026-05-05T11:53:33.204Z</time></trkpt><trkpt lat="51.7234867" lon="-8.4887783"><ele>18.666666666666668</ele><time>2026-05-05T11:53:34.203Z</time></trkpt><trkpt lat="51.72334" lon="-8.488635"><ele>20.0</ele><time>2026-05-05T11:53:35.204Z</time></trkpt><trkpt lat="51.7231817" lon="-8.48852"><ele>20.0</ele><time>2026-05-05T11:53:36.203Z</time></trkpt><trkpt lat="51.7230083" lon="-8.4884517"><ele>20.0</ele><time>2026-05-05T11:53:37.203Z</time></trkpt><trkpt lat="51.722845" lon="-8.4884017"><ele>20.0</ele><time>2026-05-05T11:53:38.204Z</time></trkpt><trkpt lat="51.7227017" lon="-8.4884167"><ele>16.666666666666668</ele><time>2026-05-05T11:53:39.204Z</time></trkpt><trkpt lat="51.7225267" lon="-8.4884283"><ele>13.333333333333334</ele><time>2026-05-05T11:53:40.204Z</time></trkpt><trkpt lat="51.7223567" lon="-8.4884567"><ele>10.0</ele><time>2026-05-05T11:53:41.204Z</time></trkpt><trkpt lat="51.7221817" lon="-8.4885083"><ele>10.0</ele><time>2026-05-05T11:53:42.204Z</time></trkpt><trkpt lat="51.7219983" lon="-8.4886067"><ele>10.0</ele><time>2026-05-05T11:53:43.204Z</time></trkpt><trkpt lat="51.72181" lon="-8.4887283"><ele>10.0</ele><time>2026-05-05T11:53:44.204Z</time></trkpt><trkpt lat="51.7216317" lon="-8.4888817"><ele>8.666666666666668</ele><time>2026-05-05T11:53:45.203Z</time></trkpt><trkpt lat="51.721445" lon="-8.489065"><ele>7.333333333333334</ele><time>2026-05-05T11:53:46.204Z</time></trkpt><trkpt lat="51.72127" lon="-8.489275"><ele>6.0</ele><time>2026-05-05T11:53:47.203Z</time></trkpt><trkpt lat="51.7210733" lon="-8.4895217"><ele>8.0</ele><time>2026-05-05T11:53:48.203Z</time></trkpt><trkpt lat="51.7208883" lon="-8.48977"><ele>10.0</ele><time>2026-05-05T11:53:49.204Z</time></trkpt><trkpt lat="51.7207067" lon="-8.4900217"><ele>10.0</ele><time>2026-05-05T11:53:50.204Z</time></trkpt><trkpt lat="51.7204983" lon="-8.4902633"><ele>10.0</ele><time>2026-05-05T11:53:51.204Z</time></trkpt><trkpt lat="51.7203233" lon="-8.4905067"><ele>9.666666666666668</ele><time>2026-05-05T11:53:52.204Z</time></trkpt><trkpt lat="51.720155" lon="-8.490745"><ele>9.333333333333334</ele><time>2026-05-05T11:53:53.204Z</time></trkpt><trkpt lat="51.7200133" lon="-8.49097"><ele>9.0</ele><time>2026-05-05T11:53:54.204Z</time></trkpt><trkpt lat="51.7198733" lon="-8.4911967"><ele>12.0</ele><time>2026-05-05T11:53:55.203Z</time></trkpt><trkpt lat="51.719735" lon="-8.4914167"><ele>15.0</ele><time>2026-05-05T11:53:56.204Z</time></trkpt><trkpt lat="51.7195783" lon="-8.49164"><ele>18.0</ele><time>2026-05-05T11:53:57.204Z</time></trkpt><trkpt lat="51.71942" lon="-8.4918617"><ele>15.666666666666666</ele><time>2026-05-05T11:53:58.203Z</time></trkpt><trkpt lat="51.7192817" lon="-8.492085"><ele>13.333333333333332</ele><time>2026-05-05T11:53:59.204Z</time></trkpt><trkpt lat="51.7191067" lon="-8.492315"><ele>11.0</ele><time>2026-05-05T11:54:00.203Z</time></trkpt><trkpt lat="51.7189417" lon="-8.4925367"><ele>11.0</ele><time>2026-05-05T11:54:01.204Z</time></trkpt><trkpt lat="51.7187867" lon="-8.492735"><ele>11.0</ele><time>2026-05-05T11:54:02.204Z</time></trkpt><trkpt lat="51.718635" lon="-8.492925"><ele>11.0</ele><time>2026-05-05T11:54:03.204Z</time></trkpt><trkpt lat="51.718495" lon="-8.493125"><ele>8.666666666666666</ele><time>2026-05-05T11:54:04.203Z</time></trkpt><trkpt lat="51.7183717" lon="-8.4933367"><ele>6.333333333333333</ele><time>2026-05-05T11:54:05.204Z</time></trkpt><trkpt lat="51.7182183" lon="-8.493535"><ele>4.0</ele><time>2026-05-05T11:54:06.204Z</time></trkpt><trkpt lat="51.7180583" lon="-8.4936967"><ele>4.0</ele><time>2026-05-05T11:54:07.203Z</time></trkpt><trkpt lat="51.7179133" lon="-8.4938733"><ele>4.0</ele><time>2026-05-05T11:54:08.203Z</time></trkpt><trkpt lat="51.7177267" lon="-8.4940233"><ele>4.0</ele><time>2026-05-05T11:54:09.204Z</time></trkpt><trkpt lat="51.7175217" lon="-8.4941483"><ele>4.0</ele><time>2026-05-05T11:54:10.204Z</time></trkpt><trkpt lat="51.7173133" lon="-8.494225"><ele>4.0</ele><time>2026-05-05T11:54:11.204Z</time></trkpt><trkpt lat="51.7171067" lon="-8.4942683"><ele>4.0</ele><time>2026-05-05T11:54:12.204Z</time></trkpt><trkpt lat="51.7168833" lon="-8.494265"><ele>6.666666666666666</ele><time>2026-05-05T11:54:13.204Z</time></trkpt><trkpt lat="51.716665" lon="-8.4942317"><ele>9.333333333333334</ele><time>2026-05-05T11:54:14.204Z</time></trkpt><trkpt lat="51.7164517" lon="-8.49416"><ele>12.0</ele><time>2026-05-05T11:54:15.203Z</time></trkpt><trkpt lat="51.7162367" lon="-8.4940133"><ele>14.0</ele><time>2026-05-05T11:54:16.204Z</time></trkpt><trkpt lat="51.7160367" lon="-8.4938733"><ele>16.0</ele><time>2026-05-05T11:54:17.204Z</time></trkpt><trkpt lat="51.715835" lon="-8.4936983"><ele>18.0</ele><time>2026-05-05T11:54:18.204Z</time></trkpt><trkpt lat="51.715645" lon="-8.4934733"><ele>18.0</ele><time>2026-05-05T11:54:19.204Z</time></trkpt><trkpt lat="51.7154817" lon="-8.4931783"><ele>18.0</ele><time>2026-05-05T11:54:20.204Z</time></trkpt><trkpt lat="51.7153583" lon="-8.4928633"><ele>21.0</ele><time>2026-05-05T11:54:21.204Z</time></trkpt><trkpt lat="51.71521" lon="-8.492575"><ele>24.0</ele><time>2026-05-05T11:54:22.204Z</time></trkpt><trkpt lat="51.7150633" lon="-8.4923133"><ele>21.666666666666668</ele><time>2026-05-05T11:54:23.204Z</time></trkpt><trkpt lat="51.7149267" lon="-8.4920833"><ele>19.333333333333336</ele><time>2026-05-05T11:54:24.203Z</time></trkpt><trkpt lat="51.714775" lon="-8.4918667"><ele>17.0</ele><time>2026-05-05T11:54:25.203Z</time></trkpt><trkpt lat="51.714625" lon="-8.4916717"><ele>17.0</ele><time>2026-05-05T11:54:26.204Z</time></trkpt><trkpt lat="51.7144767" lon="-8.4915167"><ele>17.0</ele><time>2026-05-05T11:54:27.204Z</time></trkpt><trkpt lat="51.7143167" lon="-8.49142"><ele>17.0</ele><time>2026-05-05T11:54:28.203Z</time></trkpt><trkpt lat="51.7141517" lon="-8.4913683"><ele>21.0</ele><time>2026-05-05T11:54:29.204Z</time></trkpt><trkpt lat="51.7139817" lon="-8.4913767"><ele>25.0</ele><time>2026-05-05T11:54:30.203Z</time></trkpt><trkpt lat="51.7138067" lon="-8.4914217"><ele>29.0</ele><time>2026-05-05T11:54:31.204Z</time></trkpt><trkpt lat="51.71364" lon="-8.4915017"><ele>29.333333333333332</ele><time>2026-05-05T11:54:32.204Z</time></trkpt><trkpt lat="51.71349" lon="-8.4916267"><ele>29.666666666666664</ele><time>2026-05-05T11:54:33.203Z</time></trkpt><trkpt lat="51.7133583" lon="-8.49183"><ele>30.0</ele><time>2026-05-05T11:54:34.204Z</time></trkpt><trkpt lat="51.7132367" lon="-8.4920333"><ele>33.0</ele><time>2026-05-05T11:54:35.203Z</time></trkpt><trkpt lat="51.7131283" lon="-8.4922767"><ele>36.0</ele><time>2026-05-05T11:54:36.203Z</time></trkpt><trkpt lat="51.71305" lon="-8.49252"><ele>39.0</ele><time>2026-05-05T11:54:37.204Z</time></trkpt><trkpt lat="51.71299" lon="-8.4927783"><ele>41.0</ele><time>2026-05-05T11:54:38.204Z</time></trkpt><trkpt lat="51.712945" lon="-8.4930433"><ele>43.0</ele><time>2026-05-05T11:54:39.204Z</time></trkpt><trkpt lat="51.712905" lon="-8.4933117"><ele>45.0</ele><time>2026-05-05T11:54:40.204Z</time></trkpt><trkpt lat="51.7128717" lon="-8.4935933"><ele>46.0</ele><time>2026-05-05T11:54:41.204Z</time></trkpt><trkpt lat="51.7128417" lon="-8.4938783"><ele>47.0</ele><time>2026-05-05T11:54:42.204Z</time></trkpt><trkpt lat="51.7128267" lon="-8.4941717"><ele>48.0</ele><time>2026-05-05T11:54:43.204Z</time></trkpt><trkpt lat="51.71279" lon="-8.4944433"><ele>48.75</ele><time>2026-05-05T11:54:44.203Z</time></trkpt><trkpt lat="51.7127617" lon="-8.4946983"><ele>49.5</ele><time>2026-05-05T11:54:45.204Z</time></trkpt><trkpt lat="51.7127083" lon="-8.4949133"><ele>50.25</ele><time>2026-05-05T11:54:46.204Z</time></trkpt><trkpt lat="51.7126567" lon="-8.49512"><ele>51.0</ele><time>2026-05-05T11:54:47.204Z</time></trkpt><trkpt lat="51.7126417" lon="-8.4952667"><ele>50.5</ele><time>2026-05-05T11:54:48.204Z</time></trkpt><trkpt lat="51.7125817" lon="-8.4954217"><ele>50.0</ele><time>2026-05-05T11:54:49.203Z</time></trkpt><trkpt lat="51.7125333" lon="-8.4955883"><ele>49.5</ele><time>2026-05-05T11:54:50.204Z</time></trkpt><trkpt lat="51.7124817" lon="-8.49579"><ele>49.0</ele><time>2026-05-05T11:54:51.203Z</time></trkpt><trkpt lat="51.71242" lon="-8.49599"><ele>49.0</ele><time>2026-05-05T11:54:52.204Z</time></trkpt><trkpt lat="51.7123467" lon="-8.4961717"><ele>49.0</ele><time>2026-05-05T11:54:53.204Z</time></trkpt><trkpt lat="51.7122433" lon="-8.4963583"><ele>49.0</ele><time>2026-05-05T11:54:54.204Z</time></trkpt><trkpt lat="51.7121483" lon="-8.4965233"><ele>49.0</ele><time>2026-05-05T11:54:55.204Z</time></trkpt><trkpt lat="51.71206" lon="-8.4966833"><ele>49.25</ele><time>2026-05-05T11:54:56.204Z</time></trkpt><trkpt lat="51.7119667" lon="-8.4968367"><ele>49.5</ele><time>2026-05-05T11:54:57.203Z</time></trkpt><trkpt lat="51.7118883" lon="-8.4969883"><ele>49.75</ele><time>2026-05-05T11:54:58.203Z</time></trkpt><trkpt lat="51.7118217" lon="-8.4971317"><ele>50.0</ele><time>2026-05-05T11:54:59.203Z</time></trkpt><trkpt lat="51.711765" lon="-8.4972683"><ele>51.25</ele><time>2026-05-05T11:55:00.203Z</time></trkpt><trkpt lat="51.7116833" lon="-8.4974217"><ele>52.5</ele><time>2026-05-05T11:55:01.204Z</time></trkpt><trkpt lat="51.7115983" lon="-8.4975717"><ele>53.75</ele><time>2026-05-05T11:55:02.204Z</time></trkpt><trkpt lat="51.7115117" lon="-8.4977617"><ele>55.0</ele><time>2026-05-05T11:55:03.203Z</time></trkpt><trkpt lat="51.7114283" lon="-8.4979483"><ele>56.33333333333333</ele><time>2026-05-05T11:55:04.204Z</time></trkpt><trkpt lat="51.7113383" lon="-8.498135"><ele>57.66666666666667</ele><time>2026-05-05T11:55:05.204Z</time></trkpt><trkpt lat="51.711255" lon="-8.49835"><ele>59.0</ele><time>2026-05-05T11:55:06.204Z</time></trkpt><trkpt lat="51.71117" lon="-8.49856"><ele>60.66666666666667</ele><time>2026-05-05T11:55:07.203Z</time></trkpt><trkpt lat="51.7110717" lon="-8.4987583"><ele>62.33333333333333</ele><time>2026-05-05T11:55:08.204Z</time></trkpt><trkpt lat="51.7109717" lon="-8.498975"><ele>64.0</ele><time>2026-05-05T11:55:09.204Z</time></trkpt><trkpt lat="51.7108767" lon="-8.49921"><ele>64.0</ele><time>2026-05-05T11:55:10.204Z</time></trkpt><trkpt lat="51.7107733" lon="-8.4994317"><ele>64.0</ele><time>2026-05-05T11:55:11.204Z</time></trkpt><trkpt lat="51.7106967" lon="-8.4996817"><ele>64.0</ele><time>2026-05-05T11:55:12.203Z</time></trkpt><trkpt lat="51.7106333" lon="-8.4999383"><ele>64.66666666666666</ele><time>2026-05-05T11:55:13.204Z</time></trkpt><trkpt lat="51.71059" lon="-8.5002033"><ele>65.33333333333333</ele><time>2026-05-05T11:55:14.204Z</time></trkpt><trkpt lat="51.7105783" lon="-8.50047"><ele>66.0</ele><time>2026-05-05T11:55:15.204Z</time></trkpt><trkpt lat="51.7105667" lon="-8.5007183"><ele>66.66666666666667</ele><time>2026-05-05T11:55:16.204Z</time></trkpt><trkpt lat="51.71056" lon="-8.5009517"><ele>67.33333333333334</ele><time>2026-05-05T11:55:17.204Z</time></trkpt><trkpt lat="51.7105633" lon="-8.5011933"><ele>68.0</ele><time>2026-05-05T11:55:18.204Z</time></trkpt><trkpt lat="51.7105767" lon="-8.5014467"><ele>68.0</ele><time>2026-05-05T11:55:19.204Z</time></trkpt><trkpt lat="51.7105983" lon="-8.5017083"><ele>68.0</ele><time>2026-05-05T11:55:20.204Z</time></trkpt><trkpt lat="51.71063" lon="-8.5019683"><ele>68.0</ele><time>2026-05-05T11:55:21.203Z</time></trkpt><trkpt lat="51.7106667" lon="-8.502215"><ele>67.75</ele><time>2026-05-05T11:55:22.203Z</time></trkpt><trkpt lat="51.7107117" lon="-8.5024467"><ele>67.5</ele><time>2026-05-05T11:55:23.203Z</time></trkpt><trkpt lat="51.7107517" lon="-8.5026617"><ele>67.25</ele><time>2026-05-05T11:55:24.203Z</time></trkpt><trkpt lat="51.710775" lon="-8.5028517"><ele>67.0</ele><time>2026-05-05T11:55:25.204Z</time></trkpt><trkpt lat="51.7108167" lon="-8.5030217"><ele>66.6</ele><time>2026-05-05T11:55:26.204Z</time></trkpt><trkpt lat="51.7108567" lon="-8.5031867"><ele>66.2</ele><time>2026-05-05T11:55:27.204Z</time></trkpt><trkpt lat="51.710895" lon="-8.5033467"><ele>65.8</ele><time>2026-05-05T11:55:28.204Z</time></trkpt><trkpt lat="51.71093" lon="-8.50351"><ele>65.4</ele><time>2026-05-05T11:55:29.204Z</time></trkpt><trkpt lat="51.71096" lon="-8.503675"><ele>65.0</ele><time>2026-05-05T11:55:30.203Z</time></trkpt><trkpt lat="51.7109667" lon="-8.5038467"><ele>64.0</ele><time>2026-05-05T11:55:31.204Z</time></trkpt><trkpt lat="51.7109667" lon="-8.5040167"><ele>63.0</ele><time>2026-05-05T11:55:32.203Z</time></trkpt><trkpt lat="51.710965" lon="-8.5041917"><ele>62.0</ele><time>2026-05-05T11:55:33.204Z</time></trkpt><trkpt lat="51.71095" lon="-8.5043833"><ele>61.0</ele><time>2026-05-05T11:55:34.204Z</time></trkpt><trkpt lat="51.71092" lon="-8.5045817"><ele>60.5</ele><time>2026-05-05T11:55:35.204Z</time></trkpt><trkpt lat="51.7108917" lon="-8.5047967"><ele>60.0</ele><time>2026-05-05T11:55:36.203Z</time></trkpt><trkpt lat="51.7108517" lon="-8.5050067"><ele>59.5</ele><time>2026-05-05T11:55:37.203Z</time></trkpt><trkpt lat="51.7108083" lon="-8.5052383"><ele>59.0</ele><time>2026-05-05T11:55:38.204Z</time></trkpt><trkpt lat="51.7107433" lon="-8.5054517"><ele>58.66666666666667</ele><time>2026-05-05T11:55:39.204Z</time></trkpt><trkpt lat="51.710655" lon="-8.505665"><ele>58.33333333333333</ele><time>2026-05-05T11:55:40.203Z</time></trkpt><trkpt lat="51.71056" lon="-8.505855"><ele>58.0</ele><time>2026-05-05T11:55:41.203Z</time></trkpt><trkpt lat="51.71043" lon="-8.50604"><ele>58.0</ele><time>2026-05-05T11:55:42.204Z</time></trkpt><trkpt lat="51.7102917" lon="-8.506205"><ele>58.0</ele><time>2026-05-05T11:55:43.204Z</time></trkpt><trkpt lat="51.7101483" lon="-8.50639"><ele>58.0</ele><time>2026-05-05T11:55:44.204Z</time></trkpt><trkpt lat="51.7100033" lon="-8.5065833"><ele>56.666666666666664</ele><time>2026-05-05T11:55:45.203Z</time></trkpt><trkpt lat="51.7098583" lon="-8.5067817"><ele>55.33333333333333</ele><time>2026-05-05T11:55:46.203Z</time></trkpt><trkpt lat="51.7097233" lon="-8.5069933"><ele>54.0</ele><time>2026-05-05T11:55:47.204Z</time></trkpt><trkpt lat="51.7095783" lon="-8.50721"><ele>54.0</ele><time>2026-05-05T11:55:48.204Z</time></trkpt><trkpt lat="51.7094733" lon="-8.5074267"><ele>54.0</ele><time>2026-05-05T11:55:49.204Z</time></trkpt><trkpt lat="51.7093717" lon="-8.5076317"><ele>54.0</ele><time>2026-05-05T11:55:50.204Z</time></trkpt><trkpt lat="51.709285" lon="-8.5078383"><ele>51.333333333333336</ele><time>2026-05-05T11:55:51.204Z</time></trkpt><trkpt lat="51.7091967" lon="-8.5080467"><ele>48.66666666666667</ele><time>2026-05-05T11:55:52.204Z</time></trkpt><trkpt lat="51.7091133" lon="-8.5082567"><ele>46.0</ele><time>2026-05-05T11:55:53.203Z</time></trkpt><trkpt lat="51.709045" lon="-8.5084583"><ele>46.0</ele><time>2026-05-05T11:55:54.203Z</time></trkpt><trkpt lat="51.70898" lon="-8.5086567"><ele>46.0</ele><time>2026-05-05T11:55:55.204Z</time></trkpt><trkpt lat="51.7089133" lon="-8.5088533"><ele>46.0</ele><time>2026-05-05T11:55:56.204Z</time></trkpt><trkpt lat="51.70886" lon="-8.5090533"><ele>46.0</ele><time>2026-05-05T11:55:57.204Z</time></trkpt><trkpt lat="51.70881" lon="-8.5092433"><ele>46.25</ele><time>2026-05-05T11:55:58.204Z</time></trkpt><trkpt lat="51.7087617" lon="-8.5094333"><ele>46.5</ele><time>2026-05-05T11:55:59.204Z</time></trkpt><trkpt lat="51.708705" lon="-8.509645"><ele>46.75</ele><time>2026-05-05T11:56:00.204Z</time></trkpt><trkpt lat="51.7086433" lon="-8.50989"><ele>47.0</ele><time>2026-05-05T11:56:01.203Z</time></trkpt><trkpt lat="51.7085933" lon="-8.51014"><ele>43.666666666666664</ele><time>2026-05-05T11:56:02.204Z</time></trkpt><trkpt lat="51.7085317" lon="-8.5104033"><ele>40.333333333333336</ele><time>2026-05-05T11:56:03.203Z</time></trkpt><trkpt lat="51.7084667" lon="-8.5106567"><ele>37.0</ele><time>2026-05-05T11:56:04.203Z</time></trkpt><trkpt lat="51.7084" lon="-8.5109"><ele>36.333333333333336</ele><time>2026-05-05T11:56:05.204Z</time></trkpt><trkpt lat="51.7083333" lon="-8.5111383"><ele>35.666666666666664</ele><time>2026-05-05T11:56:06.204Z</time></trkpt><trkpt lat="51.708275" lon="-8.5113883"><ele>35.0</ele><time>2026-05-05T11:56:07.204Z</time></trkpt><trkpt lat="51.7082267" lon="-8.51164"><ele>35.0</ele><time>2026-05-05T11:56:08.204Z</time></trkpt><trkpt lat="51.7081833" lon="-8.5118817"><ele>35.0</ele><time>2026-05-05T11:56:09.203Z</time></trkpt><trkpt lat="51.7081433" lon="-8.5121333"><ele>35.0</ele><time>2026-05-05T11:56:10.204Z</time></trkpt><trkpt lat="51.7081017" lon="-8.5123817"><ele>35.0</ele><time>2026-05-05T11:56:11.203Z</time></trkpt><trkpt lat="51.7080533" lon="-8.512615"><ele>35.0</ele><time>2026-05-05T11:56:12.203Z</time></trkpt><trkpt lat="51.7080183" lon="-8.5128517"><ele>35.0</ele><time>2026-05-05T11:56:13.204Z</time></trkpt><trkpt lat="51.7080083" lon="-8.5130667"><ele>35.0</ele><time>2026-05-05T11:56:14.203Z</time></trkpt><trkpt lat="51.708" lon="-8.5132767"><ele>35.0</ele><time>2026-05-05T11:56:15.204Z</time></trkpt><trkpt lat="51.7079933" lon="-8.51346"><ele>35.0</ele><time>2026-05-05T11:56:16.203Z</time></trkpt><trkpt lat="51.708015" lon="-8.5136483"><ele>35.0</ele><time>2026-05-05T11:56:17.204Z</time></trkpt><trkpt lat="51.708" lon="-8.5138567"><ele>35.0</ele><time>2026-05-05T11:56:18.203Z</time></trkpt><trkpt lat="51.7079533" lon="-8.5140067"><ele>34.6</ele><time>2026-05-05T11:56:19.204Z</time></trkpt><trkpt lat="51.7079133" lon="-8.5141217"><ele>34.2</ele><time>2026-05-05T11:56:20.204Z</time></trkpt><trkpt lat="51.707875" lon="-8.51428"><ele>33.8</ele><time>2026-05-05T11:56:22.204Z</time></trkpt><trkpt lat="51.70782" lon="-8.51445"><ele>33.4</ele><time>2026-05-05T11:56:24.203Z</time></trkpt><trkpt lat="51.7077833" lon="-8.51456"><ele>33.0</ele><time>2026-05-05T11:56:25.203Z</time></trkpt><trkpt lat="51.7077417" lon="-8.5146667"><ele>31.4</ele><time>2026-05-05T11:56:26.204Z</time></trkpt><trkpt lat="51.7077083" lon="-8.5147883"><ele>29.799999999999997</ele><time>2026-05-05T11:56:27.203Z</time></trkpt><trkpt lat="51.7076617" lon="-8.514915"><ele>28.2</ele><time>2026-05-05T11:56:28.204Z</time></trkpt><trkpt lat="51.7076133" lon="-8.5150467"><ele>26.6</ele><time>2026-05-05T11:56:29.204Z</time></trkpt><trkpt lat="51.7075633" lon="-8.5151717"><ele>25.0</ele><time>2026-05-05T11:56:30.203Z</time></trkpt><trkpt lat="51.7075133" lon="-8.5153083"><ele>25.2</ele><time>2026-05-05T11:56:31.203Z</time></trkpt><trkpt lat="51.7074583" lon="-8.5154333"><ele>25.4</ele><time>2026-05-05T11:56:32.204Z</time></trkpt><trkpt lat="51.7074083" lon="-8.5155633"><ele>25.6</ele><time>2026-05-05T11:56:33.204Z</time></trkpt><trkpt lat="51.707345" lon="-8.515675"><ele>25.8</ele><time>2026-05-05T11:56:34.203Z</time></trkpt><trkpt lat="51.707295" lon="-8.5157933"><ele>26.0</ele><time>2026-05-05T11:56:35.204Z</time></trkpt><trkpt lat="51.70724" lon="-8.515905"><ele>26.0</ele><time>2026-05-05T11:56:36.204Z</time></trkpt><trkpt lat="51.7071967" lon="-8.5160133"><ele>26.0</ele><time>2026-05-05T11:56:37.204Z</time></trkpt><trkpt lat="51.707125" lon="-8.5161367"><ele>26.0</ele><time>2026-05-05T11:56:38.204Z</time></trkpt><trkpt lat="51.7070633" lon="-8.516255"><ele>26.0</ele><time>2026-05-05T11:56:39.203Z</time></trkpt><trkpt lat="51.7070067" lon="-8.51637"><ele>26.0</ele><time>2026-05-05T11:56:40.204Z</time></trkpt><trkpt lat="51.7069483" lon="-8.5164767"><ele>25.333333333333332</ele><time>2026-05-05T11:56:41.204Z</time></trkpt><trkpt lat="51.7068933" lon="-8.5165817"><ele>24.666666666666664</ele><time>2026-05-05T11:56:42.204Z</time></trkpt><trkpt lat="51.706865" lon="-8.516705"><ele>24.0</ele><time>2026-05-05T11:56:43.204Z</time></trkpt><trkpt lat="51.7068333" lon="-8.5168183"><ele>23.333333333333332</ele><time>2026-05-05T11:56:44.204Z</time></trkpt><trkpt lat="51.70679" lon="-8.5169"><ele>22.666666666666664</ele><time>2026-05-05T11:56:45.204Z</time></trkpt><trkpt lat="51.70673" lon="-8.5169967"><ele>22.0</ele><time>2026-05-05T11:56:46.204Z</time></trkpt><trkpt lat="51.70668" lon="-8.51709"><ele>22.0</ele><time>2026-05-05T11:56:47.203Z</time></trkpt><trkpt lat="51.7066233" lon="-8.5171967"><ele>22.0</ele><time>2026-05-05T11:56:48.204Z</time></trkpt><trkpt lat="51.7065383" lon="-8.517315"><ele>22.0</ele><time>2026-05-05T11:56:49.203Z</time></trkpt><trkpt lat="51.7064367" lon="-8.517435"><ele>22.0</ele><time>2026-05-05T11:56:50.204Z</time></trkpt><trkpt lat="51.706335" lon="-8.5176067"><ele>22.0</ele><time>2026-05-05T11:56:51.203Z</time></trkpt><trkpt lat="51.706245" lon="-8.5177717"><ele>22.0</ele><time>2026-05-05T11:56:52.204Z</time></trkpt><trkpt lat="51.706165" lon="-8.5179383"><ele>22.0</ele><time>2026-05-05T11:56:53.203Z</time></trkpt><trkpt lat="51.7060833" lon="-8.5181083"><ele>22.0</ele><time>2026-05-05T11:56:54.204Z</time></trkpt><trkpt lat="51.7060017" lon="-8.5183"><ele>19.75</ele><time>2026-05-05T11:56:55.204Z</time></trkpt><trkpt lat="51.7059267" lon="-8.5184867"><ele>17.5</ele><time>2026-05-05T11:56:56.204Z</time></trkpt><trkpt lat="51.7058717" lon="-8.5186867"><ele>15.25</ele><time>2026-05-05T11:56:57.204Z</time></trkpt><trkpt lat="51.7058217" lon="-8.5189083"><ele>13.0</ele><time>2026-05-05T11:56:58.204Z</time></trkpt><trkpt lat="51.7057917" lon="-8.51914"><ele>13.0</ele><time>2026-05-05T11:56:59.203Z</time></trkpt><trkpt lat="51.705755" lon="-8.5193667"><ele>13.0</ele><time>2026-05-05T11:57:00.203Z</time></trkpt><trkpt lat="51.7057217" lon="-8.519575"><ele>13.0</ele><time>2026-05-05T11:57:01.204Z</time></trkpt><trkpt lat="51.7056833" lon="-8.5197483"><ele>13.0</ele><time>2026-05-05T11:57:02.203Z</time></trkpt><trkpt lat="51.7056583" lon="-8.51991"><ele>12.999999999999998</ele><time>2026-05-05T11:57:03.204Z</time></trkpt><trkpt lat="51.705635" lon="-8.5200617"><ele>13.0</ele><time>2026-05-05T11:57:04.203Z</time></trkpt><trkpt lat="51.7056217" lon="-8.52021"><ele>13.0</ele><time>2026-05-05T11:57:05.204Z</time></trkpt><trkpt lat="51.7056133" lon="-8.520355"><ele>13.0</ele><time>2026-05-05T11:57:06.204Z</time></trkpt><trkpt lat="51.705615" lon="-8.5204917"><ele>12.999999999999998</ele><time>2026-05-05T11:57:07.204Z</time></trkpt><trkpt lat="51.7056117" lon="-8.5206283"><ele>13.0</ele><time>2026-05-05T11:57:08.204Z</time></trkpt><trkpt lat="51.7056217" lon="-8.520765"><ele>12.833333333333332</ele><time>2026-05-05T11:57:09.204Z</time></trkpt><trkpt lat="51.7056383" lon="-8.5209133"><ele>12.666666666666666</ele><time>2026-05-05T11:57:10.204Z</time></trkpt><trkpt lat="51.7056633" lon="-8.5210617"><ele>12.5</ele><time>2026-05-05T11:57:11.203Z</time></trkpt><trkpt lat="51.7056983" lon="-8.5212017"><ele>12.333333333333332</ele><time>2026-05-05T11:57:12.204Z</time></trkpt><trkpt lat="51.7057233" lon="-8.52132"><ele>12.166666666666666</ele><time>2026-05-05T11:57:13.203Z</time></trkpt><trkpt lat="51.705755" lon="-8.5214233"><ele>12.0</ele><time>2026-05-05T11:57:14.204Z</time></trkpt><trkpt lat="51.7057883" lon="-8.5216217"><ele>11.8</ele><time>2026-05-05T11:57:16.204Z</time></trkpt><trkpt lat="51.7058333" lon="-8.521805"><ele>11.6</ele><time>2026-05-05T11:57:18.203Z</time></trkpt><trkpt lat="51.7058767" lon="-8.5219467"><ele>11.4</ele><time>2026-05-05T11:57:20.203Z</time></trkpt><trkpt lat="51.70589" lon="-8.52207"><ele>11.200000000000001</ele><time>2026-05-05T11:57:22.204Z</time></trkpt><trkpt lat="51.7058183" lon="-8.5222"><ele>11.0</ele><time>2026-05-05T11:57:24.204Z</time></trkpt><trkpt lat="51.70575" lon="-8.5222533"><ele>10.25</ele><time>2026-05-05T11:57:25.203Z</time></trkpt><trkpt lat="51.7056317" lon="-8.5223367"><ele>9.5</ele><time>2026-05-05T11:57:27.204Z</time></trkpt><trkpt lat="51.7055233" lon="-8.522425"><ele>8.75</ele><time>2026-05-05T11:57:29.203Z</time></trkpt><trkpt lat="51.7054083" lon="-8.5224733"><ele>8.0</ele><time>2026-05-05T11:57:31.204Z</time></trkpt><trkpt lat="51.7053183" lon="-8.5224717"><ele>7.999999999999999</ele><time>2026-05-05T11:57:33.204Z</time></trkpt><trkpt lat="51.70527" lon="-8.5223733"><ele>8.0</ele><time>2026-05-05T11:57:36.203Z</time></trkpt><trkpt lat="51.70522" lon="-8.5222533"><ele>8.0</ele><time>2026-05-05T11:57:38.204Z</time></trkpt><trkpt lat="51.7051733" lon="-8.5221633"><ele>8.0</ele><time>2026-05-05T11:57:39.204Z</time></trkpt><trkpt lat="51.70513" lon="-8.5220533"><ele>7.999999999999999</ele><time>2026-05-05T11:57:40.204Z</time></trkpt><trkpt lat="51.7050817" lon="-8.5219583"><ele>8.0</ele><time>2026-05-05T11:57:41.204Z</time></trkpt><trkpt lat="51.7050233" lon="-8.5218417"><ele>8.0</ele><time>2026-05-05T11:57:42.204Z</time></trkpt><trkpt lat="51.70496" lon="-8.5217167"><ele>8.0</ele><time>2026-05-05T11:57:43.204Z</time></trkpt><trkpt lat="51.70489" lon="-8.5215867"><ele>8.0</ele><time>2026-05-05T11:57:44.204Z</time></trkpt><trkpt lat="51.704815" lon="-8.5214583"><ele>8.0</ele><time>2026-05-05T11:57:45.203Z</time></trkpt><trkpt lat="51.70474" lon="-8.521335"><ele>8.0</ele><time>2026-05-05T11:57:46.204Z</time></trkpt><trkpt lat="51.7046617" lon="-8.52122"><ele>8.0</ele><time>2026-05-05T11:57:47.203Z</time></trkpt><trkpt lat="51.7045817" lon="-8.5211"><ele>8.0</ele><time>2026-05-05T11:57:48.204Z</time></trkpt><trkpt lat="51.7045" lon="-8.5209733"><ele>8.0</ele><time>2026-05-05T11:57:49.203Z</time></trkpt><trkpt lat="51.704405" lon="-8.5208467"><ele>8.0</ele><time>2026-05-05T11:57:50.203Z</time></trkpt><trkpt lat="51.7043233" lon="-8.5207233"><ele>8.25</ele><time>2026-05-05T11:57:51.204Z</time></trkpt><trkpt lat="51.7042367" lon="-8.5206"><ele>8.5</ele><time>2026-05-05T11:57:52.203Z</time></trkpt><trkpt lat="51.70415" lon="-8.5204867"><ele>8.75</ele><time>2026-05-05T11:57:53.204Z</time></trkpt><trkpt lat="51.7040533" lon="-8.5203783"><ele>9.0</ele><time>2026-05-05T11:57:54.203Z</time></trkpt><trkpt lat="51.7039383" lon="-8.5202833"><ele>9.0</ele><time>2026-05-05T11:57:55.203Z</time></trkpt><trkpt lat="51.703835" lon="-8.5201833"><ele>9.0</ele><time>2026-05-05T11:57:56.204Z</time></trkpt><trkpt lat="51.7037283" lon="-8.52009"><ele>9.0</ele><time>2026-05-05T11:57:57.203Z</time></trkpt><trkpt lat="51.7036217" lon="-8.5199967"><ele>9.0</ele><time>2026-05-05T11:57:58.203Z</time></trkpt><trkpt lat="51.7035167" lon="-8.5199"><ele>8.8</ele><time>2026-05-05T11:57:59.204Z</time></trkpt><trkpt lat="51.703415" lon="-8.5198083"><ele>8.600000000000001</ele><time>2026-05-05T11:58:00.204Z</time></trkpt><trkpt lat="51.7033233" lon="-8.5197317"><ele>8.4</ele><time>2026-05-05T11:58:01.203Z</time></trkpt><trkpt lat="51.7032317" lon="-8.51966"><ele>8.200000000000001</ele><time>2026-05-05T11:58:02.204Z</time></trkpt><trkpt lat="51.703135" lon="-8.519585"><ele>8.0</ele><time>2026-05-05T11:58:03.203Z</time></trkpt><trkpt lat="51.7030367" lon="-8.5195033"><ele>7.800000000000001</ele><time>2026-05-05T11:58:04.204Z</time></trkpt><trkpt lat="51.7029383" lon="-8.5194217"><ele>7.6000000000000005</ele><time>2026-05-05T11:58:05.204Z</time></trkpt><trkpt lat="51.702835" lon="-8.5193433"><ele>7.3999999999999995</ele><time>2026-05-05T11:58:06.203Z</time></trkpt><trkpt lat="51.7027383" lon="-8.5192767"><ele>7.199999999999999</ele><time>2026-05-05T11:58:07.203Z</time></trkpt><trkpt lat="51.7026467" lon="-8.5192117"><ele>7.0</ele><time>2026-05-05T11:58:08.203Z</time></trkpt><trkpt lat="51.70255" lon="-8.519145"><ele>6.8</ele><time>2026-05-05T11:58:09.204Z</time></trkpt><trkpt lat="51.7024517" lon="-8.5190767"><ele>6.6</ele><time>2026-05-05T11:58:10.203Z</time></trkpt><trkpt lat="51.7023517" lon="-8.519005"><ele>6.3999999999999995</ele><time>2026-05-05T11:58:11.204Z</time></trkpt><trkpt lat="51.7022583" lon="-8.518945"><ele>6.199999999999999</ele><time>2026-05-05T11:58:12.204Z</time></trkpt><trkpt lat="51.702165" lon="-8.5188817"><ele>6.0</ele><time>2026-05-05T11:58:13.203Z</time></trkpt><trkpt lat="51.7020717" lon="-8.5188217"><ele>6.0</ele><time>2026-05-05T11:58:14.204Z</time></trkpt><trkpt lat="51.7019817" lon="-8.5187617"><ele>6.0</ele><time>2026-05-05T11:58:15.203Z</time></trkpt><trkpt lat="51.7018867" lon="-8.5186933"><ele>6.0</ele><time>2026-05-05T11:58:16.204Z</time></trkpt><trkpt lat="51.70181" lon="-8.5186567"><ele>6.0</ele><time>2026-05-05T11:58:17.204Z</time></trkpt><trkpt lat="51.7017183" lon="-8.5185917"><ele>6.0</ele><time>2026-05-05T11:58:18.203Z</time></trkpt><trkpt lat="51.701635" lon="-8.5185183"><ele>6.0</ele><time>2026-05-05T11:58:19.204Z</time></trkpt><trkpt lat="51.70156" lon="-8.5184733"><ele>6.0</ele><time>2026-05-05T11:58:20.204Z</time></trkpt><trkpt lat="51.7014883" lon="-8.5184233"><ele>6.0</ele><time>2026-05-05T11:58:21.204Z</time></trkpt><trkpt lat="51.7014117" lon="-8.5183717"><ele>6.0</ele><time>2026-05-05T11:58:22.203Z</time></trkpt><trkpt lat="51.7013383" lon="-8.5183283"><ele>6.0</ele><time>2026-05-05T11:58:23.203Z</time></trkpt><trkpt lat="51.7012683" lon="-8.5183117"><ele>6.0</ele><time>2026-05-05T11:58:24.204Z</time></trkpt><trkpt lat="51.7012" lon="-8.5183167"><ele>6.0</ele><time>2026-05-05T11:58:25.204Z</time></trkpt><trkpt lat="51.7011" lon="-8.518445"><ele>6.0</ele><time>2026-05-05T11:58:27.203Z</time></trkpt><trkpt lat="51.7010383" lon="-8.5185367"><ele>6.0</ele><time>2026-05-05T11:58:28.204Z</time></trkpt><trkpt lat="51.7009967" lon="-8.5186567"><ele>6.0</ele><time>2026-05-05T11:58:29.204Z</time></trkpt><trkpt lat="51.7009583" lon="-8.5187683"><ele>6.0</ele><time>2026-05-05T11:58:30.204Z</time></trkpt><trkpt lat="51.7009083" lon="-8.5188517"><ele>6.0</ele><time>2026-05-05T11:58:31.203Z</time></trkpt><trkpt lat="51.70082" lon="-8.5189167"><ele>7.0</ele><time>2026-05-05T11:58:33.203Z</time></trkpt><trkpt lat="51.7007433" lon="-8.5188633"><ele>8.0</ele><time>2026-05-05T11:58:35.204Z</time></trkpt><trkpt lat="51.7005883" lon="-8.518705"><ele>9.0</ele><time>2026-05-05T11:58:37.204Z</time></trkpt><trkpt lat="51.7004817" lon="-8.518595"><ele>10.0</ele><time>2026-05-05T11:58:38.204Z</time></trkpt><trkpt lat="51.7003867" lon="-8.5184717"><ele>10.0</ele><time>2026-05-05T11:58:39.204Z</time></trkpt><trkpt lat="51.700275" lon="-8.5183467"><ele>10.0</ele><time>2026-05-05T11:58:40.204Z</time></trkpt><trkpt lat="51.7001867" lon="-8.5182467"><ele>10.0</ele><time>2026-05-05T11:58:41.204Z</time></trkpt><trkpt lat="51.7001133" lon="-8.5181617"><ele>10.0</ele><time>2026-05-05T11:58:42.204Z</time></trkpt><trkpt lat="51.7000483" lon="-8.5180933"><ele>10.0</ele><time>2026-05-05T11:58:43.204Z</time></trkpt><trkpt lat="51.699975" lon="-8.5180067"><ele>10.2</ele><time>2026-05-05T11:58:45.203Z</time></trkpt><trkpt lat="51.6999083" lon="-8.5179133"><ele>10.4</ele><time>2026-05-05T12:00:11.204Z</time></trkpt><trkpt lat="51.6997967" lon="-8.5179"><ele>10.600000000000001</ele><time>2026-05-05T12:00:13.204Z</time></trkpt><trkpt lat="51.69971" lon="-8.51791"><ele>10.8</ele><time>2026-05-05T12:00:14.203Z</time></trkpt><trkpt lat="51.699615" lon="-8.517925"><ele>11.0</ele><time>2026-05-05T12:00:15.204Z</time></trkpt><trkpt lat="51.699525" lon="-8.51794"><ele>11.333333333333332</ele><time>2026-05-05T12:00:16.204Z</time></trkpt><trkpt lat="51.6994317" lon="-8.51796"><ele>11.666666666666666</ele><time>2026-05-05T12:00:17.204Z</time></trkpt><trkpt lat="51.699335" lon="-8.5179817"><ele>12.0</ele><time>2026-05-05T12:00:18.204Z</time></trkpt><trkpt lat="51.6992417" lon="-8.5180017"><ele>12.333333333333332</ele><time>2026-05-05T12:00:19.203Z</time></trkpt><trkpt lat="51.6991667" lon="-8.5180283"><ele>12.666666666666666</ele><time>2026-05-05T12:00:20.204Z</time></trkpt><trkpt lat="51.6991" lon="-8.5180667"><ele>13.0</ele><time>2026-05-05T12:00:21.203Z</time></trkpt><trkpt lat="51.6990317" lon="-8.51811"><ele>12.999999999999998</ele><time>2026-05-05T12:00:22.203Z</time></trkpt><trkpt lat="51.6989617" lon="-8.51816"><ele>13.0</ele><time>2026-05-05T12:00:23.203Z</time></trkpt><trkpt lat="51.6988917" lon="-8.51823"><ele>13.0</ele><time>2026-05-05T12:00:24.203Z</time></trkpt><trkpt lat="51.69882" lon="-8.5183183"><ele>13.0</ele><time>2026-05-05T12:00:25.203Z</time></trkpt><trkpt lat="51.698745" lon="-8.5184167"><ele>12.999999999999998</ele><time>2026-05-05T12:00:26.203Z</time></trkpt><trkpt lat="51.6986617" lon="-8.5185117"><ele>13.0</ele><time>2026-05-05T12:00:27.204Z</time></trkpt><trkpt lat="51.698575" lon="-8.51862"><ele>13.25</ele><time>2026-05-05T12:00:28.204Z</time></trkpt><trkpt lat="51.6984833" lon="-8.51874"><ele>13.5</ele><time>2026-05-05T12:00:29.204Z</time></trkpt><trkpt lat="51.6983917" lon="-8.5188667"><ele>13.75</ele><time>2026-05-05T12:00:30.204Z</time></trkpt><trkpt lat="51.6983067" lon="-8.5189983"><ele>14.0</ele><time>2026-05-05T12:00:31.203Z</time></trkpt><trkpt lat="51.6982283" lon="-8.5191283"><ele>14.0</ele><time>2026-05-05T12:00:32.204Z</time></trkpt><trkpt lat="51.6981517" lon="-8.5192583"><ele>13.999999999999998</ele><time>2026-05-05T12:00:33.204Z</time></trkpt><trkpt lat="51.6980717" lon="-8.519385"><ele>13.999999999999998</ele><time>2026-05-05T12:00:34.204Z</time></trkpt><trkpt lat="51.69799" lon="-8.5195117"><ele>14.0</ele><time>2026-05-05T12:00:35.204Z</time></trkpt><trkpt lat="51.6979133" lon="-8.5196367"><ele>14.0</ele><time>2026-05-05T12:00:36.203Z</time></trkpt><trkpt lat="51.697835" lon="-8.5197583"><ele>12.25</ele><time>2026-05-05T12:00:37.204Z</time></trkpt><trkpt lat="51.6977483" lon="-8.51989"><ele>10.5</ele><time>2026-05-05T12:00:38.204Z</time></trkpt><trkpt lat="51.697655" lon="-8.5200283"><ele>8.75</ele><time>2026-05-05T12:00:39.203Z</time></trkpt><trkpt lat="51.6975433" lon="-8.5201633"><ele>7.0</ele><time>2026-05-05T12:00:40.204Z</time></trkpt><trkpt lat="51.6974383" lon="-8.520325"><ele>9.75</ele><time>2026-05-05T12:00:41.204Z</time></trkpt><trkpt lat="51.6973517" lon="-8.5205033"><ele>12.5</ele><time>2026-05-05T12:00:42.203Z</time></trkpt><trkpt lat="51.6972883" lon="-8.5206933"><ele>15.25</ele><time>2026-05-05T12:00:43.203Z</time></trkpt><trkpt lat="51.6972367" lon="-8.5209067"><ele>18.0</ele><time>2026-05-05T12:00:44.204Z</time></trkpt><trkpt lat="51.69717" lon="-8.5210983"><ele>20.25</ele><time>2026-05-05T12:00:45.204Z</time></trkpt><trkpt lat="51.6971083" lon="-8.5212867"><ele>22.5</ele><time>2026-05-05T12:00:46.204Z</time></trkpt><trkpt lat="51.6970467" lon="-8.5214683"><ele>24.75</ele><time>2026-05-05T12:00:47.204Z</time></trkpt><trkpt lat="51.6969817" lon="-8.521645"><ele>27.0</ele><time>2026-05-05T12:00:48.203Z</time></trkpt><trkpt lat="51.69695" lon="-8.5218483"><ele>22.75</ele><time>2026-05-05T12:00:49.203Z</time></trkpt><trkpt lat="51.6969133" lon="-8.522055"><ele>18.5</ele><time>2026-05-05T12:00:50.204Z</time></trkpt><trkpt lat="51.696905" lon="-8.5222867"><ele>14.25</ele><time>2026-05-05T12:00:51.203Z</time></trkpt><trkpt lat="51.69688" lon="-8.5225167"><ele>10.0</ele><time>2026-05-05T12:00:52.203Z</time></trkpt><trkpt lat="51.6968367" lon="-8.52274"><ele>12.666666666666668</ele><time>2026-05-05T12:00:53.204Z</time></trkpt><trkpt lat="51.6967817" lon="-8.5229733"><ele>15.333333333333334</ele><time>2026-05-05T12:00:54.203Z</time></trkpt><trkpt lat="51.6967233" lon="-8.523195"><ele>18.0</ele><time>2026-05-05T12:00:55.204Z</time></trkpt><trkpt lat="51.6966617" lon="-8.52341"><ele>18.0</ele><time>2026-05-05T12:00:56.203Z</time></trkpt><trkpt lat="51.6966117" lon="-8.5236167"><ele>18.0</ele><time>2026-05-05T12:00:57.204Z</time></trkpt><trkpt lat="51.69656" lon="-8.52382"><ele>18.0</ele><time>2026-05-05T12:00:58.203Z</time></trkpt><trkpt lat="51.6964967" lon="-8.5240133"><ele>18.0</ele><time>2026-05-05T12:00:59.203Z</time></trkpt><trkpt lat="51.6964183" lon="-8.5241983"><ele>20.333333333333336</ele><time>2026-05-05T12:01:00.203Z</time></trkpt><trkpt lat="51.696335" lon="-8.5243917"><ele>22.666666666666668</ele><time>2026-05-05T12:01:01.204Z</time></trkpt><trkpt lat="51.6962167" lon="-8.52458"><ele>25.0</ele><time>2026-05-05T12:01:02.204Z</time></trkpt><trkpt lat="51.6961467" lon="-8.5247983"><ele>22.75</ele><time>2026-05-05T12:01:03.204Z</time></trkpt><trkpt lat="51.6960833" lon="-8.5250067"><ele>20.5</ele><time>2026-05-05T12:01:04.204Z</time></trkpt><trkpt lat="51.6960433" lon="-8.5252383"><ele>18.25</ele><time>2026-05-05T12:01:05.204Z</time></trkpt><trkpt lat="51.696" lon="-8.52547"><ele>16.0</ele><time>2026-05-05T12:01:06.203Z</time></trkpt><trkpt lat="51.6959433" lon="-8.5256917"><ele>16.0</ele><time>2026-05-05T12:01:07.203Z</time></trkpt><trkpt lat="51.6958817" lon="-8.5258983"><ele>16.0</ele><time>2026-05-05T12:01:08.204Z</time></trkpt><trkpt lat="51.695825" lon="-8.52608"><ele>16.0</ele><time>2026-05-05T12:01:09.204Z</time></trkpt><trkpt lat="51.6957883" lon="-8.5262667"><ele>16.0</ele><time>2026-05-05T12:01:10.204Z</time></trkpt><trkpt lat="51.6957317" lon="-8.526425"><ele>17.25</ele><time>2026-05-05T12:01:11.204Z</time></trkpt><trkpt lat="51.6956717" lon="-8.5265767"><ele>18.5</ele><time>2026-05-05T12:01:12.204Z</time></trkpt><trkpt lat="51.6956" lon="-8.5267317"><ele>19.75</ele><time>2026-05-05T12:01:13.203Z</time></trkpt><trkpt lat="51.69548" lon="-8.5268633"><ele>21.0</ele><time>2026-05-05T12:01:14.204Z</time></trkpt><trkpt lat="51.6953767" lon="-8.52702"><ele>22.5</ele><time>2026-05-05T12:01:15.203Z</time></trkpt><trkpt lat="51.695275" lon="-8.527165"><ele>24.0</ele><time>2026-05-05T12:01:16.204Z</time></trkpt><trkpt lat="51.6951333" lon="-8.5272783"><ele>25.5</ele><time>2026-05-05T12:01:17.203Z</time></trkpt><trkpt lat="51.6950217" lon="-8.5274017"><ele>27.0</ele><time>2026-05-05T12:01:18.204Z</time></trkpt><trkpt lat="51.6949033" lon="-8.5275"><ele>24.5</ele><time>2026-05-05T12:01:19.203Z</time></trkpt><trkpt lat="51.6948133" lon="-8.5275967"><ele>22.0</ele><time>2026-05-05T12:01:20.204Z</time></trkpt><trkpt lat="51.6947483" lon="-8.5276467"><ele>19.5</ele><time>2026-05-05T12:01:21.204Z</time></trkpt><trkpt lat="51.694675" lon="-8.527685"><ele>17.0</ele><time>2026-05-05T12:01:22.203Z</time></trkpt><trkpt lat="51.6945917" lon="-8.5276967"><ele>14.5</ele><time>2026-05-05T12:01:23.204Z</time></trkpt><trkpt lat="51.6945017" lon="-8.5276917"><ele>12.0</ele><time>2026-05-05T12:01:24.203Z</time></trkpt><trkpt lat="51.6944017" lon="-8.5276283"><ele>10.0</ele><time>2026-05-05T12:01:25.204Z</time></trkpt><trkpt lat="51.6942983" lon="-8.5275467"><ele>8.0</ele><time>2026-05-05T12:01:26.204Z</time></trkpt><trkpt lat="51.6941833" lon="-8.5273917"><ele>6.0</ele><time>2026-05-05T12:01:27.203Z</time></trkpt><trkpt lat="51.694085" lon="-8.5272317"><ele>4.0</ele><time>2026-05-05T12:01:28.203Z</time></trkpt><trkpt lat="51.6939967" lon="-8.52708"><ele>3.25</ele><time>2026-05-05T12:01:29.203Z</time></trkpt><trkpt lat="51.693905" lon="-8.5269283"><ele>2.5</ele><time>2026-05-05T12:01:30.204Z</time></trkpt><trkpt lat="51.69381" lon="-8.5267717"><ele>1.75</ele><time>2026-05-05T12:01:31.204Z</time></trkpt><trkpt lat="51.6937183" lon="-8.52661"><ele>1.0</ele><time>2026-05-05T12:01:32.204Z</time></trkpt><trkpt lat="51.6936267" lon="-8.52645"><ele>0.6666666666666666</ele><time>2026-05-05T12:01:33.203Z</time></trkpt><trkpt lat="51.69353" lon="-8.5262833"><ele>0.3333333333333333</ele><time>2026-05-05T12:01:34.204Z</time></trkpt><trkpt lat="51.6934183" lon="-8.5260967"><ele>0.0</ele><time>2026-05-05T12:01:35.204Z</time></trkpt><trkpt lat="51.6933067" lon="-8.5259117"><ele>0.0</ele><time>2026-05-05T12:01:36.203Z</time></trkpt><trkpt lat="51.6932" lon="-8.5257333"><ele>0.0</ele><time>2026-05-05T12:01:37.204Z</time></trkpt><trkpt lat="51.6931017" lon="-8.5255717"><ele>0.0</ele><time>2026-05-05T12:01:38.204Z</time></trkpt><trkpt lat="51.6929967" lon="-8.5254067"><ele>0.0</ele><time>2026-05-05T12:01:39.204Z</time></trkpt><trkpt lat="51.69289" lon="-8.5252367"><ele>0.0</ele><time>2026-05-05T12:01:40.203Z</time></trkpt><trkpt lat="51.6927817" lon="-8.5250717"><ele>0.0</ele><time>2026-05-05T12:01:41.203Z</time></trkpt><trkpt lat="51.6926733" lon="-8.5249067"><ele>0.0</ele><time>2026-05-05T12:01:42.203Z</time></trkpt><trkpt lat="51.6925833" lon="-8.5247633"><ele>0.0</ele><time>2026-05-05T12:01:43.204Z</time></trkpt><trkpt lat="51.6924983" lon="-8.524645"><ele>0.5714285714285714</ele><time>2026-05-05T12:01:44.204Z</time></trkpt><trkpt lat="51.6924283" lon="-8.5245667"><ele>1.1428571428571428</ele><time>2026-05-05T12:01:45.204Z</time></trkpt><trkpt lat="51.6923617" lon="-8.5245133"><ele>1.7142857142857142</ele><time>2026-05-05T12:01:46.204Z</time></trkpt><trkpt lat="51.6922983" lon="-8.5244867"><ele>2.2857142857142856</ele><time>2026-05-05T12:01:47.203Z</time></trkpt><trkpt lat="51.6922317" lon="-8.5244867"><ele>2.8571428571428568</ele><time>2026-05-05T12:01:48.204Z</time></trkpt><trkpt lat="51.6921633" lon="-8.5244983"><ele>3.4285714285714284</ele><time>2026-05-05T12:01:49.204Z</time></trkpt><trkpt lat="51.692085" lon="-8.5245317"><ele>4.0</ele><time>2026-05-05T12:01:50.203Z</time></trkpt><trkpt lat="51.691985" lon="-8.52464"><ele>9.0</ele><time>2026-05-05T12:01:51.204Z</time></trkpt><trkpt lat="51.69185" lon="-8.5248167"><ele>14.0</ele><time>2026-05-05T12:01:52.204Z</time></trkpt><trkpt lat="51.6917067" lon="-8.5249983"><ele>19.0</ele><time>2026-05-05T12:01:53.204Z</time></trkpt><trkpt lat="51.6915733" lon="-8.5251533"><ele>19.0</ele><time>2026-05-05T12:01:54.204Z</time></trkpt><trkpt lat="51.69145" lon="-8.5253133"><ele>19.0</ele><time>2026-05-05T12:01:55.204Z</time></trkpt><trkpt lat="51.6913217" lon="-8.5254417"><ele>19.0</ele><time>2026-05-05T12:01:56.204Z</time></trkpt><trkpt lat="51.69121" lon="-8.5256"><ele>18.25</ele><time>2026-05-05T12:01:57.204Z</time></trkpt><trkpt lat="51.6911067" lon="-8.525765"><ele>17.5</ele><time>2026-05-05T12:01:58.204Z</time></trkpt><trkpt lat="51.6910183" lon="-8.5259583"><ele>16.75</ele><time>2026-05-05T12:01:59.203Z</time></trkpt><trkpt lat="51.6909417" lon="-8.52616"><ele>16.0</ele><time>2026-05-05T12:02:00.203Z</time></trkpt><trkpt lat="51.6909" lon="-8.5263883"><ele>16.0</ele><time>2026-05-05T12:02:01.203Z</time></trkpt><trkpt lat="51.6908567" lon="-8.5266083"><ele>16.0</ele><time>2026-05-05T12:02:02.203Z</time></trkpt><trkpt lat="51.6907917" lon="-8.5268367"><ele>16.0</ele><time>2026-05-05T12:02:03.204Z</time></trkpt><trkpt lat="51.69072" lon="-8.5270583"><ele>13.333333333333332</ele><time>2026-05-05T12:02:04.204Z</time></trkpt><trkpt lat="51.6906283" lon="-8.5272467"><ele>10.666666666666666</ele><time>2026-05-05T12:02:05.204Z</time></trkpt><trkpt lat="51.6905267" lon="-8.5274583"><ele>8.0</ele><time>2026-05-05T12:02:06.204Z</time></trkpt><trkpt lat="51.690395" lon="-8.5276267"><ele>8.0</ele><time>2026-05-05T12:02:07.204Z</time></trkpt><trkpt lat="51.6902767" lon="-8.5277683"><ele>8.0</ele><time>2026-05-05T12:02:08.204Z</time></trkpt><trkpt lat="51.6901533" lon="-8.5278783"><ele>8.0</ele><time>2026-05-05T12:02:09.204Z</time></trkpt><trkpt lat="51.690065" lon="-8.52797"><ele>8.0</ele><time>2026-05-05T12:02:10.204Z</time></trkpt><trkpt lat="51.6899517" lon="-8.5280533"><ele>10.0</ele><time>2026-05-05T12:02:11.203Z</time></trkpt><trkpt lat="51.6897833" lon="-8.5280783"><ele>12.0</ele><time>2026-05-05T12:02:12.204Z</time></trkpt><trkpt lat="51.6896317" lon="-8.5281067"><ele>14.0</ele><time>2026-05-05T12:02:13.203Z</time></trkpt><trkpt lat="51.6894783" lon="-8.5281367"><ele>18.0</ele><time>2026-05-05T12:02:14.204Z</time></trkpt><trkpt lat="51.6893133" lon="-8.5281467"><ele>22.0</ele><time>2026-05-05T12:02:15.204Z</time></trkpt><trkpt lat="51.6891517" lon="-8.5281567"><ele>26.0</ele><time>2026-05-05T12:02:16.203Z</time></trkpt><trkpt lat="51.6889233" lon="-8.5281617"><ele>26.0</ele><time>2026-05-05T12:02:17.204Z</time></trkpt><trkpt lat="51.6887817" lon="-8.5281583"><ele>26.0</ele><time>2026-05-05T12:02:18.203Z</time></trkpt><trkpt lat="51.6886667" lon="-8.5281417"><ele>26.0</ele><time>2026-05-05T12:02:19.204Z</time></trkpt><trkpt lat="51.6885533" lon="-8.52812"><ele>26.0</ele><time>2026-05-05T12:02:20.204Z</time></trkpt><trkpt lat="51.6884483" lon="-8.5281067"><ele>25.8</ele><time>2026-05-05T12:02:21.204Z</time></trkpt><trkpt lat="51.68835" lon="-8.5281033"><ele>25.6</ele><time>2026-05-05T12:02:22.203Z</time></trkpt><trkpt lat="51.6882433" lon="-8.5281183"><ele>25.4</ele><time>2026-05-05T12:02:23.204Z</time></trkpt><trkpt lat="51.68813" lon="-8.5281533"><ele>25.2</ele><time>2026-05-05T12:02:24.204Z</time></trkpt><trkpt lat="51.688015" lon="-8.5282067"><ele>25.0</ele><time>2026-05-05T12:02:25.204Z</time></trkpt><trkpt lat="51.6878917" lon="-8.5282683"><ele>25.0</ele><time>2026-05-05T12:02:26.204Z</time></trkpt><trkpt lat="51.68773" lon="-8.5283667"><ele>25.0</ele><time>2026-05-05T12:02:27.203Z</time></trkpt><trkpt lat="51.6876183" lon="-8.5284717"><ele>25.0</ele><time>2026-05-05T12:02:28.203Z</time></trkpt><trkpt lat="51.6875233" lon="-8.528625"><ele>25.0</ele><time>2026-05-05T12:02:29.204Z</time></trkpt><trkpt lat="51.6874433" lon="-8.5288033"><ele>25.0</ele><time>2026-05-05T12:02:30.203Z</time></trkpt><trkpt lat="51.6873683" lon="-8.52899"><ele>25.0</ele><time>2026-05-05T12:02:31.204Z</time></trkpt><trkpt lat="51.6872967" lon="-8.5291983"><ele>25.0</ele><time>2026-05-05T12:02:32.204Z</time></trkpt><trkpt lat="51.6872133" lon="-8.5294167"><ele>25.0</ele><time>2026-05-05T12:02:33.204Z</time></trkpt><trkpt lat="51.68713" lon="-8.5296417"><ele>26.333333333333336</ele><time>2026-05-05T12:02:34.204Z</time></trkpt><trkpt lat="51.6870583" lon="-8.5298467"><ele>27.666666666666664</ele><time>2026-05-05T12:02:35.203Z</time></trkpt><trkpt lat="51.6869967" lon="-8.5300767"><ele>29.0</ele><time>2026-05-05T12:02:36.204Z</time></trkpt><trkpt lat="51.6869367" lon="-8.5303183"><ele>25.666666666666664</ele><time>2026-05-05T12:02:37.204Z</time></trkpt><trkpt lat="51.68688" lon="-8.530565"><ele>22.333333333333332</ele><time>2026-05-05T12:02:38.204Z</time></trkpt><trkpt lat="51.6868117" lon="-8.5308433"><ele>19.0</ele><time>2026-05-05T12:02:39.204Z</time></trkpt><trkpt lat="51.686745" lon="-8.5311017"><ele>20.333333333333332</ele><time>2026-05-05T12:02:40.203Z</time></trkpt><trkpt lat="51.6866733" lon="-8.5314017"><ele>21.666666666666668</ele><time>2026-05-05T12:02:41.204Z</time></trkpt><trkpt lat="51.6866167" lon="-8.5317133"><ele>23.0</ele><time>2026-05-05T12:02:42.204Z</time></trkpt><trkpt lat="51.68656" lon="-8.53203"><ele>24.333333333333336</ele><time>2026-05-05T12:02:43.204Z</time></trkpt><trkpt lat="51.6864967" lon="-8.532365"><ele>25.666666666666668</ele><time>2026-05-05T12:02:44.204Z</time></trkpt><trkpt lat="51.686435" lon="-8.53271"><ele>27.0</ele><time>2026-05-05T12:02:45.204Z</time></trkpt><trkpt lat="51.68637" lon="-8.5330533"><ele>28.666666666666664</ele><time>2026-05-05T12:02:46.204Z</time></trkpt><trkpt lat="51.6863033" lon="-8.533405"><ele>30.333333333333332</ele><time>2026-05-05T12:02:47.204Z</time></trkpt><trkpt lat="51.6862417" lon="-8.53373"><ele>32.0</ele><time>2026-05-05T12:02:48.204Z</time></trkpt><trkpt lat="51.6861917" lon="-8.53402"><ele>32.666666666666664</ele><time>2026-05-05T12:02:49.204Z</time></trkpt><trkpt lat="51.6861567" lon="-8.5343133"><ele>33.333333333333336</ele><time>2026-05-05T12:02:50.204Z</time></trkpt><trkpt lat="51.6861317" lon="-8.53459"><ele>34.0</ele><time>2026-05-05T12:02:51.203Z</time></trkpt><trkpt lat="51.6861033" lon="-8.53487"><ele>35.0</ele><time>2026-05-05T12:02:52.204Z</time></trkpt><trkpt lat="51.686095" lon="-8.5351333"><ele>36.0</ele><time>2026-05-05T12:02:53.203Z</time></trkpt><trkpt lat="51.6860867" lon="-8.5353783"><ele>37.0</ele><time>2026-05-05T12:02:54.204Z</time></trkpt><trkpt lat="51.6860983" lon="-8.5355983"><ele>37.2</ele><time>2026-05-05T12:02:55.203Z</time></trkpt><trkpt lat="51.6861" lon="-8.5357933"><ele>37.400000000000006</ele><time>2026-05-05T12:02:56.204Z</time></trkpt><trkpt lat="51.6861167" lon="-8.535955"><ele>37.599999999999994</ele><time>2026-05-05T12:02:57.204Z</time></trkpt><trkpt lat="51.6861283" lon="-8.536125"><ele>37.8</ele><time>2026-05-05T12:02:58.204Z</time></trkpt><trkpt lat="51.6861517" lon="-8.53629"><ele>38.0</ele><time>2026-05-05T12:02:59.204Z</time></trkpt><trkpt lat="51.6861667" lon="-8.5364633"><ele>38.4</ele><time>2026-05-05T12:03:00.204Z</time></trkpt><trkpt lat="51.6861717" lon="-8.53665"><ele>38.8</ele><time>2026-05-05T12:03:01.204Z</time></trkpt><trkpt lat="51.686165" lon="-8.53684"><ele>39.2</ele><time>2026-05-05T12:03:02.204Z</time></trkpt><trkpt lat="51.6861417" lon="-8.5370183"><ele>39.6</ele><time>2026-05-05T12:03:03.203Z</time></trkpt><trkpt lat="51.6861183" lon="-8.53717"><ele>40.0</ele><time>2026-05-05T12:03:04.204Z</time></trkpt><trkpt lat="51.6860683" lon="-8.5373283"><ele>38.25</ele><time>2026-05-05T12:03:05.204Z</time></trkpt><trkpt lat="51.6859883" lon="-8.53747"><ele>36.5</ele><time>2026-05-05T12:03:06.204Z</time></trkpt><trkpt lat="51.6858783" lon="-8.53758"><ele>34.75</ele><time>2026-05-05T12:03:07.204Z</time></trkpt><trkpt lat="51.6857733" lon="-8.5376917"><ele>33.0</ele><time>2026-05-05T12:03:08.204Z</time></trkpt><trkpt lat="51.6856683" lon="-8.5378283"><ele>35.0</ele><time>2026-05-05T12:03:09.204Z</time></trkpt><trkpt lat="51.6855483" lon="-8.537955"><ele>37.0</ele><time>2026-05-05T12:03:10.204Z</time></trkpt><trkpt lat="51.685425" lon="-8.5381283"><ele>39.0</ele><time>2026-05-05T12:03:11.204Z</time></trkpt><trkpt lat="51.685335" lon="-8.5383783"><ele>34.666666666666664</ele><time>2026-05-05T12:03:12.204Z</time></trkpt><trkpt lat="51.6852417" lon="-8.5386767"><ele>30.333333333333332</ele><time>2026-05-05T12:03:13.203Z</time></trkpt><trkpt lat="51.68515" lon="-8.5389733"><ele>26.0</ele><time>2026-05-05T12:03:14.204Z</time></trkpt><trkpt lat="51.685095" lon="-8.539225"><ele>26.0</ele><time>2026-05-05T12:03:15.204Z</time></trkpt><trkpt lat="51.6850533" lon="-8.539425"><ele>26.0</ele><time>2026-05-05T12:03:16.203Z</time></trkpt><trkpt lat="51.6850233" lon="-8.5395933"><ele>26.0</ele><time>2026-05-05T12:03:17.203Z</time></trkpt><trkpt lat="51.68499" lon="-8.5397667"><ele>26.0</ele><time>2026-05-05T12:03:18.203Z</time></trkpt><trkpt lat="51.684955" lon="-8.5399767"><ele>27.75</ele><time>2026-05-05T12:03:19.204Z</time></trkpt><trkpt lat="51.68491" lon="-8.5402"><ele>29.5</ele><time>2026-05-05T12:03:20.203Z</time></trkpt><trkpt lat="51.684875" lon="-8.540425"><ele>31.25</ele><time>2026-05-05T12:03:21.204Z</time></trkpt><trkpt lat="51.684845" lon="-8.54065"><ele>33.0</ele><time>2026-05-05T12:03:22.204Z</time></trkpt><trkpt lat="51.684815" lon="-8.5408483"><ele>34.25</ele><time>2026-05-05T12:03:23.204Z</time></trkpt><trkpt lat="51.6847933" lon="-8.5410567"><ele>35.5</ele><time>2026-05-05T12:03:24.204Z</time></trkpt><trkpt lat="51.6847767" lon="-8.5412767"><ele>36.75</ele><time>2026-05-05T12:03:25.204Z</time></trkpt><trkpt lat="51.6847617" lon="-8.5415017"><ele>38.0</ele><time>2026-05-05T12:03:26.203Z</time></trkpt><trkpt lat="51.684755" lon="-8.5417183"><ele>39.666666666666664</ele><time>2026-05-05T12:03:27.204Z</time></trkpt><trkpt lat="51.6847583" lon="-8.5419483"><ele>41.333333333333336</ele><time>2026-05-05T12:03:28.203Z</time></trkpt><trkpt lat="51.6847717" lon="-8.5422133"><ele>43.0</ele><time>2026-05-05T12:03:29.204Z</time></trkpt><trkpt lat="51.68479" lon="-8.54252"><ele>43.0</ele><time>2026-05-05T12:03:30.203Z</time></trkpt><trkpt lat="51.68482" lon="-8.5428467"><ele>43.0</ele><time>2026-05-05T12:03:31.204Z</time></trkpt><trkpt lat="51.68485" lon="-8.54318"><ele>43.0</ele><time>2026-05-05T12:03:32.204Z</time></trkpt><trkpt lat="51.68488" lon="-8.5435183"><ele>42.333333333333336</ele><time>2026-05-05T12:03:33.204Z</time></trkpt><trkpt lat="51.6849067" lon="-8.54383"><ele>41.666666666666664</ele><time>2026-05-05T12:03:34.203Z</time></trkpt><trkpt lat="51.68493" lon="-8.5441367"><ele>41.0</ele><time>2026-05-05T12:03:35.204Z</time></trkpt><trkpt lat="51.68495" lon="-8.54444"><ele>40.33333333333333</ele><time>2026-05-05T12:03:36.203Z</time></trkpt><trkpt lat="51.6849717" lon="-8.5447467"><ele>39.666666666666664</ele><time>2026-05-05T12:03:37.204Z</time></trkpt><trkpt lat="51.6849917" lon="-8.54506"><ele>39.0</ele><time>2026-05-05T12:03:38.204Z</time></trkpt><trkpt lat="51.68501" lon="-8.5453917"><ele>38.0</ele><time>2026-05-05T12:03:39.204Z</time></trkpt><trkpt lat="51.685015" lon="-8.5457517"><ele>37.0</ele><time>2026-05-05T12:03:40.204Z</time></trkpt><trkpt lat="51.6850283" lon="-8.5461367"><ele>38.0</ele><time>2026-05-05T12:03:41.204Z</time></trkpt><trkpt lat="51.685045" lon="-8.546535"><ele>39.0</ele><time>2026-05-05T12:03:42.204Z</time></trkpt><trkpt lat="51.6850617" lon="-8.5469233"><ele>39.5</ele><time>2026-05-05T12:03:43.204Z</time></trkpt><trkpt lat="51.685075" lon="-8.5473183"><ele>40.0</ele><time>2026-05-05T12:03:44.203Z</time></trkpt><trkpt lat="51.6850917" lon="-8.547725"><ele>40.5</ele><time>2026-05-05T12:03:45.203Z</time></trkpt><trkpt lat="51.6851083" lon="-8.5481133"><ele>41.0</ele><time>2026-05-05T12:03:46.204Z</time></trkpt><trkpt lat="51.6851217" lon="-8.5484767"><ele>41.0</ele><time>2026-05-05T12:03:47.204Z</time></trkpt><trkpt lat="51.6851317" lon="-8.54881"><ele>41.0</ele><time>2026-05-05T12:03:48.204Z</time></trkpt><trkpt lat="51.68514" lon="-8.5491333"><ele>41.0</ele><time>2026-05-05T12:03:49.204Z</time></trkpt><trkpt lat="51.6851417" lon="-8.5494417"><ele>42.33333333333333</ele><time>2026-05-05T12:03:50.204Z</time></trkpt><trkpt lat="51.68514" lon="-8.5497417"><ele>43.666666666666664</ele><time>2026-05-05T12:03:51.204Z</time></trkpt><trkpt lat="51.6851283" lon="-8.55006"><ele>45.0</ele><time>2026-05-05T12:03:52.204Z</time></trkpt><trkpt lat="51.6851233" lon="-8.5503533"><ele>45.5</ele><time>2026-05-05T12:03:53.204Z</time></trkpt><trkpt lat="51.6851033" lon="-8.550615"><ele>46.0</ele><time>2026-05-05T12:03:54.204Z</time></trkpt><trkpt lat="51.685095" lon="-8.55085"><ele>46.5</ele><time>2026-05-05T12:03:55.204Z</time></trkpt><trkpt lat="51.68508" lon="-8.5510567"><ele>47.0</ele><time>2026-05-05T12:03:56.204Z</time></trkpt><trkpt lat="51.68505" lon="-8.5512567"><ele>47.75</ele><time>2026-05-05T12:03:57.203Z</time></trkpt><trkpt lat="51.6849967" lon="-8.551445"><ele>48.5</ele><time>2026-05-05T12:03:58.204Z</time></trkpt><trkpt lat="51.6849267" lon="-8.5516217"><ele>49.25</ele><time>2026-05-05T12:03:59.203Z</time></trkpt><trkpt lat="51.684835" lon="-8.5517683"><ele>50.0</ele><time>2026-05-05T12:04:00.204Z</time></trkpt><trkpt lat="51.684695" lon="-8.5519117"><ele>50.0</ele><time>2026-05-05T12:04:01.203Z</time></trkpt><trkpt lat="51.6845967" lon="-8.552065"><ele>50.0</ele><time>2026-05-05T12:04:02.204Z</time></trkpt><trkpt lat="51.6845167" lon="-8.55224"><ele>50.0</ele><time>2026-05-05T12:04:03.203Z</time></trkpt><trkpt lat="51.6844567" lon="-8.55244"><ele>50.0</ele><time>2026-05-05T12:04:04.204Z</time></trkpt><trkpt lat="51.6844117" lon="-8.5526833"><ele>51.333333333333336</ele><time>2026-05-05T12:04:05.204Z</time></trkpt><trkpt lat="51.684365" lon="-8.55294"><ele>52.66666666666667</ele><time>2026-05-05T12:04:06.203Z</time></trkpt><trkpt lat="51.6843183" lon="-8.55321"><ele>54.0</ele><time>2026-05-05T12:04:07.204Z</time></trkpt><trkpt lat="51.6842767" lon="-8.553495"><ele>54.66666666666667</ele><time>2026-05-05T12:04:08.204Z</time></trkpt><trkpt lat="51.68423" lon="-8.5538"><ele>55.333333333333336</ele><time>2026-05-05T12:04:09.204Z</time></trkpt><trkpt lat="51.68418" lon="-8.5541"><ele>56.0</ele><time>2026-05-05T12:04:10.204Z</time></trkpt><trkpt lat="51.6841333" lon="-8.5544167"><ele>56.66666666666667</ele><time>2026-05-05T12:04:11.204Z</time></trkpt><trkpt lat="51.6840933" lon="-8.55474"><ele>57.33333333333333</ele><time>2026-05-05T12:04:12.203Z</time></trkpt><trkpt lat="51.68406" lon="-8.5550717"><ele>58.0</ele><time>2026-05-05T12:04:13.204Z</time></trkpt><trkpt lat="51.6840567" lon="-8.555375"><ele>58.33333333333333</ele><time>2026-05-05T12:04:14.203Z</time></trkpt><trkpt lat="51.684055" lon="-8.55572"><ele>58.66666666666667</ele><time>2026-05-05T12:04:15.204Z</time></trkpt><trkpt lat="51.6840633" lon="-8.55605"><ele>59.0</ele><time>2026-05-05T12:04:16.204Z</time></trkpt><trkpt lat="51.6840667" lon="-8.5563633"><ele>59.66666666666667</ele><time>2026-05-05T12:04:17.204Z</time></trkpt><trkpt lat="51.68408" lon="-8.55668"><ele>60.33333333333333</ele><time>2026-05-05T12:04:18.203Z</time></trkpt><trkpt lat="51.6840983" lon="-8.5570033"><ele>61.0</ele><time>2026-05-05T12:04:19.203Z</time></trkpt><trkpt lat="51.6841183" lon="-8.5573333"><ele>61.666666666666664</ele><time>2026-05-05T12:04:20.203Z</time></trkpt><trkpt lat="51.6841433" lon="-8.5576617"><ele>62.33333333333333</ele><time>2026-05-05T12:04:21.203Z</time></trkpt><trkpt lat="51.68417" lon="-8.5579967"><ele>63.0</ele><time>2026-05-05T12:04:22.204Z</time></trkpt><trkpt lat="51.684195" lon="-8.55834"><ele>63.33333333333333</ele><time>2026-05-05T12:04:23.203Z</time></trkpt><trkpt lat="51.6842167" lon="-8.558685"><ele>63.666666666666664</ele><time>2026-05-05T12:04:24.204Z</time></trkpt><trkpt lat="51.6842367" lon="-8.5590333"><ele>64.0</ele><time>2026-05-05T12:04:25.204Z</time></trkpt><trkpt lat="51.6842567" lon="-8.55938"><ele>65.0</ele><time>2026-05-05T12:04:26.204Z</time></trkpt><trkpt lat="51.6842633" lon="-8.55973"><ele>66.0</ele><time>2026-05-05T12:04:27.204Z</time></trkpt><trkpt lat="51.6842667" lon="-8.5600867"><ele>67.0</ele><time>2026-05-05T12:04:28.204Z</time></trkpt><trkpt lat="51.684265" lon="-8.560445"><ele>67.33333333333333</ele><time>2026-05-05T12:04:29.204Z</time></trkpt><trkpt lat="51.6842567" lon="-8.5607933"><ele>67.66666666666667</ele><time>2026-05-05T12:04:30.204Z</time></trkpt><trkpt lat="51.6842417" lon="-8.56114"><ele>68.0</ele><time>2026-05-05T12:04:31.204Z</time></trkpt><trkpt lat="51.6842267" lon="-8.5614767"><ele>68.66666666666667</ele><time>2026-05-05T12:04:32.204Z</time></trkpt><trkpt lat="51.6842" lon="-8.5618067"><ele>69.33333333333333</ele><time>2026-05-05T12:04:33.204Z</time></trkpt><trkpt lat="51.6841683" lon="-8.5621383"><ele>70.0</ele><time>2026-05-05T12:04:34.204Z</time></trkpt><trkpt lat="51.68413" lon="-8.562445"><ele>70.66666666666666</ele><time>2026-05-05T12:04:35.203Z</time></trkpt><trkpt lat="51.6840833" lon="-8.5627633"><ele>71.33333333333333</ele><time>2026-05-05T12:04:36.204Z</time></trkpt><trkpt lat="51.6840183" lon="-8.5630867"><ele>72.0</ele><time>2026-05-05T12:04:37.204Z</time></trkpt><trkpt lat="51.6839483" lon="-8.5633867"><ele>72.66666666666667</ele><time>2026-05-05T12:04:38.204Z</time></trkpt><trkpt lat="51.6838783" lon="-8.56367"><ele>73.33333333333334</ele><time>2026-05-05T12:04:39.203Z</time></trkpt><trkpt lat="51.68382" lon="-8.56393"><ele>74.0</ele><time>2026-05-05T12:04:40.204Z</time></trkpt><trkpt lat="51.6837583" lon="-8.56419"><ele>74.33333333333334</ele><time>2026-05-05T12:04:41.204Z</time></trkpt><trkpt lat="51.6837117" lon="-8.5644633"><ele>74.66666666666667</ele><time>2026-05-05T12:04:42.204Z</time></trkpt><trkpt lat="51.68365" lon="-8.5647333"><ele>75.0</ele><time>2026-05-05T12:04:43.203Z</time></trkpt><trkpt lat="51.6835833" lon="-8.565005"><ele>76.33333333333333</ele><time>2026-05-05T12:04:44.204Z</time></trkpt><trkpt lat="51.6835033" lon="-8.5652917"><ele>77.66666666666666</ele><time>2026-05-05T12:04:45.204Z</time></trkpt><trkpt lat="51.6834233" lon="-8.56556"><ele>79.0</ele><time>2026-05-05T12:04:46.204Z</time></trkpt><trkpt lat="51.6833433" lon="-8.5657983"><ele>79.0</ele><time>2026-05-05T12:04:47.204Z</time></trkpt><trkpt lat="51.6832783" lon="-8.56603"><ele>79.0</ele><time>2026-05-05T12:04:48.203Z</time></trkpt><trkpt lat="51.6832083" lon="-8.566235"><ele>79.0</ele><time>2026-05-05T12:04:49.203Z</time></trkpt><trkpt lat="51.6831233" lon="-8.5664517"><ele>78.66666666666666</ele><time>2026-05-05T12:04:50.204Z</time></trkpt><trkpt lat="51.683025" lon="-8.56667"><ele>78.33333333333333</ele><time>2026-05-05T12:04:51.204Z</time></trkpt><trkpt lat="51.6829383" lon="-8.56687"><ele>78.0</ele><time>2026-05-05T12:04:52.204Z</time></trkpt><trkpt lat="51.682865" lon="-8.5670567"><ele>77.25</ele><time>2026-05-05T12:04:53.203Z</time></trkpt><trkpt lat="51.682795" lon="-8.5672283"><ele>76.5</ele><time>2026-05-05T12:04:54.203Z</time></trkpt><trkpt lat="51.68272" lon="-8.567395"><ele>75.75</ele><time>2026-05-05T12:04:55.204Z</time></trkpt><trkpt lat="51.682635" lon="-8.56756"><ele>75.0</ele><time>2026-05-05T12:04:56.203Z</time></trkpt><trkpt lat="51.682545" lon="-8.5677467"><ele>75.5</ele><time>2026-05-05T12:04:57.204Z</time></trkpt><trkpt lat="51.68245" lon="-8.5679317"><ele>76.0</ele><time>2026-05-05T12:04:58.203Z</time></trkpt><trkpt lat="51.6823583" lon="-8.568085"><ele>76.5</ele><time>2026-05-05T12:04:59.204Z</time></trkpt><trkpt lat="51.6822667" lon="-8.56824"><ele>77.0</ele><time>2026-05-05T12:05:00.203Z</time></trkpt><trkpt lat="51.6821633" lon="-8.5683933"><ele>77.0</ele><time>2026-05-05T12:05:01.203Z</time></trkpt><trkpt lat="51.6820617" lon="-8.5685083"><ele>77.0</ele><time>2026-05-05T12:05:02.203Z</time></trkpt><trkpt lat="51.681945" lon="-8.5685867"><ele>77.0</ele><time>2026-05-05T12:05:03.204Z</time></trkpt><trkpt lat="51.6817717" lon="-8.5686017"><ele>77.0</ele><time>2026-05-05T12:05:04.204Z</time></trkpt><trkpt lat="51.6816367" lon="-8.5686183"><ele>76.5</ele><time>2026-05-05T12:05:05.204Z</time></trkpt><trkpt lat="51.6814783" lon="-8.568595"><ele>76.0</ele><time>2026-05-05T12:05:06.203Z</time></trkpt><trkpt lat="51.6813483" lon="-8.5686117"><ele>75.5</ele><time>2026-05-05T12:05:07.204Z</time></trkpt><trkpt lat="51.6812233" lon="-8.5686433"><ele>75.0</ele><time>2026-05-05T12:05:08.203Z</time></trkpt><trkpt lat="51.6811167" lon="-8.5686967"><ele>78.5</ele><time>2026-05-05T12:05:09.204Z</time></trkpt><trkpt lat="51.68102" lon="-8.5687917"><ele>82.0</ele><time>2026-05-05T12:05:10.204Z</time></trkpt><trkpt lat="51.6809317" lon="-8.5689133"><ele>85.5</ele><time>2026-05-05T12:05:11.204Z</time></trkpt><trkpt lat="51.6808767" lon="-8.569085"><ele>89.0</ele><time>2026-05-05T12:05:12.203Z</time></trkpt><trkpt lat="51.68092" lon="-8.5693217"><ele>89.25</ele><time>2026-05-05T12:05:13.204Z</time></trkpt><trkpt lat="51.680925" lon="-8.569555"><ele>89.5</ele><time>2026-05-05T12:05:14.204Z</time></trkpt><trkpt lat="51.6809217" lon="-8.5697883"><ele>89.75</ele><time>2026-05-05T12:05:15.204Z</time></trkpt><trkpt lat="51.680895" lon="-8.57"><ele>90.0</ele><time>2026-05-05T12:05:16.203Z</time></trkpt><trkpt lat="51.6808833" lon="-8.5702017"><ele>90.4</ele><time>2026-05-05T12:05:17.203Z</time></trkpt><trkpt lat="51.6808833" lon="-8.5703833"><ele>90.8</ele><time>2026-05-05T12:05:18.204Z</time></trkpt><trkpt lat="51.6809033" lon="-8.570555"><ele>91.19999999999999</ele><time>2026-05-05T12:05:19.204Z</time></trkpt><trkpt lat="51.680935" lon="-8.5707067"><ele>91.6</ele><time>2026-05-05T12:05:20.203Z</time></trkpt><trkpt lat="51.6809783" lon="-8.5708467"><ele>92.0</ele><time>2026-05-05T12:05:21.203Z</time></trkpt><trkpt lat="51.681025" lon="-8.570985"><ele>92.0</ele><time>2026-05-05T12:05:22.204Z</time></trkpt><trkpt lat="51.6810867" lon="-8.5711"><ele>92.0</ele><time>2026-05-05T12:05:23.203Z</time></trkpt><trkpt lat="51.6811617" lon="-8.5712133"><ele>92.0</ele><time>2026-05-05T12:05:24.204Z</time></trkpt><trkpt lat="51.68122" lon="-8.5713383"><ele>92.0</ele><time>2026-05-05T12:05:25.204Z</time></trkpt><trkpt lat="51.68134" lon="-8.5717217"><ele>91.25</ele><time>2026-05-05T12:05:27.204Z</time></trkpt><trkpt lat="51.6814017" lon="-8.5719183"><ele>90.5</ele><time>2026-05-05T12:05:28.203Z</time></trkpt><trkpt lat="51.6814583" lon="-8.5721217"><ele>89.75</ele><time>2026-05-05T12:05:29.204Z</time></trkpt><trkpt lat="51.6815133" lon="-8.5723433"><ele>89.0</ele><time>2026-05-05T12:05:30.204Z</time></trkpt><trkpt lat="51.681565" lon="-8.5725733"><ele>89.0</ele><time>2026-05-05T12:05:31.204Z</time></trkpt><trkpt lat="51.6815967" lon="-8.57283"><ele>89.0</ele><time>2026-05-05T12:05:32.204Z</time></trkpt><trkpt lat="51.6816233" lon="-8.57309"><ele>89.0</ele><time>2026-05-05T12:05:33.203Z</time></trkpt><trkpt lat="51.68165" lon="-8.57333"><ele>89.0</ele><time>2026-05-05T12:05:34.203Z</time></trkpt><trkpt lat="51.68168" lon="-8.5735883"><ele>89.0</ele><time>2026-05-05T12:05:35.203Z</time></trkpt><trkpt lat="51.6817017" lon="-8.5738517"><ele>89.0</ele><time>2026-05-05T12:05:36.202Z</time></trkpt><trkpt lat="51.68172" lon="-8.5741217"><ele>91.0</ele><time>2026-05-05T12:05:37.202Z</time></trkpt><trkpt lat="51.6817383" lon="-8.5744"><ele>93.0</ele><time>2026-05-05T12:05:38.202Z</time></trkpt><trkpt lat="51.6817717" lon="-8.5749983"><ele>94.0</ele><time>2026-05-05T12:05:40.203Z</time></trkpt><trkpt lat="51.6817883" lon="-8.5753067"><ele>95.0</ele><time>2026-05-05T12:05:41.203Z</time></trkpt><trkpt lat="51.6818" lon="-8.5756117"><ele>96.0</ele><time>2026-05-05T12:05:42.203Z</time></trkpt><trkpt lat="51.681805" lon="-8.57592"><ele>97.0</ele><time>2026-05-05T12:05:43.202Z</time></trkpt><trkpt lat="51.681805" lon="-8.5762333"><ele>98.0</ele><time>2026-05-05T12:05:44.203Z</time></trkpt><trkpt lat="51.6818083" lon="-8.5765417"><ele>99.0</ele><time>2026-05-05T12:05:45.203Z</time></trkpt><trkpt lat="51.68181" lon="-8.576845"><ele>99.66666666666666</ele><time>2026-05-05T12:05:46.202Z</time></trkpt><trkpt lat="51.6818133" lon="-8.5771383"><ele>100.33333333333333</ele><time>2026-05-05T12:05:47.202Z</time></trkpt><trkpt lat="51.6818333" lon="-8.57744"><ele>101.0</ele><time>2026-05-05T12:05:48.203Z</time></trkpt><trkpt lat="51.6818283" lon="-8.57774"><ele>101.0</ele><time>2026-05-05T12:05:49.203Z</time></trkpt><trkpt lat="51.6817817" lon="-8.5783217"><ele>101.0</ele><time>2026-05-05T12:05:51.203Z</time></trkpt><trkpt lat="51.6817617" lon="-8.5786017"><ele>100.33333333333333</ele><time>2026-05-05T12:05:52.203Z</time></trkpt><trkpt lat="51.6817267" lon="-8.5788567"><ele>99.66666666666666</ele><time>2026-05-05T12:05:53.202Z</time></trkpt><trkpt lat="51.681685" lon="-8.5791033"><ele>99.0</ele><time>2026-05-05T12:05:54.203Z</time></trkpt><trkpt lat="51.6816283" lon="-8.57936"><ele>98.33333333333334</ele><time>2026-05-05T12:05:55.203Z</time></trkpt><trkpt lat="51.681555" lon="-8.5795967"><ele>97.66666666666667</ele><time>2026-05-05T12:05:56.202Z</time></trkpt><trkpt lat="51.6814833" lon="-8.5798183"><ele>97.0</ele><time>2026-05-05T12:05:57.203Z</time></trkpt><trkpt lat="51.681415" lon="-8.5800117"><ele>97.0</ele><time>2026-05-05T12:05:58.203Z</time></trkpt><trkpt lat="51.6813433" lon="-8.5801783"><ele>97.0</ele><time>2026-05-05T12:05:59.202Z</time></trkpt><trkpt lat="51.68126" lon="-8.5803433"><ele>97.0</ele><time>2026-05-05T12:06:00.203Z</time></trkpt><trkpt lat="51.6810817" lon="-8.5806967"><ele>97.0</ele><time>2026-05-05T12:06:02.203Z</time></trkpt><trkpt lat="51.6809883" lon="-8.5808733"><ele>97.0</ele><time>2026-05-05T12:06:03.202Z</time></trkpt><trkpt lat="51.6808967" lon="-8.5810417"><ele>97.0</ele><time>2026-05-05T12:06:04.203Z</time></trkpt><trkpt lat="51.6808067" lon="-8.5812"><ele>97.0</ele><time>2026-05-05T12:06:05.202Z</time></trkpt><trkpt lat="51.6807167" lon="-8.581355"><ele>97.0</ele><time>2026-05-05T12:06:06.203Z</time></trkpt><trkpt lat="51.6806183" lon="-8.5815017"><ele>97.0</ele><time>2026-05-05T12:06:07.203Z</time></trkpt><trkpt lat="51.680515" lon="-8.5816567"><ele>97.0</ele><time>2026-05-05T12:06:08.203Z</time></trkpt><trkpt lat="51.6804083" lon="-8.5818017"><ele>97.0</ele><time>2026-05-05T12:06:09.202Z</time></trkpt><trkpt lat="51.6802833" lon="-8.5819433"><ele>96.25</ele><time>2026-05-05T12:06:10.203Z</time></trkpt><trkpt lat="51.6801783" lon="-8.5820883"><ele>95.5</ele><time>2026-05-05T12:06:11.202Z</time></trkpt><trkpt lat="51.6800983" lon="-8.58222"><ele>94.75</ele><time>2026-05-05T12:06:12.202Z</time></trkpt><trkpt lat="51.6800233" lon="-8.582375"><ele>94.0</ele><time>2026-05-05T12:06:13.203Z</time></trkpt><trkpt lat="51.679945" lon="-8.5825533"><ele>94.0</ele><time>2026-05-05T12:06:14.203Z</time></trkpt><trkpt lat="51.6798833" lon="-8.5827583"><ele>94.0</ele><time>2026-05-05T12:06:15.203Z</time></trkpt><trkpt lat="51.679845" lon="-8.5829933"><ele>94.0</ele><time>2026-05-05T12:06:16.203Z</time></trkpt><trkpt lat="51.6798017" lon="-8.5832283"><ele>94.0</ele><time>2026-05-05T12:06:17.202Z</time></trkpt><trkpt lat="51.6797717" lon="-8.5834567"><ele>93.75</ele><time>2026-05-05T12:06:18.203Z</time></trkpt><trkpt lat="51.6797633" lon="-8.5836733"><ele>93.5</ele><time>2026-05-05T12:06:19.203Z</time></trkpt><trkpt lat="51.679765" lon="-8.5838917"><ele>93.25</ele><time>2026-05-05T12:06:20.203Z</time></trkpt><trkpt lat="51.6797633" lon="-8.5841217"><ele>93.0</ele><time>2026-05-05T12:06:21.203Z</time></trkpt><trkpt lat="51.679755" lon="-8.5843617"><ele>92.0</ele><time>2026-05-05T12:06:22.203Z</time></trkpt><trkpt lat="51.679755" lon="-8.5846033"><ele>91.0</ele><time>2026-05-05T12:06:23.203Z</time></trkpt><trkpt lat="51.6797583" lon="-8.5848283"><ele>90.0</ele><time>2026-05-05T12:06:24.202Z</time></trkpt><trkpt lat="51.679775" lon="-8.5850767"><ele>89.0</ele><time>2026-05-05T12:06:25.203Z</time></trkpt><trkpt lat="51.6797933" lon="-8.585315"><ele>88.0</ele><time>2026-05-05T12:06:26.203Z</time></trkpt><trkpt lat="51.6798267" lon="-8.58554"><ele>87.0</ele><time>2026-05-05T12:06:27.203Z</time></trkpt><trkpt lat="51.67986" lon="-8.5857683"><ele>86.0</ele><time>2026-05-05T12:06:28.203Z</time></trkpt><trkpt lat="51.6798917" lon="-8.5859917"><ele>85.0</ele><time>2026-05-05T12:06:29.202Z</time></trkpt><trkpt lat="51.6799417" lon="-8.5862017"><ele>83.5</ele><time>2026-05-05T12:06:30.203Z</time></trkpt><trkpt lat="51.6800283" lon="-8.5863783"><ele>82.0</ele><time>2026-05-05T12:06:31.203Z</time></trkpt><trkpt lat="51.6800883" lon="-8.5865867"><ele>80.5</ele><time>2026-05-05T12:06:32.202Z</time></trkpt><trkpt lat="51.680165" lon="-8.586805"><ele>79.0</ele><time>2026-05-05T12:06:33.203Z</time></trkpt><trkpt lat="51.6802583" lon="-8.58701"><ele>79.33333333333333</ele><time>2026-05-05T12:06:34.203Z</time></trkpt><trkpt lat="51.6803717" lon="-8.5872317"><ele>79.66666666666667</ele><time>2026-05-05T12:06:35.202Z</time></trkpt><trkpt lat="51.6804767" lon="-8.587405"><ele>80.0</ele><time>2026-05-05T12:06:36.203Z</time></trkpt><trkpt lat="51.680615" lon="-8.5875417"><ele>80.0</ele><time>2026-05-05T12:06:37.203Z</time></trkpt><trkpt lat="51.680725" lon="-8.5876867"><ele>80.0</ele><time>2026-05-05T12:06:38.202Z</time></trkpt><trkpt lat="51.6808083" lon="-8.58786"><ele>80.0</ele><time>2026-05-05T12:06:39.203Z</time></trkpt><trkpt lat="51.680885" lon="-8.588055"><ele>80.0</ele><time>2026-05-05T12:06:40.202Z</time></trkpt><trkpt lat="51.6809383" lon="-8.5882483"><ele>79.6</ele><time>2026-05-05T12:06:41.203Z</time></trkpt><trkpt lat="51.680975" lon="-8.5884167"><ele>79.2</ele><time>2026-05-05T12:06:42.202Z</time></trkpt><trkpt lat="51.6809917" lon="-8.5885517"><ele>78.8</ele><time>2026-05-05T12:06:43.202Z</time></trkpt><trkpt lat="51.6809933" lon="-8.58867"><ele>78.4</ele><time>2026-05-05T12:06:44.203Z</time></trkpt><trkpt lat="51.68094" lon="-8.5888233"><ele>78.0</ele><time>2026-05-05T12:06:46.202Z</time></trkpt><trkpt lat="51.68087" lon="-8.5888767"><ele>78.0</ele><time>2026-05-05T12:06:47.203Z</time></trkpt><trkpt lat="51.6807717" lon="-8.58892"><ele>78.0</ele><time>2026-05-05T12:06:48.203Z</time></trkpt><trkpt lat="51.6806633" lon="-8.58896"><ele>78.0</ele><time>2026-05-05T12:06:49.202Z</time></trkpt><trkpt lat="51.6805183" lon="-8.5889683"><ele>78.0</ele><time>2026-05-05T12:06:50.203Z</time></trkpt><trkpt lat="51.680365" lon="-8.5889267"><ele>76.75</ele><time>2026-05-05T12:06:51.202Z</time></trkpt><trkpt lat="51.6802217" lon="-8.588875"><ele>75.5</ele><time>2026-05-05T12:06:52.203Z</time></trkpt><trkpt lat="51.68009" lon="-8.588795"><ele>74.25</ele><time>2026-05-05T12:06:53.203Z</time></trkpt><trkpt lat="51.6799717" lon="-8.5887167"><ele>73.0</ele><time>2026-05-05T12:06:54.203Z</time></trkpt><trkpt lat="51.6798433" lon="-8.58862"><ele>73.0</ele><time>2026-05-05T12:06:55.203Z</time></trkpt><trkpt lat="51.679715" lon="-8.5885033"><ele>73.0</ele><time>2026-05-05T12:06:56.202Z</time></trkpt><trkpt lat="51.6795583" lon="-8.5883433"><ele>73.0</ele><time>2026-05-05T12:06:57.203Z</time></trkpt><trkpt lat="51.67939" lon="-8.5881767"><ele>72.66666666666666</ele><time>2026-05-05T12:06:58.203Z</time></trkpt><trkpt lat="51.67924" lon="-8.5880383"><ele>72.33333333333333</ele><time>2026-05-05T12:06:59.202Z</time></trkpt><trkpt lat="51.6790833" lon="-8.58792"><ele>72.0</ele><time>2026-05-05T12:07:00.203Z</time></trkpt><trkpt lat="51.6789283" lon="-8.5877983"><ele>72.0</ele><time>2026-05-05T12:07:01.203Z</time></trkpt><trkpt lat="51.67875" lon="-8.5876767"><ele>72.0</ele><time>2026-05-05T12:07:02.203Z</time></trkpt><trkpt lat="51.6785783" lon="-8.58756"><ele>72.0</ele><time>2026-05-05T12:07:03.203Z</time></trkpt><trkpt lat="51.6784117" lon="-8.58746"><ele>71.0</ele><time>2026-05-05T12:07:04.202Z</time></trkpt><trkpt lat="51.678235" lon="-8.587395"><ele>70.0</ele><time>2026-05-05T12:07:05.202Z</time></trkpt><trkpt lat="51.67805" lon="-8.5873483"><ele>69.0</ele><time>2026-05-05T12:07:06.203Z</time></trkpt><trkpt lat="51.6778683" lon="-8.5873183"><ele>68.66666666666667</ele><time>2026-05-05T12:07:07.203Z</time></trkpt><trkpt lat="51.67768" lon="-8.587305"><ele>68.33333333333334</ele><time>2026-05-05T12:07:08.202Z</time></trkpt><trkpt lat="51.6774933" lon="-8.5873167"><ele>68.0</ele><time>2026-05-05T12:07:09.203Z</time></trkpt><trkpt lat="51.6772883" lon="-8.5873617"><ele>68.0</ele><time>2026-05-05T12:07:10.202Z</time></trkpt><trkpt lat="51.6770833" lon="-8.5874183"><ele>68.0</ele><time>2026-05-05T12:07:11.202Z</time></trkpt><trkpt lat="51.676895" lon="-8.5875267"><ele>68.0</ele><time>2026-05-05T12:07:12.203Z</time></trkpt><trkpt lat="51.6767033" lon="-8.5876067"><ele>68.33333333333334</ele><time>2026-05-05T12:07:13.202Z</time></trkpt><trkpt lat="51.6765167" lon="-8.5876767"><ele>68.66666666666667</ele><time>2026-05-05T12:07:14.203Z</time></trkpt><trkpt lat="51.67633" lon="-8.5877433"><ele>69.0</ele><time>2026-05-05T12:07:15.203Z</time></trkpt><trkpt lat="51.67614" lon="-8.587805"><ele>68.0</ele><time>2026-05-05T12:07:16.203Z</time></trkpt><trkpt lat="51.67596" lon="-8.5878683"><ele>67.0</ele><time>2026-05-05T12:07:17.203Z</time></trkpt><trkpt lat="51.6757767" lon="-8.587935"><ele>66.0</ele><time>2026-05-05T12:07:18.203Z</time></trkpt><trkpt lat="51.675595" lon="-8.5880167"><ele>66.0</ele><time>2026-05-05T12:07:19.203Z</time></trkpt><trkpt lat="51.6754117" lon="-8.588095"><ele>66.0</ele><time>2026-05-05T12:07:20.203Z</time></trkpt><trkpt lat="51.6752233" lon="-8.58817"><ele>66.0</ele><time>2026-05-05T12:07:21.203Z</time></trkpt><trkpt lat="51.67503" lon="-8.5882433"><ele>65.66666666666667</ele><time>2026-05-05T12:07:22.203Z</time></trkpt><trkpt lat="51.6748317" lon="-8.5883083"><ele>65.33333333333334</ele><time>2026-05-05T12:07:23.203Z</time></trkpt><trkpt lat="51.6746267" lon="-8.5883583"><ele>65.0</ele><time>2026-05-05T12:07:24.203Z</time></trkpt><trkpt lat="51.6744433" lon="-8.5884"><ele>64.0</ele><time>2026-05-05T12:07:25.203Z</time></trkpt><trkpt lat="51.6742667" lon="-8.5884533"><ele>63.0</ele><time>2026-05-05T12:07:26.203Z</time></trkpt><trkpt lat="51.6740683" lon="-8.58845"><ele>62.0</ele><time>2026-05-05T12:07:27.203Z</time></trkpt><trkpt lat="51.6738783" lon="-8.5884317"><ele>62.0</ele><time>2026-05-05T12:07:28.202Z</time></trkpt><trkpt lat="51.673685" lon="-8.5884"><ele>62.0</ele><time>2026-05-05T12:07:29.202Z</time></trkpt><trkpt lat="51.6734933" lon="-8.5883467"><ele>62.0</ele><time>2026-05-05T12:07:30.203Z</time></trkpt><trkpt lat="51.6733033" lon="-8.5883017"><ele>61.0</ele><time>2026-05-05T12:07:31.203Z</time></trkpt><trkpt lat="51.6731267" lon="-8.58826"><ele>60.0</ele><time>2026-05-05T12:07:32.203Z</time></trkpt><trkpt lat="51.672965" lon="-8.588225"><ele>59.0</ele><time>2026-05-05T12:07:33.203Z</time></trkpt><trkpt lat="51.6728267" lon="-8.5881883"><ele>58.25</ele><time>2026-05-05T12:07:34.202Z</time></trkpt><trkpt lat="51.6726883" lon="-8.58815"><ele>57.5</ele><time>2026-05-05T12:07:35.202Z</time></trkpt><trkpt lat="51.6725633" lon="-8.588135"><ele>56.75</ele><time>2026-05-05T12:07:36.203Z</time></trkpt><trkpt lat="51.6724433" lon="-8.588135"><ele>56.0</ele><time>2026-05-05T12:07:37.203Z</time></trkpt><trkpt lat="51.6723233" lon="-8.5881833"><ele>56.0</ele><time>2026-05-05T12:07:38.203Z</time></trkpt><trkpt lat="51.67219" lon="-8.5882217"><ele>56.0</ele><time>2026-05-05T12:07:39.202Z</time></trkpt><trkpt lat="51.6720567" lon="-8.588275"><ele>56.0</ele><time>2026-05-05T12:07:40.203Z</time></trkpt><trkpt lat="51.67192" lon="-8.588325"><ele>56.0</ele><time>2026-05-05T12:07:41.202Z</time></trkpt><trkpt lat="51.671785" lon="-8.588385"><ele>55.75</ele><time>2026-05-05T12:07:42.203Z</time></trkpt><trkpt lat="51.6716583" lon="-8.5884467"><ele>55.5</ele><time>2026-05-05T12:07:43.203Z</time></trkpt><trkpt lat="51.6715317" lon="-8.5885217"><ele>55.25</ele><time>2026-05-05T12:07:44.203Z</time></trkpt><trkpt lat="51.6714117" lon="-8.5886"><ele>55.0</ele><time>2026-05-05T12:07:45.203Z</time></trkpt><trkpt lat="51.6712983" lon="-8.5886883"><ele>55.0</ele><time>2026-05-05T12:07:46.203Z</time></trkpt><trkpt lat="51.6711883" lon="-8.5887933"><ele>55.0</ele><time>2026-05-05T12:07:47.203Z</time></trkpt><trkpt lat="51.671095" lon="-8.5889333"><ele>55.0</ele><time>2026-05-05T12:07:48.203Z</time></trkpt><trkpt lat="51.6710183" lon="-8.5891367"><ele>55.0</ele><time>2026-05-05T12:07:49.203Z</time></trkpt><trkpt lat="51.6709383" lon="-8.5893783"><ele>52.33333333333333</ele><time>2026-05-05T12:07:50.203Z</time></trkpt><trkpt lat="51.6708817" lon="-8.5896217"><ele>49.666666666666664</ele><time>2026-05-05T12:07:51.202Z</time></trkpt><trkpt lat="51.6708133" lon="-8.58985"><ele>47.0</ele><time>2026-05-05T12:07:52.203Z</time></trkpt><trkpt lat="51.6707283" lon="-8.59004"><ele>47.0</ele><time>2026-05-05T12:07:53.202Z</time></trkpt><trkpt lat="51.67068" lon="-8.5902583"><ele>47.0</ele><time>2026-05-05T12:07:54.203Z</time></trkpt><trkpt lat="51.67063" lon="-8.5904883"><ele>47.0</ele><time>2026-05-05T12:07:55.202Z</time></trkpt><trkpt lat="51.67069" lon="-8.5907433"><ele>46.75</ele><time>2026-05-05T12:07:56.203Z</time></trkpt><trkpt lat="51.670685" lon="-8.590965"><ele>46.5</ele><time>2026-05-05T12:07:57.203Z</time></trkpt><trkpt lat="51.6706583" lon="-8.5911333"><ele>46.25</ele><time>2026-05-05T12:07:58.203Z</time></trkpt><trkpt lat="51.6705667" lon="-8.5912533"><ele>46.0</ele><time>2026-05-05T12:07:59.203Z</time></trkpt><trkpt lat="51.6703967" lon="-8.5913317"><ele>44.0</ele><time>2026-05-05T12:08:00.202Z</time></trkpt><trkpt lat="51.6702433" lon="-8.5914"><ele>42.0</ele><time>2026-05-05T12:08:01.203Z</time></trkpt><trkpt lat="51.6701033" lon="-8.5915"><ele>40.0</ele><time>2026-05-05T12:08:02.203Z</time></trkpt><trkpt lat="51.6699717" lon="-8.5916167"><ele>40.0</ele><time>2026-05-05T12:08:03.203Z</time></trkpt><trkpt lat="51.6698283" lon="-8.5917367"><ele>40.0</ele><time>2026-05-05T12:08:04.203Z</time></trkpt><trkpt lat="51.6696933" lon="-8.5918517"><ele>40.0</ele><time>2026-05-05T12:08:05.202Z</time></trkpt><trkpt lat="51.6695233" lon="-8.5919483"><ele>39.333333333333336</ele><time>2026-05-05T12:08:06.203Z</time></trkpt><trkpt lat="51.6693717" lon="-8.5920417"><ele>38.666666666666664</ele><time>2026-05-05T12:08:07.202Z</time></trkpt><trkpt lat="51.6691867" lon="-8.5921183"><ele>38.0</ele><time>2026-05-05T12:08:08.203Z</time></trkpt><trkpt lat="51.6690467" lon="-8.592225"><ele>38.0</ele><time>2026-05-05T12:08:09.203Z</time></trkpt><trkpt lat="51.6689017" lon="-8.59235"><ele>38.0</ele><time>2026-05-05T12:08:10.202Z</time></trkpt><trkpt lat="51.6687683" lon="-8.5924917"><ele>38.0</ele><time>2026-05-05T12:08:11.203Z</time></trkpt><trkpt lat="51.66865" lon="-8.5926583"><ele>38.5</ele><time>2026-05-05T12:08:12.203Z</time></trkpt><trkpt lat="51.66855" lon="-8.5928183"><ele>39.0</ele><time>2026-05-05T12:08:13.203Z</time></trkpt><trkpt lat="51.6684617" lon="-8.592975"><ele>39.5</ele><time>2026-05-05T12:08:14.203Z</time></trkpt><trkpt lat="51.66837" lon="-8.59312"><ele>40.0</ele><time>2026-05-05T12:08:15.203Z</time></trkpt><trkpt lat="51.6682717" lon="-8.5932717"><ele>38.5</ele><time>2026-05-05T12:08:16.202Z</time></trkpt><trkpt lat="51.6681817" lon="-8.5934317"><ele>37.0</ele><time>2026-05-05T12:08:17.202Z</time></trkpt><trkpt lat="51.668075" lon="-8.5935983"><ele>35.5</ele><time>2026-05-05T12:08:18.203Z</time></trkpt><trkpt lat="51.6679667" lon="-8.5937417"><ele>34.0</ele><time>2026-05-05T12:08:19.203Z</time></trkpt><trkpt lat="51.66789" lon="-8.5938867"><ele>33.0</ele><time>2026-05-05T12:08:20.202Z</time></trkpt><trkpt lat="51.6677883" lon="-8.5940083"><ele>32.0</ele><time>2026-05-05T12:08:21.202Z</time></trkpt><trkpt lat="51.6677033" lon="-8.594135"><ele>31.0</ele><time>2026-05-05T12:08:22.203Z</time></trkpt><trkpt lat="51.6676533" lon="-8.59428"><ele>30.0</ele><time>2026-05-05T12:08:23.202Z</time></trkpt><trkpt lat="51.66755" lon="-8.594385"><ele>28.8</ele><time>2026-05-05T12:08:24.203Z</time></trkpt><trkpt lat="51.6674483" lon="-8.5944767"><ele>27.6</ele><time>2026-05-05T12:08:25.203Z</time></trkpt><trkpt lat="51.66735" lon="-8.594565"><ele>26.4</ele><time>2026-05-05T12:08:26.202Z</time></trkpt><trkpt lat="51.66726" lon="-8.5946333"><ele>25.2</ele><time>2026-05-05T12:08:27.203Z</time></trkpt><trkpt lat="51.667175" lon="-8.5946967"><ele>24.0</ele><time>2026-05-05T12:08:28.203Z</time></trkpt><trkpt lat="51.6670983" lon="-8.59475"><ele>23.428571428571427</ele><time>2026-05-05T12:08:29.202Z</time></trkpt><trkpt lat="51.6670183" lon="-8.5948"><ele>22.857142857142858</ele><time>2026-05-05T12:08:30.203Z</time></trkpt><trkpt lat="51.6669333" lon="-8.594825"><ele>22.285714285714285</ele><time>2026-05-05T12:08:31.202Z</time></trkpt><trkpt lat="51.6668567" lon="-8.5948383"><ele>21.714285714285715</ele><time>2026-05-05T12:08:32.203Z</time></trkpt><trkpt lat="51.6667917" lon="-8.594855"><ele>21.142857142857142</ele><time>2026-05-05T12:08:33.203Z</time></trkpt><trkpt lat="51.6667283" lon="-8.5948833"><ele>20.57142857142857</ele><time>2026-05-05T12:08:34.203Z</time></trkpt><trkpt lat="51.6666717" lon="-8.5949283"><ele>20.0</ele><time>2026-05-05T12:08:35.203Z</time></trkpt><trkpt lat="51.6666217" lon="-8.5949917"><ele>19.833333333333336</ele><time>2026-05-05T12:08:36.203Z</time></trkpt><trkpt lat="51.6665867" lon="-8.5950767"><ele>19.666666666666668</ele><time>2026-05-05T12:08:37.202Z</time></trkpt><trkpt lat="51.6665733" lon="-8.595205"><ele>19.5</ele><time>2026-05-05T12:08:38.203Z</time></trkpt><trkpt lat="51.666545" lon="-8.5953383"><ele>19.333333333333332</ele><time>2026-05-05T12:08:39.202Z</time></trkpt><trkpt lat="51.6665183" lon="-8.5954783"><ele>19.166666666666664</ele><time>2026-05-05T12:08:40.203Z</time></trkpt><trkpt lat="51.666505" lon="-8.595615"><ele>19.0</ele><time>2026-05-05T12:08:41.203Z</time></trkpt><trkpt lat="51.6664783" lon="-8.59576"><ele>18.75</ele><time>2026-05-05T12:08:42.203Z</time></trkpt><trkpt lat="51.6664667" lon="-8.5959267"><ele>18.5</ele><time>2026-05-05T12:08:43.203Z</time></trkpt><trkpt lat="51.66643" lon="-8.5960983"><ele>18.25</ele><time>2026-05-05T12:08:44.203Z</time></trkpt><trkpt lat="51.6663817" lon="-8.5962717"><ele>18.0</ele><time>2026-05-05T12:08:45.203Z</time></trkpt><trkpt lat="51.666325" lon="-8.596435"><ele>18.0</ele><time>2026-05-05T12:08:46.202Z</time></trkpt><trkpt lat="51.66627" lon="-8.5965967"><ele>18.0</ele><time>2026-05-05T12:08:47.203Z</time></trkpt><trkpt lat="51.6662283" lon="-8.5967633"><ele>18.0</ele><time>2026-05-05T12:08:48.203Z</time></trkpt><trkpt lat="51.6661967" lon="-8.5969133"><ele>18.0</ele><time>2026-05-05T12:08:49.203Z</time></trkpt><trkpt lat="51.66615" lon="-8.597035"><ele>18.0</ele><time>2026-05-05T12:08:50.202Z</time></trkpt><trkpt lat="51.6660983" lon="-8.5971317"><ele>18.0</ele><time>2026-05-05T12:08:51.203Z</time></trkpt><trkpt lat="51.6660367" lon="-8.597205"><ele>18.0</ele><time>2026-05-05T12:08:52.202Z</time></trkpt><trkpt lat="51.6659733" lon="-8.5972567"><ele>18.0</ele><time>2026-05-05T12:08:53.203Z</time></trkpt><trkpt lat="51.6659017" lon="-8.5972867"><ele>18.0</ele><time>2026-05-05T12:08:54.203Z</time></trkpt><trkpt lat="51.6658083" lon="-8.5972717"><ele>18.0</ele><time>2026-05-05T12:08:55.203Z</time></trkpt><trkpt lat="51.6657" lon="-8.5972217"><ele>18.0</ele><time>2026-05-05T12:08:56.203Z</time></trkpt><trkpt lat="51.665585" lon="-8.59716"><ele>18.0</ele><time>2026-05-05T12:08:57.203Z</time></trkpt><trkpt lat="51.6654667" lon="-8.5970917"><ele>18.0</ele><time>2026-05-05T12:08:58.202Z</time></trkpt><trkpt lat="51.6653567" lon="-8.5970367"><ele>18.0</ele><time>2026-05-05T12:08:59.202Z</time></trkpt><trkpt lat="51.665245" lon="-8.5969833"><ele>18.0</ele><time>2026-05-05T12:09:00.203Z</time></trkpt><trkpt lat="51.6651283" lon="-8.59692"><ele>18.2</ele><time>2026-05-05T12:09:01.203Z</time></trkpt><trkpt lat="51.6650167" lon="-8.5968667"><ele>18.4</ele><time>2026-05-05T12:09:02.203Z</time></trkpt><trkpt lat="51.6649183" lon="-8.596825"><ele>18.599999999999998</ele><time>2026-05-05T12:09:03.203Z</time></trkpt><trkpt lat="51.6648217" lon="-8.5967667"><ele>18.8</ele><time>2026-05-05T12:09:04.203Z</time></trkpt><trkpt lat="51.6647367" lon="-8.596715"><ele>19.0</ele><time>2026-05-05T12:09:05.203Z</time></trkpt><trkpt lat="51.66465" lon="-8.596665"><ele>19.0</ele><time>2026-05-05T12:09:06.203Z</time></trkpt><trkpt lat="51.6645667" lon="-8.5966233"><ele>19.0</ele><time>2026-05-05T12:09:07.203Z</time></trkpt><trkpt lat="51.66449" lon="-8.59659"><ele>19.0</ele><time>2026-05-05T12:09:08.202Z</time></trkpt><trkpt lat="51.664405" lon="-8.596555"><ele>19.0</ele><time>2026-05-05T12:09:09.202Z</time></trkpt><trkpt lat="51.664325" lon="-8.5965217"><ele>19.0</ele><time>2026-05-05T12:09:10.202Z</time></trkpt><trkpt lat="51.66426" lon="-8.59648"><ele>19.0</ele><time>2026-05-05T12:09:11.203Z</time></trkpt><trkpt lat="51.6641983" lon="-8.596455"><ele>19.5</ele><time>2026-05-05T12:09:12.203Z</time></trkpt><trkpt lat="51.6641033" lon="-8.596415"><ele>20.0</ele><time>2026-05-05T12:09:14.202Z</time></trkpt><trkpt lat="51.6640183" lon="-8.59638"><ele>20.5</ele><time>2026-05-05T12:09:16.202Z</time></trkpt><trkpt lat="51.6639517" lon="-8.5963567"><ele>21.0</ele><time>2026-05-05T12:09:18.203Z</time></trkpt><trkpt lat="51.6638883" lon="-8.5963267"><ele>21.5</ele><time>2026-05-05T12:09:20.202Z</time></trkpt><trkpt lat="51.663805" lon="-8.5963"><ele>22.0</ele><time>2026-05-05T12:09:23.203Z</time></trkpt><trkpt lat="51.66372" lon="-8.5963983"><ele>22.0</ele><time>2026-05-05T12:09:26.203Z</time></trkpt><trkpt lat="51.6636683" lon="-8.59657"><ele>22.0</ele><time>2026-05-05T12:09:28.203Z</time></trkpt><trkpt lat="51.66365" lon="-8.5967017"><ele>22.0</ele><time>2026-05-05T12:09:29.203Z</time></trkpt><trkpt lat="51.6636533" lon="-8.5968767"><ele>22.0</ele><time>2026-05-05T12:09:30.203Z</time></trkpt><trkpt lat="51.6636417" lon="-8.5970533"><ele>22.0</ele><time>2026-05-05T12:09:31.202Z</time></trkpt><trkpt lat="51.6636333" lon="-8.59728"><ele>27.0</ele><time>2026-05-05T12:09:32.202Z</time></trkpt><trkpt lat="51.66359" lon="-8.597565"><ele>32.0</ele><time>2026-05-05T12:09:33.203Z</time></trkpt><trkpt lat="51.6635667" lon="-8.597815"><ele>37.0</ele><time>2026-05-05T12:09:34.202Z</time></trkpt><trkpt lat="51.663545" lon="-8.5980833"><ele>37.0</ele><time>2026-05-05T12:09:35.203Z</time></trkpt><trkpt lat="51.6635283" lon="-8.59833"><ele>37.0</ele><time>2026-05-05T12:09:36.203Z</time></trkpt><trkpt lat="51.6635167" lon="-8.5985583"><ele>37.0</ele><time>2026-05-05T12:09:37.202Z</time></trkpt><trkpt lat="51.6635067" lon="-8.5987683"><ele>37.0</ele><time>2026-05-05T12:09:38.203Z</time></trkpt><trkpt lat="51.663495" lon="-8.5989767"><ele>37.0</ele><time>2026-05-05T12:09:39.203Z</time></trkpt><trkpt lat="51.66347" lon="-8.5991967"><ele>37.0</ele><time>2026-05-05T12:09:40.203Z</time></trkpt><trkpt lat="51.6634483" lon="-8.5994433"><ele>37.0</ele><time>2026-05-05T12:09:41.203Z</time></trkpt><trkpt lat="51.6634217" lon="-8.5996817"><ele>37.0</ele><time>2026-05-05T12:09:42.203Z</time></trkpt><trkpt lat="51.663385" lon="-8.5999233"><ele>37.0</ele><time>2026-05-05T12:09:43.202Z</time></trkpt><trkpt lat="51.6633383" lon="-8.6001533"><ele>37.0</ele><time>2026-05-05T12:09:44.203Z</time></trkpt><trkpt lat="51.6632767" lon="-8.60041"><ele>37.0</ele><time>2026-05-05T12:09:45.203Z</time></trkpt><trkpt lat="51.6632133" lon="-8.6006767"><ele>37.333333333333336</ele><time>2026-05-05T12:09:46.202Z</time></trkpt><trkpt lat="51.663125" lon="-8.6009733"><ele>37.666666666666664</ele><time>2026-05-05T12:09:47.202Z</time></trkpt><trkpt lat="51.6630333" lon="-8.6012483"><ele>38.0</ele><time>2026-05-05T12:09:48.202Z</time></trkpt><trkpt lat="51.662935" lon="-8.6015133"><ele>39.33333333333333</ele><time>2026-05-05T12:09:49.202Z</time></trkpt><trkpt lat="51.6628517" lon="-8.6017667"><ele>40.666666666666664</ele><time>2026-05-05T12:09:50.203Z</time></trkpt><trkpt lat="51.662785" lon="-8.6020133"><ele>42.0</ele><time>2026-05-05T12:09:51.203Z</time></trkpt><trkpt lat="51.6627217" lon="-8.6022417"><ele>45.66666666666667</ele><time>2026-05-05T12:09:52.203Z</time></trkpt><trkpt lat="51.6626683" lon="-8.602465"><ele>49.333333333333336</ele><time>2026-05-05T12:09:53.202Z</time></trkpt><trkpt lat="51.6626083" lon="-8.6026983"><ele>53.0</ele><time>2026-05-05T12:09:54.203Z</time></trkpt><trkpt lat="51.662555" lon="-8.60293"><ele>53.0</ele><time>2026-05-05T12:09:55.203Z</time></trkpt><trkpt lat="51.6625233" lon="-8.6031833"><ele>53.0</ele><time>2026-05-05T12:09:56.202Z</time></trkpt><trkpt lat="51.6625233" lon="-8.60346"><ele>53.0</ele><time>2026-05-05T12:09:57.203Z</time></trkpt><trkpt lat="51.66253" lon="-8.60375"><ele>54.0</ele><time>2026-05-05T12:09:58.203Z</time></trkpt><trkpt lat="51.6625283" lon="-8.60402"><ele>55.0</ele><time>2026-05-05T12:09:59.202Z</time></trkpt><trkpt lat="51.6625367" lon="-8.6042733"><ele>56.0</ele><time>2026-05-05T12:10:00.202Z</time></trkpt><trkpt lat="51.6625633" lon="-8.6045033"><ele>57.66666666666667</ele><time>2026-05-05T12:10:01.203Z</time></trkpt><trkpt lat="51.6626167" lon="-8.6047333"><ele>59.33333333333333</ele><time>2026-05-05T12:10:02.203Z</time></trkpt><trkpt lat="51.6626783" lon="-8.6049667"><ele>61.0</ele><time>2026-05-05T12:10:03.203Z</time></trkpt><trkpt lat="51.6627533" lon="-8.6052"><ele>58.33333333333333</ele><time>2026-05-05T12:10:04.202Z</time></trkpt><trkpt lat="51.66283" lon="-8.6054533"><ele>55.66666666666667</ele><time>2026-05-05T12:10:05.203Z</time></trkpt><trkpt lat="51.6629167" lon="-8.6057083"><ele>53.0</ele><time>2026-05-05T12:10:06.203Z</time></trkpt><trkpt lat="51.6630133" lon="-8.6059483"><ele>52.66666666666667</ele><time>2026-05-05T12:10:07.202Z</time></trkpt><trkpt lat="51.6631133" lon="-8.6061883"><ele>52.33333333333333</ele><time>2026-05-05T12:10:08.202Z</time></trkpt><trkpt lat="51.663215" lon="-8.6064567"><ele>52.0</ele><time>2026-05-05T12:10:09.203Z</time></trkpt><trkpt lat="51.6633033" lon="-8.606675"><ele>52.0</ele><time>2026-05-05T12:10:10.203Z</time></trkpt><trkpt lat="51.6633817" lon="-8.6068767"><ele>52.0</ele><time>2026-05-05T12:10:11.203Z</time></trkpt><trkpt lat="51.6634983" lon="-8.6070767"><ele>52.0</ele><time>2026-05-05T12:10:12.203Z</time></trkpt><trkpt lat="51.663625" lon="-8.6072667"><ele>51.33333333333333</ele><time>2026-05-05T12:10:13.203Z</time></trkpt><trkpt lat="51.6637683" lon="-8.6074117"><ele>50.66666666666667</ele><time>2026-05-05T12:10:14.203Z</time></trkpt><trkpt lat="51.6639" lon="-8.60757"><ele>50.0</ele><time>2026-05-05T12:10:15.202Z</time></trkpt><trkpt lat="51.6640383" lon="-8.6077267"><ele>51.333333333333336</ele><time>2026-05-05T12:10:16.202Z</time></trkpt><trkpt lat="51.6641817" lon="-8.6078917"><ele>52.66666666666667</ele><time>2026-05-05T12:10:17.203Z</time></trkpt><trkpt lat="51.6643333" lon="-8.6080733"><ele>54.0</ele><time>2026-05-05T12:10:18.202Z</time></trkpt><trkpt lat="51.6644933" lon="-8.6082633"><ele>54.66666666666667</ele><time>2026-05-05T12:10:19.203Z</time></trkpt><trkpt lat="51.6646383" lon="-8.6084767"><ele>55.333333333333336</ele><time>2026-05-05T12:10:20.203Z</time></trkpt><trkpt lat="51.6647767" lon="-8.6086917"><ele>56.0</ele><time>2026-05-05T12:10:21.203Z</time></trkpt><trkpt lat="51.6649233" lon="-8.608915"><ele>56.0</ele><time>2026-05-05T12:10:22.203Z</time></trkpt><trkpt lat="51.665075" lon="-8.6091633"><ele>56.0</ele><time>2026-05-05T12:10:23.203Z</time></trkpt><trkpt lat="51.6652317" lon="-8.6094467"><ele>57.5</ele><time>2026-05-05T12:10:24.202Z</time></trkpt><trkpt lat="51.6653967" lon="-8.609715"><ele>59.0</ele><time>2026-05-05T12:10:25.202Z</time></trkpt><trkpt lat="51.6655567" lon="-8.6099917"><ele>59.0</ele><time>2026-05-05T12:10:26.202Z</time></trkpt><trkpt lat="51.6656867" lon="-8.610275"><ele>59.0</ele><time>2026-05-05T12:10:27.202Z</time></trkpt><trkpt lat="51.665815" lon="-8.6105367"><ele>59.0</ele><time>2026-05-05T12:10:28.203Z</time></trkpt><trkpt lat="51.6659317" lon="-8.6107867"><ele>59.333333333333336</ele><time>2026-05-05T12:10:29.203Z</time></trkpt><trkpt lat="51.6660333" lon="-8.6110233"><ele>59.66666666666667</ele><time>2026-05-05T12:10:30.203Z</time></trkpt><trkpt lat="51.66612" lon="-8.611235"><ele>60.0</ele><time>2026-05-05T12:10:31.203Z</time></trkpt><trkpt lat="51.6661733" lon="-8.61143"><ele>60.0</ele><time>2026-05-05T12:10:32.203Z</time></trkpt><trkpt lat="51.6662067" lon="-8.6116233"><ele>60.0</ele><time>2026-05-05T12:10:33.202Z</time></trkpt><trkpt lat="51.6662183" lon="-8.61185"><ele>60.0</ele><time>2026-05-05T12:10:34.202Z</time></trkpt><trkpt lat="51.66624" lon="-8.612105"><ele>60.0</ele><time>2026-05-05T12:10:35.203Z</time></trkpt><trkpt lat="51.666235" lon="-8.6123817"><ele>60.33333333333333</ele><time>2026-05-05T12:10:36.202Z</time></trkpt><trkpt lat="51.6662367" lon="-8.612665"><ele>60.666666666666664</ele><time>2026-05-05T12:10:37.202Z</time></trkpt><trkpt lat="51.666235" lon="-8.61296"><ele>61.0</ele><time>2026-05-05T12:10:38.203Z</time></trkpt><trkpt lat="51.666225" lon="-8.613265"><ele>61.33333333333333</ele><time>2026-05-05T12:10:39.203Z</time></trkpt><trkpt lat="51.6662283" lon="-8.61357"><ele>61.66666666666667</ele><time>2026-05-05T12:10:40.202Z</time></trkpt><trkpt lat="51.6662283" lon="-8.6138733"><ele>62.0</ele><time>2026-05-05T12:10:41.203Z</time></trkpt><trkpt lat="51.6662167" lon="-8.6141883"><ele>63.333333333333336</ele><time>2026-05-05T12:10:42.203Z</time></trkpt><trkpt lat="51.6661683" lon="-8.614525"><ele>64.66666666666667</ele><time>2026-05-05T12:10:43.202Z</time></trkpt><trkpt lat="51.66612" lon="-8.6148633"><ele>66.0</ele><time>2026-05-05T12:10:44.202Z</time></trkpt><trkpt lat="51.6660833" lon="-8.6151983"><ele>66.33333333333333</ele><time>2026-05-05T12:10:45.203Z</time></trkpt><trkpt lat="51.6660433" lon="-8.61554"><ele>66.66666666666666</ele><time>2026-05-05T12:10:46.203Z</time></trkpt><trkpt lat="51.6659983" lon="-8.6158817"><ele>67.0</ele><time>2026-05-05T12:10:47.202Z</time></trkpt><trkpt lat="51.6659633" lon="-8.616225"><ele>67.0</ele><time>2026-05-05T12:10:48.203Z</time></trkpt><trkpt lat="51.6659317" lon="-8.6165817"><ele>67.0</ele><time>2026-05-05T12:10:49.203Z</time></trkpt><trkpt lat="51.6658967" lon="-8.6169533"><ele>67.5</ele><time>2026-05-05T12:10:50.203Z</time></trkpt><trkpt lat="51.665865" lon="-8.61733"><ele>68.0</ele><time>2026-05-05T12:10:51.202Z</time></trkpt><trkpt lat="51.6658317" lon="-8.61771"><ele>68.5</ele><time>2026-05-05T12:10:52.202Z</time></trkpt><trkpt lat="51.6658083" lon="-8.6180917"><ele>69.0</ele><time>2026-05-05T12:10:53.203Z</time></trkpt><trkpt lat="51.6657867" lon="-8.618475"><ele>69.5</ele><time>2026-05-05T12:10:54.202Z</time></trkpt><trkpt lat="51.6657683" lon="-8.6188617"><ele>70.0</ele><time>2026-05-05T12:10:55.203Z</time></trkpt><trkpt lat="51.665755" lon="-8.61925"><ele>70.5</ele><time>2026-05-05T12:10:56.203Z</time></trkpt><trkpt lat="51.6657333" lon="-8.6196433"><ele>71.0</ele><time>2026-05-05T12:10:57.203Z</time></trkpt><trkpt lat="51.665715" lon="-8.6200383"><ele>71.5</ele><time>2026-05-05T12:10:58.203Z</time></trkpt><trkpt lat="51.665705" lon="-8.62043"><ele>72.0</ele><time>2026-05-05T12:10:59.202Z</time></trkpt><trkpt lat="51.6656967" lon="-8.620815"><ele>72.5</ele><time>2026-05-05T12:11:00.202Z</time></trkpt><trkpt lat="51.6656883" lon="-8.6212033"><ele>73.0</ele><time>2026-05-05T12:11:01.203Z</time></trkpt><trkpt lat="51.6656783" lon="-8.6215867"><ele>73.0</ele><time>2026-05-05T12:11:02.203Z</time></trkpt><trkpt lat="51.6656717" lon="-8.6219567"><ele>73.0</ele><time>2026-05-05T12:11:03.203Z</time></trkpt><trkpt lat="51.6656617" lon="-8.6223233"><ele>74.0</ele><time>2026-05-05T12:11:04.203Z</time></trkpt><trkpt lat="51.665655" lon="-8.6226933"><ele>75.0</ele><time>2026-05-05T12:11:05.202Z</time></trkpt><trkpt lat="51.6656433" lon="-8.62307"><ele>75.66666666666667</ele><time>2026-05-05T12:11:06.203Z</time></trkpt><trkpt lat="51.66562" lon="-8.6234317"><ele>76.33333333333334</ele><time>2026-05-05T12:11:07.202Z</time></trkpt><trkpt lat="51.665605" lon="-8.6237717"><ele>77.0</ele><time>2026-05-05T12:11:08.202Z</time></trkpt><trkpt lat="51.6655967" lon="-8.6240967"><ele>77.66666666666667</ele><time>2026-05-05T12:11:09.203Z</time></trkpt><trkpt lat="51.6655833" lon="-8.62442"><ele>78.33333333333333</ele><time>2026-05-05T12:11:10.203Z</time></trkpt><trkpt lat="51.6655783" lon="-8.62473"><ele>79.0</ele><time>2026-05-05T12:11:11.203Z</time></trkpt><trkpt lat="51.6655367" lon="-8.6250583"><ele>81.0</ele><time>2026-05-05T12:11:12.203Z</time></trkpt><trkpt lat="51.6655" lon="-8.62538"><ele>83.0</ele><time>2026-05-05T12:11:13.202Z</time></trkpt><trkpt lat="51.66545" lon="-8.625695"><ele>85.0</ele><time>2026-05-05T12:11:14.203Z</time></trkpt><trkpt lat="51.6654017" lon="-8.6260317"><ele>85.0</ele><time>2026-05-05T12:11:15.202Z</time></trkpt><trkpt lat="51.6653717" lon="-8.6263583"><ele>85.0</ele><time>2026-05-05T12:11:16.203Z</time></trkpt><trkpt lat="51.6653517" lon="-8.6266733"><ele>85.0</ele><time>2026-05-05T12:11:17.203Z</time></trkpt><trkpt lat="51.6653383" lon="-8.6269733"><ele>85.66666666666666</ele><time>2026-05-05T12:11:18.203Z</time></trkpt><trkpt lat="51.665325" lon="-8.62725"><ele>86.33333333333333</ele><time>2026-05-05T12:11:19.203Z</time></trkpt><trkpt lat="51.66533" lon="-8.6274917"><ele>87.0</ele><time>2026-05-05T12:11:20.202Z</time></trkpt><trkpt lat="51.6653317" lon="-8.6277283"><ele>88.0</ele><time>2026-05-05T12:11:21.203Z</time></trkpt><trkpt lat="51.66533" lon="-8.6279733"><ele>89.0</ele><time>2026-05-05T12:11:22.203Z</time></trkpt><trkpt lat="51.6653117" lon="-8.6281983"><ele>90.0</ele><time>2026-05-05T12:11:23.203Z</time></trkpt><trkpt lat="51.6653117" lon="-8.6284"><ele>91.0</ele><time>2026-05-05T12:11:24.203Z</time></trkpt><trkpt lat="51.6653167" lon="-8.62862"><ele>91.0</ele><time>2026-05-05T12:11:25.203Z</time></trkpt><trkpt lat="51.6653317" lon="-8.6288467"><ele>91.0</ele><time>2026-05-05T12:11:26.203Z</time></trkpt><trkpt lat="51.6653583" lon="-8.6290983"><ele>91.0</ele><time>2026-05-05T12:11:27.203Z</time></trkpt><trkpt lat="51.6653867" lon="-8.62937"><ele>91.0</ele><time>2026-05-05T12:11:28.202Z</time></trkpt><trkpt lat="51.6654283" lon="-8.629635"><ele>91.0</ele><time>2026-05-05T12:11:29.203Z</time></trkpt><trkpt lat="51.6654717" lon="-8.6299233"><ele>91.0</ele><time>2026-05-05T12:11:30.203Z</time></trkpt><trkpt lat="51.6655217" lon="-8.6302283"><ele>90.66666666666666</ele><time>2026-05-05T12:11:31.202Z</time></trkpt><trkpt lat="51.6655717" lon="-8.6305367"><ele>90.33333333333333</ele><time>2026-05-05T12:11:32.203Z</time></trkpt><trkpt lat="51.6656167" lon="-8.63085"><ele>90.0</ele><time>2026-05-05T12:11:33.203Z</time></trkpt><trkpt lat="51.665665" lon="-8.6311683"><ele>89.33333333333333</ele><time>2026-05-05T12:11:34.203Z</time></trkpt><trkpt lat="51.6656983" lon="-8.6314967"><ele>88.66666666666666</ele><time>2026-05-05T12:11:35.203Z</time></trkpt><trkpt lat="51.66572" lon="-8.631845"><ele>88.0</ele><time>2026-05-05T12:11:36.203Z</time></trkpt><trkpt lat="51.6657367" lon="-8.632205"><ele>88.0</ele><time>2026-05-05T12:11:37.203Z</time></trkpt><trkpt lat="51.6657467" lon="-8.63256"><ele>88.0</ele><time>2026-05-05T12:11:38.203Z</time></trkpt><trkpt lat="51.6657583" lon="-8.632915"><ele>88.0</ele><time>2026-05-05T12:11:39.202Z</time></trkpt><trkpt lat="51.6657783" lon="-8.633265"><ele>88.0</ele><time>2026-05-05T12:11:40.203Z</time></trkpt><trkpt lat="51.66579" lon="-8.6336117"><ele>88.0</ele><time>2026-05-05T12:11:41.203Z</time></trkpt><trkpt lat="51.6657933" lon="-8.6339383"><ele>88.0</ele><time>2026-05-05T12:11:42.202Z</time></trkpt><trkpt lat="51.6657767" lon="-8.6342783"><ele>88.33333333333333</ele><time>2026-05-05T12:11:43.203Z</time></trkpt><trkpt lat="51.6657583" lon="-8.634615"><ele>88.66666666666667</ele><time>2026-05-05T12:11:44.202Z</time></trkpt><trkpt lat="51.66573" lon="-8.6349483"><ele>89.0</ele><time>2026-05-05T12:11:45.202Z</time></trkpt><trkpt lat="51.6656883" lon="-8.6352767"><ele>89.0</ele><time>2026-05-05T12:11:46.202Z</time></trkpt><trkpt lat="51.6656367" lon="-8.6356083"><ele>89.0</ele><time>2026-05-05T12:11:47.203Z</time></trkpt><trkpt lat="51.6655783" lon="-8.635935"><ele>89.0</ele><time>2026-05-05T12:11:48.202Z</time></trkpt><trkpt lat="51.6655233" lon="-8.6362533"><ele>89.33333333333334</ele><time>2026-05-05T12:11:49.203Z</time></trkpt><trkpt lat="51.6654867" lon="-8.6365767"><ele>89.66666666666667</ele><time>2026-05-05T12:11:50.202Z</time></trkpt><trkpt lat="51.6654633" lon="-8.6369"><ele>90.0</ele><time>2026-05-05T12:11:51.203Z</time></trkpt><trkpt lat="51.6654433" lon="-8.6372183"><ele>90.33333333333333</ele><time>2026-05-05T12:11:52.202Z</time></trkpt><trkpt lat="51.6654083" lon="-8.6375433"><ele>90.66666666666666</ele><time>2026-05-05T12:11:53.202Z</time></trkpt><trkpt lat="51.6653717" lon="-8.63786"><ele>91.0</ele><time>2026-05-05T12:11:54.202Z</time></trkpt><trkpt lat="51.66535" lon="-8.6381617"><ele>91.33333333333333</ele><time>2026-05-05T12:11:55.203Z</time></trkpt><trkpt lat="51.665325" lon="-8.6384617"><ele>91.66666666666667</ele><time>2026-05-05T12:11:56.203Z</time></trkpt><trkpt lat="51.66531" lon="-8.63876"><ele>92.0</ele><time>2026-05-05T12:11:57.202Z</time></trkpt><trkpt lat="51.665295" lon="-8.6390683"><ele>90.33333333333334</ele><time>2026-05-05T12:11:58.203Z</time></trkpt><trkpt lat="51.665275" lon="-8.6393767"><ele>88.66666666666667</ele><time>2026-05-05T12:11:59.203Z</time></trkpt><trkpt lat="51.66525" lon="-8.639675"><ele>87.0</ele><time>2026-05-05T12:12:00.202Z</time></trkpt><trkpt lat="51.6652133" lon="-8.6399517"><ele>86.66666666666667</ele><time>2026-05-05T12:12:01.202Z</time></trkpt><trkpt lat="51.6651533" lon="-8.640225"><ele>86.33333333333334</ele><time>2026-05-05T12:12:02.202Z</time></trkpt><trkpt lat="51.6650883" lon="-8.640495"><ele>86.0</ele><time>2026-05-05T12:12:03.203Z</time></trkpt><trkpt lat="51.665" lon="-8.6407733"><ele>86.66666666666667</ele><time>2026-05-05T12:12:04.203Z</time></trkpt><trkpt lat="51.66491" lon="-8.6410633"><ele>87.33333333333333</ele><time>2026-05-05T12:12:05.203Z</time></trkpt><trkpt lat="51.6648" lon="-8.6413783"><ele>88.0</ele><time>2026-05-05T12:12:06.202Z</time></trkpt><trkpt lat="51.6647117" lon="-8.6416733"><ele>89.66666666666666</ele><time>2026-05-05T12:12:07.202Z</time></trkpt><trkpt lat="51.6646333" lon="-8.641975"><ele>91.33333333333333</ele><time>2026-05-05T12:12:08.203Z</time></trkpt><trkpt lat="51.6645717" lon="-8.6422583"><ele>93.0</ele><time>2026-05-05T12:12:09.203Z</time></trkpt><trkpt lat="51.6645217" lon="-8.6425217"><ele>93.0</ele><time>2026-05-05T12:12:10.203Z</time></trkpt><trkpt lat="51.6644733" lon="-8.6427733"><ele>93.0</ele><time>2026-05-05T12:12:11.202Z</time></trkpt><trkpt lat="51.6644283" lon="-8.6430217"><ele>93.0</ele><time>2026-05-05T12:12:12.202Z</time></trkpt><trkpt lat="51.66437" lon="-8.643265"><ele>90.33333333333333</ele><time>2026-05-05T12:12:13.203Z</time></trkpt><trkpt lat="51.6643183" lon="-8.643545"><ele>87.66666666666666</ele><time>2026-05-05T12:12:14.202Z</time></trkpt><trkpt lat="51.664275" lon="-8.64384"><ele>85.0</ele><time>2026-05-05T12:12:15.203Z</time></trkpt><trkpt lat="51.6642433" lon="-8.644145"><ele>85.0</ele><time>2026-05-05T12:12:16.203Z</time></trkpt><trkpt lat="51.6642217" lon="-8.6444467"><ele>85.0</ele><time>2026-05-05T12:12:17.203Z</time></trkpt><trkpt lat="51.6642083" lon="-8.6447267"><ele>85.0</ele><time>2026-05-05T12:12:18.202Z</time></trkpt><trkpt lat="51.6642033" lon="-8.6449983"><ele>84.66666666666666</ele><time>2026-05-05T12:12:19.202Z</time></trkpt><trkpt lat="51.6642017" lon="-8.6452683"><ele>84.33333333333333</ele><time>2026-05-05T12:12:20.203Z</time></trkpt><trkpt lat="51.6641917" lon="-8.64554"><ele>84.0</ele><time>2026-05-05T12:12:21.202Z</time></trkpt><trkpt lat="51.664185" lon="-8.645805"><ele>83.33333333333333</ele><time>2026-05-05T12:12:22.203Z</time></trkpt><trkpt lat="51.6642017" lon="-8.6460517"><ele>82.66666666666666</ele><time>2026-05-05T12:12:23.203Z</time></trkpt><trkpt lat="51.6642283" lon="-8.6463067"><ele>82.0</ele><time>2026-05-05T12:12:24.202Z</time></trkpt><trkpt lat="51.6642633" lon="-8.64657"><ele>81.66666666666666</ele><time>2026-05-05T12:12:25.203Z</time></trkpt><trkpt lat="51.6642667" lon="-8.6468567"><ele>81.33333333333333</ele><time>2026-05-05T12:12:26.203Z</time></trkpt><trkpt lat="51.664255" lon="-8.6471333"><ele>81.0</ele><time>2026-05-05T12:12:27.203Z</time></trkpt><trkpt lat="51.6642383" lon="-8.647415"><ele>81.0</ele><time>2026-05-05T12:12:28.203Z</time></trkpt><trkpt lat="51.6642117" lon="-8.64769"><ele>81.0</ele><time>2026-05-05T12:12:29.202Z</time></trkpt><trkpt lat="51.6641617" lon="-8.64796"><ele>81.0</ele><time>2026-05-05T12:12:30.203Z</time></trkpt><trkpt lat="51.6641" lon="-8.6482467"><ele>82.33333333333333</ele><time>2026-05-05T12:12:31.203Z</time></trkpt><trkpt lat="51.6640267" lon="-8.6485167"><ele>83.66666666666666</ele><time>2026-05-05T12:12:32.203Z</time></trkpt><trkpt lat="51.6639617" lon="-8.6487733"><ele>85.0</ele><time>2026-05-05T12:12:33.203Z</time></trkpt><trkpt lat="51.6639017" lon="-8.64902"><ele>85.33333333333333</ele><time>2026-05-05T12:12:34.202Z</time></trkpt><trkpt lat="51.6638317" lon="-8.6492683"><ele>85.66666666666667</ele><time>2026-05-05T12:12:35.203Z</time></trkpt><trkpt lat="51.6637383" lon="-8.649515"><ele>86.0</ele><time>2026-05-05T12:12:36.202Z</time></trkpt><trkpt lat="51.66363" lon="-8.6497533"><ele>84.33333333333334</ele><time>2026-05-05T12:12:37.203Z</time></trkpt><trkpt lat="51.663505" lon="-8.6499883"><ele>82.66666666666667</ele><time>2026-05-05T12:12:38.202Z</time></trkpt><trkpt lat="51.6633683" lon="-8.65021"><ele>81.0</ele><time>2026-05-05T12:12:39.202Z</time></trkpt><trkpt lat="51.6632017" lon="-8.650415"><ele>81.0</ele><time>2026-05-05T12:12:40.202Z</time></trkpt><trkpt lat="51.6630383" lon="-8.650625"><ele>81.0</ele><time>2026-05-05T12:12:41.203Z</time></trkpt><trkpt lat="51.6628767" lon="-8.6508433"><ele>81.0</ele><time>2026-05-05T12:12:42.202Z</time></trkpt><trkpt lat="51.6627517" lon="-8.651055"><ele>79.66666666666667</ele><time>2026-05-05T12:12:43.202Z</time></trkpt><trkpt lat="51.662645" lon="-8.6512867"><ele>78.33333333333334</ele><time>2026-05-05T12:12:44.203Z</time></trkpt><trkpt lat="51.6625517" lon="-8.6515317"><ele>77.0</ele><time>2026-05-05T12:12:45.203Z</time></trkpt><trkpt lat="51.6624567" lon="-8.6517917"><ele>76.33333333333334</ele><time>2026-05-05T12:12:46.203Z</time></trkpt><trkpt lat="51.6623667" lon="-8.652085"><ele>75.66666666666667</ele><time>2026-05-05T12:12:47.203Z</time></trkpt><trkpt lat="51.66228" lon="-8.6523967"><ele>75.0</ele><time>2026-05-05T12:12:48.203Z</time></trkpt><trkpt lat="51.6622017" lon="-8.6527067"><ele>74.0</ele><time>2026-05-05T12:12:49.203Z</time></trkpt><trkpt lat="51.6621333" lon="-8.6530133"><ele>73.0</ele><time>2026-05-05T12:12:50.203Z</time></trkpt><trkpt lat="51.6620733" lon="-8.6533233"><ele>72.0</ele><time>2026-05-05T12:12:51.202Z</time></trkpt><trkpt lat="51.662025" lon="-8.6536317"><ele>71.66666666666667</ele><time>2026-05-05T12:12:52.203Z</time></trkpt><trkpt lat="51.661985" lon="-8.6539367"><ele>71.33333333333334</ele><time>2026-05-05T12:12:53.203Z</time></trkpt><trkpt lat="51.6619483" lon="-8.6542417"><ele>71.0</ele><time>2026-05-05T12:12:54.202Z</time></trkpt><trkpt lat="51.66192" lon="-8.65456"><ele>69.66666666666667</ele><time>2026-05-05T12:12:55.203Z</time></trkpt><trkpt lat="51.6618983" lon="-8.65489"><ele>68.33333333333333</ele><time>2026-05-05T12:12:56.203Z</time></trkpt><trkpt lat="51.6618883" lon="-8.6552317"><ele>67.0</ele><time>2026-05-05T12:12:57.202Z</time></trkpt><trkpt lat="51.661885" lon="-8.6555767"><ele>66.0</ele><time>2026-05-05T12:12:58.202Z</time></trkpt><trkpt lat="51.6618767" lon="-8.6559233"><ele>65.0</ele><time>2026-05-05T12:12:59.203Z</time></trkpt><trkpt lat="51.661875" lon="-8.6562783"><ele>64.0</ele><time>2026-05-05T12:13:00.203Z</time></trkpt><trkpt lat="51.6618783" lon="-8.6566417"><ele>63.5</ele><time>2026-05-05T12:13:01.202Z</time></trkpt><trkpt lat="51.6618867" lon="-8.6570117"><ele>63.0</ele><time>2026-05-05T12:13:02.203Z</time></trkpt><trkpt lat="51.6618933" lon="-8.65738"><ele>63.0</ele><time>2026-05-05T12:13:03.203Z</time></trkpt><trkpt lat="51.6618983" lon="-8.6577433"><ele>63.0</ele><time>2026-05-05T12:13:04.202Z</time></trkpt><trkpt lat="51.6619017" lon="-8.6580983"><ele>63.0</ele><time>2026-05-05T12:13:05.203Z</time></trkpt><trkpt lat="51.6619" lon="-8.6584517"><ele>61.0</ele><time>2026-05-05T12:13:06.203Z</time></trkpt><trkpt lat="51.6619" lon="-8.6587917"><ele>59.0</ele><time>2026-05-05T12:13:07.203Z</time></trkpt><trkpt lat="51.6619017" lon="-8.6591183"><ele>57.0</ele><time>2026-05-05T12:13:08.203Z</time></trkpt><trkpt lat="51.6618917" lon="-8.6594567"><ele>56.66666666666667</ele><time>2026-05-05T12:13:09.202Z</time></trkpt><trkpt lat="51.6618983" lon="-8.65979"><ele>56.333333333333336</ele><time>2026-05-05T12:13:10.202Z</time></trkpt><trkpt lat="51.6619033" lon="-8.6601183"><ele>56.0</ele><time>2026-05-05T12:13:11.203Z</time></trkpt><trkpt lat="51.6618933" lon="-8.6604617"><ele>55.333333333333336</ele><time>2026-05-05T12:13:12.202Z</time></trkpt><trkpt lat="51.66189" lon="-8.6607683"><ele>54.66666666666667</ele><time>2026-05-05T12:13:13.203Z</time></trkpt><trkpt lat="51.6618917" lon="-8.6610483"><ele>54.0</ele><time>2026-05-05T12:13:14.203Z</time></trkpt><trkpt lat="51.6618733" lon="-8.66129"><ele>53.25</ele><time>2026-05-05T12:13:15.203Z</time></trkpt><trkpt lat="51.6618417" lon="-8.6615117"><ele>52.5</ele><time>2026-05-05T12:13:16.202Z</time></trkpt><trkpt lat="51.6617983" lon="-8.6617117"><ele>51.75</ele><time>2026-05-05T12:13:17.203Z</time></trkpt><trkpt lat="51.6617383" lon="-8.6618867"><ele>51.0</ele><time>2026-05-05T12:13:18.203Z</time></trkpt><trkpt lat="51.661655" lon="-8.6620567"><ele>51.0</ele><time>2026-05-05T12:13:19.203Z</time></trkpt><trkpt lat="51.6615033" lon="-8.662235"><ele>51.0</ele><time>2026-05-05T12:13:20.202Z</time></trkpt><trkpt lat="51.6613567" lon="-8.6624117"><ele>51.0</ele><time>2026-05-05T12:13:21.202Z</time></trkpt><trkpt lat="51.6611933" lon="-8.662575"><ele>50.33333333333333</ele><time>2026-05-05T12:13:22.203Z</time></trkpt><trkpt lat="51.6610217" lon="-8.6627517"><ele>49.666666666666664</ele><time>2026-05-05T12:13:23.202Z</time></trkpt><trkpt lat="51.6608417" lon="-8.662935"><ele>49.0</ele><time>2026-05-05T12:13:24.202Z</time></trkpt><trkpt lat="51.6606667" lon="-8.6631233"><ele>48.666666666666664</ele><time>2026-05-05T12:13:25.203Z</time></trkpt><trkpt lat="51.6604883" lon="-8.663315"><ele>48.33333333333333</ele><time>2026-05-05T12:13:26.202Z</time></trkpt><trkpt lat="51.660325" lon="-8.6635067"><ele>48.0</ele><time>2026-05-05T12:13:27.203Z</time></trkpt><trkpt lat="51.6601617" lon="-8.663695"><ele>46.666666666666664</ele><time>2026-05-05T12:13:28.202Z</time></trkpt><trkpt lat="51.6599933" lon="-8.663875"><ele>45.33333333333333</ele><time>2026-05-05T12:13:29.202Z</time></trkpt><trkpt lat="51.65982" lon="-8.6640417"><ele>44.0</ele><time>2026-05-05T12:13:30.203Z</time></trkpt><trkpt lat="51.6596467" lon="-8.664195"><ele>42.0</ele><time>2026-05-05T12:13:31.203Z</time></trkpt><trkpt lat="51.65945" lon="-8.6643083"><ele>40.0</ele><time>2026-05-05T12:13:32.203Z</time></trkpt><trkpt lat="51.659275" lon="-8.6644233"><ele>38.0</ele><time>2026-05-05T12:13:33.203Z</time></trkpt><trkpt lat="51.6591083" lon="-8.6645433"><ele>38.0</ele><time>2026-05-05T12:13:34.203Z</time></trkpt><trkpt lat="51.6589433" lon="-8.6646467"><ele>38.0</ele><time>2026-05-05T12:13:35.203Z</time></trkpt><trkpt lat="51.6587817" lon="-8.664735"><ele>38.0</ele><time>2026-05-05T12:13:36.203Z</time></trkpt><trkpt lat="51.6586067" lon="-8.6648167"><ele>35.666666666666664</ele><time>2026-05-05T12:13:37.202Z</time></trkpt><trkpt lat="51.6584467" lon="-8.66489"><ele>33.333333333333336</ele><time>2026-05-05T12:13:38.202Z</time></trkpt><trkpt lat="51.65829" lon="-8.6649617"><ele>31.0</ele><time>2026-05-05T12:13:39.202Z</time></trkpt><trkpt lat="51.658125" lon="-8.6650583"><ele>31.0</ele><time>2026-05-05T12:13:40.202Z</time></trkpt><trkpt lat="51.6579517" lon="-8.66517"><ele>31.0</ele><time>2026-05-05T12:13:41.202Z</time></trkpt><trkpt lat="51.6577733" lon="-8.6653017"><ele>31.0</ele><time>2026-05-05T12:13:42.202Z</time></trkpt><trkpt lat="51.657535" lon="-8.6654167"><ele>27.666666666666668</ele><time>2026-05-05T12:13:43.203Z</time></trkpt><trkpt lat="51.65736" lon="-8.665555"><ele>24.333333333333336</ele><time>2026-05-05T12:13:44.202Z</time></trkpt><trkpt lat="51.6571733" lon="-8.6656617"><ele>21.0</ele><time>2026-05-05T12:13:45.203Z</time></trkpt><trkpt lat="51.6570233" lon="-8.6657767"><ele>19.0</ele><time>2026-05-05T12:13:46.203Z</time></trkpt><trkpt lat="51.656875" lon="-8.6658817"><ele>17.0</ele><time>2026-05-05T12:13:47.203Z</time></trkpt><trkpt lat="51.6567433" lon="-8.665985"><ele>15.0</ele><time>2026-05-05T12:13:48.203Z</time></trkpt><trkpt lat="51.6566317" lon="-8.666085"><ele>13.0</ele><time>2026-05-05T12:13:49.202Z</time></trkpt><trkpt lat="51.65653" lon="-8.6662"><ele>12.75</ele><time>2026-05-05T12:13:50.203Z</time></trkpt><trkpt lat="51.6564483" lon="-8.6663317"><ele>12.5</ele><time>2026-05-05T12:13:51.203Z</time></trkpt><trkpt lat="51.6564" lon="-8.66647"><ele>12.25</ele><time>2026-05-05T12:13:52.203Z</time></trkpt><trkpt lat="51.6563383" lon="-8.6666417"><ele>12.0</ele><time>2026-05-05T12:13:53.202Z</time></trkpt><trkpt lat="51.6563167" lon="-8.66685"><ele>11.75</ele><time>2026-05-05T12:13:54.203Z</time></trkpt><trkpt lat="51.656295" lon="-8.6670833"><ele>11.5</ele><time>2026-05-05T12:13:55.202Z</time></trkpt><trkpt lat="51.6562967" lon="-8.6673117"><ele>11.25</ele><time>2026-05-05T12:13:56.202Z</time></trkpt><trkpt lat="51.65631" lon="-8.6675333"><ele>11.0</ele><time>2026-05-05T12:13:57.203Z</time></trkpt><trkpt lat="51.6563333" lon="-8.6677567"><ele>10.25</ele><time>2026-05-05T12:13:58.202Z</time></trkpt><trkpt lat="51.65638" lon="-8.6679633"><ele>9.5</ele><time>2026-05-05T12:13:59.203Z</time></trkpt><trkpt lat="51.65646" lon="-8.6681583"><ele>8.75</ele><time>2026-05-05T12:14:00.202Z</time></trkpt><trkpt lat="51.656535" lon="-8.6683333"><ele>8.0</ele><time>2026-05-05T12:14:01.203Z</time></trkpt><trkpt lat="51.6566283" lon="-8.66849"><ele>8.0</ele><time>2026-05-05T12:14:02.202Z</time></trkpt><trkpt lat="51.6567333" lon="-8.6686083"><ele>8.0</ele><time>2026-05-05T12:14:03.203Z</time></trkpt><trkpt lat="51.656855" lon="-8.66871"><ele>8.0</ele><time>2026-05-05T12:14:04.202Z</time></trkpt><trkpt lat="51.65697" lon="-8.6688217"><ele>8.0</ele><time>2026-05-05T12:14:05.203Z</time></trkpt><trkpt lat="51.6570683" lon="-8.6689717"><ele>8.25</ele><time>2026-05-05T12:14:06.203Z</time></trkpt><trkpt lat="51.657155" lon="-8.6691467"><ele>8.5</ele><time>2026-05-05T12:14:07.203Z</time></trkpt><trkpt lat="51.65723" lon="-8.6693417"><ele>8.75</ele><time>2026-05-05T12:14:08.203Z</time></trkpt><trkpt lat="51.6572733" lon="-8.6695533"><ele>9.0</ele><time>2026-05-05T12:14:09.203Z</time></trkpt><trkpt lat="51.6572933" lon="-8.66976"><ele>9.2</ele><time>2026-05-05T12:14:10.203Z</time></trkpt><trkpt lat="51.6573117" lon="-8.669955"><ele>9.4</ele><time>2026-05-05T12:14:11.202Z</time></trkpt><trkpt lat="51.6573217" lon="-8.6700867"><ele>9.6</ele><time>2026-05-05T12:14:12.203Z</time></trkpt><trkpt lat="51.6573267" lon="-8.6702433"><ele>9.8</ele><time>2026-05-05T12:14:14.203Z</time></trkpt><trkpt lat="51.6573017" lon="-8.6703433"><ele>10.0</ele><time>2026-05-05T12:14:16.203Z</time></trkpt><trkpt lat="51.6572983" lon="-8.6705217"><ele>10.0</ele><time>2026-05-05T12:14:18.203Z</time></trkpt><trkpt lat="51.6573117" lon="-8.67064"><ele>10.0</ele><time>2026-05-05T12:14:19.203Z</time></trkpt><trkpt lat="51.6573333" lon="-8.67078"><ele>10.0</ele><time>2026-05-05T12:14:20.203Z</time></trkpt><trkpt lat="51.6573683" lon="-8.670935"><ele>10.0</ele><time>2026-05-05T12:14:21.203Z</time></trkpt><trkpt lat="51.65741" lon="-8.6711133"><ele>10.0</ele><time>2026-05-05T12:14:22.203Z</time></trkpt><trkpt lat="51.6574617" lon="-8.6713117"><ele>9.0</ele><time>2026-05-05T12:14:23.202Z</time></trkpt><trkpt lat="51.6575283" lon="-8.6715083"><ele>8.0</ele><time>2026-05-05T12:14:24.202Z</time></trkpt><trkpt lat="51.6575933" lon="-8.6717133"><ele>7.0</ele><time>2026-05-05T12:14:25.202Z</time></trkpt><trkpt lat="51.657655" lon="-8.6719467"><ele>6.0</ele><time>2026-05-05T12:14:26.202Z</time></trkpt><trkpt lat="51.6577217" lon="-8.6721733"><ele>7.25</ele><time>2026-05-05T12:14:27.203Z</time></trkpt><trkpt lat="51.65779" lon="-8.6723867"><ele>8.5</ele><time>2026-05-05T12:14:28.203Z</time></trkpt><trkpt lat="51.6578583" lon="-8.6725783"><ele>9.75</ele><time>2026-05-05T12:14:29.203Z</time></trkpt><trkpt lat="51.6579183" lon="-8.672765"><ele>11.0</ele><time>2026-05-05T12:14:30.203Z</time></trkpt><trkpt lat="51.6579733" lon="-8.672925"><ele>11.0</ele><time>2026-05-05T12:14:31.203Z</time></trkpt><trkpt lat="51.6580217" lon="-8.6730683"><ele>11.0</ele><time>2026-05-05T12:14:32.202Z</time></trkpt><trkpt lat="51.6580633" lon="-8.6731933"><ele>11.0</ele><time>2026-05-05T12:14:33.203Z</time></trkpt><trkpt lat="51.6581067" lon="-8.6733167"><ele>11.0</ele><time>2026-05-05T12:14:34.202Z</time></trkpt><trkpt lat="51.6581417" lon="-8.67343"><ele>11.0</ele><time>2026-05-05T12:14:35.202Z</time></trkpt><trkpt lat="51.6581717" lon="-8.6735267"><ele>11.0</ele><time>2026-05-05T12:14:36.203Z</time></trkpt><trkpt lat="51.6582083" lon="-8.6736983"><ele>10.0</ele><time>2026-05-05T12:14:38.203Z</time></trkpt><trkpt lat="51.65817" lon="-8.6738433"><ele>9.0</ele><time>2026-05-05T12:14:40.203Z</time></trkpt><trkpt lat="51.65811" lon="-8.67396"><ele>8.0</ele><time>2026-05-05T12:14:41.202Z</time></trkpt><trkpt lat="51.658045" lon="-8.67408"><ele>7.0</ele><time>2026-05-05T12:14:42.202Z</time></trkpt><trkpt lat="51.65798" lon="-8.6742117"><ele>6.0</ele><time>2026-05-05T12:14:43.203Z</time></trkpt><trkpt lat="51.6578917" lon="-8.6743583"><ele>4.666666666666667</ele><time>2026-05-05T12:14:44.203Z</time></trkpt><trkpt lat="51.65779" lon="-8.67452"><ele>3.333333333333333</ele><time>2026-05-05T12:14:45.202Z</time></trkpt><trkpt lat="51.6576733" lon="-8.6746917"><ele>2.0</ele><time>2026-05-05T12:14:46.203Z</time></trkpt><trkpt lat="51.65755" lon="-8.67487"><ele>1.3333333333333333</ele><time>2026-05-05T12:14:47.202Z</time></trkpt><trkpt lat="51.6574117" lon="-8.6750483"><ele>0.6666666666666666</ele><time>2026-05-05T12:14:48.203Z</time></trkpt><trkpt lat="51.65725" lon="-8.6752283"><ele>0.0</ele><time>2026-05-05T12:14:49.203Z</time></trkpt><trkpt lat="51.657105" lon="-8.675395"><ele>0.0</ele><time>2026-05-05T12:14:50.203Z</time></trkpt><trkpt lat="51.65697" lon="-8.6755417"><ele>0.0</ele><time>2026-05-05T12:14:51.202Z</time></trkpt><trkpt lat="51.6568433" lon="-8.6756767"><ele>0.0</ele><time>2026-05-05T12:14:52.202Z</time></trkpt><trkpt lat="51.656715" lon="-8.6757917"><ele>0.0</ele><time>2026-05-05T12:14:53.202Z</time></trkpt><trkpt lat="51.656595" lon="-8.6758883"><ele>0.0</ele><time>2026-05-05T12:14:54.202Z</time></trkpt><trkpt lat="51.6564717" lon="-8.675965"><ele>0.0</ele><time>2026-05-05T12:14:55.202Z</time></trkpt><trkpt lat="51.6563467" lon="-8.6760217"><ele>0.0</ele><time>2026-05-05T12:14:56.202Z</time></trkpt><trkpt lat="51.6562083" lon="-8.6760583"><ele>1.5</ele><time>2026-05-05T12:14:57.203Z</time></trkpt><trkpt lat="51.6560583" lon="-8.67608"><ele>3.0</ele><time>2026-05-05T12:14:58.203Z</time></trkpt><trkpt lat="51.6559283" lon="-8.6760967"><ele>4.5</ele><time>2026-05-05T12:14:59.203Z</time></trkpt><trkpt lat="51.6558033" lon="-8.6761233"><ele>6.0</ele><time>2026-05-05T12:15:00.202Z</time></trkpt><trkpt lat="51.6556933" lon="-8.6762017"><ele>9.0</ele><time>2026-05-05T12:15:01.203Z</time></trkpt><trkpt lat="51.6555683" lon="-8.6763083"><ele>12.0</ele><time>2026-05-05T12:15:02.203Z</time></trkpt><trkpt lat="51.6554517" lon="-8.6764483"><ele>15.0</ele><time>2026-05-05T12:15:03.203Z</time></trkpt><trkpt lat="51.65532" lon="-8.676615"><ele>15.0</ele><time>2026-05-05T12:15:04.202Z</time></trkpt><trkpt lat="51.6551817" lon="-8.6767983"><ele>15.0</ele><time>2026-05-05T12:15:05.203Z</time></trkpt><trkpt lat="51.6550533" lon="-8.67697"><ele>15.0</ele><time>2026-05-05T12:15:06.203Z</time></trkpt><trkpt lat="51.654915" lon="-8.6771367"><ele>15.0</ele><time>2026-05-05T12:15:07.203Z</time></trkpt><trkpt lat="51.65477" lon="-8.6772933"><ele>15.0</ele><time>2026-05-05T12:15:08.203Z</time></trkpt><trkpt lat="51.6546083" lon="-8.6774267"><ele>15.0</ele><time>2026-05-05T12:15:09.203Z</time></trkpt><trkpt lat="51.6544367" lon="-8.6775517"><ele>14.333333333333332</ele><time>2026-05-05T12:15:10.202Z</time></trkpt><trkpt lat="51.65427" lon="-8.6776783"><ele>13.666666666666666</ele><time>2026-05-05T12:15:11.202Z</time></trkpt><trkpt lat="51.6541033" lon="-8.67781"><ele>13.0</ele><time>2026-05-05T12:15:12.203Z</time></trkpt><trkpt lat="51.6539383" lon="-8.677945"><ele>13.0</ele><time>2026-05-05T12:15:13.203Z</time></trkpt><trkpt lat="51.6537733" lon="-8.678085"><ele>13.0</ele><time>2026-05-05T12:15:14.203Z</time></trkpt><trkpt lat="51.65362" lon="-8.6782417"><ele>13.0</ele><time>2026-05-05T12:15:15.203Z</time></trkpt><trkpt lat="51.6534867" lon="-8.6784133"><ele>12.666666666666666</ele><time>2026-05-05T12:15:16.203Z</time></trkpt><trkpt lat="51.6533683" lon="-8.6786067"><ele>12.333333333333332</ele><time>2026-05-05T12:15:17.203Z</time></trkpt><trkpt lat="51.6532433" lon="-8.6788083"><ele>12.0</ele><time>2026-05-05T12:15:18.202Z</time></trkpt><trkpt lat="51.6530367" lon="-8.679155"><ele>12.0</ele><time>2026-05-05T12:15:20.203Z</time></trkpt><trkpt lat="51.6529117" lon="-8.67932"><ele>12.0</ele><time>2026-05-05T12:15:21.203Z</time></trkpt><trkpt lat="51.652775" lon="-8.6794467"><ele>12.0</ele><time>2026-05-05T12:15:22.203Z</time></trkpt><trkpt lat="51.652625" lon="-8.6795533"><ele>13.0</ele><time>2026-05-05T12:15:23.203Z</time></trkpt><trkpt lat="51.6524117" lon="-8.6795683"><ele>14.0</ele><time>2026-05-05T12:15:24.203Z</time></trkpt><trkpt lat="51.65219" lon="-8.6795167"><ele>15.0</ele><time>2026-05-05T12:15:25.203Z</time></trkpt><trkpt lat="51.6519533" lon="-8.67943"><ele>12.333333333333334</ele><time>2026-05-05T12:15:26.203Z</time></trkpt><trkpt lat="51.6517433" lon="-8.6793567"><ele>9.666666666666668</ele><time>2026-05-05T12:15:27.203Z</time></trkpt><trkpt lat="51.6515483" lon="-8.6792817"><ele>7.0</ele><time>2026-05-05T12:15:28.203Z</time></trkpt><trkpt lat="51.6513633" lon="-8.6792533"><ele>7.0</ele><time>2026-05-05T12:15:29.203Z</time></trkpt><trkpt lat="51.6512133" lon="-8.67922"><ele>7.0</ele><time>2026-05-05T12:15:30.203Z</time></trkpt><trkpt lat="51.6510633" lon="-8.6791967"><ele>7.0</ele><time>2026-05-05T12:15:31.202Z</time></trkpt><trkpt lat="51.6508933" lon="-8.67918"><ele>7.5</ele><time>2026-05-05T12:15:32.203Z</time></trkpt><trkpt lat="51.6505283" lon="-8.6792267"><ele>8.0</ele><time>2026-05-05T12:15:34.203Z</time></trkpt><trkpt lat="51.6503533" lon="-8.6792483"><ele>8.666666666666666</ele><time>2026-05-05T12:15:35.202Z</time></trkpt><trkpt lat="51.6501817" lon="-8.67927"><ele>9.333333333333334</ele><time>2026-05-05T12:15:36.203Z</time></trkpt><trkpt lat="51.6500117" lon="-8.6792833"><ele>10.0</ele><time>2026-05-05T12:15:37.202Z</time></trkpt><trkpt lat="51.6498467" lon="-8.6792867"><ele>10.0</ele><time>2026-05-05T12:15:38.203Z</time></trkpt><trkpt lat="51.649685" lon="-8.679285"><ele>10.0</ele><time>2026-05-05T12:15:39.203Z</time></trkpt><trkpt lat="51.6495283" lon="-8.6792817"><ele>10.0</ele><time>2026-05-05T12:15:40.202Z</time></trkpt><trkpt lat="51.6493717" lon="-8.6792817"><ele>10.0</ele><time>2026-05-05T12:15:41.203Z</time></trkpt><trkpt lat="51.6492167" lon="-8.6792767"><ele>10.0</ele><time>2026-05-05T12:15:42.203Z</time></trkpt><trkpt lat="51.64892" lon="-8.67928"><ele>10.0</ele><time>2026-05-05T12:15:44.203Z</time></trkpt><trkpt lat="51.6487983" lon="-8.67928"><ele>10.0</ele><time>2026-05-05T12:15:45.203Z</time></trkpt><trkpt lat="51.6487033" lon="-8.6792817"><ele>10.0</ele><time>2026-05-05T12:15:46.202Z</time></trkpt><trkpt lat="51.64864" lon="-8.6792933"><ele>10.0</ele><time>2026-05-05T12:15:47.203Z</time></trkpt><trkpt lat="51.6485767" lon="-8.6793067"><ele>10.0</ele><time>2026-05-05T12:15:48.202Z</time></trkpt><trkpt lat="51.6484533" lon="-8.6793417"><ele>9.5</ele><time>2026-05-05T12:15:50.202Z</time></trkpt><trkpt lat="51.64838" lon="-8.6793567"><ele>9.0</ele><time>2026-05-05T12:15:51.203Z</time></trkpt><trkpt lat="51.6482933" lon="-8.6793817"><ele>8.5</ele><time>2026-05-05T12:15:52.203Z</time></trkpt><trkpt lat="51.64807" lon="-8.6794617"><ele>8.0</ele><time>2026-05-05T12:15:54.203Z</time></trkpt><trkpt lat="51.647945" lon="-8.6795117"><ele>9.25</ele><time>2026-05-05T12:15:55.202Z</time></trkpt><trkpt lat="51.647815" lon="-8.6795717"><ele>10.5</ele><time>2026-05-05T12:15:56.203Z</time></trkpt><trkpt lat="51.6476733" lon="-8.679645"><ele>11.75</ele><time>2026-05-05T12:15:57.203Z</time></trkpt><trkpt lat="51.6475217" lon="-8.67973"><ele>13.0</ele><time>2026-05-05T12:15:58.203Z</time></trkpt><trkpt lat="51.647365" lon="-8.6798417"><ele>13.0</ele><time>2026-05-05T12:15:59.203Z</time></trkpt><trkpt lat="51.647215" lon="-8.6799467"><ele>13.0</ele><time>2026-05-05T12:16:00.203Z</time></trkpt><trkpt lat="51.647075" lon="-8.6800683"><ele>13.0</ele><time>2026-05-05T12:16:01.202Z</time></trkpt><trkpt lat="51.6469417" lon="-8.680185"><ele>15.25</ele><time>2026-05-05T12:16:02.203Z</time></trkpt><trkpt lat="51.6468167" lon="-8.6803017"><ele>17.5</ele><time>2026-05-05T12:16:03.203Z</time></trkpt><trkpt lat="51.6467183" lon="-8.6804333"><ele>19.75</ele><time>2026-05-05T12:16:04.203Z</time></trkpt><trkpt lat="51.6466167" lon="-8.6805533"><ele>22.0</ele><time>2026-05-05T12:16:05.202Z</time></trkpt><trkpt lat="51.6465083" lon="-8.6806983"><ele>22.0</ele><time>2026-05-05T12:16:06.203Z</time></trkpt><trkpt lat="51.6464" lon="-8.680875"><ele>22.0</ele><time>2026-05-05T12:16:07.203Z</time></trkpt><trkpt lat="51.6462933" lon="-8.681085"><ele>22.0</ele><time>2026-05-05T12:16:08.202Z</time></trkpt><trkpt lat="51.6461983" lon="-8.6813017"><ele>23.666666666666664</ele><time>2026-05-05T12:16:09.203Z</time></trkpt><trkpt lat="51.6461033" lon="-8.6815083"><ele>25.333333333333332</ele><time>2026-05-05T12:16:10.202Z</time></trkpt><trkpt lat="51.6460083" lon="-8.6817133"><ele>27.0</ele><time>2026-05-05T12:16:11.203Z</time></trkpt><trkpt lat="51.6459133" lon="-8.6819267"><ele>28.666666666666664</ele><time>2026-05-05T12:16:12.202Z</time></trkpt><trkpt lat="51.6458067" lon="-8.6821483"><ele>30.333333333333332</ele><time>2026-05-05T12:16:13.202Z</time></trkpt><trkpt lat="51.6457033" lon="-8.682365"><ele>32.0</ele><time>2026-05-05T12:16:14.202Z</time></trkpt><trkpt lat="51.6456083" lon="-8.6825483"><ele>32.0</ele><time>2026-05-05T12:16:15.203Z</time></trkpt><trkpt lat="51.6455117" lon="-8.6827083"><ele>32.0</ele><time>2026-05-05T12:16:16.202Z</time></trkpt><trkpt lat="51.645435" lon="-8.6828567"><ele>32.0</ele><time>2026-05-05T12:16:17.203Z</time></trkpt><trkpt lat="51.64536" lon="-8.6829917"><ele>32.0</ele><time>2026-05-05T12:16:18.203Z</time></trkpt><trkpt lat="51.6452983" lon="-8.6831817"><ele>27.333333333333332</ele><time>2026-05-05T12:16:19.202Z</time></trkpt><trkpt lat="51.645245" lon="-8.6834017"><ele>22.666666666666664</ele><time>2026-05-05T12:16:20.203Z</time></trkpt><trkpt lat="51.64518" lon="-8.68364"><ele>18.0</ele><time>2026-05-05T12:16:21.203Z</time></trkpt><trkpt lat="51.6451317" lon="-8.6838767"><ele>17.75</ele><time>2026-05-05T12:16:22.203Z</time></trkpt><trkpt lat="51.6451217" lon="-8.6841167"><ele>17.5</ele><time>2026-05-05T12:16:23.203Z</time></trkpt><trkpt lat="51.6451217" lon="-8.6843583"><ele>17.25</ele><time>2026-05-05T12:16:24.203Z</time></trkpt><trkpt lat="51.6451233" lon="-8.6845933"><ele>17.0</ele><time>2026-05-05T12:16:25.203Z</time></trkpt><trkpt lat="51.6451217" lon="-8.6850783"><ele>16.0</ele><time>2026-05-05T12:16:27.203Z</time></trkpt><trkpt lat="51.6451133" lon="-8.6853517"><ele>15.0</ele><time>2026-05-05T12:16:28.203Z</time></trkpt><trkpt lat="51.645115" lon="-8.6856283"><ele>14.0</ele><time>2026-05-05T12:16:29.203Z</time></trkpt><trkpt lat="51.64512" lon="-8.6859117"><ele>13.0</ele><time>2026-05-05T12:16:30.203Z</time></trkpt><trkpt lat="51.6451333" lon="-8.6861933"><ele>12.0</ele><time>2026-05-05T12:16:31.203Z</time></trkpt><trkpt lat="51.6451433" lon="-8.6864683"><ele>11.0</ele><time>2026-05-05T12:16:32.203Z</time></trkpt><trkpt lat="51.6451533" lon="-8.68673"><ele>11.0</ele><time>2026-05-05T12:16:33.203Z</time></trkpt><trkpt lat="51.645165" lon="-8.6869767"><ele>11.0</ele><time>2026-05-05T12:16:34.203Z</time></trkpt><trkpt lat="51.6451767" lon="-8.68723"><ele>11.0</ele><time>2026-05-05T12:16:35.203Z</time></trkpt><trkpt lat="51.6451583" lon="-8.68748"><ele>11.0</ele><time>2026-05-05T12:16:36.203Z</time></trkpt><trkpt lat="51.6451433" lon="-8.6877267"><ele>11.0</ele><time>2026-05-05T12:16:37.202Z</time></trkpt><trkpt lat="51.645125" lon="-8.6879783"><ele>11.0</ele><time>2026-05-05T12:16:38.202Z</time></trkpt><trkpt lat="51.6451083" lon="-8.688245"><ele>11.333333333333332</ele><time>2026-05-05T12:16:39.202Z</time></trkpt><trkpt lat="51.6450917" lon="-8.68852"><ele>11.666666666666666</ele><time>2026-05-05T12:16:40.202Z</time></trkpt><trkpt lat="51.6450833" lon="-8.6887967"><ele>12.0</ele><time>2026-05-05T12:16:41.203Z</time></trkpt><trkpt lat="51.6450867" lon="-8.689075"><ele>12.333333333333332</ele><time>2026-05-05T12:16:42.203Z</time></trkpt><trkpt lat="51.6450967" lon="-8.6893683"><ele>12.666666666666666</ele><time>2026-05-05T12:16:43.202Z</time></trkpt><trkpt lat="51.64511" lon="-8.68967"><ele>13.0</ele><time>2026-05-05T12:16:44.203Z</time></trkpt><trkpt lat="51.6451317" lon="-8.6899617"><ele>12.0</ele><time>2026-05-05T12:16:45.203Z</time></trkpt><trkpt lat="51.64516" lon="-8.6902433"><ele>11.0</ele><time>2026-05-05T12:16:46.203Z</time></trkpt><trkpt lat="51.64519" lon="-8.6905267"><ele>10.0</ele><time>2026-05-05T12:16:47.202Z</time></trkpt><trkpt lat="51.645225" lon="-8.6907983"><ele>10.666666666666668</ele><time>2026-05-05T12:16:48.202Z</time></trkpt><trkpt lat="51.6452667" lon="-8.6910517"><ele>11.333333333333334</ele><time>2026-05-05T12:16:49.203Z</time></trkpt><trkpt lat="51.6453033" lon="-8.691305"><ele>12.0</ele><time>2026-05-05T12:16:50.202Z</time></trkpt><trkpt lat="51.6453533" lon="-8.6915483"><ele>12.0</ele><time>2026-05-05T12:16:51.203Z</time></trkpt><trkpt lat="51.6453933" lon="-8.6918017"><ele>12.0</ele><time>2026-05-05T12:16:52.203Z</time></trkpt><trkpt lat="51.6454383" lon="-8.6920617"><ele>12.0</ele><time>2026-05-05T12:16:53.202Z</time></trkpt><trkpt lat="51.6455067" lon="-8.692325"><ele>11.0</ele><time>2026-05-05T12:16:54.203Z</time></trkpt><trkpt lat="51.645575" lon="-8.6925883"><ele>10.0</ele><time>2026-05-05T12:16:55.203Z</time></trkpt><trkpt lat="51.6456483" lon="-8.6928517"><ele>9.0</ele><time>2026-05-05T12:16:56.202Z</time></trkpt><trkpt lat="51.6457267" lon="-8.693115"><ele>8.333333333333334</ele><time>2026-05-05T12:16:57.203Z</time></trkpt><trkpt lat="51.6458033" lon="-8.6933683"><ele>7.666666666666667</ele><time>2026-05-05T12:16:58.202Z</time></trkpt><trkpt lat="51.6458783" lon="-8.6936133"><ele>7.0</ele><time>2026-05-05T12:16:59.203Z</time></trkpt><trkpt lat="51.6459517" lon="-8.693845"><ele>6.75</ele><time>2026-05-05T12:17:00.202Z</time></trkpt><trkpt lat="51.6460233" lon="-8.69405"><ele>6.5</ele><time>2026-05-05T12:17:01.203Z</time></trkpt><trkpt lat="51.646105" lon="-8.6942433"><ele>6.25</ele><time>2026-05-05T12:17:02.202Z</time></trkpt><trkpt lat="51.646205" lon="-8.6944283"><ele>6.0</ele><time>2026-05-05T12:17:03.202Z</time></trkpt><trkpt lat="51.6463067" lon="-8.6945917"><ele>6.0</ele><time>2026-05-05T12:17:04.203Z</time></trkpt><trkpt lat="51.64641" lon="-8.6947233"><ele>6.0</ele><time>2026-05-05T12:17:05.203Z</time></trkpt><trkpt lat="51.64652" lon="-8.6948417"><ele>6.0</ele><time>2026-05-05T12:17:06.203Z</time></trkpt><trkpt lat="51.6466533" lon="-8.69492"><ele>6.0</ele><time>2026-05-05T12:17:07.202Z</time></trkpt><trkpt lat="51.6468167" lon="-8.69496"><ele>7.0</ele><time>2026-05-05T12:17:08.203Z</time></trkpt><trkpt lat="51.646965" lon="-8.69504"><ele>8.0</ele><time>2026-05-05T12:17:09.202Z</time></trkpt><trkpt lat="51.6471167" lon="-8.6950967"><ele>9.0</ele><time>2026-05-05T12:17:10.203Z</time></trkpt><trkpt lat="51.6472933" lon="-8.695195"><ele>9.0</ele><time>2026-05-05T12:17:11.203Z</time></trkpt><trkpt lat="51.6474817" lon="-8.6953233"><ele>9.0</ele><time>2026-05-05T12:17:12.203Z</time></trkpt><trkpt lat="51.6476517" lon="-8.695495"><ele>9.0</ele><time>2026-05-05T12:17:13.203Z</time></trkpt><trkpt lat="51.6478267" lon="-8.6956767"><ele>9.0</ele><time>2026-05-05T12:17:14.202Z</time></trkpt><trkpt lat="51.647995" lon="-8.6958183"><ele>9.0</ele><time>2026-05-05T12:17:15.202Z</time></trkpt><trkpt lat="51.6481667" lon="-8.6959933"><ele>9.0</ele><time>2026-05-05T12:17:16.202Z</time></trkpt><trkpt lat="51.6483383" lon="-8.6961767"><ele>8.0</ele><time>2026-05-05T12:17:17.202Z</time></trkpt><trkpt lat="51.6485033" lon="-8.6963483"><ele>7.0</ele><time>2026-05-05T12:17:18.202Z</time></trkpt><trkpt lat="51.6486867" lon="-8.69652"><ele>6.0</ele><time>2026-05-05T12:17:19.202Z</time></trkpt><trkpt lat="51.64887" lon="-8.6966867"><ele>6.0</ele><time>2026-05-05T12:17:20.203Z</time></trkpt><trkpt lat="51.6490433" lon="-8.696825"><ele>6.0</ele><time>2026-05-05T12:17:21.203Z</time></trkpt><trkpt lat="51.6492233" lon="-8.69696"><ele>6.0</ele><time>2026-05-05T12:17:22.202Z</time></trkpt><trkpt lat="51.64941" lon="-8.6971083"><ele>6.333333333333334</ele><time>2026-05-05T12:17:23.202Z</time></trkpt><trkpt lat="51.6495933" lon="-8.6972483"><ele>6.666666666666667</ele><time>2026-05-05T12:17:24.203Z</time></trkpt><trkpt lat="51.6497733" lon="-8.69738"><ele>7.0</ele><time>2026-05-05T12:17:25.203Z</time></trkpt><trkpt lat="51.649955" lon="-8.697515"><ele>7.0</ele><time>2026-05-05T12:17:26.202Z</time></trkpt><trkpt lat="51.6501433" lon="-8.697645"><ele>7.0</ele><time>2026-05-05T12:17:27.203Z</time></trkpt><trkpt lat="51.650335" lon="-8.6977433"><ele>7.0</ele><time>2026-05-05T12:17:28.202Z</time></trkpt><trkpt lat="51.6505167" lon="-8.6978083"><ele>7.333333333333334</ele><time>2026-05-05T12:17:29.203Z</time></trkpt><trkpt lat="51.6506867" lon="-8.6978783"><ele>7.666666666666666</ele><time>2026-05-05T12:17:30.202Z</time></trkpt><trkpt lat="51.650825" lon="-8.69795"><ele>8.0</ele><time>2026-05-05T12:17:31.202Z</time></trkpt><trkpt lat="51.6509783" lon="-8.69803"><ele>10.0</ele><time>2026-05-05T12:17:32.202Z</time></trkpt><trkpt lat="51.6511333" lon="-8.6981017"><ele>12.0</ele><time>2026-05-05T12:17:33.203Z</time></trkpt><trkpt lat="51.6512867" lon="-8.69816"><ele>14.0</ele><time>2026-05-05T12:17:34.202Z</time></trkpt><trkpt lat="51.6514333" lon="-8.69823"><ele>14.0</ele><time>2026-05-05T12:17:35.203Z</time></trkpt><trkpt lat="51.651575" lon="-8.6983133"><ele>14.0</ele><time>2026-05-05T12:17:36.202Z</time></trkpt><trkpt lat="51.6517133" lon="-8.6983867"><ele>14.0</ele><time>2026-05-05T12:17:37.202Z</time></trkpt><trkpt lat="51.6518367" lon="-8.6984583"><ele>14.0</ele><time>2026-05-05T12:17:38.202Z</time></trkpt><trkpt lat="51.6519283" lon="-8.698545"><ele>16.0</ele><time>2026-05-05T12:17:39.202Z</time></trkpt><trkpt lat="51.651985" lon="-8.6986733"><ele>18.0</ele><time>2026-05-05T12:17:40.202Z</time></trkpt><trkpt lat="51.6520833" lon="-8.6988267"><ele>20.0</ele><time>2026-05-05T12:17:41.203Z</time></trkpt><trkpt lat="51.6521033" lon="-8.6990433"><ele>22.0</ele><time>2026-05-05T12:17:42.203Z</time></trkpt><trkpt lat="51.652135" lon="-8.6992817"><ele>21.666666666666664</ele><time>2026-05-05T12:17:43.203Z</time></trkpt><trkpt lat="51.6521333" lon="-8.69956"><ele>21.333333333333332</ele><time>2026-05-05T12:17:44.202Z</time></trkpt><trkpt lat="51.65215" lon="-8.6998383"><ele>21.0</ele><time>2026-05-05T12:17:45.202Z</time></trkpt><trkpt lat="51.6521317" lon="-8.7002267"><ele>20.333333333333332</ele><time>2026-05-05T12:17:46.203Z</time></trkpt><trkpt lat="51.65211" lon="-8.7005533"><ele>19.666666666666664</ele><time>2026-05-05T12:17:47.203Z</time></trkpt><trkpt lat="51.6520783" lon="-8.7008617"><ele>19.0</ele><time>2026-05-05T12:17:48.203Z</time></trkpt><trkpt lat="51.6521" lon="-8.7011317"><ele>18.75</ele><time>2026-05-05T12:17:49.203Z</time></trkpt><trkpt lat="51.652125" lon="-8.701375"><ele>18.5</ele><time>2026-05-05T12:17:50.203Z</time></trkpt><trkpt lat="51.6521267" lon="-8.701615"><ele>18.25</ele><time>2026-05-05T12:17:51.203Z</time></trkpt><trkpt lat="51.652135" lon="-8.701815"><ele>18.0</ele><time>2026-05-05T12:17:52.203Z</time></trkpt><trkpt lat="51.6521317" lon="-8.7019983"><ele>18.0</ele><time>2026-05-05T12:17:53.203Z</time></trkpt><trkpt lat="51.6520967" lon="-8.70217"><ele>18.0</ele><time>2026-05-05T12:17:54.202Z</time></trkpt><trkpt lat="51.6520383" lon="-8.70233"><ele>18.0</ele><time>2026-05-05T12:17:55.202Z</time></trkpt><trkpt lat="51.6519683" lon="-8.7024733"><ele>18.0</ele><time>2026-05-05T12:17:56.202Z</time></trkpt><trkpt lat="51.65187" lon="-8.70259"><ele>17.4</ele><time>2026-05-05T12:17:57.202Z</time></trkpt><trkpt lat="51.6517717" lon="-8.70268"><ele>16.8</ele><time>2026-05-05T12:17:58.203Z</time></trkpt><trkpt lat="51.6516717" lon="-8.7027317"><ele>16.2</ele><time>2026-05-05T12:17:59.203Z</time></trkpt><trkpt lat="51.651565" lon="-8.7027633"><ele>15.6</ele><time>2026-05-05T12:18:00.202Z</time></trkpt><trkpt lat="51.65145" lon="-8.7027833"><ele>15.0</ele><time>2026-05-05T12:18:01.202Z</time></trkpt><trkpt lat="51.6513233" lon="-8.70276"><ele>14.333333333333332</ele><time>2026-05-05T12:18:02.202Z</time></trkpt><trkpt lat="51.6511867" lon="-8.70269"><ele>13.666666666666666</ele><time>2026-05-05T12:18:03.203Z</time></trkpt><trkpt lat="51.65105" lon="-8.7025917"><ele>13.0</ele><time>2026-05-05T12:18:04.203Z</time></trkpt><trkpt lat="51.6508967" lon="-8.7024867"><ele>13.0</ele><time>2026-05-05T12:18:05.203Z</time></trkpt><trkpt lat="51.650715" lon="-8.7023783"><ele>13.0</ele><time>2026-05-05T12:18:06.203Z</time></trkpt><trkpt lat="51.6505233" lon="-8.7023"><ele>13.0</ele><time>2026-05-05T12:18:07.203Z</time></trkpt><trkpt lat="51.6503217" lon="-8.7022283"><ele>13.0</ele><time>2026-05-05T12:18:08.203Z</time></trkpt><trkpt lat="51.650115" lon="-8.70216"><ele>13.0</ele><time>2026-05-05T12:18:09.202Z</time></trkpt><trkpt lat="51.649885" lon="-8.7020867"><ele>13.0</ele><time>2026-05-05T12:18:10.203Z</time></trkpt><trkpt lat="51.64968" lon="-8.702035"><ele>13.0</ele><time>2026-05-05T12:18:11.202Z</time></trkpt><trkpt lat="51.64947" lon="-8.7019917"><ele>13.0</ele><time>2026-05-05T12:18:12.202Z</time></trkpt><trkpt lat="51.649265" lon="-8.7019367"><ele>13.0</ele><time>2026-05-05T12:18:13.202Z</time></trkpt><trkpt lat="51.649055" lon="-8.701905"><ele>12.666666666666666</ele><time>2026-05-05T12:18:14.202Z</time></trkpt><trkpt lat="51.6488667" lon="-8.7018717"><ele>12.333333333333332</ele><time>2026-05-05T12:18:15.203Z</time></trkpt><trkpt lat="51.6486883" lon="-8.7018417"><ele>12.0</ele><time>2026-05-05T12:18:16.203Z</time></trkpt><trkpt lat="51.648525" lon="-8.7018133"><ele>12.0</ele><time>2026-05-05T12:18:17.203Z</time></trkpt><trkpt lat="51.6483917" lon="-8.7017933"><ele>12.0</ele><time>2026-05-05T12:18:18.202Z</time></trkpt><trkpt lat="51.64828" lon="-8.7017833"><ele>12.0</ele><time>2026-05-05T12:18:19.202Z</time></trkpt><trkpt lat="51.648185" lon="-8.7017767"><ele>12.0</ele><time>2026-05-05T12:18:20.203Z</time></trkpt><trkpt lat="51.6481033" lon="-8.7017683"><ele>12.0</ele><time>2026-05-05T12:18:21.203Z</time></trkpt><trkpt lat="51.6480267" lon="-8.701755"><ele>12.0</ele><time>2026-05-05T12:18:22.202Z</time></trkpt><trkpt lat="51.6479517" lon="-8.7017367"><ele>12.0</ele><time>2026-05-05T12:18:23.203Z</time></trkpt><trkpt lat="51.647875" lon="-8.7017167"><ele>12.0</ele><time>2026-05-05T12:18:24.203Z</time></trkpt><trkpt lat="51.6477883" lon="-8.7017017"><ele>12.0</ele><time>2026-05-05T12:18:25.203Z</time></trkpt><trkpt lat="51.647695" lon="-8.701685"><ele>12.0</ele><time>2026-05-05T12:18:26.203Z</time></trkpt><trkpt lat="51.6475917" lon="-8.7016783"><ele>12.0</ele><time>2026-05-05T12:18:27.202Z</time></trkpt><trkpt lat="51.6474867" lon="-8.701685"><ele>11.75</ele><time>2026-05-05T12:18:28.202Z</time></trkpt><trkpt lat="51.64738" lon="-8.7017017"><ele>11.5</ele><time>2026-05-05T12:18:29.202Z</time></trkpt><trkpt lat="51.6472683" lon="-8.70172"><ele>11.25</ele><time>2026-05-05T12:18:30.202Z</time></trkpt><trkpt lat="51.6471517" lon="-8.70174"><ele>11.0</ele><time>2026-05-05T12:18:31.203Z</time></trkpt><trkpt lat="51.647035" lon="-8.701765"><ele>10.600000000000001</ele><time>2026-05-05T12:18:32.203Z</time></trkpt><trkpt lat="51.646925" lon="-8.70179"><ele>10.200000000000001</ele><time>2026-05-05T12:18:33.202Z</time></trkpt><trkpt lat="51.6468167" lon="-8.7018133"><ele>9.8</ele><time>2026-05-05T12:18:34.203Z</time></trkpt><trkpt lat="51.6467183" lon="-8.70184"><ele>9.4</ele><time>2026-05-05T12:18:35.203Z</time></trkpt><trkpt lat="51.6466267" lon="-8.7018717"><ele>9.0</ele><time>2026-05-05T12:18:36.202Z</time></trkpt><trkpt lat="51.64654" lon="-8.7019"><ele>9.166666666666666</ele><time>2026-05-05T12:18:37.203Z</time></trkpt><trkpt lat="51.6464517" lon="-8.7019233"><ele>9.333333333333334</ele><time>2026-05-05T12:18:38.203Z</time></trkpt><trkpt lat="51.64637" lon="-8.70195"><ele>9.5</ele><time>2026-05-05T12:18:39.203Z</time></trkpt><trkpt lat="51.6462833" lon="-8.701975"><ele>9.666666666666668</ele><time>2026-05-05T12:18:40.203Z</time></trkpt><trkpt lat="51.6462" lon="-8.702"><ele>9.833333333333334</ele><time>2026-05-05T12:18:41.202Z</time></trkpt><trkpt lat="51.646115" lon="-8.7020317"><ele>10.0</ele><time>2026-05-05T12:18:42.203Z</time></trkpt><trkpt lat="51.6460233" lon="-8.702065"><ele>10.0</ele><time>2026-05-05T12:18:43.202Z</time></trkpt><trkpt lat="51.6459367" lon="-8.7021033"><ele>10.0</ele><time>2026-05-05T12:18:44.203Z</time></trkpt><trkpt lat="51.6458517" lon="-8.7021617"><ele>10.0</ele><time>2026-05-05T12:18:45.203Z</time></trkpt><trkpt lat="51.645775" lon="-8.70223"><ele>10.0</ele><time>2026-05-05T12:18:46.203Z</time></trkpt><trkpt lat="51.6457017" lon="-8.7023067"><ele>10.0</ele><time>2026-05-05T12:18:47.203Z</time></trkpt><trkpt lat="51.6456417" lon="-8.702395"><ele>10.0</ele><time>2026-05-05T12:18:48.203Z</time></trkpt><trkpt lat="51.6455917" lon="-8.7025183"><ele>10.0</ele><time>2026-05-05T12:18:49.203Z</time></trkpt><trkpt lat="51.64554" lon="-8.7026367"><ele>10.0</ele><time>2026-05-05T12:18:50.203Z</time></trkpt><trkpt lat="51.6454983" lon="-8.702755"><ele>10.0</ele><time>2026-05-05T12:18:51.202Z</time></trkpt><trkpt lat="51.64546" lon="-8.702875"><ele>10.0</ele><time>2026-05-05T12:18:52.203Z</time></trkpt><trkpt lat="51.645435" lon="-8.7029967"><ele>10.0</ele><time>2026-05-05T12:18:53.203Z</time></trkpt><trkpt lat="51.6454117" lon="-8.70312"><ele>10.0</ele><time>2026-05-05T12:18:54.203Z</time></trkpt><trkpt lat="51.6453933" lon="-8.7032433"><ele>9.333333333333334</ele><time>2026-05-05T12:18:55.203Z</time></trkpt><trkpt lat="51.6453667" lon="-8.703365"><ele>8.666666666666668</ele><time>2026-05-05T12:18:56.203Z</time></trkpt><trkpt lat="51.6453433" lon="-8.7035033"><ele>8.0</ele><time>2026-05-05T12:18:57.203Z</time></trkpt><trkpt lat="51.64532" lon="-8.7036433"><ele>7.333333333333334</ele><time>2026-05-05T12:18:58.202Z</time></trkpt><trkpt lat="51.6453083" lon="-8.70378"><ele>6.666666666666667</ele><time>2026-05-05T12:18:59.203Z</time></trkpt><trkpt lat="51.645295" lon="-8.7039233"><ele>6.0</ele><time>2026-05-05T12:19:00.203Z</time></trkpt><trkpt lat="51.645285" lon="-8.7040667"><ele>6.0</ele><time>2026-05-05T12:19:01.203Z</time></trkpt><trkpt lat="51.64526" lon="-8.704205"><ele>6.0</ele><time>2026-05-05T12:19:02.203Z</time></trkpt><trkpt lat="51.64523" lon="-8.7043517"><ele>6.0</ele><time>2026-05-05T12:19:03.203Z</time></trkpt><trkpt lat="51.6451883" lon="-8.7045233"><ele>6.0</ele><time>2026-05-05T12:19:04.203Z</time></trkpt><trkpt lat="51.6451267" lon="-8.7047183"><ele>6.0</ele><time>2026-05-05T12:19:05.202Z</time></trkpt><trkpt lat="51.6450567" lon="-8.7049183"><ele>7.0</ele><time>2026-05-05T12:19:06.203Z</time></trkpt><trkpt lat="51.64497" lon="-8.7051283"><ele>8.0</ele><time>2026-05-05T12:19:07.203Z</time></trkpt><trkpt lat="51.64486" lon="-8.7053367"><ele>9.0</ele><time>2026-05-05T12:19:08.203Z</time></trkpt><trkpt lat="51.6447467" lon="-8.7055483"><ele>8.666666666666666</ele><time>2026-05-05T12:19:09.203Z</time></trkpt><trkpt lat="51.644635" lon="-8.7057667"><ele>8.333333333333332</ele><time>2026-05-05T12:19:10.202Z</time></trkpt><trkpt lat="51.64452" lon="-8.7059883"><ele>8.0</ele><time>2026-05-05T12:19:11.202Z</time></trkpt><trkpt lat="51.6443967" lon="-8.706225"><ele>8.0</ele><time>2026-05-05T12:19:12.203Z</time></trkpt><trkpt lat="51.6442717" lon="-8.7064533"><ele>8.0</ele><time>2026-05-05T12:19:13.203Z</time></trkpt><trkpt lat="51.6441333" lon="-8.706675"><ele>8.0</ele><time>2026-05-05T12:19:14.202Z</time></trkpt><trkpt lat="51.6439883" lon="-8.706885"><ele>7.0</ele><time>2026-05-05T12:19:15.203Z</time></trkpt><trkpt lat="51.6438333" lon="-8.7070833"><ele>6.0</ele><time>2026-05-05T12:19:16.202Z</time></trkpt><trkpt lat="51.6436817" lon="-8.7072833"><ele>5.0</ele><time>2026-05-05T12:19:17.202Z</time></trkpt><trkpt lat="51.6435467" lon="-8.7074667"><ele>5.0</ele><time>2026-05-05T12:19:18.202Z</time></trkpt><trkpt lat="51.643405" lon="-8.7076133"><ele>5.0</ele><time>2026-05-05T12:19:19.203Z</time></trkpt><trkpt lat="51.6432583" lon="-8.707745"><ele>5.0</ele><time>2026-05-05T12:19:20.203Z</time></trkpt><trkpt lat="51.6430983" lon="-8.7078533"><ele>6.0</ele><time>2026-05-05T12:19:21.202Z</time></trkpt><trkpt lat="51.6429317" lon="-8.70795"><ele>7.0</ele><time>2026-05-05T12:19:22.203Z</time></trkpt><trkpt lat="51.6427667" lon="-8.7080283"><ele>8.0</ele><time>2026-05-05T12:19:23.202Z</time></trkpt><trkpt lat="51.6425883" lon="-8.7081183"><ele>8.0</ele><time>2026-05-05T12:19:24.202Z</time></trkpt><trkpt lat="51.6424117" lon="-8.7082117"><ele>8.0</ele><time>2026-05-05T12:19:25.203Z</time></trkpt><trkpt lat="51.64222" lon="-8.7082967"><ele>8.0</ele><time>2026-05-05T12:19:26.203Z</time></trkpt><trkpt lat="51.6420367" lon="-8.7084267"><ele>8.333333333333332</ele><time>2026-05-05T12:19:27.203Z</time></trkpt><trkpt lat="51.6418417" lon="-8.7085667"><ele>8.666666666666666</ele><time>2026-05-05T12:19:28.202Z</time></trkpt><trkpt lat="51.6416567" lon="-8.7087217"><ele>9.0</ele><time>2026-05-05T12:19:29.203Z</time></trkpt><trkpt lat="51.6414717" lon="-8.7088633"><ele>9.0</ele><time>2026-05-05T12:19:30.202Z</time></trkpt><trkpt lat="51.6412933" lon="-8.7090083"><ele>9.0</ele><time>2026-05-05T12:19:31.202Z</time></trkpt><trkpt lat="51.6411233" lon="-8.7091567"><ele>9.0</ele><time>2026-05-05T12:19:32.203Z</time></trkpt><trkpt lat="51.6409383" lon="-8.7092983"><ele>9.333333333333334</ele><time>2026-05-05T12:19:33.202Z</time></trkpt><trkpt lat="51.64076" lon="-8.70944"><ele>9.666666666666668</ele><time>2026-05-05T12:19:34.203Z</time></trkpt><trkpt lat="51.64059" lon="-8.7095567"><ele>10.0</ele><time>2026-05-05T12:19:35.203Z</time></trkpt><trkpt lat="51.640425" lon="-8.7096767"><ele>8.333333333333334</ele><time>2026-05-05T12:19:36.203Z</time></trkpt><trkpt lat="51.6402683" lon="-8.709785"><ele>6.666666666666667</ele><time>2026-05-05T12:19:37.203Z</time></trkpt><trkpt lat="51.6401233" lon="-8.709885"><ele>5.0</ele><time>2026-05-05T12:19:38.203Z</time></trkpt><trkpt lat="51.639995" lon="-8.71"><ele>5.0</ele><time>2026-05-05T12:19:39.202Z</time></trkpt><trkpt lat="51.6398617" lon="-8.7101267"><ele>5.0</ele><time>2026-05-05T12:19:40.203Z</time></trkpt><trkpt lat="51.639755" lon="-8.7102633"><ele>5.0</ele><time>2026-05-05T12:19:41.203Z</time></trkpt><trkpt lat="51.6396683" lon="-8.7103833"><ele>5.0</ele><time>2026-05-05T12:19:42.202Z</time></trkpt><trkpt lat="51.6396067" lon="-8.7104883"><ele>4.6</ele><time>2026-05-05T12:19:43.203Z</time></trkpt><trkpt lat="51.6395567" lon="-8.7105733"><ele>4.2</ele><time>2026-05-05T12:19:44.203Z</time></trkpt><trkpt lat="51.6394983" lon="-8.7106833"><ele>3.8</ele><time>2026-05-05T12:19:46.203Z</time></trkpt><trkpt lat="51.6394767" lon="-8.71084"><ele>3.4</ele><time>2026-05-05T12:19:52.203Z</time></trkpt><trkpt lat="51.6394433" lon="-8.7110383"><ele>3.0</ele><time>2026-05-05T12:19:54.203Z</time></trkpt><trkpt lat="51.639425" lon="-8.7111617"><ele>3.0</ele><time>2026-05-05T12:19:55.202Z</time></trkpt><trkpt lat="51.6394" lon="-8.7112983"><ele>3.0</ele><time>2026-05-05T12:19:56.203Z</time></trkpt><trkpt lat="51.63938" lon="-8.7114517"><ele>3.0</ele><time>2026-05-05T12:19:57.202Z</time></trkpt><trkpt lat="51.63936" lon="-8.7116183"><ele>3.0</ele><time>2026-05-05T12:19:58.203Z</time></trkpt><trkpt lat="51.6393483" lon="-8.7117883"><ele>3.0</ele><time>2026-05-05T12:19:59.203Z</time></trkpt><trkpt lat="51.639345" lon="-8.7119567"><ele>3.0</ele><time>2026-05-05T12:20:00.202Z</time></trkpt><trkpt lat="51.639345" lon="-8.7121117"><ele>3.0</ele><time>2026-05-05T12:20:01.203Z</time></trkpt><trkpt lat="51.6393433" lon="-8.7122417"><ele>3.0</ele><time>2026-05-05T12:20:02.202Z</time></trkpt><trkpt lat="51.63934" lon="-8.712355"><ele>3.0</ele><time>2026-05-05T12:20:03.202Z</time></trkpt><trkpt lat="51.639335" lon="-8.7125367"><ele>3.0</ele><time>2026-05-05T12:20:05.202Z</time></trkpt><trkpt lat="51.63933" lon="-8.7126567"><ele>3.0</ele><time>2026-05-05T12:20:07.202Z</time></trkpt><trkpt lat="51.6393367" lon="-8.7127683"><ele>3.0</ele><time>2026-05-05T12:20:10.202Z</time></trkpt><trkpt lat="51.6393133" lon="-8.712865"><ele>3.0</ele><time>2026-05-05T12:25:37.203Z</time></trkpt><trkpt lat="51.6393583" lon="-8.7130067"><ele>3.0</ele><time>2026-05-05T12:25:39.202Z</time></trkpt><trkpt lat="51.63939" lon="-8.7131067"><ele>3.0</ele><time>2026-05-05T12:25:40.202Z</time></trkpt><trkpt lat="51.6394317" lon="-8.7132167"><ele>3.0</ele><time>2026-05-05T12:25:41.203Z</time></trkpt><trkpt lat="51.63948" lon="-8.71331"><ele>3.0</ele><time>2026-05-05T12:25:42.203Z</time></trkpt><trkpt lat="51.6395267" lon="-8.7134"><ele>5.199999999999999</ele><time>2026-05-05T12:25:43.202Z</time></trkpt><trkpt lat="51.6395833" lon="-8.7135283"><ele>7.3999999999999995</ele><time>2026-05-05T12:25:44.203Z</time></trkpt><trkpt lat="51.6396367" lon="-8.71366"><ele>9.599999999999998</ele><time>2026-05-05T12:25:45.203Z</time></trkpt><trkpt lat="51.639685" lon="-8.7138033"><ele>11.799999999999999</ele><time>2026-05-05T12:25:46.202Z</time></trkpt><trkpt lat="51.6397267" lon="-8.7139467"><ele>14.0</ele><time>2026-05-05T12:25:47.203Z</time></trkpt><trkpt lat="51.639765" lon="-8.7140767"><ele>14.0</ele><time>2026-05-05T12:25:48.202Z</time></trkpt><trkpt lat="51.6397917" lon="-8.71421"><ele>13.999999999999998</ele><time>2026-05-05T12:25:49.203Z</time></trkpt><trkpt lat="51.6398183" lon="-8.7143417"><ele>13.999999999999998</ele><time>2026-05-05T12:25:50.203Z</time></trkpt><trkpt lat="51.6398467" lon="-8.71448"><ele>14.0</ele><time>2026-05-05T12:25:51.203Z</time></trkpt><trkpt lat="51.63987" lon="-8.7146333"><ele>14.0</ele><time>2026-05-05T12:25:52.202Z</time></trkpt><trkpt lat="51.63989" lon="-8.7147883"><ele>13.0</ele><time>2026-05-05T12:25:53.203Z</time></trkpt><trkpt lat="51.6399133" lon="-8.714945"><ele>11.999999999999998</ele><time>2026-05-05T12:25:54.203Z</time></trkpt><trkpt lat="51.6399383" lon="-8.715115"><ele>11.0</ele><time>2026-05-05T12:25:55.203Z</time></trkpt><trkpt lat="51.6399667" lon="-8.71529"><ele>10.0</ele><time>2026-05-05T12:25:56.202Z</time></trkpt><trkpt lat="51.6399983" lon="-8.715475"><ele>9.0</ele><time>2026-05-05T12:25:57.203Z</time></trkpt><trkpt lat="51.6400333" lon="-8.71567"><ele>8.25</ele><time>2026-05-05T12:25:58.202Z</time></trkpt><trkpt lat="51.6400667" lon="-8.7158817"><ele>7.5</ele><time>2026-05-05T12:25:59.203Z</time></trkpt><trkpt lat="51.6401183" lon="-8.71611"><ele>6.75</ele><time>2026-05-05T12:26:00.203Z</time></trkpt><trkpt lat="51.6401967" lon="-8.71634"><ele>6.0</ele><time>2026-05-05T12:26:01.203Z</time></trkpt><trkpt lat="51.6402717" lon="-8.716575"><ele>6.666666666666666</ele><time>2026-05-05T12:26:02.203Z</time></trkpt><trkpt lat="51.64035" lon="-8.716805"><ele>7.333333333333333</ele><time>2026-05-05T12:26:03.202Z</time></trkpt><trkpt lat="51.64043" lon="-8.7170433"><ele>8.0</ele><time>2026-05-05T12:26:04.202Z</time></trkpt><trkpt lat="51.6405233" lon="-8.7172617"><ele>8.0</ele><time>2026-05-05T12:26:05.203Z</time></trkpt><trkpt lat="51.64063" lon="-8.7174683"><ele>8.0</ele><time>2026-05-05T12:26:06.203Z</time></trkpt><trkpt lat="51.6407417" lon="-8.7176583"><ele>8.0</ele><time>2026-05-05T12:26:07.202Z</time></trkpt><trkpt lat="51.6408533" lon="-8.7178533"><ele>6.333333333333333</ele><time>2026-05-05T12:26:08.203Z</time></trkpt><trkpt lat="51.6409667" lon="-8.7180733"><ele>4.666666666666666</ele><time>2026-05-05T12:26:09.203Z</time></trkpt><trkpt lat="51.6410617" lon="-8.71828"><ele>3.0</ele><time>2026-05-05T12:26:10.202Z</time></trkpt><trkpt lat="51.6411533" lon="-8.7185183"><ele>5.333333333333334</ele><time>2026-05-05T12:26:11.202Z</time></trkpt><trkpt lat="51.6412467" lon="-8.7187583"><ele>7.666666666666667</ele><time>2026-05-05T12:26:12.202Z</time></trkpt><trkpt lat="51.6413317" lon="-8.718975"><ele>10.0</ele><time>2026-05-05T12:26:13.202Z</time></trkpt><trkpt lat="51.64143" lon="-8.7191667"><ele>10.0</ele><time>2026-05-05T12:26:14.203Z</time></trkpt><trkpt lat="51.6415283" lon="-8.71936"><ele>10.0</ele><time>2026-05-05T12:26:15.202Z</time></trkpt><trkpt lat="51.6416367" lon="-8.7195483"><ele>10.0</ele><time>2026-05-05T12:26:16.202Z</time></trkpt><trkpt lat="51.6417633" lon="-8.7197217"><ele>10.0</ele><time>2026-05-05T12:26:17.202Z</time></trkpt><trkpt lat="51.6418983" lon="-8.7199217"><ele>10.0</ele><time>2026-05-05T12:26:18.203Z</time></trkpt><trkpt lat="51.6420567" lon="-8.7201083"><ele>10.0</ele><time>2026-05-05T12:26:19.203Z</time></trkpt><trkpt lat="51.6422167" lon="-8.7202783"><ele>8.333333333333334</ele><time>2026-05-05T12:26:20.203Z</time></trkpt><trkpt lat="51.642375" lon="-8.7204733"><ele>6.666666666666667</ele><time>2026-05-05T12:26:21.202Z</time></trkpt><trkpt lat="51.64253" lon="-8.7206617"><ele>5.0</ele><time>2026-05-05T12:26:22.203Z</time></trkpt><trkpt lat="51.642675" lon="-8.720845"><ele>4.666666666666667</ele><time>2026-05-05T12:26:23.203Z</time></trkpt><trkpt lat="51.64281" lon="-8.7210117"><ele>4.333333333333333</ele><time>2026-05-05T12:26:24.202Z</time></trkpt><trkpt lat="51.6429367" lon="-8.7211833"><ele>4.0</ele><time>2026-05-05T12:26:25.203Z</time></trkpt><trkpt lat="51.6430633" lon="-8.7213383"><ele>4.0</ele><time>2026-05-05T12:26:26.203Z</time></trkpt><trkpt lat="51.6431917" lon="-8.7214717"><ele>4.0</ele><time>2026-05-05T12:26:27.203Z</time></trkpt><trkpt lat="51.64333" lon="-8.721595"><ele>4.0</ele><time>2026-05-05T12:26:28.202Z</time></trkpt><trkpt lat="51.6434783" lon="-8.721695"><ele>5.333333333333333</ele><time>2026-05-05T12:26:29.202Z</time></trkpt><trkpt lat="51.6436383" lon="-8.7217833"><ele>6.666666666666666</ele><time>2026-05-05T12:26:30.203Z</time></trkpt><trkpt lat="51.6438033" lon="-8.7218317"><ele>8.0</ele><time>2026-05-05T12:26:31.203Z</time></trkpt><trkpt lat="51.643975" lon="-8.721855"><ele>8.0</ele><time>2026-05-05T12:26:32.203Z</time></trkpt><trkpt lat="51.6441433" lon="-8.721855"><ele>8.0</ele><time>2026-05-05T12:26:33.202Z</time></trkpt><trkpt lat="51.6443133" lon="-8.721865"><ele>8.0</ele><time>2026-05-05T12:26:34.203Z</time></trkpt><trkpt lat="51.6444883" lon="-8.7218867"><ele>6.333333333333333</ele><time>2026-05-05T12:26:35.203Z</time></trkpt><trkpt lat="51.64466" lon="-8.7219283"><ele>4.666666666666666</ele><time>2026-05-05T12:26:36.203Z</time></trkpt><trkpt lat="51.6448383" lon="-8.721995"><ele>3.0</ele><time>2026-05-05T12:26:37.203Z</time></trkpt><trkpt lat="51.6450083" lon="-8.7220667"><ele>3.0</ele><time>2026-05-05T12:26:38.203Z</time></trkpt><trkpt lat="51.6451583" lon="-8.72215"><ele>3.0</ele><time>2026-05-05T12:26:39.202Z</time></trkpt><trkpt lat="51.6453067" lon="-8.722215"><ele>3.0</ele><time>2026-05-05T12:26:40.203Z</time></trkpt><trkpt lat="51.6454433" lon="-8.7222967"><ele>3.75</ele><time>2026-05-05T12:26:41.202Z</time></trkpt><trkpt lat="51.6455567" lon="-8.722415"><ele>4.5</ele><time>2026-05-05T12:26:42.203Z</time></trkpt><trkpt lat="51.6456533" lon="-8.722575"><ele>5.25</ele><time>2026-05-05T12:26:43.203Z</time></trkpt><trkpt lat="51.64574" lon="-8.7227583"><ele>6.0</ele><time>2026-05-05T12:26:44.203Z</time></trkpt><trkpt lat="51.6457967" lon="-8.7229433"><ele>6.0</ele><time>2026-05-05T12:26:45.202Z</time></trkpt><trkpt lat="51.64585" lon="-8.7231483"><ele>6.0</ele><time>2026-05-05T12:26:46.203Z</time></trkpt><trkpt lat="51.6458983" lon="-8.7233733"><ele>6.0</ele><time>2026-05-05T12:26:47.203Z</time></trkpt><trkpt lat="51.6459517" lon="-8.7236067"><ele>6.0</ele><time>2026-05-05T12:26:48.203Z</time></trkpt><trkpt lat="51.6460033" lon="-8.7238467"><ele>5.0</ele><time>2026-05-05T12:26:49.203Z</time></trkpt><trkpt lat="51.6460567" lon="-8.7241017"><ele>4.0</ele><time>2026-05-05T12:26:50.203Z</time></trkpt><trkpt lat="51.6461133" lon="-8.724355"><ele>3.0</ele><time>2026-05-05T12:26:51.202Z</time></trkpt><trkpt lat="51.6461733" lon="-8.7245983"><ele>4.666666666666666</ele><time>2026-05-05T12:26:52.203Z</time></trkpt><trkpt lat="51.64623" lon="-8.7248683"><ele>6.333333333333333</ele><time>2026-05-05T12:26:53.203Z</time></trkpt><trkpt lat="51.6462733" lon="-8.725155"><ele>8.0</ele><time>2026-05-05T12:26:54.202Z</time></trkpt><trkpt lat="51.6463167" lon="-8.725415"><ele>8.0</ele><time>2026-05-05T12:26:55.202Z</time></trkpt><trkpt lat="51.6463567" lon="-8.7256817"><ele>8.0</ele><time>2026-05-05T12:26:56.203Z</time></trkpt><trkpt lat="51.6463933" lon="-8.72595"><ele>8.0</ele><time>2026-05-05T12:26:57.202Z</time></trkpt><trkpt lat="51.64643" lon="-8.7262117"><ele>8.0</ele><time>2026-05-05T12:26:58.203Z</time></trkpt><trkpt lat="51.64647" lon="-8.7264617"><ele>8.0</ele><time>2026-05-05T12:26:59.203Z</time></trkpt><trkpt lat="51.6465217" lon="-8.7267033"><ele>8.0</ele><time>2026-05-05T12:27:00.202Z</time></trkpt><trkpt lat="51.6465833" lon="-8.7269333"><ele>7.0</ele><time>2026-05-05T12:27:01.202Z</time></trkpt><trkpt lat="51.64667" lon="-8.7271333"><ele>6.0</ele><time>2026-05-05T12:27:02.203Z</time></trkpt><trkpt lat="51.6467583" lon="-8.7272983"><ele>5.0</ele><time>2026-05-05T12:27:03.203Z</time></trkpt><trkpt lat="51.6468483" lon="-8.727445"><ele>4.0</ele><time>2026-05-05T12:27:04.203Z</time></trkpt><trkpt lat="51.64694" lon="-8.7275783"><ele>5.0</ele><time>2026-05-05T12:27:05.202Z</time></trkpt><trkpt lat="51.64704" lon="-8.7276917"><ele>6.0</ele><time>2026-05-05T12:27:06.202Z</time></trkpt><trkpt lat="51.6471367" lon="-8.7278083"><ele>7.0</ele><time>2026-05-05T12:27:07.202Z</time></trkpt><trkpt lat="51.64723" lon="-8.72791"><ele>8.0</ele><time>2026-05-05T12:27:08.203Z</time></trkpt><trkpt lat="51.6473067" lon="-8.7280067"><ele>8.0</ele><time>2026-05-05T12:27:09.202Z</time></trkpt><trkpt lat="51.6473717" lon="-8.7281483"><ele>8.0</ele><time>2026-05-05T12:27:10.203Z</time></trkpt><trkpt lat="51.64743" lon="-8.72831"><ele>8.0</ele><time>2026-05-05T12:27:11.203Z</time></trkpt><trkpt lat="51.6474467" lon="-8.7284933"><ele>8.0</ele><time>2026-05-05T12:27:12.203Z</time></trkpt><trkpt lat="51.64743" lon="-8.7286933"><ele>8.5</ele><time>2026-05-05T12:27:13.203Z</time></trkpt><trkpt lat="51.64738" lon="-8.7288933"><ele>9.0</ele><time>2026-05-05T12:27:14.202Z</time></trkpt><trkpt lat="51.647305" lon="-8.729085"><ele>9.5</ele><time>2026-05-05T12:27:15.203Z</time></trkpt><trkpt lat="51.6472083" lon="-8.72928"><ele>10.0</ele><time>2026-05-05T12:27:16.202Z</time></trkpt><trkpt lat="51.647105" lon="-8.7294883"><ele>11.333333333333334</ele><time>2026-05-05T12:27:17.203Z</time></trkpt><trkpt lat="51.647" lon="-8.72971"><ele>12.666666666666668</ele><time>2026-05-05T12:27:18.203Z</time></trkpt><trkpt lat="51.646905" lon="-8.729945"><ele>14.0</ele><time>2026-05-05T12:27:19.203Z</time></trkpt><trkpt lat="51.646805" lon="-8.7302"><ele>11.666666666666668</ele><time>2026-05-05T12:27:20.203Z</time></trkpt><trkpt lat="51.6467083" lon="-8.73047"><ele>9.333333333333334</ele><time>2026-05-05T12:27:21.202Z</time></trkpt><trkpt lat="51.6466417" lon="-8.73074"><ele>7.0</ele><time>2026-05-05T12:27:22.202Z</time></trkpt><trkpt lat="51.6465833" lon="-8.73101"><ele>7.666666666666667</ele><time>2026-05-05T12:27:23.203Z</time></trkpt><trkpt lat="51.6465317" lon="-8.7312833"><ele>8.333333333333334</ele><time>2026-05-05T12:27:24.203Z</time></trkpt><trkpt lat="51.6464933" lon="-8.7315667"><ele>9.0</ele><time>2026-05-05T12:27:25.202Z</time></trkpt><trkpt lat="51.6464583" lon="-8.7318583"><ele>9.666666666666666</ele><time>2026-05-05T12:27:26.202Z</time></trkpt><trkpt lat="51.6464283" lon="-8.73216"><ele>10.333333333333332</ele><time>2026-05-05T12:27:27.202Z</time></trkpt><trkpt lat="51.6463867" lon="-8.7324617"><ele>11.0</ele><time>2026-05-05T12:27:28.203Z</time></trkpt><trkpt lat="51.6463383" lon="-8.7327717"><ele>11.666666666666666</ele><time>2026-05-05T12:27:29.203Z</time></trkpt><trkpt lat="51.6463117" lon="-8.733065"><ele>12.333333333333332</ele><time>2026-05-05T12:27:30.202Z</time></trkpt><trkpt lat="51.6462717" lon="-8.7333633"><ele>13.0</ele><time>2026-05-05T12:27:31.203Z</time></trkpt><trkpt lat="51.6462467" lon="-8.7336583"><ele>13.333333333333332</ele><time>2026-05-05T12:27:32.203Z</time></trkpt><trkpt lat="51.64622" lon="-8.733955"><ele>13.666666666666668</ele><time>2026-05-05T12:27:33.203Z</time></trkpt><trkpt lat="51.6461917" lon="-8.734235"><ele>14.0</ele><time>2026-05-05T12:27:34.202Z</time></trkpt><trkpt lat="51.6461783" lon="-8.7344983"><ele>14.0</ele><time>2026-05-05T12:27:35.203Z</time></trkpt><trkpt lat="51.6461767" lon="-8.734745"><ele>14.0</ele><time>2026-05-05T12:27:36.202Z</time></trkpt><trkpt lat="51.6461883" lon="-8.7349867"><ele>14.0</ele><time>2026-05-05T12:27:37.203Z</time></trkpt><trkpt lat="51.64622" lon="-8.7352333"><ele>14.0</ele><time>2026-05-05T12:27:38.202Z</time></trkpt><trkpt lat="51.6462717" lon="-8.7355033"><ele>14.0</ele><time>2026-05-05T12:27:39.202Z</time></trkpt><trkpt lat="51.646335" lon="-8.7357817"><ele>14.0</ele><time>2026-05-05T12:27:40.203Z</time></trkpt><trkpt lat="51.6464" lon="-8.7360683"><ele>13.0</ele><time>2026-05-05T12:27:41.202Z</time></trkpt><trkpt lat="51.6464467" lon="-8.7363633"><ele>12.0</ele><time>2026-05-05T12:27:42.202Z</time></trkpt><trkpt lat="51.6464833" lon="-8.7366783"><ele>11.0</ele><time>2026-05-05T12:27:43.203Z</time></trkpt><trkpt lat="51.6465183" lon="-8.7370083"><ele>10.0</ele><time>2026-05-05T12:27:44.202Z</time></trkpt><trkpt lat="51.6465517" lon="-8.7373483"><ele>9.0</ele><time>2026-05-05T12:27:45.203Z</time></trkpt><trkpt lat="51.6465833" lon="-8.7376917"><ele>8.0</ele><time>2026-05-05T12:27:46.203Z</time></trkpt><trkpt lat="51.6466217" lon="-8.7380383"><ele>8.0</ele><time>2026-05-05T12:27:47.203Z</time></trkpt><trkpt lat="51.646645" lon="-8.7383967"><ele>8.0</ele><time>2026-05-05T12:27:48.202Z</time></trkpt><trkpt lat="51.6466667" lon="-8.73877"><ele>8.0</ele><time>2026-05-05T12:27:49.203Z</time></trkpt><trkpt lat="51.6466833" lon="-8.73914"><ele>8.0</ele><time>2026-05-05T12:27:50.202Z</time></trkpt><trkpt lat="51.64669" lon="-8.7395067"><ele>7.333333333333333</ele><time>2026-05-05T12:27:51.203Z</time></trkpt><trkpt lat="51.6466983" lon="-8.7398533"><ele>6.666666666666666</ele><time>2026-05-05T12:27:52.202Z</time></trkpt><trkpt lat="51.6466933" lon="-8.7401817"><ele>6.0</ele><time>2026-05-05T12:27:53.202Z</time></trkpt><trkpt lat="51.6467033" lon="-8.7404767"><ele>6.0</ele><time>2026-05-05T12:27:54.203Z</time></trkpt><trkpt lat="51.6467167" lon="-8.7407667"><ele>6.0</ele><time>2026-05-05T12:27:55.203Z</time></trkpt><trkpt lat="51.6467433" lon="-8.7410733"><ele>6.0</ele><time>2026-05-05T12:27:56.203Z</time></trkpt><trkpt lat="51.6467883" lon="-8.7413817"><ele>5.666666666666667</ele><time>2026-05-05T12:27:57.203Z</time></trkpt><trkpt lat="51.646825" lon="-8.7416933"><ele>5.333333333333334</ele><time>2026-05-05T12:27:58.203Z</time></trkpt><trkpt lat="51.646855" lon="-8.742005"><ele>5.0</ele><time>2026-05-05T12:27:59.202Z</time></trkpt><trkpt lat="51.6468783" lon="-8.7423317"><ele>4.666666666666667</ele><time>2026-05-05T12:28:00.202Z</time></trkpt><trkpt lat="51.6469183" lon="-8.7426567"><ele>4.333333333333333</ele><time>2026-05-05T12:28:01.202Z</time></trkpt><trkpt lat="51.646955" lon="-8.7429917"><ele>4.0</ele><time>2026-05-05T12:28:02.202Z</time></trkpt><trkpt lat="51.646985" lon="-8.743335"><ele>6.666666666666666</ele><time>2026-05-05T12:28:03.203Z</time></trkpt><trkpt lat="51.6470017" lon="-8.7436633"><ele>9.333333333333334</ele><time>2026-05-05T12:28:04.203Z</time></trkpt><trkpt lat="51.64701" lon="-8.744005"><ele>12.0</ele><time>2026-05-05T12:28:05.203Z</time></trkpt><trkpt lat="51.6469967" lon="-8.7443583"><ele>12.333333333333332</ele><time>2026-05-05T12:28:06.202Z</time></trkpt><trkpt lat="51.6469817" lon="-8.744705"><ele>12.666666666666666</ele><time>2026-05-05T12:28:07.203Z</time></trkpt><trkpt lat="51.64696" lon="-8.74503"><ele>13.0</ele><time>2026-05-05T12:28:08.203Z</time></trkpt><trkpt lat="51.6469267" lon="-8.7453433"><ele>10.666666666666666</ele><time>2026-05-05T12:28:09.202Z</time></trkpt><trkpt lat="51.6468833" lon="-8.74563"><ele>8.333333333333332</ele><time>2026-05-05T12:28:10.203Z</time></trkpt><trkpt lat="51.64683" lon="-8.745895"><ele>6.0</ele><time>2026-05-05T12:28:11.203Z</time></trkpt><trkpt lat="51.6467667" lon="-8.7461367"><ele>6.0</ele><time>2026-05-05T12:28:12.202Z</time></trkpt><trkpt lat="51.6466833" lon="-8.7463683"><ele>6.0</ele><time>2026-05-05T12:28:13.203Z</time></trkpt><trkpt lat="51.6466167" lon="-8.7466"><ele>6.0</ele><time>2026-05-05T12:28:14.202Z</time></trkpt><trkpt lat="51.64658" lon="-8.7468133"><ele>5.666666666666667</ele><time>2026-05-05T12:28:15.202Z</time></trkpt><trkpt lat="51.64656" lon="-8.7470317"><ele>5.333333333333334</ele><time>2026-05-05T12:28:16.203Z</time></trkpt><trkpt lat="51.64655" lon="-8.7472833"><ele>5.0</ele><time>2026-05-05T12:28:17.202Z</time></trkpt><trkpt lat="51.64656" lon="-8.74755"><ele>5.0</ele><time>2026-05-05T12:28:18.203Z</time></trkpt><trkpt lat="51.64657" lon="-8.74782"><ele>5.0</ele><time>2026-05-05T12:28:19.203Z</time></trkpt><trkpt lat="51.646575" lon="-8.748075"><ele>5.0</ele><time>2026-05-05T12:28:20.202Z</time></trkpt><trkpt lat="51.646585" lon="-8.74831"><ele>5.0</ele><time>2026-05-05T12:28:21.203Z</time></trkpt><trkpt lat="51.6466133" lon="-8.748535"><ele>5.0</ele><time>2026-05-05T12:28:22.203Z</time></trkpt><trkpt lat="51.64663" lon="-8.7487667"><ele>5.0</ele><time>2026-05-05T12:28:23.202Z</time></trkpt><trkpt lat="51.64665" lon="-8.7489967"><ele>5.0</ele><time>2026-05-05T12:28:24.203Z</time></trkpt><trkpt lat="51.6466433" lon="-8.7492367"><ele>5.333333333333334</ele><time>2026-05-05T12:28:25.203Z</time></trkpt><trkpt lat="51.6466167" lon="-8.7495017"><ele>5.666666666666667</ele><time>2026-05-05T12:28:26.203Z</time></trkpt><trkpt lat="51.6465633" lon="-8.74977"><ele>6.0</ele><time>2026-05-05T12:28:27.202Z</time></trkpt><trkpt lat="51.64651" lon="-8.750035"><ele>6.666666666666666</ele><time>2026-05-05T12:28:28.202Z</time></trkpt><trkpt lat="51.6464467" lon="-8.7503083"><ele>7.333333333333333</ele><time>2026-05-05T12:28:29.203Z</time></trkpt><trkpt lat="51.646375" lon="-8.7505867"><ele>8.0</ele><time>2026-05-05T12:28:30.203Z</time></trkpt><trkpt lat="51.6463017" lon="-8.7508717"><ele>8.666666666666666</ele><time>2026-05-05T12:28:31.202Z</time></trkpt><trkpt lat="51.6462333" lon="-8.7511567"><ele>9.333333333333334</ele><time>2026-05-05T12:28:32.203Z</time></trkpt><trkpt lat="51.6461617" lon="-8.7514467"><ele>10.0</ele><time>2026-05-05T12:28:33.203Z</time></trkpt><trkpt lat="51.6460833" lon="-8.7517367"><ele>8.0</ele><time>2026-05-05T12:28:34.203Z</time></trkpt><trkpt lat="51.6460083" lon="-8.7520233"><ele>6.0</ele><time>2026-05-05T12:28:35.203Z</time></trkpt><trkpt lat="51.6459417" lon="-8.7522967"><ele>4.0</ele><time>2026-05-05T12:28:36.203Z</time></trkpt><trkpt lat="51.64589" lon="-8.752555"><ele>4.666666666666666</ele><time>2026-05-05T12:28:37.203Z</time></trkpt><trkpt lat="51.6458467" lon="-8.7528183"><ele>5.333333333333333</ele><time>2026-05-05T12:28:38.203Z</time></trkpt><trkpt lat="51.6457817" lon="-8.75307"><ele>6.0</ele><time>2026-05-05T12:28:39.203Z</time></trkpt><trkpt lat="51.6457033" lon="-8.7533383"><ele>6.333333333333334</ele><time>2026-05-05T12:28:40.202Z</time></trkpt><trkpt lat="51.64561" lon="-8.7536033"><ele>6.666666666666667</ele><time>2026-05-05T12:28:41.203Z</time></trkpt><trkpt lat="51.6455183" lon="-8.7538683"><ele>7.0</ele><time>2026-05-05T12:28:42.203Z</time></trkpt><trkpt lat="51.64542" lon="-8.7541417"><ele>7.666666666666667</ele><time>2026-05-05T12:28:43.203Z</time></trkpt><trkpt lat="51.6453083" lon="-8.7544167"><ele>8.333333333333334</ele><time>2026-05-05T12:28:44.202Z</time></trkpt><trkpt lat="51.6452017" lon="-8.7546967"><ele>9.0</ele><time>2026-05-05T12:28:45.203Z</time></trkpt><trkpt lat="51.6450983" lon="-8.7549733"><ele>8.0</ele><time>2026-05-05T12:28:46.203Z</time></trkpt><trkpt lat="51.645" lon="-8.75525"><ele>7.0</ele><time>2026-05-05T12:28:47.203Z</time></trkpt><trkpt lat="51.6448983" lon="-8.7555367"><ele>6.0</ele><time>2026-05-05T12:28:48.203Z</time></trkpt><trkpt lat="51.6448117" lon="-8.7558133"><ele>6.333333333333334</ele><time>2026-05-05T12:28:49.202Z</time></trkpt><trkpt lat="51.644735" lon="-8.756075"><ele>6.666666666666667</ele><time>2026-05-05T12:28:50.203Z</time></trkpt><trkpt lat="51.6446667" lon="-8.7563033"><ele>7.0</ele><time>2026-05-05T12:28:51.203Z</time></trkpt><trkpt lat="51.64462" lon="-8.7565133"><ele>7.0</ele><time>2026-05-05T12:28:52.203Z</time></trkpt><trkpt lat="51.6445917" lon="-8.7567133"><ele>7.0</ele><time>2026-05-05T12:28:53.203Z</time></trkpt><trkpt lat="51.64458" lon="-8.75693"><ele>7.0</ele><time>2026-05-05T12:28:54.203Z</time></trkpt><trkpt lat="51.6445783" lon="-8.7571667"><ele>7.0</ele><time>2026-05-05T12:28:55.203Z</time></trkpt><trkpt lat="51.6445833" lon="-8.75742"><ele>7.0</ele><time>2026-05-05T12:28:56.202Z</time></trkpt><trkpt lat="51.6445933" lon="-8.7576883"><ele>7.0</ele><time>2026-05-05T12:28:57.202Z</time></trkpt><trkpt lat="51.6446117" lon="-8.7579567"><ele>7.0</ele><time>2026-05-05T12:28:58.203Z</time></trkpt><trkpt lat="51.644655" lon="-8.758205"><ele>7.0</ele><time>2026-05-05T12:28:59.202Z</time></trkpt><trkpt lat="51.644695" lon="-8.7584367"><ele>7.0</ele><time>2026-05-05T12:29:00.203Z</time></trkpt><trkpt lat="51.6447433" lon="-8.7586383"><ele>7.0</ele><time>2026-05-05T12:29:01.203Z</time></trkpt><trkpt lat="51.6448033" lon="-8.7588283"><ele>7.0</ele><time>2026-05-05T12:29:02.203Z</time></trkpt><trkpt lat="51.6448717" lon="-8.7589917"><ele>6.75</ele><time>2026-05-05T12:29:03.203Z</time></trkpt><trkpt lat="51.6449517" lon="-8.7591583"><ele>6.5</ele><time>2026-05-05T12:29:04.203Z</time></trkpt><trkpt lat="51.6450333" lon="-8.759345"><ele>6.25</ele><time>2026-05-05T12:29:05.203Z</time></trkpt><trkpt lat="51.6451117" lon="-8.7595133"><ele>6.0</ele><time>2026-05-05T12:29:06.203Z</time></trkpt><trkpt lat="51.6451867" lon="-8.7596717"><ele>6.0</ele><time>2026-05-05T12:29:07.202Z</time></trkpt><trkpt lat="51.6452583" lon="-8.759855"><ele>6.0</ele><time>2026-05-05T12:29:08.203Z</time></trkpt><trkpt lat="51.645325" lon="-8.7600133"><ele>6.0</ele><time>2026-05-05T12:29:09.202Z</time></trkpt><trkpt lat="51.6454" lon="-8.7601583"><ele>6.0</ele><time>2026-05-05T12:29:10.203Z</time></trkpt><trkpt lat="51.6454833" lon="-8.7602833"><ele>5.8</ele><time>2026-05-05T12:29:11.203Z</time></trkpt><trkpt lat="51.6455633" lon="-8.7603817"><ele>5.6</ele><time>2026-05-05T12:29:12.203Z</time></trkpt><trkpt lat="51.6456533" lon="-8.760445"><ele>5.4</ele><time>2026-05-05T12:29:13.202Z</time></trkpt><trkpt lat="51.6457383" lon="-8.7604967"><ele>5.2</ele><time>2026-05-05T12:29:14.202Z</time></trkpt><trkpt lat="51.6458183" lon="-8.760525"><ele>5.0</ele><time>2026-05-05T12:29:15.203Z</time></trkpt><trkpt lat="51.6459167" lon="-8.7605733"><ele>5.0</ele><time>2026-05-05T12:29:17.202Z</time></trkpt><trkpt lat="51.64596" lon="-8.7606533"><ele>5.0</ele><time>2026-05-05T12:29:19.203Z</time></trkpt><trkpt lat="51.6459167" lon="-8.7607867"><ele>5.0</ele><time>2026-05-05T12:29:22.202Z</time></trkpt><trkpt lat="51.64586" lon="-8.7608567"><ele>5.0</ele><time>2026-05-05T12:29:23.203Z</time></trkpt><trkpt lat="51.6458" lon="-8.760935"><ele>5.0</ele><time>2026-05-05T12:29:24.203Z</time></trkpt><trkpt lat="51.6457267" lon="-8.76102"><ele>5.0</ele><time>2026-05-05T12:29:25.203Z</time></trkpt><trkpt lat="51.645635" lon="-8.761115"><ele>5.0</ele><time>2026-05-05T12:29:26.203Z</time></trkpt><trkpt lat="51.6455333" lon="-8.7612167"><ele>5.0</ele><time>2026-05-05T12:29:27.203Z</time></trkpt><trkpt lat="51.6454317" lon="-8.76134"><ele>5.0</ele><time>2026-05-05T12:29:28.203Z</time></trkpt><trkpt lat="51.6453317" lon="-8.7614767"><ele>5.0</ele><time>2026-05-05T12:29:29.203Z</time></trkpt><trkpt lat="51.6452367" lon="-8.7616167"><ele>5.0</ele><time>2026-05-05T12:29:30.203Z</time></trkpt><trkpt lat="51.64515" lon="-8.7617633"><ele>5.0</ele><time>2026-05-05T12:29:31.203Z</time></trkpt><trkpt lat="51.6450717" lon="-8.7619133"><ele>5.0</ele><time>2026-05-05T12:29:32.202Z</time></trkpt><trkpt lat="51.645005" lon="-8.7620483"><ele>5.0</ele><time>2026-05-05T12:29:33.203Z</time></trkpt><trkpt lat="51.6449483" lon="-8.7621933"><ele>4.833333333333334</ele><time>2026-05-05T12:29:34.203Z</time></trkpt><trkpt lat="51.6448967" lon="-8.7623467"><ele>4.666666666666667</ele><time>2026-05-05T12:29:35.203Z</time></trkpt><trkpt lat="51.644855" lon="-8.762485"><ele>4.5</ele><time>2026-05-05T12:29:36.203Z</time></trkpt><trkpt lat="51.644825" lon="-8.7626167"><ele>4.333333333333333</ele><time>2026-05-05T12:29:37.203Z</time></trkpt><trkpt lat="51.6447967" lon="-8.7627333"><ele>4.166666666666666</ele><time>2026-05-05T12:29:38.203Z</time></trkpt><trkpt lat="51.6447833" lon="-8.7628433"><ele>4.0</ele><time>2026-05-05T12:29:39.202Z</time></trkpt><trkpt lat="51.64479" lon="-8.76303"><ele>4.333333333333333</ele><time>2026-05-05T12:29:41.203Z</time></trkpt><trkpt lat="51.644795" lon="-8.76314"><ele>4.666666666666666</ele><time>2026-05-05T12:29:42.202Z</time></trkpt><trkpt lat="51.6448067" lon="-8.76327"><ele>5.0</ele><time>2026-05-05T12:29:43.203Z</time></trkpt><trkpt lat="51.644815" lon="-8.763405"><ele>5.333333333333333</ele><time>2026-05-05T12:29:44.203Z</time></trkpt><trkpt lat="51.6448233" lon="-8.763535"><ele>5.666666666666667</ele><time>2026-05-05T12:29:45.203Z</time></trkpt><trkpt lat="51.6448317" lon="-8.7636517"><ele>6.0</ele><time>2026-05-05T12:29:46.203Z</time></trkpt><trkpt lat="51.6448317" lon="-8.7638317"><ele>6.0</ele><time>2026-05-05T12:29:48.202Z</time></trkpt><trkpt lat="51.6448" lon="-8.7639267"><ele>6.0</ele><time>2026-05-05T12:29:50.203Z</time></trkpt><trkpt lat="51.644685" lon="-8.7639933"><ele>6.0</ele><time>2026-05-05T12:29:52.203Z</time></trkpt><trkpt lat="51.6445983" lon="-8.7640117"><ele>6.0</ele><time>2026-05-05T12:29:53.203Z</time></trkpt><trkpt lat="51.6444967" lon="-8.7640117"><ele>6.0</ele><time>2026-05-05T12:29:54.202Z</time></trkpt><trkpt lat="51.64439" lon="-8.763985"><ele>6.0</ele><time>2026-05-05T12:29:55.203Z</time></trkpt><trkpt lat="51.6442917" lon="-8.7639533"><ele>6.0</ele><time>2026-05-05T12:29:56.202Z</time></trkpt><trkpt lat="51.644195" lon="-8.7639117"><ele>6.0</ele><time>2026-05-05T12:29:57.203Z</time></trkpt><trkpt lat="51.6441117" lon="-8.763865"><ele>6.0</ele><time>2026-05-05T12:29:58.203Z</time></trkpt><trkpt lat="51.64403" lon="-8.7638083"><ele>6.0</ele><time>2026-05-05T12:29:59.202Z</time></trkpt><trkpt lat="51.6439567" lon="-8.7637517"><ele>6.0</ele><time>2026-05-05T12:30:00.202Z</time></trkpt><trkpt lat="51.6438817" lon="-8.7636883"><ele>6.0</ele><time>2026-05-05T12:30:01.203Z</time></trkpt><trkpt lat="51.643805" lon="-8.7636233"><ele>6.0</ele><time>2026-05-05T12:30:02.203Z</time></trkpt><trkpt lat="51.64372" lon="-8.76354"><ele>6.0</ele><time>2026-05-05T12:30:03.203Z</time></trkpt><trkpt lat="51.6436383" lon="-8.763465"><ele>6.0</ele><time>2026-05-05T12:30:04.202Z</time></trkpt><trkpt lat="51.64356" lon="-8.7633883"><ele>5.833333333333333</ele><time>2026-05-05T12:30:05.203Z</time></trkpt><trkpt lat="51.6434867" lon="-8.7633133"><ele>5.666666666666667</ele><time>2026-05-05T12:30:06.203Z</time></trkpt><trkpt lat="51.6434133" lon="-8.76324"><ele>5.5</ele><time>2026-05-05T12:30:07.203Z</time></trkpt><trkpt lat="51.64335" lon="-8.7631717"><ele>5.333333333333334</ele><time>2026-05-05T12:30:08.203Z</time></trkpt><trkpt lat="51.6432883" lon="-8.7631167"><ele>5.166666666666667</ele><time>2026-05-05T12:30:09.202Z</time></trkpt><trkpt lat="51.64322" lon="-8.7630683"><ele>5.0</ele><time>2026-05-05T12:30:10.203Z</time></trkpt><trkpt lat="51.643145" lon="-8.7630117"><ele>5.0</ele><time>2026-05-05T12:30:11.203Z</time></trkpt><trkpt lat="51.6430617" lon="-8.7629567"><ele>5.0</ele><time>2026-05-05T12:30:12.203Z</time></trkpt><trkpt lat="51.6429633" lon="-8.7629233"><ele>5.0</ele><time>2026-05-05T12:30:13.203Z</time></trkpt><trkpt lat="51.6428683" lon="-8.7628933"><ele>5.0</ele><time>2026-05-05T12:30:14.203Z</time></trkpt><trkpt lat="51.642785" lon="-8.7628667"><ele>5.0</ele><time>2026-05-05T12:30:15.203Z</time></trkpt><trkpt lat="51.6426983" lon="-8.762875"><ele>4.833333333333334</ele><time>2026-05-05T12:30:16.203Z</time></trkpt><trkpt lat="51.64261" lon="-8.762905"><ele>4.666666666666667</ele><time>2026-05-05T12:30:17.203Z</time></trkpt><trkpt lat="51.6425367" lon="-8.762995"><ele>4.5</ele><time>2026-05-05T12:30:18.203Z</time></trkpt><trkpt lat="51.6424833" lon="-8.763115"><ele>4.333333333333333</ele><time>2026-05-05T12:30:19.202Z</time></trkpt><trkpt lat="51.6424367" lon="-8.7632283"><ele>4.166666666666666</ele><time>2026-05-05T12:30:20.203Z</time></trkpt><trkpt lat="51.6424" lon="-8.7633367"><ele>4.0</ele><time>2026-05-05T12:30:21.203Z</time></trkpt><trkpt lat="51.6423667" lon="-8.763495"><ele>4.166666666666666</ele><time>2026-05-05T12:30:23.203Z</time></trkpt><trkpt lat="51.6423483" lon="-8.7636"><ele>4.333333333333333</ele><time>2026-05-05T12:30:25.203Z</time></trkpt><trkpt lat="51.64231" lon="-8.7637533"><ele>4.5</ele><time>2026-05-05T12:30:27.203Z</time></trkpt><trkpt lat="51.642295" lon="-8.7638533"><ele>4.666666666666667</ele><time>2026-05-05T12:30:28.203Z</time></trkpt><trkpt lat="51.64228" lon="-8.76397"><ele>4.833333333333334</ele><time>2026-05-05T12:30:29.202Z</time></trkpt><trkpt lat="51.64225" lon="-8.7641033"><ele>5.0</ele><time>2026-05-05T12:30:30.202Z</time></trkpt><trkpt lat="51.6422067" lon="-8.7642533"><ele>5.4</ele><time>2026-05-05T12:30:31.203Z</time></trkpt><trkpt lat="51.6421567" lon="-8.7644117"><ele>5.8</ele><time>2026-05-05T12:30:32.202Z</time></trkpt><trkpt lat="51.6421083" lon="-8.764565"><ele>6.199999999999999</ele><time>2026-05-05T12:30:33.203Z</time></trkpt><trkpt lat="51.6420617" lon="-8.7647117"><ele>6.6</ele><time>2026-05-05T12:30:34.203Z</time></trkpt><trkpt lat="51.6420233" lon="-8.7648417"><ele>7.0</ele><time>2026-05-05T12:30:35.202Z</time></trkpt><trkpt lat="51.6419883" lon="-8.764965"><ele>6.833333333333334</ele><time>2026-05-05T12:30:36.202Z</time></trkpt><trkpt lat="51.6419583" lon="-8.7650817"><ele>6.666666666666667</ele><time>2026-05-05T12:30:37.203Z</time></trkpt><trkpt lat="51.6419333" lon="-8.7651833"><ele>6.5</ele><time>2026-05-05T12:30:38.202Z</time></trkpt><trkpt lat="51.6419017" lon="-8.7653383"><ele>6.333333333333334</ele><time>2026-05-05T12:30:40.202Z</time></trkpt><trkpt lat="51.6418933" lon="-8.7654433"><ele>6.166666666666667</ele><time>2026-05-05T12:30:42.203Z</time></trkpt><trkpt lat="51.6419183" lon="-8.765555"><ele>6.0</ele><time>2026-05-05T12:30:44.203Z</time></trkpt><trkpt lat="51.641975" lon="-8.765715"><ele>6.5</ele><time>2026-05-05T12:30:46.202Z</time></trkpt><trkpt lat="51.6420033" lon="-8.7658083"><ele>7.0</ele><time>2026-05-05T12:30:47.203Z</time></trkpt><trkpt lat="51.64204" lon="-8.76591"><ele>7.5</ele><time>2026-05-05T12:30:48.202Z</time></trkpt><trkpt lat="51.6420917" lon="-8.766015"><ele>8.0</ele><time>2026-05-05T12:30:49.203Z</time></trkpt><trkpt lat="51.6421483" lon="-8.7661133"><ele>8.5</ele><time>2026-05-05T12:30:50.202Z</time></trkpt><trkpt lat="51.642195" lon="-8.76622"><ele>9.0</ele><time>2026-05-05T12:30:51.202Z</time></trkpt><trkpt lat="51.6422433" lon="-8.7663033"><ele>10.2</ele><time>2026-05-05T12:30:52.203Z</time></trkpt><trkpt lat="51.6422883" lon="-8.7663783"><ele>11.4</ele><time>2026-05-05T12:30:53.203Z</time></trkpt><trkpt lat="51.642365" lon="-8.766485"><ele>12.6</ele><time>2026-05-05T12:30:55.203Z</time></trkpt><trkpt lat="51.64242" lon="-8.7666033"><ele>13.8</ele><time>2026-05-05T12:31:04.203Z</time></trkpt><trkpt lat="51.6423567" lon="-8.7667167"><ele>15.0</ele><time>2026-05-05T12:31:07.203Z</time></trkpt><trkpt lat="51.6422383" lon="-8.7668317"><ele>15.6</ele><time>2026-05-05T12:31:09.202Z</time></trkpt><trkpt lat="51.6421783" lon="-8.7669017"><ele>16.2</ele><time>2026-05-05T12:31:10.203Z</time></trkpt><trkpt lat="51.6420833" lon="-8.7669983"><ele>16.8</ele><time>2026-05-05T12:31:11.203Z</time></trkpt><trkpt lat="51.641965" lon="-8.767085"><ele>17.4</ele><time>2026-05-05T12:31:12.202Z</time></trkpt><trkpt lat="51.6418683" lon="-8.767155"><ele>18.0</ele><time>2026-05-05T12:31:13.202Z</time></trkpt><trkpt lat="51.6417583" lon="-8.76725"><ele>18.0</ele><time>2026-05-05T12:31:14.203Z</time></trkpt><trkpt lat="51.6415683" lon="-8.7674967"><ele>18.0</ele><time>2026-05-05T12:31:15.203Z</time></trkpt><trkpt lat="51.6414433" lon="-8.7676567"><ele>18.0</ele><time>2026-05-05T12:31:16.203Z</time></trkpt><trkpt lat="51.6413033" lon="-8.7677617"><ele>18.0</ele><time>2026-05-05T12:31:17.203Z</time></trkpt><trkpt lat="51.6411633" lon="-8.767855"><ele>18.0</ele><time>2026-05-05T12:31:18.202Z</time></trkpt><trkpt lat="51.6410333" lon="-8.7679267"><ele>18.0</ele><time>2026-05-05T12:31:19.202Z</time></trkpt><trkpt lat="51.6409133" lon="-8.768015"><ele>18.0</ele><time>2026-05-05T12:31:20.203Z</time></trkpt><trkpt lat="51.640795" lon="-8.7681283"><ele>18.0</ele><time>2026-05-05T12:31:21.203Z</time></trkpt><trkpt lat="51.6406833" lon="-8.7682617"><ele>18.0</ele><time>2026-05-05T12:31:22.202Z</time></trkpt><trkpt lat="51.64057" lon="-8.7684"><ele>18.0</ele><time>2026-05-05T12:31:23.202Z</time></trkpt><trkpt lat="51.6404417" lon="-8.7685583"><ele>18.0</ele><time>2026-05-05T12:31:24.202Z</time></trkpt><trkpt lat="51.64032" lon="-8.7686883"><ele>18.0</ele><time>2026-05-05T12:31:25.203Z</time></trkpt><trkpt lat="51.6402" lon="-8.7688167"><ele>18.0</ele><time>2026-05-05T12:31:26.202Z</time></trkpt><trkpt lat="51.64008" lon="-8.7689483"><ele>18.0</ele><time>2026-05-05T12:31:27.203Z</time></trkpt><trkpt lat="51.63995" lon="-8.7690733"><ele>18.0</ele><time>2026-05-05T12:31:28.203Z</time></trkpt><trkpt lat="51.6398283" lon="-8.76923"><ele>17.25</ele><time>2026-05-05T12:31:29.203Z</time></trkpt><trkpt lat="51.6397083" lon="-8.76938"><ele>16.5</ele><time>2026-05-05T12:31:30.202Z</time></trkpt><trkpt lat="51.6396017" lon="-8.76954"><ele>15.75</ele><time>2026-05-05T12:31:31.203Z</time></trkpt><trkpt lat="51.6395133" lon="-8.76973"><ele>15.0</ele><time>2026-05-05T12:31:32.203Z</time></trkpt><trkpt lat="51.6394283" lon="-8.7699367"><ele>15.0</ele><time>2026-05-05T12:31:33.203Z</time></trkpt><trkpt lat="51.639355" lon="-8.7701683"><ele>15.0</ele><time>2026-05-05T12:31:34.203Z</time></trkpt><trkpt lat="51.639275" lon="-8.7704167"><ele>15.0</ele><time>2026-05-05T12:31:35.203Z</time></trkpt><trkpt lat="51.6391917" lon="-8.7706783"><ele>16.0</ele><time>2026-05-05T12:31:36.203Z</time></trkpt><trkpt lat="51.639125" lon="-8.770925"><ele>17.0</ele><time>2026-05-05T12:31:37.203Z</time></trkpt><trkpt lat="51.639065" lon="-8.7711717"><ele>18.0</ele><time>2026-05-05T12:31:38.202Z</time></trkpt><trkpt lat="51.639" lon="-8.77143"><ele>19.666666666666668</ele><time>2026-05-05T12:31:39.203Z</time></trkpt><trkpt lat="51.6389433" lon="-8.7716967"><ele>21.333333333333336</ele><time>2026-05-05T12:31:40.203Z</time></trkpt><trkpt lat="51.638885" lon="-8.7719733"><ele>23.0</ele><time>2026-05-05T12:31:41.203Z</time></trkpt><trkpt lat="51.6388317" lon="-8.7722617"><ele>23.0</ele><time>2026-05-05T12:31:42.202Z</time></trkpt><trkpt lat="51.638775" lon="-8.7725667"><ele>23.0</ele><time>2026-05-05T12:31:43.202Z</time></trkpt><trkpt lat="51.6387183" lon="-8.7728833"><ele>23.0</ele><time>2026-05-05T12:31:44.203Z</time></trkpt><trkpt lat="51.6386533" lon="-8.77317"><ele>20.333333333333336</ele><time>2026-05-05T12:31:45.202Z</time></trkpt><trkpt lat="51.6385817" lon="-8.773455"><ele>17.666666666666668</ele><time>2026-05-05T12:31:46.202Z</time></trkpt><trkpt lat="51.6385283" lon="-8.7737333"><ele>15.0</ele><time>2026-05-05T12:31:47.203Z</time></trkpt><trkpt lat="51.6384767" lon="-8.77401"><ele>15.0</ele><time>2026-05-05T12:31:48.203Z</time></trkpt><trkpt lat="51.638425" lon="-8.7742817"><ele>15.0</ele><time>2026-05-05T12:31:49.203Z</time></trkpt><trkpt lat="51.6383783" lon="-8.7745533"><ele>15.0</ele><time>2026-05-05T12:31:50.202Z</time></trkpt><trkpt lat="51.6383267" lon="-8.7748283"><ele>15.666666666666668</ele><time>2026-05-05T12:31:51.202Z</time></trkpt><trkpt lat="51.6382667" lon="-8.7751083"><ele>16.333333333333336</ele><time>2026-05-05T12:31:52.203Z</time></trkpt><trkpt lat="51.638205" lon="-8.775385"><ele>17.0</ele><time>2026-05-05T12:31:53.202Z</time></trkpt><trkpt lat="51.63815" lon="-8.77566"><ele>18.0</ele><time>2026-05-05T12:31:54.202Z</time></trkpt><trkpt lat="51.6381017" lon="-8.77594"><ele>19.0</ele><time>2026-05-05T12:31:55.203Z</time></trkpt><trkpt lat="51.638045" lon="-8.776225"><ele>20.0</ele><time>2026-05-05T12:31:56.202Z</time></trkpt><trkpt lat="51.63798" lon="-8.7765067"><ele>21.0</ele><time>2026-05-05T12:31:57.203Z</time></trkpt><trkpt lat="51.6379133" lon="-8.7767867"><ele>22.0</ele><time>2026-05-05T12:31:58.203Z</time></trkpt><trkpt lat="51.637865" lon="-8.77705"><ele>23.0</ele><time>2026-05-05T12:31:59.203Z</time></trkpt><trkpt lat="51.6377883" lon="-8.777315"><ele>23.0</ele><time>2026-05-05T12:32:00.203Z</time></trkpt><trkpt lat="51.6377133" lon="-8.77757"><ele>23.0</ele><time>2026-05-05T12:32:01.203Z</time></trkpt><trkpt lat="51.6376617" lon="-8.7778283"><ele>23.0</ele><time>2026-05-05T12:32:02.203Z</time></trkpt><trkpt lat="51.6376033" lon="-8.778095"><ele>25.0</ele><time>2026-05-05T12:32:03.203Z</time></trkpt><trkpt lat="51.6375483" lon="-8.7783517"><ele>27.0</ele><time>2026-05-05T12:32:04.203Z</time></trkpt><trkpt lat="51.6374933" lon="-8.7785967"><ele>29.0</ele><time>2026-05-05T12:32:05.203Z</time></trkpt><trkpt lat="51.6374317" lon="-8.7788383"><ele>30.666666666666664</ele><time>2026-05-05T12:32:06.203Z</time></trkpt><trkpt lat="51.637355" lon="-8.7790933"><ele>32.333333333333336</ele><time>2026-05-05T12:32:07.203Z</time></trkpt><trkpt lat="51.63728" lon="-8.779335"><ele>34.0</ele><time>2026-05-05T12:32:08.202Z</time></trkpt><trkpt lat="51.6372033" lon="-8.7795517"><ele>33.66666666666667</ele><time>2026-05-05T12:32:09.202Z</time></trkpt><trkpt lat="51.637115" lon="-8.7797533"><ele>33.333333333333336</ele><time>2026-05-05T12:32:10.203Z</time></trkpt><trkpt lat="51.6370183" lon="-8.7799617"><ele>33.0</ele><time>2026-05-05T12:32:11.203Z</time></trkpt><trkpt lat="51.63692" lon="-8.7801817"><ele>33.333333333333336</ele><time>2026-05-05T12:32:12.203Z</time></trkpt><trkpt lat="51.6368317" lon="-8.780415"><ele>33.66666666666667</ele><time>2026-05-05T12:32:13.202Z</time></trkpt><trkpt lat="51.636765" lon="-8.780665"><ele>34.0</ele><time>2026-05-05T12:32:14.203Z</time></trkpt><trkpt lat="51.63671" lon="-8.780945"><ele>34.333333333333336</ele><time>2026-05-05T12:32:15.203Z</time></trkpt><trkpt lat="51.63667" lon="-8.7812433"><ele>34.666666666666664</ele><time>2026-05-05T12:32:16.203Z</time></trkpt><trkpt lat="51.6366317" lon="-8.7815733"><ele>35.0</ele><time>2026-05-05T12:32:17.203Z</time></trkpt><trkpt lat="51.6366" lon="-8.7819117"><ele>35.0</ele><time>2026-05-05T12:32:18.202Z</time></trkpt><trkpt lat="51.6365717" lon="-8.782255"><ele>35.0</ele><time>2026-05-05T12:32:19.202Z</time></trkpt><trkpt lat="51.6365233" lon="-8.7826017"><ele>35.0</ele><time>2026-05-05T12:32:20.203Z</time></trkpt><trkpt lat="51.6364967" lon="-8.782925"><ele>35.33333333333333</ele><time>2026-05-05T12:32:21.203Z</time></trkpt><trkpt lat="51.63648" lon="-8.7832433"><ele>35.666666666666664</ele><time>2026-05-05T12:32:22.203Z</time></trkpt><trkpt lat="51.6364617" lon="-8.7835617"><ele>36.0</ele><time>2026-05-05T12:32:23.203Z</time></trkpt><trkpt lat="51.6364333" lon="-8.7838917"><ele>36.0</ele><time>2026-05-05T12:32:24.203Z</time></trkpt><trkpt lat="51.6364033" lon="-8.7842317"><ele>36.0</ele><time>2026-05-05T12:32:25.202Z</time></trkpt><trkpt lat="51.6363867" lon="-8.7845583"><ele>36.0</ele><time>2026-05-05T12:32:26.202Z</time></trkpt><trkpt lat="51.636365" lon="-8.784885"><ele>35.666666666666664</ele><time>2026-05-05T12:32:27.202Z</time></trkpt><trkpt lat="51.6363467" lon="-8.7852017"><ele>35.33333333333333</ele><time>2026-05-05T12:32:28.203Z</time></trkpt><trkpt lat="51.6363233" lon="-8.78552"><ele>35.0</ele><time>2026-05-05T12:32:29.203Z</time></trkpt><trkpt lat="51.636295" lon="-8.7858533"><ele>35.666666666666664</ele><time>2026-05-05T12:32:30.203Z</time></trkpt><trkpt lat="51.63627" lon="-8.7861683"><ele>36.333333333333336</ele><time>2026-05-05T12:32:31.202Z</time></trkpt><trkpt lat="51.63625" lon="-8.786455"><ele>37.0</ele><time>2026-05-05T12:32:32.203Z</time></trkpt><trkpt lat="51.636225" lon="-8.7867183"><ele>37.0</ele><time>2026-05-05T12:32:33.202Z</time></trkpt><trkpt lat="51.636185" lon="-8.7869683"><ele>37.0</ele><time>2026-05-05T12:32:34.203Z</time></trkpt><trkpt lat="51.6361367" lon="-8.78722"><ele>37.0</ele><time>2026-05-05T12:32:35.202Z</time></trkpt><trkpt lat="51.6360917" lon="-8.787465"><ele>35.66666666666667</ele><time>2026-05-05T12:32:36.202Z</time></trkpt><trkpt lat="51.636035" lon="-8.787715"><ele>34.333333333333336</ele><time>2026-05-05T12:32:37.202Z</time></trkpt><trkpt lat="51.6359833" lon="-8.78798"><ele>33.0</ele><time>2026-05-05T12:32:38.203Z</time></trkpt><trkpt lat="51.6359383" lon="-8.7882683"><ele>33.666666666666664</ele><time>2026-05-05T12:32:39.202Z</time></trkpt><trkpt lat="51.6359033" lon="-8.788565"><ele>34.33333333333333</ele><time>2026-05-05T12:32:40.202Z</time></trkpt><trkpt lat="51.6358617" lon="-8.78886"><ele>35.0</ele><time>2026-05-05T12:32:41.203Z</time></trkpt><trkpt lat="51.63581" lon="-8.78916"><ele>36.33333333333333</ele><time>2026-05-05T12:32:42.203Z</time></trkpt><trkpt lat="51.6357683" lon="-8.78944"><ele>37.666666666666664</ele><time>2026-05-05T12:32:43.203Z</time></trkpt><trkpt lat="51.6357433" lon="-8.789705"><ele>39.0</ele><time>2026-05-05T12:32:44.203Z</time></trkpt><trkpt lat="51.635735" lon="-8.7899683"><ele>40.333333333333336</ele><time>2026-05-05T12:32:45.203Z</time></trkpt><trkpt lat="51.6357367" lon="-8.79025"><ele>41.66666666666667</ele><time>2026-05-05T12:32:46.203Z</time></trkpt><trkpt lat="51.6357567" lon="-8.790555"><ele>43.0</ele><time>2026-05-05T12:32:47.203Z</time></trkpt><trkpt lat="51.635785" lon="-8.7908617"><ele>43.66666666666667</ele><time>2026-05-05T12:32:48.203Z</time></trkpt><trkpt lat="51.63579" lon="-8.7911983"><ele>44.333333333333336</ele><time>2026-05-05T12:32:49.203Z</time></trkpt><trkpt lat="51.6358067" lon="-8.7915067"><ele>45.0</ele><time>2026-05-05T12:32:50.203Z</time></trkpt><trkpt lat="51.635825" lon="-8.7917967"><ele>45.333333333333336</ele><time>2026-05-05T12:32:51.202Z</time></trkpt><trkpt lat="51.6358433" lon="-8.79208"><ele>45.66666666666667</ele><time>2026-05-05T12:32:52.202Z</time></trkpt><trkpt lat="51.635845" lon="-8.7923533"><ele>46.0</ele><time>2026-05-05T12:32:53.202Z</time></trkpt><trkpt lat="51.6358583" lon="-8.7926267"><ele>46.333333333333336</ele><time>2026-05-05T12:32:54.202Z</time></trkpt><trkpt lat="51.6358633" lon="-8.79291"><ele>46.666666666666664</ele><time>2026-05-05T12:32:55.203Z</time></trkpt><trkpt lat="51.6358567" lon="-8.7931833"><ele>47.0</ele><time>2026-05-05T12:32:56.203Z</time></trkpt><trkpt lat="51.6358433" lon="-8.7934733"><ele>47.0</ele><time>2026-05-05T12:32:57.202Z</time></trkpt><trkpt lat="51.6358417" lon="-8.7937617"><ele>47.0</ele><time>2026-05-05T12:32:58.202Z</time></trkpt><trkpt lat="51.6358317" lon="-8.7940667"><ele>47.0</ele><time>2026-05-05T12:32:59.203Z</time></trkpt><trkpt lat="51.6358183" lon="-8.79437"><ele>47.0</ele><time>2026-05-05T12:33:00.202Z</time></trkpt><trkpt lat="51.6358" lon="-8.79467"><ele>47.0</ele><time>2026-05-05T12:33:01.202Z</time></trkpt><trkpt lat="51.6357783" lon="-8.7949783"><ele>47.0</ele><time>2026-05-05T12:33:02.203Z</time></trkpt><trkpt lat="51.6357733" lon="-8.7952667"><ele>47.0</ele><time>2026-05-05T12:33:03.202Z</time></trkpt><trkpt lat="51.6357717" lon="-8.795525"><ele>47.0</ele><time>2026-05-05T12:33:04.202Z</time></trkpt><trkpt lat="51.6357767" lon="-8.7957583"><ele>47.0</ele><time>2026-05-05T12:33:05.203Z</time></trkpt><trkpt lat="51.6357833" lon="-8.7959817"><ele>47.0</ele><time>2026-05-05T12:33:06.203Z</time></trkpt><trkpt lat="51.635785" lon="-8.7961883"><ele>47.0</ele><time>2026-05-05T12:33:07.203Z</time></trkpt><trkpt lat="51.635765" lon="-8.79637"><ele>47.0</ele><time>2026-05-05T12:33:08.203Z</time></trkpt><trkpt lat="51.635725" lon="-8.7965533"><ele>47.0</ele><time>2026-05-05T12:33:09.202Z</time></trkpt><trkpt lat="51.6356533" lon="-8.7967467"><ele>47.0</ele><time>2026-05-05T12:33:10.203Z</time></trkpt><trkpt lat="51.63556" lon="-8.7969467"><ele>47.33333333333333</ele><time>2026-05-05T12:33:11.203Z</time></trkpt><trkpt lat="51.6354683" lon="-8.7971533"><ele>47.666666666666664</ele><time>2026-05-05T12:33:12.202Z</time></trkpt><trkpt lat="51.6353817" lon="-8.79737"><ele>48.0</ele><time>2026-05-05T12:33:13.202Z</time></trkpt><trkpt lat="51.6353017" lon="-8.797595"><ele>49.0</ele><time>2026-05-05T12:33:14.203Z</time></trkpt><trkpt lat="51.6352167" lon="-8.797825"><ele>50.0</ele><time>2026-05-05T12:33:15.203Z</time></trkpt><trkpt lat="51.635135" lon="-8.7980633"><ele>51.0</ele><time>2026-05-05T12:33:16.203Z</time></trkpt><trkpt lat="51.63505" lon="-8.798305"><ele>52.0</ele><time>2026-05-05T12:33:17.203Z</time></trkpt><trkpt lat="51.6349767" lon="-8.7985567"><ele>53.0</ele><time>2026-05-05T12:33:18.203Z</time></trkpt><trkpt lat="51.634915" lon="-8.7988167"><ele>54.0</ele><time>2026-05-05T12:33:19.203Z</time></trkpt><trkpt lat="51.6348667" lon="-8.7990767"><ele>54.0</ele><time>2026-05-05T12:33:20.203Z</time></trkpt><trkpt lat="51.6348333" lon="-8.7993317"><ele>54.0</ele><time>2026-05-05T12:33:21.203Z</time></trkpt><trkpt lat="51.6348067" lon="-8.799605"><ele>54.0</ele><time>2026-05-05T12:33:22.202Z</time></trkpt><trkpt lat="51.6347833" lon="-8.7998717"><ele>55.0</ele><time>2026-05-05T12:33:23.202Z</time></trkpt><trkpt lat="51.63478" lon="-8.8001267"><ele>56.0</ele><time>2026-05-05T12:33:24.203Z</time></trkpt><trkpt lat="51.6347867" lon="-8.800375"><ele>57.0</ele><time>2026-05-05T12:33:25.203Z</time></trkpt><trkpt lat="51.6348083" lon="-8.8006133"><ele>57.75</ele><time>2026-05-05T12:33:26.203Z</time></trkpt><trkpt lat="51.6348667" lon="-8.8008167"><ele>58.5</ele><time>2026-05-05T12:33:27.202Z</time></trkpt><trkpt lat="51.634925" lon="-8.8010117"><ele>59.25</ele><time>2026-05-05T12:33:28.202Z</time></trkpt><trkpt lat="51.6349833" lon="-8.80121"><ele>60.0</ele><time>2026-05-05T12:33:29.203Z</time></trkpt><trkpt lat="51.6350733" lon="-8.80138"><ele>60.75</ele><time>2026-05-05T12:33:30.203Z</time></trkpt><trkpt lat="51.6351667" lon="-8.8015567"><ele>61.5</ele><time>2026-05-05T12:33:31.203Z</time></trkpt><trkpt lat="51.6352567" lon="-8.801735"><ele>62.25</ele><time>2026-05-05T12:33:32.203Z</time></trkpt><trkpt lat="51.6353383" lon="-8.8019383"><ele>63.0</ele><time>2026-05-05T12:33:33.203Z</time></trkpt><trkpt lat="51.635425" lon="-8.80212"><ele>63.75</ele><time>2026-05-05T12:33:34.202Z</time></trkpt><trkpt lat="51.6355017" lon="-8.802315"><ele>64.5</ele><time>2026-05-05T12:33:35.202Z</time></trkpt><trkpt lat="51.635585" lon="-8.802505"><ele>65.25</ele><time>2026-05-05T12:33:36.203Z</time></trkpt><trkpt lat="51.635665" lon="-8.80272"><ele>66.0</ele><time>2026-05-05T12:33:37.202Z</time></trkpt><trkpt lat="51.6357367" lon="-8.8029567"><ele>66.66666666666667</ele><time>2026-05-05T12:33:38.203Z</time></trkpt><trkpt lat="51.6357967" lon="-8.8032067"><ele>67.33333333333334</ele><time>2026-05-05T12:33:39.202Z</time></trkpt><trkpt lat="51.6358483" lon="-8.803475"><ele>68.0</ele><time>2026-05-05T12:33:40.203Z</time></trkpt><trkpt lat="51.6358983" lon="-8.803745"><ele>68.33333333333334</ele><time>2026-05-05T12:33:41.202Z</time></trkpt><trkpt lat="51.6359417" lon="-8.80401"><ele>68.66666666666667</ele><time>2026-05-05T12:33:42.202Z</time></trkpt><trkpt lat="51.635965" lon="-8.8042783"><ele>69.0</ele><time>2026-05-05T12:33:43.203Z</time></trkpt><trkpt lat="51.6359833" lon="-8.8045317"><ele>69.0</ele><time>2026-05-05T12:33:44.203Z</time></trkpt><trkpt lat="51.6360067" lon="-8.8047867"><ele>69.0</ele><time>2026-05-05T12:33:45.203Z</time></trkpt><trkpt lat="51.6360317" lon="-8.805035"><ele>69.0</ele><time>2026-05-05T12:33:46.202Z</time></trkpt><trkpt lat="51.6360817" lon="-8.80527"><ele>70.66666666666667</ele><time>2026-05-05T12:33:47.202Z</time></trkpt><trkpt lat="51.6361417" lon="-8.805515"><ele>72.33333333333334</ele><time>2026-05-05T12:33:48.202Z</time></trkpt><trkpt lat="51.6361917" lon="-8.8057683"><ele>74.0</ele><time>2026-05-05T12:33:49.202Z</time></trkpt><trkpt lat="51.63622" lon="-8.8060383"><ele>74.33333333333334</ele><time>2026-05-05T12:33:50.203Z</time></trkpt><trkpt lat="51.6362417" lon="-8.80631"><ele>74.66666666666667</ele><time>2026-05-05T12:33:51.203Z</time></trkpt><trkpt lat="51.6362517" lon="-8.806595"><ele>75.0</ele><time>2026-05-05T12:33:52.202Z</time></trkpt><trkpt lat="51.6362583" lon="-8.8068733"><ele>75.33333333333333</ele><time>2026-05-05T12:33:53.203Z</time></trkpt><trkpt lat="51.6362433" lon="-8.807135"><ele>75.66666666666666</ele><time>2026-05-05T12:33:54.203Z</time></trkpt><trkpt lat="51.6362067" lon="-8.8073883"><ele>76.0</ele><time>2026-05-05T12:33:55.203Z</time></trkpt><trkpt lat="51.6361533" lon="-8.807645"><ele>75.33333333333333</ele><time>2026-05-05T12:33:56.202Z</time></trkpt><trkpt lat="51.6360983" lon="-8.807905"><ele>74.66666666666667</ele><time>2026-05-05T12:33:57.203Z</time></trkpt><trkpt lat="51.6360383" lon="-8.8081567"><ele>74.0</ele><time>2026-05-05T12:33:58.203Z</time></trkpt><trkpt lat="51.6359783" lon="-8.8084033"><ele>73.66666666666667</ele><time>2026-05-05T12:33:59.203Z</time></trkpt><trkpt lat="51.6359067" lon="-8.8086283"><ele>73.33333333333333</ele><time>2026-05-05T12:34:00.203Z</time></trkpt><trkpt lat="51.6358367" lon="-8.8088517"><ele>73.0</ele><time>2026-05-05T12:34:01.203Z</time></trkpt><trkpt lat="51.63576" lon="-8.80905"><ele>73.0</ele><time>2026-05-05T12:34:02.203Z</time></trkpt><trkpt lat="51.6356433" lon="-8.809245"><ele>73.0</ele><time>2026-05-05T12:34:03.203Z</time></trkpt><trkpt lat="51.63552" lon="-8.809435"><ele>73.0</ele><time>2026-05-05T12:34:04.203Z</time></trkpt><trkpt lat="51.63539" lon="-8.8096167"><ele>73.33333333333333</ele><time>2026-05-05T12:34:05.203Z</time></trkpt><trkpt lat="51.6352483" lon="-8.8098117"><ele>73.66666666666667</ele><time>2026-05-05T12:34:06.202Z</time></trkpt><trkpt lat="51.6351167" lon="-8.8100233"><ele>74.0</ele><time>2026-05-05T12:34:07.203Z</time></trkpt><trkpt lat="51.6349717" lon="-8.8102167"><ele>75.33333333333334</ele><time>2026-05-05T12:34:08.203Z</time></trkpt><trkpt lat="51.6348517" lon="-8.81043"><ele>76.66666666666667</ele><time>2026-05-05T12:34:09.203Z</time></trkpt><trkpt lat="51.63473" lon="-8.81064"><ele>78.0</ele><time>2026-05-05T12:34:10.203Z</time></trkpt><trkpt lat="51.6346167" lon="-8.8108367"><ele>78.33333333333333</ele><time>2026-05-05T12:34:11.203Z</time></trkpt><trkpt lat="51.6345217" lon="-8.811035"><ele>78.66666666666666</ele><time>2026-05-05T12:34:12.203Z</time></trkpt><trkpt lat="51.6344317" lon="-8.8112533"><ele>79.0</ele><time>2026-05-05T12:34:13.203Z</time></trkpt><trkpt lat="51.6343533" lon="-8.8115033"><ele>79.0</ele><time>2026-05-05T12:34:14.203Z</time></trkpt><trkpt lat="51.6342917" lon="-8.8117633"><ele>79.0</ele><time>2026-05-05T12:34:15.203Z</time></trkpt><trkpt lat="51.6342467" lon="-8.812025"><ele>79.0</ele><time>2026-05-05T12:34:16.203Z</time></trkpt><trkpt lat="51.63422" lon="-8.8123133"><ele>79.0</ele><time>2026-05-05T12:34:17.203Z</time></trkpt><trkpt lat="51.6341867" lon="-8.8125867"><ele>79.0</ele><time>2026-05-05T12:34:18.203Z</time></trkpt><trkpt lat="51.634145" lon="-8.8128467"><ele>79.0</ele><time>2026-05-05T12:34:19.203Z</time></trkpt><trkpt lat="51.6341067" lon="-8.8131317"><ele>79.0</ele><time>2026-05-05T12:34:20.202Z</time></trkpt><trkpt lat="51.6340783" lon="-8.8134183"><ele>79.0</ele><time>2026-05-05T12:34:21.203Z</time></trkpt><trkpt lat="51.6340317" lon="-8.813705"><ele>79.0</ele><time>2026-05-05T12:34:22.202Z</time></trkpt><trkpt lat="51.6339867" lon="-8.81399"><ele>78.0</ele><time>2026-05-05T12:34:23.202Z</time></trkpt><trkpt lat="51.63395" lon="-8.8142667"><ele>77.0</ele><time>2026-05-05T12:34:24.202Z</time></trkpt><trkpt lat="51.6339383" lon="-8.8145383"><ele>76.0</ele><time>2026-05-05T12:34:25.202Z</time></trkpt><trkpt lat="51.6339217" lon="-8.8148083"><ele>75.75</ele><time>2026-05-05T12:34:26.203Z</time></trkpt><trkpt lat="51.6339183" lon="-8.81506"><ele>75.5</ele><time>2026-05-05T12:34:27.203Z</time></trkpt><trkpt lat="51.6339183" lon="-8.8152883"><ele>75.25</ele><time>2026-05-05T12:34:28.202Z</time></trkpt><trkpt lat="51.6339233" lon="-8.8154917"><ele>75.0</ele><time>2026-05-05T12:34:29.202Z</time></trkpt><trkpt lat="51.6339333" lon="-8.8156683"><ele>74.8</ele><time>2026-05-05T12:34:30.203Z</time></trkpt><trkpt lat="51.6339317" lon="-8.8158333"><ele>74.6</ele><time>2026-05-05T12:34:31.202Z</time></trkpt><trkpt lat="51.6339283" lon="-8.8159817"><ele>74.4</ele><time>2026-05-05T12:34:32.203Z</time></trkpt><trkpt lat="51.6339267" lon="-8.8161333"><ele>74.2</ele><time>2026-05-05T12:34:33.203Z</time></trkpt><trkpt lat="51.633925" lon="-8.8163033"><ele>74.0</ele><time>2026-05-05T12:34:34.203Z</time></trkpt><trkpt lat="51.63392" lon="-8.816485"><ele>73.5</ele><time>2026-05-05T12:34:35.203Z</time></trkpt><trkpt lat="51.633925" lon="-8.816675"><ele>73.0</ele><time>2026-05-05T12:34:36.203Z</time></trkpt><trkpt lat="51.63394" lon="-8.8168683"><ele>72.5</ele><time>2026-05-05T12:34:37.203Z</time></trkpt><trkpt lat="51.6339483" lon="-8.8170983"><ele>72.0</ele><time>2026-05-05T12:34:38.203Z</time></trkpt><trkpt lat="51.6339583" lon="-8.8173183"><ele>71.75</ele><time>2026-05-05T12:34:39.203Z</time></trkpt><trkpt lat="51.633965" lon="-8.817525"><ele>71.5</ele><time>2026-05-05T12:34:40.202Z</time></trkpt><trkpt lat="51.63397" lon="-8.8177167"><ele>71.25</ele><time>2026-05-05T12:34:41.203Z</time></trkpt><trkpt lat="51.6339733" lon="-8.81789"><ele>71.0</ele><time>2026-05-05T12:34:42.203Z</time></trkpt><trkpt lat="51.6339717" lon="-8.818045"><ele>70.66666666666667</ele><time>2026-05-05T12:34:43.202Z</time></trkpt><trkpt lat="51.6339733" lon="-8.818175"><ele>70.33333333333334</ele><time>2026-05-05T12:34:44.202Z</time></trkpt><trkpt lat="51.6339733" lon="-8.81829"><ele>70.0</ele><time>2026-05-05T12:34:45.203Z</time></trkpt><trkpt lat="51.6339717" lon="-8.8183933"><ele>69.66666666666667</ele><time>2026-05-05T12:34:46.203Z</time></trkpt><trkpt lat="51.6339583" lon="-8.818565"><ele>69.33333333333333</ele><time>2026-05-05T12:34:48.203Z</time></trkpt><trkpt lat="51.633945" lon="-8.818755"><ele>69.0</ele><time>2026-05-05T12:34:50.203Z</time></trkpt><trkpt lat="51.63395" lon="-8.8188583"><ele>69.0</ele><time>2026-05-05T12:34:51.203Z</time></trkpt><trkpt lat="51.6339467" lon="-8.8189783"><ele>69.0</ele><time>2026-05-05T12:34:52.203Z</time></trkpt><trkpt lat="51.6339533" lon="-8.8191133"><ele>69.0</ele><time>2026-05-05T12:34:53.202Z</time></trkpt><trkpt lat="51.6339633" lon="-8.819255"><ele>69.0</ele><time>2026-05-05T12:34:54.202Z</time></trkpt><trkpt lat="51.63399" lon="-8.8194083"><ele>69.0</ele><time>2026-05-05T12:34:55.202Z</time></trkpt><trkpt lat="51.63402" lon="-8.8195783"><ele>69.0</ele><time>2026-05-05T12:34:56.202Z</time></trkpt><trkpt lat="51.6340567" lon="-8.8197683"><ele>69.0</ele><time>2026-05-05T12:34:57.203Z</time></trkpt><trkpt lat="51.6340917" lon="-8.81997"><ele>69.0</ele><time>2026-05-05T12:34:58.203Z</time></trkpt><trkpt lat="51.634135" lon="-8.8201633"><ele>69.0</ele><time>2026-05-05T12:34:59.202Z</time></trkpt><trkpt lat="51.6341683" lon="-8.8203667"><ele>69.0</ele><time>2026-05-05T12:35:00.203Z</time></trkpt><trkpt lat="51.6341983" lon="-8.820595"><ele>69.0</ele><time>2026-05-05T12:35:01.203Z</time></trkpt><trkpt lat="51.6342283" lon="-8.8208667"><ele>69.0</ele><time>2026-05-05T12:35:02.203Z</time></trkpt><trkpt lat="51.6342583" lon="-8.82117"><ele>69.0</ele><time>2026-05-05T12:35:03.203Z</time></trkpt><trkpt lat="51.63429" lon="-8.8214767"><ele>69.0</ele><time>2026-05-05T12:35:04.202Z</time></trkpt><trkpt lat="51.63432" lon="-8.8217717"><ele>69.0</ele><time>2026-05-05T12:35:05.203Z</time></trkpt><trkpt lat="51.634345" lon="-8.822055"><ele>68.66666666666667</ele><time>2026-05-05T12:35:06.202Z</time></trkpt><trkpt lat="51.6343583" lon="-8.8223383"><ele>68.33333333333334</ele><time>2026-05-05T12:35:07.203Z</time></trkpt><trkpt lat="51.6343633" lon="-8.8226183"><ele>68.0</ele><time>2026-05-05T12:35:08.203Z</time></trkpt><trkpt lat="51.6343683" lon="-8.8228933"><ele>67.66666666666667</ele><time>2026-05-05T12:35:09.203Z</time></trkpt><trkpt lat="51.6343717" lon="-8.82316"><ele>67.33333333333333</ele><time>2026-05-05T12:35:10.202Z</time></trkpt><trkpt lat="51.6343783" lon="-8.8234267"><ele>67.0</ele><time>2026-05-05T12:35:11.203Z</time></trkpt><trkpt lat="51.6343917" lon="-8.8236983"><ele>66.66666666666666</ele><time>2026-05-05T12:35:12.202Z</time></trkpt><trkpt lat="51.6344083" lon="-8.8239667"><ele>66.33333333333333</ele><time>2026-05-05T12:35:13.202Z</time></trkpt><trkpt lat="51.6344367" lon="-8.8242333"><ele>66.0</ele><time>2026-05-05T12:35:14.203Z</time></trkpt><trkpt lat="51.6344633" lon="-8.8245167"><ele>66.66666666666667</ele><time>2026-05-05T12:35:15.202Z</time></trkpt><trkpt lat="51.6344917" lon="-8.824815"><ele>67.33333333333334</ele><time>2026-05-05T12:35:16.202Z</time></trkpt><trkpt lat="51.6345283" lon="-8.8251133"><ele>68.0</ele><time>2026-05-05T12:35:17.202Z</time></trkpt><trkpt lat="51.634575" lon="-8.8254067"><ele>68.0</ele><time>2026-05-05T12:35:18.202Z</time></trkpt><trkpt lat="51.6346283" lon="-8.8256883"><ele>68.0</ele><time>2026-05-05T12:35:19.203Z</time></trkpt><trkpt lat="51.6346883" lon="-8.8259567"><ele>68.0</ele><time>2026-05-05T12:35:20.202Z</time></trkpt><trkpt lat="51.63475" lon="-8.8262367"><ele>66.66666666666667</ele><time>2026-05-05T12:35:21.203Z</time></trkpt><trkpt lat="51.63482" lon="-8.8265067"><ele>65.33333333333333</ele><time>2026-05-05T12:35:22.202Z</time></trkpt><trkpt lat="51.6349083" lon="-8.8267817"><ele>64.0</ele><time>2026-05-05T12:35:23.203Z</time></trkpt><trkpt lat="51.6349917" lon="-8.8270583"><ele>63.666666666666664</ele><time>2026-05-05T12:35:24.203Z</time></trkpt><trkpt lat="51.6350833" lon="-8.82733"><ele>63.33333333333333</ele><time>2026-05-05T12:35:25.203Z</time></trkpt><trkpt lat="51.6351683" lon="-8.8275883"><ele>63.0</ele><time>2026-05-05T12:35:26.203Z</time></trkpt><trkpt lat="51.6352567" lon="-8.827835"><ele>65.0</ele><time>2026-05-05T12:35:27.202Z</time></trkpt><trkpt lat="51.6353183" lon="-8.82812"><ele>67.0</ele><time>2026-05-05T12:35:28.203Z</time></trkpt><trkpt lat="51.6354017" lon="-8.8283633"><ele>69.0</ele><time>2026-05-05T12:35:29.203Z</time></trkpt><trkpt lat="51.6354817" lon="-8.828595"><ele>69.0</ele><time>2026-05-05T12:35:30.203Z</time></trkpt><trkpt lat="51.63553" lon="-8.8288417"><ele>69.0</ele><time>2026-05-05T12:35:31.203Z</time></trkpt><trkpt lat="51.6355533" lon="-8.8291033"><ele>69.0</ele><time>2026-05-05T12:35:32.202Z</time></trkpt><trkpt lat="51.6356183" lon="-8.82937"><ele>69.33333333333333</ele><time>2026-05-05T12:35:33.203Z</time></trkpt><trkpt lat="51.6356467" lon="-8.8296533"><ele>69.66666666666666</ele><time>2026-05-05T12:35:34.203Z</time></trkpt><trkpt lat="51.6356917" lon="-8.8299417"><ele>70.0</ele><time>2026-05-05T12:35:35.203Z</time></trkpt><trkpt lat="51.6357317" lon="-8.830195"><ele>70.33333333333333</ele><time>2026-05-05T12:35:36.203Z</time></trkpt><trkpt lat="51.63578" lon="-8.8304333"><ele>70.66666666666667</ele><time>2026-05-05T12:35:37.202Z</time></trkpt><trkpt lat="51.6358533" lon="-8.8306633"><ele>71.0</ele><time>2026-05-05T12:35:38.202Z</time></trkpt><trkpt lat="51.6359083" lon="-8.8309317"><ele>71.0</ele><time>2026-05-05T12:35:39.203Z</time></trkpt><trkpt lat="51.6359983" lon="-8.8311917"><ele>71.0</ele><time>2026-05-05T12:35:40.203Z</time></trkpt><trkpt lat="51.6360867" lon="-8.8314583"><ele>71.0</ele><time>2026-05-05T12:35:41.202Z</time></trkpt><trkpt lat="51.63617" lon="-8.8317467"><ele>73.66666666666667</ele><time>2026-05-05T12:35:42.202Z</time></trkpt><trkpt lat="51.636285" lon="-8.8319967"><ele>76.33333333333333</ele><time>2026-05-05T12:35:43.203Z</time></trkpt><trkpt lat="51.636365" lon="-8.8322333"><ele>79.0</ele><time>2026-05-05T12:35:44.203Z</time></trkpt><trkpt lat="51.63645" lon="-8.8324733"><ele>78.66666666666666</ele><time>2026-05-05T12:35:45.203Z</time></trkpt><trkpt lat="51.6365367" lon="-8.83272"><ele>78.33333333333333</ele><time>2026-05-05T12:35:46.202Z</time></trkpt><trkpt lat="51.636605" lon="-8.8329833"><ele>78.0</ele><time>2026-05-05T12:35:47.203Z</time></trkpt><trkpt lat="51.63667" lon="-8.8332317"><ele>77.33333333333333</ele><time>2026-05-05T12:35:48.203Z</time></trkpt><trkpt lat="51.6367317" lon="-8.833475"><ele>76.66666666666666</ele><time>2026-05-05T12:35:49.203Z</time></trkpt><trkpt lat="51.636805" lon="-8.8337133"><ele>76.0</ele><time>2026-05-05T12:35:50.203Z</time></trkpt><trkpt lat="51.6368867" lon="-8.8339417"><ele>76.0</ele><time>2026-05-05T12:35:51.203Z</time></trkpt><trkpt lat="51.6369583" lon="-8.8341783"><ele>76.0</ele><time>2026-05-05T12:35:52.203Z</time></trkpt><trkpt lat="51.6370233" lon="-8.8344183"><ele>76.0</ele><time>2026-05-05T12:35:53.203Z</time></trkpt><trkpt lat="51.6370933" lon="-8.834635"><ele>78.33333333333333</ele><time>2026-05-05T12:35:54.202Z</time></trkpt><trkpt lat="51.6371417" lon="-8.8348717"><ele>80.66666666666667</ele><time>2026-05-05T12:35:55.203Z</time></trkpt><trkpt lat="51.6371833" lon="-8.8351233"><ele>83.0</ele><time>2026-05-05T12:35:56.203Z</time></trkpt><trkpt lat="51.6372183" lon="-8.8353817"><ele>83.0</ele><time>2026-05-05T12:35:57.202Z</time></trkpt><trkpt lat="51.6372833" lon="-8.8356033"><ele>83.0</ele><time>2026-05-05T12:35:58.203Z</time></trkpt><trkpt lat="51.63734" lon="-8.835845"><ele>83.0</ele><time>2026-05-05T12:35:59.203Z</time></trkpt><trkpt lat="51.637385" lon="-8.8361"><ele>83.0</ele><time>2026-05-05T12:36:00.203Z</time></trkpt><trkpt lat="51.6374233" lon="-8.8363783"><ele>83.0</ele><time>2026-05-05T12:36:01.203Z</time></trkpt><trkpt lat="51.6374733" lon="-8.83666"><ele>83.0</ele><time>2026-05-05T12:36:02.203Z</time></trkpt><trkpt lat="51.6375183" lon="-8.836945"><ele>83.0</ele><time>2026-05-05T12:36:03.202Z</time></trkpt><trkpt lat="51.6375567" lon="-8.83724"><ele>83.0</ele><time>2026-05-05T12:36:04.202Z</time></trkpt><trkpt lat="51.637585" lon="-8.8375317"><ele>83.0</ele><time>2026-05-05T12:36:05.202Z</time></trkpt><trkpt lat="51.63759" lon="-8.8378167"><ele>83.0</ele><time>2026-05-05T12:36:06.203Z</time></trkpt><trkpt lat="51.6376033" lon="-8.8381067"><ele>83.0</ele><time>2026-05-05T12:36:07.202Z</time></trkpt><trkpt lat="51.637615" lon="-8.8383783"><ele>83.0</ele><time>2026-05-05T12:36:08.203Z</time></trkpt><trkpt lat="51.6376183" lon="-8.8386433"><ele>83.0</ele><time>2026-05-05T12:36:09.202Z</time></trkpt><trkpt lat="51.63762" lon="-8.838885"><ele>83.0</ele><time>2026-05-05T12:36:10.203Z</time></trkpt><trkpt lat="51.6376583" lon="-8.839085"><ele>83.0</ele><time>2026-05-05T12:36:11.203Z</time></trkpt><trkpt lat="51.637705" lon="-8.83929"><ele>83.0</ele><time>2026-05-05T12:36:12.203Z</time></trkpt><trkpt lat="51.6377617" lon="-8.8394883"><ele>83.75</ele><time>2026-05-05T12:36:13.202Z</time></trkpt><trkpt lat="51.6378083" lon="-8.839715"><ele>84.5</ele><time>2026-05-05T12:36:14.203Z</time></trkpt><trkpt lat="51.6378467" lon="-8.8399533"><ele>85.25</ele><time>2026-05-05T12:36:15.203Z</time></trkpt><trkpt lat="51.63789" lon="-8.8401817"><ele>86.0</ele><time>2026-05-05T12:36:16.203Z</time></trkpt><trkpt lat="51.6379217" lon="-8.8404167"><ele>86.0</ele><time>2026-05-05T12:36:17.203Z</time></trkpt><trkpt lat="51.6379183" lon="-8.8406733"><ele>86.0</ele><time>2026-05-05T12:36:18.203Z</time></trkpt><trkpt lat="51.6378983" lon="-8.8409233"><ele>86.0</ele><time>2026-05-05T12:36:19.202Z</time></trkpt><trkpt lat="51.63789" lon="-8.841165"><ele>85.66666666666667</ele><time>2026-05-05T12:36:20.202Z</time></trkpt><trkpt lat="51.6378883" lon="-8.8414217"><ele>85.33333333333333</ele><time>2026-05-05T12:36:21.203Z</time></trkpt><trkpt lat="51.6379017" lon="-8.8416883"><ele>85.0</ele><time>2026-05-05T12:36:22.203Z</time></trkpt><trkpt lat="51.6379167" lon="-8.841955"><ele>85.0</ele><time>2026-05-05T12:36:23.203Z</time></trkpt><trkpt lat="51.6379417" lon="-8.8422067"><ele>85.0</ele><time>2026-05-05T12:36:24.203Z</time></trkpt><trkpt lat="51.6379783" lon="-8.84245"><ele>85.0</ele><time>2026-05-05T12:36:25.202Z</time></trkpt><trkpt lat="51.6380567" lon="-8.8426683"><ele>84.66666666666666</ele><time>2026-05-05T12:36:26.203Z</time></trkpt><trkpt lat="51.6381183" lon="-8.8428917"><ele>84.33333333333333</ele><time>2026-05-05T12:36:27.203Z</time></trkpt><trkpt lat="51.6381783" lon="-8.843105"><ele>84.0</ele><time>2026-05-05T12:36:28.202Z</time></trkpt><trkpt lat="51.6382283" lon="-8.843345"><ele>84.0</ele><time>2026-05-05T12:36:29.203Z</time></trkpt><trkpt lat="51.6382667" lon="-8.84359"><ele>84.0</ele><time>2026-05-05T12:36:30.203Z</time></trkpt><trkpt lat="51.63829" lon="-8.8438333"><ele>84.0</ele><time>2026-05-05T12:36:31.202Z</time></trkpt><trkpt lat="51.638295" lon="-8.8440667"><ele>84.33333333333333</ele><time>2026-05-05T12:36:32.203Z</time></trkpt><trkpt lat="51.6382683" lon="-8.8443117"><ele>84.66666666666666</ele><time>2026-05-05T12:36:33.203Z</time></trkpt><trkpt lat="51.63822" lon="-8.844555"><ele>85.0</ele><time>2026-05-05T12:36:34.202Z</time></trkpt><trkpt lat="51.6381567" lon="-8.844795"><ele>85.0</ele><time>2026-05-05T12:36:35.202Z</time></trkpt><trkpt lat="51.6380867" lon="-8.8450283"><ele>85.0</ele><time>2026-05-05T12:36:36.203Z</time></trkpt><trkpt lat="51.638025" lon="-8.84526"><ele>85.0</ele><time>2026-05-05T12:36:37.203Z</time></trkpt><trkpt lat="51.63796" lon="-8.8454683"><ele>85.25</ele><time>2026-05-05T12:36:38.203Z</time></trkpt><trkpt lat="51.6378583" lon="-8.8456667"><ele>85.5</ele><time>2026-05-05T12:36:39.203Z</time></trkpt><trkpt lat="51.6377633" lon="-8.8458183"><ele>85.75</ele><time>2026-05-05T12:36:40.203Z</time></trkpt><trkpt lat="51.6376467" lon="-8.845935"><ele>86.0</ele><time>2026-05-05T12:36:41.202Z</time></trkpt><trkpt lat="51.6375317" lon="-8.8460033"><ele>86.0</ele><time>2026-05-05T12:36:42.203Z</time></trkpt><trkpt lat="51.6374017" lon="-8.8460467"><ele>86.0</ele><time>2026-05-05T12:36:43.202Z</time></trkpt><trkpt lat="51.637275" lon="-8.8461117"><ele>86.0</ele><time>2026-05-05T12:36:44.202Z</time></trkpt><trkpt lat="51.6371567" lon="-8.846205"><ele>86.0</ele><time>2026-05-05T12:36:45.202Z</time></trkpt><trkpt lat="51.6370483" lon="-8.8463083"><ele>85.25</ele><time>2026-05-05T12:36:46.203Z</time></trkpt><trkpt lat="51.6369483" lon="-8.846425"><ele>84.5</ele><time>2026-05-05T12:36:47.203Z</time></trkpt><trkpt lat="51.6368483" lon="-8.8465567"><ele>83.75</ele><time>2026-05-05T12:36:48.202Z</time></trkpt><trkpt lat="51.6367617" lon="-8.846695"><ele>83.0</ele><time>2026-05-05T12:36:49.203Z</time></trkpt><trkpt lat="51.6366817" lon="-8.84683"><ele>84.5</ele><time>2026-05-05T12:36:50.202Z</time></trkpt><trkpt lat="51.636595" lon="-8.84697"><ele>86.0</ele><time>2026-05-05T12:36:51.203Z</time></trkpt><trkpt lat="51.63652" lon="-8.8471133"><ele>87.5</ele><time>2026-05-05T12:36:52.202Z</time></trkpt><trkpt lat="51.63645" lon="-8.8472617"><ele>89.0</ele><time>2026-05-05T12:36:53.203Z</time></trkpt><trkpt lat="51.6363767" lon="-8.8474267"><ele>89.0</ele><time>2026-05-05T12:36:54.203Z</time></trkpt><trkpt lat="51.6363017" lon="-8.847605"><ele>89.0</ele><time>2026-05-05T12:36:55.202Z</time></trkpt><trkpt lat="51.636225" lon="-8.8478"><ele>89.0</ele><time>2026-05-05T12:36:56.203Z</time></trkpt><trkpt lat="51.6361483" lon="-8.8480267"><ele>89.0</ele><time>2026-05-05T12:36:57.203Z</time></trkpt><trkpt lat="51.636075" lon="-8.84827"><ele>89.0</ele><time>2026-05-05T12:36:58.202Z</time></trkpt><trkpt lat="51.636015" lon="-8.8485033"><ele>89.0</ele><time>2026-05-05T12:36:59.203Z</time></trkpt><trkpt lat="51.6359533" lon="-8.8487417"><ele>89.0</ele><time>2026-05-05T12:37:00.203Z</time></trkpt><trkpt lat="51.63589" lon="-8.848975"><ele>89.0</ele><time>2026-05-05T12:37:01.203Z</time></trkpt><trkpt lat="51.63582" lon="-8.8492217"><ele>89.0</ele><time>2026-05-05T12:37:02.202Z</time></trkpt><trkpt lat="51.6357383" lon="-8.8494533"><ele>89.0</ele><time>2026-05-05T12:37:03.203Z</time></trkpt><trkpt lat="51.635675" lon="-8.8496717"><ele>89.33333333333334</ele><time>2026-05-05T12:37:04.202Z</time></trkpt><trkpt lat="51.6356033" lon="-8.8499067"><ele>89.66666666666667</ele><time>2026-05-05T12:37:05.203Z</time></trkpt><trkpt lat="51.635515" lon="-8.8501717"><ele>90.0</ele><time>2026-05-05T12:37:06.203Z</time></trkpt><trkpt lat="51.6354283" lon="-8.850435"><ele>90.33333333333333</ele><time>2026-05-05T12:37:07.203Z</time></trkpt><trkpt lat="51.6353317" lon="-8.8507"><ele>90.66666666666666</ele><time>2026-05-05T12:37:08.203Z</time></trkpt><trkpt lat="51.63523" lon="-8.850945"><ele>91.0</ele><time>2026-05-05T12:37:09.202Z</time></trkpt><trkpt lat="51.6351183" lon="-8.8511617"><ele>89.75</ele><time>2026-05-05T12:37:10.203Z</time></trkpt><trkpt lat="51.635025" lon="-8.8513583"><ele>88.5</ele><time>2026-05-05T12:37:11.203Z</time></trkpt><trkpt lat="51.6349433" lon="-8.85153"><ele>87.25</ele><time>2026-05-05T12:37:12.203Z</time></trkpt><trkpt lat="51.6349" lon="-8.8516983"><ele>86.0</ele><time>2026-05-05T12:37:13.203Z</time></trkpt><trkpt lat="51.6348633" lon="-8.8518917"><ele>86.0</ele><time>2026-05-05T12:37:14.203Z</time></trkpt><trkpt lat="51.6348267" lon="-8.8521183"><ele>86.0</ele><time>2026-05-05T12:37:15.202Z</time></trkpt><trkpt lat="51.6348083" lon="-8.8523567"><ele>86.0</ele><time>2026-05-05T12:37:16.203Z</time></trkpt><trkpt lat="51.63476" lon="-8.8525917"><ele>86.0</ele><time>2026-05-05T12:37:17.203Z</time></trkpt><trkpt lat="51.634705" lon="-8.8528233"><ele>85.33333333333334</ele><time>2026-05-05T12:37:18.203Z</time></trkpt><trkpt lat="51.634645" lon="-8.853085"><ele>84.66666666666667</ele><time>2026-05-05T12:37:19.203Z</time></trkpt><trkpt lat="51.6345683" lon="-8.8533567"><ele>84.0</ele><time>2026-05-05T12:37:20.203Z</time></trkpt><trkpt lat="51.63449" lon="-8.8536133"><ele>82.66666666666667</ele><time>2026-05-05T12:37:21.202Z</time></trkpt><trkpt lat="51.634405" lon="-8.8538867"><ele>81.33333333333334</ele><time>2026-05-05T12:37:22.202Z</time></trkpt><trkpt lat="51.6343217" lon="-8.8541667"><ele>80.0</ele><time>2026-05-05T12:37:23.203Z</time></trkpt><trkpt lat="51.634235" lon="-8.854435"><ele>79.33333333333334</ele><time>2026-05-05T12:37:24.202Z</time></trkpt><trkpt lat="51.63415" lon="-8.8546967"><ele>78.66666666666667</ele><time>2026-05-05T12:37:25.203Z</time></trkpt><trkpt lat="51.634065" lon="-8.854945"><ele>78.0</ele><time>2026-05-05T12:37:26.203Z</time></trkpt><trkpt lat="51.6339667" lon="-8.8551833"><ele>78.0</ele><time>2026-05-05T12:37:27.202Z</time></trkpt><trkpt lat="51.633875" lon="-8.8554067"><ele>78.0</ele><time>2026-05-05T12:37:28.203Z</time></trkpt><trkpt lat="51.6337967" lon="-8.8556267"><ele>78.0</ele><time>2026-05-05T12:37:29.202Z</time></trkpt><trkpt lat="51.6337233" lon="-8.85586"><ele>78.33333333333333</ele><time>2026-05-05T12:37:30.203Z</time></trkpt><trkpt lat="51.633665" lon="-8.8560967"><ele>78.66666666666666</ele><time>2026-05-05T12:37:31.202Z</time></trkpt><trkpt lat="51.6336117" lon="-8.856375"><ele>79.0</ele><time>2026-05-05T12:37:32.203Z</time></trkpt><trkpt lat="51.6335783" lon="-8.8566183"><ele>77.75</ele><time>2026-05-05T12:37:33.202Z</time></trkpt><trkpt lat="51.6335483" lon="-8.856845"><ele>76.5</ele><time>2026-05-05T12:37:34.203Z</time></trkpt><trkpt lat="51.63352" lon="-8.85708"><ele>75.25</ele><time>2026-05-05T12:37:35.202Z</time></trkpt><trkpt lat="51.633495" lon="-8.85732"><ele>74.0</ele><time>2026-05-05T12:37:36.203Z</time></trkpt><trkpt lat="51.6334867" lon="-8.85756"><ele>74.33333333333334</ele><time>2026-05-05T12:37:37.202Z</time></trkpt><trkpt lat="51.63347" lon="-8.8578167"><ele>74.66666666666667</ele><time>2026-05-05T12:37:38.202Z</time></trkpt><trkpt lat="51.6334517" lon="-8.85809"><ele>75.0</ele><time>2026-05-05T12:37:39.203Z</time></trkpt><trkpt lat="51.633445" lon="-8.85837"><ele>75.33333333333333</ele><time>2026-05-05T12:37:40.202Z</time></trkpt><trkpt lat="51.633435" lon="-8.8586467"><ele>75.66666666666666</ele><time>2026-05-05T12:37:41.202Z</time></trkpt><trkpt lat="51.6334317" lon="-8.8589167"><ele>76.0</ele><time>2026-05-05T12:37:42.203Z</time></trkpt><trkpt lat="51.6334317" lon="-8.85918"><ele>77.33333333333333</ele><time>2026-05-05T12:37:43.203Z</time></trkpt><trkpt lat="51.6334233" lon="-8.8594267"><ele>78.66666666666667</ele><time>2026-05-05T12:37:44.202Z</time></trkpt><trkpt lat="51.63343" lon="-8.8596617"><ele>80.0</ele><time>2026-05-05T12:37:45.203Z</time></trkpt><trkpt lat="51.63344" lon="-8.8599083"><ele>80.75</ele><time>2026-05-05T12:37:46.202Z</time></trkpt><trkpt lat="51.6334467" lon="-8.860145"><ele>81.5</ele><time>2026-05-05T12:37:47.203Z</time></trkpt><trkpt lat="51.6334533" lon="-8.8603733"><ele>82.25</ele><time>2026-05-05T12:37:48.203Z</time></trkpt><trkpt lat="51.6334783" lon="-8.860575"><ele>83.0</ele><time>2026-05-05T12:37:49.203Z</time></trkpt><trkpt lat="51.6334783" lon="-8.8607867"><ele>83.5</ele><time>2026-05-05T12:37:50.202Z</time></trkpt><trkpt lat="51.633485" lon="-8.8610033"><ele>84.0</ele><time>2026-05-05T12:37:51.203Z</time></trkpt><trkpt lat="51.6334833" lon="-8.8612283"><ele>84.5</ele><time>2026-05-05T12:37:52.203Z</time></trkpt><trkpt lat="51.63348" lon="-8.8614533"><ele>85.0</ele><time>2026-05-05T12:37:53.203Z</time></trkpt><trkpt lat="51.63348" lon="-8.86167"><ele>85.0</ele><time>2026-05-05T12:37:54.202Z</time></trkpt><trkpt lat="51.6334833" lon="-8.861895"><ele>85.0</ele><time>2026-05-05T12:37:55.203Z</time></trkpt><trkpt lat="51.6334883" lon="-8.86212"><ele>85.0</ele><time>2026-05-05T12:37:56.203Z</time></trkpt><trkpt lat="51.6334933" lon="-8.8623583"><ele>85.0</ele><time>2026-05-05T12:37:57.203Z</time></trkpt><trkpt lat="51.633495" lon="-8.8626083"><ele>84.66666666666666</ele><time>2026-05-05T12:37:58.203Z</time></trkpt><trkpt lat="51.6334933" lon="-8.862865"><ele>84.33333333333333</ele><time>2026-05-05T12:37:59.203Z</time></trkpt><trkpt lat="51.6334783" lon="-8.8631333"><ele>84.0</ele><time>2026-05-05T12:38:00.202Z</time></trkpt><trkpt lat="51.6334517" lon="-8.8634267"><ele>84.0</ele><time>2026-05-05T12:38:01.202Z</time></trkpt><trkpt lat="51.6334083" lon="-8.8637433"><ele>84.0</ele><time>2026-05-05T12:38:02.202Z</time></trkpt><trkpt lat="51.6333633" lon="-8.8640583"><ele>84.0</ele><time>2026-05-05T12:38:03.202Z</time></trkpt><trkpt lat="51.6333083" lon="-8.864385"><ele>83.33333333333333</ele><time>2026-05-05T12:38:04.202Z</time></trkpt><trkpt lat="51.633235" lon="-8.864695"><ele>82.66666666666666</ele><time>2026-05-05T12:38:05.202Z</time></trkpt><trkpt lat="51.6331617" lon="-8.8649967"><ele>82.0</ele><time>2026-05-05T12:38:06.203Z</time></trkpt><trkpt lat="51.6331" lon="-8.8652883"><ele>82.0</ele><time>2026-05-05T12:38:07.203Z</time></trkpt><trkpt lat="51.6330367" lon="-8.8655733"><ele>82.0</ele><time>2026-05-05T12:38:08.203Z</time></trkpt><trkpt lat="51.63297" lon="-8.8658467"><ele>82.0</ele><time>2026-05-05T12:38:09.202Z</time></trkpt><trkpt lat="51.63292" lon="-8.8660967"><ele>81.33333333333333</ele><time>2026-05-05T12:38:10.203Z</time></trkpt><trkpt lat="51.6328567" lon="-8.8663367"><ele>80.66666666666667</ele><time>2026-05-05T12:38:11.203Z</time></trkpt><trkpt lat="51.632795" lon="-8.8665717"><ele>80.0</ele><time>2026-05-05T12:38:12.203Z</time></trkpt><trkpt lat="51.6327367" lon="-8.866825"><ele>79.0</ele><time>2026-05-05T12:38:13.203Z</time></trkpt><trkpt lat="51.6326833" lon="-8.8670933"><ele>78.0</ele><time>2026-05-05T12:38:14.203Z</time></trkpt><trkpt lat="51.6326217" lon="-8.8673567"><ele>77.0</ele><time>2026-05-05T12:38:15.202Z</time></trkpt><trkpt lat="51.632565" lon="-8.86759"><ele>77.0</ele><time>2026-05-05T12:38:16.202Z</time></trkpt><trkpt lat="51.6325183" lon="-8.8678133"><ele>77.0</ele><time>2026-05-05T12:38:17.203Z</time></trkpt><trkpt lat="51.6324617" lon="-8.8680267"><ele>77.0</ele><time>2026-05-05T12:38:18.203Z</time></trkpt><trkpt lat="51.63241" lon="-8.868235"><ele>77.0</ele><time>2026-05-05T12:38:19.202Z</time></trkpt><trkpt lat="51.6323633" lon="-8.8684433"><ele>76.5</ele><time>2026-05-05T12:38:20.203Z</time></trkpt><trkpt lat="51.632315" lon="-8.868645"><ele>76.0</ele><time>2026-05-05T12:38:21.203Z</time></trkpt><trkpt lat="51.6322717" lon="-8.8688267"><ele>75.5</ele><time>2026-05-05T12:38:22.202Z</time></trkpt><trkpt lat="51.6322367" lon="-8.8690017"><ele>75.0</ele><time>2026-05-05T12:38:23.202Z</time></trkpt><trkpt lat="51.6322033" lon="-8.869175"><ele>74.0</ele><time>2026-05-05T12:38:24.203Z</time></trkpt><trkpt lat="51.6321667" lon="-8.8693467"><ele>73.0</ele><time>2026-05-05T12:38:25.203Z</time></trkpt><trkpt lat="51.6321433" lon="-8.8695117"><ele>72.0</ele><time>2026-05-05T12:38:26.202Z</time></trkpt><trkpt lat="51.63213" lon="-8.8696767"><ele>71.0</ele><time>2026-05-05T12:38:27.203Z</time></trkpt><trkpt lat="51.632105" lon="-8.8698517"><ele>70.0</ele><time>2026-05-05T12:38:28.203Z</time></trkpt><trkpt lat="51.6320833" lon="-8.870025"><ele>69.2</ele><time>2026-05-05T12:38:29.202Z</time></trkpt><trkpt lat="51.6320633" lon="-8.87019"><ele>68.4</ele><time>2026-05-05T12:38:30.202Z</time></trkpt><trkpt lat="51.63205" lon="-8.8703567"><ele>67.6</ele><time>2026-05-05T12:38:31.203Z</time></trkpt><trkpt lat="51.6320267" lon="-8.8705133"><ele>66.8</ele><time>2026-05-05T12:38:32.203Z</time></trkpt><trkpt lat="51.6320033" lon="-8.8706633"><ele>66.0</ele><time>2026-05-05T12:38:33.203Z</time></trkpt><trkpt lat="51.6319867" lon="-8.87081"><ele>65.0</ele><time>2026-05-05T12:38:34.203Z</time></trkpt><trkpt lat="51.63198" lon="-8.8709483"><ele>63.99999999999999</ele><time>2026-05-05T12:38:35.203Z</time></trkpt><trkpt lat="51.6319633" lon="-8.8710983"><ele>62.99999999999999</ele><time>2026-05-05T12:38:36.202Z</time></trkpt><trkpt lat="51.6319567" lon="-8.87127"><ele>62.0</ele><time>2026-05-05T12:38:37.202Z</time></trkpt><trkpt lat="51.6319417" lon="-8.8714333"><ele>61.0</ele><time>2026-05-05T12:38:38.203Z</time></trkpt><trkpt lat="51.6319267" lon="-8.8715967"><ele>61.0</ele><time>2026-05-05T12:38:39.203Z</time></trkpt><trkpt lat="51.631905" lon="-8.8717567"><ele>60.99999999999999</ele><time>2026-05-05T12:38:40.203Z</time></trkpt><trkpt lat="51.6318867" lon="-8.871915"><ele>60.99999999999999</ele><time>2026-05-05T12:38:41.203Z</time></trkpt><trkpt lat="51.6318683" lon="-8.872065"><ele>61.0</ele><time>2026-05-05T12:38:42.203Z</time></trkpt><trkpt lat="51.631855" lon="-8.872215"><ele>61.0</ele><time>2026-05-05T12:38:43.203Z</time></trkpt><trkpt lat="51.631845" lon="-8.8723717"><ele>60.199999999999996</ele><time>2026-05-05T12:38:44.203Z</time></trkpt><trkpt lat="51.6318333" lon="-8.8725233"><ele>59.39999999999999</ele><time>2026-05-05T12:38:45.202Z</time></trkpt><trkpt lat="51.6318183" lon="-8.8726767"><ele>58.6</ele><time>2026-05-05T12:38:46.202Z</time></trkpt><trkpt lat="51.6318017" lon="-8.8728217"><ele>57.8</ele><time>2026-05-05T12:38:47.202Z</time></trkpt><trkpt lat="51.6317917" lon="-8.87297"><ele>57.0</ele><time>2026-05-05T12:38:48.203Z</time></trkpt><trkpt lat="51.631785" lon="-8.873125"><ele>56.666666666666664</ele><time>2026-05-05T12:38:49.203Z</time></trkpt><trkpt lat="51.6317667" lon="-8.8732817"><ele>56.33333333333333</ele><time>2026-05-05T12:38:50.203Z</time></trkpt><trkpt lat="51.6317467" lon="-8.8734367"><ele>56.0</ele><time>2026-05-05T12:38:51.203Z</time></trkpt><trkpt lat="51.6317283" lon="-8.8735733"><ele>55.666666666666664</ele><time>2026-05-05T12:38:52.203Z</time></trkpt><trkpt lat="51.6317067" lon="-8.8736917"><ele>55.33333333333333</ele><time>2026-05-05T12:38:53.203Z</time></trkpt><trkpt lat="51.6316867" lon="-8.8738"><ele>55.0</ele><time>2026-05-05T12:38:54.202Z</time></trkpt><trkpt lat="51.6316767" lon="-8.8739067"><ele>54.49999999999999</ele><time>2026-05-05T12:38:55.203Z</time></trkpt><trkpt lat="51.631665" lon="-8.874015"><ele>54.0</ele><time>2026-05-05T12:38:56.202Z</time></trkpt><trkpt lat="51.63164" lon="-8.8741867"><ele>53.5</ele><time>2026-05-05T12:38:58.202Z</time></trkpt><trkpt lat="51.6316183" lon="-8.8743033"><ele>53.0</ele><time>2026-05-05T12:39:00.202Z</time></trkpt><trkpt lat="51.6316117" lon="-8.8744183"><ele>52.49999999999999</ele><time>2026-05-05T12:39:03.203Z</time></trkpt><trkpt lat="51.63161" lon="-8.87452"><ele>52.0</ele><time>2026-05-05T12:39:12.202Z</time></trkpt><trkpt lat="51.6315983" lon="-8.874635"><ele>51.6</ele><time>2026-05-05T12:39:14.202Z</time></trkpt><trkpt lat="51.6315433" lon="-8.8747467"><ele>51.2</ele><time>2026-05-05T12:39:17.203Z</time></trkpt><trkpt lat="51.63143" lon="-8.8747983"><ele>50.8</ele><time>2026-05-05T12:39:19.203Z</time></trkpt><trkpt lat="51.6313433" lon="-8.87482"><ele>50.4</ele><time>2026-05-05T12:39:20.202Z</time></trkpt><trkpt lat="51.6312233" lon="-8.8748517"><ele>50.0</ele><time>2026-05-05T12:39:21.203Z</time></trkpt><trkpt lat="51.631085" lon="-8.8748983"><ele>50.0</ele><time>2026-05-05T12:39:22.202Z</time></trkpt><trkpt lat="51.63094" lon="-8.8749583"><ele>50.0</ele><time>2026-05-05T12:39:23.203Z</time></trkpt><trkpt lat="51.63079" lon="-8.87503"><ele>50.0</ele><time>2026-05-05T12:39:24.203Z</time></trkpt><trkpt lat="51.630645" lon="-8.87511"><ele>50.333333333333336</ele><time>2026-05-05T12:39:25.202Z</time></trkpt><trkpt lat="51.630495" lon="-8.8751883"><ele>50.66666666666667</ele><time>2026-05-05T12:39:26.203Z</time></trkpt><trkpt lat="51.63035" lon="-8.875265"><ele>51.0</ele><time>2026-05-05T12:39:27.203Z</time></trkpt><trkpt lat="51.6301917" lon="-8.87534"><ele>50.0</ele><time>2026-05-05T12:39:28.203Z</time></trkpt><trkpt lat="51.6300317" lon="-8.8754167"><ele>49.0</ele><time>2026-05-05T12:39:29.203Z</time></trkpt><trkpt lat="51.62987" lon="-8.8755117"><ele>48.0</ele><time>2026-05-05T12:39:30.202Z</time></trkpt><trkpt lat="51.6297117" lon="-8.8755883"><ele>48.0</ele><time>2026-05-05T12:39:31.203Z</time></trkpt><trkpt lat="51.629545" lon="-8.87565"><ele>48.0</ele><time>2026-05-05T12:39:32.202Z</time></trkpt><trkpt lat="51.629375" lon="-8.8757233"><ele>48.0</ele><time>2026-05-05T12:39:33.203Z</time></trkpt><trkpt lat="51.6292233" lon="-8.87583"><ele>45.333333333333336</ele><time>2026-05-05T12:39:34.203Z</time></trkpt><trkpt lat="51.6290733" lon="-8.8759533"><ele>42.66666666666667</ele><time>2026-05-05T12:39:35.202Z</time></trkpt><trkpt lat="51.628925" lon="-8.8761017"><ele>40.0</ele><time>2026-05-05T12:39:36.202Z</time></trkpt><trkpt lat="51.62879" lon="-8.8762717"><ele>40.0</ele><time>2026-05-05T12:39:37.203Z</time></trkpt><trkpt lat="51.6286483" lon="-8.87643"><ele>40.0</ele><time>2026-05-05T12:39:38.203Z</time></trkpt><trkpt lat="51.6284917" lon="-8.8765683"><ele>40.0</ele><time>2026-05-05T12:39:39.203Z</time></trkpt><trkpt lat="51.6283267" lon="-8.8766767"><ele>39.333333333333336</ele><time>2026-05-05T12:39:40.203Z</time></trkpt><trkpt lat="51.6281483" lon="-8.8767633"><ele>38.666666666666664</ele><time>2026-05-05T12:39:41.202Z</time></trkpt><trkpt lat="51.6279683" lon="-8.8768083"><ele>38.0</ele><time>2026-05-05T12:39:42.202Z</time></trkpt><trkpt lat="51.627785" lon="-8.876845"><ele>36.33333333333333</ele><time>2026-05-05T12:39:43.202Z</time></trkpt><trkpt lat="51.6276083" lon="-8.8768383"><ele>34.666666666666664</ele><time>2026-05-05T12:39:44.203Z</time></trkpt><trkpt lat="51.6274333" lon="-8.8768417"><ele>33.0</ele><time>2026-05-05T12:39:45.202Z</time></trkpt><trkpt lat="51.6272483" lon="-8.8768583"><ele>33.0</ele><time>2026-05-05T12:39:46.203Z</time></trkpt><trkpt lat="51.6270633" lon="-8.8768983"><ele>33.0</ele><time>2026-05-05T12:39:47.203Z</time></trkpt><trkpt lat="51.6268817" lon="-8.8769333"><ele>33.0</ele><time>2026-05-05T12:39:48.203Z</time></trkpt><trkpt lat="51.6266817" lon="-8.8770083"><ele>30.0</ele><time>2026-05-05T12:39:49.203Z</time></trkpt><trkpt lat="51.6264867" lon="-8.877095"><ele>27.0</ele><time>2026-05-05T12:39:50.203Z</time></trkpt><trkpt lat="51.626305" lon="-8.8771967"><ele>24.0</ele><time>2026-05-05T12:39:51.203Z</time></trkpt><trkpt lat="51.6261233" lon="-8.8773317"><ele>23.333333333333332</ele><time>2026-05-05T12:39:52.203Z</time></trkpt><trkpt lat="51.6259317" lon="-8.87751"><ele>22.666666666666664</ele><time>2026-05-05T12:39:53.203Z</time></trkpt><trkpt lat="51.6257283" lon="-8.87756"><ele>22.0</ele><time>2026-05-05T12:39:54.202Z</time></trkpt><trkpt lat="51.6255533" lon="-8.877665"><ele>21.0</ele><time>2026-05-05T12:39:55.203Z</time></trkpt><trkpt lat="51.62541" lon="-8.877785"><ele>20.0</ele><time>2026-05-05T12:39:56.203Z</time></trkpt><trkpt lat="51.6252817" lon="-8.8778833"><ele>19.0</ele><time>2026-05-05T12:39:57.202Z</time></trkpt><trkpt lat="51.625155" lon="-8.8780067"><ele>18.0</ele><time>2026-05-05T12:39:58.203Z</time></trkpt><trkpt lat="51.6250833" lon="-8.878175"><ele>17.0</ele><time>2026-05-05T12:39:59.203Z</time></trkpt><trkpt lat="51.6249633" lon="-8.8783133"><ele>16.0</ele><time>2026-05-05T12:40:00.202Z</time></trkpt><trkpt lat="51.624925" lon="-8.8785483"><ele>15.0</ele><time>2026-05-05T12:40:01.202Z</time></trkpt><trkpt lat="51.6248217" lon="-8.878715"><ele>14.25</ele><time>2026-05-05T12:40:02.203Z</time></trkpt><trkpt lat="51.624735" lon="-8.8788917"><ele>13.5</ele><time>2026-05-05T12:40:03.202Z</time></trkpt><trkpt lat="51.6248033" lon="-8.8791483"><ele>12.75</ele><time>2026-05-05T12:40:04.203Z</time></trkpt><trkpt lat="51.6247433" lon="-8.8793217"><ele>12.0</ele><time>2026-05-05T12:40:05.203Z</time></trkpt><trkpt lat="51.6246717" lon="-8.8794633"><ele>12.0</ele><time>2026-05-05T12:40:06.203Z</time></trkpt><trkpt lat="51.6246217" lon="-8.8795917"><ele>12.0</ele><time>2026-05-05T12:40:07.202Z</time></trkpt><trkpt lat="51.6245833" lon="-8.87968"><ele>12.0</ele><time>2026-05-05T12:40:08.203Z</time></trkpt><trkpt lat="51.62453" lon="-8.879795"><ele>12.0</ele><time>2026-05-05T12:40:10.203Z</time></trkpt><trkpt lat="51.6244783" lon="-8.8798967"><ele>12.0</ele><time>2026-05-05T12:40:12.203Z</time></trkpt><trkpt lat="51.6244267" lon="-8.87999"><ele>12.0</ele><time>2026-05-05T12:40:14.203Z</time></trkpt><trkpt lat="51.6243817" lon="-8.8800833"><ele>11.666666666666666</ele><time>2026-05-05T12:40:17.202Z</time></trkpt><trkpt lat="51.6243033" lon="-8.8801167"><ele>11.333333333333334</ele><time>2026-05-05T12:40:35.203Z</time></trkpt><trkpt lat="51.6242383" lon="-8.8800167"><ele>11.0</ele><time>2026-05-05T12:40:41.203Z</time></trkpt><trkpt lat="51.6241733" lon="-8.879975"><ele>10.666666666666668</ele><time>2026-05-05T12:40:44.202Z</time></trkpt><trkpt lat="51.624115" lon="-8.8800267"><ele>10.333333333333334</ele><time>2026-05-05T12:41:20.202Z</time></trkpt><trkpt lat="51.62422" lon="-8.8799583"><ele>10.0</ele><time>2026-05-05T12:41:57.203Z</time></trkpt><trkpt lat="51.62416" lon="-8.8799983"><ele>10.0</ele><time>2026-05-05T12:42:10.203Z</time></trkpt><trkpt lat="51.6240917" lon="-8.8801417"><ele>10.0</ele><time>2026-05-05T12:42:29.203Z</time></trkpt><trkpt lat="51.6241483" lon="-8.8801967"><ele>10.0</ele><time>2026-05-05T12:46:55.203Z</time></trkpt><trkpt lat="51.6240883" lon="-8.8802517"><ele>10.0</ele><time>2026-05-05T12:47:03.203Z</time></trkpt><trkpt lat="51.6241133" lon="-8.8801467"><ele>10.0</ele><time>2026-05-05T12:47:10.203Z</time></trkpt><trkpt lat="51.6240883" lon="-8.8800517"><ele>10.0</ele><time>2026-05-05T12:47:13.203Z</time></trkpt><trkpt lat="51.6240083" lon="-8.8801283"><ele>10.0</ele><time>2026-05-05T12:47:51.203Z</time></trkpt><trkpt lat="51.6239533" lon="-8.880185"><ele>10.0</ele><time>2026-05-05T12:50:04.202Z</time></trkpt><trkpt lat="51.623995" lon="-8.8801017"><ele>10.0</ele><time>2026-05-05T12:50:25.203Z</time></trkpt><trkpt lat="51.6240883" lon="-8.8800283"><ele>10.0</ele><time>2026-05-05T12:52:26.201Z</time></trkpt><trkpt lat="51.62415" lon="-8.880005"><ele>10.0</ele><time>2026-05-05T12:55:36.202Z</time></trkpt><trkpt lat="51.6242283" lon="-8.8800383"><ele>10.0</ele><time>2026-05-05T12:55:42.202Z</time></trkpt><trkpt lat="51.6241933" lon="-8.8801283"><ele>10.0</ele><time>2026-05-05T12:55:50.202Z</time></trkpt><trkpt lat="51.6241383" lon="-8.8802"><ele>9.8</ele><time>2026-05-05T12:56:03.202Z</time></trkpt><trkpt lat="51.62403" lon="-8.8803417"><ele>9.6</ele><time>2026-05-05T12:56:26.202Z</time></trkpt><trkpt lat="51.62401" lon="-8.8804433"><ele>9.4</ele><time>2026-05-05T12:56:28.202Z</time></trkpt><trkpt lat="51.62398" lon="-8.880605"><ele>9.2</ele><time>2026-05-05T12:56:30.202Z</time></trkpt><trkpt lat="51.62395" lon="-8.8807033"><ele>9.0</ele><time>2026-05-05T12:56:31.202Z</time></trkpt><trkpt lat="51.6238933" lon="-8.880825"><ele>8.833333333333334</ele><time>2026-05-05T12:56:32.201Z</time></trkpt><trkpt lat="51.6238433" lon="-8.88095"><ele>8.666666666666666</ele><time>2026-05-05T12:56:33.201Z</time></trkpt><trkpt lat="51.6237817" lon="-8.8810767"><ele>8.5</ele><time>2026-05-05T12:56:34.202Z</time></trkpt><trkpt lat="51.6237233" lon="-8.881195"><ele>8.333333333333332</ele><time>2026-05-05T12:56:35.202Z</time></trkpt><trkpt lat="51.62367" lon="-8.8813067"><ele>8.166666666666666</ele><time>2026-05-05T12:56:36.202Z</time></trkpt><trkpt lat="51.623625" lon="-8.881405"><ele>8.0</ele><time>2026-05-05T12:56:37.202Z</time></trkpt><trkpt lat="51.6235617" lon="-8.8815367"><ele>7.666666666666666</ele><time>2026-05-05T12:56:39.201Z</time></trkpt><trkpt lat="51.62352" lon="-8.881615"><ele>7.333333333333333</ele><time>2026-05-05T12:56:41.202Z</time></trkpt><trkpt lat="51.6234617" lon="-8.8816883"><ele>7.0</ele><time>2026-05-05T12:56:43.202Z</time></trkpt><trkpt lat="51.62337" lon="-8.8817683"><ele>6.666666666666666</ele><time>2026-05-05T12:56:45.202Z</time></trkpt><trkpt lat="51.623315" lon="-8.88183"><ele>6.333333333333333</ele><time>2026-05-05T12:56:46.202Z</time></trkpt><trkpt lat="51.6232483" lon="-8.881905"><ele>6.0</ele><time>2026-05-05T12:56:47.201Z</time></trkpt><trkpt lat="51.6231783" lon="-8.88198"><ele>6.0</ele><time>2026-05-05T12:56:48.202Z</time></trkpt><trkpt lat="51.6231" lon="-8.8820767"><ele>6.0</ele><time>2026-05-05T12:56:49.202Z</time></trkpt><trkpt lat="51.62302" lon="-8.8821833"><ele>6.0</ele><time>2026-05-05T12:56:50.202Z</time></trkpt><trkpt lat="51.6229467" lon="-8.882285"><ele>6.0</ele><time>2026-05-05T12:56:51.202Z</time></trkpt><trkpt lat="51.622875" lon="-8.8823983"><ele>6.0</ele><time>2026-05-05T12:56:52.202Z</time></trkpt><trkpt lat="51.6228033" lon="-8.8825133"><ele>6.0</ele><time>2026-05-05T12:56:53.202Z</time></trkpt><trkpt lat="51.62273" lon="-8.8826417"><ele>6.0</ele><time>2026-05-05T12:56:54.202Z</time></trkpt><trkpt lat="51.6226517" lon="-8.882785"><ele>6.0</ele><time>2026-05-05T12:56:55.202Z</time></trkpt><trkpt lat="51.6225767" lon="-8.88294"><ele>6.0</ele><time>2026-05-05T12:56:56.202Z</time></trkpt><trkpt lat="51.6224883" lon="-8.88309"><ele>6.0</ele><time>2026-05-05T12:56:57.201Z</time></trkpt><trkpt lat="51.6224133" lon="-8.883255"><ele>6.0</ele><time>2026-05-05T12:56:58.202Z</time></trkpt><trkpt lat="51.6223567" lon="-8.8834367"><ele>6.0</ele><time>2026-05-05T12:56:59.202Z</time></trkpt><trkpt lat="51.62229" lon="-8.8836417"><ele>6.0</ele><time>2026-05-05T12:57:00.202Z</time></trkpt><trkpt lat="51.6222283" lon="-8.883845"><ele>6.25</ele><time>2026-05-05T12:57:01.202Z</time></trkpt><trkpt lat="51.6221833" lon="-8.8840383"><ele>6.5</ele><time>2026-05-05T12:57:02.202Z</time></trkpt><trkpt lat="51.622145" lon="-8.8841983"><ele>6.75</ele><time>2026-05-05T12:57:03.201Z</time></trkpt><trkpt lat="51.6220983" lon="-8.88438"><ele>7.0</ele><time>2026-05-05T12:57:04.202Z</time></trkpt><trkpt lat="51.6220683" lon="-8.8845717"><ele>7.0</ele><time>2026-05-05T12:57:05.202Z</time></trkpt><trkpt lat="51.62203" lon="-8.8847733"><ele>7.0</ele><time>2026-05-05T12:57:06.202Z</time></trkpt><trkpt lat="51.6219933" lon="-8.8849683"><ele>7.0</ele><time>2026-05-05T12:57:07.201Z</time></trkpt><trkpt lat="51.6219633" lon="-8.8851567"><ele>7.0</ele><time>2026-05-05T12:57:08.201Z</time></trkpt><trkpt lat="51.62194" lon="-8.8853333"><ele>6.8</ele><time>2026-05-05T12:57:09.201Z</time></trkpt><trkpt lat="51.6219217" lon="-8.8855067"><ele>6.6</ele><time>2026-05-05T12:57:10.201Z</time></trkpt><trkpt lat="51.6219" lon="-8.8856667"><ele>6.3999999999999995</ele><time>2026-05-05T12:57:11.202Z</time></trkpt><trkpt lat="51.6218833" lon="-8.8858017"><ele>6.199999999999999</ele><time>2026-05-05T12:57:12.202Z</time></trkpt><trkpt lat="51.62187" lon="-8.88591"><ele>6.0</ele><time>2026-05-05T12:57:13.202Z</time></trkpt><trkpt lat="51.6218633" lon="-8.8860867"><ele>6.0</ele><time>2026-05-05T12:57:15.201Z</time></trkpt><trkpt lat="51.6218583" lon="-8.88625"><ele>6.0</ele><time>2026-05-05T12:57:17.202Z</time></trkpt><trkpt lat="51.62182" lon="-8.8864067"><ele>6.0</ele><time>2026-05-05T12:57:19.201Z</time></trkpt><trkpt lat="51.6217533" lon="-8.8865217"><ele>6.0</ele><time>2026-05-05T12:57:21.202Z</time></trkpt><trkpt lat="51.6216917" lon="-8.8865617"><ele>6.0</ele><time>2026-05-05T12:57:22.202Z</time></trkpt><trkpt lat="51.6216233" lon="-8.8865833"><ele>6.0</ele><time>2026-05-05T12:57:23.202Z</time></trkpt><trkpt lat="51.6215117" lon="-8.8866033"><ele>6.0</ele><time>2026-05-05T12:57:25.201Z</time></trkpt><trkpt lat="51.621415" lon="-8.8866"><ele>6.0</ele><time>2026-05-05T12:57:27.202Z</time></trkpt><trkpt lat="51.621335" lon="-8.8865817"><ele>6.0</ele><time>2026-05-05T12:57:29.202Z</time></trkpt><trkpt lat="51.6212717" lon="-8.8866367"><ele>6.0</ele><time>2026-05-05T12:57:31.202Z</time></trkpt><trkpt lat="51.6212467" lon="-8.8867967"><ele>6.0</ele><time>2026-05-05T12:57:33.201Z</time></trkpt><trkpt lat="51.6212567" lon="-8.8869967"><ele>6.0</ele><time>2026-05-05T12:57:35.201Z</time></trkpt><trkpt lat="51.62129" lon="-8.887125"><ele>6.0</ele><time>2026-05-05T12:57:36.202Z</time></trkpt><trkpt lat="51.6213267" lon="-8.8873133"><ele>6.0</ele><time>2026-05-05T12:57:37.202Z</time></trkpt><trkpt lat="51.62133" lon="-8.887485"><ele>6.0</ele><time>2026-05-05T12:57:38.202Z</time></trkpt><trkpt lat="51.621335" lon="-8.8876383"><ele>6.0</ele><time>2026-05-05T12:57:39.202Z</time></trkpt><trkpt lat="51.621345" lon="-8.8878033"><ele>6.0</ele><time>2026-05-05T12:57:40.202Z</time></trkpt><trkpt lat="51.6213733" lon="-8.8879417"><ele>6.0</ele><time>2026-05-05T12:57:41.201Z</time></trkpt><trkpt lat="51.621385" lon="-8.8880783"><ele>6.0</ele><time>2026-05-05T12:57:42.201Z</time></trkpt><trkpt lat="51.621395" lon="-8.8882133"><ele>6.0</ele><time>2026-05-05T12:57:43.202Z</time></trkpt><trkpt lat="51.6214033" lon="-8.8883517"><ele>6.0</ele><time>2026-05-05T12:57:44.201Z</time></trkpt><trkpt lat="51.62142" lon="-8.88849"><ele>6.0</ele><time>2026-05-05T12:57:45.201Z</time></trkpt><trkpt lat="51.6214333" lon="-8.8886383"><ele>6.166666666666667</ele><time>2026-05-05T12:57:46.201Z</time></trkpt><trkpt lat="51.6214467" lon="-8.8887933"><ele>6.333333333333334</ele><time>2026-05-05T12:57:47.202Z</time></trkpt><trkpt lat="51.6214617" lon="-8.8889367"><ele>6.5</ele><time>2026-05-05T12:57:48.201Z</time></trkpt><trkpt lat="51.62148" lon="-8.8890717"><ele>6.666666666666667</ele><time>2026-05-05T12:57:49.201Z</time></trkpt><trkpt lat="51.6214867" lon="-8.8892117"><ele>6.833333333333334</ele><time>2026-05-05T12:57:50.202Z</time></trkpt><trkpt lat="51.6214833" lon="-8.8893333"><ele>7.0</ele><time>2026-05-05T12:57:51.201Z</time></trkpt><trkpt lat="51.621465" lon="-8.889455"><ele>7.0</ele><time>2026-05-05T12:57:52.202Z</time></trkpt><trkpt lat="51.6214417" lon="-8.88956"><ele>6.999999999999999</ele><time>2026-05-05T12:57:53.201Z</time></trkpt><trkpt lat="51.6214117" lon="-8.8896617"><ele>6.999999999999999</ele><time>2026-05-05T12:57:54.202Z</time></trkpt><trkpt lat="51.6213467" lon="-8.8897667"><ele>7.0</ele><time>2026-05-05T12:57:55.202Z</time></trkpt><trkpt lat="51.6212833" lon="-8.8898667"><ele>7.0</ele><time>2026-05-05T12:57:56.202Z</time></trkpt><trkpt lat="51.6210783" lon="-8.8900817"><ele>7.3999999999999995</ele><time>2026-05-05T12:57:58.202Z</time></trkpt><trkpt lat="51.6209833" lon="-8.890185"><ele>7.799999999999999</ele><time>2026-05-05T12:57:59.202Z</time></trkpt><trkpt lat="51.62089" lon="-8.890265"><ele>8.2</ele><time>2026-05-05T12:58:00.202Z</time></trkpt><trkpt lat="51.6207983" lon="-8.8903333"><ele>8.6</ele><time>2026-05-05T12:58:01.201Z</time></trkpt><trkpt lat="51.62073" lon="-8.890405"><ele>9.0</ele><time>2026-05-05T12:58:02.201Z</time></trkpt><trkpt lat="51.6206567" lon="-8.8904783"><ele>9.0</ele><time>2026-05-05T12:58:03.202Z</time></trkpt><trkpt lat="51.6205833" lon="-8.8905467"><ele>9.0</ele><time>2026-05-05T12:58:04.202Z</time></trkpt><trkpt lat="51.62052" lon="-8.8906333"><ele>9.0</ele><time>2026-05-05T12:58:05.202Z</time></trkpt><trkpt lat="51.62046" lon="-8.89072"><ele>9.0</ele><time>2026-05-05T12:58:06.202Z</time></trkpt><trkpt lat="51.6204017" lon="-8.8907917"><ele>9.0</ele><time>2026-05-05T12:58:07.202Z</time></trkpt><trkpt lat="51.6203667" lon="-8.8909"><ele>9.0</ele><time>2026-05-05T12:58:08.202Z</time></trkpt><trkpt lat="51.620345" lon="-8.8910333"><ele>9.25</ele><time>2026-05-05T12:58:09.202Z</time></trkpt><trkpt lat="51.6203383" lon="-8.8911967"><ele>9.5</ele><time>2026-05-05T12:58:10.202Z</time></trkpt><trkpt lat="51.62033" lon="-8.8913767"><ele>9.75</ele><time>2026-05-05T12:58:11.201Z</time></trkpt><trkpt lat="51.620335" lon="-8.8916167"><ele>10.0</ele><time>2026-05-05T12:58:12.202Z</time></trkpt><trkpt lat="51.620325" lon="-8.8918267"><ele>11.0</ele><time>2026-05-05T12:58:13.202Z</time></trkpt><trkpt lat="51.62031" lon="-8.8920417"><ele>12.0</ele><time>2026-05-05T12:58:14.202Z</time></trkpt><trkpt lat="51.6202883" lon="-8.8922517"><ele>13.0</ele><time>2026-05-05T12:58:15.201Z</time></trkpt><trkpt lat="51.62027" lon="-8.8924517"><ele>14.0</ele><time>2026-05-05T12:58:16.202Z</time></trkpt><trkpt lat="51.620255" lon="-8.8926533"><ele>14.0</ele><time>2026-05-05T12:58:17.202Z</time></trkpt><trkpt lat="51.620245" lon="-8.89285"><ele>14.0</ele><time>2026-05-05T12:58:18.202Z</time></trkpt><trkpt lat="51.620225" lon="-8.8930483"><ele>14.0</ele><time>2026-05-05T12:58:19.201Z</time></trkpt><trkpt lat="51.620215" lon="-8.893255"><ele>14.0</ele><time>2026-05-05T12:58:20.201Z</time></trkpt><trkpt lat="51.620205" lon="-8.8934467"><ele>13.799999999999999</ele><time>2026-05-05T12:58:21.202Z</time></trkpt><trkpt lat="51.620185" lon="-8.8936017"><ele>13.599999999999998</ele><time>2026-05-05T12:58:22.202Z</time></trkpt><trkpt lat="51.6201667" lon="-8.8937883"><ele>13.4</ele><time>2026-05-05T12:58:23.202Z</time></trkpt><trkpt lat="51.6201617" lon="-8.8939783"><ele>13.2</ele><time>2026-05-05T12:58:24.202Z</time></trkpt><trkpt lat="51.62015" lon="-8.8941617"><ele>13.0</ele><time>2026-05-05T12:58:25.201Z</time></trkpt><trkpt lat="51.62013" lon="-8.89432"><ele>13.0</ele><time>2026-05-05T12:58:26.201Z</time></trkpt><trkpt lat="51.620115" lon="-8.8944933"><ele>13.0</ele><time>2026-05-05T12:58:27.202Z</time></trkpt><trkpt lat="51.620095" lon="-8.894675"><ele>13.0</ele><time>2026-05-05T12:58:28.202Z</time></trkpt><trkpt lat="51.6200767" lon="-8.8948467"><ele>13.0</ele><time>2026-05-05T12:58:29.202Z</time></trkpt><trkpt lat="51.6200567" lon="-8.895015"><ele>13.0</ele><time>2026-05-05T12:58:30.202Z</time></trkpt><trkpt lat="51.6200383" lon="-8.8951767"><ele>12.8</ele><time>2026-05-05T12:58:31.202Z</time></trkpt><trkpt lat="51.6200133" lon="-8.8953333"><ele>12.600000000000001</ele><time>2026-05-05T12:58:32.202Z</time></trkpt><trkpt lat="51.6199783" lon="-8.89549"><ele>12.399999999999999</ele><time>2026-05-05T12:58:33.202Z</time></trkpt><trkpt lat="51.619955" lon="-8.8956417"><ele>12.2</ele><time>2026-05-05T12:58:34.201Z</time></trkpt><trkpt lat="51.6199333" lon="-8.8957967"><ele>12.0</ele><time>2026-05-05T12:58:35.202Z</time></trkpt><trkpt lat="51.6198817" lon="-8.896125"><ele>11.5</ele><time>2026-05-05T12:58:37.202Z</time></trkpt><trkpt lat="51.61984" lon="-8.89629"><ele>11.0</ele><time>2026-05-05T12:58:38.202Z</time></trkpt><trkpt lat="51.6197983" lon="-8.8964667"><ele>10.5</ele><time>2026-05-05T12:58:39.201Z</time></trkpt><trkpt lat="51.6197467" lon="-8.8966417"><ele>10.0</ele><time>2026-05-05T12:58:40.202Z</time></trkpt><trkpt lat="51.6196917" lon="-8.896805"><ele>10.0</ele><time>2026-05-05T12:58:41.202Z</time></trkpt><trkpt lat="51.6196283" lon="-8.8969583"><ele>10.0</ele><time>2026-05-05T12:58:42.201Z</time></trkpt><trkpt lat="51.619565" lon="-8.89711"><ele>10.0</ele><time>2026-05-05T12:58:43.201Z</time></trkpt><trkpt lat="51.6194983" lon="-8.897295"><ele>10.0</ele><time>2026-05-05T12:58:44.202Z</time></trkpt><trkpt lat="51.6194383" lon="-8.8974417"><ele>10.25</ele><time>2026-05-05T12:58:45.202Z</time></trkpt><trkpt lat="51.619375" lon="-8.8975967"><ele>10.5</ele><time>2026-05-05T12:58:46.202Z</time></trkpt><trkpt lat="51.6192883" lon="-8.89775"><ele>10.75</ele><time>2026-05-05T12:58:47.201Z</time></trkpt><trkpt lat="51.619235" lon="-8.8979033"><ele>11.0</ele><time>2026-05-05T12:58:48.202Z</time></trkpt><trkpt lat="51.6191767" lon="-8.8980683"><ele>11.0</ele><time>2026-05-05T12:58:49.202Z</time></trkpt><trkpt lat="51.6191267" lon="-8.8982433"><ele>11.0</ele><time>2026-05-05T12:58:50.202Z</time></trkpt><trkpt lat="51.6190683" lon="-8.898425"><ele>11.0</ele><time>2026-05-05T12:58:51.202Z</time></trkpt><trkpt lat="51.6190017" lon="-8.8986217"><ele>11.0</ele><time>2026-05-05T12:58:52.201Z</time></trkpt><trkpt lat="51.6189217" lon="-8.8988217"><ele>11.4</ele><time>2026-05-05T12:58:53.201Z</time></trkpt><trkpt lat="51.6188767" lon="-8.8989967"><ele>11.8</ele><time>2026-05-05T12:58:54.202Z</time></trkpt><trkpt lat="51.6188383" lon="-8.8991567"><ele>12.200000000000001</ele><time>2026-05-05T12:58:55.202Z</time></trkpt><trkpt lat="51.6188233" lon="-8.8993"><ele>12.600000000000001</ele><time>2026-05-05T12:58:56.202Z</time></trkpt><trkpt lat="51.6188133" lon="-8.8994417"><ele>13.0</ele><time>2026-05-05T12:58:57.202Z</time></trkpt><trkpt lat="51.6188067" lon="-8.8995767"><ele>12.999999999999998</ele><time>2026-05-05T12:58:58.201Z</time></trkpt><trkpt lat="51.6187983" lon="-8.8997183"><ele>13.0</ele><time>2026-05-05T12:58:59.202Z</time></trkpt><trkpt lat="51.6187867" lon="-8.8998617"><ele>13.0</ele><time>2026-05-05T12:59:00.202Z</time></trkpt><trkpt lat="51.6187717" lon="-8.9000017"><ele>13.0</ele><time>2026-05-05T12:59:01.201Z</time></trkpt><trkpt lat="51.618765" lon="-8.9001383"><ele>12.999999999999998</ele><time>2026-05-05T12:59:02.201Z</time></trkpt><trkpt lat="51.6187617" lon="-8.9002817"><ele>13.0</ele><time>2026-05-05T12:59:03.202Z</time></trkpt><trkpt lat="51.6187667" lon="-8.9004233"><ele>13.2</ele><time>2026-05-05T12:59:04.202Z</time></trkpt><trkpt lat="51.6187617" lon="-8.9005717"><ele>13.4</ele><time>2026-05-05T12:59:05.201Z</time></trkpt><trkpt lat="51.6187517" lon="-8.9007217"><ele>13.599999999999998</ele><time>2026-05-05T12:59:06.202Z</time></trkpt><trkpt lat="51.6187417" lon="-8.900875"><ele>13.799999999999999</ele><time>2026-05-05T12:59:07.202Z</time></trkpt><trkpt lat="51.6187333" lon="-8.9010333"><ele>14.0</ele><time>2026-05-05T12:59:08.201Z</time></trkpt><trkpt lat="51.6187267" lon="-8.901185"><ele>14.000000000000002</ele><time>2026-05-05T12:59:09.202Z</time></trkpt><trkpt lat="51.6187183" lon="-8.9013333"><ele>14.0</ele><time>2026-05-05T12:59:10.202Z</time></trkpt><trkpt lat="51.6187067" lon="-8.9014717"><ele>14.0</ele><time>2026-05-05T12:59:11.202Z</time></trkpt><trkpt lat="51.618695" lon="-8.90161"><ele>14.0</ele><time>2026-05-05T12:59:12.202Z</time></trkpt><trkpt lat="51.6186867" lon="-8.9017517"><ele>14.000000000000002</ele><time>2026-05-05T12:59:13.201Z</time></trkpt><trkpt lat="51.618675" lon="-8.901885"><ele>14.0</ele><time>2026-05-05T12:59:14.202Z</time></trkpt><trkpt lat="51.6186583" lon="-8.9020317"><ele>14.6</ele><time>2026-05-05T12:59:15.201Z</time></trkpt><trkpt lat="51.6186483" lon="-8.9021717"><ele>15.2</ele><time>2026-05-05T12:59:16.202Z</time></trkpt><trkpt lat="51.61864" lon="-8.9023167"><ele>15.799999999999999</ele><time>2026-05-05T12:59:17.201Z</time></trkpt><trkpt lat="51.6186267" lon="-8.90248"><ele>16.4</ele><time>2026-05-05T12:59:18.202Z</time></trkpt><trkpt lat="51.6186067" lon="-8.902635"><ele>17.0</ele><time>2026-05-05T12:59:19.201Z</time></trkpt><trkpt lat="51.6185767" lon="-8.9027767"><ele>17.0</ele><time>2026-05-05T12:59:20.202Z</time></trkpt><trkpt lat="51.6185483" lon="-8.9029317"><ele>17.0</ele><time>2026-05-05T12:59:21.202Z</time></trkpt><trkpt lat="51.6185283" lon="-8.9031033"><ele>17.0</ele><time>2026-05-05T12:59:22.202Z</time></trkpt><trkpt lat="51.6185017" lon="-8.9032867"><ele>17.0</ele><time>2026-05-05T12:59:23.202Z</time></trkpt><trkpt lat="51.6184683" lon="-8.9034717"><ele>17.0</ele><time>2026-05-05T12:59:24.202Z</time></trkpt><trkpt lat="51.6184583" lon="-8.9036583"><ele>16.8</ele><time>2026-05-05T12:59:25.201Z</time></trkpt><trkpt lat="51.6184333" lon="-8.903835"><ele>16.6</ele><time>2026-05-05T12:59:26.202Z</time></trkpt><trkpt lat="51.6184133" lon="-8.9039917"><ele>16.400000000000002</ele><time>2026-05-05T12:59:27.202Z</time></trkpt><trkpt lat="51.6183933" lon="-8.9041467"><ele>16.2</ele><time>2026-05-05T12:59:28.202Z</time></trkpt><trkpt lat="51.6183783" lon="-8.904285"><ele>16.0</ele><time>2026-05-05T12:59:29.202Z</time></trkpt><trkpt lat="51.6183617" lon="-8.90442"><ele>15.8</ele><time>2026-05-05T12:59:30.202Z</time></trkpt><trkpt lat="51.6183433" lon="-8.904555"><ele>15.600000000000001</ele><time>2026-05-05T12:59:31.201Z</time></trkpt><trkpt lat="51.6183217" lon="-8.904715"><ele>15.4</ele><time>2026-05-05T12:59:32.202Z</time></trkpt><trkpt lat="51.6183117" lon="-8.90488"><ele>15.2</ele><time>2026-05-05T12:59:33.202Z</time></trkpt><trkpt lat="51.61831" lon="-8.9050317"><ele>15.0</ele><time>2026-05-05T12:59:34.201Z</time></trkpt><trkpt lat="51.6183383" lon="-8.905175"><ele>15.0</ele><time>2026-05-05T12:59:35.202Z</time></trkpt><trkpt lat="51.6183733" lon="-8.90531"><ele>15.0</ele><time>2026-05-05T12:59:36.202Z</time></trkpt><trkpt lat="51.6184383" lon="-8.9054317"><ele>15.0</ele><time>2026-05-05T12:59:37.202Z</time></trkpt><trkpt lat="51.6185067" lon="-8.9055367"><ele>15.0</ele><time>2026-05-05T12:59:38.202Z</time></trkpt><trkpt lat="51.6186033" lon="-8.9056033"><ele>15.0</ele><time>2026-05-05T12:59:39.202Z</time></trkpt><trkpt lat="51.6187217" lon="-8.905635"><ele>14.5</ele><time>2026-05-05T12:59:40.201Z</time></trkpt><trkpt lat="51.6188383" lon="-8.90565"><ele>14.0</ele><time>2026-05-05T12:59:41.202Z</time></trkpt><trkpt lat="51.61897" lon="-8.9056583"><ele>13.5</ele><time>2026-05-05T12:59:42.202Z</time></trkpt><trkpt lat="51.6191017" lon="-8.9056767"><ele>13.0</ele><time>2026-05-05T12:59:43.201Z</time></trkpt><trkpt lat="51.6192333" lon="-8.90568"><ele>13.0</ele><time>2026-05-05T12:59:44.201Z</time></trkpt><trkpt lat="51.6193617" lon="-8.90567"><ele>13.0</ele><time>2026-05-05T12:59:45.202Z</time></trkpt><trkpt lat="51.61949" lon="-8.9056383"><ele>13.0</ele><time>2026-05-05T12:59:46.202Z</time></trkpt><trkpt lat="51.6196117" lon="-8.9056"><ele>13.0</ele><time>2026-05-05T12:59:47.201Z</time></trkpt><trkpt lat="51.6197217" lon="-8.9055833"><ele>12.666666666666666</ele><time>2026-05-05T12:59:48.201Z</time></trkpt><trkpt lat="51.6198183" lon="-8.9055733"><ele>12.333333333333332</ele><time>2026-05-05T12:59:49.201Z</time></trkpt><trkpt lat="51.6198983" lon="-8.9055583"><ele>12.0</ele><time>2026-05-05T12:59:50.201Z</time></trkpt><trkpt lat="51.61997" lon="-8.9055517"><ele>11.666666666666666</ele><time>2026-05-05T12:59:51.202Z</time></trkpt><trkpt lat="51.62007" lon="-8.905515"><ele>11.333333333333332</ele><time>2026-05-05T12:59:53.201Z</time></trkpt><trkpt lat="51.6201633" lon="-8.9055033"><ele>11.0</ele><time>2026-05-05T12:59:55.201Z</time></trkpt><trkpt lat="51.620235" lon="-8.9055033"><ele>11.0</ele><time>2026-05-05T12:59:57.202Z</time></trkpt><trkpt lat="51.620315" lon="-8.9055567"><ele>11.0</ele><time>2026-05-05T12:59:59.202Z</time></trkpt><trkpt lat="51.6203983" lon="-8.9057483"><ele>11.0</ele><time>2026-05-05T13:00:01.202Z</time></trkpt><trkpt lat="51.620415" lon="-8.9059717"><ele>11.0</ele><time>2026-05-05T13:00:02.201Z</time></trkpt><trkpt lat="51.620405" lon="-8.9062083"><ele>11.0</ele><time>2026-05-05T13:00:03.201Z</time></trkpt><trkpt lat="51.6203983" lon="-8.90649"><ele>11.0</ele><time>2026-05-05T13:00:04.202Z</time></trkpt><trkpt lat="51.6203567" lon="-8.9068183"><ele>11.0</ele><time>2026-05-05T13:00:05.201Z</time></trkpt><trkpt lat="51.62036" lon="-8.9070667"><ele>11.333333333333332</ele><time>2026-05-05T13:00:06.202Z</time></trkpt><trkpt lat="51.620355" lon="-8.90734"><ele>11.666666666666666</ele><time>2026-05-05T13:00:07.201Z</time></trkpt><trkpt lat="51.620355" lon="-8.9076183"><ele>12.0</ele><time>2026-05-05T13:00:08.202Z</time></trkpt><trkpt lat="51.620355" lon="-8.907905"><ele>12.0</ele><time>2026-05-05T13:00:09.202Z</time></trkpt><trkpt lat="51.6203483" lon="-8.90821"><ele>12.0</ele><time>2026-05-05T13:00:10.202Z</time></trkpt><trkpt lat="51.6203283" lon="-8.9085217"><ele>12.0</ele><time>2026-05-05T13:00:11.202Z</time></trkpt><trkpt lat="51.6203333" lon="-8.9088217"><ele>12.0</ele><time>2026-05-05T13:00:12.202Z</time></trkpt><trkpt lat="51.62033" lon="-8.9091233"><ele>12.0</ele><time>2026-05-05T13:00:13.202Z</time></trkpt><trkpt lat="51.6203167" lon="-8.9094167"><ele>12.0</ele><time>2026-05-05T13:00:14.201Z</time></trkpt><trkpt lat="51.6203167" lon="-8.9097117"><ele>12.666666666666668</ele><time>2026-05-05T13:00:15.202Z</time></trkpt><trkpt lat="51.6203183" lon="-8.909995"><ele>13.333333333333334</ele><time>2026-05-05T13:00:16.202Z</time></trkpt><trkpt lat="51.6203" lon="-8.9103033"><ele>14.0</ele><time>2026-05-05T13:00:17.202Z</time></trkpt><trkpt lat="51.6202533" lon="-8.9105883"><ele>16.0</ele><time>2026-05-05T13:00:18.202Z</time></trkpt><trkpt lat="51.620215" lon="-8.9108867"><ele>18.0</ele><time>2026-05-05T13:00:19.201Z</time></trkpt><trkpt lat="51.6201867" lon="-8.9111583"><ele>20.0</ele><time>2026-05-05T13:00:20.202Z</time></trkpt><trkpt lat="51.620145" lon="-8.9114233"><ele>19.666666666666668</ele><time>2026-05-05T13:00:21.201Z</time></trkpt><trkpt lat="51.6201" lon="-8.91175"><ele>19.333333333333332</ele><time>2026-05-05T13:00:22.202Z</time></trkpt><trkpt lat="51.620055" lon="-8.9120383"><ele>19.0</ele><time>2026-05-05T13:00:23.202Z</time></trkpt><trkpt lat="51.62" lon="-8.9123283"><ele>19.0</ele><time>2026-05-05T13:00:24.202Z</time></trkpt><trkpt lat="51.619955" lon="-8.9126167"><ele>19.0</ele><time>2026-05-05T13:00:25.202Z</time></trkpt><trkpt lat="51.6198617" lon="-8.91289"><ele>19.0</ele><time>2026-05-05T13:00:26.201Z</time></trkpt><trkpt lat="51.6197933" lon="-8.913165"><ele>20.0</ele><time>2026-05-05T13:00:27.201Z</time></trkpt><trkpt lat="51.6197233" lon="-8.9134467"><ele>21.0</ele><time>2026-05-05T13:00:28.201Z</time></trkpt><trkpt lat="51.6196517" lon="-8.9137083"><ele>22.0</ele><time>2026-05-05T13:00:29.202Z</time></trkpt><trkpt lat="51.6195967" lon="-8.913955"><ele>22.0</ele><time>2026-05-05T13:00:30.202Z</time></trkpt><trkpt lat="51.6195133" lon="-8.91419"><ele>22.0</ele><time>2026-05-05T13:00:31.202Z</time></trkpt><trkpt lat="51.6194383" lon="-8.9144133"><ele>22.0</ele><time>2026-05-05T13:00:32.201Z</time></trkpt><trkpt lat="51.619355" lon="-8.9146317"><ele>22.0</ele><time>2026-05-05T13:00:33.202Z</time></trkpt><trkpt lat="51.6192717" lon="-8.9148367"><ele>22.0</ele><time>2026-05-05T13:00:34.201Z</time></trkpt><trkpt lat="51.61918" lon="-8.9150483"><ele>22.0</ele><time>2026-05-05T13:00:35.201Z</time></trkpt><trkpt lat="51.6190833" lon="-8.9152483"><ele>21.666666666666664</ele><time>2026-05-05T13:00:36.201Z</time></trkpt><trkpt lat="51.6189817" lon="-8.915465"><ele>21.333333333333332</ele><time>2026-05-05T13:00:37.202Z</time></trkpt><trkpt lat="51.6188783" lon="-8.915655"><ele>21.0</ele><time>2026-05-05T13:00:38.202Z</time></trkpt><trkpt lat="51.6187883" lon="-8.9158383"><ele>20.75</ele><time>2026-05-05T13:00:39.201Z</time></trkpt><trkpt lat="51.6186983" lon="-8.916015"><ele>20.5</ele><time>2026-05-05T13:00:40.202Z</time></trkpt><trkpt lat="51.61861" lon="-8.9162083"><ele>20.25</ele><time>2026-05-05T13:00:41.201Z</time></trkpt><trkpt lat="51.6185117" lon="-8.9163967"><ele>20.0</ele><time>2026-05-05T13:00:42.202Z</time></trkpt><trkpt lat="51.6184217" lon="-8.9166067"><ele>20.0</ele><time>2026-05-05T13:00:43.202Z</time></trkpt><trkpt lat="51.6183317" lon="-8.9168517"><ele>20.0</ele><time>2026-05-05T13:00:44.202Z</time></trkpt><trkpt lat="51.6182467" lon="-8.917105"><ele>20.0</ele><time>2026-05-05T13:00:45.202Z</time></trkpt><trkpt lat="51.6181717" lon="-8.9173933"><ele>20.0</ele><time>2026-05-05T13:00:46.201Z</time></trkpt><trkpt lat="51.6181083" lon="-8.917685"><ele>20.0</ele><time>2026-05-05T13:00:47.202Z</time></trkpt><trkpt lat="51.6180583" lon="-8.91799"><ele>20.0</ele><time>2026-05-05T13:00:48.202Z</time></trkpt><trkpt lat="51.61802" lon="-8.9182933"><ele>20.0</ele><time>2026-05-05T13:00:49.202Z</time></trkpt><trkpt lat="51.6179783" lon="-8.918605"><ele>20.0</ele><time>2026-05-05T13:00:50.201Z</time></trkpt><trkpt lat="51.61795" lon="-8.918935"><ele>20.0</ele><time>2026-05-05T13:00:51.201Z</time></trkpt><trkpt lat="51.6179433" lon="-8.9192633"><ele>20.0</ele><time>2026-05-05T13:00:52.201Z</time></trkpt><trkpt lat="51.6179383" lon="-8.9196017"><ele>20.0</ele><time>2026-05-05T13:00:53.202Z</time></trkpt><trkpt lat="51.617935" lon="-8.919945"><ele>20.0</ele><time>2026-05-05T13:00:54.202Z</time></trkpt><trkpt lat="51.6179317" lon="-8.92029"><ele>20.5</ele><time>2026-05-05T13:00:55.201Z</time></trkpt><trkpt lat="51.61794" lon="-8.9206417"><ele>21.0</ele><time>2026-05-05T13:00:56.202Z</time></trkpt><trkpt lat="51.6179383" lon="-8.921015"><ele>21.5</ele><time>2026-05-05T13:00:57.202Z</time></trkpt><trkpt lat="51.6179383" lon="-8.9214"><ele>22.0</ele><time>2026-05-05T13:00:58.202Z</time></trkpt><trkpt lat="51.6179433" lon="-8.9217967"><ele>22.0</ele><time>2026-05-05T13:00:59.202Z</time></trkpt><trkpt lat="51.6179467" lon="-8.9221983"><ele>22.0</ele><time>2026-05-05T13:01:00.202Z</time></trkpt><trkpt lat="51.617955" lon="-8.9226017"><ele>23.0</ele><time>2026-05-05T13:01:01.202Z</time></trkpt><trkpt lat="51.61796" lon="-8.923005"><ele>24.0</ele><time>2026-05-05T13:01:02.201Z</time></trkpt><trkpt lat="51.617965" lon="-8.9234033"><ele>24.5</ele><time>2026-05-05T13:01:03.202Z</time></trkpt><trkpt lat="51.6179733" lon="-8.9237933"><ele>25.0</ele><time>2026-05-05T13:01:04.201Z</time></trkpt><trkpt lat="51.6179817" lon="-8.924175"><ele>25.5</ele><time>2026-05-05T13:01:05.202Z</time></trkpt><trkpt lat="51.61799" lon="-8.92455"><ele>26.0</ele><time>2026-05-05T13:01:06.202Z</time></trkpt><trkpt lat="51.6179833" lon="-8.9249267"><ele>27.0</ele><time>2026-05-05T13:01:07.201Z</time></trkpt><trkpt lat="51.6179833" lon="-8.9252783"><ele>28.0</ele><time>2026-05-05T13:01:08.202Z</time></trkpt><trkpt lat="51.61799" lon="-8.92561"><ele>29.0</ele><time>2026-05-05T13:01:09.201Z</time></trkpt><trkpt lat="51.6180017" lon="-8.9259383"><ele>29.0</ele><time>2026-05-05T13:01:10.202Z</time></trkpt><trkpt lat="51.6180117" lon="-8.9262717"><ele>29.0</ele><time>2026-05-05T13:01:11.202Z</time></trkpt><trkpt lat="51.6180217" lon="-8.9266133"><ele>29.0</ele><time>2026-05-05T13:01:12.202Z</time></trkpt><trkpt lat="51.6180383" lon="-8.92695"><ele>28.666666666666664</ele><time>2026-05-05T13:01:13.201Z</time></trkpt><trkpt lat="51.6180667" lon="-8.9272867"><ele>28.333333333333336</ele><time>2026-05-05T13:01:14.202Z</time></trkpt><trkpt lat="51.6180983" lon="-8.9276167"><ele>28.0</ele><time>2026-05-05T13:01:15.201Z</time></trkpt><trkpt lat="51.6181267" lon="-8.92795"><ele>29.333333333333336</ele><time>2026-05-05T13:01:16.202Z</time></trkpt><trkpt lat="51.6181633" lon="-8.92829"><ele>30.666666666666664</ele><time>2026-05-05T13:01:17.201Z</time></trkpt><trkpt lat="51.6181833" lon="-8.9286267"><ele>32.0</ele><time>2026-05-05T13:01:18.202Z</time></trkpt><trkpt lat="51.6181917" lon="-8.9289617"><ele>33.0</ele><time>2026-05-05T13:01:19.202Z</time></trkpt><trkpt lat="51.61818" lon="-8.9292933"><ele>34.0</ele><time>2026-05-05T13:01:20.202Z</time></trkpt><trkpt lat="51.6181617" lon="-8.9296517"><ele>35.0</ele><time>2026-05-05T13:01:21.202Z</time></trkpt><trkpt lat="51.61814" lon="-8.93001"><ele>35.33333333333333</ele><time>2026-05-05T13:01:22.201Z</time></trkpt><trkpt lat="51.61811" lon="-8.930365"><ele>35.666666666666664</ele><time>2026-05-05T13:01:23.202Z</time></trkpt><trkpt lat="51.6180933" lon="-8.9307033"><ele>36.0</ele><time>2026-05-05T13:01:24.202Z</time></trkpt><trkpt lat="51.6180617" lon="-8.931025"><ele>36.333333333333336</ele><time>2026-05-05T13:01:25.202Z</time></trkpt><trkpt lat="51.6180317" lon="-8.93132"><ele>36.66666666666667</ele><time>2026-05-05T13:01:26.202Z</time></trkpt><trkpt lat="51.6179883" lon="-8.9315567"><ele>37.0</ele><time>2026-05-05T13:01:27.202Z</time></trkpt><trkpt lat="51.6179683" lon="-8.931775"><ele>37.75</ele><time>2026-05-05T13:01:28.202Z</time></trkpt><trkpt lat="51.617955" lon="-8.931995"><ele>38.5</ele><time>2026-05-05T13:01:29.201Z</time></trkpt><trkpt lat="51.617935" lon="-8.9322183"><ele>39.25</ele><time>2026-05-05T13:01:30.202Z</time></trkpt><trkpt lat="51.6179033" lon="-8.932465"><ele>40.0</ele><time>2026-05-05T13:01:31.202Z</time></trkpt><trkpt lat="51.6178717" lon="-8.9327433"><ele>41.0</ele><time>2026-05-05T13:01:32.202Z</time></trkpt><trkpt lat="51.61785" lon="-8.9330383"><ele>42.0</ele><time>2026-05-05T13:01:33.202Z</time></trkpt><trkpt lat="51.6178083" lon="-8.9333417"><ele>43.0</ele><time>2026-05-05T13:01:34.202Z</time></trkpt><trkpt lat="51.6177367" lon="-8.9338817"><ele>44.4</ele><time>2026-05-05T13:01:36.202Z</time></trkpt><trkpt lat="51.6177067" lon="-8.9340917"><ele>45.8</ele><time>2026-05-05T13:01:37.201Z</time></trkpt><trkpt lat="51.6176833" lon="-8.93426"><ele>47.2</ele><time>2026-05-05T13:01:38.202Z</time></trkpt><trkpt lat="51.6176667" lon="-8.9343917"><ele>48.6</ele><time>2026-05-05T13:01:39.202Z</time></trkpt><trkpt lat="51.6176517" lon="-8.934495"><ele>50.0</ele><time>2026-05-05T13:01:40.201Z</time></trkpt><trkpt lat="51.6176117" lon="-8.9346333"><ele>50.66666666666667</ele><time>2026-05-05T13:01:42.201Z</time></trkpt><trkpt lat="51.617555" lon="-8.9347317"><ele>51.333333333333336</ele><time>2026-05-05T13:01:44.201Z</time></trkpt><trkpt lat="51.6175217" lon="-8.9348667"><ele>52.0</ele><time>2026-05-05T13:01:47.201Z</time></trkpt><trkpt lat="51.617495" lon="-8.93496"><ele>52.66666666666667</ele><time>2026-05-05T13:01:49.202Z</time></trkpt><trkpt lat="51.6174817" lon="-8.9351"><ele>53.333333333333336</ele><time>2026-05-05T13:01:52.202Z</time></trkpt><trkpt lat="51.61747" lon="-8.9352417"><ele>54.0</ele><time>2026-05-05T13:01:54.201Z</time></trkpt><trkpt lat="51.6174417" lon="-8.9353783"><ele>54.0</ele><time>2026-05-05T13:01:56.201Z</time></trkpt><trkpt lat="51.6174183" lon="-8.9354833"><ele>54.0</ele><time>2026-05-05T13:01:58.202Z</time></trkpt><trkpt lat="51.6173933" lon="-8.9356183"><ele>54.0</ele><time>2026-05-05T13:02:00.202Z</time></trkpt><trkpt lat="51.6173667" lon="-8.93575"><ele>54.0</ele><time>2026-05-05T13:02:02.201Z</time></trkpt><trkpt lat="51.6173233" lon="-8.935865"><ele>54.0</ele><time>2026-05-05T13:02:04.202Z</time></trkpt><trkpt lat="51.6172717" lon="-8.936015"><ele>54.0</ele><time>2026-05-05T13:02:06.201Z</time></trkpt><trkpt lat="51.6172083" lon="-8.9362167"><ele>54.0</ele><time>2026-05-05T13:02:08.202Z</time></trkpt><trkpt lat="51.61717" lon="-8.93634"><ele>54.00000000000001</ele><time>2026-05-05T13:02:09.202Z</time></trkpt><trkpt lat="51.6171233" lon="-8.9364683"><ele>54.00000000000001</ele><time>2026-05-05T13:02:10.202Z</time></trkpt><trkpt lat="51.617075" lon="-8.9366117"><ele>54.0</ele><time>2026-05-05T13:02:11.202Z</time></trkpt><trkpt lat="51.61703" lon="-8.9367683"><ele>54.0</ele><time>2026-05-05T13:02:12.201Z</time></trkpt><trkpt lat="51.6169883" lon="-8.936945"><ele>55.25</ele><time>2026-05-05T13:02:13.202Z</time></trkpt><trkpt lat="51.616945" lon="-8.9371217"><ele>56.5</ele><time>2026-05-05T13:02:14.202Z</time></trkpt><trkpt lat="51.6169" lon="-8.937295"><ele>57.75</ele><time>2026-05-05T13:02:15.201Z</time></trkpt><trkpt lat="51.6168517" lon="-8.9374633"><ele>59.0</ele><time>2026-05-05T13:02:16.202Z</time></trkpt><trkpt lat="51.6167983" lon="-8.9376267"><ele>59.400000000000006</ele><time>2026-05-05T13:02:17.202Z</time></trkpt><trkpt lat="51.6167283" lon="-8.9377883"><ele>59.800000000000004</ele><time>2026-05-05T13:02:18.202Z</time></trkpt><trkpt lat="51.6166917" lon="-8.93791"><ele>60.199999999999996</ele><time>2026-05-05T13:02:19.201Z</time></trkpt><trkpt lat="51.6166567" lon="-8.93804"><ele>60.599999999999994</ele><time>2026-05-05T13:02:20.201Z</time></trkpt><trkpt lat="51.6166267" lon="-8.938165"><ele>61.0</ele><time>2026-05-05T13:02:21.201Z</time></trkpt><trkpt lat="51.6166017" lon="-8.93828"><ele>60.83333333333333</ele><time>2026-05-05T13:02:22.202Z</time></trkpt><trkpt lat="51.61657" lon="-8.938385"><ele>60.666666666666664</ele><time>2026-05-05T13:02:23.201Z</time></trkpt><trkpt lat="51.6165367" lon="-8.938495"><ele>60.5</ele><time>2026-05-05T13:02:24.201Z</time></trkpt><trkpt lat="51.6165" lon="-8.9386117"><ele>60.33333333333333</ele><time>2026-05-05T13:02:25.202Z</time></trkpt><trkpt lat="51.6164633" lon="-8.938735"><ele>60.166666666666664</ele><time>2026-05-05T13:02:26.202Z</time></trkpt><trkpt lat="51.6164233" lon="-8.93887"><ele>60.0</ele><time>2026-05-05T13:02:27.202Z</time></trkpt><trkpt lat="51.6163767" lon="-8.939015"><ele>60.0</ele><time>2026-05-05T13:02:28.201Z</time></trkpt><trkpt lat="51.616325" lon="-8.9391583"><ele>60.0</ele><time>2026-05-05T13:02:29.202Z</time></trkpt><trkpt lat="51.616275" lon="-8.93931"><ele>60.0</ele><time>2026-05-05T13:02:30.201Z</time></trkpt><trkpt lat="51.616225" lon="-8.939475"><ele>60.0</ele><time>2026-05-05T13:02:31.201Z</time></trkpt><trkpt lat="51.6161767" lon="-8.9396317"><ele>60.0</ele><time>2026-05-05T13:02:32.202Z</time></trkpt><trkpt lat="51.6161283" lon="-8.9397917"><ele>61.25</ele><time>2026-05-05T13:02:33.202Z</time></trkpt><trkpt lat="51.6160767" lon="-8.9399467"><ele>62.5</ele><time>2026-05-05T13:02:34.202Z</time></trkpt><trkpt lat="51.61603" lon="-8.9401117"><ele>63.75</ele><time>2026-05-05T13:02:35.202Z</time></trkpt><trkpt lat="51.6159767" lon="-8.9402783"><ele>65.0</ele><time>2026-05-05T13:02:36.202Z</time></trkpt><trkpt lat="51.6159217" lon="-8.9404567"><ele>65.0</ele><time>2026-05-05T13:02:37.201Z</time></trkpt><trkpt lat="51.615835" lon="-8.940655"><ele>65.0</ele><time>2026-05-05T13:02:38.202Z</time></trkpt><trkpt lat="51.6157533" lon="-8.9408533"><ele>65.0</ele><time>2026-05-05T13:02:39.201Z</time></trkpt><trkpt lat="51.6156817" lon="-8.9410567"><ele>65.0</ele><time>2026-05-05T13:02:40.202Z</time></trkpt><trkpt lat="51.6156167" lon="-8.941255"><ele>65.25</ele><time>2026-05-05T13:02:41.202Z</time></trkpt><trkpt lat="51.6155517" lon="-8.9414483"><ele>65.5</ele><time>2026-05-05T13:02:42.202Z</time></trkpt><trkpt lat="51.6154967" lon="-8.941635"><ele>65.75</ele><time>2026-05-05T13:02:43.202Z</time></trkpt><trkpt lat="51.61545" lon="-8.94183"><ele>66.0</ele><time>2026-05-05T13:02:44.202Z</time></trkpt><trkpt lat="51.61539" lon="-8.9420283"><ele>66.5</ele><time>2026-05-05T13:02:45.202Z</time></trkpt><trkpt lat="51.6153317" lon="-8.9422167"><ele>67.0</ele><time>2026-05-05T13:02:46.202Z</time></trkpt><trkpt lat="51.615275" lon="-8.9424067"><ele>67.5</ele><time>2026-05-05T13:02:47.201Z</time></trkpt><trkpt lat="51.6152117" lon="-8.9426067"><ele>68.0</ele><time>2026-05-05T13:02:48.201Z</time></trkpt><trkpt lat="51.6151533" lon="-8.9428183"><ele>68.33333333333334</ele><time>2026-05-05T13:02:49.201Z</time></trkpt><trkpt lat="51.6150983" lon="-8.943035"><ele>68.66666666666667</ele><time>2026-05-05T13:02:50.202Z</time></trkpt><trkpt lat="51.6150283" lon="-8.9432667"><ele>69.0</ele><time>2026-05-05T13:02:51.202Z</time></trkpt><trkpt lat="51.61496" lon="-8.9434983"><ele>68.66666666666667</ele><time>2026-05-05T13:02:52.202Z</time></trkpt><trkpt lat="51.6148867" lon="-8.943745"><ele>68.33333333333334</ele><time>2026-05-05T13:02:53.202Z</time></trkpt><trkpt lat="51.6148017" lon="-8.9440067"><ele>68.0</ele><time>2026-05-05T13:02:54.202Z</time></trkpt><trkpt lat="51.6147133" lon="-8.94428"><ele>68.0</ele><time>2026-05-05T13:02:55.201Z</time></trkpt><trkpt lat="51.6146217" lon="-8.944555"><ele>68.0</ele><time>2026-05-05T13:02:56.202Z</time></trkpt><trkpt lat="51.6145367" lon="-8.9448283"><ele>68.0</ele><time>2026-05-05T13:02:57.201Z</time></trkpt><trkpt lat="51.61447" lon="-8.9450867"><ele>69.0</ele><time>2026-05-05T13:02:58.202Z</time></trkpt><trkpt lat="51.6143983" lon="-8.945345"><ele>70.0</ele><time>2026-05-05T13:02:59.202Z</time></trkpt><trkpt lat="51.6143217" lon="-8.9456083"><ele>71.0</ele><time>2026-05-05T13:03:00.202Z</time></trkpt><trkpt lat="51.6142717" lon="-8.9459033"><ele>72.0</ele><time>2026-05-05T13:03:01.201Z</time></trkpt><trkpt lat="51.6141933" lon="-8.9462567"><ele>73.0</ele><time>2026-05-05T13:03:02.202Z</time></trkpt><trkpt lat="51.614115" lon="-8.9466017"><ele>75.5</ele><time>2026-05-05T13:03:03.201Z</time></trkpt><trkpt lat="51.6140217" lon="-8.9469483"><ele>78.0</ele><time>2026-05-05T13:03:04.202Z</time></trkpt><trkpt lat="51.6139283" lon="-8.9472817"><ele>79.33333333333333</ele><time>2026-05-05T13:03:05.202Z</time></trkpt><trkpt lat="51.61383" lon="-8.9475983"><ele>80.66666666666666</ele><time>2026-05-05T13:03:06.202Z</time></trkpt><trkpt lat="51.61374" lon="-8.947895"><ele>82.0</ele><time>2026-05-05T13:03:07.202Z</time></trkpt><trkpt lat="51.613655" lon="-8.94817"><ele>82.33333333333333</ele><time>2026-05-05T13:03:08.202Z</time></trkpt><trkpt lat="51.61356" lon="-8.9484217"><ele>82.66666666666667</ele><time>2026-05-05T13:03:09.202Z</time></trkpt><trkpt lat="51.61347" lon="-8.94866"><ele>83.0</ele><time>2026-05-05T13:03:10.201Z</time></trkpt><trkpt lat="51.6133783" lon="-8.9488767"><ele>83.0</ele><time>2026-05-05T13:03:11.202Z</time></trkpt><trkpt lat="51.6132867" lon="-8.9490867"><ele>83.0</ele><time>2026-05-05T13:03:12.201Z</time></trkpt><trkpt lat="51.6132" lon="-8.94929"><ele>83.0</ele><time>2026-05-05T13:03:13.202Z</time></trkpt><trkpt lat="51.6130767" lon="-8.9495133"><ele>83.0</ele><time>2026-05-05T13:03:14.202Z</time></trkpt><trkpt lat="51.612935" lon="-8.9497283"><ele>83.0</ele><time>2026-05-05T13:03:15.202Z</time></trkpt><trkpt lat="51.6127883" lon="-8.9499267"><ele>83.0</ele><time>2026-05-05T13:03:16.202Z</time></trkpt><trkpt lat="51.6126183" lon="-8.9501117"><ele>82.66666666666667</ele><time>2026-05-05T13:03:17.202Z</time></trkpt><trkpt lat="51.61245" lon="-8.950285"><ele>82.33333333333333</ele><time>2026-05-05T13:03:18.202Z</time></trkpt><trkpt lat="51.6122667" lon="-8.9504467"><ele>82.0</ele><time>2026-05-05T13:03:19.201Z</time></trkpt><trkpt lat="51.6120867" lon="-8.9506067"><ele>82.33333333333333</ele><time>2026-05-05T13:03:20.202Z</time></trkpt><trkpt lat="51.6119117" lon="-8.9507317"><ele>82.66666666666667</ele><time>2026-05-05T13:03:21.202Z</time></trkpt><trkpt lat="51.6117283" lon="-8.9508683"><ele>83.0</ele><time>2026-05-05T13:03:22.201Z</time></trkpt><trkpt lat="51.6115383" lon="-8.9510117"><ele>83.0</ele><time>2026-05-05T13:03:23.202Z</time></trkpt><trkpt lat="51.611355" lon="-8.9511767"><ele>83.0</ele><time>2026-05-05T13:03:24.201Z</time></trkpt><trkpt lat="51.6111733" lon="-8.951345"><ele>83.0</ele><time>2026-05-05T13:03:25.202Z</time></trkpt><trkpt lat="51.611" lon="-8.9515217"><ele>82.66666666666667</ele><time>2026-05-05T13:03:26.201Z</time></trkpt><trkpt lat="51.610835" lon="-8.9516917"><ele>82.33333333333333</ele><time>2026-05-05T13:03:27.201Z</time></trkpt><trkpt lat="51.610665" lon="-8.9518583"><ele>82.0</ele><time>2026-05-05T13:03:28.202Z</time></trkpt><trkpt lat="51.6104933" lon="-8.9520367"><ele>81.66666666666666</ele><time>2026-05-05T13:03:29.201Z</time></trkpt><trkpt lat="51.6103133" lon="-8.952185"><ele>81.33333333333333</ele><time>2026-05-05T13:03:30.202Z</time></trkpt><trkpt lat="51.6101333" lon="-8.9523067"><ele>81.0</ele><time>2026-05-05T13:03:31.202Z</time></trkpt><trkpt lat="51.609935" lon="-8.9524117"><ele>81.0</ele><time>2026-05-05T13:03:32.201Z</time></trkpt><trkpt lat="51.6097267" lon="-8.9525"><ele>81.0</ele><time>2026-05-05T13:03:33.202Z</time></trkpt><trkpt lat="51.6095083" lon="-8.9525617"><ele>81.0</ele><time>2026-05-05T13:03:34.202Z</time></trkpt><trkpt lat="51.6092783" lon="-8.9525867"><ele>80.66666666666667</ele><time>2026-05-05T13:03:35.202Z</time></trkpt><trkpt lat="51.6090517" lon="-8.9526067"><ele>80.33333333333334</ele><time>2026-05-05T13:03:36.202Z</time></trkpt><trkpt lat="51.6088383" lon="-8.9526333"><ele>80.0</ele><time>2026-05-05T13:03:37.202Z</time></trkpt><trkpt lat="51.6086433" lon="-8.95269"><ele>80.0</ele><time>2026-05-05T13:03:38.201Z</time></trkpt><trkpt lat="51.6084633" lon="-8.9527617"><ele>80.0</ele><time>2026-05-05T13:03:39.202Z</time></trkpt><trkpt lat="51.6082983" lon="-8.9528417"><ele>80.0</ele><time>2026-05-05T13:03:40.202Z</time></trkpt><trkpt lat="51.6081317" lon="-8.9529367"><ele>80.0</ele><time>2026-05-05T13:03:41.202Z</time></trkpt><trkpt lat="51.60796" lon="-8.953045"><ele>80.0</ele><time>2026-05-05T13:03:42.202Z</time></trkpt><trkpt lat="51.6077917" lon="-8.9531633"><ele>80.0</ele><time>2026-05-05T13:03:43.202Z</time></trkpt><trkpt lat="51.6076317" lon="-8.95328"><ele>81.66666666666667</ele><time>2026-05-05T13:03:44.202Z</time></trkpt><trkpt lat="51.607455" lon="-8.9534017"><ele>83.33333333333333</ele><time>2026-05-05T13:03:45.201Z</time></trkpt><trkpt lat="51.6072833" lon="-8.95355"><ele>85.0</ele><time>2026-05-05T13:03:46.201Z</time></trkpt><trkpt lat="51.6071083" lon="-8.9537033"><ele>81.0</ele><time>2026-05-05T13:03:47.202Z</time></trkpt><trkpt lat="51.60693" lon="-8.9538617"><ele>77.0</ele><time>2026-05-05T13:03:48.202Z</time></trkpt><trkpt lat="51.6067533" lon="-8.9540333"><ele>73.0</ele><time>2026-05-05T13:03:49.201Z</time></trkpt><trkpt lat="51.60658" lon="-8.954185"><ele>72.66666666666666</ele><time>2026-05-05T13:03:50.202Z</time></trkpt><trkpt lat="51.6064117" lon="-8.9543333"><ele>72.33333333333333</ele><time>2026-05-05T13:03:51.202Z</time></trkpt><trkpt lat="51.6062417" lon="-8.9544883"><ele>72.0</ele><time>2026-05-05T13:03:52.201Z</time></trkpt><trkpt lat="51.60607" lon="-8.9546683"><ele>72.0</ele><time>2026-05-05T13:03:53.201Z</time></trkpt><trkpt lat="51.6059" lon="-8.9548583"><ele>72.0</ele><time>2026-05-05T13:03:54.202Z</time></trkpt><trkpt lat="51.6057317" lon="-8.95506"><ele>72.0</ele><time>2026-05-05T13:03:55.202Z</time></trkpt><trkpt lat="51.60557" lon="-8.955265"><ele>72.0</ele><time>2026-05-05T13:03:56.202Z</time></trkpt><trkpt lat="51.605405" lon="-8.9554667"><ele>72.0</ele><time>2026-05-05T13:03:57.202Z</time></trkpt><trkpt lat="51.6052417" lon="-8.95567"><ele>72.0</ele><time>2026-05-05T13:03:58.202Z</time></trkpt><trkpt lat="51.605085" lon="-8.9558767"><ele>71.66666666666667</ele><time>2026-05-05T13:03:59.202Z</time></trkpt><trkpt lat="51.60493" lon="-8.9560933"><ele>71.33333333333334</ele><time>2026-05-05T13:04:00.201Z</time></trkpt><trkpt lat="51.6047683" lon="-8.95631"><ele>71.0</ele><time>2026-05-05T13:04:01.202Z</time></trkpt><trkpt lat="51.6046" lon="-8.9565267"><ele>70.66666666666667</ele><time>2026-05-05T13:04:02.202Z</time></trkpt><trkpt lat="51.60444" lon="-8.9567283"><ele>70.33333333333333</ele><time>2026-05-05T13:04:03.202Z</time></trkpt><trkpt lat="51.604285" lon="-8.9569183"><ele>70.0</ele><time>2026-05-05T13:04:04.202Z</time></trkpt><trkpt lat="51.6041433" lon="-8.9571"><ele>70.0</ele><time>2026-05-05T13:04:05.201Z</time></trkpt><trkpt lat="51.6039983" lon="-8.9572717"><ele>70.0</ele><time>2026-05-05T13:04:06.201Z</time></trkpt><trkpt lat="51.60384" lon="-8.9574367"><ele>70.0</ele><time>2026-05-05T13:04:07.201Z</time></trkpt><trkpt lat="51.6036867" lon="-8.95758"><ele>71.33333333333333</ele><time>2026-05-05T13:04:08.201Z</time></trkpt><trkpt lat="51.6035267" lon="-8.9576867"><ele>72.66666666666667</ele><time>2026-05-05T13:04:09.201Z</time></trkpt><trkpt lat="51.6033583" lon="-8.957785"><ele>74.0</ele><time>2026-05-05T13:04:10.201Z</time></trkpt><trkpt lat="51.6031883" lon="-8.9578633"><ele>74.0</ele><time>2026-05-05T13:04:11.202Z</time></trkpt><trkpt lat="51.603035" lon="-8.957895"><ele>74.0</ele><time>2026-05-05T13:04:12.202Z</time></trkpt><trkpt lat="51.6028833" lon="-8.957915"><ele>74.0</ele><time>2026-05-05T13:04:13.202Z</time></trkpt><trkpt lat="51.6027383" lon="-8.95795"><ele>74.75</ele><time>2026-05-05T13:04:14.202Z</time></trkpt><trkpt lat="51.6026" lon="-8.9579733"><ele>75.5</ele><time>2026-05-05T13:04:15.201Z</time></trkpt><trkpt lat="51.6024667" lon="-8.9580233"><ele>76.25</ele><time>2026-05-05T13:04:16.202Z</time></trkpt><trkpt lat="51.6023217" lon="-8.95806"><ele>77.0</ele><time>2026-05-05T13:04:17.201Z</time></trkpt><trkpt lat="51.6021767" lon="-8.9580967"><ele>77.0</ele><time>2026-05-05T13:04:18.202Z</time></trkpt><trkpt lat="51.6020333" lon="-8.95813"><ele>77.0</ele><time>2026-05-05T13:04:19.202Z</time></trkpt><trkpt lat="51.6018967" lon="-8.958165"><ele>77.0</ele><time>2026-05-05T13:04:20.202Z</time></trkpt><trkpt lat="51.6017667" lon="-8.958215"><ele>77.0</ele><time>2026-05-05T13:04:21.202Z</time></trkpt><trkpt lat="51.6016433" lon="-8.9582683"><ele>77.0</ele><time>2026-05-05T13:04:22.201Z</time></trkpt><trkpt lat="51.60153" lon="-8.9583283"><ele>77.0</ele><time>2026-05-05T13:04:23.202Z</time></trkpt><trkpt lat="51.601425" lon="-8.95839"><ele>77.0</ele><time>2026-05-05T13:04:24.202Z</time></trkpt><trkpt lat="51.6013233" lon="-8.958465"><ele>77.0</ele><time>2026-05-05T13:04:25.201Z</time></trkpt><trkpt lat="51.6012333" lon="-8.9585467"><ele>77.0</ele><time>2026-05-05T13:04:26.201Z</time></trkpt><trkpt lat="51.6011533" lon="-8.958635"><ele>77.2</ele><time>2026-05-05T13:04:27.202Z</time></trkpt><trkpt lat="51.6010767" lon="-8.9587217"><ele>77.4</ele><time>2026-05-05T13:04:28.202Z</time></trkpt><trkpt lat="51.601" lon="-8.958825"><ele>77.6</ele><time>2026-05-05T13:04:29.202Z</time></trkpt><trkpt lat="51.6009083" lon="-8.9589417"><ele>77.8</ele><time>2026-05-05T13:04:30.202Z</time></trkpt><trkpt lat="51.600835" lon="-8.9590767"><ele>78.0</ele><time>2026-05-05T13:04:31.202Z</time></trkpt><trkpt lat="51.6007617" lon="-8.9592017"><ele>77.6</ele><time>2026-05-05T13:04:32.201Z</time></trkpt><trkpt lat="51.6006983" lon="-8.9593267"><ele>77.19999999999999</ele><time>2026-05-05T13:04:33.202Z</time></trkpt><trkpt lat="51.6006417" lon="-8.9594683"><ele>76.8</ele><time>2026-05-05T13:04:34.202Z</time></trkpt><trkpt lat="51.6005817" lon="-8.95962"><ele>76.39999999999999</ele><time>2026-05-05T13:04:35.202Z</time></trkpt><trkpt lat="51.6005183" lon="-8.9597883"><ele>76.0</ele><time>2026-05-05T13:04:36.201Z</time></trkpt><trkpt lat="51.60045" lon="-8.9599817"><ele>76.0</ele><time>2026-05-05T13:04:37.202Z</time></trkpt><trkpt lat="51.600395" lon="-8.9602067"><ele>76.0</ele><time>2026-05-05T13:04:38.201Z</time></trkpt><trkpt lat="51.6003367" lon="-8.9604617"><ele>76.0</ele><time>2026-05-05T13:04:39.201Z</time></trkpt><trkpt lat="51.6002833" lon="-8.9607417"><ele>75.0</ele><time>2026-05-05T13:04:40.202Z</time></trkpt><trkpt lat="51.6002383" lon="-8.9610183"><ele>74.0</ele><time>2026-05-05T13:04:41.202Z</time></trkpt><trkpt lat="51.6001983" lon="-8.9612867"><ele>73.0</ele><time>2026-05-05T13:04:42.202Z</time></trkpt><trkpt lat="51.6001733" lon="-8.9615717"><ele>72.33333333333333</ele><time>2026-05-05T13:04:43.201Z</time></trkpt><trkpt lat="51.6001383" lon="-8.961855"><ele>71.66666666666667</ele><time>2026-05-05T13:04:44.202Z</time></trkpt><trkpt lat="51.6001" lon="-8.9621433"><ele>71.0</ele><time>2026-05-05T13:04:45.201Z</time></trkpt><trkpt lat="51.6000917" lon="-8.96244"><ele>70.0</ele><time>2026-05-05T13:04:46.202Z</time></trkpt><trkpt lat="51.60005" lon="-8.96276"><ele>69.0</ele><time>2026-05-05T13:04:47.202Z</time></trkpt><trkpt lat="51.59999" lon="-8.9630883"><ele>68.0</ele><time>2026-05-05T13:04:48.202Z</time></trkpt><trkpt lat="51.5999367" lon="-8.9634183"><ele>67.33333333333334</ele><time>2026-05-05T13:04:49.202Z</time></trkpt><trkpt lat="51.5998783" lon="-8.963745"><ele>66.66666666666667</ele><time>2026-05-05T13:04:50.202Z</time></trkpt><trkpt lat="51.5998267" lon="-8.9640567"><ele>66.0</ele><time>2026-05-05T13:04:51.202Z</time></trkpt><trkpt lat="51.5997733" lon="-8.9643567"><ele>64.66666666666667</ele><time>2026-05-05T13:04:52.202Z</time></trkpt><trkpt lat="51.59972" lon="-8.964645"><ele>63.333333333333336</ele><time>2026-05-05T13:04:53.201Z</time></trkpt><trkpt lat="51.599665" lon="-8.9649317"><ele>62.0</ele><time>2026-05-05T13:04:54.202Z</time></trkpt><trkpt lat="51.5996083" lon="-8.9652117"><ele>61.5</ele><time>2026-05-05T13:04:55.201Z</time></trkpt><trkpt lat="51.5995467" lon="-8.9654867"><ele>61.0</ele><time>2026-05-05T13:04:56.202Z</time></trkpt><trkpt lat="51.5994267" lon="-8.9660133"><ele>61.0</ele><time>2026-05-05T13:04:58.202Z</time></trkpt><trkpt lat="51.5993683" lon="-8.966285"><ele>61.0</ele><time>2026-05-05T13:04:59.202Z</time></trkpt><trkpt lat="51.59931" lon="-8.966555"><ele>61.0</ele><time>2026-05-05T13:05:00.202Z</time></trkpt><trkpt lat="51.59925" lon="-8.96683"><ele>60.0</ele><time>2026-05-05T13:05:01.202Z</time></trkpt><trkpt lat="51.5991933" lon="-8.9671033"><ele>59.0</ele><time>2026-05-05T13:05:02.202Z</time></trkpt><trkpt lat="51.5991467" lon="-8.9673733"><ele>58.0</ele><time>2026-05-05T13:05:03.201Z</time></trkpt><trkpt lat="51.5990967" lon="-8.96764"><ele>56.666666666666664</ele><time>2026-05-05T13:05:04.201Z</time></trkpt><trkpt lat="51.5990433" lon="-8.9678983"><ele>55.33333333333333</ele><time>2026-05-05T13:05:05.202Z</time></trkpt><trkpt lat="51.5989783" lon="-8.9681533"><ele>54.0</ele><time>2026-05-05T13:05:06.202Z</time></trkpt><trkpt lat="51.59891" lon="-8.9684117"><ele>53.33333333333333</ele><time>2026-05-05T13:05:07.202Z</time></trkpt><trkpt lat="51.5988367" lon="-8.9686717"><ele>52.666666666666664</ele><time>2026-05-05T13:05:08.202Z</time></trkpt><trkpt lat="51.5987533" lon="-8.9689283"><ele>52.0</ele><time>2026-05-05T13:05:09.202Z</time></trkpt><trkpt lat="51.5986633" lon="-8.96917"><ele>51.0</ele><time>2026-05-05T13:05:10.202Z</time></trkpt><trkpt lat="51.5985733" lon="-8.9694033"><ele>50.0</ele><time>2026-05-05T13:05:11.202Z</time></trkpt><trkpt lat="51.5984517" lon="-8.96963"><ele>49.0</ele><time>2026-05-05T13:05:12.202Z</time></trkpt><trkpt lat="51.59831" lon="-8.9698483"><ele>48.666666666666664</ele><time>2026-05-05T13:05:13.202Z</time></trkpt><trkpt lat="51.598165" lon="-8.9700467"><ele>48.33333333333333</ele><time>2026-05-05T13:05:14.201Z</time></trkpt><trkpt lat="51.5980067" lon="-8.9702433"><ele>48.0</ele><time>2026-05-05T13:05:15.201Z</time></trkpt><trkpt lat="51.5978383" lon="-8.9704217"><ele>47.666666666666664</ele><time>2026-05-05T13:05:16.202Z</time></trkpt><trkpt lat="51.5976517" lon="-8.9705683"><ele>47.33333333333333</ele><time>2026-05-05T13:05:17.202Z</time></trkpt><trkpt lat="51.597475" lon="-8.97069"><ele>47.0</ele><time>2026-05-05T13:05:18.201Z</time></trkpt><trkpt lat="51.5973" lon="-8.9708017"><ele>46.0</ele><time>2026-05-05T13:05:19.201Z</time></trkpt><trkpt lat="51.597125" lon="-8.97092"><ele>45.0</ele><time>2026-05-05T13:05:20.202Z</time></trkpt><trkpt lat="51.596935" lon="-8.9710417"><ele>44.0</ele><time>2026-05-05T13:05:21.202Z</time></trkpt><trkpt lat="51.59675" lon="-8.9711667"><ele>44.0</ele><time>2026-05-05T13:05:22.202Z</time></trkpt><trkpt lat="51.5965683" lon="-8.9712967"><ele>44.0</ele><time>2026-05-05T13:05:23.201Z</time></trkpt><trkpt lat="51.5963967" lon="-8.9714233"><ele>44.0</ele><time>2026-05-05T13:05:24.202Z</time></trkpt><trkpt lat="51.5962267" lon="-8.97155"><ele>44.0</ele><time>2026-05-05T13:05:25.202Z</time></trkpt><trkpt lat="51.5960583" lon="-8.97168"><ele>44.0</ele><time>2026-05-05T13:05:26.201Z</time></trkpt><trkpt lat="51.59589" lon="-8.97183"><ele>44.0</ele><time>2026-05-05T13:05:27.201Z</time></trkpt><trkpt lat="51.5957183" lon="-8.9719867"><ele>44.0</ele><time>2026-05-05T13:05:28.202Z</time></trkpt><trkpt lat="51.5955417" lon="-8.972155"><ele>44.0</ele><time>2026-05-05T13:05:29.201Z</time></trkpt><trkpt lat="51.595365" lon="-8.9723367"><ele>44.0</ele><time>2026-05-05T13:05:30.201Z</time></trkpt><trkpt lat="51.5951883" lon="-8.97253"><ele>45.0</ele><time>2026-05-05T13:05:31.202Z</time></trkpt><trkpt lat="51.5950167" lon="-8.9727367"><ele>46.0</ele><time>2026-05-05T13:05:32.202Z</time></trkpt><trkpt lat="51.5948583" lon="-8.9729567"><ele>47.0</ele><time>2026-05-05T13:05:33.201Z</time></trkpt><trkpt lat="51.594725" lon="-8.973195"><ele>48.33333333333333</ele><time>2026-05-05T13:05:34.202Z</time></trkpt><trkpt lat="51.5946117" lon="-8.9734483"><ele>49.666666666666664</ele><time>2026-05-05T13:05:35.202Z</time></trkpt><trkpt lat="51.5945083" lon="-8.9737083"><ele>51.0</ele><time>2026-05-05T13:05:36.202Z</time></trkpt><trkpt lat="51.5944167" lon="-8.9740167"><ele>48.0</ele><time>2026-05-05T13:05:37.201Z</time></trkpt><trkpt lat="51.5943483" lon="-8.9743233"><ele>45.0</ele><time>2026-05-05T13:05:38.201Z</time></trkpt><trkpt lat="51.59428" lon="-8.9746183"><ele>42.0</ele><time>2026-05-05T13:05:39.201Z</time></trkpt><trkpt lat="51.59422" lon="-8.974905"><ele>42.333333333333336</ele><time>2026-05-05T13:05:40.201Z</time></trkpt><trkpt lat="51.5941383" lon="-8.9751833"><ele>42.66666666666667</ele><time>2026-05-05T13:05:41.202Z</time></trkpt><trkpt lat="51.59404" lon="-8.9754533"><ele>43.0</ele><time>2026-05-05T13:05:42.202Z</time></trkpt><trkpt lat="51.59393" lon="-8.9757117"><ele>42.0</ele><time>2026-05-05T13:05:43.202Z</time></trkpt><trkpt lat="51.59384" lon="-8.9759533"><ele>41.0</ele><time>2026-05-05T13:05:44.201Z</time></trkpt><trkpt lat="51.5937267" lon="-8.9761967"><ele>40.0</ele><time>2026-05-05T13:05:45.202Z</time></trkpt><trkpt lat="51.593585" lon="-8.9764067"><ele>40.0</ele><time>2026-05-05T13:05:46.202Z</time></trkpt><trkpt lat="51.5934083" lon="-8.9766067"><ele>40.0</ele><time>2026-05-05T13:05:47.201Z</time></trkpt><trkpt lat="51.593225" lon="-8.9767817"><ele>40.0</ele><time>2026-05-05T13:05:48.201Z</time></trkpt><trkpt lat="51.5930383" lon="-8.976935"><ele>40.66666666666667</ele><time>2026-05-05T13:05:49.201Z</time></trkpt><trkpt lat="51.5928333" lon="-8.9770633"><ele>41.333333333333336</ele><time>2026-05-05T13:05:50.201Z</time></trkpt><trkpt lat="51.5926267" lon="-8.9771667"><ele>42.0</ele><time>2026-05-05T13:05:51.202Z</time></trkpt><trkpt lat="51.5924717" lon="-8.9772417"><ele>42.0</ele><time>2026-05-05T13:05:52.201Z</time></trkpt><trkpt lat="51.59232" lon="-8.9773317"><ele>42.0</ele><time>2026-05-05T13:05:53.202Z</time></trkpt><trkpt lat="51.5921617" lon="-8.97741"><ele>42.0</ele><time>2026-05-05T13:05:54.202Z</time></trkpt><trkpt lat="51.5920017" lon="-8.977475"><ele>42.333333333333336</ele><time>2026-05-05T13:05:55.202Z</time></trkpt><trkpt lat="51.5918283" lon="-8.9775433"><ele>42.66666666666667</ele><time>2026-05-05T13:05:56.202Z</time></trkpt><trkpt lat="51.5916517" lon="-8.9776317"><ele>43.0</ele><time>2026-05-05T13:05:57.202Z</time></trkpt><trkpt lat="51.591475" lon="-8.97774"><ele>43.0</ele><time>2026-05-05T13:05:58.202Z</time></trkpt><trkpt lat="51.59129" lon="-8.9778433"><ele>43.0</ele><time>2026-05-05T13:05:59.201Z</time></trkpt><trkpt lat="51.59111" lon="-8.977965"><ele>43.0</ele><time>2026-05-05T13:06:00.202Z</time></trkpt><trkpt lat="51.5909333" lon="-8.978095"><ele>43.0</ele><time>2026-05-05T13:06:01.202Z</time></trkpt><trkpt lat="51.5907567" lon="-8.9782367"><ele>43.0</ele><time>2026-05-05T13:06:02.202Z</time></trkpt><trkpt lat="51.59057" lon="-8.9783883"><ele>43.0</ele><time>2026-05-05T13:06:03.201Z</time></trkpt><trkpt lat="51.5903883" lon="-8.9785483"><ele>41.0</ele><time>2026-05-05T13:06:04.201Z</time></trkpt><trkpt lat="51.5902033" lon="-8.9787017"><ele>39.0</ele><time>2026-05-05T13:06:05.202Z</time></trkpt><trkpt lat="51.5900283" lon="-8.97885"><ele>37.0</ele><time>2026-05-05T13:06:06.201Z</time></trkpt><trkpt lat="51.5898583" lon="-8.9789933"><ele>37.0</ele><time>2026-05-05T13:06:07.202Z</time></trkpt><trkpt lat="51.5896983" lon="-8.97913"><ele>37.0</ele><time>2026-05-05T13:06:08.201Z</time></trkpt><trkpt lat="51.58955" lon="-8.97926"><ele>37.0</ele><time>2026-05-05T13:06:09.202Z</time></trkpt><trkpt lat="51.5894033" lon="-8.9793917"><ele>36.333333333333336</ele><time>2026-05-05T13:06:10.201Z</time></trkpt><trkpt lat="51.58925" lon="-8.97953"><ele>35.666666666666664</ele><time>2026-05-05T13:06:11.202Z</time></trkpt><trkpt lat="51.58909" lon="-8.979675"><ele>35.0</ele><time>2026-05-05T13:06:12.201Z</time></trkpt><trkpt lat="51.5889367" lon="-8.9798433"><ele>35.0</ele><time>2026-05-05T13:06:13.202Z</time></trkpt><trkpt lat="51.588765" lon="-8.9800083"><ele>35.0</ele><time>2026-05-05T13:06:14.201Z</time></trkpt><trkpt lat="51.5885933" lon="-8.9801833"><ele>35.0</ele><time>2026-05-05T13:06:15.201Z</time></trkpt><trkpt lat="51.5884233" lon="-8.980385"><ele>35.666666666666664</ele><time>2026-05-05T13:06:16.201Z</time></trkpt><trkpt lat="51.5882567" lon="-8.9806033"><ele>36.333333333333336</ele><time>2026-05-05T13:06:17.202Z</time></trkpt><trkpt lat="51.5880983" lon="-8.980835"><ele>37.0</ele><time>2026-05-05T13:06:18.202Z</time></trkpt><trkpt lat="51.587955" lon="-8.9810867"><ele>35.333333333333336</ele><time>2026-05-05T13:06:19.201Z</time></trkpt><trkpt lat="51.587825" lon="-8.981365"><ele>33.666666666666664</ele><time>2026-05-05T13:06:20.202Z</time></trkpt><trkpt lat="51.5877117" lon="-8.9816283"><ele>32.0</ele><time>2026-05-05T13:06:21.202Z</time></trkpt><trkpt lat="51.5875917" lon="-8.9819"><ele>32.0</ele><time>2026-05-05T13:06:22.201Z</time></trkpt><trkpt lat="51.587475" lon="-8.9821667"><ele>32.0</ele><time>2026-05-05T13:06:23.202Z</time></trkpt><trkpt lat="51.5873633" lon="-8.9824533"><ele>32.0</ele><time>2026-05-05T13:06:24.202Z</time></trkpt><trkpt lat="51.587255" lon="-8.9827483"><ele>32.0</ele><time>2026-05-05T13:06:25.202Z</time></trkpt><trkpt lat="51.587145" lon="-8.9830417"><ele>32.0</ele><time>2026-05-05T13:06:26.201Z</time></trkpt><trkpt lat="51.58705" lon="-8.983325"><ele>32.0</ele><time>2026-05-05T13:06:27.201Z</time></trkpt><trkpt lat="51.586955" lon="-8.983595"><ele>31.666666666666664</ele><time>2026-05-05T13:06:28.202Z</time></trkpt><trkpt lat="51.5868733" lon="-8.98385"><ele>31.333333333333336</ele><time>2026-05-05T13:06:29.201Z</time></trkpt><trkpt lat="51.586795" lon="-8.9840917"><ele>31.0</ele><time>2026-05-05T13:06:30.202Z</time></trkpt><trkpt lat="51.5867167" lon="-8.9843233"><ele>31.0</ele><time>2026-05-05T13:06:31.201Z</time></trkpt><trkpt lat="51.58664" lon="-8.9845417"><ele>31.0</ele><time>2026-05-05T13:06:32.202Z</time></trkpt><trkpt lat="51.5865567" lon="-8.984755"><ele>31.0</ele><time>2026-05-05T13:06:33.201Z</time></trkpt><trkpt lat="51.58648" lon="-8.98496"><ele>31.25</ele><time>2026-05-05T13:06:34.201Z</time></trkpt><trkpt lat="51.5864517" lon="-8.9851417"><ele>31.5</ele><time>2026-05-05T13:06:35.202Z</time></trkpt><trkpt lat="51.5863917" lon="-8.9853267"><ele>31.75</ele><time>2026-05-05T13:06:36.202Z</time></trkpt><trkpt lat="51.5863283" lon="-8.9855017"><ele>32.0</ele><time>2026-05-05T13:06:37.202Z</time></trkpt><trkpt lat="51.5862783" lon="-8.98566"><ele>32.0</ele><time>2026-05-05T13:06:38.201Z</time></trkpt><trkpt lat="51.5862417" lon="-8.9857967"><ele>32.0</ele><time>2026-05-05T13:06:39.202Z</time></trkpt><trkpt lat="51.5862067" lon="-8.9859183"><ele>32.0</ele><time>2026-05-05T13:06:40.201Z</time></trkpt><trkpt lat="51.5861783" lon="-8.9860167"><ele>32.0</ele><time>2026-05-05T13:06:41.201Z</time></trkpt><trkpt lat="51.5861233" lon="-8.986185"><ele>32.0</ele><time>2026-05-05T13:06:43.202Z</time></trkpt><trkpt lat="51.5860733" lon="-8.9863517"><ele>31.166666666666664</ele><time>2026-05-05T13:06:45.202Z</time></trkpt><trkpt lat="51.58603" lon="-8.9865183"><ele>30.333333333333332</ele><time>2026-05-05T13:06:47.202Z</time></trkpt><trkpt lat="51.5859983" lon="-8.9866383"><ele>29.5</ele><time>2026-05-05T13:06:49.202Z</time></trkpt><trkpt lat="51.5859667" lon="-8.9867483"><ele>28.666666666666664</ele><time>2026-05-05T13:06:55.202Z</time></trkpt><trkpt lat="51.5859433" lon="-8.9868617"><ele>27.833333333333332</ele><time>2026-05-05T13:06:58.201Z</time></trkpt><trkpt lat="51.5859117" lon="-8.9869533"><ele>27.0</ele><time>2026-05-05T13:07:00.201Z</time></trkpt><trkpt lat="51.5858783" lon="-8.98711"><ele>27.0</ele><time>2026-05-05T13:07:02.201Z</time></trkpt><trkpt lat="51.58583" lon="-8.9872833"><ele>27.000000000000004</ele><time>2026-05-05T13:07:04.202Z</time></trkpt><trkpt lat="51.585795" lon="-8.98739"><ele>27.000000000000004</ele><time>2026-05-05T13:07:05.202Z</time></trkpt><trkpt lat="51.5857517" lon="-8.987505"><ele>27.0</ele><time>2026-05-05T13:07:06.202Z</time></trkpt><trkpt lat="51.585705" lon="-8.9876333"><ele>27.0</ele><time>2026-05-05T13:07:07.201Z</time></trkpt><trkpt lat="51.5856467" lon="-8.9877817"><ele>28.25</ele><time>2026-05-05T13:07:08.202Z</time></trkpt><trkpt lat="51.5855817" lon="-8.9879383"><ele>29.5</ele><time>2026-05-05T13:07:09.201Z</time></trkpt><trkpt lat="51.5855183" lon="-8.9881017"><ele>30.75</ele><time>2026-05-05T13:07:10.202Z</time></trkpt><trkpt lat="51.5854483" lon="-8.9882667"><ele>32.0</ele><time>2026-05-05T13:07:11.202Z</time></trkpt><trkpt lat="51.585375" lon="-8.9884333"><ele>30.5</ele><time>2026-05-05T13:07:12.202Z</time></trkpt><trkpt lat="51.5852967" lon="-8.9886083"><ele>29.0</ele><time>2026-05-05T13:07:13.202Z</time></trkpt><trkpt lat="51.5852117" lon="-8.9887883"><ele>27.5</ele><time>2026-05-05T13:07:14.202Z</time></trkpt><trkpt lat="51.5851433" lon="-8.9889517"><ele>26.0</ele><time>2026-05-05T13:07:15.202Z</time></trkpt><trkpt lat="51.5850733" lon="-8.9891083"><ele>26.6</ele><time>2026-05-05T13:07:16.201Z</time></trkpt><trkpt lat="51.5850033" lon="-8.9892567"><ele>27.200000000000003</ele><time>2026-05-05T13:07:17.202Z</time></trkpt><trkpt lat="51.5849317" lon="-8.989405"><ele>27.799999999999997</ele><time>2026-05-05T13:07:18.202Z</time></trkpt><trkpt lat="51.5848617" lon="-8.98955"><ele>28.4</ele><time>2026-05-05T13:07:19.202Z</time></trkpt><trkpt lat="51.584805" lon="-8.9896883"><ele>29.0</ele><time>2026-05-05T13:07:20.201Z</time></trkpt><trkpt lat="51.58474" lon="-8.9898133"><ele>29.0</ele><time>2026-05-05T13:07:21.202Z</time></trkpt><trkpt lat="51.5846783" lon="-8.989935"><ele>29.0</ele><time>2026-05-05T13:07:22.202Z</time></trkpt><trkpt lat="51.584625" lon="-8.9900517"><ele>29.0</ele><time>2026-05-05T13:07:23.201Z</time></trkpt><trkpt lat="51.5845733" lon="-8.9901633"><ele>29.0</ele><time>2026-05-05T13:07:24.201Z</time></trkpt><trkpt lat="51.5845117" lon="-8.9902817"><ele>29.0</ele><time>2026-05-05T13:07:25.202Z</time></trkpt><trkpt lat="51.584435" lon="-8.9904033"><ele>29.25</ele><time>2026-05-05T13:07:26.202Z</time></trkpt><trkpt lat="51.5843483" lon="-8.9905267"><ele>29.5</ele><time>2026-05-05T13:07:27.201Z</time></trkpt><trkpt lat="51.5842683" lon="-8.9906517"><ele>29.75</ele><time>2026-05-05T13:07:28.201Z</time></trkpt><trkpt lat="51.5841917" lon="-8.990805"><ele>30.0</ele><time>2026-05-05T13:07:29.201Z</time></trkpt><trkpt lat="51.5841117" lon="-8.990995"><ele>30.0</ele><time>2026-05-05T13:07:30.202Z</time></trkpt><trkpt lat="51.5840083" lon="-8.9912283"><ele>30.0</ele><time>2026-05-05T13:07:31.201Z</time></trkpt><trkpt lat="51.58388" lon="-8.99149"><ele>30.0</ele><time>2026-05-05T13:07:32.202Z</time></trkpt><trkpt lat="51.58375" lon="-8.9917383"><ele>28.666666666666664</ele><time>2026-05-05T13:07:33.201Z</time></trkpt><trkpt lat="51.583625" lon="-8.991965"><ele>27.333333333333332</ele><time>2026-05-05T13:07:34.202Z</time></trkpt><trkpt lat="51.5834967" lon="-8.9921967"><ele>26.0</ele><time>2026-05-05T13:07:35.202Z</time></trkpt><trkpt lat="51.5833733" lon="-8.9924233"><ele>26.666666666666664</ele><time>2026-05-05T13:07:36.202Z</time></trkpt><trkpt lat="51.5832633" lon="-8.9926383"><ele>27.333333333333336</ele><time>2026-05-05T13:07:37.201Z</time></trkpt><trkpt lat="51.5831717" lon="-8.99282"><ele>28.0</ele><time>2026-05-05T13:07:38.202Z</time></trkpt><trkpt lat="51.5830667" lon="-8.9929683"><ele>28.0</ele><time>2026-05-05T13:07:39.202Z</time></trkpt><trkpt lat="51.58299" lon="-8.9930867"><ele>27.999999999999996</ele><time>2026-05-05T13:07:40.202Z</time></trkpt><trkpt lat="51.5828717" lon="-8.9932"><ele>27.999999999999996</ele><time>2026-05-05T13:07:41.201Z</time></trkpt><trkpt lat="51.58278" lon="-8.9932467"><ele>28.0</ele><time>2026-05-05T13:07:42.201Z</time></trkpt><trkpt lat="51.582675" lon="-8.99326"><ele>28.0</ele><time>2026-05-05T13:07:43.201Z</time></trkpt><trkpt lat="51.5825633" lon="-8.99327"><ele>27.75</ele><time>2026-05-05T13:07:44.202Z</time></trkpt><trkpt lat="51.5824317" lon="-8.993285"><ele>27.5</ele><time>2026-05-05T13:07:45.202Z</time></trkpt><trkpt lat="51.582295" lon="-8.993315"><ele>27.25</ele><time>2026-05-05T13:07:46.201Z</time></trkpt><trkpt lat="51.5821433" lon="-8.9933567"><ele>27.0</ele><time>2026-05-05T13:07:47.201Z</time></trkpt><trkpt lat="51.5819583" lon="-8.993445"><ele>26.333333333333336</ele><time>2026-05-05T13:07:48.201Z</time></trkpt><trkpt lat="51.5817933" lon="-8.993505"><ele>25.666666666666668</ele><time>2026-05-05T13:07:49.202Z</time></trkpt><trkpt lat="51.5816583" lon="-8.99361"><ele>25.0</ele><time>2026-05-05T13:07:50.202Z</time></trkpt><trkpt lat="51.5815283" lon="-8.99374"><ele>25.0</ele><time>2026-05-05T13:07:51.201Z</time></trkpt><trkpt lat="51.5813867" lon="-8.99389"><ele>25.0</ele><time>2026-05-05T13:07:52.202Z</time></trkpt><trkpt lat="51.581235" lon="-8.9940667"><ele>25.0</ele><time>2026-05-05T13:07:53.201Z</time></trkpt><trkpt lat="51.5810667" lon="-8.9942733"><ele>24.333333333333336</ele><time>2026-05-05T13:07:54.202Z</time></trkpt><trkpt lat="51.5808967" lon="-8.9944883"><ele>23.666666666666668</ele><time>2026-05-05T13:07:55.202Z</time></trkpt><trkpt lat="51.5807217" lon="-8.9947117"><ele>23.0</ele><time>2026-05-05T13:07:56.201Z</time></trkpt><trkpt lat="51.5805417" lon="-8.9949517"><ele>21.0</ele><time>2026-05-05T13:07:57.202Z</time></trkpt><trkpt lat="51.58036" lon="-8.9952017"><ele>19.0</ele><time>2026-05-05T13:07:58.201Z</time></trkpt><trkpt lat="51.5801817" lon="-8.9954567"><ele>19.0</ele><time>2026-05-05T13:07:59.201Z</time></trkpt><trkpt lat="51.5800067" lon="-8.9957167"><ele>19.0</ele><time>2026-05-05T13:08:00.202Z</time></trkpt><trkpt lat="51.579835" lon="-8.9959667"><ele>18.333333333333332</ele><time>2026-05-05T13:08:01.202Z</time></trkpt><trkpt lat="51.5796833" lon="-8.9961967"><ele>17.666666666666668</ele><time>2026-05-05T13:08:02.201Z</time></trkpt><trkpt lat="51.5795333" lon="-8.9963967"><ele>17.0</ele><time>2026-05-05T13:08:03.202Z</time></trkpt><trkpt lat="51.5793933" lon="-8.9965683"><ele>18.333333333333336</ele><time>2026-05-05T13:08:04.202Z</time></trkpt><trkpt lat="51.5792283" lon="-8.9967367"><ele>19.666666666666668</ele><time>2026-05-05T13:08:05.201Z</time></trkpt><trkpt lat="51.579055" lon="-8.9968633"><ele>21.0</ele><time>2026-05-05T13:08:06.202Z</time></trkpt><trkpt lat="51.57889" lon="-8.996985"><ele>21.0</ele><time>2026-05-05T13:08:07.202Z</time></trkpt><trkpt lat="51.578735" lon="-8.9971083"><ele>21.0</ele><time>2026-05-05T13:08:08.202Z</time></trkpt><trkpt lat="51.578585" lon="-8.997265"><ele>21.0</ele><time>2026-05-05T13:08:09.202Z</time></trkpt><trkpt lat="51.5784367" lon="-8.9974583"><ele>19.0</ele><time>2026-05-05T13:08:10.202Z</time></trkpt><trkpt lat="51.5783217" lon="-8.9977367"><ele>17.0</ele><time>2026-05-05T13:08:11.201Z</time></trkpt><trkpt lat="51.578195" lon="-8.998015"><ele>15.0</ele><time>2026-05-05T13:08:12.202Z</time></trkpt><trkpt lat="51.578075" lon="-8.99833"><ele>16.0</ele><time>2026-05-05T13:08:13.202Z</time></trkpt><trkpt lat="51.5779617" lon="-8.998665"><ele>17.0</ele><time>2026-05-05T13:08:14.202Z</time></trkpt><trkpt lat="51.57785" lon="-8.999005"><ele>13.5</ele><time>2026-05-05T13:08:15.201Z</time></trkpt><trkpt lat="51.5777483" lon="-8.9993367"><ele>10.0</ele><time>2026-05-05T13:08:16.202Z</time></trkpt><trkpt lat="51.5776417" lon="-8.9996583"><ele>10.0</ele><time>2026-05-05T13:08:17.201Z</time></trkpt><trkpt lat="51.577535" lon="-8.9999517"><ele>10.0</ele><time>2026-05-05T13:08:18.202Z</time></trkpt><trkpt lat="51.5774333" lon="-9.000235"><ele>10.0</ele><time>2026-05-05T13:08:19.202Z</time></trkpt><trkpt lat="51.57734" lon="-9.0004967"><ele>10.0</ele><time>2026-05-05T13:08:20.201Z</time></trkpt><trkpt lat="51.57724" lon="-9.0007383"><ele>10.0</ele><time>2026-05-05T13:08:21.202Z</time></trkpt><trkpt lat="51.5771283" lon="-9.0009467"><ele>10.0</ele><time>2026-05-05T13:08:22.202Z</time></trkpt><trkpt lat="51.5770233" lon="-9.0011017"><ele>9.666666666666668</ele><time>2026-05-05T13:08:23.202Z</time></trkpt><trkpt lat="51.5768783" lon="-9.0012517"><ele>9.333333333333334</ele><time>2026-05-05T13:08:24.201Z</time></trkpt><trkpt lat="51.5767417" lon="-9.001365"><ele>9.0</ele><time>2026-05-05T13:08:25.202Z</time></trkpt><trkpt lat="51.5765567" lon="-9.0014667"><ele>9.0</ele><time>2026-05-05T13:08:26.202Z</time></trkpt><trkpt lat="51.5763567" lon="-9.0015467"><ele>9.0</ele><time>2026-05-05T13:08:27.202Z</time></trkpt><trkpt lat="51.5761417" lon="-9.0015933"><ele>9.0</ele><time>2026-05-05T13:08:28.201Z</time></trkpt><trkpt lat="51.575915" lon="-9.00164"><ele>9.5</ele><time>2026-05-05T13:08:29.202Z</time></trkpt><trkpt lat="51.575685" lon="-9.00166"><ele>10.0</ele><time>2026-05-05T13:08:30.201Z</time></trkpt><trkpt lat="51.57546" lon="-9.001675"><ele>12.333333333333334</ele><time>2026-05-05T13:08:31.201Z</time></trkpt><trkpt lat="51.575245" lon="-9.001685"><ele>14.666666666666668</ele><time>2026-05-05T13:08:32.202Z</time></trkpt><trkpt lat="51.575035" lon="-9.0017033"><ele>17.0</ele><time>2026-05-05T13:08:33.201Z</time></trkpt><trkpt lat="51.5748433" lon="-9.00171"><ele>17.0</ele><time>2026-05-05T13:08:34.201Z</time></trkpt><trkpt lat="51.5746483" lon="-9.00174"><ele>17.0</ele><time>2026-05-05T13:08:35.202Z</time></trkpt><trkpt lat="51.5744417" lon="-9.0018017"><ele>17.0</ele><time>2026-05-05T13:08:36.201Z</time></trkpt><trkpt lat="51.5742317" lon="-9.0018967"><ele>16.333333333333336</ele><time>2026-05-05T13:08:37.202Z</time></trkpt><trkpt lat="51.5740367" lon="-9.0020317"><ele>15.666666666666668</ele><time>2026-05-05T13:08:38.201Z</time></trkpt><trkpt lat="51.5738267" lon="-9.0021783"><ele>15.0</ele><time>2026-05-05T13:08:39.201Z</time></trkpt><trkpt lat="51.5736267" lon="-9.0023483"><ele>15.0</ele><time>2026-05-05T13:08:40.202Z</time></trkpt><trkpt lat="51.5734367" lon="-9.0025433"><ele>15.0</ele><time>2026-05-05T13:08:41.201Z</time></trkpt><trkpt lat="51.5732667" lon="-9.0027233"><ele>15.0</ele><time>2026-05-05T13:08:42.202Z</time></trkpt><trkpt lat="51.5731233" lon="-9.0029217"><ele>15.0</ele><time>2026-05-05T13:08:43.202Z</time></trkpt><trkpt lat="51.572985" lon="-9.003125"><ele>15.0</ele><time>2026-05-05T13:08:44.201Z</time></trkpt><trkpt lat="51.5728567" lon="-9.00334"><ele>15.0</ele><time>2026-05-05T13:08:45.202Z</time></trkpt><trkpt lat="51.5727383" lon="-9.0035783"><ele>14.666666666666668</ele><time>2026-05-05T13:08:46.202Z</time></trkpt><trkpt lat="51.5726183" lon="-9.0038383"><ele>14.333333333333334</ele><time>2026-05-05T13:08:47.202Z</time></trkpt><trkpt lat="51.5725083" lon="-9.0041317"><ele>14.0</ele><time>2026-05-05T13:08:48.202Z</time></trkpt><trkpt lat="51.5724083" lon="-9.004435"><ele>16.333333333333336</ele><time>2026-05-05T13:08:49.202Z</time></trkpt><trkpt lat="51.5723117" lon="-9.0047583"><ele>18.666666666666668</ele><time>2026-05-05T13:08:50.202Z</time></trkpt><trkpt lat="51.5722433" lon="-9.0050733"><ele>21.0</ele><time>2026-05-05T13:08:51.201Z</time></trkpt><trkpt lat="51.572185" lon="-9.0054167"><ele>23.0</ele><time>2026-05-05T13:08:52.202Z</time></trkpt><trkpt lat="51.5721433" lon="-9.0057533"><ele>25.0</ele><time>2026-05-05T13:08:53.202Z</time></trkpt><trkpt lat="51.572105" lon="-9.0061033"><ele>27.0</ele><time>2026-05-05T13:08:54.202Z</time></trkpt><trkpt lat="51.5720617" lon="-9.006475"><ele>28.666666666666664</ele><time>2026-05-05T13:08:55.202Z</time></trkpt><trkpt lat="51.5720333" lon="-9.00683"><ele>30.333333333333332</ele><time>2026-05-05T13:08:56.202Z</time></trkpt><trkpt lat="51.57199" lon="-9.0071683"><ele>32.0</ele><time>2026-05-05T13:08:57.202Z</time></trkpt><trkpt lat="51.5719433" lon="-9.00751"><ele>32.0</ele><time>2026-05-05T13:08:58.201Z</time></trkpt><trkpt lat="51.571895" lon="-9.0078533"><ele>32.0</ele><time>2026-05-05T13:08:59.202Z</time></trkpt><trkpt lat="51.5718483" lon="-9.0081883"><ele>32.0</ele><time>2026-05-05T13:09:00.202Z</time></trkpt><trkpt lat="51.5718017" lon="-9.008515"><ele>32.33333333333333</ele><time>2026-05-05T13:09:01.202Z</time></trkpt><trkpt lat="51.5717583" lon="-9.008835"><ele>32.666666666666664</ele><time>2026-05-05T13:09:02.201Z</time></trkpt><trkpt lat="51.5717217" lon="-9.0091433"><ele>33.0</ele><time>2026-05-05T13:09:03.201Z</time></trkpt><trkpt lat="51.5716883" lon="-9.0094467"><ele>33.333333333333336</ele><time>2026-05-05T13:09:04.201Z</time></trkpt><trkpt lat="51.57165" lon="-9.0097517"><ele>33.66666666666667</ele><time>2026-05-05T13:09:05.202Z</time></trkpt><trkpt lat="51.5716083" lon="-9.0100633"><ele>34.0</ele><time>2026-05-05T13:09:06.202Z</time></trkpt><trkpt lat="51.57156" lon="-9.0103783"><ele>34.66666666666667</ele><time>2026-05-05T13:09:07.202Z</time></trkpt><trkpt lat="51.5715083" lon="-9.0107017"><ele>35.333333333333336</ele><time>2026-05-05T13:09:08.202Z</time></trkpt><trkpt lat="51.5714633" lon="-9.0110317"><ele>36.0</ele><time>2026-05-05T13:09:09.202Z</time></trkpt><trkpt lat="51.57142" lon="-9.0113467"><ele>36.333333333333336</ele><time>2026-05-05T13:09:10.201Z</time></trkpt><trkpt lat="51.5713783" lon="-9.0116567"><ele>36.66666666666667</ele><time>2026-05-05T13:09:11.202Z</time></trkpt><trkpt lat="51.5713367" lon="-9.0119583"><ele>37.0</ele><time>2026-05-05T13:09:12.201Z</time></trkpt><trkpt lat="51.5713" lon="-9.0122633"><ele>36.0</ele><time>2026-05-05T13:09:13.202Z</time></trkpt><trkpt lat="51.5712917" lon="-9.0125817"><ele>35.0</ele><time>2026-05-05T13:09:14.201Z</time></trkpt><trkpt lat="51.5712983" lon="-9.0128967"><ele>34.0</ele><time>2026-05-05T13:09:15.202Z</time></trkpt><trkpt lat="51.571315" lon="-9.013205"><ele>33.333333333333336</ele><time>2026-05-05T13:09:16.201Z</time></trkpt><trkpt lat="51.571325" lon="-9.0135117"><ele>32.666666666666664</ele><time>2026-05-05T13:09:17.201Z</time></trkpt><trkpt lat="51.571385" lon="-9.0137683"><ele>32.0</ele><time>2026-05-05T13:09:18.202Z</time></trkpt><trkpt lat="51.5714283" lon="-9.014035"><ele>31.666666666666664</ele><time>2026-05-05T13:09:19.201Z</time></trkpt><trkpt lat="51.5715017" lon="-9.0142983"><ele>31.333333333333336</ele><time>2026-05-05T13:09:20.202Z</time></trkpt><trkpt lat="51.5715517" lon="-9.0145567"><ele>31.0</ele><time>2026-05-05T13:09:21.202Z</time></trkpt><trkpt lat="51.5716267" lon="-9.01481"><ele>30.333333333333336</ele><time>2026-05-05T13:09:22.202Z</time></trkpt><trkpt lat="51.5717067" lon="-9.015055"><ele>29.666666666666664</ele><time>2026-05-05T13:09:23.201Z</time></trkpt><trkpt lat="51.5718167" lon="-9.015325"><ele>29.0</ele><time>2026-05-05T13:09:24.201Z</time></trkpt><trkpt lat="51.5719317" lon="-9.015535"><ele>28.666666666666664</ele><time>2026-05-05T13:09:25.202Z</time></trkpt><trkpt lat="51.572085" lon="-9.015715"><ele>28.333333333333336</ele><time>2026-05-05T13:09:26.202Z</time></trkpt><trkpt lat="51.5722" lon="-9.0158883"><ele>28.0</ele><time>2026-05-05T13:09:27.201Z</time></trkpt><trkpt lat="51.572325" lon="-9.0160567"><ele>28.0</ele><time>2026-05-05T13:09:28.202Z</time></trkpt><trkpt lat="51.5724583" lon="-9.0162267"><ele>28.0</ele><time>2026-05-05T13:09:29.201Z</time></trkpt><trkpt lat="51.572615" lon="-9.0163867"><ele>28.0</ele><time>2026-05-05T13:09:30.202Z</time></trkpt><trkpt lat="51.572815" lon="-9.0165283"><ele>26.666666666666668</ele><time>2026-05-05T13:09:31.201Z</time></trkpt><trkpt lat="51.5730117" lon="-9.016695"><ele>25.333333333333336</ele><time>2026-05-05T13:09:32.202Z</time></trkpt><trkpt lat="51.573205" lon="-9.0168233"><ele>24.0</ele><time>2026-05-05T13:09:33.201Z</time></trkpt><trkpt lat="51.5734" lon="-9.01695"><ele>24.0</ele><time>2026-05-05T13:09:34.202Z</time></trkpt><trkpt lat="51.573595" lon="-9.0170817"><ele>24.0</ele><time>2026-05-05T13:09:35.202Z</time></trkpt><trkpt lat="51.5737933" lon="-9.0172283"><ele>24.0</ele><time>2026-05-05T13:09:36.202Z</time></trkpt><trkpt lat="51.573995" lon="-9.017405"><ele>22.5</ele><time>2026-05-05T13:09:37.202Z</time></trkpt><trkpt lat="51.57419" lon="-9.0176"><ele>21.0</ele><time>2026-05-05T13:09:38.202Z</time></trkpt><trkpt lat="51.574375" lon="-9.0178"><ele>20.0</ele><time>2026-05-05T13:09:39.202Z</time></trkpt><trkpt lat="51.574545" lon="-9.01802"><ele>19.0</ele><time>2026-05-05T13:09:40.202Z</time></trkpt><trkpt lat="51.5746933" lon="-9.0182883"><ele>18.0</ele><time>2026-05-05T13:09:41.202Z</time></trkpt><trkpt lat="51.57484" lon="-9.0185383"><ele>16.666666666666668</ele><time>2026-05-05T13:09:42.202Z</time></trkpt><trkpt lat="51.5749683" lon="-9.0187867"><ele>15.333333333333334</ele><time>2026-05-05T13:09:43.202Z</time></trkpt><trkpt lat="51.575085" lon="-9.0190533"><ele>14.0</ele><time>2026-05-05T13:09:44.202Z</time></trkpt><trkpt lat="51.57519" lon="-9.0193383"><ele>12.666666666666668</ele><time>2026-05-05T13:09:45.201Z</time></trkpt><trkpt lat="51.5752733" lon="-9.0196283"><ele>11.333333333333334</ele><time>2026-05-05T13:09:46.202Z</time></trkpt><trkpt lat="51.57534" lon="-9.019905"><ele>10.0</ele><time>2026-05-05T13:09:47.202Z</time></trkpt><trkpt lat="51.5754083" lon="-9.020185"><ele>8.666666666666668</ele><time>2026-05-05T13:09:48.202Z</time></trkpt><trkpt lat="51.5754683" lon="-9.020445"><ele>7.333333333333334</ele><time>2026-05-05T13:09:49.202Z</time></trkpt><trkpt lat="51.5755333" lon="-9.0207033"><ele>6.0</ele><time>2026-05-05T13:09:50.202Z</time></trkpt><trkpt lat="51.5755783" lon="-9.0209783"><ele>4.0</ele><time>2026-05-05T13:09:51.202Z</time></trkpt><trkpt lat="51.57562" lon="-9.02127"><ele>2.0</ele><time>2026-05-05T13:09:52.202Z</time></trkpt><trkpt lat="51.5756283" lon="-9.0215833"><ele>0.0</ele><time>2026-05-05T13:09:53.201Z</time></trkpt><trkpt lat="51.5756267" lon="-9.0219133"><ele>0.0</ele><time>2026-05-05T13:09:54.202Z</time></trkpt><trkpt lat="51.575635" lon="-9.0222417"><ele>0.0</ele><time>2026-05-05T13:09:55.202Z</time></trkpt><trkpt lat="51.575635" lon="-9.0225733"><ele>0.0</ele><time>2026-05-05T13:09:56.202Z</time></trkpt><trkpt lat="51.5756367" lon="-9.02291"><ele>0.0</ele><time>2026-05-05T13:09:57.202Z</time></trkpt><trkpt lat="51.575635" lon="-9.0232483"><ele>0.0</ele><time>2026-05-05T13:09:58.201Z</time></trkpt><trkpt lat="51.5756333" lon="-9.0235833"><ele>0.0</ele><time>2026-05-05T13:09:59.202Z</time></trkpt><trkpt lat="51.5756283" lon="-9.0239183"><ele>0.0</ele><time>2026-05-05T13:10:00.202Z</time></trkpt><trkpt lat="51.5756233" lon="-9.0242483"><ele>0.0</ele><time>2026-05-05T13:10:01.201Z</time></trkpt><trkpt lat="51.57562" lon="-9.024575"><ele>0.0</ele><time>2026-05-05T13:10:02.201Z</time></trkpt><trkpt lat="51.5756183" lon="-9.0249"><ele>0.0</ele><time>2026-05-05T13:10:03.202Z</time></trkpt><trkpt lat="51.57562" lon="-9.0252233"><ele>0.0</ele><time>2026-05-05T13:10:04.202Z</time></trkpt><trkpt lat="51.5756267" lon="-9.0255433"><ele>0.0</ele><time>2026-05-05T13:10:05.202Z</time></trkpt><trkpt lat="51.575635" lon="-9.0258583"><ele>0.0</ele><time>2026-05-05T13:10:06.202Z</time></trkpt><trkpt lat="51.5756383" lon="-9.026175"><ele>0.0</ele><time>2026-05-05T13:10:07.201Z</time></trkpt><trkpt lat="51.5756417" lon="-9.0264933"><ele>0.0</ele><time>2026-05-05T13:10:08.202Z</time></trkpt><trkpt lat="51.5756417" lon="-9.0268117"><ele>0.0</ele><time>2026-05-05T13:10:09.201Z</time></trkpt><trkpt lat="51.5756383" lon="-9.0271183"><ele>0.0</ele><time>2026-05-05T13:10:10.201Z</time></trkpt><trkpt lat="51.5756367" lon="-9.02741"><ele>0.0</ele><time>2026-05-05T13:10:11.202Z</time></trkpt><trkpt lat="51.5756367" lon="-9.0277017"><ele>0.3333333333333333</ele><time>2026-05-05T13:10:12.202Z</time></trkpt><trkpt lat="51.57563" lon="-9.028005"><ele>0.6666666666666666</ele><time>2026-05-05T13:10:13.202Z</time></trkpt><trkpt lat="51.57562" lon="-9.0282983"><ele>1.0</ele><time>2026-05-05T13:10:14.201Z</time></trkpt><trkpt lat="51.5756133" lon="-9.0285767"><ele>3.0</ele><time>2026-05-05T13:10:15.202Z</time></trkpt><trkpt lat="51.5755917" lon="-9.0288733"><ele>5.0</ele><time>2026-05-05T13:10:16.202Z</time></trkpt><trkpt lat="51.5755533" lon="-9.029165"><ele>7.0</ele><time>2026-05-05T13:10:17.201Z</time></trkpt><trkpt lat="51.5755083" lon="-9.0294433"><ele>8.0</ele><time>2026-05-05T13:10:18.201Z</time></trkpt><trkpt lat="51.575465" lon="-9.0297183"><ele>9.0</ele><time>2026-05-05T13:10:19.202Z</time></trkpt><trkpt lat="51.5754217" lon="-9.030005"><ele>10.0</ele><time>2026-05-05T13:10:20.202Z</time></trkpt><trkpt lat="51.57538" lon="-9.0302983"><ele>8.666666666666668</ele><time>2026-05-05T13:10:21.202Z</time></trkpt><trkpt lat="51.5753433" lon="-9.030615"><ele>7.333333333333334</ele><time>2026-05-05T13:10:22.201Z</time></trkpt><trkpt lat="51.57531" lon="-9.03094"><ele>6.0</ele><time>2026-05-05T13:10:23.202Z</time></trkpt><trkpt lat="51.5752867" lon="-9.0312667"><ele>6.0</ele><time>2026-05-05T13:10:24.201Z</time></trkpt><trkpt lat="51.5752867" lon="-9.03161"><ele>6.0</ele><time>2026-05-05T13:10:25.201Z</time></trkpt><trkpt lat="51.575285" lon="-9.0319417"><ele>6.0</ele><time>2026-05-05T13:10:26.201Z</time></trkpt><trkpt lat="51.5753017" lon="-9.0322617"><ele>7.333333333333334</ele><time>2026-05-05T13:10:27.201Z</time></trkpt><trkpt lat="51.575335" lon="-9.0325833"><ele>8.666666666666668</ele><time>2026-05-05T13:10:28.202Z</time></trkpt><trkpt lat="51.5754117" lon="-9.0328867"><ele>10.0</ele><time>2026-05-05T13:10:29.201Z</time></trkpt><trkpt lat="51.575465" lon="-9.0331883"><ele>10.666666666666668</ele><time>2026-05-05T13:10:30.202Z</time></trkpt><trkpt lat="51.5755467" lon="-9.0334517"><ele>11.333333333333334</ele><time>2026-05-05T13:10:31.201Z</time></trkpt><trkpt lat="51.5756067" lon="-9.0337233"><ele>12.0</ele><time>2026-05-05T13:10:32.201Z</time></trkpt><trkpt lat="51.5756667" lon="-9.03397"><ele>10.666666666666666</ele><time>2026-05-05T13:10:33.201Z</time></trkpt><trkpt lat="51.57572" lon="-9.0342167"><ele>9.333333333333332</ele><time>2026-05-05T13:10:34.202Z</time></trkpt><trkpt lat="51.5757883" lon="-9.0344383"><ele>8.0</ele><time>2026-05-05T13:10:35.202Z</time></trkpt><trkpt lat="51.575855" lon="-9.0346317"><ele>8.0</ele><time>2026-05-05T13:10:36.202Z</time></trkpt><trkpt lat="51.5759" lon="-9.034815"><ele>8.0</ele><time>2026-05-05T13:10:37.202Z</time></trkpt><trkpt lat="51.5759433" lon="-9.0350017"><ele>8.0</ele><time>2026-05-05T13:10:38.202Z</time></trkpt><trkpt lat="51.5759867" lon="-9.03519"><ele>8.0</ele><time>2026-05-05T13:10:39.201Z</time></trkpt><trkpt lat="51.5760433" lon="-9.035385"><ele>7.75</ele><time>2026-05-05T13:10:40.201Z</time></trkpt><trkpt lat="51.5761367" lon="-9.0355617"><ele>7.5</ele><time>2026-05-05T13:10:41.201Z</time></trkpt><trkpt lat="51.57623" lon="-9.0357233"><ele>7.25</ele><time>2026-05-05T13:10:42.201Z</time></trkpt><trkpt lat="51.5763283" lon="-9.0358967"><ele>7.0</ele><time>2026-05-05T13:10:43.202Z</time></trkpt><trkpt lat="51.5764317" lon="-9.0360717"><ele>7.666666666666667</ele><time>2026-05-05T13:10:44.202Z</time></trkpt><trkpt lat="51.5765367" lon="-9.0362367"><ele>8.333333333333334</ele><time>2026-05-05T13:10:45.202Z</time></trkpt><trkpt lat="51.5766383" lon="-9.0364317"><ele>9.0</ele><time>2026-05-05T13:10:46.201Z</time></trkpt><trkpt lat="51.5767567" lon="-9.0366183"><ele>8.666666666666666</ele><time>2026-05-05T13:10:47.202Z</time></trkpt><trkpt lat="51.5768633" lon="-9.0368067"><ele>8.333333333333332</ele><time>2026-05-05T13:10:48.202Z</time></trkpt><trkpt lat="51.57697" lon="-9.0369717"><ele>8.0</ele><time>2026-05-05T13:10:49.201Z</time></trkpt><trkpt lat="51.577085" lon="-9.0371683"><ele>11.0</ele><time>2026-05-05T13:10:50.202Z</time></trkpt><trkpt lat="51.5772183" lon="-9.0373183"><ele>14.0</ele><time>2026-05-05T13:10:51.202Z</time></trkpt><trkpt lat="51.5773667" lon="-9.0374917"><ele>17.0</ele><time>2026-05-05T13:10:52.201Z</time></trkpt><trkpt lat="51.5775117" lon="-9.0376883"><ele>17.0</ele><time>2026-05-05T13:10:53.201Z</time></trkpt><trkpt lat="51.5776283" lon="-9.0378933"><ele>17.0</ele><time>2026-05-05T13:10:54.201Z</time></trkpt><trkpt lat="51.577745" lon="-9.0381433"><ele>17.0</ele><time>2026-05-05T13:10:55.202Z</time></trkpt><trkpt lat="51.5778533" lon="-9.0384083"><ele>23.333333333333336</ele><time>2026-05-05T13:10:56.202Z</time></trkpt><trkpt lat="51.5779767" lon="-9.038655"><ele>29.666666666666668</ele><time>2026-05-05T13:10:57.202Z</time></trkpt><trkpt lat="51.57811" lon="-9.0388983"><ele>36.0</ele><time>2026-05-05T13:10:58.202Z</time></trkpt><trkpt lat="51.5782317" lon="-9.0391333"><ele>34.0</ele><time>2026-05-05T13:10:59.201Z</time></trkpt><trkpt lat="51.578375" lon="-9.0393717"><ele>32.0</ele><time>2026-05-05T13:11:00.201Z</time></trkpt><trkpt lat="51.57854" lon="-9.039595"><ele>30.0</ele><time>2026-05-05T13:11:01.202Z</time></trkpt><trkpt lat="51.5787083" lon="-9.039795"><ele>30.666666666666664</ele><time>2026-05-05T13:11:02.201Z</time></trkpt><trkpt lat="51.5788733" lon="-9.040015"><ele>31.333333333333332</ele><time>2026-05-05T13:11:03.202Z</time></trkpt><trkpt lat="51.5790333" lon="-9.04021"><ele>32.0</ele><time>2026-05-05T13:11:04.202Z</time></trkpt><trkpt lat="51.5792217" lon="-9.04035"><ele>32.0</ele><time>2026-05-05T13:11:05.202Z</time></trkpt><trkpt lat="51.57941" lon="-9.0404717"><ele>32.0</ele><time>2026-05-05T13:11:06.201Z</time></trkpt><trkpt lat="51.57961" lon="-9.0405817"><ele>32.0</ele><time>2026-05-05T13:11:07.202Z</time></trkpt><trkpt lat="51.579815" lon="-9.0406883"><ele>33.33333333333333</ele><time>2026-05-05T13:11:08.202Z</time></trkpt><trkpt lat="51.5800283" lon="-9.04078"><ele>34.666666666666664</ele><time>2026-05-05T13:11:09.202Z</time></trkpt><trkpt lat="51.5802417" lon="-9.0408817"><ele>36.0</ele><time>2026-05-05T13:11:10.201Z</time></trkpt><trkpt lat="51.580445" lon="-9.0409967"><ele>38.666666666666664</ele><time>2026-05-05T13:11:11.202Z</time></trkpt><trkpt lat="51.5806383" lon="-9.0411067"><ele>41.33333333333333</ele><time>2026-05-05T13:11:12.202Z</time></trkpt><trkpt lat="51.58083" lon="-9.041235"><ele>44.0</ele><time>2026-05-05T13:11:13.202Z</time></trkpt><trkpt lat="51.5810167" lon="-9.0413617"><ele>44.0</ele><time>2026-05-05T13:11:14.202Z</time></trkpt><trkpt lat="51.5812133" lon="-9.041515"><ele>44.0</ele><time>2026-05-05T13:11:15.202Z</time></trkpt><trkpt lat="51.5813983" lon="-9.041645"><ele>44.0</ele><time>2026-05-05T13:11:16.202Z</time></trkpt><trkpt lat="51.5815783" lon="-9.0417917"><ele>44.0</ele><time>2026-05-05T13:11:17.202Z</time></trkpt><trkpt lat="51.5817567" lon="-9.0419517"><ele>44.0</ele><time>2026-05-05T13:11:18.202Z</time></trkpt><trkpt lat="51.5819417" lon="-9.0421067"><ele>44.0</ele><time>2026-05-05T13:11:19.202Z</time></trkpt><trkpt lat="51.582195" lon="-9.0422467"><ele>43.5</ele><time>2026-05-05T13:11:20.202Z</time></trkpt><trkpt lat="51.582405" lon="-9.042375"><ele>43.0</ele><time>2026-05-05T13:11:21.202Z</time></trkpt><trkpt lat="51.58262" lon="-9.0424983"><ele>43.0</ele><time>2026-05-05T13:11:22.202Z</time></trkpt><trkpt lat="51.582835" lon="-9.0425933"><ele>43.0</ele><time>2026-05-05T13:11:23.202Z</time></trkpt><trkpt lat="51.583055" lon="-9.042665"><ele>43.0</ele><time>2026-05-05T13:11:24.202Z</time></trkpt><trkpt lat="51.583275" lon="-9.042725"><ele>46.0</ele><time>2026-05-05T13:11:25.202Z</time></trkpt><trkpt lat="51.5834917" lon="-9.0427883"><ele>49.0</ele><time>2026-05-05T13:11:26.202Z</time></trkpt><trkpt lat="51.5836983" lon="-9.0428533"><ele>52.0</ele><time>2026-05-05T13:11:27.202Z</time></trkpt><trkpt lat="51.5838933" lon="-9.0429217"><ele>54.666666666666664</ele><time>2026-05-05T13:11:28.202Z</time></trkpt><trkpt lat="51.5840767" lon="-9.043"><ele>57.33333333333333</ele><time>2026-05-05T13:11:29.202Z</time></trkpt><trkpt lat="51.5842717" lon="-9.0430817"><ele>60.0</ele><time>2026-05-05T13:11:30.201Z</time></trkpt><trkpt lat="51.5844567" lon="-9.04322"><ele>59.66666666666667</ele><time>2026-05-05T13:11:31.201Z</time></trkpt><trkpt lat="51.58465" lon="-9.0433983"><ele>59.333333333333336</ele><time>2026-05-05T13:11:32.202Z</time></trkpt><trkpt lat="51.58483" lon="-9.0436"><ele>59.0</ele><time>2026-05-05T13:11:33.201Z</time></trkpt><trkpt lat="51.5850017" lon="-9.04382"><ele>59.0</ele><time>2026-05-05T13:11:34.202Z</time></trkpt><trkpt lat="51.58515" lon="-9.0441133"><ele>59.0</ele><time>2026-05-05T13:11:35.201Z</time></trkpt><trkpt lat="51.5852783" lon="-9.0444267"><ele>59.0</ele><time>2026-05-05T13:11:36.202Z</time></trkpt><trkpt lat="51.5853817" lon="-9.04476"><ele>59.0</ele><time>2026-05-05T13:11:37.201Z</time></trkpt><trkpt lat="51.5854667" lon="-9.0450883"><ele>56.5</ele><time>2026-05-05T13:11:38.202Z</time></trkpt><trkpt lat="51.5854833" lon="-9.04548"><ele>54.0</ele><time>2026-05-05T13:11:39.202Z</time></trkpt><trkpt lat="51.585525" lon="-9.0458433"><ele>53.5</ele><time>2026-05-05T13:11:40.202Z</time></trkpt><trkpt lat="51.5855833" lon="-9.0462"><ele>53.0</ele><time>2026-05-05T13:11:41.202Z</time></trkpt><trkpt lat="51.5856417" lon="-9.0465617"><ele>52.5</ele><time>2026-05-05T13:11:42.201Z</time></trkpt><trkpt lat="51.5857083" lon="-9.0469133"><ele>52.0</ele><time>2026-05-05T13:11:43.202Z</time></trkpt><trkpt lat="51.585785" lon="-9.0472717"><ele>51.5</ele><time>2026-05-05T13:11:44.202Z</time></trkpt><trkpt lat="51.585865" lon="-9.047635"><ele>51.0</ele><time>2026-05-05T13:11:45.202Z</time></trkpt><trkpt lat="51.5859583" lon="-9.0479983"><ele>51.0</ele><time>2026-05-05T13:11:46.202Z</time></trkpt><trkpt lat="51.5860317" lon="-9.0483417"><ele>51.0</ele><time>2026-05-05T13:11:47.201Z</time></trkpt><trkpt lat="51.586105" lon="-9.0486667"><ele>51.0</ele><time>2026-05-05T13:11:48.202Z</time></trkpt><trkpt lat="51.5861967" lon="-9.0489883"><ele>51.5</ele><time>2026-05-05T13:11:49.202Z</time></trkpt><trkpt lat="51.5863033" lon="-9.0493133"><ele>52.0</ele><time>2026-05-05T13:11:50.202Z</time></trkpt><trkpt lat="51.5864167" lon="-9.0496433"><ele>53.0</ele><time>2026-05-05T13:11:51.202Z</time></trkpt><trkpt lat="51.5865417" lon="-9.04998"><ele>54.0</ele><time>2026-05-05T13:11:52.202Z</time></trkpt><trkpt lat="51.5866767" lon="-9.0503083"><ele>54.0</ele><time>2026-05-05T13:11:53.202Z</time></trkpt><trkpt lat="51.5868133" lon="-9.0506383"><ele>54.0</ele><time>2026-05-05T13:11:54.202Z</time></trkpt><trkpt lat="51.5869517" lon="-9.0509667"><ele>53.0</ele><time>2026-05-05T13:11:55.201Z</time></trkpt><trkpt lat="51.587095" lon="-9.05131"><ele>52.0</ele><time>2026-05-05T13:11:56.202Z</time></trkpt><trkpt lat="51.5872433" lon="-9.0516567"><ele>54.5</ele><time>2026-05-05T13:11:57.201Z</time></trkpt><trkpt lat="51.58739" lon="-9.0520083"><ele>57.0</ele><time>2026-05-05T13:11:58.201Z</time></trkpt><trkpt lat="51.5875333" lon="-9.052335"><ele>58.0</ele><time>2026-05-05T13:11:59.201Z</time></trkpt><trkpt lat="51.587695" lon="-9.0526667"><ele>59.0</ele><time>2026-05-05T13:12:00.202Z</time></trkpt><trkpt lat="51.5878517" lon="-9.0529833"><ele>60.5</ele><time>2026-05-05T13:12:01.201Z</time></trkpt><trkpt lat="51.5880017" lon="-9.053295"><ele>62.0</ele><time>2026-05-05T13:12:02.201Z</time></trkpt><trkpt lat="51.5881483" lon="-9.0536017"><ele>62.0</ele><time>2026-05-05T13:12:03.202Z</time></trkpt><trkpt lat="51.58829" lon="-9.0538967"><ele>62.0</ele><time>2026-05-05T13:12:04.201Z</time></trkpt><trkpt lat="51.588455" lon="-9.0541633"><ele>63.0</ele><time>2026-05-05T13:12:05.202Z</time></trkpt><trkpt lat="51.5886017" lon="-9.05444"><ele>64.0</ele><time>2026-05-05T13:12:06.201Z</time></trkpt><trkpt lat="51.58874" lon="-9.05472"><ele>65.0</ele><time>2026-05-05T13:12:07.202Z</time></trkpt><trkpt lat="51.5888883" lon="-9.054995"><ele>65.66666666666667</ele><time>2026-05-05T13:12:08.202Z</time></trkpt><trkpt lat="51.5890017" lon="-9.0552883"><ele>66.33333333333333</ele><time>2026-05-05T13:12:09.202Z</time></trkpt><trkpt lat="51.5891033" lon="-9.0555883"><ele>67.0</ele><time>2026-05-05T13:12:10.201Z</time></trkpt><trkpt lat="51.5891533" lon="-9.05594"><ele>67.33333333333333</ele><time>2026-05-05T13:12:11.202Z</time></trkpt><trkpt lat="51.5891867" lon="-9.0562817"><ele>67.66666666666667</ele><time>2026-05-05T13:12:12.202Z</time></trkpt><trkpt lat="51.5892533" lon="-9.05661"><ele>68.0</ele><time>2026-05-05T13:12:13.202Z</time></trkpt><trkpt lat="51.5893183" lon="-9.0569367"><ele>69.0</ele><time>2026-05-05T13:12:14.202Z</time></trkpt><trkpt lat="51.5893983" lon="-9.0572533"><ele>70.0</ele><time>2026-05-05T13:12:15.201Z</time></trkpt><trkpt lat="51.589465" lon="-9.0575967"><ele>71.0</ele><time>2026-05-05T13:12:16.202Z</time></trkpt><trkpt lat="51.5895283" lon="-9.05795"><ele>73.5</ele><time>2026-05-05T13:12:17.202Z</time></trkpt><trkpt lat="51.589575" lon="-9.05832"><ele>76.0</ele><time>2026-05-05T13:12:18.201Z</time></trkpt><trkpt lat="51.5896267" lon="-9.058665"><ele>76.0</ele><time>2026-05-05T13:12:19.202Z</time></trkpt><trkpt lat="51.5896583" lon="-9.0590083"><ele>76.0</ele><time>2026-05-05T13:12:20.202Z</time></trkpt><trkpt lat="51.5897417" lon="-9.0593583"><ele>76.0</ele><time>2026-05-05T13:12:21.202Z</time></trkpt><trkpt lat="51.5898233" lon="-9.0597017"><ele>77.0</ele><time>2026-05-05T13:12:22.202Z</time></trkpt><trkpt lat="51.5899117" lon="-9.06005"><ele>78.0</ele><time>2026-05-05T13:12:23.202Z</time></trkpt><trkpt lat="51.5899933" lon="-9.0603933"><ele>78.0</ele><time>2026-05-05T13:12:24.201Z</time></trkpt><trkpt lat="51.5900733" lon="-9.0607417"><ele>78.0</ele><time>2026-05-05T13:12:25.202Z</time></trkpt><trkpt lat="51.590155" lon="-9.06109"><ele>78.5</ele><time>2026-05-05T13:12:26.202Z</time></trkpt><trkpt lat="51.5902417" lon="-9.0614283"><ele>79.0</ele><time>2026-05-05T13:12:27.202Z</time></trkpt><trkpt lat="51.59032" lon="-9.0617867"><ele>82.0</ele><time>2026-05-05T13:12:28.202Z</time></trkpt><trkpt lat="51.5903683" lon="-9.062155"><ele>85.0</ele><time>2026-05-05T13:12:29.202Z</time></trkpt><trkpt lat="51.5904183" lon="-9.0625183"><ele>85.0</ele><time>2026-05-05T13:12:30.201Z</time></trkpt><trkpt lat="51.5904517" lon="-9.06289"><ele>85.0</ele><time>2026-05-05T13:12:31.202Z</time></trkpt><trkpt lat="51.5904567" lon="-9.0632733"><ele>84.0</ele><time>2026-05-05T13:12:32.202Z</time></trkpt><trkpt lat="51.5904717" lon="-9.0636517"><ele>83.0</ele><time>2026-05-05T13:12:33.202Z</time></trkpt><trkpt lat="51.59042" lon="-9.0640583"><ele>83.5</ele><time>2026-05-05T13:12:34.201Z</time></trkpt><trkpt lat="51.5904117" lon="-9.06445"><ele>84.0</ele><time>2026-05-05T13:12:35.201Z</time></trkpt><trkpt lat="51.5903967" lon="-9.0648433"><ele>84.5</ele><time>2026-05-05T13:12:36.202Z</time></trkpt><trkpt lat="51.590385" lon="-9.0652383"><ele>85.0</ele><time>2026-05-05T13:12:37.202Z</time></trkpt><trkpt lat="51.5903817" lon="-9.06562"><ele>86.0</ele><time>2026-05-05T13:12:38.201Z</time></trkpt><trkpt lat="51.590405" lon="-9.065985"><ele>87.0</ele><time>2026-05-05T13:12:39.202Z</time></trkpt><trkpt lat="51.5904383" lon="-9.0663533"><ele>87.5</ele><time>2026-05-05T13:12:40.202Z</time></trkpt><trkpt lat="51.590475" lon="-9.06672"><ele>88.0</ele><time>2026-05-05T13:12:41.201Z</time></trkpt><trkpt lat="51.59052" lon="-9.0670867"><ele>88.0</ele><time>2026-05-05T13:12:42.201Z</time></trkpt><trkpt lat="51.5905617" lon="-9.067455"><ele>88.0</ele><time>2026-05-05T13:12:43.201Z</time></trkpt><trkpt lat="51.5906167" lon="-9.06782"><ele>88.0</ele><time>2026-05-05T13:12:44.201Z</time></trkpt><trkpt lat="51.5906767" lon="-9.06819"><ele>88.0</ele><time>2026-05-05T13:12:45.202Z</time></trkpt><trkpt lat="51.59075" lon="-9.0685567"><ele>88.0</ele><time>2026-05-05T13:12:46.202Z</time></trkpt><trkpt lat="51.590835" lon="-9.0689283"><ele>88.0</ele><time>2026-05-05T13:12:47.201Z</time></trkpt><trkpt lat="51.5909233" lon="-9.0693067"><ele>88.0</ele><time>2026-05-05T13:12:48.202Z</time></trkpt><trkpt lat="51.5910233" lon="-9.0697"><ele>88.0</ele><time>2026-05-05T13:12:49.202Z</time></trkpt><trkpt lat="51.5910967" lon="-9.07012"><ele>86.0</ele><time>2026-05-05T13:12:50.201Z</time></trkpt><trkpt lat="51.5911933" lon="-9.07053"><ele>84.0</ele><time>2026-05-05T13:12:51.202Z</time></trkpt><trkpt lat="51.5912917" lon="-9.07094"><ele>83.5</ele><time>2026-05-05T13:12:52.201Z</time></trkpt><trkpt lat="51.5913833" lon="-9.0713483"><ele>83.0</ele><time>2026-05-05T13:12:53.201Z</time></trkpt><trkpt lat="51.5914883" lon="-9.0717583"><ele>82.5</ele><time>2026-05-05T13:12:54.202Z</time></trkpt><trkpt lat="51.5915933" lon="-9.0721867"><ele>82.0</ele><time>2026-05-05T13:12:55.201Z</time></trkpt><trkpt lat="51.5917067" lon="-9.0726217"><ele>81.5</ele><time>2026-05-05T13:12:56.201Z</time></trkpt><trkpt lat="51.5918033" lon="-9.0730467"><ele>81.0</ele><time>2026-05-05T13:12:57.201Z</time></trkpt><trkpt lat="51.5919067" lon="-9.0734683"><ele>79.5</ele><time>2026-05-05T13:12:58.201Z</time></trkpt><trkpt lat="51.5920033" lon="-9.0738917"><ele>78.0</ele><time>2026-05-05T13:12:59.202Z</time></trkpt><trkpt lat="51.5921" lon="-9.0743167"><ele>74.0</ele><time>2026-05-05T13:13:00.202Z</time></trkpt><trkpt lat="51.592195" lon="-9.0747317"><ele>70.0</ele><time>2026-05-05T13:13:01.202Z</time></trkpt><trkpt lat="51.59228" lon="-9.0751267"><ele>68.5</ele><time>2026-05-05T13:13:02.201Z</time></trkpt><trkpt lat="51.5923583" lon="-9.075525"><ele>67.0</ele><time>2026-05-05T13:13:03.202Z</time></trkpt><trkpt lat="51.5924483" lon="-9.0759"><ele>66.0</ele><time>2026-05-05T13:13:04.202Z</time></trkpt><trkpt lat="51.5925333" lon="-9.0762683"><ele>65.0</ele><time>2026-05-05T13:13:05.201Z</time></trkpt><trkpt lat="51.5926133" lon="-9.0766417"><ele>64.0</ele><time>2026-05-05T13:13:06.202Z</time></trkpt><trkpt lat="51.5926983" lon="-9.0770117"><ele>63.0</ele><time>2026-05-05T13:13:07.201Z</time></trkpt><trkpt lat="51.59277" lon="-9.0773883"><ele>62.5</ele><time>2026-05-05T13:13:08.201Z</time></trkpt><trkpt lat="51.592815" lon="-9.0778033"><ele>62.0</ele><time>2026-05-05T13:13:09.201Z</time></trkpt><trkpt lat="51.5928617" lon="-9.0782117"><ele>60.5</ele><time>2026-05-05T13:13:10.201Z</time></trkpt><trkpt lat="51.5929033" lon="-9.0786117"><ele>59.0</ele><time>2026-05-05T13:13:11.202Z</time></trkpt><trkpt lat="51.592935" lon="-9.0790117"><ele>58.5</ele><time>2026-05-05T13:13:12.202Z</time></trkpt><trkpt lat="51.592935" lon="-9.0794317"><ele>58.0</ele><time>2026-05-05T13:13:13.202Z</time></trkpt><trkpt lat="51.592935" lon="-9.079835"><ele>59.0</ele><time>2026-05-05T13:13:14.201Z</time></trkpt><trkpt lat="51.5929233" lon="-9.0802383"><ele>60.0</ele><time>2026-05-05T13:13:15.202Z</time></trkpt><trkpt lat="51.5929017" lon="-9.0806533"><ele>59.5</ele><time>2026-05-05T13:13:16.202Z</time></trkpt><trkpt lat="51.592875" lon="-9.081075"><ele>59.0</ele><time>2026-05-05T13:13:17.201Z</time></trkpt><trkpt lat="51.592845" lon="-9.0814817"><ele>52.5</ele><time>2026-05-05T13:13:18.202Z</time></trkpt><trkpt lat="51.5928083" lon="-9.0818933"><ele>46.0</ele><time>2026-05-05T13:13:19.202Z</time></trkpt><trkpt lat="51.59277" lon="-9.0823017"><ele>44.0</ele><time>2026-05-05T13:13:20.202Z</time></trkpt><trkpt lat="51.5927367" lon="-9.0827167"><ele>42.0</ele><time>2026-05-05T13:13:21.202Z</time></trkpt><trkpt lat="51.5927067" lon="-9.083115"><ele>41.0</ele><time>2026-05-05T13:13:22.202Z</time></trkpt><trkpt lat="51.5926867" lon="-9.0835117"><ele>40.0</ele><time>2026-05-05T13:13:23.201Z</time></trkpt><trkpt lat="51.5926467" lon="-9.0838867"><ele>40.0</ele><time>2026-05-05T13:13:24.201Z</time></trkpt><trkpt lat="51.5926183" lon="-9.0842083"><ele>40.0</ele><time>2026-05-05T13:13:25.202Z</time></trkpt><trkpt lat="51.5925767" lon="-9.0845017"><ele>40.0</ele><time>2026-05-05T13:13:26.201Z</time></trkpt><trkpt lat="51.5925233" lon="-9.08475"><ele>39.66666666666667</ele><time>2026-05-05T13:13:27.202Z</time></trkpt><trkpt lat="51.5925117" lon="-9.0850217"><ele>39.333333333333336</ele><time>2026-05-05T13:13:28.202Z</time></trkpt><trkpt lat="51.5925117" lon="-9.08533"><ele>39.0</ele><time>2026-05-05T13:13:29.202Z</time></trkpt><trkpt lat="51.59254" lon="-9.0856533"><ele>38.0</ele><time>2026-05-05T13:13:30.201Z</time></trkpt><trkpt lat="51.5925933" lon="-9.08599"><ele>37.0</ele><time>2026-05-05T13:13:31.201Z</time></trkpt><trkpt lat="51.5926567" lon="-9.0863267"><ele>36.0</ele><time>2026-05-05T13:13:32.202Z</time></trkpt><trkpt lat="51.5927133" lon="-9.08668"><ele>36.0</ele><time>2026-05-05T13:13:33.202Z</time></trkpt><trkpt lat="51.5927783" lon="-9.0870333"><ele>36.0</ele><time>2026-05-05T13:13:34.202Z</time></trkpt><trkpt lat="51.59285" lon="-9.0873917"><ele>38.0</ele><time>2026-05-05T13:13:35.202Z</time></trkpt><trkpt lat="51.5929267" lon="-9.087755"><ele>40.0</ele><time>2026-05-05T13:13:36.202Z</time></trkpt><trkpt lat="51.593015" lon="-9.08811"><ele>39.0</ele><time>2026-05-05T13:13:37.202Z</time></trkpt><trkpt lat="51.5930883" lon="-9.088475"><ele>38.0</ele><time>2026-05-05T13:13:38.202Z</time></trkpt><trkpt lat="51.5931583" lon="-9.0888417"><ele>38.0</ele><time>2026-05-05T13:13:39.201Z</time></trkpt><trkpt lat="51.5932233" lon="-9.0892033"><ele>38.0</ele><time>2026-05-05T13:13:40.201Z</time></trkpt><trkpt lat="51.59328" lon="-9.0895483"><ele>38.0</ele><time>2026-05-05T13:13:41.202Z</time></trkpt><trkpt lat="51.5933267" lon="-9.0898617"><ele>38.0</ele><time>2026-05-05T13:13:42.202Z</time></trkpt><trkpt lat="51.5933683" lon="-9.090145"><ele>38.0</ele><time>2026-05-05T13:13:43.202Z</time></trkpt><trkpt lat="51.593435" lon="-9.090405"><ele>38.666666666666664</ele><time>2026-05-05T13:13:44.202Z</time></trkpt><trkpt lat="51.59355" lon="-9.09064"><ele>39.333333333333336</ele><time>2026-05-05T13:13:45.202Z</time></trkpt><trkpt lat="51.59365" lon="-9.0908933"><ele>40.0</ele><time>2026-05-05T13:13:46.201Z</time></trkpt><trkpt lat="51.593765" lon="-9.0911583"><ele>43.0</ele><time>2026-05-05T13:13:47.202Z</time></trkpt><trkpt lat="51.593945" lon="-9.091405"><ele>46.0</ele><time>2026-05-05T13:13:48.202Z</time></trkpt><trkpt lat="51.5941267" lon="-9.0916317"><ele>46.0</ele><time>2026-05-05T13:13:49.201Z</time></trkpt><trkpt lat="51.594265" lon="-9.0918767"><ele>46.0</ele><time>2026-05-05T13:13:50.202Z</time></trkpt><trkpt lat="51.5943917" lon="-9.092145"><ele>46.0</ele><time>2026-05-05T13:13:51.202Z</time></trkpt><trkpt lat="51.5944933" lon="-9.0923483"><ele>45.0</ele><time>2026-05-05T13:13:52.201Z</time></trkpt><trkpt lat="51.5945867" lon="-9.09251"><ele>44.0</ele><time>2026-05-05T13:13:53.201Z</time></trkpt><trkpt lat="51.594715" lon="-9.0925683"><ele>43.0</ele><time>2026-05-05T13:13:54.201Z</time></trkpt><trkpt lat="51.59485" lon="-9.0925683"><ele>42.0</ele><time>2026-05-05T13:13:55.202Z</time></trkpt><trkpt lat="51.5949933" lon="-9.0925467"><ele>42.0</ele><time>2026-05-05T13:13:56.202Z</time></trkpt><trkpt lat="51.5951167" lon="-9.09253"><ele>42.0</ele><time>2026-05-05T13:13:57.202Z</time></trkpt><trkpt lat="51.595285" lon="-9.0924467"><ele>42.0</ele><time>2026-05-05T13:13:58.202Z</time></trkpt><trkpt lat="51.5954217" lon="-9.092405"><ele>42.0</ele><time>2026-05-05T13:13:59.202Z</time></trkpt><trkpt lat="51.59555" lon="-9.0924"><ele>42.25</ele><time>2026-05-05T13:14:00.201Z</time></trkpt><trkpt lat="51.5956883" lon="-9.0924483"><ele>42.5</ele><time>2026-05-05T13:14:01.202Z</time></trkpt><trkpt lat="51.5958233" lon="-9.0925083"><ele>42.75</ele><time>2026-05-05T13:14:02.202Z</time></trkpt><trkpt lat="51.595955" lon="-9.092575"><ele>43.0</ele><time>2026-05-05T13:14:03.201Z</time></trkpt><trkpt lat="51.59608" lon="-9.09267"><ele>42.8</ele><time>2026-05-05T13:14:04.201Z</time></trkpt><trkpt lat="51.59618" lon="-9.09277"><ele>42.599999999999994</ele><time>2026-05-05T13:14:05.202Z</time></trkpt><trkpt lat="51.5962567" lon="-9.0928933"><ele>42.400000000000006</ele><time>2026-05-05T13:14:06.202Z</time></trkpt><trkpt lat="51.596315" lon="-9.09302"><ele>42.2</ele><time>2026-05-05T13:14:07.202Z</time></trkpt><trkpt lat="51.596345" lon="-9.0931667"><ele>42.0</ele><time>2026-05-05T13:14:08.201Z</time></trkpt><trkpt lat="51.5963333" lon="-9.0933217"><ele>42.0</ele><time>2026-05-05T13:14:09.202Z</time></trkpt><trkpt lat="51.5962967" lon="-9.0935017"><ele>42.0</ele><time>2026-05-05T13:14:10.201Z</time></trkpt><trkpt lat="51.5962283" lon="-9.0937267"><ele>42.0</ele><time>2026-05-05T13:14:11.201Z</time></trkpt><trkpt lat="51.5961667" lon="-9.0939383"><ele>42.0</ele><time>2026-05-05T13:14:12.201Z</time></trkpt><trkpt lat="51.596095" lon="-9.0941683"><ele>44.0</ele><time>2026-05-05T13:14:13.201Z</time></trkpt><trkpt lat="51.59602" lon="-9.0944"><ele>46.0</ele><time>2026-05-05T13:14:14.202Z</time></trkpt><trkpt lat="51.5959283" lon="-9.0946483"><ele>48.0</ele><time>2026-05-05T13:14:15.202Z</time></trkpt><trkpt lat="51.5958333" lon="-9.0949067"><ele>47.666666666666664</ele><time>2026-05-05T13:14:16.202Z</time></trkpt><trkpt lat="51.5957383" lon="-9.0951633"><ele>47.33333333333333</ele><time>2026-05-05T13:14:17.201Z</time></trkpt><trkpt lat="51.5956467" lon="-9.0954"><ele>47.0</ele><time>2026-05-05T13:14:18.202Z</time></trkpt><trkpt lat="51.5955467" lon="-9.0956083"><ele>46.666666666666664</ele><time>2026-05-05T13:14:19.202Z</time></trkpt><trkpt lat="51.59544" lon="-9.0958033"><ele>46.333333333333336</ele><time>2026-05-05T13:14:20.201Z</time></trkpt><trkpt lat="51.595295" lon="-9.09598"><ele>46.0</ele><time>2026-05-05T13:14:21.202Z</time></trkpt><trkpt lat="51.59517" lon="-9.0961433"><ele>47.0</ele><time>2026-05-05T13:14:22.201Z</time></trkpt><trkpt lat="51.5950517" lon="-9.0963167"><ele>48.0</ele><time>2026-05-05T13:14:23.201Z</time></trkpt><trkpt lat="51.59494" lon="-9.09652"><ele>49.0</ele><time>2026-05-05T13:14:24.202Z</time></trkpt><trkpt lat="51.5948417" lon="-9.0967533"><ele>49.0</ele><time>2026-05-05T13:14:25.202Z</time></trkpt><trkpt lat="51.5947517" lon="-9.0970117"><ele>49.0</ele><time>2026-05-05T13:14:26.202Z</time></trkpt><trkpt lat="51.5946667" lon="-9.09728"><ele>49.0</ele><time>2026-05-05T13:14:27.202Z</time></trkpt><trkpt lat="51.594575" lon="-9.0975533"><ele>49.33333333333333</ele><time>2026-05-05T13:14:28.201Z</time></trkpt><trkpt lat="51.594485" lon="-9.0978267"><ele>49.66666666666667</ele><time>2026-05-05T13:14:29.201Z</time></trkpt><trkpt lat="51.5943883" lon="-9.09811"><ele>50.0</ele><time>2026-05-05T13:14:30.201Z</time></trkpt><trkpt lat="51.5942883" lon="-9.0984067"><ele>50.0</ele><time>2026-05-05T13:14:31.202Z</time></trkpt><trkpt lat="51.5941667" lon="-9.098695"><ele>50.0</ele><time>2026-05-05T13:14:32.202Z</time></trkpt><trkpt lat="51.5940633" lon="-9.0989633"><ele>50.0</ele><time>2026-05-05T13:14:33.202Z</time></trkpt><trkpt lat="51.5939267" lon="-9.0992117"><ele>49.333333333333336</ele><time>2026-05-05T13:14:34.202Z</time></trkpt><trkpt lat="51.5937833" lon="-9.0994683"><ele>48.66666666666667</ele><time>2026-05-05T13:14:35.201Z</time></trkpt><trkpt lat="51.5936267" lon="-9.0997233"><ele>48.0</ele><time>2026-05-05T13:14:36.201Z</time></trkpt><trkpt lat="51.593475" lon="-9.0999683"><ele>48.0</ele><time>2026-05-05T13:14:37.202Z</time></trkpt><trkpt lat="51.5933" lon="-9.10019"><ele>48.0</ele><time>2026-05-05T13:14:38.201Z</time></trkpt><trkpt lat="51.5931567" lon="-9.1004483"><ele>48.0</ele><time>2026-05-05T13:14:39.201Z</time></trkpt><trkpt lat="51.5930083" lon="-9.100705"><ele>46.666666666666664</ele><time>2026-05-05T13:14:40.201Z</time></trkpt><trkpt lat="51.5928617" lon="-9.1009667"><ele>45.33333333333333</ele><time>2026-05-05T13:14:41.202Z</time></trkpt><trkpt lat="51.5927183" lon="-9.101245"><ele>44.0</ele><time>2026-05-05T13:14:42.202Z</time></trkpt><trkpt lat="51.5925883" lon="-9.1015533"><ele>46.0</ele><time>2026-05-05T13:14:43.202Z</time></trkpt><trkpt lat="51.5925083" lon="-9.1019"><ele>48.0</ele><time>2026-05-05T13:14:44.202Z</time></trkpt><trkpt lat="51.5924617" lon="-9.10222"><ele>50.0</ele><time>2026-05-05T13:14:45.202Z</time></trkpt><trkpt lat="51.5923317" lon="-9.102555"><ele>50.0</ele><time>2026-05-05T13:14:46.201Z</time></trkpt><trkpt lat="51.5922133" lon="-9.10288"><ele>50.0</ele><time>2026-05-05T13:14:47.201Z</time></trkpt><trkpt lat="51.5920967" lon="-9.1032117"><ele>52.5</ele><time>2026-05-05T13:14:48.202Z</time></trkpt><trkpt lat="51.5919917" lon="-9.10356"><ele>55.0</ele><time>2026-05-05T13:14:49.202Z</time></trkpt><trkpt lat="51.5918883" lon="-9.1039167"><ele>51.5</ele><time>2026-05-05T13:14:50.202Z</time></trkpt><trkpt lat="51.59179" lon="-9.1043017"><ele>48.0</ele><time>2026-05-05T13:14:51.202Z</time></trkpt><trkpt lat="51.591685" lon="-9.1047067"><ele>48.5</ele><time>2026-05-05T13:14:52.202Z</time></trkpt><trkpt lat="51.59158" lon="-9.1051017"><ele>49.0</ele><time>2026-05-05T13:14:53.202Z</time></trkpt><trkpt lat="51.5914783" lon="-9.105495"><ele>49.5</ele><time>2026-05-05T13:14:54.201Z</time></trkpt><trkpt lat="51.59138" lon="-9.1058883"><ele>50.0</ele><time>2026-05-05T13:14:55.201Z</time></trkpt><trkpt lat="51.59129" lon="-9.1062817"><ele>49.5</ele><time>2026-05-05T13:14:56.201Z</time></trkpt><trkpt lat="51.5912233" lon="-9.1066683"><ele>49.0</ele><time>2026-05-05T13:14:57.201Z</time></trkpt><trkpt lat="51.5911483" lon="-9.1070583"><ele>57.5</ele><time>2026-05-05T13:14:58.202Z</time></trkpt><trkpt lat="51.591065" lon="-9.10744"><ele>66.0</ele><time>2026-05-05T13:14:59.201Z</time></trkpt><trkpt lat="51.5909767" lon="-9.1078283"><ele>66.0</ele><time>2026-05-05T13:15:00.202Z</time></trkpt><trkpt lat="51.5908933" lon="-9.1082083"><ele>66.0</ele><time>2026-05-05T13:15:01.202Z</time></trkpt><trkpt lat="51.5908067" lon="-9.10859"><ele>64.0</ele><time>2026-05-05T13:15:02.202Z</time></trkpt><trkpt lat="51.590685" lon="-9.1089783"><ele>62.0</ele><time>2026-05-05T13:15:03.202Z</time></trkpt><trkpt lat="51.590575" lon="-9.1093383"><ele>59.5</ele><time>2026-05-05T13:15:04.202Z</time></trkpt><trkpt lat="51.59046" lon="-9.1097"><ele>57.0</ele><time>2026-05-05T13:15:05.202Z</time></trkpt><trkpt lat="51.5903433" lon="-9.1100583"><ele>60.0</ele><time>2026-05-05T13:15:06.202Z</time></trkpt><trkpt lat="51.59023" lon="-9.1104133"><ele>63.0</ele><time>2026-05-05T13:15:07.202Z</time></trkpt><trkpt lat="51.5901183" lon="-9.1107683"><ele>63.0</ele><time>2026-05-05T13:15:08.202Z</time></trkpt><trkpt lat="51.590005" lon="-9.11112"><ele>63.0</ele><time>2026-05-05T13:15:09.201Z</time></trkpt><trkpt lat="51.589905" lon="-9.1114733"><ele>58.5</ele><time>2026-05-05T13:15:10.201Z</time></trkpt><trkpt lat="51.5897783" lon="-9.11183"><ele>54.0</ele><time>2026-05-05T13:15:11.202Z</time></trkpt><trkpt lat="51.5896717" lon="-9.11219"><ele>52.0</ele><time>2026-05-05T13:15:12.201Z</time></trkpt><trkpt lat="51.58958" lon="-9.11255"><ele>50.0</ele><time>2026-05-05T13:15:13.201Z</time></trkpt><trkpt lat="51.58949" lon="-9.11291"><ele>50.5</ele><time>2026-05-05T13:15:14.202Z</time></trkpt><trkpt lat="51.5894083" lon="-9.11328"><ele>51.0</ele><time>2026-05-05T13:15:15.202Z</time></trkpt><trkpt lat="51.5893333" lon="-9.1136367"><ele>51.0</ele><time>2026-05-05T13:15:16.202Z</time></trkpt><trkpt lat="51.5892767" lon="-9.1140083"><ele>51.0</ele><time>2026-05-05T13:15:17.201Z</time></trkpt><trkpt lat="51.58923" lon="-9.1143817"><ele>49.5</ele><time>2026-05-05T13:15:18.202Z</time></trkpt><trkpt lat="51.58918" lon="-9.1147617"><ele>48.0</ele><time>2026-05-05T13:15:19.202Z</time></trkpt><trkpt lat="51.5891317" lon="-9.1151567"><ele>48.0</ele><time>2026-05-05T13:15:20.201Z</time></trkpt><trkpt lat="51.5890917" lon="-9.1155467"><ele>48.0</ele><time>2026-05-05T13:15:21.201Z</time></trkpt><trkpt lat="51.5890417" lon="-9.1159467"><ele>49.0</ele><time>2026-05-05T13:15:22.201Z</time></trkpt><trkpt lat="51.588995" lon="-9.1163483"><ele>50.0</ele><time>2026-05-05T13:15:23.202Z</time></trkpt><trkpt lat="51.5889417" lon="-9.116745"><ele>50.5</ele><time>2026-05-05T13:15:24.202Z</time></trkpt><trkpt lat="51.5888867" lon="-9.1171217"><ele>51.0</ele><time>2026-05-05T13:15:25.202Z</time></trkpt><trkpt lat="51.5888233" lon="-9.1174817"><ele>51.0</ele><time>2026-05-05T13:15:26.202Z</time></trkpt><trkpt lat="51.588765" lon="-9.1178217"><ele>51.0</ele><time>2026-05-05T13:15:27.202Z</time></trkpt><trkpt lat="51.5886783" lon="-9.11816"><ele>51.0</ele><time>2026-05-05T13:15:28.202Z</time></trkpt><trkpt lat="51.5885517" lon="-9.118505"><ele>51.0</ele><time>2026-05-05T13:15:29.201Z</time></trkpt><trkpt lat="51.58846" lon="-9.1188483"><ele>51.0</ele><time>2026-05-05T13:15:30.202Z</time></trkpt><trkpt lat="51.58837" lon="-9.1191867"><ele>51.0</ele><time>2026-05-05T13:15:31.202Z</time></trkpt><trkpt lat="51.5882767" lon="-9.1195283"><ele>51.0</ele><time>2026-05-05T13:15:32.202Z</time></trkpt><trkpt lat="51.5881717" lon="-9.119875"><ele>52.5</ele><time>2026-05-05T13:15:33.202Z</time></trkpt><trkpt lat="51.588055" lon="-9.1202167"><ele>54.0</ele><time>2026-05-05T13:15:34.202Z</time></trkpt><trkpt lat="51.5879033" lon="-9.1205567"><ele>52.0</ele><time>2026-05-05T13:15:35.202Z</time></trkpt><trkpt lat="51.5877317" lon="-9.120875"><ele>50.0</ele><time>2026-05-05T13:15:36.202Z</time></trkpt><trkpt lat="51.58757" lon="-9.1211667"><ele>50.0</ele><time>2026-05-05T13:15:37.202Z</time></trkpt><trkpt lat="51.58743" lon="-9.1214567"><ele>50.0</ele><time>2026-05-05T13:15:38.201Z</time></trkpt><trkpt lat="51.5873383" lon="-9.1217667"><ele>50.0</ele><time>2026-05-05T13:15:39.201Z</time></trkpt><trkpt lat="51.5872333" lon="-9.1220833"><ele>51.0</ele><time>2026-05-05T13:15:40.202Z</time></trkpt><trkpt lat="51.5871083" lon="-9.122445"><ele>52.0</ele><time>2026-05-05T13:15:41.202Z</time></trkpt><trkpt lat="51.5870033" lon="-9.1228167"><ele>50.0</ele><time>2026-05-05T13:15:42.201Z</time></trkpt><trkpt lat="51.58694" lon="-9.123185"><ele>48.0</ele><time>2026-05-05T13:15:43.201Z</time></trkpt><trkpt lat="51.5868333" lon="-9.123555"><ele>48.0</ele><time>2026-05-05T13:15:44.202Z</time></trkpt><trkpt lat="51.5867133" lon="-9.1239333"><ele>48.0</ele><time>2026-05-05T13:15:45.202Z</time></trkpt><trkpt lat="51.5865667" lon="-9.1242967"><ele>48.0</ele><time>2026-05-05T13:15:46.201Z</time></trkpt><trkpt lat="51.5864517" lon="-9.1246367"><ele>48.0</ele><time>2026-05-05T13:15:47.202Z</time></trkpt><trkpt lat="51.5863267" lon="-9.12496"><ele>48.0</ele><time>2026-05-05T13:15:48.201Z</time></trkpt><trkpt lat="51.5862083" lon="-9.1252783"><ele>48.0</ele><time>2026-05-05T13:15:49.202Z</time></trkpt><trkpt lat="51.5860933" lon="-9.1255933"><ele>49.0</ele><time>2026-05-05T13:15:50.201Z</time></trkpt><trkpt lat="51.5859717" lon="-9.125905"><ele>50.0</ele><time>2026-05-05T13:15:51.202Z</time></trkpt><trkpt lat="51.585845" lon="-9.126225"><ele>50.5</ele><time>2026-05-05T13:15:52.202Z</time></trkpt><trkpt lat="51.58573" lon="-9.126565"><ele>51.0</ele><time>2026-05-05T13:15:53.202Z</time></trkpt><trkpt lat="51.5856167" lon="-9.126915"><ele>51.0</ele><time>2026-05-05T13:15:54.202Z</time></trkpt><trkpt lat="51.5855133" lon="-9.12727"><ele>51.0</ele><time>2026-05-05T13:15:55.201Z</time></trkpt><trkpt lat="51.585415" lon="-9.1276233"><ele>49.5</ele><time>2026-05-05T13:15:56.201Z</time></trkpt><trkpt lat="51.5853183" lon="-9.1279633"><ele>48.0</ele><time>2026-05-05T13:15:57.202Z</time></trkpt><trkpt lat="51.5852417" lon="-9.1282933"><ele>46.666666666666664</ele><time>2026-05-05T13:15:58.202Z</time></trkpt><trkpt lat="51.5851817" lon="-9.1286"><ele>45.33333333333333</ele><time>2026-05-05T13:15:59.201Z</time></trkpt><trkpt lat="51.5851117" lon="-9.128895"><ele>44.0</ele><time>2026-05-05T13:16:00.201Z</time></trkpt><trkpt lat="51.5850383" lon="-9.12919"><ele>43.666666666666664</ele><time>2026-05-05T13:16:01.202Z</time></trkpt><trkpt lat="51.5849533" lon="-9.1294867"><ele>43.333333333333336</ele><time>2026-05-05T13:16:02.202Z</time></trkpt><trkpt lat="51.5848617" lon="-9.129785"><ele>43.0</ele><time>2026-05-05T13:16:03.202Z</time></trkpt><trkpt lat="51.5847267" lon="-9.1300633"><ele>42.5</ele><time>2026-05-05T13:16:04.202Z</time></trkpt><trkpt lat="51.5845883" lon="-9.13036"><ele>42.0</ele><time>2026-05-05T13:16:05.202Z</time></trkpt><trkpt lat="51.5844467" lon="-9.1306617"><ele>41.5</ele><time>2026-05-05T13:16:06.201Z</time></trkpt><trkpt lat="51.5843083" lon="-9.1309533"><ele>41.0</ele><time>2026-05-05T13:16:07.201Z</time></trkpt><trkpt lat="51.584155" lon="-9.1312417"><ele>41.0</ele><time>2026-05-05T13:16:08.201Z</time></trkpt><trkpt lat="51.5840017" lon="-9.13153"><ele>41.0</ele><time>2026-05-05T13:16:09.202Z</time></trkpt><trkpt lat="51.5838417" lon="-9.131825"><ele>41.0</ele><time>2026-05-05T13:16:10.202Z</time></trkpt><trkpt lat="51.5836817" lon="-9.1321267"><ele>41.0</ele><time>2026-05-05T13:16:11.201Z</time></trkpt><trkpt lat="51.5835333" lon="-9.13243"><ele>40.5</ele><time>2026-05-05T13:16:12.201Z</time></trkpt><trkpt lat="51.5833867" lon="-9.1327333"><ele>40.0</ele><time>2026-05-05T13:16:13.201Z</time></trkpt><trkpt lat="51.5832617" lon="-9.1330567"><ele>40.5</ele><time>2026-05-05T13:16:14.202Z</time></trkpt><trkpt lat="51.583125" lon="-9.1333783"><ele>41.0</ele><time>2026-05-05T13:16:15.201Z</time></trkpt><trkpt lat="51.5830217" lon="-9.13369"><ele>41.0</ele><time>2026-05-05T13:16:16.201Z</time></trkpt><trkpt lat="51.58293" lon="-9.1340017"><ele>41.0</ele><time>2026-05-05T13:16:17.202Z</time></trkpt><trkpt lat="51.5828283" lon="-9.1343233"><ele>41.0</ele><time>2026-05-05T13:16:18.202Z</time></trkpt><trkpt lat="51.582725" lon="-9.1346383"><ele>39.33333333333333</ele><time>2026-05-05T13:16:19.201Z</time></trkpt><trkpt lat="51.58263" lon="-9.134945"><ele>37.666666666666664</ele><time>2026-05-05T13:16:20.201Z</time></trkpt><trkpt lat="51.58255" lon="-9.1352317"><ele>36.0</ele><time>2026-05-05T13:16:21.202Z</time></trkpt><trkpt lat="51.5824867" lon="-9.1354883"><ele>36.0</ele><time>2026-05-05T13:16:22.202Z</time></trkpt><trkpt lat="51.5824283" lon="-9.1357117"><ele>36.0</ele><time>2026-05-05T13:16:23.202Z</time></trkpt><trkpt lat="51.5823767" lon="-9.1359117"><ele>36.0</ele><time>2026-05-05T13:16:24.202Z</time></trkpt><trkpt lat="51.58232" lon="-9.1361017"><ele>36.0</ele><time>2026-05-05T13:16:25.202Z</time></trkpt><trkpt lat="51.58227" lon="-9.136275"><ele>36.0</ele><time>2026-05-05T13:16:26.201Z</time></trkpt><trkpt lat="51.5822317" lon="-9.136465"><ele>36.0</ele><time>2026-05-05T13:16:27.202Z</time></trkpt><trkpt lat="51.5821833" lon="-9.136655"><ele>36.0</ele><time>2026-05-05T13:16:28.202Z</time></trkpt><trkpt lat="51.58212" lon="-9.13687"><ele>36.0</ele><time>2026-05-05T13:16:29.202Z</time></trkpt><trkpt lat="51.58205" lon="-9.1370883"><ele>36.25</ele><time>2026-05-05T13:16:30.202Z</time></trkpt><trkpt lat="51.582" lon="-9.1372733"><ele>36.5</ele><time>2026-05-05T13:16:31.202Z</time></trkpt><trkpt lat="51.5819567" lon="-9.1374567"><ele>36.75</ele><time>2026-05-05T13:16:32.202Z</time></trkpt><trkpt lat="51.5819067" lon="-9.13762"><ele>37.0</ele><time>2026-05-05T13:16:33.202Z</time></trkpt><trkpt lat="51.5818483" lon="-9.13778"><ele>36.6</ele><time>2026-05-05T13:16:34.201Z</time></trkpt><trkpt lat="51.5817967" lon="-9.1379183"><ele>36.2</ele><time>2026-05-05T13:16:35.202Z</time></trkpt><trkpt lat="51.58175" lon="-9.1380483"><ele>35.8</ele><time>2026-05-05T13:16:36.202Z</time></trkpt><trkpt lat="51.5816983" lon="-9.13817"><ele>35.4</ele><time>2026-05-05T13:16:37.201Z</time></trkpt><trkpt lat="51.5816567" lon="-9.1383017"><ele>35.0</ele><time>2026-05-05T13:16:38.201Z</time></trkpt><trkpt lat="51.5816133" lon="-9.1384283"><ele>34.75</ele><time>2026-05-05T13:16:39.201Z</time></trkpt><trkpt lat="51.581565" lon="-9.13857"><ele>34.5</ele><time>2026-05-05T13:16:40.202Z</time></trkpt><trkpt lat="51.5815067" lon="-9.1387367"><ele>34.25</ele><time>2026-05-05T13:16:41.202Z</time></trkpt><trkpt lat="51.5814467" lon="-9.138935"><ele>34.0</ele><time>2026-05-05T13:16:42.202Z</time></trkpt><trkpt lat="51.581375" lon="-9.139155"><ele>34.0</ele><time>2026-05-05T13:16:43.202Z</time></trkpt><trkpt lat="51.5813217" lon="-9.1394183"><ele>34.0</ele><time>2026-05-05T13:16:44.201Z</time></trkpt><trkpt lat="51.5812967" lon="-9.139695"><ele>34.0</ele><time>2026-05-05T13:16:45.202Z</time></trkpt><trkpt lat="51.5812767" lon="-9.13995"><ele>35.25</ele><time>2026-05-05T13:16:46.202Z</time></trkpt><trkpt lat="51.58126" lon="-9.1401733"><ele>36.5</ele><time>2026-05-05T13:16:47.202Z</time></trkpt><trkpt lat="51.5812383" lon="-9.1404017"><ele>37.75</ele><time>2026-05-05T13:16:48.202Z</time></trkpt><trkpt lat="51.5812117" lon="-9.1406433"><ele>39.0</ele><time>2026-05-05T13:16:49.201Z</time></trkpt><trkpt lat="51.5811933" lon="-9.140885"><ele>36.5</ele><time>2026-05-05T13:16:50.202Z</time></trkpt><trkpt lat="51.5811767" lon="-9.1411183"><ele>34.0</ele><time>2026-05-05T13:16:51.202Z</time></trkpt><trkpt lat="51.5811633" lon="-9.1413367"><ele>31.5</ele><time>2026-05-05T13:16:52.201Z</time></trkpt><trkpt lat="51.5811483" lon="-9.14154"><ele>29.0</ele><time>2026-05-05T13:16:53.202Z</time></trkpt><trkpt lat="51.5811317" lon="-9.141745"><ele>28.5</ele><time>2026-05-05T13:16:54.202Z</time></trkpt><trkpt lat="51.5810983" lon="-9.141955"><ele>28.0</ele><time>2026-05-05T13:16:55.201Z</time></trkpt><trkpt lat="51.58105" lon="-9.1421767"><ele>27.5</ele><time>2026-05-05T13:16:56.201Z</time></trkpt><trkpt lat="51.58099" lon="-9.1424"><ele>27.0</ele><time>2026-05-05T13:16:57.201Z</time></trkpt><trkpt lat="51.5809433" lon="-9.1426167"><ele>26.75</ele><time>2026-05-05T13:16:58.202Z</time></trkpt><trkpt lat="51.5809033" lon="-9.1428183"><ele>26.5</ele><time>2026-05-05T13:16:59.201Z</time></trkpt><trkpt lat="51.5808633" lon="-9.1429983"><ele>26.25</ele><time>2026-05-05T13:17:00.202Z</time></trkpt><trkpt lat="51.5808433" lon="-9.1431867"><ele>26.0</ele><time>2026-05-05T13:17:01.201Z</time></trkpt><trkpt lat="51.5808217" lon="-9.143375"><ele>25.6</ele><time>2026-05-05T13:17:02.202Z</time></trkpt><trkpt lat="51.5808133" lon="-9.14355"><ele>25.200000000000003</ele><time>2026-05-05T13:17:03.202Z</time></trkpt><trkpt lat="51.580805" lon="-9.143715"><ele>24.799999999999997</ele><time>2026-05-05T13:17:04.201Z</time></trkpt><trkpt lat="51.5808133" lon="-9.143865"><ele>24.4</ele><time>2026-05-05T13:17:05.202Z</time></trkpt><trkpt lat="51.58082" lon="-9.1440133"><ele>24.0</ele><time>2026-05-05T13:17:06.202Z</time></trkpt><trkpt lat="51.580815" lon="-9.1441567"><ele>23.2</ele><time>2026-05-05T13:17:07.202Z</time></trkpt><trkpt lat="51.5807967" lon="-9.1443133"><ele>22.4</ele><time>2026-05-05T13:17:08.202Z</time></trkpt><trkpt lat="51.580765" lon="-9.14447"><ele>21.6</ele><time>2026-05-05T13:17:09.201Z</time></trkpt><trkpt lat="51.580715" lon="-9.1446183"><ele>20.8</ele><time>2026-05-05T13:17:10.202Z</time></trkpt><trkpt lat="51.5806583" lon="-9.1447317"><ele>20.0</ele><time>2026-05-05T13:17:11.202Z</time></trkpt><trkpt lat="51.5806033" lon="-9.14485"><ele>20.2</ele><time>2026-05-05T13:17:12.202Z</time></trkpt><trkpt lat="51.5805283" lon="-9.144955"><ele>20.4</ele><time>2026-05-05T13:17:13.202Z</time></trkpt><trkpt lat="51.5804567" lon="-9.14506"><ele>20.6</ele><time>2026-05-05T13:17:14.201Z</time></trkpt><trkpt lat="51.5803733" lon="-9.1451683"><ele>20.8</ele><time>2026-05-05T13:17:15.202Z</time></trkpt><trkpt lat="51.5802933" lon="-9.1452967"><ele>21.0</ele><time>2026-05-05T13:17:16.202Z</time></trkpt><trkpt lat="51.58019" lon="-9.1454517"><ele>18.666666666666668</ele><time>2026-05-05T13:17:17.201Z</time></trkpt><trkpt lat="51.5800717" lon="-9.145635"><ele>16.333333333333336</ele><time>2026-05-05T13:17:18.201Z</time></trkpt><trkpt lat="51.5799533" lon="-9.1458433"><ele>14.0</ele><time>2026-05-05T13:17:19.202Z</time></trkpt><trkpt lat="51.579845" lon="-9.1460867"><ele>14.0</ele><time>2026-05-05T13:17:20.202Z</time></trkpt><trkpt lat="51.579765" lon="-9.1463383"><ele>14.0</ele><time>2026-05-05T13:17:21.201Z</time></trkpt><trkpt lat="51.579695" lon="-9.14657"><ele>14.0</ele><time>2026-05-05T13:17:22.202Z</time></trkpt><trkpt lat="51.5796433" lon="-9.1468"><ele>15.75</ele><time>2026-05-05T13:17:23.201Z</time></trkpt><trkpt lat="51.5796017" lon="-9.1470217"><ele>17.5</ele><time>2026-05-05T13:17:24.201Z</time></trkpt><trkpt lat="51.57958" lon="-9.1472483"><ele>19.25</ele><time>2026-05-05T13:17:25.202Z</time></trkpt><trkpt lat="51.5795517" lon="-9.147455"><ele>21.0</ele><time>2026-05-05T13:17:26.201Z</time></trkpt><trkpt lat="51.5795383" lon="-9.1476633"><ele>19.25</ele><time>2026-05-05T13:17:27.201Z</time></trkpt><trkpt lat="51.57951" lon="-9.1478867"><ele>17.5</ele><time>2026-05-05T13:17:28.202Z</time></trkpt><trkpt lat="51.579485" lon="-9.148115"><ele>15.75</ele><time>2026-05-05T13:17:29.202Z</time></trkpt><trkpt lat="51.5794683" lon="-9.148345"><ele>14.0</ele><time>2026-05-05T13:17:30.201Z</time></trkpt><trkpt lat="51.57944" lon="-9.1485967"><ele>14.0</ele><time>2026-05-05T13:17:31.201Z</time></trkpt><trkpt lat="51.5793917" lon="-9.1488583"><ele>14.0</ele><time>2026-05-05T13:17:32.201Z</time></trkpt><trkpt lat="51.5793383" lon="-9.1491017"><ele>14.0</ele><time>2026-05-05T13:17:33.202Z</time></trkpt><trkpt lat="51.5792833" lon="-9.149355"><ele>15.0</ele><time>2026-05-05T13:17:34.202Z</time></trkpt><trkpt lat="51.5791967" lon="-9.149635"><ele>16.0</ele><time>2026-05-05T13:17:35.201Z</time></trkpt><trkpt lat="51.5791133" lon="-9.1499283"><ele>17.0</ele><time>2026-05-05T13:17:36.201Z</time></trkpt><trkpt lat="51.57903" lon="-9.1502133"><ele>18.0</ele><time>2026-05-05T13:17:37.201Z</time></trkpt><trkpt lat="51.5789533" lon="-9.150495"><ele>19.0</ele><time>2026-05-05T13:17:38.202Z</time></trkpt><trkpt lat="51.5788817" lon="-9.1507867"><ele>20.0</ele><time>2026-05-05T13:17:39.202Z</time></trkpt><trkpt lat="51.578815" lon="-9.1510767"><ele>21.0</ele><time>2026-05-05T13:17:40.202Z</time></trkpt><trkpt lat="51.5787583" lon="-9.15136"><ele>22.0</ele><time>2026-05-05T13:17:41.201Z</time></trkpt><trkpt lat="51.578705" lon="-9.15164"><ele>23.0</ele><time>2026-05-05T13:17:42.202Z</time></trkpt><trkpt lat="51.5786633" lon="-9.1519033"><ele>23.0</ele><time>2026-05-05T13:17:43.201Z</time></trkpt><trkpt lat="51.5786367" lon="-9.1521467"><ele>23.0</ele><time>2026-05-05T13:17:44.202Z</time></trkpt><trkpt lat="51.5786083" lon="-9.1523883"><ele>23.0</ele><time>2026-05-05T13:17:45.202Z</time></trkpt><trkpt lat="51.5785983" lon="-9.1526283"><ele>25.333333333333336</ele><time>2026-05-05T13:17:46.202Z</time></trkpt><trkpt lat="51.5785883" lon="-9.152865"><ele>27.666666666666668</ele><time>2026-05-05T13:17:47.202Z</time></trkpt><trkpt lat="51.5785467" lon="-9.1531067"><ele>30.0</ele><time>2026-05-05T13:17:48.201Z</time></trkpt><trkpt lat="51.5785933" lon="-9.1533917"><ele>31.666666666666664</ele><time>2026-05-05T13:17:49.202Z</time></trkpt><trkpt lat="51.5786467" lon="-9.153725"><ele>33.33333333333333</ele><time>2026-05-05T13:17:50.201Z</time></trkpt><trkpt lat="51.578685" lon="-9.1540567"><ele>35.0</ele><time>2026-05-05T13:17:51.202Z</time></trkpt><trkpt lat="51.5787233" lon="-9.1543967"><ele>36.33333333333333</ele><time>2026-05-05T13:17:52.202Z</time></trkpt><trkpt lat="51.578745" lon="-9.1547233"><ele>37.666666666666664</ele><time>2026-05-05T13:17:53.202Z</time></trkpt><trkpt lat="51.5787183" lon="-9.1550417"><ele>39.0</ele><time>2026-05-05T13:17:54.201Z</time></trkpt><trkpt lat="51.5787033" lon="-9.155365"><ele>41.0</ele><time>2026-05-05T13:17:55.201Z</time></trkpt><trkpt lat="51.5786833" lon="-9.1556783"><ele>43.0</ele><time>2026-05-05T13:17:56.202Z</time></trkpt><trkpt lat="51.5786667" lon="-9.1559667"><ele>45.0</ele><time>2026-05-05T13:17:57.202Z</time></trkpt><trkpt lat="51.578635" lon="-9.1562417"><ele>45.0</ele><time>2026-05-05T13:17:58.201Z</time></trkpt><trkpt lat="51.57856" lon="-9.1565283"><ele>45.0</ele><time>2026-05-05T13:17:59.202Z</time></trkpt><trkpt lat="51.57845" lon="-9.1567983"><ele>45.0</ele><time>2026-05-05T13:18:00.202Z</time></trkpt><trkpt lat="51.5783383" lon="-9.1570283"><ele>43.333333333333336</ele><time>2026-05-05T13:18:01.202Z</time></trkpt><trkpt lat="51.578205" lon="-9.1572417"><ele>41.66666666666667</ele><time>2026-05-05T13:18:02.202Z</time></trkpt><trkpt lat="51.5780667" lon="-9.15742"><ele>40.0</ele><time>2026-05-05T13:18:03.202Z</time></trkpt><trkpt lat="51.5779417" lon="-9.157605"><ele>40.333333333333336</ele><time>2026-05-05T13:18:04.201Z</time></trkpt><trkpt lat="51.5778683" lon="-9.1578167"><ele>40.666666666666664</ele><time>2026-05-05T13:18:05.202Z</time></trkpt><trkpt lat="51.5777183" lon="-9.157985"><ele>41.0</ele><time>2026-05-05T13:18:06.201Z</time></trkpt><trkpt lat="51.5776433" lon="-9.1582"><ele>40.0</ele><time>2026-05-05T13:18:07.202Z</time></trkpt><trkpt lat="51.5775617" lon="-9.1584167"><ele>39.0</ele><time>2026-05-05T13:18:08.202Z</time></trkpt><trkpt lat="51.5774533" lon="-9.1586233"><ele>38.0</ele><time>2026-05-05T13:18:09.202Z</time></trkpt><trkpt lat="51.57735" lon="-9.1588433"><ele>40.666666666666664</ele><time>2026-05-05T13:18:10.202Z</time></trkpt><trkpt lat="51.5772433" lon="-9.1590833"><ele>43.333333333333336</ele><time>2026-05-05T13:18:11.201Z</time></trkpt><trkpt lat="51.5771333" lon="-9.1593117"><ele>46.0</ele><time>2026-05-05T13:18:12.202Z</time></trkpt><trkpt lat="51.5770267" lon="-9.1595583"><ele>45.66666666666667</ele><time>2026-05-05T13:18:13.202Z</time></trkpt><trkpt lat="51.5769067" lon="-9.1598183"><ele>45.333333333333336</ele><time>2026-05-05T13:18:14.201Z</time></trkpt><trkpt lat="51.5767917" lon="-9.160085"><ele>45.0</ele><time>2026-05-05T13:18:15.201Z</time></trkpt><trkpt lat="51.5766717" lon="-9.1603633"><ele>45.666666666666664</ele><time>2026-05-05T13:18:16.202Z</time></trkpt><trkpt lat="51.5765567" lon="-9.1606533"><ele>46.33333333333333</ele><time>2026-05-05T13:18:17.201Z</time></trkpt><trkpt lat="51.57641" lon="-9.16092"><ele>47.0</ele><time>2026-05-05T13:18:18.202Z</time></trkpt><trkpt lat="51.57628" lon="-9.1611817"><ele>50.0</ele><time>2026-05-05T13:18:19.202Z</time></trkpt><trkpt lat="51.576175" lon="-9.161455"><ele>53.0</ele><time>2026-05-05T13:18:20.201Z</time></trkpt><trkpt lat="51.5760933" lon="-9.1617083"><ele>56.0</ele><time>2026-05-05T13:18:21.201Z</time></trkpt><trkpt lat="51.5760267" lon="-9.16196"><ele>56.0</ele><time>2026-05-05T13:18:22.202Z</time></trkpt><trkpt lat="51.57594" lon="-9.1621967"><ele>56.0</ele><time>2026-05-05T13:18:23.202Z</time></trkpt><trkpt lat="51.5758633" lon="-9.1624417"><ele>56.0</ele><time>2026-05-05T13:18:24.202Z</time></trkpt><trkpt lat="51.575755" lon="-9.1627033"><ele>55.66666666666667</ele><time>2026-05-05T13:18:25.201Z</time></trkpt><trkpt lat="51.575635" lon="-9.1629733"><ele>55.33333333333333</ele><time>2026-05-05T13:18:26.202Z</time></trkpt><trkpt lat="51.5754733" lon="-9.16326"><ele>55.0</ele><time>2026-05-05T13:18:27.202Z</time></trkpt><trkpt lat="51.5753483" lon="-9.16356"><ele>55.0</ele><time>2026-05-05T13:18:28.201Z</time></trkpt><trkpt lat="51.5752033" lon="-9.16388"><ele>55.0</ele><time>2026-05-05T13:18:29.202Z</time></trkpt><trkpt lat="51.5750667" lon="-9.1642183"><ele>53.0</ele><time>2026-05-05T13:18:30.202Z</time></trkpt><trkpt lat="51.5749417" lon="-9.1645733"><ele>51.0</ele><time>2026-05-05T13:18:31.201Z</time></trkpt><trkpt lat="51.5748167" lon="-9.1649233"><ele>48.5</ele><time>2026-05-05T13:18:32.202Z</time></trkpt><trkpt lat="51.5746933" lon="-9.16525"><ele>46.0</ele><time>2026-05-05T13:18:33.202Z</time></trkpt><trkpt lat="51.5745733" lon="-9.165545"><ele>49.333333333333336</ele><time>2026-05-05T13:18:34.202Z</time></trkpt><trkpt lat="51.574455" lon="-9.1658217"><ele>52.66666666666667</ele><time>2026-05-05T13:18:35.202Z</time></trkpt><trkpt lat="51.5743517" lon="-9.1661"><ele>56.0</ele><time>2026-05-05T13:18:36.202Z</time></trkpt><trkpt lat="51.5742467" lon="-9.1663467"><ele>54.333333333333336</ele><time>2026-05-05T13:18:37.201Z</time></trkpt><trkpt lat="51.5741467" lon="-9.1665783"><ele>52.66666666666667</ele><time>2026-05-05T13:18:38.202Z</time></trkpt><trkpt lat="51.5740633" lon="-9.1668067"><ele>51.0</ele><time>2026-05-05T13:18:39.202Z</time></trkpt><trkpt lat="51.5739867" lon="-9.167005"><ele>51.0</ele><time>2026-05-05T13:18:40.202Z</time></trkpt><trkpt lat="51.5739117" lon="-9.167215"><ele>51.0</ele><time>2026-05-05T13:18:41.201Z</time></trkpt><trkpt lat="51.57383" lon="-9.1674283"><ele>51.0</ele><time>2026-05-05T13:18:42.201Z</time></trkpt><trkpt lat="51.5737567" lon="-9.1676483"><ele>51.66666666666667</ele><time>2026-05-05T13:18:43.202Z</time></trkpt><trkpt lat="51.5736933" lon="-9.1678767"><ele>52.333333333333336</ele><time>2026-05-05T13:18:44.201Z</time></trkpt><trkpt lat="51.5736233" lon="-9.1681083"><ele>53.0</ele><time>2026-05-05T13:18:45.202Z</time></trkpt><trkpt lat="51.5735383" lon="-9.1683333"><ele>53.0</ele><time>2026-05-05T13:18:46.201Z</time></trkpt><trkpt lat="51.57344" lon="-9.1685567"><ele>53.0</ele><time>2026-05-05T13:18:47.201Z</time></trkpt><trkpt lat="51.5733533" lon="-9.1687667"><ele>53.0</ele><time>2026-05-05T13:18:48.202Z</time></trkpt><trkpt lat="51.5732683" lon="-9.1689933"><ele>52.66666666666667</ele><time>2026-05-05T13:18:49.202Z</time></trkpt><trkpt lat="51.5731517" lon="-9.169235"><ele>52.33333333333333</ele><time>2026-05-05T13:18:50.201Z</time></trkpt><trkpt lat="51.573025" lon="-9.1694767"><ele>52.0</ele><time>2026-05-05T13:18:51.202Z</time></trkpt><trkpt lat="51.5728933" lon="-9.1697233"><ele>54.0</ele><time>2026-05-05T13:18:52.201Z</time></trkpt><trkpt lat="51.5727833" lon="-9.1699617"><ele>56.0</ele><time>2026-05-05T13:18:53.202Z</time></trkpt><trkpt lat="51.5726417" lon="-9.1701933"><ele>58.0</ele><time>2026-05-05T13:18:54.202Z</time></trkpt><trkpt lat="51.5724917" lon="-9.1704117"><ele>58.0</ele><time>2026-05-05T13:18:55.201Z</time></trkpt><trkpt lat="51.5722583" lon="-9.1706267"><ele>58.0</ele><time>2026-05-05T13:18:56.202Z</time></trkpt><trkpt lat="51.572075" lon="-9.1708217"><ele>58.0</ele><time>2026-05-05T13:18:57.201Z</time></trkpt><trkpt lat="51.5718633" lon="-9.1710017"><ele>58.0</ele><time>2026-05-05T13:18:58.201Z</time></trkpt><trkpt lat="51.57167" lon="-9.1711817"><ele>58.0</ele><time>2026-05-05T13:18:59.202Z</time></trkpt><trkpt lat="51.57147" lon="-9.1713383"><ele>58.0</ele><time>2026-05-05T13:19:00.201Z</time></trkpt><trkpt lat="51.57129" lon="-9.17147"><ele>58.0</ele><time>2026-05-05T13:19:01.202Z</time></trkpt><trkpt lat="51.5711133" lon="-9.1715967"><ele>57.0</ele><time>2026-05-05T13:19:02.202Z</time></trkpt><trkpt lat="51.5709417" lon="-9.1717383"><ele>56.0</ele><time>2026-05-05T13:19:03.202Z</time></trkpt><trkpt lat="51.570785" lon="-9.1719183"><ele>55.0</ele><time>2026-05-05T13:19:04.202Z</time></trkpt><trkpt lat="51.5706367" lon="-9.1721217"><ele>55.0</ele><time>2026-05-05T13:19:05.201Z</time></trkpt><trkpt lat="51.570495" lon="-9.1723433"><ele>55.0</ele><time>2026-05-05T13:19:06.202Z</time></trkpt><trkpt lat="51.5703817" lon="-9.17259"><ele>55.0</ele><time>2026-05-05T13:19:07.201Z</time></trkpt><trkpt lat="51.5702617" lon="-9.17284"><ele>54.33333333333333</ele><time>2026-05-05T13:19:08.202Z</time></trkpt><trkpt lat="51.57016" lon="-9.1730983"><ele>53.66666666666667</ele><time>2026-05-05T13:19:09.202Z</time></trkpt><trkpt lat="51.570075" lon="-9.1733433"><ele>53.0</ele><time>2026-05-05T13:19:10.202Z</time></trkpt><trkpt lat="51.57" lon="-9.1736183"><ele>53.0</ele><time>2026-05-05T13:19:11.201Z</time></trkpt><trkpt lat="51.5699517" lon="-9.1739017"><ele>53.0</ele><time>2026-05-05T13:19:12.202Z</time></trkpt><trkpt lat="51.5699233" lon="-9.1741783"><ele>53.0</ele><time>2026-05-05T13:19:13.202Z</time></trkpt><trkpt lat="51.5698883" lon="-9.1744583"><ele>52.333333333333336</ele><time>2026-05-05T13:19:14.201Z</time></trkpt><trkpt lat="51.5698433" lon="-9.1747433"><ele>51.66666666666667</ele><time>2026-05-05T13:19:15.202Z</time></trkpt><trkpt lat="51.5698133" lon="-9.1750467"><ele>51.0</ele><time>2026-05-05T13:19:16.201Z</time></trkpt><trkpt lat="51.56979" lon="-9.1753717"><ele>50.0</ele><time>2026-05-05T13:19:17.202Z</time></trkpt><trkpt lat="51.56977" lon="-9.1757033"><ele>49.0</ele><time>2026-05-05T13:19:18.202Z</time></trkpt><trkpt lat="51.5697617" lon="-9.1760233"><ele>48.0</ele><time>2026-05-05T13:19:19.202Z</time></trkpt><trkpt lat="51.5697517" lon="-9.1763333"><ele>48.0</ele><time>2026-05-05T13:19:20.202Z</time></trkpt><trkpt lat="51.5697317" lon="-9.1766517"><ele>48.0</ele><time>2026-05-05T13:19:21.202Z</time></trkpt><trkpt lat="51.5697183" lon="-9.17695"><ele>48.0</ele><time>2026-05-05T13:19:22.202Z</time></trkpt><trkpt lat="51.5696933" lon="-9.1772617"><ele>48.33333333333333</ele><time>2026-05-05T13:19:23.201Z</time></trkpt><trkpt lat="51.5696767" lon="-9.177565"><ele>48.666666666666664</ele><time>2026-05-05T13:19:24.202Z</time></trkpt><trkpt lat="51.5695867" lon="-9.1778667"><ele>49.0</ele><time>2026-05-05T13:19:25.202Z</time></trkpt><trkpt lat="51.5695383" lon="-9.17818"><ele>49.0</ele><time>2026-05-05T13:19:26.201Z</time></trkpt><trkpt lat="51.5694883" lon="-9.1784717"><ele>49.0</ele><time>2026-05-05T13:19:27.202Z</time></trkpt><trkpt lat="51.5694367" lon="-9.1787733"><ele>49.0</ele><time>2026-05-05T13:19:28.202Z</time></trkpt><trkpt lat="51.5693783" lon="-9.1790567"><ele>49.33333333333333</ele><time>2026-05-05T13:19:29.201Z</time></trkpt><trkpt lat="51.5693433" lon="-9.1793367"><ele>49.66666666666667</ele><time>2026-05-05T13:19:30.202Z</time></trkpt><trkpt lat="51.56932" lon="-9.1796117"><ele>50.0</ele><time>2026-05-05T13:19:31.201Z</time></trkpt><trkpt lat="51.5692833" lon="-9.1798917"><ele>50.0</ele><time>2026-05-05T13:19:32.202Z</time></trkpt><trkpt lat="51.5692383" lon="-9.1801917"><ele>50.0</ele><time>2026-05-05T13:19:33.201Z</time></trkpt><trkpt lat="51.5692867" lon="-9.1804983"><ele>50.0</ele><time>2026-05-05T13:19:34.202Z</time></trkpt><trkpt lat="51.5692467" lon="-9.18081"><ele>49.66666666666667</ele><time>2026-05-05T13:19:35.201Z</time></trkpt><trkpt lat="51.5691433" lon="-9.181115"><ele>49.33333333333333</ele><time>2026-05-05T13:19:36.201Z</time></trkpt><trkpt lat="51.569055" lon="-9.1814267"><ele>49.0</ele><time>2026-05-05T13:19:37.202Z</time></trkpt><trkpt lat="51.5689883" lon="-9.1817267"><ele>48.666666666666664</ele><time>2026-05-05T13:19:38.202Z</time></trkpt><trkpt lat="51.5689367" lon="-9.1820233"><ele>48.33333333333333</ele><time>2026-05-05T13:19:39.201Z</time></trkpt><trkpt lat="51.5688733" lon="-9.1823217"><ele>48.0</ele><time>2026-05-05T13:19:40.202Z</time></trkpt><trkpt lat="51.5688167" lon="-9.1825983"><ele>47.333333333333336</ele><time>2026-05-05T13:19:41.202Z</time></trkpt><trkpt lat="51.568725" lon="-9.1828433"><ele>46.66666666666667</ele><time>2026-05-05T13:19:42.202Z</time></trkpt><trkpt lat="51.56864" lon="-9.1831133"><ele>46.0</ele><time>2026-05-05T13:19:43.201Z</time></trkpt><trkpt lat="51.568565" lon="-9.1834"><ele>47.66666666666667</ele><time>2026-05-05T13:19:44.202Z</time></trkpt><trkpt lat="51.5684983" lon="-9.1836867"><ele>49.333333333333336</ele><time>2026-05-05T13:19:45.202Z</time></trkpt><trkpt lat="51.5684217" lon="-9.1839717"><ele>51.0</ele><time>2026-05-05T13:19:46.202Z</time></trkpt><trkpt lat="51.568275" lon="-9.1845783"><ele>49.0</ele><time>2026-05-05T13:19:48.202Z</time></trkpt><trkpt lat="51.5681817" lon="-9.184875"><ele>47.0</ele><time>2026-05-05T13:19:49.201Z</time></trkpt><trkpt lat="51.5680617" lon="-9.1851817"><ele>45.0</ele><time>2026-05-05T13:19:50.202Z</time></trkpt><trkpt lat="51.567935" lon="-9.1854917"><ele>46.5</ele><time>2026-05-05T13:19:51.202Z</time></trkpt><trkpt lat="51.5678183" lon="-9.185795"><ele>48.0</ele><time>2026-05-05T13:19:52.201Z</time></trkpt><trkpt lat="51.567675" lon="-9.1860933"><ele>48.0</ele><time>2026-05-05T13:19:53.202Z</time></trkpt><trkpt lat="51.5675383" lon="-9.1863917"><ele>48.0</ele><time>2026-05-05T13:19:54.202Z</time></trkpt><trkpt lat="51.5674" lon="-9.1866817"><ele>46.666666666666664</ele><time>2026-05-05T13:19:55.202Z</time></trkpt><trkpt lat="51.56731" lon="-9.18696"><ele>45.33333333333333</ele><time>2026-05-05T13:19:56.202Z</time></trkpt><trkpt lat="51.5671767" lon="-9.1872467"><ele>44.0</ele><time>2026-05-05T13:19:57.201Z</time></trkpt><trkpt lat="51.5670483" lon="-9.187545"><ele>48.0</ele><time>2026-05-05T13:19:58.202Z</time></trkpt><trkpt lat="51.5668933" lon="-9.187855"><ele>52.0</ele><time>2026-05-05T13:19:59.202Z</time></trkpt><trkpt lat="51.5667583" lon="-9.1881633"><ele>50.666666666666664</ele><time>2026-05-05T13:20:00.202Z</time></trkpt><trkpt lat="51.5666767" lon="-9.18846"><ele>49.33333333333333</ele><time>2026-05-05T13:20:01.202Z</time></trkpt><trkpt lat="51.56663" lon="-9.1887667"><ele>48.0</ele><time>2026-05-05T13:20:02.201Z</time></trkpt><trkpt lat="51.5665867" lon="-9.1890867"><ele>47.333333333333336</ele><time>2026-05-05T13:20:03.201Z</time></trkpt><trkpt lat="51.56656" lon="-9.1894233"><ele>46.66666666666667</ele><time>2026-05-05T13:20:04.201Z</time></trkpt><trkpt lat="51.5665567" lon="-9.1897583"><ele>46.0</ele><time>2026-05-05T13:20:05.201Z</time></trkpt><trkpt lat="51.5665783" lon="-9.1900983"><ele>46.0</ele><time>2026-05-05T13:20:06.201Z</time></trkpt><trkpt lat="51.566615" lon="-9.1904433"><ele>46.0</ele><time>2026-05-05T13:20:07.202Z</time></trkpt><trkpt lat="51.566625" lon="-9.1908"><ele>46.0</ele><time>2026-05-05T13:20:08.202Z</time></trkpt><trkpt lat="51.5666367" lon="-9.1911583"><ele>46.0</ele><time>2026-05-05T13:20:09.201Z</time></trkpt><trkpt lat="51.5666467" lon="-9.1915017"><ele>46.0</ele><time>2026-05-05T13:20:10.202Z</time></trkpt><trkpt lat="51.566655" lon="-9.19183"><ele>46.0</ele><time>2026-05-05T13:20:11.202Z</time></trkpt><trkpt lat="51.5666483" lon="-9.192155"><ele>46.333333333333336</ele><time>2026-05-05T13:20:12.202Z</time></trkpt><trkpt lat="51.5666317" lon="-9.192485"><ele>46.666666666666664</ele><time>2026-05-05T13:20:13.202Z</time></trkpt><trkpt lat="51.5666217" lon="-9.1928283"><ele>47.0</ele><time>2026-05-05T13:20:14.201Z</time></trkpt><trkpt lat="51.5665867" lon="-9.1932033"><ele>46.0</ele><time>2026-05-05T13:20:15.201Z</time></trkpt><trkpt lat="51.5665433" lon="-9.1936083"><ele>45.0</ele><time>2026-05-05T13:20:16.201Z</time></trkpt><trkpt lat="51.566485" lon="-9.1940533"><ele>44.0</ele><time>2026-05-05T13:20:17.202Z</time></trkpt><trkpt lat="51.5664267" lon="-9.1945067"><ele>43.0</ele><time>2026-05-05T13:20:18.201Z</time></trkpt><trkpt lat="51.5663667" lon="-9.1949583"><ele>42.5</ele><time>2026-05-05T13:20:19.202Z</time></trkpt><trkpt lat="51.5663083" lon="-9.1954033"><ele>42.0</ele><time>2026-05-05T13:20:20.202Z</time></trkpt><trkpt lat="51.5662567" lon="-9.1958233"><ele>42.0</ele><time>2026-05-05T13:20:21.202Z</time></trkpt><trkpt lat="51.5662117" lon="-9.1962267"><ele>42.0</ele><time>2026-05-05T13:20:22.202Z</time></trkpt><trkpt lat="51.5661567" lon="-9.1966283"><ele>44.0</ele><time>2026-05-05T13:20:23.202Z</time></trkpt><trkpt lat="51.566095" lon="-9.1970267"><ele>46.0</ele><time>2026-05-05T13:20:24.202Z</time></trkpt><trkpt lat="51.566025" lon="-9.19742"><ele>46.5</ele><time>2026-05-05T13:20:25.202Z</time></trkpt><trkpt lat="51.565935" lon="-9.1978033"><ele>47.0</ele><time>2026-05-05T13:20:26.202Z</time></trkpt><trkpt lat="51.5658233" lon="-9.1981717"><ele>46.0</ele><time>2026-05-05T13:20:27.202Z</time></trkpt><trkpt lat="51.565715" lon="-9.1985233"><ele>45.0</ele><time>2026-05-05T13:20:28.201Z</time></trkpt><trkpt lat="51.5656017" lon="-9.1988583"><ele>45.0</ele><time>2026-05-05T13:20:29.202Z</time></trkpt><trkpt lat="51.5655017" lon="-9.199175"><ele>45.0</ele><time>2026-05-05T13:20:30.202Z</time></trkpt><trkpt lat="51.5653983" lon="-9.1994867"><ele>45.0</ele><time>2026-05-05T13:20:31.202Z</time></trkpt><trkpt lat="51.5652983" lon="-9.19979"><ele>44.333333333333336</ele><time>2026-05-05T13:20:32.202Z</time></trkpt><trkpt lat="51.5652017" lon="-9.2000967"><ele>43.66666666666667</ele><time>2026-05-05T13:20:33.201Z</time></trkpt><trkpt lat="51.5651017" lon="-9.2003983"><ele>43.0</ele><time>2026-05-05T13:20:34.201Z</time></trkpt><trkpt lat="51.565005" lon="-9.2007033"><ele>42.333333333333336</ele><time>2026-05-05T13:20:35.202Z</time></trkpt><trkpt lat="51.564905" lon="-9.20101"><ele>41.666666666666664</ele><time>2026-05-05T13:20:36.201Z</time></trkpt><trkpt lat="51.5648267" lon="-9.2013233"><ele>41.0</ele><time>2026-05-05T13:20:37.202Z</time></trkpt><trkpt lat="51.56475" lon="-9.2016433"><ele>40.666666666666664</ele><time>2026-05-05T13:20:38.201Z</time></trkpt><trkpt lat="51.564695" lon="-9.2019733"><ele>40.333333333333336</ele><time>2026-05-05T13:20:39.201Z</time></trkpt><trkpt lat="51.564635" lon="-9.2023233"><ele>40.0</ele><time>2026-05-05T13:20:40.202Z</time></trkpt><trkpt lat="51.5645783" lon="-9.2026867"><ele>39.5</ele><time>2026-05-05T13:20:41.202Z</time></trkpt><trkpt lat="51.56453" lon="-9.20305"><ele>39.0</ele><time>2026-05-05T13:20:42.201Z</time></trkpt><trkpt lat="51.5644733" lon="-9.2034217"><ele>39.0</ele><time>2026-05-05T13:20:43.202Z</time></trkpt><trkpt lat="51.564425" lon="-9.2037983"><ele>39.0</ele><time>2026-05-05T13:20:44.202Z</time></trkpt><trkpt lat="51.5643733" lon="-9.20417"><ele>38.666666666666664</ele><time>2026-05-05T13:20:45.202Z</time></trkpt><trkpt lat="51.56432" lon="-9.204535"><ele>38.33333333333333</ele><time>2026-05-05T13:20:46.202Z</time></trkpt><trkpt lat="51.56427" lon="-9.2048683"><ele>38.0</ele><time>2026-05-05T13:20:47.202Z</time></trkpt><trkpt lat="51.564225" lon="-9.20519"><ele>39.0</ele><time>2026-05-05T13:20:48.202Z</time></trkpt><trkpt lat="51.56421" lon="-9.20551"><ele>40.0</ele><time>2026-05-05T13:20:49.201Z</time></trkpt><trkpt lat="51.564215" lon="-9.2058383"><ele>41.0</ele><time>2026-05-05T13:20:50.202Z</time></trkpt><trkpt lat="51.56425" lon="-9.2061717"><ele>42.33333333333333</ele><time>2026-05-05T13:20:51.202Z</time></trkpt><trkpt lat="51.564305" lon="-9.2065033"><ele>43.666666666666664</ele><time>2026-05-05T13:20:52.202Z</time></trkpt><trkpt lat="51.56437" lon="-9.20683"><ele>45.0</ele><time>2026-05-05T13:20:53.201Z</time></trkpt><trkpt lat="51.5644467" lon="-9.2071533"><ele>45.666666666666664</ele><time>2026-05-05T13:20:54.201Z</time></trkpt><trkpt lat="51.5645283" lon="-9.2074717"><ele>46.33333333333333</ele><time>2026-05-05T13:20:55.202Z</time></trkpt><trkpt lat="51.564625" lon="-9.20778"><ele>47.0</ele><time>2026-05-05T13:20:56.202Z</time></trkpt><trkpt lat="51.564715" lon="-9.2080883"><ele>49.0</ele><time>2026-05-05T13:20:57.202Z</time></trkpt><trkpt lat="51.5648217" lon="-9.20841"><ele>51.0</ele><time>2026-05-05T13:20:58.202Z</time></trkpt><trkpt lat="51.5649233" lon="-9.2087483"><ele>50.5</ele><time>2026-05-05T13:20:59.202Z</time></trkpt><trkpt lat="51.5650333" lon="-9.209095"><ele>50.0</ele><time>2026-05-05T13:21:00.201Z</time></trkpt><trkpt lat="51.5651417" lon="-9.20945"><ele>50.0</ele><time>2026-05-05T13:21:01.202Z</time></trkpt><trkpt lat="51.5652583" lon="-9.2098"><ele>50.0</ele><time>2026-05-05T13:21:02.202Z</time></trkpt><trkpt lat="51.5653767" lon="-9.210155"><ele>52.5</ele><time>2026-05-05T13:21:03.202Z</time></trkpt><trkpt lat="51.5654983" lon="-9.2105117"><ele>55.0</ele><time>2026-05-05T13:21:04.202Z</time></trkpt><trkpt lat="51.5656317" lon="-9.21086"><ele>55.5</ele><time>2026-05-05T13:21:05.201Z</time></trkpt><trkpt lat="51.56576" lon="-9.2112017"><ele>56.0</ele><time>2026-05-05T13:21:06.201Z</time></trkpt><trkpt lat="51.5658883" lon="-9.2115317"><ele>56.0</ele><time>2026-05-05T13:21:07.201Z</time></trkpt><trkpt lat="51.5660183" lon="-9.21183"><ele>56.0</ele><time>2026-05-05T13:21:08.202Z</time></trkpt><trkpt lat="51.566115" lon="-9.2121383"><ele>56.0</ele><time>2026-05-05T13:21:09.202Z</time></trkpt><trkpt lat="51.5661983" lon="-9.21244"><ele>55.66666666666667</ele><time>2026-05-05T13:21:10.202Z</time></trkpt><trkpt lat="51.566255" lon="-9.2127583"><ele>55.33333333333333</ele><time>2026-05-05T13:21:11.202Z</time></trkpt><trkpt lat="51.5663017" lon="-9.21307"><ele>55.0</ele><time>2026-05-05T13:21:12.201Z</time></trkpt><trkpt lat="51.56634" lon="-9.21338"><ele>55.666666666666664</ele><time>2026-05-05T13:21:13.201Z</time></trkpt><trkpt lat="51.5663483" lon="-9.2137133"><ele>56.33333333333333</ele><time>2026-05-05T13:21:14.202Z</time></trkpt><trkpt lat="51.5663417" lon="-9.2140483"><ele>57.0</ele><time>2026-05-05T13:21:15.202Z</time></trkpt><trkpt lat="51.56632" lon="-9.214385"><ele>57.0</ele><time>2026-05-05T13:21:16.201Z</time></trkpt><trkpt lat="51.5662767" lon="-9.21472"><ele>57.0</ele><time>2026-05-05T13:21:17.201Z</time></trkpt><trkpt lat="51.5662117" lon="-9.2150467"><ele>57.0</ele><time>2026-05-05T13:21:18.202Z</time></trkpt><trkpt lat="51.56611" lon="-9.2153917"><ele>56.5</ele><time>2026-05-05T13:21:19.202Z</time></trkpt><trkpt lat="51.56601" lon="-9.21573"><ele>56.0</ele><time>2026-05-05T13:21:20.202Z</time></trkpt><trkpt lat="51.5659017" lon="-9.2160717"><ele>56.0</ele><time>2026-05-05T13:21:21.201Z</time></trkpt><trkpt lat="51.5658033" lon="-9.2164117"><ele>56.0</ele><time>2026-05-05T13:21:22.202Z</time></trkpt><trkpt lat="51.5657183" lon="-9.2167583"><ele>55.5</ele><time>2026-05-05T13:21:23.202Z</time></trkpt><trkpt lat="51.5656483" lon="-9.2171233"><ele>55.0</ele><time>2026-05-05T13:21:24.202Z</time></trkpt><trkpt lat="51.56559" lon="-9.2175117"><ele>53.5</ele><time>2026-05-05T13:21:25.202Z</time></trkpt><trkpt lat="51.5655333" lon="-9.217925"><ele>52.0</ele><time>2026-05-05T13:21:26.202Z</time></trkpt><trkpt lat="51.5654783" lon="-9.2183633"><ele>50.5</ele><time>2026-05-05T13:21:27.202Z</time></trkpt><trkpt lat="51.56542" lon="-9.2188017"><ele>49.0</ele><time>2026-05-05T13:21:28.201Z</time></trkpt><trkpt lat="51.5653633" lon="-9.219235"><ele>49.5</ele><time>2026-05-05T13:21:29.201Z</time></trkpt><trkpt lat="51.5653067" lon="-9.2196683"><ele>50.0</ele><time>2026-05-05T13:21:30.201Z</time></trkpt><trkpt lat="51.5652533" lon="-9.2201033"><ele>50.0</ele><time>2026-05-05T13:21:31.201Z</time></trkpt><trkpt lat="51.5652067" lon="-9.2205317"><ele>50.0</ele><time>2026-05-05T13:21:32.201Z</time></trkpt><trkpt lat="51.5651533" lon="-9.2209583"><ele>49.0</ele><time>2026-05-05T13:21:33.202Z</time></trkpt><trkpt lat="51.5651" lon="-9.2213833"><ele>48.0</ele><time>2026-05-05T13:21:34.202Z</time></trkpt><trkpt lat="51.5650467" lon="-9.2217983"><ele>46.0</ele><time>2026-05-05T13:21:35.202Z</time></trkpt><trkpt lat="51.5649967" lon="-9.2222083"><ele>44.0</ele><time>2026-05-05T13:21:36.202Z</time></trkpt><trkpt lat="51.564955" lon="-9.2226067"><ele>42.5</ele><time>2026-05-05T13:21:37.201Z</time></trkpt><trkpt lat="51.5649083" lon="-9.22301"><ele>41.0</ele><time>2026-05-05T13:21:38.201Z</time></trkpt><trkpt lat="51.564855" lon="-9.223415"><ele>41.0</ele><time>2026-05-05T13:21:39.202Z</time></trkpt><trkpt lat="51.5648" lon="-9.2238217"><ele>41.0</ele><time>2026-05-05T13:21:40.201Z</time></trkpt><trkpt lat="51.564735" lon="-9.2242317"><ele>40.0</ele><time>2026-05-05T13:21:41.202Z</time></trkpt><trkpt lat="51.5646683" lon="-9.2246383"><ele>39.0</ele><time>2026-05-05T13:21:42.202Z</time></trkpt><trkpt lat="51.5645933" lon="-9.2250433"><ele>38.5</ele><time>2026-05-05T13:21:43.201Z</time></trkpt><trkpt lat="51.564505" lon="-9.2254583"><ele>38.0</ele><time>2026-05-05T13:21:44.202Z</time></trkpt><trkpt lat="51.5644317" lon="-9.2258683"><ele>38.0</ele><time>2026-05-05T13:21:45.202Z</time></trkpt><trkpt lat="51.5643617" lon="-9.2262733"><ele>38.0</ele><time>2026-05-05T13:21:46.201Z</time></trkpt><trkpt lat="51.5642867" lon="-9.2266767"><ele>37.5</ele><time>2026-05-05T13:21:47.201Z</time></trkpt><trkpt lat="51.564215" lon="-9.2270817"><ele>37.0</ele><time>2026-05-05T13:21:48.202Z</time></trkpt><trkpt lat="51.564145" lon="-9.2274817"><ele>37.0</ele><time>2026-05-05T13:21:49.202Z</time></trkpt><trkpt lat="51.5640733" lon="-9.2278783"><ele>37.0</ele><time>2026-05-05T13:21:50.201Z</time></trkpt><trkpt lat="51.5640083" lon="-9.22828"><ele>35.0</ele><time>2026-05-05T13:21:51.202Z</time></trkpt><trkpt lat="51.5639417" lon="-9.22867"><ele>33.0</ele><time>2026-05-05T13:21:52.202Z</time></trkpt><trkpt lat="51.5638667" lon="-9.229055"><ele>32.0</ele><time>2026-05-05T13:21:53.201Z</time></trkpt><trkpt lat="51.5638" lon="-9.2294267"><ele>31.0</ele><time>2026-05-05T13:21:54.201Z</time></trkpt><trkpt lat="51.5637367" lon="-9.2298133"><ele>33.5</ele><time>2026-05-05T13:21:55.202Z</time></trkpt><trkpt lat="51.5636717" lon="-9.2301817"><ele>36.0</ele><time>2026-05-05T13:21:56.201Z</time></trkpt><trkpt lat="51.56359" lon="-9.2305333"><ele>34.666666666666664</ele><time>2026-05-05T13:21:57.201Z</time></trkpt><trkpt lat="51.5635017" lon="-9.2308583"><ele>33.33333333333333</ele><time>2026-05-05T13:21:58.202Z</time></trkpt><trkpt lat="51.5634" lon="-9.231165"><ele>32.0</ele><time>2026-05-05T13:21:59.202Z</time></trkpt><trkpt lat="51.5632883" lon="-9.2314483"><ele>29.0</ele><time>2026-05-05T13:22:00.201Z</time></trkpt><trkpt lat="51.5631483" lon="-9.23174"><ele>26.0</ele><time>2026-05-05T13:22:01.202Z</time></trkpt><trkpt lat="51.56298" lon="-9.232"><ele>26.0</ele><time>2026-05-05T13:22:02.201Z</time></trkpt><trkpt lat="51.5628317" lon="-9.2322533"><ele>26.0</ele><time>2026-05-05T13:22:03.202Z</time></trkpt><trkpt lat="51.5626933" lon="-9.2325267"><ele>26.0</ele><time>2026-05-05T13:22:04.202Z</time></trkpt><trkpt lat="51.5625717" lon="-9.23282"><ele>26.0</ele><time>2026-05-05T13:22:05.202Z</time></trkpt><trkpt lat="51.56247" lon="-9.2331167"><ele>26.0</ele><time>2026-05-05T13:22:06.202Z</time></trkpt><trkpt lat="51.56238" lon="-9.2334017"><ele>26.0</ele><time>2026-05-05T13:22:07.202Z</time></trkpt><trkpt lat="51.5623083" lon="-9.2337067"><ele>23.666666666666664</ele><time>2026-05-05T13:22:08.202Z</time></trkpt><trkpt lat="51.5622533" lon="-9.2340133"><ele>21.333333333333332</ele><time>2026-05-05T13:22:09.202Z</time></trkpt><trkpt lat="51.562215" lon="-9.2343083"><ele>19.0</ele><time>2026-05-05T13:22:10.201Z</time></trkpt><trkpt lat="51.5621767" lon="-9.2345933"><ele>18.666666666666664</ele><time>2026-05-05T13:22:11.202Z</time></trkpt><trkpt lat="51.5621683" lon="-9.2348817"><ele>18.333333333333332</ele><time>2026-05-05T13:22:12.202Z</time></trkpt><trkpt lat="51.5621867" lon="-9.2351833"><ele>18.0</ele><time>2026-05-05T13:22:13.201Z</time></trkpt><trkpt lat="51.5622483" lon="-9.2354833"><ele>17.666666666666668</ele><time>2026-05-05T13:22:14.202Z</time></trkpt><trkpt lat="51.5622867" lon="-9.2357717"><ele>17.333333333333336</ele><time>2026-05-05T13:22:15.202Z</time></trkpt><trkpt lat="51.5623533" lon="-9.2360433"><ele>17.0</ele><time>2026-05-05T13:22:16.202Z</time></trkpt><trkpt lat="51.5623867" lon="-9.23631"><ele>17.0</ele><time>2026-05-05T13:22:17.201Z</time></trkpt><trkpt lat="51.5624133" lon="-9.236565"><ele>17.0</ele><time>2026-05-05T13:22:18.201Z</time></trkpt><trkpt lat="51.5624367" lon="-9.2368067"><ele>17.0</ele><time>2026-05-05T13:22:19.202Z</time></trkpt><trkpt lat="51.56245" lon="-9.2370417"><ele>17.0</ele><time>2026-05-05T13:22:20.201Z</time></trkpt><trkpt lat="51.562415" lon="-9.2372867"><ele>17.0</ele><time>2026-05-05T13:22:21.201Z</time></trkpt><trkpt lat="51.5623883" lon="-9.237515"><ele>17.0</ele><time>2026-05-05T13:22:22.201Z</time></trkpt><trkpt lat="51.5623667" lon="-9.2377267"><ele>17.0</ele><time>2026-05-05T13:22:23.201Z</time></trkpt><trkpt lat="51.5623367" lon="-9.2379567"><ele>17.0</ele><time>2026-05-05T13:22:24.201Z</time></trkpt><trkpt lat="51.56231" lon="-9.2381867"><ele>17.0</ele><time>2026-05-05T13:22:25.202Z</time></trkpt><trkpt lat="51.5622567" lon="-9.2384317"><ele>17.0</ele><time>2026-05-05T13:22:26.202Z</time></trkpt><trkpt lat="51.5621883" lon="-9.2386683"><ele>17.0</ele><time>2026-05-05T13:22:27.202Z</time></trkpt><trkpt lat="51.5621117" lon="-9.2388883"><ele>17.0</ele><time>2026-05-05T13:22:28.201Z</time></trkpt><trkpt lat="51.562045" lon="-9.2391"><ele>17.0</ele><time>2026-05-05T13:22:29.202Z</time></trkpt><trkpt lat="51.561965" lon="-9.2392933"><ele>17.0</ele><time>2026-05-05T13:22:30.202Z</time></trkpt><trkpt lat="51.561875" lon="-9.2394867"><ele>17.333333333333336</ele><time>2026-05-05T13:22:31.202Z</time></trkpt><trkpt lat="51.561745" lon="-9.239655"><ele>17.666666666666668</ele><time>2026-05-05T13:22:32.201Z</time></trkpt><trkpt lat="51.5615983" lon="-9.23984"><ele>18.0</ele><time>2026-05-05T13:22:33.202Z</time></trkpt><trkpt lat="51.5614467" lon="-9.2400483"><ele>17.333333333333332</ele><time>2026-05-05T13:22:34.202Z</time></trkpt><trkpt lat="51.5613017" lon="-9.240275"><ele>16.666666666666664</ele><time>2026-05-05T13:22:35.201Z</time></trkpt><trkpt lat="51.5611233" lon="-9.240485"><ele>16.0</ele><time>2026-05-05T13:22:36.201Z</time></trkpt><trkpt lat="51.560935" lon="-9.24067"><ele>16.0</ele><time>2026-05-05T13:22:37.202Z</time></trkpt><trkpt lat="51.5607433" lon="-9.2408533"><ele>16.0</ele><time>2026-05-05T13:22:38.201Z</time></trkpt><trkpt lat="51.5605783" lon="-9.2410367"><ele>16.0</ele><time>2026-05-05T13:22:39.202Z</time></trkpt><trkpt lat="51.560405" lon="-9.2412167"><ele>16.666666666666664</ele><time>2026-05-05T13:22:40.201Z</time></trkpt><trkpt lat="51.56027" lon="-9.24138"><ele>17.333333333333332</ele><time>2026-05-05T13:22:41.203Z</time></trkpt><trkpt lat="51.5601417" lon="-9.241535"><ele>18.0</ele><time>2026-05-05T13:22:42.203Z</time></trkpt><trkpt lat="51.5600217" lon="-9.2416933"><ele>16.333333333333332</ele><time>2026-05-05T13:22:43.203Z</time></trkpt><trkpt lat="51.55991" lon="-9.2418467"><ele>14.666666666666666</ele><time>2026-05-05T13:22:44.203Z</time></trkpt><trkpt lat="51.55982" lon="-9.2420317"><ele>13.0</ele><time>2026-05-05T13:22:45.203Z</time></trkpt><trkpt lat="51.559705" lon="-9.2422117"><ele>13.333333333333332</ele><time>2026-05-05T13:22:46.203Z</time></trkpt><trkpt lat="51.5596283" lon="-9.242395"><ele>13.666666666666668</ele><time>2026-05-05T13:22:47.203Z</time></trkpt><trkpt lat="51.5595467" lon="-9.2426117"><ele>14.0</ele><time>2026-05-05T13:22:48.203Z</time></trkpt><trkpt lat="51.5594717" lon="-9.242855"><ele>14.0</ele><time>2026-05-05T13:22:49.202Z</time></trkpt><trkpt lat="51.55939" lon="-9.2431083"><ele>14.0</ele><time>2026-05-05T13:22:50.202Z</time></trkpt><trkpt lat="51.5593233" lon="-9.2433817"><ele>14.0</ele><time>2026-05-05T13:22:51.203Z</time></trkpt><trkpt lat="51.559275" lon="-9.243665"><ele>14.0</ele><time>2026-05-05T13:22:52.202Z</time></trkpt><trkpt lat="51.5592533" lon="-9.2439767"><ele>14.0</ele><time>2026-05-05T13:22:53.203Z</time></trkpt><trkpt lat="51.5592367" lon="-9.24431"><ele>14.0</ele><time>2026-05-05T13:22:54.203Z</time></trkpt><trkpt lat="51.55921" lon="-9.24466"><ele>14.0</ele><time>2026-05-05T13:22:55.202Z</time></trkpt><trkpt lat="51.55917" lon="-9.2450217"><ele>14.0</ele><time>2026-05-05T13:22:56.202Z</time></trkpt><trkpt lat="51.5591283" lon="-9.2453933"><ele>13.666666666666668</ele><time>2026-05-05T13:22:57.202Z</time></trkpt><trkpt lat="51.5591033" lon="-9.2457567"><ele>13.333333333333332</ele><time>2026-05-05T13:22:58.202Z</time></trkpt><trkpt lat="51.5590783" lon="-9.2461117"><ele>13.0</ele><time>2026-05-05T13:22:59.203Z</time></trkpt><trkpt lat="51.5590567" lon="-9.2464417"><ele>13.0</ele><time>2026-05-05T13:23:00.203Z</time></trkpt><trkpt lat="51.55903" lon="-9.2467567"><ele>13.0</ele><time>2026-05-05T13:23:01.203Z</time></trkpt><trkpt lat="51.5589933" lon="-9.2470533"><ele>13.0</ele><time>2026-05-05T13:23:02.203Z</time></trkpt><trkpt lat="51.5589567" lon="-9.2473567"><ele>13.0</ele><time>2026-05-05T13:23:03.202Z</time></trkpt><trkpt lat="51.5589117" lon="-9.247685"><ele>13.0</ele><time>2026-05-05T13:23:04.203Z</time></trkpt><trkpt lat="51.55888" lon="-9.248025"><ele>13.0</ele><time>2026-05-05T13:23:05.203Z</time></trkpt><trkpt lat="51.55885" lon="-9.2483617"><ele>12.0</ele><time>2026-05-05T13:23:06.202Z</time></trkpt><trkpt lat="51.5588117" lon="-9.2486933"><ele>11.0</ele><time>2026-05-05T13:23:07.202Z</time></trkpt><trkpt lat="51.5587683" lon="-9.249025"><ele>10.0</ele><time>2026-05-05T13:23:08.203Z</time></trkpt><trkpt lat="51.5587183" lon="-9.2493583"><ele>12.0</ele><time>2026-05-05T13:23:09.203Z</time></trkpt><trkpt lat="51.5586617" lon="-9.249695"><ele>14.0</ele><time>2026-05-05T13:23:10.202Z</time></trkpt><trkpt lat="51.5585967" lon="-9.2500283"><ele>16.0</ele><time>2026-05-05T13:23:11.203Z</time></trkpt><trkpt lat="51.55852" lon="-9.2503567"><ele>15.666666666666666</ele><time>2026-05-05T13:23:12.203Z</time></trkpt><trkpt lat="51.5584417" lon="-9.250675"><ele>15.333333333333332</ele><time>2026-05-05T13:23:13.203Z</time></trkpt><trkpt lat="51.5583533" lon="-9.2509867"><ele>15.0</ele><time>2026-05-05T13:23:14.202Z</time></trkpt><trkpt lat="51.5582633" lon="-9.2513"><ele>14.0</ele><time>2026-05-05T13:23:15.203Z</time></trkpt><trkpt lat="51.5581833" lon="-9.2516083"><ele>13.0</ele><time>2026-05-05T13:23:16.203Z</time></trkpt><trkpt lat="51.558105" lon="-9.25191"><ele>12.0</ele><time>2026-05-05T13:23:17.203Z</time></trkpt><trkpt lat="51.5580267" lon="-9.2522083"><ele>11.333333333333334</ele><time>2026-05-05T13:23:18.203Z</time></trkpt><trkpt lat="51.5579533" lon="-9.2524867"><ele>10.666666666666668</ele><time>2026-05-05T13:23:19.203Z</time></trkpt><trkpt lat="51.557885" lon="-9.252745"><ele>10.0</ele><time>2026-05-05T13:23:20.203Z</time></trkpt><trkpt lat="51.557815" lon="-9.2529867"><ele>11.333333333333334</ele><time>2026-05-05T13:23:21.203Z</time></trkpt><trkpt lat="51.55775" lon="-9.2532283"><ele>12.666666666666668</ele><time>2026-05-05T13:23:22.202Z</time></trkpt><trkpt lat="51.557685" lon="-9.2534833"><ele>14.0</ele><time>2026-05-05T13:23:23.203Z</time></trkpt><trkpt lat="51.55761" lon="-9.25374"><ele>13.333333333333334</ele><time>2026-05-05T13:23:24.203Z</time></trkpt><trkpt lat="51.55753" lon="-9.2539967"><ele>12.666666666666668</ele><time>2026-05-05T13:23:25.203Z</time></trkpt><trkpt lat="51.557455" lon="-9.2542567"><ele>12.0</ele><time>2026-05-05T13:23:26.203Z</time></trkpt><trkpt lat="51.55738" lon="-9.2545217"><ele>11.0</ele><time>2026-05-05T13:23:27.203Z</time></trkpt><trkpt lat="51.557315" lon="-9.2547933"><ele>10.0</ele><time>2026-05-05T13:23:28.203Z</time></trkpt><trkpt lat="51.5572533" lon="-9.2550667"><ele>9.0</ele><time>2026-05-05T13:23:29.203Z</time></trkpt><trkpt lat="51.5572083" lon="-9.2553483"><ele>8.666666666666666</ele><time>2026-05-05T13:23:30.202Z</time></trkpt><trkpt lat="51.5571483" lon="-9.2556367"><ele>8.333333333333332</ele><time>2026-05-05T13:23:31.202Z</time></trkpt><trkpt lat="51.5571033" lon="-9.2559233"><ele>8.0</ele><time>2026-05-05T13:23:32.203Z</time></trkpt><trkpt lat="51.5570617" lon="-9.2561917"><ele>8.666666666666666</ele><time>2026-05-05T13:23:33.202Z</time></trkpt><trkpt lat="51.5570283" lon="-9.2564767"><ele>9.333333333333334</ele><time>2026-05-05T13:23:34.202Z</time></trkpt><trkpt lat="51.5569917" lon="-9.2567617"><ele>10.0</ele><time>2026-05-05T13:23:35.202Z</time></trkpt><trkpt lat="51.5569433" lon="-9.2570483"><ele>9.666666666666668</ele><time>2026-05-05T13:23:36.203Z</time></trkpt><trkpt lat="51.5568967" lon="-9.2573267"><ele>9.333333333333334</ele><time>2026-05-05T13:23:37.203Z</time></trkpt><trkpt lat="51.5568733" lon="-9.2575933"><ele>9.0</ele><time>2026-05-05T13:23:38.203Z</time></trkpt><trkpt lat="51.5568317" lon="-9.257855"><ele>9.0</ele><time>2026-05-05T13:23:39.203Z</time></trkpt><trkpt lat="51.5568" lon="-9.2581017"><ele>9.0</ele><time>2026-05-05T13:23:40.202Z</time></trkpt><trkpt lat="51.5567667" lon="-9.2583517"><ele>9.0</ele><time>2026-05-05T13:23:41.203Z</time></trkpt><trkpt lat="51.5567283" lon="-9.25859"><ele>8.666666666666666</ele><time>2026-05-05T13:23:42.203Z</time></trkpt><trkpt lat="51.5566883" lon="-9.2588417"><ele>8.333333333333332</ele><time>2026-05-05T13:23:43.203Z</time></trkpt><trkpt lat="51.5566467" lon="-9.2591017"><ele>8.0</ele><time>2026-05-05T13:23:44.203Z</time></trkpt><trkpt lat="51.556595" lon="-9.259365"><ele>8.0</ele><time>2026-05-05T13:23:45.202Z</time></trkpt><trkpt lat="51.5565383" lon="-9.2596333"><ele>8.0</ele><time>2026-05-05T13:23:46.203Z</time></trkpt><trkpt lat="51.5564767" lon="-9.2598933"><ele>8.0</ele><time>2026-05-05T13:23:47.203Z</time></trkpt><trkpt lat="51.556405" lon="-9.2601383"><ele>8.25</ele><time>2026-05-05T13:23:48.202Z</time></trkpt><trkpt lat="51.5563267" lon="-9.2603417"><ele>8.5</ele><time>2026-05-05T13:23:49.203Z</time></trkpt><trkpt lat="51.5562617" lon="-9.260495"><ele>8.75</ele><time>2026-05-05T13:23:50.202Z</time></trkpt><trkpt lat="51.556205" lon="-9.26061"><ele>9.0</ele><time>2026-05-05T13:23:51.203Z</time></trkpt><trkpt lat="51.5561367" lon="-9.2607233"><ele>9.0</ele><time>2026-05-05T13:23:53.202Z</time></trkpt><trkpt lat="51.5560717" lon="-9.260815"><ele>9.0</ele><time>2026-05-05T13:23:56.203Z</time></trkpt><trkpt lat="51.5559883" lon="-9.26094"><ele>9.0</ele><time>2026-05-05T13:23:58.203Z</time></trkpt><trkpt lat="51.55595" lon="-9.2610317"><ele>9.0</ele><time>2026-05-05T13:23:59.202Z</time></trkpt><trkpt lat="51.555915" lon="-9.2611267"><ele>9.0</ele><time>2026-05-05T13:24:00.203Z</time></trkpt><trkpt lat="51.5559" lon="-9.2613167"><ele>8.75</ele><time>2026-05-05T13:24:01.203Z</time></trkpt><trkpt lat="51.555875" lon="-9.26152"><ele>8.5</ele><time>2026-05-05T13:24:02.202Z</time></trkpt><trkpt lat="51.5558567" lon="-9.26172"><ele>8.25</ele><time>2026-05-05T13:24:03.203Z</time></trkpt><trkpt lat="51.5558183" lon="-9.261935"><ele>8.0</ele><time>2026-05-05T13:24:04.202Z</time></trkpt><trkpt lat="51.5557867" lon="-9.262165"><ele>8.0</ele><time>2026-05-05T13:24:05.203Z</time></trkpt><trkpt lat="51.5557567" lon="-9.2624017"><ele>8.0</ele><time>2026-05-05T13:24:06.203Z</time></trkpt><trkpt lat="51.5557183" lon="-9.2626483"><ele>8.0</ele><time>2026-05-05T13:24:07.203Z</time></trkpt><trkpt lat="51.5556733" lon="-9.2629067"><ele>7.333333333333333</ele><time>2026-05-05T13:24:08.203Z</time></trkpt><trkpt lat="51.5556167" lon="-9.26317"><ele>6.666666666666666</ele><time>2026-05-05T13:24:09.203Z</time></trkpt><trkpt lat="51.55559" lon="-9.26345"><ele>6.0</ele><time>2026-05-05T13:24:10.203Z</time></trkpt><trkpt lat="51.5555233" lon="-9.2637283"><ele>6.0</ele><time>2026-05-05T13:24:11.202Z</time></trkpt><trkpt lat="51.5554467" lon="-9.2639933"><ele>6.0</ele><time>2026-05-05T13:24:12.202Z</time></trkpt><trkpt lat="51.5553583" lon="-9.2642483"><ele>6.0</ele><time>2026-05-05T13:24:13.202Z</time></trkpt><trkpt lat="51.5552567" lon="-9.2644933"><ele>5.666666666666667</ele><time>2026-05-05T13:24:14.203Z</time></trkpt><trkpt lat="51.5551467" lon="-9.2647167"><ele>5.333333333333334</ele><time>2026-05-05T13:24:15.202Z</time></trkpt><trkpt lat="51.5550433" lon="-9.2649283"><ele>5.0</ele><time>2026-05-05T13:24:16.203Z</time></trkpt><trkpt lat="51.5549217" lon="-9.265125"><ele>4.666666666666667</ele><time>2026-05-05T13:24:17.203Z</time></trkpt><trkpt lat="51.5547817" lon="-9.2653067"><ele>4.333333333333333</ele><time>2026-05-05T13:24:18.202Z</time></trkpt><trkpt lat="51.554635" lon="-9.2654667"><ele>4.0</ele><time>2026-05-05T13:24:19.202Z</time></trkpt><trkpt lat="51.55447" lon="-9.2656217"><ele>4.0</ele><time>2026-05-05T13:24:20.203Z</time></trkpt><trkpt lat="51.55431" lon="-9.26576"><ele>4.0</ele><time>2026-05-05T13:24:21.202Z</time></trkpt><trkpt lat="51.5541417" lon="-9.2658983"><ele>4.0</ele><time>2026-05-05T13:24:22.202Z</time></trkpt><trkpt lat="51.55397" lon="-9.2660467"><ele>4.0</ele><time>2026-05-05T13:24:23.203Z</time></trkpt><trkpt lat="51.553815" lon="-9.2662067"><ele>4.0</ele><time>2026-05-05T13:24:24.202Z</time></trkpt><trkpt lat="51.5536517" lon="-9.2663733"><ele>4.0</ele><time>2026-05-05T13:24:25.203Z</time></trkpt><trkpt lat="51.5535083" lon="-9.26656"><ele>4.333333333333333</ele><time>2026-05-05T13:24:26.203Z</time></trkpt><trkpt lat="51.5533717" lon="-9.2667617"><ele>4.666666666666667</ele><time>2026-05-05T13:24:27.203Z</time></trkpt><trkpt lat="51.5532517" lon="-9.2669717"><ele>5.0</ele><time>2026-05-05T13:24:28.202Z</time></trkpt><trkpt lat="51.5531433" lon="-9.2671817"><ele>5.0</ele><time>2026-05-05T13:24:29.203Z</time></trkpt><trkpt lat="51.55305" lon="-9.2673883"><ele>5.0</ele><time>2026-05-05T13:24:30.203Z</time></trkpt><trkpt lat="51.5529733" lon="-9.267595"><ele>5.0</ele><time>2026-05-05T13:24:31.203Z</time></trkpt><trkpt lat="51.552905" lon="-9.26781"><ele>5.0</ele><time>2026-05-05T13:24:32.203Z</time></trkpt><trkpt lat="51.5528433" lon="-9.268025"><ele>5.0</ele><time>2026-05-05T13:24:33.203Z</time></trkpt><trkpt lat="51.5527883" lon="-9.2682333"><ele>5.0</ele><time>2026-05-05T13:24:34.203Z</time></trkpt><trkpt lat="51.5527483" lon="-9.2684317"><ele>5.0</ele><time>2026-05-05T13:24:35.202Z</time></trkpt><trkpt lat="51.5527167" lon="-9.2686267"><ele>5.0</ele><time>2026-05-05T13:24:36.203Z</time></trkpt><trkpt lat="51.5526917" lon="-9.2688267"><ele>5.0</ele><time>2026-05-05T13:24:37.203Z</time></trkpt><trkpt lat="51.5526733" lon="-9.2690317"><ele>5.0</ele><time>2026-05-05T13:24:38.203Z</time></trkpt><trkpt lat="51.5526617" lon="-9.2692317"><ele>5.0</ele><time>2026-05-05T13:24:39.202Z</time></trkpt><trkpt lat="51.5526533" lon="-9.26943"><ele>5.0</ele><time>2026-05-05T13:24:40.203Z</time></trkpt><trkpt lat="51.5526467" lon="-9.2696167"><ele>5.0</ele><time>2026-05-05T13:24:41.203Z</time></trkpt><trkpt lat="51.55265" lon="-9.2697867"><ele>5.0</ele><time>2026-05-05T13:24:42.202Z</time></trkpt><trkpt lat="51.552655" lon="-9.2699433"><ele>5.0</ele><time>2026-05-05T13:24:43.203Z</time></trkpt><trkpt lat="51.5526583" lon="-9.270075"><ele>5.0</ele><time>2026-05-05T13:24:44.203Z</time></trkpt><trkpt lat="51.5526567" lon="-9.2701967"><ele>5.0</ele><time>2026-05-05T13:24:45.202Z</time></trkpt><trkpt lat="51.5526567" lon="-9.2703017"><ele>5.0</ele><time>2026-05-05T13:24:46.203Z</time></trkpt><trkpt lat="51.552625" lon="-9.2704883"><ele>5.0</ele><time>2026-05-05T13:24:48.203Z</time></trkpt><trkpt lat="51.5526" lon="-9.2706383"><ele>5.0</ele><time>2026-05-05T13:24:50.202Z</time></trkpt><trkpt lat="51.5525583" lon="-9.2708483"><ele>5.0</ele><time>2026-05-05T13:24:52.203Z</time></trkpt><trkpt lat="51.552545" lon="-9.270975"><ele>4.75</ele><time>2026-05-05T13:24:53.203Z</time></trkpt><trkpt lat="51.5525467" lon="-9.2711217"><ele>4.5</ele><time>2026-05-05T13:24:54.203Z</time></trkpt><trkpt lat="51.5525817" lon="-9.271295"><ele>4.25</ele><time>2026-05-05T13:24:55.203Z</time></trkpt><trkpt lat="51.5526283" lon="-9.2714867"><ele>4.0</ele><time>2026-05-05T13:24:56.202Z</time></trkpt><trkpt lat="51.552685" lon="-9.2716983"><ele>4.0</ele><time>2026-05-05T13:24:57.203Z</time></trkpt><trkpt lat="51.5527317" lon="-9.2719333"><ele>4.0</ele><time>2026-05-05T13:24:58.203Z</time></trkpt><trkpt lat="51.552795" lon="-9.2721933"><ele>4.0</ele><time>2026-05-05T13:24:59.202Z</time></trkpt><trkpt lat="51.55288" lon="-9.27245"><ele>4.0</ele><time>2026-05-05T13:25:00.203Z</time></trkpt><trkpt lat="51.5529467" lon="-9.2727183"><ele>4.0</ele><time>2026-05-05T13:25:01.203Z</time></trkpt><trkpt lat="51.5530067" lon="-9.2729933"><ele>4.0</ele><time>2026-05-05T13:25:02.203Z</time></trkpt><trkpt lat="51.5530683" lon="-9.2732717"><ele>4.0</ele><time>2026-05-05T13:25:03.202Z</time></trkpt><trkpt lat="51.5531283" lon="-9.273555"><ele>4.0</ele><time>2026-05-05T13:25:04.203Z</time></trkpt><trkpt lat="51.553195" lon="-9.2738417"><ele>4.0</ele><time>2026-05-05T13:25:05.203Z</time></trkpt><trkpt lat="51.55326" lon="-9.2741333"><ele>4.0</ele><time>2026-05-05T13:25:06.203Z</time></trkpt><trkpt lat="51.55332" lon="-9.2744417"><ele>4.0</ele><time>2026-05-05T13:25:07.202Z</time></trkpt><trkpt lat="51.55338" lon="-9.2747483"><ele>4.0</ele><time>2026-05-05T13:25:08.202Z</time></trkpt><trkpt lat="51.5534417" lon="-9.275055"><ele>4.0</ele><time>2026-05-05T13:25:09.202Z</time></trkpt><trkpt lat="51.5535017" lon="-9.2753617"><ele>4.0</ele><time>2026-05-05T13:25:10.202Z</time></trkpt><trkpt lat="51.5535617" lon="-9.2756733"><ele>4.0</ele><time>2026-05-05T13:25:11.203Z</time></trkpt><trkpt lat="51.5536183" lon="-9.2759917"><ele>4.0</ele><time>2026-05-05T13:25:12.203Z</time></trkpt><trkpt lat="51.5536767" lon="-9.276315"><ele>4.0</ele><time>2026-05-05T13:25:13.203Z</time></trkpt><trkpt lat="51.5537417" lon="-9.276635"><ele>4.0</ele><time>2026-05-05T13:25:14.203Z</time></trkpt><trkpt lat="51.553805" lon="-9.2769533"><ele>3.6666666666666665</ele><time>2026-05-05T13:25:15.203Z</time></trkpt><trkpt lat="51.5538667" lon="-9.2772583"><ele>3.333333333333333</ele><time>2026-05-05T13:25:16.203Z</time></trkpt><trkpt lat="51.5539183" lon="-9.27756"><ele>3.0</ele><time>2026-05-05T13:25:17.202Z</time></trkpt><trkpt lat="51.5539583" lon="-9.2778617"><ele>3.333333333333333</ele><time>2026-05-05T13:25:18.203Z</time></trkpt><trkpt lat="51.5539867" lon="-9.278175"><ele>3.6666666666666665</ele><time>2026-05-05T13:25:19.202Z</time></trkpt><trkpt lat="51.55401" lon="-9.2784967"><ele>4.0</ele><time>2026-05-05T13:25:20.202Z</time></trkpt><trkpt lat="51.5540083" lon="-9.27882"><ele>4.666666666666666</ele><time>2026-05-05T13:25:21.203Z</time></trkpt><trkpt lat="51.553995" lon="-9.2791333"><ele>5.333333333333333</ele><time>2026-05-05T13:25:22.203Z</time></trkpt><trkpt lat="51.5539783" lon="-9.2794367"><ele>6.0</ele><time>2026-05-05T13:25:23.203Z</time></trkpt><trkpt lat="51.55395" lon="-9.2797433"><ele>7.333333333333334</ele><time>2026-05-05T13:25:24.203Z</time></trkpt><trkpt lat="51.5539083" lon="-9.2800583"><ele>8.666666666666668</ele><time>2026-05-05T13:25:25.202Z</time></trkpt><trkpt lat="51.5538417" lon="-9.2803983"><ele>10.0</ele><time>2026-05-05T13:25:26.202Z</time></trkpt><trkpt lat="51.5538017" lon="-9.280725"><ele>9.0</ele><time>2026-05-05T13:25:27.202Z</time></trkpt><trkpt lat="51.5537617" lon="-9.2810617"><ele>8.0</ele><time>2026-05-05T13:25:28.203Z</time></trkpt><trkpt lat="51.5537333" lon="-9.2813883"><ele>7.0</ele><time>2026-05-05T13:25:29.203Z</time></trkpt><trkpt lat="51.5537033" lon="-9.2817067"><ele>7.0</ele><time>2026-05-05T13:25:30.202Z</time></trkpt><trkpt lat="51.5536783" lon="-9.2820283"><ele>7.0</ele><time>2026-05-05T13:25:31.203Z</time></trkpt><trkpt lat="51.5536783" lon="-9.28235"><ele>7.0</ele><time>2026-05-05T13:25:32.203Z</time></trkpt><trkpt lat="51.5536583" lon="-9.2826833"><ele>7.0</ele><time>2026-05-05T13:25:33.202Z</time></trkpt><trkpt lat="51.5536483" lon="-9.2829917"><ele>7.0</ele><time>2026-05-05T13:25:34.203Z</time></trkpt><trkpt lat="51.5536217" lon="-9.2833"><ele>7.0</ele><time>2026-05-05T13:25:35.203Z</time></trkpt><trkpt lat="51.553585" lon="-9.2835983"><ele>7.0</ele><time>2026-05-05T13:25:36.203Z</time></trkpt><trkpt lat="51.5535267" lon="-9.28388"><ele>7.0</ele><time>2026-05-05T13:25:37.203Z</time></trkpt><trkpt lat="51.553445" lon="-9.284155"><ele>7.0</ele><time>2026-05-05T13:25:38.203Z</time></trkpt><trkpt lat="51.5533533" lon="-9.2844117"><ele>7.333333333333334</ele><time>2026-05-05T13:25:39.203Z</time></trkpt><trkpt lat="51.5532667" lon="-9.2846317"><ele>7.666666666666666</ele><time>2026-05-05T13:25:40.202Z</time></trkpt><trkpt lat="51.5531133" lon="-9.2848733"><ele>8.0</ele><time>2026-05-05T13:25:41.202Z</time></trkpt><trkpt lat="51.5529717" lon="-9.2850583"><ele>7.666666666666666</ele><time>2026-05-05T13:25:42.203Z</time></trkpt><trkpt lat="51.55282" lon="-9.285235"><ele>7.333333333333334</ele><time>2026-05-05T13:25:43.203Z</time></trkpt><trkpt lat="51.552665" lon="-9.2854233"><ele>7.0</ele><time>2026-05-05T13:25:44.203Z</time></trkpt><trkpt lat="51.5525367" lon="-9.2856233"><ele>8.333333333333334</ele><time>2026-05-05T13:25:45.203Z</time></trkpt><trkpt lat="51.5524067" lon="-9.2858317"><ele>9.666666666666666</ele><time>2026-05-05T13:25:46.203Z</time></trkpt><trkpt lat="51.552275" lon="-9.2860267"><ele>11.0</ele><time>2026-05-05T13:25:47.203Z</time></trkpt><trkpt lat="51.5521267" lon="-9.286195"><ele>9.333333333333332</ele><time>2026-05-05T13:25:48.203Z</time></trkpt><trkpt lat="51.5520117" lon="-9.286365"><ele>7.666666666666666</ele><time>2026-05-05T13:25:49.202Z</time></trkpt><trkpt lat="51.551915" lon="-9.286575"><ele>6.0</ele><time>2026-05-05T13:25:50.202Z</time></trkpt><trkpt lat="51.5517983" lon="-9.28681"><ele>6.0</ele><time>2026-05-05T13:25:51.201Z</time></trkpt><trkpt lat="51.551675" lon="-9.28706"><ele>6.0</ele><time>2026-05-05T13:25:52.203Z</time></trkpt><trkpt lat="51.5515617" lon="-9.2873583"><ele>6.0</ele><time>2026-05-05T13:25:53.203Z</time></trkpt><trkpt lat="51.55147" lon="-9.2876717"><ele>6.666666666666666</ele><time>2026-05-05T13:25:54.202Z</time></trkpt><trkpt lat="51.5513767" lon="-9.2880017"><ele>7.333333333333333</ele><time>2026-05-05T13:25:55.203Z</time></trkpt><trkpt lat="51.5513117" lon="-9.28833"><ele>8.0</ele><time>2026-05-05T13:25:56.202Z</time></trkpt><trkpt lat="51.551265" lon="-9.2886633"><ele>8.666666666666666</ele><time>2026-05-05T13:25:57.203Z</time></trkpt><trkpt lat="51.5512467" lon="-9.288985"><ele>9.333333333333334</ele><time>2026-05-05T13:25:58.203Z</time></trkpt><trkpt lat="51.5512567" lon="-9.2893283"><ele>10.0</ele><time>2026-05-05T13:25:59.203Z</time></trkpt><trkpt lat="51.551275" lon="-9.2896483"><ele>11.333333333333334</ele><time>2026-05-05T13:26:00.203Z</time></trkpt><trkpt lat="51.5512933" lon="-9.28997"><ele>12.666666666666668</ele><time>2026-05-05T13:26:01.203Z</time></trkpt><trkpt lat="51.5513017" lon="-9.2903017"><ele>14.0</ele><time>2026-05-05T13:26:02.203Z</time></trkpt><trkpt lat="51.5513017" lon="-9.29064"><ele>15.333333333333334</ele><time>2026-05-05T13:26:03.202Z</time></trkpt><trkpt lat="51.55129" lon="-9.2909933"><ele>16.666666666666668</ele><time>2026-05-05T13:26:04.203Z</time></trkpt><trkpt lat="51.551265" lon="-9.2913533"><ele>18.0</ele><time>2026-05-05T13:26:05.202Z</time></trkpt><trkpt lat="51.5512333" lon="-9.2917217"><ele>12.5</ele><time>2026-05-05T13:26:06.202Z</time></trkpt><trkpt lat="51.5511933" lon="-9.2920867"><ele>7.0</ele><time>2026-05-05T13:26:07.202Z</time></trkpt><trkpt lat="51.5511433" lon="-9.2924483"><ele>7.0</ele><time>2026-05-05T13:26:08.203Z</time></trkpt><trkpt lat="51.5510817" lon="-9.2928117"><ele>7.0</ele><time>2026-05-05T13:26:09.203Z</time></trkpt><trkpt lat="51.55102" lon="-9.2931783"><ele>8.0</ele><time>2026-05-05T13:26:10.202Z</time></trkpt><trkpt lat="51.5509533" lon="-9.2935417"><ele>9.0</ele><time>2026-05-05T13:26:11.203Z</time></trkpt><trkpt lat="51.55089" lon="-9.2939017"><ele>9.0</ele><time>2026-05-05T13:26:12.203Z</time></trkpt><trkpt lat="51.5508367" lon="-9.29427"><ele>9.0</ele><time>2026-05-05T13:26:13.203Z</time></trkpt><trkpt lat="51.550785" lon="-9.294625"><ele>9.666666666666666</ele><time>2026-05-05T13:26:14.203Z</time></trkpt><trkpt lat="51.55073" lon="-9.2949633"><ele>10.333333333333332</ele><time>2026-05-05T13:26:15.203Z</time></trkpt><trkpt lat="51.5506817" lon="-9.2952767"><ele>11.0</ele><time>2026-05-05T13:26:16.202Z</time></trkpt><trkpt lat="51.55065" lon="-9.2955583"><ele>11.333333333333332</ele><time>2026-05-05T13:26:17.203Z</time></trkpt><trkpt lat="51.550645" lon="-9.295835"><ele>11.666666666666666</ele><time>2026-05-05T13:26:18.202Z</time></trkpt><trkpt lat="51.550665" lon="-9.2961017"><ele>12.0</ele><time>2026-05-05T13:26:19.203Z</time></trkpt><trkpt lat="51.550645" lon="-9.2963783"><ele>11.333333333333334</ele><time>2026-05-05T13:26:20.202Z</time></trkpt><trkpt lat="51.5506367" lon="-9.29668"><ele>10.666666666666668</ele><time>2026-05-05T13:26:21.203Z</time></trkpt><trkpt lat="51.5506867" lon="-9.296975"><ele>10.0</ele><time>2026-05-05T13:26:22.203Z</time></trkpt><trkpt lat="51.5507517" lon="-9.2972733"><ele>9.333333333333334</ele><time>2026-05-05T13:26:23.203Z</time></trkpt><trkpt lat="51.5508033" lon="-9.297585"><ele>8.666666666666666</ele><time>2026-05-05T13:26:24.202Z</time></trkpt><trkpt lat="51.5508867" lon="-9.2979033"><ele>8.0</ele><time>2026-05-05T13:26:25.203Z</time></trkpt><trkpt lat="51.5509317" lon="-9.2982217"><ele>7.666666666666666</ele><time>2026-05-05T13:26:26.203Z</time></trkpt><trkpt lat="51.5509633" lon="-9.2985267"><ele>7.333333333333334</ele><time>2026-05-05T13:26:27.203Z</time></trkpt><trkpt lat="51.550975" lon="-9.2988217"><ele>7.0</ele><time>2026-05-05T13:26:28.202Z</time></trkpt><trkpt lat="51.5509733" lon="-9.2991167"><ele>7.0</ele><time>2026-05-05T13:26:29.203Z</time></trkpt><trkpt lat="51.550935" lon="-9.299405"><ele>7.0</ele><time>2026-05-05T13:26:30.202Z</time></trkpt><trkpt lat="51.5508633" lon="-9.2996833"><ele>7.0</ele><time>2026-05-05T13:26:31.203Z</time></trkpt><trkpt lat="51.550765" lon="-9.29996"><ele>7.666666666666667</ele><time>2026-05-05T13:26:32.203Z</time></trkpt><trkpt lat="51.5506567" lon="-9.3002417"><ele>8.333333333333334</ele><time>2026-05-05T13:26:33.203Z</time></trkpt><trkpt lat="51.5505483" lon="-9.30051"><ele>9.0</ele><time>2026-05-05T13:26:34.203Z</time></trkpt><trkpt lat="51.550435" lon="-9.30076"><ele>8.0</ele><time>2026-05-05T13:26:35.203Z</time></trkpt><trkpt lat="51.550335" lon="-9.3010117"><ele>7.0</ele><time>2026-05-05T13:26:36.202Z</time></trkpt><trkpt lat="51.5502367" lon="-9.3012767"><ele>6.0</ele><time>2026-05-05T13:26:37.203Z</time></trkpt><trkpt lat="51.5501617" lon="-9.3015617"><ele>6.0</ele><time>2026-05-05T13:26:38.202Z</time></trkpt><trkpt lat="51.5501183" lon="-9.3018567"><ele>6.0</ele><time>2026-05-05T13:26:39.203Z</time></trkpt><trkpt lat="51.5500767" lon="-9.3021717"><ele>6.0</ele><time>2026-05-05T13:26:40.202Z</time></trkpt><trkpt lat="51.55003" lon="-9.30248"><ele>6.333333333333334</ele><time>2026-05-05T13:26:41.203Z</time></trkpt><trkpt lat="51.5499933" lon="-9.3027967"><ele>6.666666666666667</ele><time>2026-05-05T13:26:42.203Z</time></trkpt><trkpt lat="51.5499483" lon="-9.3030967"><ele>7.0</ele><time>2026-05-05T13:26:43.203Z</time></trkpt><trkpt lat="51.549915" lon="-9.303385"><ele>7.0</ele><time>2026-05-05T13:26:44.203Z</time></trkpt><trkpt lat="51.54988" lon="-9.30367"><ele>7.0</ele><time>2026-05-05T13:26:45.202Z</time></trkpt><trkpt lat="51.5498267" lon="-9.3039617"><ele>7.0</ele><time>2026-05-05T13:26:46.202Z</time></trkpt><trkpt lat="51.5497683" lon="-9.3042433"><ele>8.333333333333334</ele><time>2026-05-05T13:26:47.203Z</time></trkpt><trkpt lat="51.5497" lon="-9.3045333"><ele>9.666666666666666</ele><time>2026-05-05T13:26:48.203Z</time></trkpt><trkpt lat="51.549625" lon="-9.304835"><ele>11.0</ele><time>2026-05-05T13:26:49.203Z</time></trkpt><trkpt lat="51.5495433" lon="-9.30513"><ele>11.0</ele><time>2026-05-05T13:26:50.202Z</time></trkpt><trkpt lat="51.5494683" lon="-9.30544"><ele>11.0</ele><time>2026-05-05T13:26:51.203Z</time></trkpt><trkpt lat="51.5493967" lon="-9.30575"><ele>11.0</ele><time>2026-05-05T13:26:52.203Z</time></trkpt><trkpt lat="51.5493267" lon="-9.3060767"><ele>11.0</ele><time>2026-05-05T13:26:53.203Z</time></trkpt><trkpt lat="51.5492583" lon="-9.306405"><ele>11.0</ele><time>2026-05-05T13:26:54.203Z</time></trkpt><trkpt lat="51.5491817" lon="-9.30674"><ele>11.0</ele><time>2026-05-05T13:26:55.202Z</time></trkpt><trkpt lat="51.549105" lon="-9.3070667"><ele>13.5</ele><time>2026-05-05T13:26:56.203Z</time></trkpt><trkpt lat="51.5490367" lon="-9.3074133"><ele>16.0</ele><time>2026-05-05T13:26:57.203Z</time></trkpt><trkpt lat="51.5489583" lon="-9.3077583"><ele>16.666666666666664</ele><time>2026-05-05T13:26:58.203Z</time></trkpt><trkpt lat="51.548875" lon="-9.3080967"><ele>17.333333333333332</ele><time>2026-05-05T13:26:59.203Z</time></trkpt><trkpt lat="51.5487983" lon="-9.3084333"><ele>18.0</ele><time>2026-05-05T13:27:00.202Z</time></trkpt><trkpt lat="51.548725" lon="-9.30877"><ele>14.666666666666666</ele><time>2026-05-05T13:27:01.203Z</time></trkpt><trkpt lat="51.54861" lon="-9.3091017"><ele>11.333333333333332</ele><time>2026-05-05T13:27:02.203Z</time></trkpt><trkpt lat="51.5485283" lon="-9.3094083"><ele>8.0</ele><time>2026-05-05T13:27:03.203Z</time></trkpt><trkpt lat="51.5484817" lon="-9.3096967"><ele>8.333333333333332</ele><time>2026-05-05T13:27:04.202Z</time></trkpt><trkpt lat="51.5484317" lon="-9.3099483"><ele>8.666666666666666</ele><time>2026-05-05T13:27:05.202Z</time></trkpt><trkpt lat="51.5483967" lon="-9.31023"><ele>9.0</ele><time>2026-05-05T13:27:06.203Z</time></trkpt><trkpt lat="51.5483667" lon="-9.3105467"><ele>8.666666666666666</ele><time>2026-05-05T13:27:07.203Z</time></trkpt><trkpt lat="51.5483533" lon="-9.3108817"><ele>8.333333333333332</ele><time>2026-05-05T13:27:08.202Z</time></trkpt><trkpt lat="51.5483817" lon="-9.3112"><ele>8.0</ele><time>2026-05-05T13:27:09.202Z</time></trkpt><trkpt lat="51.5483883" lon="-9.3115533"><ele>7.333333333333333</ele><time>2026-05-05T13:27:10.202Z</time></trkpt><trkpt lat="51.5483967" lon="-9.3118867"><ele>6.666666666666666</ele><time>2026-05-05T13:27:11.203Z</time></trkpt><trkpt lat="51.5484133" lon="-9.3122233"><ele>6.0</ele><time>2026-05-05T13:27:12.203Z</time></trkpt><trkpt lat="51.5484167" lon="-9.31255"><ele>5.333333333333333</ele><time>2026-05-05T13:27:13.203Z</time></trkpt><trkpt lat="51.5484217" lon="-9.31285"><ele>4.666666666666666</ele><time>2026-05-05T13:27:14.203Z</time></trkpt><trkpt lat="51.548375" lon="-9.313185"><ele>4.0</ele><time>2026-05-05T13:27:15.203Z</time></trkpt><trkpt lat="51.5483033" lon="-9.313545"><ele>4.0</ele><time>2026-05-05T13:27:16.203Z</time></trkpt><trkpt lat="51.5482417" lon="-9.3139133"><ele>4.0</ele><time>2026-05-05T13:27:17.203Z</time></trkpt><trkpt lat="51.5481617" lon="-9.314305"><ele>4.0</ele><time>2026-05-05T13:27:18.202Z</time></trkpt><trkpt lat="51.5480867" lon="-9.314665"><ele>4.0</ele><time>2026-05-05T13:27:19.203Z</time></trkpt><trkpt lat="51.5480183" lon="-9.3150067"><ele>4.5</ele><time>2026-05-05T13:27:20.203Z</time></trkpt><trkpt lat="51.547955" lon="-9.3153617"><ele>5.0</ele><time>2026-05-05T13:27:21.203Z</time></trkpt><trkpt lat="51.5478883" lon="-9.3157067"><ele>4.666666666666667</ele><time>2026-05-05T13:27:22.203Z</time></trkpt><trkpt lat="51.54783" lon="-9.3160083"><ele>4.333333333333333</ele><time>2026-05-05T13:27:23.203Z</time></trkpt><trkpt lat="51.5477517" lon="-9.3163"><ele>4.0</ele><time>2026-05-05T13:27:24.203Z</time></trkpt><trkpt lat="51.5476567" lon="-9.3165817"><ele>4.0</ele><time>2026-05-05T13:27:25.203Z</time></trkpt><trkpt lat="51.5475517" lon="-9.31685"><ele>4.0</ele><time>2026-05-05T13:27:26.203Z</time></trkpt><trkpt lat="51.5474183" lon="-9.317095"><ele>4.0</ele><time>2026-05-05T13:27:27.202Z</time></trkpt><trkpt lat="51.5472733" lon="-9.31733"><ele>4.0</ele><time>2026-05-05T13:27:28.202Z</time></trkpt><trkpt lat="51.5471267" lon="-9.31757"><ele>4.0</ele><time>2026-05-05T13:27:29.203Z</time></trkpt><trkpt lat="51.54699" lon="-9.317825"><ele>4.0</ele><time>2026-05-05T13:27:30.202Z</time></trkpt><trkpt lat="51.54687" lon="-9.31808"><ele>4.666666666666666</ele><time>2026-05-05T13:27:31.203Z</time></trkpt><trkpt lat="51.546775" lon="-9.3183383"><ele>5.333333333333333</ele><time>2026-05-05T13:27:32.203Z</time></trkpt><trkpt lat="51.5467033" lon="-9.3186133"><ele>6.0</ele><time>2026-05-05T13:27:33.202Z</time></trkpt><trkpt lat="51.54666" lon="-9.3189267"><ele>6.666666666666666</ele><time>2026-05-05T13:27:34.203Z</time></trkpt><trkpt lat="51.5466217" lon="-9.31927"><ele>7.333333333333333</ele><time>2026-05-05T13:27:35.203Z</time></trkpt><trkpt lat="51.5465867" lon="-9.31961"><ele>8.0</ele><time>2026-05-05T13:27:36.203Z</time></trkpt><trkpt lat="51.5465533" lon="-9.319945"><ele>9.0</ele><time>2026-05-05T13:27:37.203Z</time></trkpt><trkpt lat="51.5465067" lon="-9.3202833"><ele>10.0</ele><time>2026-05-05T13:27:38.202Z</time></trkpt><trkpt lat="51.5464633" lon="-9.32061"><ele>11.0</ele><time>2026-05-05T13:27:39.203Z</time></trkpt><trkpt lat="51.5464383" lon="-9.32092"><ele>11.666666666666666</ele><time>2026-05-05T13:27:40.203Z</time></trkpt><trkpt lat="51.54637" lon="-9.3212433"><ele>12.333333333333332</ele><time>2026-05-05T13:27:41.202Z</time></trkpt><trkpt lat="51.5462983" lon="-9.3215633"><ele>13.0</ele><time>2026-05-05T13:27:42.202Z</time></trkpt><trkpt lat="51.5462483" lon="-9.3218733"><ele>11.333333333333332</ele><time>2026-05-05T13:27:43.202Z</time></trkpt><trkpt lat="51.54618" lon="-9.32219"><ele>9.666666666666666</ele><time>2026-05-05T13:27:44.202Z</time></trkpt><trkpt lat="51.5460933" lon="-9.3225083"><ele>8.0</ele><time>2026-05-05T13:27:45.203Z</time></trkpt><trkpt lat="51.5460167" lon="-9.3228167"><ele>10.0</ele><time>2026-05-05T13:27:46.203Z</time></trkpt><trkpt lat="51.54594" lon="-9.3231233"><ele>12.0</ele><time>2026-05-05T13:27:47.202Z</time></trkpt><trkpt lat="51.5458283" lon="-9.3234217"><ele>14.0</ele><time>2026-05-05T13:27:48.203Z</time></trkpt><trkpt lat="51.545695" lon="-9.3237283"><ele>16.5</ele><time>2026-05-05T13:27:49.203Z</time></trkpt><trkpt lat="51.545545" lon="-9.32403"><ele>19.0</ele><time>2026-05-05T13:27:50.202Z</time></trkpt><trkpt lat="51.545425" lon="-9.3243317"><ele>16.666666666666664</ele><time>2026-05-05T13:27:51.203Z</time></trkpt><trkpt lat="51.5453617" lon="-9.3246667"><ele>14.333333333333332</ele><time>2026-05-05T13:27:52.203Z</time></trkpt><trkpt lat="51.5452833" lon="-9.3249883"><ele>12.0</ele><time>2026-05-05T13:27:53.202Z</time></trkpt><trkpt lat="51.545225" lon="-9.325285"><ele>12.666666666666668</ele><time>2026-05-05T13:27:54.202Z</time></trkpt><trkpt lat="51.5451717" lon="-9.32557"><ele>13.333333333333334</ele><time>2026-05-05T13:27:55.203Z</time></trkpt><trkpt lat="51.5451367" lon="-9.32586"><ele>14.0</ele><time>2026-05-05T13:27:56.203Z</time></trkpt><trkpt lat="51.545125" lon="-9.3261567"><ele>15.0</ele><time>2026-05-05T13:27:57.203Z</time></trkpt><trkpt lat="51.5451367" lon="-9.3264733"><ele>16.0</ele><time>2026-05-05T13:27:58.202Z</time></trkpt><trkpt lat="51.545215" lon="-9.3267833"><ele>17.0</ele><time>2026-05-05T13:27:59.202Z</time></trkpt><trkpt lat="51.5452833" lon="-9.32708"><ele>17.0</ele><time>2026-05-05T13:28:00.203Z</time></trkpt><trkpt lat="51.545325" lon="-9.3273717"><ele>17.0</ele><time>2026-05-05T13:28:01.203Z</time></trkpt><trkpt lat="51.5453783" lon="-9.3276617"><ele>17.0</ele><time>2026-05-05T13:28:02.203Z</time></trkpt><trkpt lat="51.5454083" lon="-9.3279433"><ele>17.25</ele><time>2026-05-05T13:28:03.203Z</time></trkpt><trkpt lat="51.545415" lon="-9.3281933"><ele>17.5</ele><time>2026-05-05T13:28:04.203Z</time></trkpt><trkpt lat="51.5453833" lon="-9.3284017"><ele>17.75</ele><time>2026-05-05T13:28:05.203Z</time></trkpt><trkpt lat="51.5453083" lon="-9.3285867"><ele>18.0</ele><time>2026-05-05T13:28:06.203Z</time></trkpt><trkpt lat="51.54523" lon="-9.3287567"><ele>18.666666666666668</ele><time>2026-05-05T13:28:07.203Z</time></trkpt><trkpt lat="51.5450983" lon="-9.3289233"><ele>19.333333333333336</ele><time>2026-05-05T13:28:08.202Z</time></trkpt><trkpt lat="51.544935" lon="-9.3290883"><ele>20.0</ele><time>2026-05-05T13:28:09.203Z</time></trkpt><trkpt lat="51.54476" lon="-9.32922"><ele>20.0</ele><time>2026-05-05T13:28:10.202Z</time></trkpt><trkpt lat="51.5445933" lon="-9.329355"><ele>20.0</ele><time>2026-05-05T13:28:11.203Z</time></trkpt><trkpt lat="51.5444467" lon="-9.329485"><ele>20.0</ele><time>2026-05-05T13:28:12.203Z</time></trkpt><trkpt lat="51.5443167" lon="-9.3296167"><ele>19.75</ele><time>2026-05-05T13:28:13.202Z</time></trkpt><trkpt lat="51.5442067" lon="-9.32977"><ele>19.5</ele><time>2026-05-05T13:28:14.203Z</time></trkpt><trkpt lat="51.54413" lon="-9.3299483"><ele>19.25</ele><time>2026-05-05T13:28:15.203Z</time></trkpt><trkpt lat="51.5440783" lon="-9.3301667"><ele>19.0</ele><time>2026-05-05T13:28:16.203Z</time></trkpt><trkpt lat="51.54405" lon="-9.330415"><ele>18.333333333333332</ele><time>2026-05-05T13:28:17.202Z</time></trkpt><trkpt lat="51.5440267" lon="-9.3306933"><ele>17.666666666666668</ele><time>2026-05-05T13:28:18.202Z</time></trkpt><trkpt lat="51.544005" lon="-9.3309867"><ele>17.0</ele><time>2026-05-05T13:28:19.203Z</time></trkpt><trkpt lat="51.5439817" lon="-9.331295"><ele>16.666666666666668</ele><time>2026-05-05T13:28:20.202Z</time></trkpt><trkpt lat="51.5439667" lon="-9.3316"><ele>16.333333333333332</ele><time>2026-05-05T13:28:21.203Z</time></trkpt><trkpt lat="51.543935" lon="-9.3319"><ele>16.0</ele><time>2026-05-05T13:28:22.202Z</time></trkpt><trkpt lat="51.5439083" lon="-9.3322033"><ele>16.0</ele><time>2026-05-05T13:28:23.203Z</time></trkpt><trkpt lat="51.5438683" lon="-9.3325217"><ele>16.0</ele><time>2026-05-05T13:28:24.202Z</time></trkpt><trkpt lat="51.5438383" lon="-9.33285"><ele>16.0</ele><time>2026-05-05T13:28:25.203Z</time></trkpt><trkpt lat="51.5438083" lon="-9.3331733"><ele>15.666666666666666</ele><time>2026-05-05T13:28:26.203Z</time></trkpt><trkpt lat="51.543785" lon="-9.3335133"><ele>15.333333333333332</ele><time>2026-05-05T13:28:27.203Z</time></trkpt><trkpt lat="51.5437617" lon="-9.3338617"><ele>15.0</ele><time>2026-05-05T13:28:28.203Z</time></trkpt><trkpt lat="51.54374" lon="-9.33423"><ele>15.0</ele><time>2026-05-05T13:28:29.203Z</time></trkpt><trkpt lat="51.5437167" lon="-9.3346"><ele>15.0</ele><time>2026-05-05T13:28:30.202Z</time></trkpt><trkpt lat="51.5436967" lon="-9.3349833"><ele>15.0</ele><time>2026-05-05T13:28:31.203Z</time></trkpt><trkpt lat="51.5436817" lon="-9.3353567"><ele>15.0</ele><time>2026-05-05T13:28:32.203Z</time></trkpt><trkpt lat="51.543655" lon="-9.3357267"><ele>15.0</ele><time>2026-05-05T13:28:33.202Z</time></trkpt><trkpt lat="51.54363" lon="-9.3361"><ele>15.0</ele><time>2026-05-05T13:28:34.203Z</time></trkpt><trkpt lat="51.5435967" lon="-9.3364767"><ele>15.0</ele><time>2026-05-05T13:28:35.203Z</time></trkpt><trkpt lat="51.543565" lon="-9.336855"><ele>15.0</ele><time>2026-05-05T13:28:36.203Z</time></trkpt><trkpt lat="51.5435283" lon="-9.337235"><ele>15.0</ele><time>2026-05-05T13:28:37.203Z</time></trkpt><trkpt lat="51.5434883" lon="-9.3376233"><ele>15.0</ele><time>2026-05-05T13:28:38.203Z</time></trkpt><trkpt lat="51.543445" lon="-9.3380133"><ele>15.5</ele><time>2026-05-05T13:28:39.202Z</time></trkpt><trkpt lat="51.5434067" lon="-9.338405"><ele>16.0</ele><time>2026-05-05T13:28:40.203Z</time></trkpt><trkpt lat="51.5433817" lon="-9.3387867"><ele>15.5</ele><time>2026-05-05T13:28:41.202Z</time></trkpt><trkpt lat="51.5433567" lon="-9.3391683"><ele>15.0</ele><time>2026-05-05T13:28:42.203Z</time></trkpt><trkpt lat="51.543325" lon="-9.3395433"><ele>16.0</ele><time>2026-05-05T13:28:43.202Z</time></trkpt><trkpt lat="51.5432917" lon="-9.3399117"><ele>17.0</ele><time>2026-05-05T13:28:44.203Z</time></trkpt><trkpt lat="51.543265" lon="-9.3402717"><ele>17.666666666666668</ele><time>2026-05-05T13:28:45.203Z</time></trkpt><trkpt lat="51.54324" lon="-9.3406217"><ele>18.333333333333332</ele><time>2026-05-05T13:28:46.202Z</time></trkpt><trkpt lat="51.5432133" lon="-9.340965"><ele>19.0</ele><time>2026-05-05T13:28:47.203Z</time></trkpt><trkpt lat="51.54318" lon="-9.3412983"><ele>19.666666666666664</ele><time>2026-05-05T13:28:48.202Z</time></trkpt><trkpt lat="51.5431467" lon="-9.3416417"><ele>20.333333333333332</ele><time>2026-05-05T13:28:49.202Z</time></trkpt><trkpt lat="51.5431133" lon="-9.3419817"><ele>21.0</ele><time>2026-05-05T13:28:50.202Z</time></trkpt><trkpt lat="51.5430867" lon="-9.3423267"><ele>21.0</ele><time>2026-05-05T13:28:51.203Z</time></trkpt><trkpt lat="51.5430483" lon="-9.34267"><ele>21.0</ele><time>2026-05-05T13:28:52.203Z</time></trkpt><trkpt lat="51.54301" lon="-9.3430117"><ele>21.0</ele><time>2026-05-05T13:28:53.203Z</time></trkpt><trkpt lat="51.5429767" lon="-9.3433467"><ele>20.666666666666668</ele><time>2026-05-05T13:28:54.203Z</time></trkpt><trkpt lat="51.5429367" lon="-9.3436767"><ele>20.333333333333336</ele><time>2026-05-05T13:28:55.203Z</time></trkpt><trkpt lat="51.5428967" lon="-9.3440033"><ele>20.0</ele><time>2026-05-05T13:28:56.202Z</time></trkpt><trkpt lat="51.5428583" lon="-9.3443283"><ele>19.0</ele><time>2026-05-05T13:28:57.202Z</time></trkpt><trkpt lat="51.5428183" lon="-9.3446583"><ele>18.0</ele><time>2026-05-05T13:28:58.203Z</time></trkpt><trkpt lat="51.542785" lon="-9.344995"><ele>17.0</ele><time>2026-05-05T13:28:59.203Z</time></trkpt><trkpt lat="51.5427483" lon="-9.34534"><ele>16.0</ele><time>2026-05-05T13:29:00.203Z</time></trkpt><trkpt lat="51.54271" lon="-9.3456833"><ele>15.0</ele><time>2026-05-05T13:29:01.202Z</time></trkpt><trkpt lat="51.5426767" lon="-9.3460333"><ele>14.0</ele><time>2026-05-05T13:29:02.202Z</time></trkpt><trkpt lat="51.5426467" lon="-9.3463833"><ele>14.0</ele><time>2026-05-05T13:29:03.203Z</time></trkpt><trkpt lat="51.5426183" lon="-9.3467283"><ele>14.0</ele><time>2026-05-05T13:29:04.203Z</time></trkpt><trkpt lat="51.5425867" lon="-9.3470733"><ele>14.0</ele><time>2026-05-05T13:29:05.203Z</time></trkpt><trkpt lat="51.5425583" lon="-9.34742"><ele>14.333333333333334</ele><time>2026-05-05T13:29:06.203Z</time></trkpt><trkpt lat="51.5425283" lon="-9.3477667"><ele>14.666666666666668</ele><time>2026-05-05T13:29:07.203Z</time></trkpt><trkpt lat="51.5425" lon="-9.348095"><ele>15.0</ele><time>2026-05-05T13:29:08.202Z</time></trkpt><trkpt lat="51.5424867" lon="-9.3484117"><ele>14.333333333333332</ele><time>2026-05-05T13:29:09.202Z</time></trkpt><trkpt lat="51.542455" lon="-9.3487067"><ele>13.666666666666666</ele><time>2026-05-05T13:29:10.202Z</time></trkpt><trkpt lat="51.5424083" lon="-9.3489983"><ele>13.0</ele><time>2026-05-05T13:29:11.202Z</time></trkpt><trkpt lat="51.54238" lon="-9.3492933"><ele>12.666666666666666</ele><time>2026-05-05T13:29:12.202Z</time></trkpt><trkpt lat="51.5423683" lon="-9.349575"><ele>12.333333333333332</ele><time>2026-05-05T13:29:13.203Z</time></trkpt><trkpt lat="51.5423467" lon="-9.3498683"><ele>12.0</ele><time>2026-05-05T13:29:14.203Z</time></trkpt><trkpt lat="51.5423233" lon="-9.3501483"><ele>12.666666666666668</ele><time>2026-05-05T13:29:15.203Z</time></trkpt><trkpt lat="51.5423017" lon="-9.3504333"><ele>13.333333333333334</ele><time>2026-05-05T13:29:16.202Z</time></trkpt><trkpt lat="51.5422617" lon="-9.3507267"><ele>14.0</ele><time>2026-05-05T13:29:17.202Z</time></trkpt><trkpt lat="51.5422083" lon="-9.3510233"><ele>14.666666666666668</ele><time>2026-05-05T13:29:18.202Z</time></trkpt><trkpt lat="51.5421433" lon="-9.3513117"><ele>15.333333333333332</ele><time>2026-05-05T13:29:19.203Z</time></trkpt><trkpt lat="51.5420833" lon="-9.3515967"><ele>16.0</ele><time>2026-05-05T13:29:20.203Z</time></trkpt><trkpt lat="51.5420317" lon="-9.3518917"><ele>17.666666666666664</ele><time>2026-05-05T13:29:21.202Z</time></trkpt><trkpt lat="51.54198" lon="-9.3521983"><ele>19.333333333333332</ele><time>2026-05-05T13:29:22.203Z</time></trkpt><trkpt lat="51.5419533" lon="-9.352495"><ele>21.0</ele><time>2026-05-05T13:29:23.202Z</time></trkpt><trkpt lat="51.5419617" lon="-9.3527917"><ele>21.0</ele><time>2026-05-05T13:29:24.203Z</time></trkpt><trkpt lat="51.5419883" lon="-9.3530867"><ele>21.0</ele><time>2026-05-05T13:29:25.203Z</time></trkpt><trkpt lat="51.5420517" lon="-9.35339"><ele>21.0</ele><time>2026-05-05T13:29:26.203Z</time></trkpt><trkpt lat="51.5421317" lon="-9.3537083"><ele>22.5</ele><time>2026-05-05T13:29:27.203Z</time></trkpt><trkpt lat="51.5422267" lon="-9.3540333"><ele>24.0</ele><time>2026-05-05T13:29:28.202Z</time></trkpt><trkpt lat="51.5423183" lon="-9.35437"><ele>23.5</ele><time>2026-05-05T13:29:29.202Z</time></trkpt><trkpt lat="51.5424017" lon="-9.3547167"><ele>23.0</ele><time>2026-05-05T13:29:30.203Z</time></trkpt><trkpt lat="51.5424883" lon="-9.3550617"><ele>23.0</ele><time>2026-05-05T13:29:31.202Z</time></trkpt><trkpt lat="51.5425683" lon="-9.3553983"><ele>23.0</ele><time>2026-05-05T13:29:32.203Z</time></trkpt><trkpt lat="51.5426467" lon="-9.3557283"><ele>23.0</ele><time>2026-05-05T13:29:33.203Z</time></trkpt><trkpt lat="51.5427267" lon="-9.3560567"><ele>22.666666666666668</ele><time>2026-05-05T13:29:34.202Z</time></trkpt><trkpt lat="51.5428083" lon="-9.3563867"><ele>22.333333333333332</ele><time>2026-05-05T13:29:35.202Z</time></trkpt><trkpt lat="51.5428833" lon="-9.3567033"><ele>22.0</ele><time>2026-05-05T13:29:36.202Z</time></trkpt><trkpt lat="51.542955" lon="-9.3570083"><ele>23.333333333333332</ele><time>2026-05-05T13:29:37.203Z</time></trkpt><trkpt lat="51.5430283" lon="-9.3573033"><ele>24.666666666666664</ele><time>2026-05-05T13:29:38.203Z</time></trkpt><trkpt lat="51.5431033" lon="-9.3575933"><ele>26.0</ele><time>2026-05-05T13:29:39.203Z</time></trkpt><trkpt lat="51.5432" lon="-9.3578567"><ele>25.333333333333332</ele><time>2026-05-05T13:29:40.203Z</time></trkpt><trkpt lat="51.5433" lon="-9.3580933"><ele>24.666666666666664</ele><time>2026-05-05T13:29:41.203Z</time></trkpt><trkpt lat="51.5434067" lon="-9.358305"><ele>24.0</ele><time>2026-05-05T13:29:42.203Z</time></trkpt><trkpt lat="51.5435517" lon="-9.35847"><ele>24.0</ele><time>2026-05-05T13:29:43.203Z</time></trkpt><trkpt lat="51.5437083" lon="-9.358645"><ele>24.0</ele><time>2026-05-05T13:29:44.203Z</time></trkpt><trkpt lat="51.5438717" lon="-9.358835"><ele>24.0</ele><time>2026-05-05T13:29:45.203Z</time></trkpt><trkpt lat="51.5440367" lon="-9.3590283"><ele>24.666666666666664</ele><time>2026-05-05T13:29:46.202Z</time></trkpt><trkpt lat="51.5442083" lon="-9.3592333"><ele>25.333333333333332</ele><time>2026-05-05T13:29:47.203Z</time></trkpt><trkpt lat="51.5443733" lon="-9.3594367"><ele>26.0</ele><time>2026-05-05T13:29:48.203Z</time></trkpt><trkpt lat="51.5445367" lon="-9.3596367"><ele>26.666666666666664</ele><time>2026-05-05T13:29:49.203Z</time></trkpt><trkpt lat="51.5446933" lon="-9.3598617"><ele>27.333333333333336</ele><time>2026-05-05T13:29:50.202Z</time></trkpt><trkpt lat="51.5448467" lon="-9.3601083"><ele>28.0</ele><time>2026-05-05T13:29:51.202Z</time></trkpt><trkpt lat="51.5449917" lon="-9.3603733"><ele>28.333333333333336</ele><time>2026-05-05T13:29:52.203Z</time></trkpt><trkpt lat="51.5451283" lon="-9.3606467"><ele>28.666666666666664</ele><time>2026-05-05T13:29:53.203Z</time></trkpt><trkpt lat="51.545255" lon="-9.3609283"><ele>29.0</ele><time>2026-05-05T13:29:54.202Z</time></trkpt><trkpt lat="51.5453717" lon="-9.3612117"><ele>30.0</ele><time>2026-05-05T13:29:55.202Z</time></trkpt><trkpt lat="51.5454817" lon="-9.361515"><ele>31.0</ele><time>2026-05-05T13:29:56.203Z</time></trkpt><trkpt lat="51.545585" lon="-9.3618333"><ele>32.0</ele><time>2026-05-05T13:29:57.203Z</time></trkpt><trkpt lat="51.5456833" lon="-9.3621683"><ele>33.0</ele><time>2026-05-05T13:29:58.203Z</time></trkpt><trkpt lat="51.54577" lon="-9.3625133"><ele>34.0</ele><time>2026-05-05T13:29:59.203Z</time></trkpt><trkpt lat="51.5458517" lon="-9.362855"><ele>34.333333333333336</ele><time>2026-05-05T13:30:00.202Z</time></trkpt><trkpt lat="51.5459433" lon="-9.3631783"><ele>34.666666666666664</ele><time>2026-05-05T13:30:01.202Z</time></trkpt><trkpt lat="51.546025" lon="-9.3634933"><ele>35.0</ele><time>2026-05-05T13:30:02.203Z</time></trkpt><trkpt lat="51.546115" lon="-9.36379"><ele>35.33333333333333</ele><time>2026-05-05T13:30:03.203Z</time></trkpt><trkpt lat="51.5462083" lon="-9.3640833"><ele>35.666666666666664</ele><time>2026-05-05T13:30:04.203Z</time></trkpt><trkpt lat="51.5463033" lon="-9.3643767"><ele>36.0</ele><time>2026-05-05T13:30:05.203Z</time></trkpt><trkpt lat="51.546405" lon="-9.3646733"><ele>36.0</ele><time>2026-05-05T13:30:06.203Z</time></trkpt><trkpt lat="51.5465133" lon="-9.3649617"><ele>36.0</ele><time>2026-05-05T13:30:07.203Z</time></trkpt><trkpt lat="51.54662" lon="-9.3652483"><ele>36.0</ele><time>2026-05-05T13:30:08.203Z</time></trkpt><trkpt lat="51.5467283" lon="-9.365535"><ele>36.666666666666664</ele><time>2026-05-05T13:30:09.203Z</time></trkpt><trkpt lat="51.5468383" lon="-9.365825"><ele>37.33333333333333</ele><time>2026-05-05T13:30:10.202Z</time></trkpt><trkpt lat="51.546945" lon="-9.3661233"><ele>38.0</ele><time>2026-05-05T13:30:11.202Z</time></trkpt><trkpt lat="51.5470483" lon="-9.366435"><ele>38.0</ele><time>2026-05-05T13:30:12.202Z</time></trkpt><trkpt lat="51.5471367" lon="-9.366755"><ele>38.0</ele><time>2026-05-05T13:30:13.203Z</time></trkpt><trkpt lat="51.54721" lon="-9.367095"><ele>38.0</ele><time>2026-05-05T13:30:14.203Z</time></trkpt><trkpt lat="51.5472733" lon="-9.36745"><ele>38.0</ele><time>2026-05-05T13:30:15.203Z</time></trkpt><trkpt lat="51.54734" lon="-9.367815"><ele>38.0</ele><time>2026-05-05T13:30:16.202Z</time></trkpt><trkpt lat="51.54741" lon="-9.3681933"><ele>38.5</ele><time>2026-05-05T13:30:17.203Z</time></trkpt><trkpt lat="51.547485" lon="-9.3685883"><ele>39.0</ele><time>2026-05-05T13:30:18.203Z</time></trkpt><trkpt lat="51.5475917" lon="-9.3689783"><ele>40.0</ele><time>2026-05-05T13:30:19.203Z</time></trkpt><trkpt lat="51.54769" lon="-9.3693783"><ele>41.0</ele><time>2026-05-05T13:30:20.203Z</time></trkpt><trkpt lat="51.5477867" lon="-9.3697817"><ele>42.5</ele><time>2026-05-05T13:30:21.203Z</time></trkpt><trkpt lat="51.5478867" lon="-9.3701833"><ele>44.0</ele><time>2026-05-05T13:30:22.203Z</time></trkpt><trkpt lat="51.54799" lon="-9.370575"><ele>44.5</ele><time>2026-05-05T13:30:23.202Z</time></trkpt><trkpt lat="51.548085" lon="-9.370955"><ele>45.0</ele><time>2026-05-05T13:30:24.202Z</time></trkpt><trkpt lat="51.54818" lon="-9.3713233"><ele>45.5</ele><time>2026-05-05T13:30:25.203Z</time></trkpt><trkpt lat="51.548275" lon="-9.371685"><ele>46.0</ele><time>2026-05-05T13:30:26.202Z</time></trkpt><trkpt lat="51.5484" lon="-9.3720367"><ele>47.0</ele><time>2026-05-05T13:30:27.202Z</time></trkpt><trkpt lat="51.5485083" lon="-9.372385"><ele>48.0</ele><time>2026-05-05T13:30:28.202Z</time></trkpt><trkpt lat="51.5486017" lon="-9.3727283"><ele>48.33333333333333</ele><time>2026-05-05T13:30:29.202Z</time></trkpt><trkpt lat="51.5486867" lon="-9.3730483"><ele>48.666666666666664</ele><time>2026-05-05T13:30:30.202Z</time></trkpt><trkpt lat="51.54876" lon="-9.3733517"><ele>49.0</ele><time>2026-05-05T13:30:31.202Z</time></trkpt><trkpt lat="51.548825" lon="-9.3736367"><ele>51.666666666666664</ele><time>2026-05-05T13:30:32.202Z</time></trkpt><trkpt lat="51.5489017" lon="-9.373895"><ele>54.33333333333333</ele><time>2026-05-05T13:30:33.203Z</time></trkpt><trkpt lat="51.548985" lon="-9.3741383"><ele>57.0</ele><time>2026-05-05T13:30:34.202Z</time></trkpt><trkpt lat="51.5490833" lon="-9.3743717"><ele>57.0</ele><time>2026-05-05T13:30:35.203Z</time></trkpt><trkpt lat="51.5491717" lon="-9.3746067"><ele>57.0</ele><time>2026-05-05T13:30:36.203Z</time></trkpt><trkpt lat="51.5492617" lon="-9.3748317"><ele>57.0</ele><time>2026-05-05T13:30:37.203Z</time></trkpt><trkpt lat="51.5493433" lon="-9.37507"><ele>57.0</ele><time>2026-05-05T13:30:38.203Z</time></trkpt><trkpt lat="51.549425" lon="-9.375295"><ele>57.0</ele><time>2026-05-05T13:30:39.203Z</time></trkpt><trkpt lat="51.5494883" lon="-9.3755383"><ele>57.0</ele><time>2026-05-05T13:30:40.203Z</time></trkpt><trkpt lat="51.5495433" lon="-9.3757933"><ele>57.33333333333333</ele><time>2026-05-05T13:30:41.202Z</time></trkpt><trkpt lat="51.5495883" lon="-9.3760667"><ele>57.666666666666664</ele><time>2026-05-05T13:30:42.203Z</time></trkpt><trkpt lat="51.5496183" lon="-9.3763433"><ele>58.0</ele><time>2026-05-05T13:30:43.202Z</time></trkpt><trkpt lat="51.5496533" lon="-9.37661"><ele>58.0</ele><time>2026-05-05T13:30:44.203Z</time></trkpt><trkpt lat="51.54968" lon="-9.37688"><ele>58.0</ele><time>2026-05-05T13:30:45.203Z</time></trkpt><trkpt lat="51.54973" lon="-9.377135"><ele>58.0</ele><time>2026-05-05T13:30:46.203Z</time></trkpt><trkpt lat="51.5497967" lon="-9.377385"><ele>57.0</ele><time>2026-05-05T13:30:47.203Z</time></trkpt><trkpt lat="51.549885" lon="-9.3776133"><ele>56.0</ele><time>2026-05-05T13:30:48.203Z</time></trkpt><trkpt lat="51.5499883" lon="-9.3778267"><ele>55.0</ele><time>2026-05-05T13:30:49.203Z</time></trkpt><trkpt lat="51.5501367" lon="-9.3779883"><ele>55.33333333333333</ele><time>2026-05-05T13:30:50.202Z</time></trkpt><trkpt lat="51.5502733" lon="-9.378165"><ele>55.66666666666667</ele><time>2026-05-05T13:30:51.202Z</time></trkpt><trkpt lat="51.5504167" lon="-9.378335"><ele>56.0</ele><time>2026-05-05T13:30:52.203Z</time></trkpt><trkpt lat="51.5505467" lon="-9.3785033"><ele>56.0</ele><time>2026-05-05T13:30:53.203Z</time></trkpt><trkpt lat="51.5506783" lon="-9.3786617"><ele>56.0</ele><time>2026-05-05T13:30:54.202Z</time></trkpt><trkpt lat="51.5508117" lon="-9.3788217"><ele>56.0</ele><time>2026-05-05T13:30:55.202Z</time></trkpt><trkpt lat="51.5509517" lon="-9.378995"><ele>56.333333333333336</ele><time>2026-05-05T13:30:56.203Z</time></trkpt><trkpt lat="51.5510933" lon="-9.3791783"><ele>56.66666666666667</ele><time>2026-05-05T13:30:57.203Z</time></trkpt><trkpt lat="51.551235" lon="-9.37936"><ele>57.0</ele><time>2026-05-05T13:30:58.202Z</time></trkpt><trkpt lat="51.5513717" lon="-9.3795317"><ele>55.66666666666667</ele><time>2026-05-05T13:30:59.202Z</time></trkpt><trkpt lat="51.551505" lon="-9.37971"><ele>54.333333333333336</ele><time>2026-05-05T13:31:00.203Z</time></trkpt><trkpt lat="51.5516417" lon="-9.379895"><ele>53.0</ele><time>2026-05-05T13:31:01.203Z</time></trkpt><trkpt lat="51.551785" lon="-9.3800717"><ele>53.0</ele><time>2026-05-05T13:31:02.203Z</time></trkpt><trkpt lat="51.55192" lon="-9.380235"><ele>53.0</ele><time>2026-05-05T13:31:03.203Z</time></trkpt><trkpt lat="51.55206" lon="-9.3803833"><ele>53.0</ele><time>2026-05-05T13:31:04.203Z</time></trkpt><trkpt lat="51.5522" lon="-9.3805167"><ele>51.0</ele><time>2026-05-05T13:31:05.203Z</time></trkpt><trkpt lat="51.5523567" lon="-9.3806367"><ele>49.0</ele><time>2026-05-05T13:31:06.202Z</time></trkpt><trkpt lat="51.5525267" lon="-9.3807517"><ele>47.0</ele><time>2026-05-05T13:31:07.203Z</time></trkpt><trkpt lat="51.552705" lon="-9.3808633"><ele>48.666666666666664</ele><time>2026-05-05T13:31:08.203Z</time></trkpt><trkpt lat="51.5528817" lon="-9.380995"><ele>50.33333333333333</ele><time>2026-05-05T13:31:09.203Z</time></trkpt><trkpt lat="51.5530633" lon="-9.3811467"><ele>52.0</ele><time>2026-05-05T13:31:10.202Z</time></trkpt><trkpt lat="51.55325" lon="-9.3813117"><ele>51.33333333333333</ele><time>2026-05-05T13:31:11.203Z</time></trkpt><trkpt lat="51.5534183" lon="-9.3815"><ele>50.66666666666667</ele><time>2026-05-05T13:31:12.202Z</time></trkpt><trkpt lat="51.5535767" lon="-9.381725"><ele>50.0</ele><time>2026-05-05T13:31:13.202Z</time></trkpt><trkpt lat="51.553725" lon="-9.38199"><ele>48.5</ele><time>2026-05-05T13:31:14.203Z</time></trkpt><trkpt lat="51.5538717" lon="-9.38228"><ele>47.0</ele><time>2026-05-05T13:31:15.203Z</time></trkpt><trkpt lat="51.5540133" lon="-9.3825867"><ele>47.0</ele><time>2026-05-05T13:31:16.203Z</time></trkpt><trkpt lat="51.5541583" lon="-9.3829017"><ele>47.0</ele><time>2026-05-05T13:31:17.203Z</time></trkpt><trkpt lat="51.5542917" lon="-9.3832117"><ele>46.666666666666664</ele><time>2026-05-05T13:31:18.202Z</time></trkpt><trkpt lat="51.5544233" lon="-9.3834933"><ele>46.333333333333336</ele><time>2026-05-05T13:31:19.202Z</time></trkpt><trkpt lat="51.5545483" lon="-9.3837617"><ele>46.0</ele><time>2026-05-05T13:31:20.203Z</time></trkpt><trkpt lat="51.5546533" lon="-9.3840117"><ele>45.333333333333336</ele><time>2026-05-05T13:31:21.203Z</time></trkpt><trkpt lat="51.554765" lon="-9.384245"><ele>44.666666666666664</ele><time>2026-05-05T13:31:22.203Z</time></trkpt><trkpt lat="51.55488" lon="-9.3844883"><ele>44.0</ele><time>2026-05-05T13:31:23.203Z</time></trkpt><trkpt lat="51.554985" lon="-9.3847583"><ele>43.666666666666664</ele><time>2026-05-05T13:31:24.203Z</time></trkpt><trkpt lat="51.555115" lon="-9.385015"><ele>43.333333333333336</ele><time>2026-05-05T13:31:25.202Z</time></trkpt><trkpt lat="51.5552617" lon="-9.385255"><ele>43.0</ele><time>2026-05-05T13:31:26.203Z</time></trkpt><trkpt lat="51.55542" lon="-9.3854667"><ele>40.66666666666667</ele><time>2026-05-05T13:31:27.203Z</time></trkpt><trkpt lat="51.5555917" lon="-9.38565"><ele>38.333333333333336</ele><time>2026-05-05T13:31:28.203Z</time></trkpt><trkpt lat="51.5557817" lon="-9.385775"><ele>36.0</ele><time>2026-05-05T13:31:29.203Z</time></trkpt><trkpt lat="51.555975" lon="-9.385855"><ele>36.0</ele><time>2026-05-05T13:31:30.202Z</time></trkpt><trkpt lat="51.55619" lon="-9.38589"><ele>36.0</ele><time>2026-05-05T13:31:31.203Z</time></trkpt><trkpt lat="51.55644" lon="-9.3859383"><ele>35.0</ele><time>2026-05-05T13:31:32.203Z</time></trkpt><trkpt lat="51.5567167" lon="-9.38599"><ele>34.0</ele><time>2026-05-05T13:31:33.203Z</time></trkpt><trkpt lat="51.5570033" lon="-9.3860467"><ele>33.5</ele><time>2026-05-05T13:31:34.203Z</time></trkpt><trkpt lat="51.557315" lon="-9.386085"><ele>33.0</ele><time>2026-05-05T13:31:35.203Z</time></trkpt><trkpt lat="51.557605" lon="-9.3861533"><ele>33.0</ele><time>2026-05-05T13:31:36.203Z</time></trkpt><trkpt lat="51.55785" lon="-9.38622"><ele>33.0</ele><time>2026-05-05T13:31:37.203Z</time></trkpt><trkpt lat="51.5580917" lon="-9.386285"><ele>31.0</ele><time>2026-05-05T13:31:38.203Z</time></trkpt><trkpt lat="51.5583183" lon="-9.386345"><ele>29.0</ele><time>2026-05-05T13:31:39.203Z</time></trkpt><trkpt lat="51.558535" lon="-9.3864133"><ele>29.333333333333332</ele><time>2026-05-05T13:31:40.203Z</time></trkpt><trkpt lat="51.5587283" lon="-9.3864867"><ele>29.666666666666664</ele><time>2026-05-05T13:31:41.203Z</time></trkpt><trkpt lat="51.5589133" lon="-9.3865917"><ele>30.0</ele><time>2026-05-05T13:31:42.202Z</time></trkpt><trkpt lat="51.559115" lon="-9.3867233"><ele>30.0</ele><time>2026-05-05T13:31:43.202Z</time></trkpt><trkpt lat="51.5592967" lon="-9.3868633"><ele>30.0</ele><time>2026-05-05T13:31:44.203Z</time></trkpt><trkpt lat="51.5594817" lon="-9.3870333"><ele>30.0</ele><time>2026-05-05T13:31:45.203Z</time></trkpt><trkpt lat="51.5596533" lon="-9.3872217"><ele>29.0</ele><time>2026-05-05T13:31:46.203Z</time></trkpt><trkpt lat="51.55981" lon="-9.3874233"><ele>28.0</ele><time>2026-05-05T13:31:47.203Z</time></trkpt><trkpt lat="51.5599533" lon="-9.3876517"><ele>27.0</ele><time>2026-05-05T13:31:48.203Z</time></trkpt><trkpt lat="51.560075" lon="-9.3878867"><ele>27.333333333333336</ele><time>2026-05-05T13:31:49.203Z</time></trkpt><trkpt lat="51.560185" lon="-9.3881533"><ele>27.666666666666668</ele><time>2026-05-05T13:31:50.203Z</time></trkpt><trkpt lat="51.5602867" lon="-9.388435"><ele>28.0</ele><time>2026-05-05T13:31:51.203Z</time></trkpt><trkpt lat="51.560355" lon="-9.3887383"><ele>28.0</ele><time>2026-05-05T13:31:52.202Z</time></trkpt><trkpt lat="51.560425" lon="-9.38905"><ele>28.0</ele><time>2026-05-05T13:31:53.203Z</time></trkpt><trkpt lat="51.560475" lon="-9.389345"><ele>28.0</ele><time>2026-05-05T13:31:54.203Z</time></trkpt><trkpt lat="51.560515" lon="-9.3896433"><ele>29.333333333333336</ele><time>2026-05-05T13:31:55.203Z</time></trkpt><trkpt lat="51.5605433" lon="-9.3899483"><ele>30.666666666666664</ele><time>2026-05-05T13:31:56.202Z</time></trkpt><trkpt lat="51.5605583" lon="-9.3902483"><ele>32.0</ele><time>2026-05-05T13:31:57.202Z</time></trkpt><trkpt lat="51.5605633" lon="-9.390555"><ele>33.0</ele><time>2026-05-05T13:31:58.203Z</time></trkpt><trkpt lat="51.56055" lon="-9.39087"><ele>34.0</ele><time>2026-05-05T13:31:59.203Z</time></trkpt><trkpt lat="51.560555" lon="-9.3911917"><ele>35.0</ele><time>2026-05-05T13:32:00.203Z</time></trkpt><trkpt lat="51.5605233" lon="-9.3915217"><ele>36.0</ele><time>2026-05-05T13:32:01.203Z</time></trkpt><trkpt lat="51.5604833" lon="-9.3918467"><ele>37.0</ele><time>2026-05-05T13:32:02.203Z</time></trkpt><trkpt lat="51.560445" lon="-9.3921633"><ele>38.0</ele><time>2026-05-05T13:32:03.202Z</time></trkpt><trkpt lat="51.5604083" lon="-9.3924733"><ele>38.0</ele><time>2026-05-05T13:32:04.203Z</time></trkpt><trkpt lat="51.5603733" lon="-9.392775"><ele>38.0</ele><time>2026-05-05T13:32:05.203Z</time></trkpt><trkpt lat="51.5603367" lon="-9.3930783"><ele>38.0</ele><time>2026-05-05T13:32:06.202Z</time></trkpt><trkpt lat="51.5602917" lon="-9.3933867"><ele>38.0</ele><time>2026-05-05T13:32:07.202Z</time></trkpt><trkpt lat="51.560255" lon="-9.3936967"><ele>38.0</ele><time>2026-05-05T13:32:08.203Z</time></trkpt><trkpt lat="51.5602233" lon="-9.394025"><ele>38.0</ele><time>2026-05-05T13:32:09.203Z</time></trkpt><trkpt lat="51.5601833" lon="-9.3943767"><ele>39.5</ele><time>2026-05-05T13:32:10.202Z</time></trkpt><trkpt lat="51.5601333" lon="-9.3947533"><ele>41.0</ele><time>2026-05-05T13:32:11.203Z</time></trkpt><trkpt lat="51.560075" lon="-9.395165"><ele>40.5</ele><time>2026-05-05T13:32:12.202Z</time></trkpt><trkpt lat="51.5600167" lon="-9.3956"><ele>40.0</ele><time>2026-05-05T13:32:13.202Z</time></trkpt><trkpt lat="51.5599483" lon="-9.3960583"><ele>40.5</ele><time>2026-05-05T13:32:14.203Z</time></trkpt><trkpt lat="51.5598767" lon="-9.3965217"><ele>41.0</ele><time>2026-05-05T13:32:15.203Z</time></trkpt><trkpt lat="51.5598033" lon="-9.39699"><ele>42.0</ele><time>2026-05-05T13:32:16.203Z</time></trkpt><trkpt lat="51.55972" lon="-9.3974583"><ele>43.0</ele><time>2026-05-05T13:32:17.203Z</time></trkpt><trkpt lat="51.5596417" lon="-9.3979"><ele>43.5</ele><time>2026-05-05T13:32:18.203Z</time></trkpt><trkpt lat="51.5595667" lon="-9.39833"><ele>44.0</ele><time>2026-05-05T13:32:19.203Z</time></trkpt><trkpt lat="51.55949" lon="-9.39876"><ele>43.5</ele><time>2026-05-05T13:32:20.203Z</time></trkpt><trkpt lat="51.5594233" lon="-9.3991933"><ele>43.0</ele><time>2026-05-05T13:32:21.202Z</time></trkpt><trkpt lat="51.5593567" lon="-9.3996083"><ele>44.0</ele><time>2026-05-05T13:32:22.203Z</time></trkpt><trkpt lat="51.559295" lon="-9.4000083"><ele>45.0</ele><time>2026-05-05T13:32:23.203Z</time></trkpt><trkpt lat="51.5592317" lon="-9.4003883"><ele>44.0</ele><time>2026-05-05T13:32:24.203Z</time></trkpt><trkpt lat="51.5591667" lon="-9.4007433"><ele>43.0</ele><time>2026-05-05T13:32:25.202Z</time></trkpt><trkpt lat="51.5591017" lon="-9.4010883"><ele>43.333333333333336</ele><time>2026-05-05T13:32:26.202Z</time></trkpt><trkpt lat="51.5590367" lon="-9.4014267"><ele>43.666666666666664</ele><time>2026-05-05T13:32:27.203Z</time></trkpt><trkpt lat="51.55898" lon="-9.4017483"><ele>44.0</ele><time>2026-05-05T13:32:28.203Z</time></trkpt><trkpt lat="51.5589183" lon="-9.4020533"><ele>44.0</ele><time>2026-05-05T13:32:29.203Z</time></trkpt><trkpt lat="51.558855" lon="-9.4023417"><ele>44.0</ele><time>2026-05-05T13:32:30.202Z</time></trkpt><trkpt lat="51.5587717" lon="-9.4026183"><ele>44.0</ele><time>2026-05-05T13:32:31.203Z</time></trkpt><trkpt lat="51.5586633" lon="-9.40288"><ele>42.666666666666664</ele><time>2026-05-05T13:32:32.202Z</time></trkpt><trkpt lat="51.5585367" lon="-9.4031217"><ele>41.333333333333336</ele><time>2026-05-05T13:32:33.203Z</time></trkpt><trkpt lat="51.558375" lon="-9.40335"><ele>40.0</ele><time>2026-05-05T13:32:34.202Z</time></trkpt><trkpt lat="51.5581933" lon="-9.40356"><ele>40.0</ele><time>2026-05-05T13:32:35.203Z</time></trkpt><trkpt lat="51.55802" lon="-9.4037517"><ele>40.0</ele><time>2026-05-05T13:32:36.202Z</time></trkpt><trkpt lat="51.5578583" lon="-9.4039417"><ele>40.0</ele><time>2026-05-05T13:32:37.203Z</time></trkpt><trkpt lat="51.5577083" lon="-9.4041283"><ele>38.333333333333336</ele><time>2026-05-05T13:32:38.203Z</time></trkpt><trkpt lat="51.5575717" lon="-9.4043283"><ele>36.666666666666664</ele><time>2026-05-05T13:32:39.203Z</time></trkpt><trkpt lat="51.5574567" lon="-9.404545"><ele>35.0</ele><time>2026-05-05T13:32:40.203Z</time></trkpt><trkpt lat="51.5573517" lon="-9.4047933"><ele>34.666666666666664</ele><time>2026-05-05T13:32:41.203Z</time></trkpt><trkpt lat="51.557255" lon="-9.40507"><ele>34.333333333333336</ele><time>2026-05-05T13:32:42.203Z</time></trkpt><trkpt lat="51.5571917" lon="-9.4053733"><ele>34.0</ele><time>2026-05-05T13:32:43.203Z</time></trkpt><trkpt lat="51.5571433" lon="-9.4056933"><ele>33.333333333333336</ele><time>2026-05-05T13:32:44.203Z</time></trkpt><trkpt lat="51.5571183" lon="-9.4060233"><ele>32.666666666666664</ele><time>2026-05-05T13:32:45.203Z</time></trkpt><trkpt lat="51.55711" lon="-9.4063467"><ele>32.0</ele><time>2026-05-05T13:32:46.203Z</time></trkpt><trkpt lat="51.5571267" lon="-9.40667"><ele>30.666666666666664</ele><time>2026-05-05T13:32:47.202Z</time></trkpt><trkpt lat="51.5571767" lon="-9.406985"><ele>29.333333333333336</ele><time>2026-05-05T13:32:48.203Z</time></trkpt><trkpt lat="51.5572567" lon="-9.4072783"><ele>28.0</ele><time>2026-05-05T13:32:49.203Z</time></trkpt><trkpt lat="51.5573717" lon="-9.407555"><ele>27.0</ele><time>2026-05-05T13:32:50.203Z</time></trkpt><trkpt lat="51.5574833" lon="-9.407845"><ele>26.0</ele><time>2026-05-05T13:32:51.203Z</time></trkpt><trkpt lat="51.5576133" lon="-9.40813"><ele>25.0</ele><time>2026-05-05T13:32:52.203Z</time></trkpt><trkpt lat="51.55775" lon="-9.4084367"><ele>26.0</ele><time>2026-05-05T13:32:53.203Z</time></trkpt><trkpt lat="51.5579167" lon="-9.4087467"><ele>27.0</ele><time>2026-05-05T13:32:54.203Z</time></trkpt><trkpt lat="51.55808" lon="-9.40906"><ele>24.5</ele><time>2026-05-05T13:32:55.203Z</time></trkpt><trkpt lat="51.558245" lon="-9.4093733"><ele>22.0</ele><time>2026-05-05T13:32:56.202Z</time></trkpt><trkpt lat="51.5584033" lon="-9.4096783"><ele>21.5</ele><time>2026-05-05T13:32:57.203Z</time></trkpt><trkpt lat="51.5585417" lon="-9.4099817"><ele>21.0</ele><time>2026-05-05T13:32:58.203Z</time></trkpt><trkpt lat="51.55868" lon="-9.410285"><ele>22.5</ele><time>2026-05-05T13:32:59.202Z</time></trkpt><trkpt lat="51.55882" lon="-9.4105817"><ele>24.0</ele><time>2026-05-05T13:33:00.203Z</time></trkpt><trkpt lat="51.5589567" lon="-9.4108733"><ele>24.0</ele><time>2026-05-05T13:33:01.202Z</time></trkpt><trkpt lat="51.559085" lon="-9.4111667"><ele>24.0</ele><time>2026-05-05T13:33:02.203Z</time></trkpt><trkpt lat="51.5592117" lon="-9.4114417"><ele>24.0</ele><time>2026-05-05T13:33:03.203Z</time></trkpt><trkpt lat="51.559335" lon="-9.4117033"><ele>24.666666666666664</ele><time>2026-05-05T13:33:04.202Z</time></trkpt><trkpt lat="51.5594583" lon="-9.4119517"><ele>25.333333333333332</ele><time>2026-05-05T13:33:05.203Z</time></trkpt><trkpt lat="51.5596017" lon="-9.412185"><ele>26.0</ele><time>2026-05-05T13:33:06.203Z</time></trkpt><trkpt lat="51.559755" lon="-9.4124033"><ele>27.333333333333332</ele><time>2026-05-05T13:33:07.202Z</time></trkpt><trkpt lat="51.559925" lon="-9.412595"><ele>28.666666666666664</ele><time>2026-05-05T13:33:08.202Z</time></trkpt><trkpt lat="51.5601" lon="-9.4127583"><ele>30.0</ele><time>2026-05-05T13:33:09.202Z</time></trkpt><trkpt lat="51.560285" lon="-9.4128867"><ele>30.666666666666664</ele><time>2026-05-05T13:33:10.202Z</time></trkpt><trkpt lat="51.5604817" lon="-9.4129667"><ele>31.333333333333332</ele><time>2026-05-05T13:33:11.203Z</time></trkpt><trkpt lat="51.5606867" lon="-9.41301"><ele>32.0</ele><time>2026-05-05T13:33:12.203Z</time></trkpt><trkpt lat="51.5608917" lon="-9.4130267"><ele>34.0</ele><time>2026-05-05T13:33:13.203Z</time></trkpt><trkpt lat="51.561095" lon="-9.4130883"><ele>36.0</ele><time>2026-05-05T13:33:14.203Z</time></trkpt><trkpt lat="51.5612967" lon="-9.4131733"><ele>38.0</ele><time>2026-05-05T13:33:15.203Z</time></trkpt><trkpt lat="51.56149" lon="-9.4132917"><ele>38.33333333333333</ele><time>2026-05-05T13:33:16.203Z</time></trkpt><trkpt lat="51.5616667" lon="-9.4134367"><ele>38.666666666666664</ele><time>2026-05-05T13:33:17.203Z</time></trkpt><trkpt lat="51.5618267" lon="-9.4136283"><ele>39.0</ele><time>2026-05-05T13:33:18.203Z</time></trkpt><trkpt lat="51.56198" lon="-9.4138533"><ele>39.333333333333336</ele><time>2026-05-05T13:33:19.203Z</time></trkpt><trkpt lat="51.56213" lon="-9.4141083"><ele>39.66666666666667</ele><time>2026-05-05T13:33:20.203Z</time></trkpt><trkpt lat="51.562275" lon="-9.4143683"><ele>40.0</ele><time>2026-05-05T13:33:21.203Z</time></trkpt><trkpt lat="51.5624383" lon="-9.4146133"><ele>41.0</ele><time>2026-05-05T13:33:22.203Z</time></trkpt><trkpt lat="51.5626167" lon="-9.4148333"><ele>42.0</ele><time>2026-05-05T13:33:23.203Z</time></trkpt><trkpt lat="51.562805" lon="-9.4150033"><ele>43.0</ele><time>2026-05-05T13:33:24.202Z</time></trkpt><trkpt lat="51.5629917" lon="-9.415175"><ele>43.0</ele><time>2026-05-05T13:33:25.203Z</time></trkpt><trkpt lat="51.5631733" lon="-9.41537"><ele>43.0</ele><time>2026-05-05T13:33:26.202Z</time></trkpt><trkpt lat="51.5633467" lon="-9.41556"><ele>43.0</ele><time>2026-05-05T13:33:27.202Z</time></trkpt><trkpt lat="51.563495" lon="-9.4157617"><ele>43.0</ele><time>2026-05-05T13:33:28.203Z</time></trkpt><trkpt lat="51.563635" lon="-9.4159733"><ele>43.0</ele><time>2026-05-05T13:33:29.203Z</time></trkpt><trkpt lat="51.56376" lon="-9.41621"><ele>43.0</ele><time>2026-05-05T13:33:30.203Z</time></trkpt><trkpt lat="51.5638683" lon="-9.4164683"><ele>44.333333333333336</ele><time>2026-05-05T13:33:31.203Z</time></trkpt><trkpt lat="51.563965" lon="-9.41675"><ele>45.666666666666664</ele><time>2026-05-05T13:33:32.202Z</time></trkpt><trkpt lat="51.5640733" lon="-9.417015"><ele>47.0</ele><time>2026-05-05T13:33:33.203Z</time></trkpt><trkpt lat="51.5641267" lon="-9.41732"><ele>48.0</ele><time>2026-05-05T13:33:34.202Z</time></trkpt><trkpt lat="51.5641583" lon="-9.4176433"><ele>49.0</ele><time>2026-05-05T13:33:35.202Z</time></trkpt><trkpt lat="51.5641517" lon="-9.417955"><ele>50.0</ele><time>2026-05-05T13:33:36.202Z</time></trkpt><trkpt lat="51.5641117" lon="-9.4182833"><ele>50.66666666666667</ele><time>2026-05-05T13:33:37.203Z</time></trkpt><trkpt lat="51.5640617" lon="-9.418585"><ele>51.33333333333333</ele><time>2026-05-05T13:33:38.203Z</time></trkpt><trkpt lat="51.563985" lon="-9.4188933"><ele>52.0</ele><time>2026-05-05T13:33:39.203Z</time></trkpt><trkpt lat="51.56386" lon="-9.4191983"><ele>52.5</ele><time>2026-05-05T13:33:40.203Z</time></trkpt><trkpt lat="51.5637533" lon="-9.41951"><ele>53.0</ele><time>2026-05-05T13:33:41.203Z</time></trkpt><trkpt lat="51.5636183" lon="-9.4198317"><ele>54.5</ele><time>2026-05-05T13:33:42.202Z</time></trkpt><trkpt lat="51.5634967" lon="-9.420125"><ele>56.0</ele><time>2026-05-05T13:33:43.202Z</time></trkpt><trkpt lat="51.5633567" lon="-9.4204417"><ele>57.0</ele><time>2026-05-05T13:33:44.203Z</time></trkpt><trkpt lat="51.5632167" lon="-9.4207667"><ele>58.0</ele><time>2026-05-05T13:33:45.203Z</time></trkpt><trkpt lat="51.563085" lon="-9.4210917"><ele>58.666666666666664</ele><time>2026-05-05T13:33:46.203Z</time></trkpt><trkpt lat="51.5629717" lon="-9.4214033"><ele>59.33333333333333</ele><time>2026-05-05T13:33:47.203Z</time></trkpt><trkpt lat="51.5628717" lon="-9.4217117"><ele>60.0</ele><time>2026-05-05T13:33:48.202Z</time></trkpt><trkpt lat="51.5627817" lon="-9.42203"><ele>58.66666666666667</ele><time>2026-05-05T13:33:49.203Z</time></trkpt><trkpt lat="51.562705" lon="-9.4223483"><ele>57.333333333333336</ele><time>2026-05-05T13:33:50.202Z</time></trkpt><trkpt lat="51.5626467" lon="-9.4226683"><ele>56.0</ele><time>2026-05-05T13:33:51.203Z</time></trkpt><trkpt lat="51.5626167" lon="-9.4229833"><ele>56.0</ele><time>2026-05-05T13:33:52.203Z</time></trkpt><trkpt lat="51.5625967" lon="-9.4233133"><ele>56.0</ele><time>2026-05-05T13:33:53.203Z</time></trkpt><trkpt lat="51.5626283" lon="-9.4236617"><ele>56.0</ele><time>2026-05-05T13:33:54.202Z</time></trkpt><trkpt lat="51.562675" lon="-9.4240217"><ele>56.0</ele><time>2026-05-05T13:33:55.202Z</time></trkpt><trkpt lat="51.5627233" lon="-9.4243917"><ele>56.0</ele><time>2026-05-05T13:33:56.202Z</time></trkpt><trkpt lat="51.5627633" lon="-9.4247667"><ele>56.0</ele><time>2026-05-05T13:33:57.202Z</time></trkpt><trkpt lat="51.5627967" lon="-9.4251367"><ele>56.0</ele><time>2026-05-05T13:33:58.202Z</time></trkpt><trkpt lat="51.562835" lon="-9.4255117"><ele>56.0</ele><time>2026-05-05T13:33:59.203Z</time></trkpt><trkpt lat="51.56286" lon="-9.42589"><ele>56.0</ele><time>2026-05-05T13:34:00.203Z</time></trkpt><trkpt lat="51.5628833" lon="-9.4262733"><ele>55.0</ele><time>2026-05-05T13:34:01.203Z</time></trkpt><trkpt lat="51.56291" lon="-9.4266617"><ele>54.0</ele><time>2026-05-05T13:34:02.202Z</time></trkpt><trkpt lat="51.5629533" lon="-9.4270433"><ele>51.5</ele><time>2026-05-05T13:34:03.203Z</time></trkpt><trkpt lat="51.5629933" lon="-9.4274217"><ele>49.0</ele><time>2026-05-05T13:34:04.202Z</time></trkpt><trkpt lat="51.5630333" lon="-9.4277983"><ele>48.5</ele><time>2026-05-05T13:34:05.203Z</time></trkpt><trkpt lat="51.563075" lon="-9.4281733"><ele>48.0</ele><time>2026-05-05T13:34:06.203Z</time></trkpt><trkpt lat="51.5631233" lon="-9.4285533"><ele>47.5</ele><time>2026-05-05T13:34:07.202Z</time></trkpt><trkpt lat="51.5631617" lon="-9.4289317"><ele>47.0</ele><time>2026-05-05T13:34:08.202Z</time></trkpt><trkpt lat="51.5631983" lon="-9.4292983"><ele>46.0</ele><time>2026-05-05T13:34:09.203Z</time></trkpt><trkpt lat="51.563235" lon="-9.4296633"><ele>45.0</ele><time>2026-05-05T13:34:10.203Z</time></trkpt><trkpt lat="51.5632617" lon="-9.430025"><ele>45.0</ele><time>2026-05-05T13:34:11.203Z</time></trkpt><trkpt lat="51.56328" lon="-9.4303883"><ele>45.0</ele><time>2026-05-05T13:34:12.202Z</time></trkpt><trkpt lat="51.56329" lon="-9.43076"><ele>44.0</ele><time>2026-05-05T13:34:13.202Z</time></trkpt><trkpt lat="51.5632817" lon="-9.4311367"><ele>43.0</ele><time>2026-05-05T13:34:14.202Z</time></trkpt><trkpt lat="51.563275" lon="-9.4315217"><ele>41.5</ele><time>2026-05-05T13:34:15.202Z</time></trkpt><trkpt lat="51.5632533" lon="-9.4319183"><ele>40.0</ele><time>2026-05-05T13:34:16.202Z</time></trkpt><trkpt lat="51.5632283" lon="-9.43233"><ele>38.5</ele><time>2026-05-05T13:34:17.203Z</time></trkpt><trkpt lat="51.5632067" lon="-9.4327417"><ele>37.0</ele><time>2026-05-05T13:34:18.202Z</time></trkpt><trkpt lat="51.5631767" lon="-9.4331617"><ele>36.0</ele><time>2026-05-05T13:34:19.202Z</time></trkpt><trkpt lat="51.5631533" lon="-9.433585"><ele>35.0</ele><time>2026-05-05T13:34:20.203Z</time></trkpt><trkpt lat="51.5631267" lon="-9.434015"><ele>35.0</ele><time>2026-05-05T13:34:21.202Z</time></trkpt><trkpt lat="51.5631167" lon="-9.4344417"><ele>35.0</ele><time>2026-05-05T13:34:22.203Z</time></trkpt><trkpt lat="51.5631117" lon="-9.4348717"><ele>35.0</ele><time>2026-05-05T13:34:23.202Z</time></trkpt><trkpt lat="51.563105" lon="-9.4352933"><ele>35.0</ele><time>2026-05-05T13:34:24.202Z</time></trkpt><trkpt lat="51.5631217" lon="-9.4356867"><ele>35.5</ele><time>2026-05-05T13:34:25.203Z</time></trkpt><trkpt lat="51.563135" lon="-9.4360617"><ele>36.0</ele><time>2026-05-05T13:34:26.203Z</time></trkpt><trkpt lat="51.563145" lon="-9.4364167"><ele>36.0</ele><time>2026-05-05T13:34:27.203Z</time></trkpt><trkpt lat="51.5631467" lon="-9.4367617"><ele>36.0</ele><time>2026-05-05T13:34:28.203Z</time></trkpt><trkpt lat="51.5631433" lon="-9.43712"><ele>36.0</ele><time>2026-05-05T13:34:29.203Z</time></trkpt><trkpt lat="51.5631233" lon="-9.4374917"><ele>36.0</ele><time>2026-05-05T13:34:30.203Z</time></trkpt><trkpt lat="51.5630817" lon="-9.4378667"><ele>36.0</ele><time>2026-05-05T13:34:31.202Z</time></trkpt><trkpt lat="51.563035" lon="-9.4382383"><ele>36.0</ele><time>2026-05-05T13:34:32.202Z</time></trkpt><trkpt lat="51.5629767" lon="-9.43861"><ele>36.0</ele><time>2026-05-05T13:34:33.202Z</time></trkpt><trkpt lat="51.5628967" lon="-9.438995"><ele>38.0</ele><time>2026-05-05T13:34:34.203Z</time></trkpt><trkpt lat="51.5628167" lon="-9.439355"><ele>40.0</ele><time>2026-05-05T13:34:35.203Z</time></trkpt><trkpt lat="51.5627267" lon="-9.4397167"><ele>40.0</ele><time>2026-05-05T13:34:36.203Z</time></trkpt><trkpt lat="51.56263" lon="-9.44007"><ele>40.0</ele><time>2026-05-05T13:34:37.202Z</time></trkpt><trkpt lat="51.56252" lon="-9.4404333"><ele>39.5</ele><time>2026-05-05T13:34:38.202Z</time></trkpt><trkpt lat="51.5624183" lon="-9.4407983"><ele>39.0</ele><time>2026-05-05T13:34:39.202Z</time></trkpt><trkpt lat="51.5623217" lon="-9.4411633"><ele>38.0</ele><time>2026-05-05T13:34:40.202Z</time></trkpt><trkpt lat="51.5622317" lon="-9.44152"><ele>37.0</ele><time>2026-05-05T13:34:41.203Z</time></trkpt><trkpt lat="51.5621417" lon="-9.4418667"><ele>37.0</ele><time>2026-05-05T13:34:42.202Z</time></trkpt><trkpt lat="51.5620683" lon="-9.4422083"><ele>37.0</ele><time>2026-05-05T13:34:43.203Z</time></trkpt><trkpt lat="51.5619933" lon="-9.44257"><ele>37.0</ele><time>2026-05-05T13:34:44.203Z</time></trkpt><trkpt lat="51.5619367" lon="-9.4429333"><ele>37.0</ele><time>2026-05-05T13:34:45.203Z</time></trkpt><trkpt lat="51.5618967" lon="-9.4432933"><ele>36.0</ele><time>2026-05-05T13:34:46.202Z</time></trkpt><trkpt lat="51.56186" lon="-9.4436567"><ele>35.0</ele><time>2026-05-05T13:34:47.203Z</time></trkpt><trkpt lat="51.5618333" lon="-9.4440217"><ele>33.5</ele><time>2026-05-05T13:34:48.202Z</time></trkpt><trkpt lat="51.561805" lon="-9.4443883"><ele>32.0</ele><time>2026-05-05T13:34:49.203Z</time></trkpt><trkpt lat="51.5617883" lon="-9.4447483"><ele>30.666666666666664</ele><time>2026-05-05T13:34:50.202Z</time></trkpt><trkpt lat="51.5618017" lon="-9.445085"><ele>29.333333333333336</ele><time>2026-05-05T13:34:51.202Z</time></trkpt><trkpt lat="51.56182" lon="-9.4454133"><ele>28.0</ele><time>2026-05-05T13:34:52.202Z</time></trkpt><trkpt lat="51.5618333" lon="-9.4457633"><ele>27.666666666666668</ele><time>2026-05-05T13:34:53.202Z</time></trkpt><trkpt lat="51.56186" lon="-9.446105"><ele>27.333333333333336</ele><time>2026-05-05T13:34:54.202Z</time></trkpt><trkpt lat="51.56189" lon="-9.44643"><ele>27.0</ele><time>2026-05-05T13:34:55.203Z</time></trkpt><trkpt lat="51.5619233" lon="-9.446745"><ele>27.333333333333336</ele><time>2026-05-05T13:34:56.202Z</time></trkpt><trkpt lat="51.5619633" lon="-9.44706"><ele>27.666666666666668</ele><time>2026-05-05T13:34:57.203Z</time></trkpt><trkpt lat="51.5620067" lon="-9.4473833"><ele>28.0</ele><time>2026-05-05T13:34:58.203Z</time></trkpt><trkpt lat="51.5620533" lon="-9.4477117"><ele>27.333333333333336</ele><time>2026-05-05T13:34:59.203Z</time></trkpt><trkpt lat="51.56211" lon="-9.4480383"><ele>26.666666666666664</ele><time>2026-05-05T13:35:00.203Z</time></trkpt><trkpt lat="51.5621617" lon="-9.4483667"><ele>26.0</ele><time>2026-05-05T13:35:01.203Z</time></trkpt><trkpt lat="51.5622133" lon="-9.4487017"><ele>26.666666666666664</ele><time>2026-05-05T13:35:02.203Z</time></trkpt><trkpt lat="51.5622683" lon="-9.4490367"><ele>27.333333333333336</ele><time>2026-05-05T13:35:03.203Z</time></trkpt><trkpt lat="51.5623233" lon="-9.4493683"><ele>28.0</ele><time>2026-05-05T13:35:04.203Z</time></trkpt><trkpt lat="51.5623783" lon="-9.4497033"><ele>28.0</ele><time>2026-05-05T13:35:05.202Z</time></trkpt><trkpt lat="51.5624283" lon="-9.45004"><ele>28.0</ele><time>2026-05-05T13:35:06.202Z</time></trkpt><trkpt lat="51.5624883" lon="-9.4503733"><ele>28.0</ele><time>2026-05-05T13:35:07.203Z</time></trkpt><trkpt lat="51.5625333" lon="-9.450705"><ele>28.0</ele><time>2026-05-05T13:35:08.203Z</time></trkpt><trkpt lat="51.5625833" lon="-9.4510217"><ele>28.0</ele><time>2026-05-05T13:35:09.202Z</time></trkpt><trkpt lat="51.5626267" lon="-9.4513367"><ele>28.0</ele><time>2026-05-05T13:35:10.202Z</time></trkpt><trkpt lat="51.562675" lon="-9.45166"><ele>27.0</ele><time>2026-05-05T13:35:11.203Z</time></trkpt><trkpt lat="51.5627233" lon="-9.451975"><ele>26.0</ele><time>2026-05-05T13:35:12.202Z</time></trkpt><trkpt lat="51.5627617" lon="-9.4522817"><ele>25.0</ele><time>2026-05-05T13:35:13.202Z</time></trkpt><trkpt lat="51.5628" lon="-9.4525717"><ele>23.0</ele><time>2026-05-05T13:35:14.202Z</time></trkpt><trkpt lat="51.562835" lon="-9.4528483"><ele>21.0</ele><time>2026-05-05T13:35:15.203Z</time></trkpt><trkpt lat="51.5628683" lon="-9.4531267"><ele>19.0</ele><time>2026-05-05T13:35:16.202Z</time></trkpt><trkpt lat="51.5628867" lon="-9.4534033"><ele>18.666666666666664</ele><time>2026-05-05T13:35:17.202Z</time></trkpt><trkpt lat="51.5628933" lon="-9.4536733"><ele>18.333333333333332</ele><time>2026-05-05T13:35:18.203Z</time></trkpt><trkpt lat="51.5629" lon="-9.45394"><ele>18.0</ele><time>2026-05-05T13:35:19.203Z</time></trkpt><trkpt lat="51.562905" lon="-9.4542"><ele>16.333333333333332</ele><time>2026-05-05T13:35:20.203Z</time></trkpt><trkpt lat="51.5629017" lon="-9.454455"><ele>14.666666666666666</ele><time>2026-05-05T13:35:21.203Z</time></trkpt><trkpt lat="51.5628983" lon="-9.4547083"><ele>13.0</ele><time>2026-05-05T13:35:22.202Z</time></trkpt><trkpt lat="51.5628883" lon="-9.4549517"><ele>12.0</ele><time>2026-05-05T13:35:23.203Z</time></trkpt><trkpt lat="51.5628667" lon="-9.4551767"><ele>11.0</ele><time>2026-05-05T13:35:24.202Z</time></trkpt><trkpt lat="51.562845" lon="-9.45539"><ele>10.0</ele><time>2026-05-05T13:35:25.203Z</time></trkpt><trkpt lat="51.562825" lon="-9.4555983"><ele>9.0</ele><time>2026-05-05T13:35:26.203Z</time></trkpt><trkpt lat="51.5628033" lon="-9.4558017"><ele>8.25</ele><time>2026-05-05T13:35:27.202Z</time></trkpt><trkpt lat="51.5628133" lon="-9.455995"><ele>7.5</ele><time>2026-05-05T13:35:28.203Z</time></trkpt><trkpt lat="51.5628383" lon="-9.4561933"><ele>6.75</ele><time>2026-05-05T13:35:29.202Z</time></trkpt><trkpt lat="51.56288" lon="-9.456385"><ele>6.0</ele><time>2026-05-05T13:35:30.202Z</time></trkpt><trkpt lat="51.5629333" lon="-9.4566117"><ele>6.0</ele><time>2026-05-05T13:35:31.203Z</time></trkpt><trkpt lat="51.5629917" lon="-9.456845"><ele>6.0</ele><time>2026-05-05T13:35:32.203Z</time></trkpt><trkpt lat="51.5630667" lon="-9.4570533"><ele>6.0</ele><time>2026-05-05T13:35:33.202Z</time></trkpt><trkpt lat="51.5631133" lon="-9.4572533"><ele>6.0</ele><time>2026-05-05T13:35:34.203Z</time></trkpt><trkpt lat="51.5631683" lon="-9.45745"><ele>6.25</ele><time>2026-05-05T13:35:35.203Z</time></trkpt><trkpt lat="51.563215" lon="-9.457645"><ele>6.5</ele><time>2026-05-05T13:35:36.203Z</time></trkpt><trkpt lat="51.5632517" lon="-9.45783"><ele>6.75</ele><time>2026-05-05T13:35:37.203Z</time></trkpt><trkpt lat="51.563285" lon="-9.4580067"><ele>7.0</ele><time>2026-05-05T13:35:38.203Z</time></trkpt><trkpt lat="51.5633083" lon="-9.4581683"><ele>7.000000000000001</ele><time>2026-05-05T13:35:39.203Z</time></trkpt><trkpt lat="51.56331" lon="-9.4583167"><ele>7.0</ele><time>2026-05-05T13:35:40.203Z</time></trkpt><trkpt lat="51.5633067" lon="-9.4584567"><ele>7.0</ele><time>2026-05-05T13:35:41.203Z</time></trkpt><trkpt lat="51.5633017" lon="-9.458585"><ele>7.0</ele><time>2026-05-05T13:35:42.203Z</time></trkpt><trkpt lat="51.563285" lon="-9.4587067"><ele>7.000000000000001</ele><time>2026-05-05T13:35:43.203Z</time></trkpt><trkpt lat="51.56327" lon="-9.4588233"><ele>7.0</ele><time>2026-05-05T13:35:44.202Z</time></trkpt><trkpt lat="51.5632517" lon="-9.4589467"><ele>7.166666666666667</ele><time>2026-05-05T13:35:45.203Z</time></trkpt><trkpt lat="51.5632233" lon="-9.4590533"><ele>7.333333333333334</ele><time>2026-05-05T13:35:46.203Z</time></trkpt><trkpt lat="51.5631933" lon="-9.4591567"><ele>7.5</ele><time>2026-05-05T13:35:47.203Z</time></trkpt><trkpt lat="51.5631317" lon="-9.4593367"><ele>7.666666666666666</ele><time>2026-05-05T13:35:49.203Z</time></trkpt><trkpt lat="51.5630983" lon="-9.4594367"><ele>7.833333333333333</ele><time>2026-05-05T13:35:50.203Z</time></trkpt><trkpt lat="51.5630633" lon="-9.45955"><ele>8.0</ele><time>2026-05-05T13:35:51.202Z</time></trkpt><trkpt lat="51.5630233" lon="-9.459675"><ele>8.166666666666666</ele><time>2026-05-05T13:35:52.203Z</time></trkpt><trkpt lat="51.5629733" lon="-9.4598117"><ele>8.333333333333332</ele><time>2026-05-05T13:35:53.203Z</time></trkpt><trkpt lat="51.5629233" lon="-9.4599417"><ele>8.5</ele><time>2026-05-05T13:35:54.202Z</time></trkpt><trkpt lat="51.5628833" lon="-9.4600617"><ele>8.666666666666666</ele><time>2026-05-05T13:35:55.202Z</time></trkpt><trkpt lat="51.562845" lon="-9.46018"><ele>8.833333333333334</ele><time>2026-05-05T13:35:56.202Z</time></trkpt><trkpt lat="51.5628083" lon="-9.460275"><ele>9.0</ele><time>2026-05-05T13:35:57.203Z</time></trkpt><trkpt lat="51.562765" lon="-9.460445"><ele>10.0</ele><time>2026-05-05T13:35:59.203Z</time></trkpt><trkpt lat="51.5627333" lon="-9.4605367"><ele>11.0</ele><time>2026-05-05T13:36:00.203Z</time></trkpt><trkpt lat="51.562705" lon="-9.4606367"><ele>12.0</ele><time>2026-05-05T13:36:01.203Z</time></trkpt><trkpt lat="51.5626717" lon="-9.4607383"><ele>13.0</ele><time>2026-05-05T13:36:02.202Z</time></trkpt><trkpt lat="51.5626383" lon="-9.4608533"><ele>13.999999999999998</ele><time>2026-05-05T13:36:03.203Z</time></trkpt><trkpt lat="51.5626317" lon="-9.46098"><ele>15.0</ele><time>2026-05-05T13:36:04.203Z</time></trkpt><trkpt lat="51.5626417" lon="-9.4611133"><ele>16.0</ele><time>2026-05-05T13:36:05.203Z</time></trkpt><trkpt lat="51.56265" lon="-9.4612483"><ele>16.6</ele><time>2026-05-05T13:36:06.203Z</time></trkpt><trkpt lat="51.5626633" lon="-9.46138"><ele>17.200000000000003</ele><time>2026-05-05T13:36:07.203Z</time></trkpt><trkpt lat="51.56267" lon="-9.4616433"><ele>17.799999999999997</ele><time>2026-05-05T13:36:09.203Z</time></trkpt><trkpt lat="51.5626683" lon="-9.4617733"><ele>18.4</ele><time>2026-05-05T13:36:10.203Z</time></trkpt><trkpt lat="51.56267" lon="-9.461885"><ele>19.0</ele><time>2026-05-05T13:36:11.203Z</time></trkpt><trkpt lat="51.5626633" lon="-9.4620967"><ele>19.166666666666664</ele><time>2026-05-05T13:36:13.203Z</time></trkpt><trkpt lat="51.5626533" lon="-9.46222"><ele>19.333333333333332</ele><time>2026-05-05T13:36:14.203Z</time></trkpt><trkpt lat="51.5626367" lon="-9.4623517"><ele>19.5</ele><time>2026-05-05T13:36:15.203Z</time></trkpt><trkpt lat="51.5626183" lon="-9.4624883"><ele>19.666666666666668</ele><time>2026-05-05T13:36:16.203Z</time></trkpt><trkpt lat="51.5625933" lon="-9.4626283"><ele>19.833333333333336</ele><time>2026-05-05T13:36:17.203Z</time></trkpt><trkpt lat="51.5625567" lon="-9.46278"><ele>20.0</ele><time>2026-05-05T13:36:18.203Z</time></trkpt><trkpt lat="51.5625117" lon="-9.4629333"><ele>20.75</ele><time>2026-05-05T13:36:19.202Z</time></trkpt><trkpt lat="51.56246" lon="-9.4631017"><ele>21.5</ele><time>2026-05-05T13:36:20.202Z</time></trkpt><trkpt lat="51.562405" lon="-9.4632717"><ele>22.25</ele><time>2026-05-05T13:36:21.203Z</time></trkpt><trkpt lat="51.562345" lon="-9.46345"><ele>23.0</ele><time>2026-05-05T13:36:22.203Z</time></trkpt><trkpt lat="51.56225" lon="-9.4636283"><ele>25.0</ele><time>2026-05-05T13:36:23.203Z</time></trkpt><trkpt lat="51.5621367" lon="-9.4637967"><ele>27.0</ele><time>2026-05-05T13:36:24.202Z</time></trkpt><trkpt lat="51.5620067" lon="-9.4639583"><ele>29.0</ele><time>2026-05-05T13:36:25.203Z</time></trkpt><trkpt lat="51.561845" lon="-9.4641167"><ele>30.0</ele><time>2026-05-05T13:36:26.203Z</time></trkpt><trkpt lat="51.561685" lon="-9.4642867"><ele>31.0</ele><time>2026-05-05T13:36:27.202Z</time></trkpt><trkpt lat="51.561495" lon="-9.4644517"><ele>32.0</ele><time>2026-05-05T13:36:28.203Z</time></trkpt><trkpt lat="51.5612883" lon="-9.4646167"><ele>34.666666666666664</ele><time>2026-05-05T13:36:29.202Z</time></trkpt><trkpt lat="51.5611267" lon="-9.4647883"><ele>37.333333333333336</ele><time>2026-05-05T13:36:30.203Z</time></trkpt><trkpt lat="51.560955" lon="-9.464965"><ele>40.0</ele><time>2026-05-05T13:36:31.202Z</time></trkpt><trkpt lat="51.5608017" lon="-9.465115"><ele>40.0</ele><time>2026-05-05T13:36:32.203Z</time></trkpt><trkpt lat="51.5606383" lon="-9.4652417"><ele>40.0</ele><time>2026-05-05T13:36:33.203Z</time></trkpt><trkpt lat="51.56049" lon="-9.4653383"><ele>40.0</ele><time>2026-05-05T13:36:34.203Z</time></trkpt><trkpt lat="51.5603167" lon="-9.4653967"><ele>41.66666666666667</ele><time>2026-05-05T13:36:35.203Z</time></trkpt><trkpt lat="51.5601433" lon="-9.4654583"><ele>43.333333333333336</ele><time>2026-05-05T13:36:36.203Z</time></trkpt><trkpt lat="51.559985" lon="-9.4655333"><ele>45.0</ele><time>2026-05-05T13:36:37.202Z</time></trkpt><trkpt lat="51.5598183" lon="-9.4655983"><ele>45.0</ele><time>2026-05-05T13:36:38.203Z</time></trkpt><trkpt lat="51.5596617" lon="-9.4656867"><ele>45.0</ele><time>2026-05-05T13:36:39.202Z</time></trkpt><trkpt lat="51.5595117" lon="-9.4657883"><ele>45.0</ele><time>2026-05-05T13:36:40.202Z</time></trkpt><trkpt lat="51.5593667" lon="-9.465915"><ele>45.333333333333336</ele><time>2026-05-05T13:36:41.203Z</time></trkpt><trkpt lat="51.559255" lon="-9.4660367"><ele>45.66666666666667</ele><time>2026-05-05T13:36:42.203Z</time></trkpt><trkpt lat="51.5591067" lon="-9.4661533"><ele>46.0</ele><time>2026-05-05T13:36:43.202Z</time></trkpt><trkpt lat="51.5589367" lon="-9.4662683"><ele>46.333333333333336</ele><time>2026-05-05T13:36:44.203Z</time></trkpt><trkpt lat="51.558795" lon="-9.4663883"><ele>46.666666666666664</ele><time>2026-05-05T13:36:45.203Z</time></trkpt><trkpt lat="51.5586433" lon="-9.46652"><ele>47.0</ele><time>2026-05-05T13:36:46.203Z</time></trkpt><trkpt lat="51.5585067" lon="-9.4666433"><ele>46.0</ele><time>2026-05-05T13:36:47.203Z</time></trkpt><trkpt lat="51.558365" lon="-9.4667483"><ele>45.0</ele><time>2026-05-05T13:36:48.202Z</time></trkpt><trkpt lat="51.558225" lon="-9.466845"><ele>44.0</ele><time>2026-05-05T13:36:49.202Z</time></trkpt><trkpt lat="51.5580767" lon="-9.4669433"><ele>44.0</ele><time>2026-05-05T13:36:50.203Z</time></trkpt><trkpt lat="51.5579317" lon="-9.4670317"><ele>44.0</ele><time>2026-05-05T13:36:51.202Z</time></trkpt><trkpt lat="51.557785" lon="-9.4671117"><ele>44.0</ele><time>2026-05-05T13:36:52.203Z</time></trkpt><trkpt lat="51.557635" lon="-9.4671883"><ele>43.33333333333333</ele><time>2026-05-05T13:36:53.202Z</time></trkpt><trkpt lat="51.5574833" lon="-9.4672617"><ele>42.666666666666664</ele><time>2026-05-05T13:36:54.203Z</time></trkpt><trkpt lat="51.5573383" lon="-9.467335"><ele>42.0</ele><time>2026-05-05T13:36:55.203Z</time></trkpt><trkpt lat="51.5572017" lon="-9.4674133"><ele>42.0</ele><time>2026-05-05T13:36:56.202Z</time></trkpt><trkpt lat="51.5570783" lon="-9.4675017"><ele>42.0</ele><time>2026-05-05T13:36:57.203Z</time></trkpt><trkpt lat="51.556955" lon="-9.467605"><ele>42.0</ele><time>2026-05-05T13:36:58.202Z</time></trkpt><trkpt lat="51.556855" lon="-9.467745"><ele>42.0</ele><time>2026-05-05T13:36:59.203Z</time></trkpt><trkpt lat="51.5567817" lon="-9.4679267"><ele>39.333333333333336</ele><time>2026-05-05T13:37:00.203Z</time></trkpt><trkpt lat="51.5567317" lon="-9.4681633"><ele>36.66666666666667</ele><time>2026-05-05T13:37:01.203Z</time></trkpt><trkpt lat="51.5566717" lon="-9.4684333"><ele>34.0</ele><time>2026-05-05T13:37:02.202Z</time></trkpt><trkpt lat="51.55659" lon="-9.468725"><ele>33.66666666666667</ele><time>2026-05-05T13:37:03.202Z</time></trkpt><trkpt lat="51.5565033" lon="-9.4690467"><ele>33.333333333333336</ele><time>2026-05-05T13:37:04.203Z</time></trkpt><trkpt lat="51.5564183" lon="-9.4693867"><ele>33.0</ele><time>2026-05-05T13:37:05.202Z</time></trkpt><trkpt lat="51.5563217" lon="-9.4697333"><ele>34.0</ele><time>2026-05-05T13:37:06.203Z</time></trkpt><trkpt lat="51.5562317" lon="-9.4700983"><ele>35.0</ele><time>2026-05-05T13:37:07.202Z</time></trkpt><trkpt lat="51.5561533" lon="-9.470425"><ele>34.33333333333333</ele><time>2026-05-05T13:37:08.203Z</time></trkpt><trkpt lat="51.5560767" lon="-9.4707367"><ele>33.666666666666664</ele><time>2026-05-05T13:37:09.203Z</time></trkpt><trkpt lat="51.5560067" lon="-9.4710333"><ele>33.0</ele><time>2026-05-05T13:37:10.202Z</time></trkpt><trkpt lat="51.555935" lon="-9.4713033"><ele>33.0</ele><time>2026-05-05T13:37:11.203Z</time></trkpt><trkpt lat="51.5558717" lon="-9.4715483"><ele>33.0</ele><time>2026-05-05T13:37:12.202Z</time></trkpt><trkpt lat="51.5557817" lon="-9.4717917"><ele>33.0</ele><time>2026-05-05T13:37:13.203Z</time></trkpt><trkpt lat="51.5556917" lon="-9.4720267"><ele>34.333333333333336</ele><time>2026-05-05T13:37:14.203Z</time></trkpt><trkpt lat="51.555595" lon="-9.4722583"><ele>35.66666666666667</ele><time>2026-05-05T13:37:15.203Z</time></trkpt><trkpt lat="51.5555017" lon="-9.4724933"><ele>37.0</ele><time>2026-05-05T13:37:16.203Z</time></trkpt><trkpt lat="51.5554" lon="-9.47274"><ele>37.333333333333336</ele><time>2026-05-05T13:37:17.203Z</time></trkpt><trkpt lat="51.555295" lon="-9.4730117"><ele>37.666666666666664</ele><time>2026-05-05T13:37:18.202Z</time></trkpt><trkpt lat="51.55521" lon="-9.4733067"><ele>38.0</ele><time>2026-05-05T13:37:19.203Z</time></trkpt><trkpt lat="51.5551283" lon="-9.473625"><ele>38.0</ele><time>2026-05-05T13:37:20.202Z</time></trkpt><trkpt lat="51.5550533" lon="-9.4739533"><ele>38.0</ele><time>2026-05-05T13:37:21.203Z</time></trkpt><trkpt lat="51.5549767" lon="-9.4742833"><ele>38.0</ele><time>2026-05-05T13:37:22.202Z</time></trkpt><trkpt lat="51.5548967" lon="-9.4746067"><ele>39.33333333333333</ele><time>2026-05-05T13:37:23.203Z</time></trkpt><trkpt lat="51.5548017" lon="-9.4749233"><ele>40.666666666666664</ele><time>2026-05-05T13:37:24.203Z</time></trkpt><trkpt lat="51.5547" lon="-9.4751983"><ele>42.0</ele><time>2026-05-05T13:37:25.203Z</time></trkpt><trkpt lat="51.55458" lon="-9.475455"><ele>41.666666666666664</ele><time>2026-05-05T13:37:26.203Z</time></trkpt><trkpt lat="51.5544483" lon="-9.475685"><ele>41.33333333333333</ele><time>2026-05-05T13:37:27.203Z</time></trkpt><trkpt lat="51.5543083" lon="-9.475905"><ele>41.0</ele><time>2026-05-05T13:37:28.203Z</time></trkpt><trkpt lat="51.554165" lon="-9.47614"><ele>41.666666666666664</ele><time>2026-05-05T13:37:29.203Z</time></trkpt><trkpt lat="51.5540233" lon="-9.4764017"><ele>42.333333333333336</ele><time>2026-05-05T13:37:30.203Z</time></trkpt><trkpt lat="51.5538867" lon="-9.47668"><ele>43.0</ele><time>2026-05-05T13:37:31.203Z</time></trkpt><trkpt lat="51.5537533" lon="-9.4769633"><ele>41.0</ele><time>2026-05-05T13:37:32.202Z</time></trkpt><trkpt lat="51.55363" lon="-9.4772583"><ele>39.0</ele><time>2026-05-05T13:37:33.203Z</time></trkpt><trkpt lat="51.5535067" lon="-9.4775633"><ele>37.0</ele><time>2026-05-05T13:37:34.203Z</time></trkpt><trkpt lat="51.5533917" lon="-9.4778783"><ele>38.0</ele><time>2026-05-05T13:37:35.203Z</time></trkpt><trkpt lat="51.55328" lon="-9.4782033"><ele>39.0</ele><time>2026-05-05T13:37:36.203Z</time></trkpt><trkpt lat="51.5531733" lon="-9.4785317"><ele>39.333333333333336</ele><time>2026-05-05T13:37:37.203Z</time></trkpt><trkpt lat="51.5530817" lon="-9.4788567"><ele>39.66666666666667</ele><time>2026-05-05T13:37:38.203Z</time></trkpt><trkpt lat="51.5530033" lon="-9.47918"><ele>40.0</ele><time>2026-05-05T13:37:39.202Z</time></trkpt><trkpt lat="51.5529317" lon="-9.4794867"><ele>39.0</ele><time>2026-05-05T13:37:40.202Z</time></trkpt><trkpt lat="51.5528683" lon="-9.4797783"><ele>38.0</ele><time>2026-05-05T13:37:41.203Z</time></trkpt><trkpt lat="51.5528133" lon="-9.4800617"><ele>37.0</ele><time>2026-05-05T13:37:42.203Z</time></trkpt><trkpt lat="51.5527483" lon="-9.4803283"><ele>37.66666666666667</ele><time>2026-05-05T13:37:43.203Z</time></trkpt><trkpt lat="51.5526733" lon="-9.4805783"><ele>38.333333333333336</ele><time>2026-05-05T13:37:44.203Z</time></trkpt><trkpt lat="51.5525767" lon="-9.4808317"><ele>39.0</ele><time>2026-05-05T13:37:45.203Z</time></trkpt><trkpt lat="51.55246" lon="-9.4810933"><ele>40.0</ele><time>2026-05-05T13:37:46.202Z</time></trkpt><trkpt lat="51.5523367" lon="-9.4813633"><ele>41.0</ele><time>2026-05-05T13:37:47.202Z</time></trkpt><trkpt lat="51.552205" lon="-9.4816417"><ele>42.0</ele><time>2026-05-05T13:37:48.202Z</time></trkpt><trkpt lat="51.5520817" lon="-9.48192"><ele>41.0</ele><time>2026-05-05T13:37:49.202Z</time></trkpt><trkpt lat="51.55195" lon="-9.4821867"><ele>40.0</ele><time>2026-05-05T13:37:50.203Z</time></trkpt><trkpt lat="51.5518033" lon="-9.4824467"><ele>39.0</ele><time>2026-05-05T13:37:51.202Z</time></trkpt><trkpt lat="51.5516683" lon="-9.4827017"><ele>39.333333333333336</ele><time>2026-05-05T13:37:52.202Z</time></trkpt><trkpt lat="51.5515317" lon="-9.482965"><ele>39.66666666666667</ele><time>2026-05-05T13:37:53.202Z</time></trkpt><trkpt lat="51.55138" lon="-9.4832183"><ele>40.0</ele><time>2026-05-05T13:37:54.203Z</time></trkpt><trkpt lat="51.5512" lon="-9.4834583"><ele>40.0</ele><time>2026-05-05T13:37:55.202Z</time></trkpt><trkpt lat="51.5510117" lon="-9.4836833"><ele>40.0</ele><time>2026-05-05T13:37:56.203Z</time></trkpt><trkpt lat="51.5508183" lon="-9.4839"><ele>40.0</ele><time>2026-05-05T13:37:57.203Z</time></trkpt><trkpt lat="51.5506317" lon="-9.4841183"><ele>40.0</ele><time>2026-05-05T13:37:58.203Z</time></trkpt><trkpt lat="51.55045" lon="-9.4843433"><ele>40.0</ele><time>2026-05-05T13:37:59.202Z</time></trkpt><trkpt lat="51.5503017" lon="-9.4845833"><ele>40.0</ele><time>2026-05-05T13:38:00.203Z</time></trkpt><trkpt lat="51.5501567" lon="-9.48484"><ele>40.0</ele><time>2026-05-05T13:38:01.203Z</time></trkpt><trkpt lat="51.550025" lon="-9.4851333"><ele>40.0</ele><time>2026-05-05T13:38:02.203Z</time></trkpt><trkpt lat="51.5499033" lon="-9.4854567"><ele>40.0</ele><time>2026-05-05T13:38:03.203Z</time></trkpt><trkpt lat="51.5497767" lon="-9.48579"><ele>40.0</ele><time>2026-05-05T13:38:04.203Z</time></trkpt><trkpt lat="51.549665" lon="-9.48612"><ele>40.0</ele><time>2026-05-05T13:38:05.203Z</time></trkpt><trkpt lat="51.5495583" lon="-9.4864417"><ele>39.66666666666667</ele><time>2026-05-05T13:38:06.203Z</time></trkpt><trkpt lat="51.5494617" lon="-9.4867567"><ele>39.333333333333336</ele><time>2026-05-05T13:38:07.203Z</time></trkpt><trkpt lat="51.54937" lon="-9.487065"><ele>39.0</ele><time>2026-05-05T13:38:08.203Z</time></trkpt><trkpt lat="51.5492783" lon="-9.4873767"><ele>38.666666666666664</ele><time>2026-05-05T13:38:09.203Z</time></trkpt><trkpt lat="51.5491867" lon="-9.4876883"><ele>38.33333333333333</ele><time>2026-05-05T13:38:10.203Z</time></trkpt><trkpt lat="51.549095" lon="-9.4880067"><ele>38.0</ele><time>2026-05-05T13:38:11.203Z</time></trkpt><trkpt lat="51.5489967" lon="-9.48834"><ele>38.0</ele><time>2026-05-05T13:38:12.203Z</time></trkpt><trkpt lat="51.5489017" lon="-9.4886767"><ele>38.0</ele><time>2026-05-05T13:38:13.202Z</time></trkpt><trkpt lat="51.5488017" lon="-9.4890167"><ele>38.0</ele><time>2026-05-05T13:38:14.203Z</time></trkpt><trkpt lat="51.5486917" lon="-9.489365"><ele>38.0</ele><time>2026-05-05T13:38:15.203Z</time></trkpt><trkpt lat="51.5485833" lon="-9.4897183"><ele>38.0</ele><time>2026-05-05T13:38:16.202Z</time></trkpt><trkpt lat="51.548475" lon="-9.4900817"><ele>38.0</ele><time>2026-05-05T13:38:17.202Z</time></trkpt><trkpt lat="51.5483733" lon="-9.4904483"><ele>38.0</ele><time>2026-05-05T13:38:18.203Z</time></trkpt><trkpt lat="51.548265" lon="-9.4908233"><ele>38.0</ele><time>2026-05-05T13:38:19.203Z</time></trkpt><trkpt lat="51.5481633" lon="-9.4911983"><ele>38.5</ele><time>2026-05-05T13:38:20.203Z</time></trkpt><trkpt lat="51.54806" lon="-9.4915733"><ele>39.0</ele><time>2026-05-05T13:38:21.202Z</time></trkpt><trkpt lat="51.5479617" lon="-9.491935"><ele>39.0</ele><time>2026-05-05T13:38:22.202Z</time></trkpt><trkpt lat="51.5478617" lon="-9.4922933"><ele>39.0</ele><time>2026-05-05T13:38:23.202Z</time></trkpt><trkpt lat="51.5477767" lon="-9.4926567"><ele>39.333333333333336</ele><time>2026-05-05T13:38:24.203Z</time></trkpt><trkpt lat="51.547685" lon="-9.4930033"><ele>39.66666666666667</ele><time>2026-05-05T13:38:25.202Z</time></trkpt><trkpt lat="51.547605" lon="-9.4933167"><ele>40.0</ele><time>2026-05-05T13:38:26.203Z</time></trkpt><trkpt lat="51.5475167" lon="-9.4936233"><ele>40.66666666666667</ele><time>2026-05-05T13:38:27.202Z</time></trkpt><trkpt lat="51.5474433" lon="-9.493905"><ele>41.333333333333336</ele><time>2026-05-05T13:38:28.203Z</time></trkpt><trkpt lat="51.5473683" lon="-9.49416"><ele>42.0</ele><time>2026-05-05T13:38:29.202Z</time></trkpt><trkpt lat="51.5472833" lon="-9.4944133"><ele>42.0</ele><time>2026-05-05T13:38:30.203Z</time></trkpt><trkpt lat="51.5471833" lon="-9.4946633"><ele>42.0</ele><time>2026-05-05T13:38:31.202Z</time></trkpt><trkpt lat="51.5470683" lon="-9.4949133"><ele>42.0</ele><time>2026-05-05T13:38:32.202Z</time></trkpt><trkpt lat="51.5469183" lon="-9.4951817"><ele>41.666666666666664</ele><time>2026-05-05T13:38:33.202Z</time></trkpt><trkpt lat="51.5467833" lon="-9.4954667"><ele>41.33333333333333</ele><time>2026-05-05T13:38:34.203Z</time></trkpt><trkpt lat="51.54665" lon="-9.495755"><ele>41.0</ele><time>2026-05-05T13:38:35.203Z</time></trkpt><trkpt lat="51.5465083" lon="-9.4960417"><ele>41.0</ele><time>2026-05-05T13:38:36.203Z</time></trkpt><trkpt lat="51.5463633" lon="-9.4963333"><ele>41.0</ele><time>2026-05-05T13:38:37.203Z</time></trkpt><trkpt lat="51.5462167" lon="-9.4966283"><ele>41.0</ele><time>2026-05-05T13:38:38.203Z</time></trkpt><trkpt lat="51.54605" lon="-9.49692"><ele>41.0</ele><time>2026-05-05T13:38:39.203Z</time></trkpt><trkpt lat="51.5459067" lon="-9.4972"><ele>41.33333333333333</ele><time>2026-05-05T13:38:40.202Z</time></trkpt><trkpt lat="51.54577" lon="-9.4974717"><ele>41.666666666666664</ele><time>2026-05-05T13:38:41.202Z</time></trkpt><trkpt lat="51.5456133" lon="-9.497745"><ele>42.0</ele><time>2026-05-05T13:38:42.203Z</time></trkpt><trkpt lat="51.54549" lon="-9.4980167"><ele>42.0</ele><time>2026-05-05T13:38:43.203Z</time></trkpt><trkpt lat="51.54536" lon="-9.4983133"><ele>42.0</ele><time>2026-05-05T13:38:44.203Z</time></trkpt><trkpt lat="51.5452383" lon="-9.498625"><ele>42.0</ele><time>2026-05-05T13:38:45.203Z</time></trkpt><trkpt lat="51.545135" lon="-9.4989583"><ele>42.0</ele><time>2026-05-05T13:38:46.202Z</time></trkpt><trkpt lat="51.54503" lon="-9.4992983"><ele>41.5</ele><time>2026-05-05T13:38:47.202Z</time></trkpt><trkpt lat="51.5449333" lon="-9.4996433"><ele>41.0</ele><time>2026-05-05T13:38:48.203Z</time></trkpt><trkpt lat="51.5448217" lon="-9.49999"><ele>41.0</ele><time>2026-05-05T13:38:49.203Z</time></trkpt><trkpt lat="51.5447267" lon="-9.500335"><ele>41.0</ele><time>2026-05-05T13:38:50.202Z</time></trkpt><trkpt lat="51.5446617" lon="-9.50067"><ele>41.0</ele><time>2026-05-05T13:38:51.203Z</time></trkpt><trkpt lat="51.544605" lon="-9.5010017"><ele>41.0</ele><time>2026-05-05T13:38:52.202Z</time></trkpt><trkpt lat="51.544555" lon="-9.5013417"><ele>41.0</ele><time>2026-05-05T13:38:53.203Z</time></trkpt><trkpt lat="51.5445033" lon="-9.5016933"><ele>41.5</ele><time>2026-05-05T13:38:54.203Z</time></trkpt><trkpt lat="51.5444417" lon="-9.5020583"><ele>42.0</ele><time>2026-05-05T13:38:55.203Z</time></trkpt><trkpt lat="51.5444067" lon="-9.5024183"><ele>42.333333333333336</ele><time>2026-05-05T13:38:56.202Z</time></trkpt><trkpt lat="51.5443617" lon="-9.5027783"><ele>42.66666666666667</ele><time>2026-05-05T13:38:57.203Z</time></trkpt><trkpt lat="51.54433" lon="-9.5031167"><ele>43.0</ele><time>2026-05-05T13:38:58.202Z</time></trkpt><trkpt lat="51.5442983" lon="-9.5034433"><ele>43.0</ele><time>2026-05-05T13:38:59.203Z</time></trkpt><trkpt lat="51.544265" lon="-9.5037667"><ele>43.0</ele><time>2026-05-05T13:39:00.203Z</time></trkpt><trkpt lat="51.5442267" lon="-9.5040883"><ele>43.0</ele><time>2026-05-05T13:39:01.203Z</time></trkpt><trkpt lat="51.5441883" lon="-9.5044133"><ele>43.0</ele><time>2026-05-05T13:39:02.202Z</time></trkpt><trkpt lat="51.54415" lon="-9.50475"><ele>43.0</ele><time>2026-05-05T13:39:03.203Z</time></trkpt><trkpt lat="51.5441067" lon="-9.5050933"><ele>43.0</ele><time>2026-05-05T13:39:04.203Z</time></trkpt><trkpt lat="51.544065" lon="-9.5054433"><ele>43.0</ele><time>2026-05-05T13:39:05.203Z</time></trkpt><trkpt lat="51.5440283" lon="-9.50579"><ele>43.0</ele><time>2026-05-05T13:39:06.203Z</time></trkpt><trkpt lat="51.5439817" lon="-9.5061417"><ele>43.0</ele><time>2026-05-05T13:39:07.203Z</time></trkpt><trkpt lat="51.543935" lon="-9.5064967"><ele>43.333333333333336</ele><time>2026-05-05T13:39:08.203Z</time></trkpt><trkpt lat="51.5438833" lon="-9.50685"><ele>43.666666666666664</ele><time>2026-05-05T13:39:09.202Z</time></trkpt><trkpt lat="51.5438367" lon="-9.5071917"><ele>44.0</ele><time>2026-05-05T13:39:10.203Z</time></trkpt><trkpt lat="51.543795" lon="-9.50752"><ele>44.0</ele><time>2026-05-05T13:39:11.202Z</time></trkpt><trkpt lat="51.5437683" lon="-9.5078233"><ele>44.0</ele><time>2026-05-05T13:39:12.202Z</time></trkpt><trkpt lat="51.5437333" lon="-9.508105"><ele>44.0</ele><time>2026-05-05T13:39:13.203Z</time></trkpt><trkpt lat="51.5436967" lon="-9.5083833"><ele>46.0</ele><time>2026-05-05T13:39:14.203Z</time></trkpt><trkpt lat="51.5436533" lon="-9.50867"><ele>48.0</ele><time>2026-05-05T13:39:15.203Z</time></trkpt><trkpt lat="51.5436" lon="-9.5089633"><ele>50.0</ele><time>2026-05-05T13:39:16.202Z</time></trkpt><trkpt lat="51.5435317" lon="-9.509265"><ele>50.5</ele><time>2026-05-05T13:39:17.203Z</time></trkpt><trkpt lat="51.5434417" lon="-9.5095867"><ele>51.0</ele><time>2026-05-05T13:39:18.203Z</time></trkpt><trkpt lat="51.5433383" lon="-9.5099217"><ele>51.0</ele><time>2026-05-05T13:39:19.203Z</time></trkpt><trkpt lat="51.54325" lon="-9.5102483"><ele>51.0</ele><time>2026-05-05T13:39:20.203Z</time></trkpt><trkpt lat="51.5431783" lon="-9.5105683"><ele>51.0</ele><time>2026-05-05T13:39:21.203Z</time></trkpt><trkpt lat="51.5431117" lon="-9.5108783"><ele>51.0</ele><time>2026-05-05T13:39:22.203Z</time></trkpt><trkpt lat="51.5430533" lon="-9.5111983"><ele>51.0</ele><time>2026-05-05T13:39:23.203Z</time></trkpt><trkpt lat="51.5430017" lon="-9.51154"><ele>51.0</ele><time>2026-05-05T13:39:24.203Z</time></trkpt><trkpt lat="51.5429217" lon="-9.5122567"><ele>50.33333333333333</ele><time>2026-05-05T13:39:26.202Z</time></trkpt><trkpt lat="51.5428817" lon="-9.5126117"><ele>49.666666666666664</ele><time>2026-05-05T13:39:27.203Z</time></trkpt><trkpt lat="51.5428383" lon="-9.5129517"><ele>49.0</ele><time>2026-05-05T13:39:28.203Z</time></trkpt><trkpt lat="51.5428" lon="-9.5132617"><ele>48.666666666666664</ele><time>2026-05-05T13:39:29.203Z</time></trkpt><trkpt lat="51.54276" lon="-9.5135433"><ele>48.33333333333333</ele><time>2026-05-05T13:39:30.202Z</time></trkpt><trkpt lat="51.5427117" lon="-9.5138067"><ele>48.0</ele><time>2026-05-05T13:39:31.202Z</time></trkpt><trkpt lat="51.5426433" lon="-9.51404"><ele>47.666666666666664</ele><time>2026-05-05T13:39:32.202Z</time></trkpt><trkpt lat="51.5425533" lon="-9.5142467"><ele>47.33333333333333</ele><time>2026-05-05T13:39:33.203Z</time></trkpt><trkpt lat="51.5424417" lon="-9.5144233"><ele>47.0</ele><time>2026-05-05T13:39:34.203Z</time></trkpt><trkpt lat="51.542295" lon="-9.51461"><ele>47.0</ele><time>2026-05-05T13:39:35.203Z</time></trkpt><trkpt lat="51.542165" lon="-9.514815"><ele>47.0</ele><time>2026-05-05T13:39:36.202Z</time></trkpt><trkpt lat="51.5420483" lon="-9.5150433"><ele>47.0</ele><time>2026-05-05T13:39:37.203Z</time></trkpt><trkpt lat="51.5419517" lon="-9.5152883"><ele>47.0</ele><time>2026-05-05T13:39:38.203Z</time></trkpt><trkpt lat="51.5418567" lon="-9.5155367"><ele>47.0</ele><time>2026-05-05T13:39:39.203Z</time></trkpt><trkpt lat="51.541795" lon="-9.5157767"><ele>47.0</ele><time>2026-05-05T13:39:40.203Z</time></trkpt><trkpt lat="51.5417483" lon="-9.5160283"><ele>46.666666666666664</ele><time>2026-05-05T13:39:41.203Z</time></trkpt><trkpt lat="51.5417167" lon="-9.5163067"><ele>46.333333333333336</ele><time>2026-05-05T13:39:42.202Z</time></trkpt><trkpt lat="51.54169" lon="-9.5166133"><ele>46.0</ele><time>2026-05-05T13:39:43.203Z</time></trkpt><trkpt lat="51.5416717" lon="-9.51693"><ele>45.333333333333336</ele><time>2026-05-05T13:39:44.203Z</time></trkpt><trkpt lat="51.5416567" lon="-9.517255"><ele>44.666666666666664</ele><time>2026-05-05T13:39:45.203Z</time></trkpt><trkpt lat="51.541645" lon="-9.5175767"><ele>44.0</ele><time>2026-05-05T13:39:46.203Z</time></trkpt><trkpt lat="51.54162" lon="-9.51788"><ele>42.0</ele><time>2026-05-05T13:39:47.202Z</time></trkpt><trkpt lat="51.5415967" lon="-9.518145"><ele>40.0</ele><time>2026-05-05T13:39:48.203Z</time></trkpt><trkpt lat="51.541555" lon="-9.5183917"><ele>38.0</ele><time>2026-05-05T13:39:49.202Z</time></trkpt><trkpt lat="51.5415017" lon="-9.51864"><ele>36.0</ele><time>2026-05-05T13:39:50.203Z</time></trkpt><trkpt lat="51.54141" lon="-9.5188967"><ele>34.0</ele><time>2026-05-05T13:39:51.203Z</time></trkpt><trkpt lat="51.5412817" lon="-9.5191733"><ele>32.0</ele><time>2026-05-05T13:39:52.202Z</time></trkpt><trkpt lat="51.541145" lon="-9.5194617"><ele>29.0</ele><time>2026-05-05T13:39:53.203Z</time></trkpt><trkpt lat="51.5409967" lon="-9.519765"><ele>26.0</ele><time>2026-05-05T13:39:54.203Z</time></trkpt><trkpt lat="51.5408517" lon="-9.5200667"><ele>26.0</ele><time>2026-05-05T13:39:55.202Z</time></trkpt><trkpt lat="51.540705" lon="-9.5203483"><ele>26.0</ele><time>2026-05-05T13:39:56.203Z</time></trkpt><trkpt lat="51.5405667" lon="-9.5206083"><ele>26.0</ele><time>2026-05-05T13:39:57.203Z</time></trkpt><trkpt lat="51.5404233" lon="-9.5208367"><ele>25.333333333333332</ele><time>2026-05-05T13:39:58.202Z</time></trkpt><trkpt lat="51.54028" lon="-9.5210533"><ele>24.666666666666664</ele><time>2026-05-05T13:39:59.203Z</time></trkpt><trkpt lat="51.54013" lon="-9.5212417"><ele>24.0</ele><time>2026-05-05T13:40:00.203Z</time></trkpt><trkpt lat="51.53997" lon="-9.5213967"><ele>24.0</ele><time>2026-05-05T13:40:01.202Z</time></trkpt><trkpt lat="51.5397967" lon="-9.5214967"><ele>24.0</ele><time>2026-05-05T13:40:02.203Z</time></trkpt><trkpt lat="51.5396017" lon="-9.521575"><ele>24.0</ele><time>2026-05-05T13:40:03.202Z</time></trkpt><trkpt lat="51.53939" lon="-9.52162"><ele>23.333333333333332</ele><time>2026-05-05T13:40:04.203Z</time></trkpt><trkpt lat="51.5391933" lon="-9.5216767"><ele>22.666666666666664</ele><time>2026-05-05T13:40:05.203Z</time></trkpt><trkpt lat="51.53897" lon="-9.5217383"><ele>22.0</ele><time>2026-05-05T13:40:06.203Z</time></trkpt><trkpt lat="51.5386983" lon="-9.5217967"><ele>21.5</ele><time>2026-05-05T13:40:07.203Z</time></trkpt><trkpt lat="51.5385067" lon="-9.5219467"><ele>21.0</ele><time>2026-05-05T13:40:08.202Z</time></trkpt><trkpt lat="51.538295" lon="-9.5221383"><ele>21.0</ele><time>2026-05-05T13:40:09.202Z</time></trkpt><trkpt lat="51.53808" lon="-9.5222933"><ele>21.0</ele><time>2026-05-05T13:40:10.203Z</time></trkpt><trkpt lat="51.53786" lon="-9.52244"><ele>21.0</ele><time>2026-05-05T13:40:11.202Z</time></trkpt><trkpt lat="51.5376617" lon="-9.522585"><ele>21.0</ele><time>2026-05-05T13:40:12.202Z</time></trkpt><trkpt lat="51.5374883" lon="-9.5227517"><ele>21.0</ele><time>2026-05-05T13:40:13.203Z</time></trkpt><trkpt lat="51.5373217" lon="-9.5229467"><ele>21.0</ele><time>2026-05-05T13:40:14.202Z</time></trkpt><trkpt lat="51.537165" lon="-9.5231933"><ele>21.0</ele><time>2026-05-05T13:40:15.203Z</time></trkpt><trkpt lat="51.53703" lon="-9.523455"><ele>21.0</ele><time>2026-05-05T13:40:16.202Z</time></trkpt><trkpt lat="51.53689" lon="-9.5237367"><ele>19.666666666666668</ele><time>2026-05-05T13:40:17.203Z</time></trkpt><trkpt lat="51.53675" lon="-9.523995"><ele>18.333333333333336</ele><time>2026-05-05T13:40:18.203Z</time></trkpt><trkpt lat="51.536575" lon="-9.5242317"><ele>17.0</ele><time>2026-05-05T13:40:19.203Z</time></trkpt><trkpt lat="51.536405" lon="-9.524455"><ele>16.666666666666668</ele><time>2026-05-05T13:40:20.203Z</time></trkpt><trkpt lat="51.53624" lon="-9.524675"><ele>16.333333333333332</ele><time>2026-05-05T13:40:21.202Z</time></trkpt><trkpt lat="51.5360783" lon="-9.5248933"><ele>16.0</ele><time>2026-05-05T13:40:22.203Z</time></trkpt><trkpt lat="51.53591" lon="-9.5251067"><ele>16.0</ele><time>2026-05-05T13:40:23.203Z</time></trkpt><trkpt lat="51.5357717" lon="-9.52531"><ele>16.0</ele><time>2026-05-05T13:40:24.203Z</time></trkpt><trkpt lat="51.5356517" lon="-9.5255017"><ele>16.0</ele><time>2026-05-05T13:40:25.203Z</time></trkpt><trkpt lat="51.5355583" lon="-9.525695"><ele>16.333333333333332</ele><time>2026-05-05T13:40:26.203Z</time></trkpt><trkpt lat="51.5355017" lon="-9.5259067"><ele>16.666666666666668</ele><time>2026-05-05T13:40:27.202Z</time></trkpt><trkpt lat="51.53546" lon="-9.5261367"><ele>17.0</ele><time>2026-05-05T13:40:28.203Z</time></trkpt><trkpt lat="51.5354433" lon="-9.5263883"><ele>17.0</ele><time>2026-05-05T13:40:29.203Z</time></trkpt><trkpt lat="51.53544" lon="-9.526645"><ele>17.0</ele><time>2026-05-05T13:40:30.203Z</time></trkpt><trkpt lat="51.5354867" lon="-9.5268833"><ele>17.0</ele><time>2026-05-05T13:40:31.203Z</time></trkpt><trkpt lat="51.5354883" lon="-9.5271317"><ele>17.0</ele><time>2026-05-05T13:40:32.202Z</time></trkpt><trkpt lat="51.5354783" lon="-9.5274017"><ele>17.0</ele><time>2026-05-05T13:40:33.203Z</time></trkpt><trkpt lat="51.53547" lon="-9.5276917"><ele>17.0</ele><time>2026-05-05T13:40:34.203Z</time></trkpt><trkpt lat="51.535465" lon="-9.527995"><ele>16.333333333333336</ele><time>2026-05-05T13:40:35.203Z</time></trkpt><trkpt lat="51.5354617" lon="-9.5283083"><ele>15.666666666666668</ele><time>2026-05-05T13:40:36.203Z</time></trkpt><trkpt lat="51.5354567" lon="-9.528625"><ele>15.0</ele><time>2026-05-05T13:40:37.203Z</time></trkpt><trkpt lat="51.535445" lon="-9.52895"><ele>14.666666666666668</ele><time>2026-05-05T13:40:38.203Z</time></trkpt><trkpt lat="51.5354383" lon="-9.52927"><ele>14.333333333333334</ele><time>2026-05-05T13:40:39.202Z</time></trkpt><trkpt lat="51.5354283" lon="-9.529595"><ele>14.0</ele><time>2026-05-05T13:40:40.202Z</time></trkpt><trkpt lat="51.5354233" lon="-9.5299067"><ele>14.0</ele><time>2026-05-05T13:40:41.202Z</time></trkpt><trkpt lat="51.53542" lon="-9.5301967"><ele>14.0</ele><time>2026-05-05T13:40:42.203Z</time></trkpt><trkpt lat="51.535415" lon="-9.5304567"><ele>14.0</ele><time>2026-05-05T13:40:43.203Z</time></trkpt><trkpt lat="51.5353933" lon="-9.530695"><ele>15.0</ele><time>2026-05-05T13:40:44.203Z</time></trkpt><trkpt lat="51.5353467" lon="-9.53092"><ele>16.0</ele><time>2026-05-05T13:40:45.203Z</time></trkpt><trkpt lat="51.5352717" lon="-9.5311333"><ele>17.0</ele><time>2026-05-05T13:40:46.202Z</time></trkpt><trkpt lat="51.53517" lon="-9.5313233"><ele>17.0</ele><time>2026-05-05T13:40:47.202Z</time></trkpt><trkpt lat="51.5350433" lon="-9.5314883"><ele>17.0</ele><time>2026-05-05T13:40:48.202Z</time></trkpt><trkpt lat="51.53489" lon="-9.531645"><ele>17.0</ele><time>2026-05-05T13:40:49.203Z</time></trkpt><trkpt lat="51.5347217" lon="-9.5318"><ele>17.0</ele><time>2026-05-05T13:40:50.203Z</time></trkpt><trkpt lat="51.53455" lon="-9.531965"><ele>17.0</ele><time>2026-05-05T13:40:51.202Z</time></trkpt><trkpt lat="51.53438" lon="-9.5321233"><ele>17.0</ele><time>2026-05-05T13:40:52.202Z</time></trkpt><trkpt lat="51.534215" lon="-9.53227"><ele>17.0</ele><time>2026-05-05T13:40:53.202Z</time></trkpt><trkpt lat="51.5340583" lon="-9.5323983"><ele>17.0</ele><time>2026-05-05T13:40:54.203Z</time></trkpt><trkpt lat="51.533905" lon="-9.532505"><ele>17.0</ele><time>2026-05-05T13:40:55.203Z</time></trkpt><trkpt lat="51.53374" lon="-9.5325967"><ele>18.0</ele><time>2026-05-05T13:40:56.203Z</time></trkpt><trkpt lat="51.5335683" lon="-9.5326433"><ele>19.0</ele><time>2026-05-05T13:40:57.202Z</time></trkpt><trkpt lat="51.5333883" lon="-9.5326533"><ele>20.0</ele><time>2026-05-05T13:40:58.202Z</time></trkpt><trkpt lat="51.53321" lon="-9.5326533"><ele>20.0</ele><time>2026-05-05T13:40:59.203Z</time></trkpt><trkpt lat="51.5330183" lon="-9.532655"><ele>20.0</ele><time>2026-05-05T13:41:00.203Z</time></trkpt><trkpt lat="51.53283" lon="-9.5326567"><ele>20.0</ele><time>2026-05-05T13:41:01.203Z</time></trkpt><trkpt lat="51.5326467" lon="-9.5326617"><ele>20.0</ele><time>2026-05-05T13:41:02.201Z</time></trkpt><trkpt lat="51.53247" lon="-9.5326633"><ele>20.0</ele><time>2026-05-05T13:41:03.203Z</time></trkpt><trkpt lat="51.5322933" lon="-9.5326617"><ele>20.0</ele><time>2026-05-05T13:41:04.203Z</time></trkpt><trkpt lat="51.532125" lon="-9.5326583"><ele>18.666666666666668</ele><time>2026-05-05T13:41:05.203Z</time></trkpt><trkpt lat="51.5319667" lon="-9.53266"><ele>17.333333333333332</ele><time>2026-05-05T13:41:06.202Z</time></trkpt><trkpt lat="51.531815" lon="-9.5326817"><ele>16.0</ele><time>2026-05-05T13:41:07.203Z</time></trkpt><trkpt lat="51.531665" lon="-9.5327417"><ele>16.0</ele><time>2026-05-05T13:41:08.203Z</time></trkpt><trkpt lat="51.53153" lon="-9.5328233"><ele>16.0</ele><time>2026-05-05T13:41:09.202Z</time></trkpt><trkpt lat="51.5313983" lon="-9.5329183"><ele>16.0</ele><time>2026-05-05T13:41:10.203Z</time></trkpt><trkpt lat="51.53127" lon="-9.5330067"><ele>16.0</ele><time>2026-05-05T13:41:11.203Z</time></trkpt><trkpt lat="51.5311417" lon="-9.53311"><ele>14.25</ele><time>2026-05-05T13:41:12.203Z</time></trkpt><trkpt lat="51.53103" lon="-9.5332217"><ele>12.5</ele><time>2026-05-05T13:41:13.202Z</time></trkpt><trkpt lat="51.5309167" lon="-9.5333283"><ele>10.75</ele><time>2026-05-05T13:41:14.203Z</time></trkpt><trkpt lat="51.5308233" lon="-9.5334267"><ele>9.0</ele><time>2026-05-05T13:41:15.203Z</time></trkpt><trkpt lat="51.530785" lon="-9.5335717"><ele>9.0</ele><time>2026-05-05T13:41:16.202Z</time></trkpt><trkpt lat="51.53076" lon="-9.5337217"><ele>9.0</ele><time>2026-05-05T13:41:17.203Z</time></trkpt><trkpt lat="51.5307383" lon="-9.533885"><ele>9.0</ele><time>2026-05-05T13:41:18.202Z</time></trkpt><trkpt lat="51.5307083" lon="-9.5340417"><ele>9.0</ele><time>2026-05-05T13:41:19.202Z</time></trkpt><trkpt lat="51.530675" lon="-9.5342017"><ele>9.0</ele><time>2026-05-05T13:41:20.203Z</time></trkpt><trkpt lat="51.530635" lon="-9.5343767"><ele>9.0</ele><time>2026-05-05T13:41:21.203Z</time></trkpt><trkpt lat="51.5305917" lon="-9.5345633"><ele>9.0</ele><time>2026-05-05T13:41:22.203Z</time></trkpt><trkpt lat="51.5305467" lon="-9.53476"><ele>9.0</ele><time>2026-05-05T13:41:23.203Z</time></trkpt><trkpt lat="51.5305017" lon="-9.5349517"><ele>9.0</ele><time>2026-05-05T13:41:24.203Z</time></trkpt><trkpt lat="51.530455" lon="-9.5351467"><ele>9.0</ele><time>2026-05-05T13:41:25.202Z</time></trkpt><trkpt lat="51.530405" lon="-9.5353467"><ele>9.0</ele><time>2026-05-05T13:41:26.203Z</time></trkpt><trkpt lat="51.5303533" lon="-9.5355567"><ele>9.0</ele><time>2026-05-05T13:41:27.202Z</time></trkpt><trkpt lat="51.530345" lon="-9.5357517"><ele>9.0</ele><time>2026-05-05T13:41:28.203Z</time></trkpt><trkpt lat="51.5302933" lon="-9.5359733"><ele>8.0</ele><time>2026-05-05T13:41:29.203Z</time></trkpt><trkpt lat="51.5302367" lon="-9.5362033"><ele>7.0</ele><time>2026-05-05T13:41:30.203Z</time></trkpt><trkpt lat="51.5301717" lon="-9.536445"><ele>6.0</ele><time>2026-05-05T13:41:31.203Z</time></trkpt><trkpt lat="51.530115" lon="-9.5366883"><ele>6.0</ele><time>2026-05-05T13:41:32.203Z</time></trkpt><trkpt lat="51.5300683" lon="-9.5369317"><ele>6.0</ele><time>2026-05-05T13:41:33.202Z</time></trkpt><trkpt lat="51.5300267" lon="-9.5371733"><ele>6.0</ele><time>2026-05-05T13:41:34.203Z</time></trkpt><trkpt lat="51.5299833" lon="-9.5374283"><ele>6.666666666666666</ele><time>2026-05-05T13:41:35.203Z</time></trkpt><trkpt lat="51.52994" lon="-9.5376883"><ele>7.333333333333333</ele><time>2026-05-05T13:41:36.203Z</time></trkpt><trkpt lat="51.529895" lon="-9.5379683"><ele>8.0</ele><time>2026-05-05T13:41:37.203Z</time></trkpt><trkpt lat="51.5298617" lon="-9.5382383"><ele>8.0</ele><time>2026-05-05T13:41:38.203Z</time></trkpt><trkpt lat="51.5298383" lon="-9.5385133"><ele>8.0</ele><time>2026-05-05T13:41:39.203Z</time></trkpt><trkpt lat="51.52982" lon="-9.538785"><ele>8.0</ele><time>2026-05-05T13:41:40.203Z</time></trkpt><trkpt lat="51.5298133" lon="-9.53905"><ele>9.0</ele><time>2026-05-05T13:41:41.203Z</time></trkpt><trkpt lat="51.529795" lon="-9.5393033"><ele>10.0</ele><time>2026-05-05T13:41:42.202Z</time></trkpt><trkpt lat="51.5297583" lon="-9.5395467"><ele>11.0</ele><time>2026-05-05T13:41:43.203Z</time></trkpt><trkpt lat="51.5296967" lon="-9.53979"><ele>11.333333333333332</ele><time>2026-05-05T13:41:44.203Z</time></trkpt><trkpt lat="51.5296283" lon="-9.540035"><ele>11.666666666666666</ele><time>2026-05-05T13:41:45.203Z</time></trkpt><trkpt lat="51.529555" lon="-9.54028"><ele>12.0</ele><time>2026-05-05T13:41:46.203Z</time></trkpt><trkpt lat="51.5294783" lon="-9.5405133"><ele>12.333333333333332</ele><time>2026-05-05T13:41:47.203Z</time></trkpt><trkpt lat="51.5293933" lon="-9.540745"><ele>12.666666666666666</ele><time>2026-05-05T13:41:48.203Z</time></trkpt><trkpt lat="51.5293117" lon="-9.5409817"><ele>13.0</ele><time>2026-05-05T13:41:49.202Z</time></trkpt><trkpt lat="51.52922" lon="-9.5412167"><ele>13.0</ele><time>2026-05-05T13:41:50.203Z</time></trkpt><trkpt lat="51.529125" lon="-9.54144"><ele>13.0</ele><time>2026-05-05T13:41:51.203Z</time></trkpt><trkpt lat="51.5290183" lon="-9.5416383"><ele>13.0</ele><time>2026-05-05T13:41:52.202Z</time></trkpt><trkpt lat="51.528905" lon="-9.541815"><ele>13.0</ele><time>2026-05-05T13:41:53.202Z</time></trkpt><trkpt lat="51.5287883" lon="-9.5419833"><ele>13.0</ele><time>2026-05-05T13:41:54.202Z</time></trkpt><trkpt lat="51.5286583" lon="-9.5421283"><ele>13.0</ele><time>2026-05-05T13:41:55.202Z</time></trkpt><trkpt lat="51.5285117" lon="-9.542245"><ele>14.0</ele><time>2026-05-05T13:41:56.203Z</time></trkpt><trkpt lat="51.5283683" lon="-9.5423467"><ele>15.0</ele><time>2026-05-05T13:41:57.203Z</time></trkpt><trkpt lat="51.528225" lon="-9.54244"><ele>16.0</ele><time>2026-05-05T13:41:58.203Z</time></trkpt><trkpt lat="51.528085" lon="-9.54253"><ele>16.0</ele><time>2026-05-05T13:41:59.203Z</time></trkpt><trkpt lat="51.5279517" lon="-9.5426233"><ele>16.0</ele><time>2026-05-05T13:42:00.203Z</time></trkpt><trkpt lat="51.5278183" lon="-9.5427133"><ele>16.0</ele><time>2026-05-05T13:42:01.203Z</time></trkpt><trkpt lat="51.5276883" lon="-9.54281"><ele>16.0</ele><time>2026-05-05T13:42:02.202Z</time></trkpt><trkpt lat="51.52757" lon="-9.5429167"><ele>17.25</ele><time>2026-05-05T13:42:03.202Z</time></trkpt><trkpt lat="51.5274617" lon="-9.543045"><ele>18.5</ele><time>2026-05-05T13:42:04.203Z</time></trkpt><trkpt lat="51.5273783" lon="-9.5431833"><ele>19.75</ele><time>2026-05-05T13:42:05.202Z</time></trkpt><trkpt lat="51.5272933" lon="-9.543325"><ele>21.0</ele><time>2026-05-05T13:42:06.203Z</time></trkpt><trkpt lat="51.5272367" lon="-9.5434733"><ele>21.0</ele><time>2026-05-05T13:42:07.203Z</time></trkpt><trkpt lat="51.5272" lon="-9.5435867"><ele>21.0</ele><time>2026-05-05T13:42:08.202Z</time></trkpt><trkpt lat="51.527175" lon="-9.5436917"><ele>21.0</ele><time>2026-05-05T13:42:09.202Z</time></trkpt><trkpt lat="51.5271383" lon="-9.5438517"><ele>21.0</ele><time>2026-05-05T13:42:11.203Z</time></trkpt><trkpt lat="51.527095" lon="-9.544015"><ele>21.0</ele><time>2026-05-05T13:42:13.203Z</time></trkpt><trkpt lat="51.5270683" lon="-9.544115"><ele>21.0</ele><time>2026-05-05T13:42:14.203Z</time></trkpt><trkpt lat="51.527045" lon="-9.5442167"><ele>20.833333333333332</ele><time>2026-05-05T13:42:15.203Z</time></trkpt><trkpt lat="51.527005" lon="-9.544335"><ele>20.666666666666668</ele><time>2026-05-05T13:42:16.203Z</time></trkpt><trkpt lat="51.52697" lon="-9.5444617"><ele>20.5</ele><time>2026-05-05T13:42:17.203Z</time></trkpt><trkpt lat="51.52693" lon="-9.5445833"><ele>20.333333333333336</ele><time>2026-05-05T13:42:18.203Z</time></trkpt><trkpt lat="51.526885" lon="-9.5447117"><ele>20.166666666666668</ele><time>2026-05-05T13:42:19.202Z</time></trkpt><trkpt lat="51.52686" lon="-9.5448383"><ele>20.0</ele><time>2026-05-05T13:42:20.202Z</time></trkpt><trkpt lat="51.5268333" lon="-9.5449783"><ele>20.0</ele><time>2026-05-05T13:42:21.203Z</time></trkpt><trkpt lat="51.52682" lon="-9.5451083"><ele>20.0</ele><time>2026-05-05T13:42:22.203Z</time></trkpt><trkpt lat="51.5268133" lon="-9.5452467"><ele>20.0</ele><time>2026-05-05T13:42:23.202Z</time></trkpt><trkpt lat="51.5267983" lon="-9.5453833"><ele>20.0</ele><time>2026-05-05T13:42:24.203Z</time></trkpt><trkpt lat="51.5267967" lon="-9.5455217"><ele>20.0</ele><time>2026-05-05T13:42:25.202Z</time></trkpt><trkpt lat="51.5268133" lon="-9.5456483"><ele>20.0</ele><time>2026-05-05T13:42:26.202Z</time></trkpt><trkpt lat="51.52683" lon="-9.545775"><ele>19.857142857142858</ele><time>2026-05-05T13:42:27.203Z</time></trkpt><trkpt lat="51.526845" lon="-9.5459083"><ele>19.714285714285715</ele><time>2026-05-05T13:42:28.202Z</time></trkpt><trkpt lat="51.52686" lon="-9.5460333"><ele>19.57142857142857</ele><time>2026-05-05T13:42:29.203Z</time></trkpt><trkpt lat="51.5268733" lon="-9.546155"><ele>19.42857142857143</ele><time>2026-05-05T13:42:30.202Z</time></trkpt><trkpt lat="51.5268817" lon="-9.546265"><ele>19.28571428571429</ele><time>2026-05-05T13:42:31.203Z</time></trkpt><trkpt lat="51.5268883" lon="-9.546375"><ele>19.142857142857142</ele><time>2026-05-05T13:42:32.203Z</time></trkpt><trkpt lat="51.5268917" lon="-9.5464833"><ele>19.0</ele><time>2026-05-05T13:42:33.203Z</time></trkpt><trkpt lat="51.5268917" lon="-9.5466"><ele>19.6</ele><time>2026-05-05T13:42:34.203Z</time></trkpt><trkpt lat="51.5268917" lon="-9.5467167"><ele>20.2</ele><time>2026-05-05T13:42:35.203Z</time></trkpt><trkpt lat="51.5268967" lon="-9.5468283"><ele>20.8</ele><time>2026-05-05T13:42:36.203Z</time></trkpt><trkpt lat="51.526905" lon="-9.547"><ele>21.400000000000002</ele><time>2026-05-05T13:42:38.202Z</time></trkpt><trkpt lat="51.526905" lon="-9.54718"><ele>22.0</ele><time>2026-05-05T13:42:40.203Z</time></trkpt><trkpt lat="51.5269217" lon="-9.5473617"><ele>22.6</ele><time>2026-05-05T13:42:42.202Z</time></trkpt><trkpt lat="51.5269167" lon="-9.5475133"><ele>23.200000000000003</ele><time>2026-05-05T13:42:44.203Z</time></trkpt><trkpt lat="51.5269133" lon="-9.5476683"><ele>23.8</ele><time>2026-05-05T13:42:46.203Z</time></trkpt><trkpt lat="51.5268833" lon="-9.5478467"><ele>24.4</ele><time>2026-05-05T13:42:48.203Z</time></trkpt><trkpt lat="51.52684" lon="-9.54797"><ele>25.0</ele><time>2026-05-05T13:42:50.202Z</time></trkpt><trkpt lat="51.5267983" lon="-9.5480833"><ele>25.4</ele><time>2026-05-05T13:42:52.202Z</time></trkpt><trkpt lat="51.5267783" lon="-9.54827"><ele>25.8</ele><time>2026-05-05T13:42:54.203Z</time></trkpt><trkpt lat="51.5267817" lon="-9.5483883"><ele>26.200000000000003</ele><time>2026-05-05T13:42:55.203Z</time></trkpt><trkpt lat="51.5267867" lon="-9.5485267"><ele>26.6</ele><time>2026-05-05T13:42:56.203Z</time></trkpt><trkpt lat="51.5267967" lon="-9.54867"><ele>27.0</ele><time>2026-05-05T13:42:57.203Z</time></trkpt><trkpt lat="51.52681" lon="-9.5488183"><ele>27.8</ele><time>2026-05-05T13:42:58.203Z</time></trkpt><trkpt lat="51.5268267" lon="-9.548975"><ele>28.6</ele><time>2026-05-05T13:42:59.202Z</time></trkpt><trkpt lat="51.5268283" lon="-9.5491467"><ele>29.400000000000002</ele><time>2026-05-05T13:43:00.202Z</time></trkpt><trkpt lat="51.5268183" lon="-9.5493233"><ele>30.200000000000003</ele><time>2026-05-05T13:43:01.202Z</time></trkpt><trkpt lat="51.5268067" lon="-9.5495"><ele>31.0</ele><time>2026-05-05T13:43:02.203Z</time></trkpt><trkpt lat="51.526795" lon="-9.5496783"><ele>31.6</ele><time>2026-05-05T13:43:03.203Z</time></trkpt><trkpt lat="51.5267783" lon="-9.5498433"><ele>32.2</ele><time>2026-05-05T13:43:04.203Z</time></trkpt><trkpt lat="51.52676" lon="-9.55001"><ele>32.8</ele><time>2026-05-05T13:43:05.203Z</time></trkpt><trkpt lat="51.526725" lon="-9.5501717"><ele>33.4</ele><time>2026-05-05T13:43:06.203Z</time></trkpt><trkpt lat="51.526685" lon="-9.5503267"><ele>34.0</ele><time>2026-05-05T13:43:07.203Z</time></trkpt><trkpt lat="51.5266483" lon="-9.5504817"><ele>35.4</ele><time>2026-05-05T13:43:08.202Z</time></trkpt><trkpt lat="51.5266067" lon="-9.5506417"><ele>36.8</ele><time>2026-05-05T13:43:09.203Z</time></trkpt><trkpt lat="51.526575" lon="-9.5507967"><ele>38.199999999999996</ele><time>2026-05-05T13:43:10.203Z</time></trkpt><trkpt lat="51.5265583" lon="-9.5509683"><ele>39.599999999999994</ele><time>2026-05-05T13:43:11.202Z</time></trkpt><trkpt lat="51.5265483" lon="-9.55116"><ele>41.0</ele><time>2026-05-05T13:43:12.202Z</time></trkpt><trkpt lat="51.5265433" lon="-9.55135"><ele>42.4</ele><time>2026-05-05T13:43:13.203Z</time></trkpt><trkpt lat="51.5265483" lon="-9.55155"><ele>43.8</ele><time>2026-05-05T13:43:14.203Z</time></trkpt><trkpt lat="51.5265467" lon="-9.5517233"><ele>45.199999999999996</ele><time>2026-05-05T13:43:15.203Z</time></trkpt><trkpt lat="51.52656" lon="-9.5518733"><ele>46.599999999999994</ele><time>2026-05-05T13:43:16.203Z</time></trkpt><trkpt lat="51.52655" lon="-9.5519917"><ele>48.0</ele><time>2026-05-05T13:43:17.202Z</time></trkpt><trkpt lat="51.526555" lon="-9.5520933"><ele>48.75</ele><time>2026-05-05T13:43:18.203Z</time></trkpt><trkpt lat="51.5265717" lon="-9.5523"><ele>49.5</ele><time>2026-05-05T13:43:20.203Z</time></trkpt><trkpt lat="51.5266" lon="-9.55244"><ele>50.25</ele><time>2026-05-05T13:43:21.203Z</time></trkpt><trkpt lat="51.5266417" lon="-9.5525833"><ele>51.0</ele><time>2026-05-05T13:43:22.202Z</time></trkpt><trkpt lat="51.5267117" lon="-9.5527667"><ele>52.0</ele><time>2026-05-05T13:43:23.202Z</time></trkpt><trkpt lat="51.5267667" lon="-9.5529633"><ele>53.0</ele><time>2026-05-05T13:43:24.203Z</time></trkpt><trkpt lat="51.526815" lon="-9.5531733"><ele>54.0</ele><time>2026-05-05T13:43:25.202Z</time></trkpt><trkpt lat="51.526875" lon="-9.5533883"><ele>55.0</ele><time>2026-05-05T13:43:26.203Z</time></trkpt><trkpt lat="51.526935" lon="-9.5536"><ele>55.33333333333333</ele><time>2026-05-05T13:43:27.203Z</time></trkpt><trkpt lat="51.527005" lon="-9.553805"><ele>55.66666666666667</ele><time>2026-05-05T13:43:28.203Z</time></trkpt><trkpt lat="51.527085" lon="-9.5540067"><ele>56.0</ele><time>2026-05-05T13:43:29.203Z</time></trkpt><trkpt lat="51.5271717" lon="-9.554215"><ele>56.0</ele><time>2026-05-05T13:43:30.203Z</time></trkpt><trkpt lat="51.5272833" lon="-9.554415"><ele>56.0</ele><time>2026-05-05T13:43:31.203Z</time></trkpt><trkpt lat="51.5274217" lon="-9.554615"><ele>56.0</ele><time>2026-05-05T13:43:32.203Z</time></trkpt><trkpt lat="51.527555" lon="-9.55478"><ele>56.75</ele><time>2026-05-05T13:43:33.203Z</time></trkpt><trkpt lat="51.5276733" lon="-9.5549333"><ele>57.5</ele><time>2026-05-05T13:43:34.203Z</time></trkpt><trkpt lat="51.5277817" lon="-9.5550617"><ele>58.25</ele><time>2026-05-05T13:43:35.202Z</time></trkpt><trkpt lat="51.5278883" lon="-9.5551767"><ele>59.0</ele><time>2026-05-05T13:43:36.202Z</time></trkpt><trkpt lat="51.5280033" lon="-9.5553033"><ele>60.5</ele><time>2026-05-05T13:43:37.203Z</time></trkpt><trkpt lat="51.5281083" lon="-9.5554417"><ele>62.0</ele><time>2026-05-05T13:43:38.203Z</time></trkpt><trkpt lat="51.5282067" lon="-9.5555833"><ele>63.5</ele><time>2026-05-05T13:43:39.202Z</time></trkpt><trkpt lat="51.5283" lon="-9.5557367"><ele>65.0</ele><time>2026-05-05T13:43:40.203Z</time></trkpt><trkpt lat="51.528405" lon="-9.5559233"><ele>65.0</ele><time>2026-05-05T13:43:41.203Z</time></trkpt><trkpt lat="51.5285067" lon="-9.556115"><ele>65.0</ele><time>2026-05-05T13:43:42.203Z</time></trkpt><trkpt lat="51.5286" lon="-9.556315"><ele>65.0</ele><time>2026-05-05T13:43:43.202Z</time></trkpt><trkpt lat="51.5287" lon="-9.556515"><ele>65.0</ele><time>2026-05-05T13:43:44.203Z</time></trkpt><trkpt lat="51.5288" lon="-9.5567217"><ele>65.0</ele><time>2026-05-05T13:43:45.202Z</time></trkpt><trkpt lat="51.528895" lon="-9.5569033"><ele>65.0</ele><time>2026-05-05T13:43:46.203Z</time></trkpt><trkpt lat="51.528985" lon="-9.55708"><ele>65.5</ele><time>2026-05-05T13:43:47.202Z</time></trkpt><trkpt lat="51.52906" lon="-9.557275"><ele>66.0</ele><time>2026-05-05T13:43:48.203Z</time></trkpt><trkpt lat="51.529125" lon="-9.55748"><ele>66.5</ele><time>2026-05-05T13:43:49.203Z</time></trkpt><trkpt lat="51.5291817" lon="-9.5577033"><ele>67.0</ele><time>2026-05-05T13:43:50.202Z</time></trkpt><trkpt lat="51.5292067" lon="-9.55794"><ele>67.66666666666666</ele><time>2026-05-05T13:43:51.203Z</time></trkpt><trkpt lat="51.529225" lon="-9.5582017"><ele>68.33333333333333</ele><time>2026-05-05T13:43:52.202Z</time></trkpt><trkpt lat="51.5292183" lon="-9.5584617"><ele>69.0</ele><time>2026-05-05T13:43:53.203Z</time></trkpt><trkpt lat="51.5292233" lon="-9.5587267"><ele>69.66666666666667</ele><time>2026-05-05T13:43:54.202Z</time></trkpt><trkpt lat="51.5292267" lon="-9.55901"><ele>70.33333333333334</ele><time>2026-05-05T13:43:55.202Z</time></trkpt><trkpt lat="51.52925" lon="-9.5592867"><ele>71.0</ele><time>2026-05-05T13:43:56.203Z</time></trkpt><trkpt lat="51.5292867" lon="-9.5595867"><ele>72.0</ele><time>2026-05-05T13:43:57.203Z</time></trkpt><trkpt lat="51.52932" lon="-9.5598883"><ele>73.0</ele><time>2026-05-05T13:43:58.203Z</time></trkpt><trkpt lat="51.529355" lon="-9.5602067"><ele>74.0</ele><time>2026-05-05T13:43:59.202Z</time></trkpt><trkpt lat="51.5293967" lon="-9.56051"><ele>74.33333333333334</ele><time>2026-05-05T13:44:00.202Z</time></trkpt><trkpt lat="51.5294283" lon="-9.5608233"><ele>74.66666666666667</ele><time>2026-05-05T13:44:01.203Z</time></trkpt><trkpt lat="51.5294783" lon="-9.5611367"><ele>75.0</ele><time>2026-05-05T13:44:02.203Z</time></trkpt><trkpt lat="51.5294933" lon="-9.5614533"><ele>75.0</ele><time>2026-05-05T13:44:03.202Z</time></trkpt><trkpt lat="51.52952" lon="-9.561765"><ele>75.0</ele><time>2026-05-05T13:44:04.203Z</time></trkpt><trkpt lat="51.529565" lon="-9.562065"><ele>75.0</ele><time>2026-05-05T13:44:05.203Z</time></trkpt><trkpt lat="51.529595" lon="-9.5623883"><ele>74.33333333333333</ele><time>2026-05-05T13:44:06.202Z</time></trkpt><trkpt lat="51.5296217" lon="-9.5627017"><ele>73.66666666666666</ele><time>2026-05-05T13:44:07.203Z</time></trkpt><trkpt lat="51.5296417" lon="-9.5630033"><ele>73.0</ele><time>2026-05-05T13:44:08.202Z</time></trkpt><trkpt lat="51.529655" lon="-9.5632967"><ele>73.0</ele><time>2026-05-05T13:44:09.203Z</time></trkpt><trkpt lat="51.5296583" lon="-9.5636"><ele>73.0</ele><time>2026-05-05T13:44:10.202Z</time></trkpt><trkpt lat="51.529655" lon="-9.5639317"><ele>73.0</ele><time>2026-05-05T13:44:11.202Z</time></trkpt><trkpt lat="51.5296367" lon="-9.5642683"><ele>72.66666666666666</ele><time>2026-05-05T13:44:12.203Z</time></trkpt><trkpt lat="51.5296183" lon="-9.5646083"><ele>72.33333333333333</ele><time>2026-05-05T13:44:13.202Z</time></trkpt><trkpt lat="51.5296" lon="-9.5649517"><ele>72.0</ele><time>2026-05-05T13:44:14.203Z</time></trkpt><trkpt lat="51.5295817" lon="-9.5652833"><ele>72.0</ele><time>2026-05-05T13:44:15.203Z</time></trkpt><trkpt lat="51.5295567" lon="-9.5656233"><ele>72.0</ele><time>2026-05-05T13:44:16.203Z</time></trkpt><trkpt lat="51.5295367" lon="-9.5659667"><ele>72.0</ele><time>2026-05-05T13:44:17.203Z</time></trkpt><trkpt lat="51.5295167" lon="-9.5663217"><ele>72.5</ele><time>2026-05-05T13:44:18.203Z</time></trkpt><trkpt lat="51.5294967" lon="-9.56668"><ele>73.0</ele><time>2026-05-05T13:44:19.202Z</time></trkpt><trkpt lat="51.529475" lon="-9.5670517"><ele>73.5</ele><time>2026-05-05T13:44:20.203Z</time></trkpt><trkpt lat="51.5294533" lon="-9.56743"><ele>74.0</ele><time>2026-05-05T13:44:21.203Z</time></trkpt><trkpt lat="51.529435" lon="-9.5678133"><ele>73.5</ele><time>2026-05-05T13:44:22.202Z</time></trkpt><trkpt lat="51.529415" lon="-9.5681983"><ele>73.0</ele><time>2026-05-05T13:44:23.203Z</time></trkpt><trkpt lat="51.5293933" lon="-9.568585"><ele>73.5</ele><time>2026-05-05T13:44:24.203Z</time></trkpt><trkpt lat="51.5293667" lon="-9.568975"><ele>74.0</ele><time>2026-05-05T13:44:25.202Z</time></trkpt><trkpt lat="51.5293417" lon="-9.5693683"><ele>74.5</ele><time>2026-05-05T13:44:26.203Z</time></trkpt><trkpt lat="51.5293217" lon="-9.5697583"><ele>75.0</ele><time>2026-05-05T13:44:27.203Z</time></trkpt><trkpt lat="51.5293083" lon="-9.5701517"><ele>75.5</ele><time>2026-05-05T13:44:28.203Z</time></trkpt><trkpt lat="51.529295" lon="-9.57054"><ele>76.0</ele><time>2026-05-05T13:44:29.203Z</time></trkpt><trkpt lat="51.52928" lon="-9.5709267"><ele>76.5</ele><time>2026-05-05T13:44:30.203Z</time></trkpt><trkpt lat="51.529265" lon="-9.5713083"><ele>77.0</ele><time>2026-05-05T13:44:31.202Z</time></trkpt><trkpt lat="51.5292483" lon="-9.5716817"><ele>77.0</ele><time>2026-05-05T13:44:32.203Z</time></trkpt><trkpt lat="51.5292283" lon="-9.5720383"><ele>77.0</ele><time>2026-05-05T13:44:33.202Z</time></trkpt><trkpt lat="51.5292083" lon="-9.572385"><ele>77.0</ele><time>2026-05-05T13:44:34.203Z</time></trkpt><trkpt lat="51.5291817" lon="-9.5727333"><ele>77.0</ele><time>2026-05-05T13:44:35.203Z</time></trkpt><trkpt lat="51.529155" lon="-9.5730867"><ele>77.0</ele><time>2026-05-05T13:44:36.203Z</time></trkpt><trkpt lat="51.5291317" lon="-9.573445"><ele>77.0</ele><time>2026-05-05T13:44:37.203Z</time></trkpt><trkpt lat="51.5291083" lon="-9.573805"><ele>77.0</ele><time>2026-05-05T13:44:38.203Z</time></trkpt><trkpt lat="51.5290867" lon="-9.574165"><ele>77.0</ele><time>2026-05-05T13:44:39.203Z</time></trkpt><trkpt lat="51.5290633" lon="-9.5745217"><ele>77.0</ele><time>2026-05-05T13:44:40.202Z</time></trkpt><trkpt lat="51.5290433" lon="-9.57487"><ele>77.33333333333334</ele><time>2026-05-05T13:44:41.203Z</time></trkpt><trkpt lat="51.52902" lon="-9.575205"><ele>77.66666666666667</ele><time>2026-05-05T13:44:42.203Z</time></trkpt><trkpt lat="51.528995" lon="-9.5755417"><ele>78.0</ele><time>2026-05-05T13:44:43.202Z</time></trkpt><trkpt lat="51.52897" lon="-9.575865"><ele>78.0</ele><time>2026-05-05T13:44:44.203Z</time></trkpt><trkpt lat="51.5289667" lon="-9.5761533"><ele>78.0</ele><time>2026-05-05T13:44:45.202Z</time></trkpt><trkpt lat="51.5289533" lon="-9.5764017"><ele>78.0</ele><time>2026-05-05T13:44:46.203Z</time></trkpt><trkpt lat="51.5289183" lon="-9.5766367"><ele>78.33333333333333</ele><time>2026-05-05T13:44:47.203Z</time></trkpt><trkpt lat="51.528875" lon="-9.57684"><ele>78.66666666666666</ele><time>2026-05-05T13:44:48.203Z</time></trkpt><trkpt lat="51.52882" lon="-9.57706"><ele>79.0</ele><time>2026-05-05T13:44:49.203Z</time></trkpt><trkpt lat="51.5287417" lon="-9.5773017"><ele>77.66666666666666</ele><time>2026-05-05T13:44:50.203Z</time></trkpt><trkpt lat="51.528665" lon="-9.5775833"><ele>76.33333333333333</ele><time>2026-05-05T13:44:51.203Z</time></trkpt><trkpt lat="51.5285833" lon="-9.5778533"><ele>75.0</ele><time>2026-05-05T13:44:52.203Z</time></trkpt><trkpt lat="51.5284917" lon="-9.5781067"><ele>74.33333333333333</ele><time>2026-05-05T13:44:53.202Z</time></trkpt><trkpt lat="51.5283883" lon="-9.578345"><ele>73.66666666666666</ele><time>2026-05-05T13:44:54.203Z</time></trkpt><trkpt lat="51.5283117" lon="-9.5785683"><ele>73.0</ele><time>2026-05-05T13:44:55.203Z</time></trkpt><trkpt lat="51.5282467" lon="-9.578775"><ele>72.6</ele><time>2026-05-05T13:44:56.202Z</time></trkpt><trkpt lat="51.5281817" lon="-9.5789567"><ele>72.19999999999999</ele><time>2026-05-05T13:44:57.203Z</time></trkpt><trkpt lat="51.52812" lon="-9.5791167"><ele>71.8</ele><time>2026-05-05T13:44:58.203Z</time></trkpt><trkpt lat="51.5280667" lon="-9.579235"><ele>71.39999999999999</ele><time>2026-05-05T13:44:59.203Z</time></trkpt><trkpt lat="51.5280267" lon="-9.5793617"><ele>71.0</ele><time>2026-05-05T13:45:00.203Z</time></trkpt><trkpt lat="51.5279817" lon="-9.579495"><ele>71.25</ele><time>2026-05-05T13:45:01.203Z</time></trkpt><trkpt lat="51.52793" lon="-9.5796333"><ele>71.5</ele><time>2026-05-05T13:45:02.203Z</time></trkpt><trkpt lat="51.5278683" lon="-9.5797867"><ele>71.75</ele><time>2026-05-05T13:45:03.202Z</time></trkpt><trkpt lat="51.5277917" lon="-9.5799617"><ele>72.0</ele><time>2026-05-05T13:45:04.203Z</time></trkpt><trkpt lat="51.527675" lon="-9.5801733"><ele>69.33333333333333</ele><time>2026-05-05T13:45:05.203Z</time></trkpt><trkpt lat="51.5275533" lon="-9.5804067"><ele>66.66666666666666</ele><time>2026-05-05T13:45:06.203Z</time></trkpt><trkpt lat="51.52741" lon="-9.5806567"><ele>64.0</ele><time>2026-05-05T13:45:07.203Z</time></trkpt><trkpt lat="51.5272683" lon="-9.580895"><ele>64.0</ele><time>2026-05-05T13:45:08.203Z</time></trkpt><trkpt lat="51.52712" lon="-9.5811633"><ele>64.0</ele><time>2026-05-05T13:45:09.203Z</time></trkpt><trkpt lat="51.526965" lon="-9.5814267"><ele>64.0</ele><time>2026-05-05T13:45:10.202Z</time></trkpt><trkpt lat="51.5268167" lon="-9.58168"><ele>61.0</ele><time>2026-05-05T13:45:11.203Z</time></trkpt><trkpt lat="51.5266733" lon="-9.5819217"><ele>58.0</ele><time>2026-05-05T13:45:12.203Z</time></trkpt><trkpt lat="51.5265183" lon="-9.582165"><ele>55.0</ele><time>2026-05-05T13:45:13.203Z</time></trkpt><trkpt lat="51.5263733" lon="-9.58239"><ele>54.0</ele><time>2026-05-05T13:45:14.202Z</time></trkpt><trkpt lat="51.5262367" lon="-9.5825917"><ele>53.0</ele><time>2026-05-05T13:45:15.202Z</time></trkpt><trkpt lat="51.5261033" lon="-9.5828117"><ele>52.0</ele><time>2026-05-05T13:45:16.203Z</time></trkpt><trkpt lat="51.5259783" lon="-9.58304"><ele>49.666666666666664</ele><time>2026-05-05T13:45:17.202Z</time></trkpt><trkpt lat="51.52587" lon="-9.58326"><ele>47.33333333333333</ele><time>2026-05-05T13:45:18.203Z</time></trkpt><trkpt lat="51.5257417" lon="-9.5835183"><ele>45.0</ele><time>2026-05-05T13:45:19.202Z</time></trkpt><trkpt lat="51.5256317" lon="-9.5838"><ele>43.666666666666664</ele><time>2026-05-05T13:45:20.203Z</time></trkpt><trkpt lat="51.525555" lon="-9.5840917"><ele>42.33333333333333</ele><time>2026-05-05T13:45:21.203Z</time></trkpt><trkpt lat="51.5254533" lon="-9.5844033"><ele>41.0</ele><time>2026-05-05T13:45:22.202Z</time></trkpt><trkpt lat="51.525365" lon="-9.5847"><ele>39.666666666666664</ele><time>2026-05-05T13:45:23.202Z</time></trkpt><trkpt lat="51.5252783" lon="-9.5850067"><ele>38.333333333333336</ele><time>2026-05-05T13:45:24.202Z</time></trkpt><trkpt lat="51.525185" lon="-9.5853083"><ele>37.0</ele><time>2026-05-05T13:45:25.203Z</time></trkpt><trkpt lat="51.5251033" lon="-9.5855983"><ele>36.333333333333336</ele><time>2026-05-05T13:45:26.202Z</time></trkpt><trkpt lat="51.525035" lon="-9.5858733"><ele>35.666666666666664</ele><time>2026-05-05T13:45:27.203Z</time></trkpt><trkpt lat="51.5249617" lon="-9.58614"><ele>35.0</ele><time>2026-05-05T13:45:28.203Z</time></trkpt><trkpt lat="51.5248883" lon="-9.58641"><ele>34.0</ele><time>2026-05-05T13:45:29.203Z</time></trkpt><trkpt lat="51.5248233" lon="-9.5866983"><ele>33.0</ele><time>2026-05-05T13:45:30.203Z</time></trkpt><trkpt lat="51.52478" lon="-9.5870183"><ele>32.0</ele><time>2026-05-05T13:45:31.203Z</time></trkpt><trkpt lat="51.5247267" lon="-9.5873667"><ele>31.666666666666664</ele><time>2026-05-05T13:45:32.202Z</time></trkpt><trkpt lat="51.5246783" lon="-9.5876983"><ele>31.333333333333336</ele><time>2026-05-05T13:45:33.202Z</time></trkpt><trkpt lat="51.5246167" lon="-9.5880483"><ele>31.0</ele><time>2026-05-05T13:45:34.202Z</time></trkpt><trkpt lat="51.5245817" lon="-9.5883833"><ele>30.0</ele><time>2026-05-05T13:45:35.203Z</time></trkpt><trkpt lat="51.52453" lon="-9.5887383"><ele>29.0</ele><time>2026-05-05T13:45:36.202Z</time></trkpt><trkpt lat="51.5244817" lon="-9.5890983"><ele>29.0</ele><time>2026-05-05T13:45:37.203Z</time></trkpt><trkpt lat="51.5244283" lon="-9.58943"><ele>29.0</ele><time>2026-05-05T13:45:38.202Z</time></trkpt><trkpt lat="51.5243867" lon="-9.589765"><ele>29.0</ele><time>2026-05-05T13:45:39.203Z</time></trkpt><trkpt lat="51.5243483" lon="-9.5900867"><ele>28.333333333333332</ele><time>2026-05-05T13:45:40.203Z</time></trkpt><trkpt lat="51.5243033" lon="-9.5904233"><ele>27.666666666666664</ele><time>2026-05-05T13:45:41.202Z</time></trkpt><trkpt lat="51.5242667" lon="-9.5907583"><ele>27.0</ele><time>2026-05-05T13:45:42.203Z</time></trkpt><trkpt lat="51.5242383" lon="-9.591095"><ele>28.0</ele><time>2026-05-05T13:45:43.202Z</time></trkpt><trkpt lat="51.524225" lon="-9.5914183"><ele>29.0</ele><time>2026-05-05T13:45:44.202Z</time></trkpt><trkpt lat="51.52423" lon="-9.591745"><ele>30.0</ele><time>2026-05-05T13:45:45.203Z</time></trkpt><trkpt lat="51.52423" lon="-9.5920917"><ele>30.333333333333336</ele><time>2026-05-05T13:45:46.203Z</time></trkpt><trkpt lat="51.5242683" lon="-9.5924033"><ele>30.666666666666668</ele><time>2026-05-05T13:45:47.203Z</time></trkpt><trkpt lat="51.524285" lon="-9.592725"><ele>31.0</ele><time>2026-05-05T13:45:48.203Z</time></trkpt><trkpt lat="51.5243" lon="-9.593045"><ele>31.333333333333336</ele><time>2026-05-05T13:45:49.202Z</time></trkpt><trkpt lat="51.524335" lon="-9.593355"><ele>31.666666666666664</ele><time>2026-05-05T13:45:50.203Z</time></trkpt><trkpt lat="51.524335" lon="-9.5936567"><ele>32.0</ele><time>2026-05-05T13:45:51.203Z</time></trkpt><trkpt lat="51.524305" lon="-9.593965"><ele>32.0</ele><time>2026-05-05T13:45:52.203Z</time></trkpt><trkpt lat="51.52427" lon="-9.5942833"><ele>32.0</ele><time>2026-05-05T13:45:53.202Z</time></trkpt><trkpt lat="51.5241783" lon="-9.5946417"><ele>32.0</ele><time>2026-05-05T13:45:54.202Z</time></trkpt><trkpt lat="51.5241167" lon="-9.594975"><ele>32.0</ele><time>2026-05-05T13:45:55.202Z</time></trkpt><trkpt lat="51.5240483" lon="-9.59533"><ele>32.0</ele><time>2026-05-05T13:45:56.203Z</time></trkpt><trkpt lat="51.5239767" lon="-9.5956867"><ele>32.0</ele><time>2026-05-05T13:45:57.202Z</time></trkpt><trkpt lat="51.5238817" lon="-9.5960633"><ele>32.0</ele><time>2026-05-05T13:45:58.203Z</time></trkpt><trkpt lat="51.5237817" lon="-9.5964333"><ele>32.5</ele><time>2026-05-05T13:45:59.202Z</time></trkpt><trkpt lat="51.5236917" lon="-9.596805"><ele>33.0</ele><time>2026-05-05T13:46:00.203Z</time></trkpt><trkpt lat="51.5235967" lon="-9.597195"><ele>33.0</ele><time>2026-05-05T13:46:01.203Z</time></trkpt><trkpt lat="51.5235167" lon="-9.5975783"><ele>33.0</ele><time>2026-05-05T13:46:02.202Z</time></trkpt><trkpt lat="51.5234417" lon="-9.5979617"><ele>33.5</ele><time>2026-05-05T13:46:03.203Z</time></trkpt><trkpt lat="51.5233633" lon="-9.5983467"><ele>34.0</ele><time>2026-05-05T13:46:04.203Z</time></trkpt><trkpt lat="51.52329" lon="-9.59871"><ele>34.333333333333336</ele><time>2026-05-05T13:46:05.202Z</time></trkpt><trkpt lat="51.5232283" lon="-9.5990467"><ele>34.666666666666664</ele><time>2026-05-05T13:46:06.203Z</time></trkpt><trkpt lat="51.52316" lon="-9.599365"><ele>35.0</ele><time>2026-05-05T13:46:07.202Z</time></trkpt><trkpt lat="51.5231017" lon="-9.599645"><ele>35.666666666666664</ele><time>2026-05-05T13:46:08.202Z</time></trkpt><trkpt lat="51.5230417" lon="-9.5999133"><ele>36.333333333333336</ele><time>2026-05-05T13:46:09.202Z</time></trkpt><trkpt lat="51.5229783" lon="-9.6001633"><ele>37.0</ele><time>2026-05-05T13:46:10.203Z</time></trkpt><trkpt lat="51.5229233" lon="-9.6003917"><ele>37.25</ele><time>2026-05-05T13:46:11.203Z</time></trkpt><trkpt lat="51.5228767" lon="-9.6006017"><ele>37.5</ele><time>2026-05-05T13:46:12.202Z</time></trkpt><trkpt lat="51.52283" lon="-9.6008133"><ele>37.75</ele><time>2026-05-05T13:46:13.202Z</time></trkpt><trkpt lat="51.5227933" lon="-9.6010117"><ele>38.0</ele><time>2026-05-05T13:46:14.203Z</time></trkpt><trkpt lat="51.5227317" lon="-9.6012133"><ele>38.0</ele><time>2026-05-05T13:46:15.202Z</time></trkpt><trkpt lat="51.522715" lon="-9.6014017"><ele>38.0</ele><time>2026-05-05T13:46:16.202Z</time></trkpt><trkpt lat="51.52265" lon="-9.60161"><ele>38.0</ele><time>2026-05-05T13:46:17.203Z</time></trkpt><trkpt lat="51.5226083" lon="-9.6018217"><ele>38.0</ele><time>2026-05-05T13:46:18.203Z</time></trkpt><trkpt lat="51.522525" lon="-9.6020567"><ele>38.33333333333333</ele><time>2026-05-05T13:46:19.202Z</time></trkpt><trkpt lat="51.5224517" lon="-9.6023"><ele>38.666666666666664</ele><time>2026-05-05T13:46:20.202Z</time></trkpt><trkpt lat="51.5223733" lon="-9.6025567"><ele>39.0</ele><time>2026-05-05T13:46:21.202Z</time></trkpt><trkpt lat="51.5222867" lon="-9.6028283"><ele>39.0</ele><time>2026-05-05T13:46:22.203Z</time></trkpt><trkpt lat="51.5221933" lon="-9.6031067"><ele>39.0</ele><time>2026-05-05T13:46:23.202Z</time></trkpt><trkpt lat="51.5220933" lon="-9.6033967"><ele>39.0</ele><time>2026-05-05T13:46:24.202Z</time></trkpt><trkpt lat="51.5219933" lon="-9.6037067"><ele>38.0</ele><time>2026-05-05T13:46:25.203Z</time></trkpt><trkpt lat="51.5218867" lon="-9.6040467"><ele>37.0</ele><time>2026-05-05T13:46:26.202Z</time></trkpt><trkpt lat="51.5217783" lon="-9.6043983"><ele>37.0</ele><time>2026-05-05T13:46:27.202Z</time></trkpt><trkpt lat="51.5216633" lon="-9.604765"><ele>37.0</ele><time>2026-05-05T13:46:28.202Z</time></trkpt><trkpt lat="51.5215433" lon="-9.605135"><ele>36.5</ele><time>2026-05-05T13:46:29.203Z</time></trkpt><trkpt lat="51.5214117" lon="-9.6055283"><ele>36.0</ele><time>2026-05-05T13:46:30.203Z</time></trkpt><trkpt lat="51.521285" lon="-9.6059217"><ele>36.5</ele><time>2026-05-05T13:46:31.202Z</time></trkpt><trkpt lat="51.5211683" lon="-9.6063167"><ele>37.0</ele><time>2026-05-05T13:46:32.203Z</time></trkpt><trkpt lat="51.521035" lon="-9.6067067"><ele>38.5</ele><time>2026-05-05T13:46:33.202Z</time></trkpt><trkpt lat="51.5209083" lon="-9.6070917"><ele>40.0</ele><time>2026-05-05T13:46:34.203Z</time></trkpt><trkpt lat="51.5207717" lon="-9.6074717"><ele>41.0</ele><time>2026-05-05T13:46:35.203Z</time></trkpt><trkpt lat="51.5206583" lon="-9.607835"><ele>42.0</ele><time>2026-05-05T13:46:36.203Z</time></trkpt><trkpt lat="51.520545" lon="-9.6082"><ele>42.0</ele><time>2026-05-05T13:46:37.203Z</time></trkpt><trkpt lat="51.5204367" lon="-9.6085783"><ele>42.0</ele><time>2026-05-05T13:46:38.203Z</time></trkpt><trkpt lat="51.5203217" lon="-9.60895"><ele>41.5</ele><time>2026-05-05T13:46:39.203Z</time></trkpt><trkpt lat="51.5201983" lon="-9.6093117"><ele>41.0</ele><time>2026-05-05T13:46:40.202Z</time></trkpt><trkpt lat="51.5200883" lon="-9.6096833"><ele>41.0</ele><time>2026-05-05T13:46:41.203Z</time></trkpt><trkpt lat="51.519985" lon="-9.6100367"><ele>41.0</ele><time>2026-05-05T13:46:42.203Z</time></trkpt><trkpt lat="51.5198767" lon="-9.61039"><ele>41.5</ele><time>2026-05-05T13:46:43.202Z</time></trkpt><trkpt lat="51.5197417" lon="-9.61075"><ele>42.0</ele><time>2026-05-05T13:46:44.203Z</time></trkpt><trkpt lat="51.51963" lon="-9.6110983"><ele>43.5</ele><time>2026-05-05T13:46:45.203Z</time></trkpt><trkpt lat="51.519525" lon="-9.6114417"><ele>45.0</ele><time>2026-05-05T13:46:46.203Z</time></trkpt><trkpt lat="51.5194167" lon="-9.611795"><ele>46.0</ele><time>2026-05-05T13:46:47.203Z</time></trkpt><trkpt lat="51.519295" lon="-9.6121483"><ele>47.0</ele><time>2026-05-05T13:46:48.203Z</time></trkpt><trkpt lat="51.5191817" lon="-9.61249"><ele>47.5</ele><time>2026-05-05T13:46:49.203Z</time></trkpt><trkpt lat="51.5190717" lon="-9.61284"><ele>48.0</ele><time>2026-05-05T13:46:50.203Z</time></trkpt><trkpt lat="51.51896" lon="-9.61319"><ele>48.0</ele><time>2026-05-05T13:46:51.203Z</time></trkpt><trkpt lat="51.518825" lon="-9.61354"><ele>48.0</ele><time>2026-05-05T13:46:52.203Z</time></trkpt><trkpt lat="51.5187117" lon="-9.6138933"><ele>48.0</ele><time>2026-05-05T13:46:53.202Z</time></trkpt><trkpt lat="51.518595" lon="-9.6142433"><ele>48.0</ele><time>2026-05-05T13:46:54.202Z</time></trkpt><trkpt lat="51.5184867" lon="-9.6145783"><ele>48.0</ele><time>2026-05-05T13:46:55.203Z</time></trkpt><trkpt lat="51.5183933" lon="-9.61492"><ele>48.0</ele><time>2026-05-05T13:46:56.202Z</time></trkpt><trkpt lat="51.5183117" lon="-9.6152733"><ele>49.0</ele><time>2026-05-05T13:46:57.203Z</time></trkpt><trkpt lat="51.5182517" lon="-9.615655"><ele>50.0</ele><time>2026-05-05T13:46:58.203Z</time></trkpt><trkpt lat="51.5182167" lon="-9.616035"><ele>50.5</ele><time>2026-05-05T13:46:59.202Z</time></trkpt><trkpt lat="51.5181633" lon="-9.616425"><ele>51.0</ele><time>2026-05-05T13:47:00.202Z</time></trkpt><trkpt lat="51.518095" lon="-9.616835"><ele>51.5</ele><time>2026-05-05T13:47:01.203Z</time></trkpt><trkpt lat="51.5180167" lon="-9.6172233"><ele>52.0</ele><time>2026-05-05T13:47:02.202Z</time></trkpt><trkpt lat="51.5179533" lon="-9.617605"><ele>50.5</ele><time>2026-05-05T13:47:03.202Z</time></trkpt><trkpt lat="51.5178883" lon="-9.6179917"><ele>49.0</ele><time>2026-05-05T13:47:04.203Z</time></trkpt><trkpt lat="51.5178283" lon="-9.6183783"><ele>50.5</ele><time>2026-05-05T13:47:05.203Z</time></trkpt><trkpt lat="51.5177617" lon="-9.618785"><ele>52.0</ele><time>2026-05-05T13:47:06.202Z</time></trkpt><trkpt lat="51.5177083" lon="-9.619165"><ele>52.5</ele><time>2026-05-05T13:47:07.203Z</time></trkpt><trkpt lat="51.5176583" lon="-9.6195383"><ele>53.0</ele><time>2026-05-05T13:47:08.203Z</time></trkpt><trkpt lat="51.5176" lon="-9.6198867"><ele>53.0</ele><time>2026-05-05T13:47:09.203Z</time></trkpt><trkpt lat="51.5175383" lon="-9.6202117"><ele>53.0</ele><time>2026-05-05T13:47:10.202Z</time></trkpt><trkpt lat="51.5174417" lon="-9.6205083"><ele>53.0</ele><time>2026-05-05T13:47:11.203Z</time></trkpt><trkpt lat="51.517355" lon="-9.6208133"><ele>52.0</ele><time>2026-05-05T13:47:12.203Z</time></trkpt><trkpt lat="51.5172667" lon="-9.62112"><ele>51.0</ele><time>2026-05-05T13:47:13.202Z</time></trkpt><trkpt lat="51.517155" lon="-9.62144"><ele>50.0</ele><time>2026-05-05T13:47:14.203Z</time></trkpt><trkpt lat="51.5170433" lon="-9.6217667"><ele>44.5</ele><time>2026-05-05T13:47:15.203Z</time></trkpt><trkpt lat="51.5169467" lon="-9.6220983"><ele>39.0</ele><time>2026-05-05T13:47:16.203Z</time></trkpt><trkpt lat="51.5168467" lon="-9.6224333"><ele>39.0</ele><time>2026-05-05T13:47:17.202Z</time></trkpt><trkpt lat="51.5167517" lon="-9.6227717"><ele>39.0</ele><time>2026-05-05T13:47:18.202Z</time></trkpt><trkpt lat="51.5166467" lon="-9.623115"><ele>35.5</ele><time>2026-05-05T13:47:19.202Z</time></trkpt><trkpt lat="51.5165267" lon="-9.623485"><ele>32.0</ele><time>2026-05-05T13:47:20.203Z</time></trkpt><trkpt lat="51.5164367" lon="-9.623855"><ele>30.0</ele><time>2026-05-05T13:47:21.203Z</time></trkpt><trkpt lat="51.5163317" lon="-9.6242233"><ele>28.0</ele><time>2026-05-05T13:47:22.202Z</time></trkpt><trkpt lat="51.5162517" lon="-9.6246067"><ele>27.5</ele><time>2026-05-05T13:47:23.203Z</time></trkpt><trkpt lat="51.5161883" lon="-9.6249667"><ele>27.0</ele><time>2026-05-05T13:47:24.202Z</time></trkpt><trkpt lat="51.5161267" lon="-9.6253417"><ele>24.5</ele><time>2026-05-05T13:47:25.203Z</time></trkpt><trkpt lat="51.5160683" lon="-9.6257033"><ele>22.0</ele><time>2026-05-05T13:47:26.203Z</time></trkpt><trkpt lat="51.5160167" lon="-9.6260633"><ele>21.0</ele><time>2026-05-05T13:47:27.202Z</time></trkpt><trkpt lat="51.5159717" lon="-9.6264317"><ele>20.0</ele><time>2026-05-05T13:47:28.203Z</time></trkpt><trkpt lat="51.5159383" lon="-9.6267933"><ele>20.0</ele><time>2026-05-05T13:47:29.202Z</time></trkpt><trkpt lat="51.515895" lon="-9.6271733"><ele>20.0</ele><time>2026-05-05T13:47:30.202Z</time></trkpt><trkpt lat="51.5158483" lon="-9.6275517"><ele>20.0</ele><time>2026-05-05T13:47:31.203Z</time></trkpt><trkpt lat="51.515795" lon="-9.62792"><ele>20.0</ele><time>2026-05-05T13:47:32.203Z</time></trkpt><trkpt lat="51.51575" lon="-9.6282817"><ele>20.0</ele><time>2026-05-05T13:47:33.203Z</time></trkpt><trkpt lat="51.515705" lon="-9.628635"><ele>20.0</ele><time>2026-05-05T13:47:34.203Z</time></trkpt><trkpt lat="51.5156583" lon="-9.6289867"><ele>20.0</ele><time>2026-05-05T13:47:35.203Z</time></trkpt><trkpt lat="51.51562" lon="-9.6293233"><ele>21.333333333333336</ele><time>2026-05-05T13:47:36.202Z</time></trkpt><trkpt lat="51.5155767" lon="-9.629655"><ele>22.666666666666668</ele><time>2026-05-05T13:47:37.203Z</time></trkpt><trkpt lat="51.5155333" lon="-9.629965"><ele>24.0</ele><time>2026-05-05T13:47:38.203Z</time></trkpt><trkpt lat="51.5154867" lon="-9.630245"><ele>23.333333333333332</ele><time>2026-05-05T13:47:39.202Z</time></trkpt><trkpt lat="51.51546" lon="-9.6305033"><ele>22.666666666666664</ele><time>2026-05-05T13:47:40.203Z</time></trkpt><trkpt lat="51.5154217" lon="-9.630755"><ele>22.0</ele><time>2026-05-05T13:47:41.203Z</time></trkpt><trkpt lat="51.5153617" lon="-9.631035"><ele>23.0</ele><time>2026-05-05T13:47:42.203Z</time></trkpt><trkpt lat="51.5153033" lon="-9.63133"><ele>24.0</ele><time>2026-05-05T13:47:43.203Z</time></trkpt><trkpt lat="51.51524" lon="-9.6316367"><ele>25.0</ele><time>2026-05-05T13:47:44.203Z</time></trkpt><trkpt lat="51.5151633" lon="-9.6319683"><ele>23.0</ele><time>2026-05-05T13:47:45.203Z</time></trkpt><trkpt lat="51.5150767" lon="-9.63233"><ele>21.0</ele><time>2026-05-05T13:47:46.203Z</time></trkpt><trkpt lat="51.514995" lon="-9.632685"><ele>19.5</ele><time>2026-05-05T13:47:47.202Z</time></trkpt><trkpt lat="51.5149067" lon="-9.6330383"><ele>18.0</ele><time>2026-05-05T13:47:48.203Z</time></trkpt><trkpt lat="51.514835" lon="-9.6333833"><ele>17.0</ele><time>2026-05-05T13:47:49.203Z</time></trkpt><trkpt lat="51.5147567" lon="-9.6337317"><ele>16.0</ele><time>2026-05-05T13:47:50.203Z</time></trkpt><trkpt lat="51.5146783" lon="-9.6340883"><ele>16.0</ele><time>2026-05-05T13:47:51.203Z</time></trkpt><trkpt lat="51.5145817" lon="-9.6344633"><ele>16.0</ele><time>2026-05-05T13:47:52.202Z</time></trkpt><trkpt lat="51.5144883" lon="-9.6348417"><ele>15.5</ele><time>2026-05-05T13:47:53.203Z</time></trkpt><trkpt lat="51.514385" lon="-9.6352133"><ele>15.0</ele><time>2026-05-05T13:47:54.202Z</time></trkpt><trkpt lat="51.5142933" lon="-9.63558"><ele>15.0</ele><time>2026-05-05T13:47:55.202Z</time></trkpt><trkpt lat="51.51419" lon="-9.6359317"><ele>15.0</ele><time>2026-05-05T13:47:56.202Z</time></trkpt><trkpt lat="51.5141033" lon="-9.6362617"><ele>15.0</ele><time>2026-05-05T13:47:57.203Z</time></trkpt><trkpt lat="51.5140267" lon="-9.636565"><ele>15.0</ele><time>2026-05-05T13:47:58.202Z</time></trkpt><trkpt lat="51.5139533" lon="-9.6368617"><ele>15.0</ele><time>2026-05-05T13:47:59.202Z</time></trkpt><trkpt lat="51.5138833" lon="-9.6371383"><ele>15.0</ele><time>2026-05-05T13:48:00.203Z</time></trkpt><trkpt lat="51.5138183" lon="-9.6374033"><ele>15.0</ele><time>2026-05-05T13:48:01.203Z</time></trkpt><trkpt lat="51.51376" lon="-9.6376567"><ele>15.0</ele><time>2026-05-05T13:48:02.203Z</time></trkpt><trkpt lat="51.5137083" lon="-9.6379067"><ele>15.0</ele><time>2026-05-05T13:48:03.203Z</time></trkpt><trkpt lat="51.51365" lon="-9.6381617"><ele>15.0</ele><time>2026-05-05T13:48:04.203Z</time></trkpt><trkpt lat="51.5135883" lon="-9.6384217"><ele>15.0</ele><time>2026-05-05T13:48:05.203Z</time></trkpt><trkpt lat="51.513525" lon="-9.6386783"><ele>14.333333333333332</ele><time>2026-05-05T13:48:06.203Z</time></trkpt><trkpt lat="51.5134633" lon="-9.6389233"><ele>13.666666666666666</ele><time>2026-05-05T13:48:07.203Z</time></trkpt><trkpt lat="51.513395" lon="-9.6391667"><ele>13.0</ele><time>2026-05-05T13:48:08.203Z</time></trkpt><trkpt lat="51.51332" lon="-9.6394033"><ele>13.0</ele><time>2026-05-05T13:48:09.202Z</time></trkpt><trkpt lat="51.51325" lon="-9.6396517"><ele>13.0</ele><time>2026-05-05T13:48:10.203Z</time></trkpt><trkpt lat="51.5131783" lon="-9.6398683"><ele>13.0</ele><time>2026-05-05T13:48:11.202Z</time></trkpt><trkpt lat="51.5131" lon="-9.6400767"><ele>12.333333333333332</ele><time>2026-05-05T13:48:12.203Z</time></trkpt><trkpt lat="51.513005" lon="-9.6403033"><ele>11.666666666666666</ele><time>2026-05-05T13:48:13.203Z</time></trkpt><trkpt lat="51.5129417" lon="-9.6405233"><ele>11.0</ele><time>2026-05-05T13:48:14.203Z</time></trkpt><trkpt lat="51.512865" lon="-9.6407267"><ele>11.0</ele><time>2026-05-05T13:48:15.203Z</time></trkpt><trkpt lat="51.5127967" lon="-9.6409217"><ele>11.0</ele><time>2026-05-05T13:48:16.203Z</time></trkpt><trkpt lat="51.51275" lon="-9.641105"><ele>11.0</ele><time>2026-05-05T13:48:17.202Z</time></trkpt><trkpt lat="51.5127133" lon="-9.6412883"><ele>11.0</ele><time>2026-05-05T13:48:18.203Z</time></trkpt><trkpt lat="51.512705" lon="-9.6414717"><ele>11.0</ele><time>2026-05-05T13:48:19.202Z</time></trkpt><trkpt lat="51.5127133" lon="-9.641675"><ele>11.0</ele><time>2026-05-05T13:48:20.202Z</time></trkpt><trkpt lat="51.5127183" lon="-9.6418767"><ele>11.0</ele><time>2026-05-05T13:48:21.203Z</time></trkpt><trkpt lat="51.5127417" lon="-9.6420883"><ele>11.0</ele><time>2026-05-05T13:48:22.202Z</time></trkpt><trkpt lat="51.5127833" lon="-9.64229"><ele>10.5</ele><time>2026-05-05T13:48:23.203Z</time></trkpt><trkpt lat="51.512815" lon="-9.64248"><ele>10.0</ele><time>2026-05-05T13:48:24.203Z</time></trkpt><trkpt lat="51.5128467" lon="-9.6426567"><ele>9.5</ele><time>2026-05-05T13:48:25.202Z</time></trkpt><trkpt lat="51.5128933" lon="-9.6428183"><ele>9.0</ele><time>2026-05-05T13:48:26.203Z</time></trkpt><trkpt lat="51.5129467" lon="-9.6429633"><ele>8.6</ele><time>2026-05-05T13:48:27.202Z</time></trkpt><trkpt lat="51.5130067" lon="-9.6430917"><ele>8.2</ele><time>2026-05-05T13:48:28.203Z</time></trkpt><trkpt lat="51.5130733" lon="-9.6432133"><ele>7.799999999999999</ele><time>2026-05-05T13:48:29.203Z</time></trkpt><trkpt lat="51.5131483" lon="-9.6433267"><ele>7.3999999999999995</ele><time>2026-05-05T13:48:30.203Z</time></trkpt><trkpt lat="51.51322" lon="-9.64344"><ele>7.0</ele><time>2026-05-05T13:48:31.202Z</time></trkpt><trkpt lat="51.5133033" lon="-9.643545"><ele>7.0</ele><time>2026-05-05T13:48:32.203Z</time></trkpt><trkpt lat="51.5133783" lon="-9.643625"><ele>6.999999999999999</ele><time>2026-05-05T13:48:33.203Z</time></trkpt><trkpt lat="51.5134533" lon="-9.643685"><ele>6.999999999999999</ele><time>2026-05-05T13:48:34.203Z</time></trkpt><trkpt lat="51.5135383" lon="-9.64373"><ele>7.0</ele><time>2026-05-05T13:48:35.203Z</time></trkpt><trkpt lat="51.51363" lon="-9.64376"><ele>7.0</ele><time>2026-05-05T13:48:36.203Z</time></trkpt><trkpt lat="51.5137367" lon="-9.6437683"><ele>6.75</ele><time>2026-05-05T13:48:37.203Z</time></trkpt><trkpt lat="51.513855" lon="-9.6437617"><ele>6.5</ele><time>2026-05-05T13:48:38.203Z</time></trkpt><trkpt lat="51.513975" lon="-9.6437717"><ele>6.25</ele><time>2026-05-05T13:48:39.203Z</time></trkpt><trkpt lat="51.514105" lon="-9.6437883"><ele>6.0</ele><time>2026-05-05T13:48:40.202Z</time></trkpt><trkpt lat="51.5142217" lon="-9.6437917"><ele>6.0</ele><time>2026-05-05T13:48:41.203Z</time></trkpt><trkpt lat="51.514335" lon="-9.6437917"><ele>6.0</ele><time>2026-05-05T13:48:42.203Z</time></trkpt><trkpt lat="51.514475" lon="-9.6438083"><ele>6.0</ele><time>2026-05-05T13:48:43.203Z</time></trkpt><trkpt lat="51.5146217" lon="-9.643835"><ele>6.0</ele><time>2026-05-05T13:48:44.202Z</time></trkpt><trkpt lat="51.5147733" lon="-9.64387"><ele>6.75</ele><time>2026-05-05T13:48:45.203Z</time></trkpt><trkpt lat="51.5149183" lon="-9.6439183"><ele>7.5</ele><time>2026-05-05T13:48:46.203Z</time></trkpt><trkpt lat="51.5150617" lon="-9.6439817"><ele>8.25</ele><time>2026-05-05T13:48:47.203Z</time></trkpt><trkpt lat="51.5151983" lon="-9.6440417"><ele>9.0</ele><time>2026-05-05T13:48:48.203Z</time></trkpt><trkpt lat="51.5153283" lon="-9.6441033"><ele>9.75</ele><time>2026-05-05T13:48:49.203Z</time></trkpt><trkpt lat="51.5154583" lon="-9.6441383"><ele>10.5</ele><time>2026-05-05T13:48:50.203Z</time></trkpt><trkpt lat="51.515585" lon="-9.6441683"><ele>11.25</ele><time>2026-05-05T13:48:51.203Z</time></trkpt><trkpt lat="51.51573" lon="-9.6441367"><ele>12.0</ele><time>2026-05-05T13:48:52.203Z</time></trkpt><trkpt lat="51.5158767" lon="-9.6440933"><ele>12.0</ele><time>2026-05-05T13:48:53.203Z</time></trkpt><trkpt lat="51.51603" lon="-9.6440583"><ele>12.0</ele><time>2026-05-05T13:48:54.202Z</time></trkpt><trkpt lat="51.5161817" lon="-9.6440217"><ele>12.0</ele><time>2026-05-05T13:48:55.203Z</time></trkpt><trkpt lat="51.5163433" lon="-9.6439633"><ele>11.333333333333334</ele><time>2026-05-05T13:48:56.202Z</time></trkpt><trkpt lat="51.5165133" lon="-9.64389"><ele>10.666666666666668</ele><time>2026-05-05T13:48:57.203Z</time></trkpt><trkpt lat="51.5166883" lon="-9.6437967"><ele>10.0</ele><time>2026-05-05T13:48:58.203Z</time></trkpt><trkpt lat="51.5168667" lon="-9.6436967"><ele>10.666666666666668</ele><time>2026-05-05T13:48:59.203Z</time></trkpt><trkpt lat="51.5170383" lon="-9.6435767"><ele>11.333333333333334</ele><time>2026-05-05T13:49:00.202Z</time></trkpt><trkpt lat="51.5172117" lon="-9.6434667"><ele>12.0</ele><time>2026-05-05T13:49:01.203Z</time></trkpt><trkpt lat="51.517365" lon="-9.643365"><ele>12.0</ele><time>2026-05-05T13:49:02.203Z</time></trkpt><trkpt lat="51.51751" lon="-9.6432833"><ele>12.0</ele><time>2026-05-05T13:49:03.202Z</time></trkpt><trkpt lat="51.5176467" lon="-9.64323"><ele>12.0</ele><time>2026-05-05T13:49:04.203Z</time></trkpt><trkpt lat="51.5177867" lon="-9.6432167"><ele>12.0</ele><time>2026-05-05T13:49:05.202Z</time></trkpt><trkpt lat="51.5179267" lon="-9.6432083"><ele>11.0</ele><time>2026-05-05T13:49:06.203Z</time></trkpt><trkpt lat="51.5180733" lon="-9.6432183"><ele>10.0</ele><time>2026-05-05T13:49:07.203Z</time></trkpt><trkpt lat="51.51823" lon="-9.6432233"><ele>9.0</ele><time>2026-05-05T13:49:08.203Z</time></trkpt><trkpt lat="51.5183867" lon="-9.6432283"><ele>9.0</ele><time>2026-05-05T13:49:09.203Z</time></trkpt><trkpt lat="51.5185567" lon="-9.64323"><ele>9.0</ele><time>2026-05-05T13:49:10.203Z</time></trkpt><trkpt lat="51.5187233" lon="-9.6432333"><ele>9.0</ele><time>2026-05-05T13:49:11.203Z</time></trkpt><trkpt lat="51.5189067" lon="-9.6431883"><ele>7.0</ele><time>2026-05-05T13:49:12.202Z</time></trkpt><trkpt lat="51.5190683" lon="-9.6431233"><ele>5.0</ele><time>2026-05-05T13:49:13.203Z</time></trkpt><trkpt lat="51.519245" lon="-9.6430383"><ele>3.0</ele><time>2026-05-05T13:49:14.203Z</time></trkpt><trkpt lat="51.5194117" lon="-9.642965"><ele>3.333333333333333</ele><time>2026-05-05T13:49:15.203Z</time></trkpt><trkpt lat="51.5195683" lon="-9.642895"><ele>3.6666666666666665</ele><time>2026-05-05T13:49:16.203Z</time></trkpt><trkpt lat="51.519715" lon="-9.64283"><ele>4.0</ele><time>2026-05-05T13:49:17.203Z</time></trkpt><trkpt lat="51.5198633" lon="-9.6427883"><ele>4.0</ele><time>2026-05-05T13:49:18.203Z</time></trkpt><trkpt lat="51.5200117" lon="-9.6427867"><ele>4.0</ele><time>2026-05-05T13:49:19.203Z</time></trkpt><trkpt lat="51.5202017" lon="-9.6428333"><ele>4.0</ele><time>2026-05-05T13:49:20.202Z</time></trkpt><trkpt lat="51.520365" lon="-9.642905"><ele>4.333333333333333</ele><time>2026-05-05T13:49:21.203Z</time></trkpt><trkpt lat="51.520535" lon="-9.6430433"><ele>4.666666666666667</ele><time>2026-05-05T13:49:22.202Z</time></trkpt><trkpt lat="51.5206883" lon="-9.6431767"><ele>5.0</ele><time>2026-05-05T13:49:23.202Z</time></trkpt><trkpt lat="51.520815" lon="-9.64333"><ele>5.0</ele><time>2026-05-05T13:49:24.203Z</time></trkpt><trkpt lat="51.5209183" lon="-9.64349"><ele>5.0</ele><time>2026-05-05T13:49:25.202Z</time></trkpt><trkpt lat="51.521005" lon="-9.6436917"><ele>5.0</ele><time>2026-05-05T13:49:26.203Z</time></trkpt><trkpt lat="51.5210417" lon="-9.6439417"><ele>5.0</ele><time>2026-05-05T13:49:27.203Z</time></trkpt><trkpt lat="51.5210783" lon="-9.64419"><ele>5.0</ele><time>2026-05-05T13:49:28.202Z</time></trkpt><trkpt lat="51.52111" lon="-9.64443"><ele>5.0</ele><time>2026-05-05T13:49:29.202Z</time></trkpt><trkpt lat="51.5211417" lon="-9.64468"><ele>4.666666666666667</ele><time>2026-05-05T13:49:30.203Z</time></trkpt><trkpt lat="51.5211683" lon="-9.64492"><ele>4.333333333333333</ele><time>2026-05-05T13:49:31.203Z</time></trkpt><trkpt lat="51.5212" lon="-9.645155"><ele>4.0</ele><time>2026-05-05T13:49:32.202Z</time></trkpt><trkpt lat="51.5212267" lon="-9.6454017"><ele>5.0</ele><time>2026-05-05T13:49:33.203Z</time></trkpt><trkpt lat="51.5212583" lon="-9.645655"><ele>6.0</ele><time>2026-05-05T13:49:34.203Z</time></trkpt><trkpt lat="51.5212917" lon="-9.645915"><ele>7.0</ele><time>2026-05-05T13:49:35.203Z</time></trkpt><trkpt lat="51.521335" lon="-9.64618"><ele>7.0</ele><time>2026-05-05T13:49:36.203Z</time></trkpt><trkpt lat="51.5213767" lon="-9.6464383"><ele>7.0</ele><time>2026-05-05T13:49:37.203Z</time></trkpt><trkpt lat="51.5214167" lon="-9.6467017"><ele>7.0</ele><time>2026-05-05T13:49:38.203Z</time></trkpt><trkpt lat="51.52144" lon="-9.6469767"><ele>7.333333333333334</ele><time>2026-05-05T13:49:39.203Z</time></trkpt><trkpt lat="51.5214533" lon="-9.6472517"><ele>7.666666666666666</ele><time>2026-05-05T13:49:40.203Z</time></trkpt><trkpt lat="51.52145" lon="-9.64752"><ele>8.0</ele><time>2026-05-05T13:49:41.203Z</time></trkpt><trkpt lat="51.5214533" lon="-9.6477667"><ele>8.0</ele><time>2026-05-05T13:49:42.203Z</time></trkpt><trkpt lat="51.5214167" lon="-9.6480467"><ele>8.0</ele><time>2026-05-05T13:49:43.202Z</time></trkpt><trkpt lat="51.521395" lon="-9.6482733"><ele>8.0</ele><time>2026-05-05T13:49:44.202Z</time></trkpt><trkpt lat="51.5213517" lon="-9.64847"><ele>8.0</ele><time>2026-05-05T13:49:45.202Z</time></trkpt><trkpt lat="51.5212733" lon="-9.64869"><ele>8.0</ele><time>2026-05-05T13:49:46.203Z</time></trkpt><trkpt lat="51.5211667" lon="-9.64884"><ele>8.0</ele><time>2026-05-05T13:49:47.203Z</time></trkpt><trkpt lat="51.5210233" lon="-9.6490117"><ele>8.0</ele><time>2026-05-05T13:49:48.202Z</time></trkpt><trkpt lat="51.5208983" lon="-9.6491933"><ele>8.0</ele><time>2026-05-05T13:49:49.202Z</time></trkpt><trkpt lat="51.5207567" lon="-9.64938"><ele>8.0</ele><time>2026-05-05T13:49:50.202Z</time></trkpt><trkpt lat="51.5206" lon="-9.6495333"><ele>9.0</ele><time>2026-05-05T13:49:51.203Z</time></trkpt><trkpt lat="51.52045" lon="-9.64966"><ele>10.0</ele><time>2026-05-05T13:49:52.202Z</time></trkpt><trkpt lat="51.5203117" lon="-9.64976"><ele>11.0</ele><time>2026-05-05T13:49:53.203Z</time></trkpt><trkpt lat="51.5201683" lon="-9.6498317"><ele>11.0</ele><time>2026-05-05T13:49:54.202Z</time></trkpt><trkpt lat="51.5200417" lon="-9.6498983"><ele>11.0</ele><time>2026-05-05T13:49:55.203Z</time></trkpt><trkpt lat="51.51991" lon="-9.64998"><ele>11.0</ele><time>2026-05-05T13:49:56.203Z</time></trkpt><trkpt lat="51.5197933" lon="-9.6500717"><ele>11.0</ele><time>2026-05-05T13:49:57.203Z</time></trkpt><trkpt lat="51.5196883" lon="-9.6501817"><ele>12.5</ele><time>2026-05-05T13:49:58.202Z</time></trkpt><trkpt lat="51.519595" lon="-9.6503183"><ele>14.0</ele><time>2026-05-05T13:49:59.203Z</time></trkpt><trkpt lat="51.51953" lon="-9.6505017"><ele>15.5</ele><time>2026-05-05T13:50:00.203Z</time></trkpt><trkpt lat="51.519505" lon="-9.6507167"><ele>17.0</ele><time>2026-05-05T13:50:01.202Z</time></trkpt><trkpt lat="51.5194933" lon="-9.6509483"><ele>18.0</ele><time>2026-05-05T13:50:02.202Z</time></trkpt><trkpt lat="51.5195117" lon="-9.6511917"><ele>19.0</ele><time>2026-05-05T13:50:03.203Z</time></trkpt><trkpt lat="51.5195333" lon="-9.651445"><ele>20.0</ele><time>2026-05-05T13:50:04.203Z</time></trkpt><trkpt lat="51.519555" lon="-9.6516933"><ele>20.5</ele><time>2026-05-05T13:50:05.203Z</time></trkpt><trkpt lat="51.519585" lon="-9.6519383"><ele>21.0</ele><time>2026-05-05T13:50:06.202Z</time></trkpt><trkpt lat="51.51962" lon="-9.65215"><ele>21.5</ele><time>2026-05-05T13:50:07.202Z</time></trkpt><trkpt lat="51.51963" lon="-9.6523617"><ele>22.0</ele><time>2026-05-05T13:50:08.203Z</time></trkpt><trkpt lat="51.5196233" lon="-9.65255"><ele>22.25</ele><time>2026-05-05T13:50:09.203Z</time></trkpt><trkpt lat="51.5196" lon="-9.6527383"><ele>22.5</ele><time>2026-05-05T13:50:10.202Z</time></trkpt><trkpt lat="51.51958" lon="-9.6529517"><ele>22.75</ele><time>2026-05-05T13:50:11.202Z</time></trkpt><trkpt lat="51.5195433" lon="-9.653185"><ele>23.0</ele><time>2026-05-05T13:50:12.203Z</time></trkpt><trkpt lat="51.5194867" lon="-9.6534417"><ele>23.0</ele><time>2026-05-05T13:50:13.202Z</time></trkpt><trkpt lat="51.5194233" lon="-9.6537133"><ele>23.0</ele><time>2026-05-05T13:50:14.203Z</time></trkpt><trkpt lat="51.5193783" lon="-9.6539533"><ele>23.0</ele><time>2026-05-05T13:50:15.203Z</time></trkpt><trkpt lat="51.5193317" lon="-9.6542017"><ele>23.0</ele><time>2026-05-05T13:50:16.202Z</time></trkpt><trkpt lat="51.519285" lon="-9.6544233"><ele>23.0</ele><time>2026-05-05T13:50:17.203Z</time></trkpt><trkpt lat="51.519265" lon="-9.6546217"><ele>23.0</ele><time>2026-05-05T13:50:18.203Z</time></trkpt><trkpt lat="51.519265" lon="-9.6548167"><ele>23.0</ele><time>2026-05-05T13:50:19.203Z</time></trkpt><trkpt lat="51.5192817" lon="-9.6550083"><ele>22.75</ele><time>2026-05-05T13:50:20.203Z</time></trkpt><trkpt lat="51.5193117" lon="-9.6552083"><ele>22.5</ele><time>2026-05-05T13:50:21.203Z</time></trkpt><trkpt lat="51.519375" lon="-9.655405"><ele>22.25</ele><time>2026-05-05T13:50:22.202Z</time></trkpt><trkpt lat="51.519485" lon="-9.6555917"><ele>22.0</ele><time>2026-05-05T13:50:23.203Z</time></trkpt><trkpt lat="51.5196133" lon="-9.655755"><ele>22.666666666666664</ele><time>2026-05-05T13:50:24.202Z</time></trkpt><trkpt lat="51.5197783" lon="-9.655875"><ele>23.333333333333332</ele><time>2026-05-05T13:50:25.203Z</time></trkpt><trkpt lat="51.5199133" lon="-9.6559983"><ele>24.0</ele><time>2026-05-05T13:50:26.203Z</time></trkpt><trkpt lat="51.5200367" lon="-9.6561283"><ele>24.0</ele><time>2026-05-05T13:50:27.203Z</time></trkpt><trkpt lat="51.52014" lon="-9.65628"><ele>24.0</ele><time>2026-05-05T13:50:28.203Z</time></trkpt><trkpt lat="51.5202283" lon="-9.6564183"><ele>24.0</ele><time>2026-05-05T13:50:29.202Z</time></trkpt><trkpt lat="51.52025" lon="-9.656605"><ele>24.0</ele><time>2026-05-05T13:50:30.202Z</time></trkpt><trkpt lat="51.5202617" lon="-9.6568"><ele>23.75</ele><time>2026-05-05T13:50:31.203Z</time></trkpt><trkpt lat="51.5202533" lon="-9.6570217"><ele>23.5</ele><time>2026-05-05T13:50:32.203Z</time></trkpt><trkpt lat="51.5202317" lon="-9.6572583"><ele>23.25</ele><time>2026-05-05T13:50:33.203Z</time></trkpt><trkpt lat="51.5202217" lon="-9.657475"><ele>23.0</ele><time>2026-05-05T13:50:34.202Z</time></trkpt><trkpt lat="51.520185" lon="-9.6577033"><ele>23.666666666666668</ele><time>2026-05-05T13:50:35.203Z</time></trkpt><trkpt lat="51.52013" lon="-9.657965"><ele>24.333333333333336</ele><time>2026-05-05T13:50:36.202Z</time></trkpt><trkpt lat="51.5200367" lon="-9.6582517"><ele>25.0</ele><time>2026-05-05T13:50:37.203Z</time></trkpt><trkpt lat="51.5199583" lon="-9.6585117"><ele>25.0</ele><time>2026-05-05T13:50:38.203Z</time></trkpt><trkpt lat="51.5198783" lon="-9.65879"><ele>25.0</ele><time>2026-05-05T13:50:39.203Z</time></trkpt><trkpt lat="51.5197983" lon="-9.6590783"><ele>25.0</ele><time>2026-05-05T13:50:40.203Z</time></trkpt><trkpt lat="51.51973" lon="-9.6593783"><ele>24.0</ele><time>2026-05-05T13:50:41.203Z</time></trkpt><trkpt lat="51.5196717" lon="-9.6596733"><ele>23.0</ele><time>2026-05-05T13:50:42.203Z</time></trkpt><trkpt lat="51.5196083" lon="-9.6599617"><ele>22.0</ele><time>2026-05-05T13:50:43.203Z</time></trkpt><trkpt lat="51.51954" lon="-9.660255"><ele>19.666666666666664</ele><time>2026-05-05T13:50:44.202Z</time></trkpt><trkpt lat="51.5194483" lon="-9.6605517"><ele>17.333333333333332</ele><time>2026-05-05T13:50:45.203Z</time></trkpt><trkpt lat="51.5193533" lon="-9.6608467"><ele>15.0</ele><time>2026-05-05T13:50:46.202Z</time></trkpt><trkpt lat="51.519255" lon="-9.6611433"><ele>15.0</ele><time>2026-05-05T13:50:47.203Z</time></trkpt><trkpt lat="51.5191567" lon="-9.661445"><ele>15.0</ele><time>2026-05-05T13:50:48.203Z</time></trkpt><trkpt lat="51.51906" lon="-9.6617383"><ele>15.0</ele><time>2026-05-05T13:50:49.202Z</time></trkpt><trkpt lat="51.518955" lon="-9.6620283"><ele>15.0</ele><time>2026-05-05T13:50:50.203Z</time></trkpt><trkpt lat="51.5188183" lon="-9.6623083"><ele>15.0</ele><time>2026-05-05T13:50:51.203Z</time></trkpt><trkpt lat="51.5187217" lon="-9.6625483"><ele>15.0</ele><time>2026-05-05T13:50:52.202Z</time></trkpt><trkpt lat="51.5186383" lon="-9.6627783"><ele>14.0</ele><time>2026-05-05T13:50:53.203Z</time></trkpt><trkpt lat="51.5185583" lon="-9.6630133"><ele>13.0</ele><time>2026-05-05T13:50:54.203Z</time></trkpt><trkpt lat="51.5184717" lon="-9.6632283"><ele>12.0</ele><time>2026-05-05T13:50:55.202Z</time></trkpt><trkpt lat="51.5183733" lon="-9.6634667"><ele>12.333333333333332</ele><time>2026-05-05T13:50:56.203Z</time></trkpt><trkpt lat="51.51826" lon="-9.66371"><ele>12.666666666666666</ele><time>2026-05-05T13:50:57.202Z</time></trkpt><trkpt lat="51.5181317" lon="-9.6639567"><ele>13.0</ele><time>2026-05-05T13:50:58.203Z</time></trkpt><trkpt lat="51.5179917" lon="-9.6641917"><ele>10.666666666666666</ele><time>2026-05-05T13:50:59.202Z</time></trkpt><trkpt lat="51.5178583" lon="-9.66442"><ele>8.333333333333332</ele><time>2026-05-05T13:51:00.203Z</time></trkpt><trkpt lat="51.5177367" lon="-9.664635"><ele>6.0</ele><time>2026-05-05T13:51:01.203Z</time></trkpt><trkpt lat="51.5176133" lon="-9.6648433"><ele>6.0</ele><time>2026-05-05T13:51:02.202Z</time></trkpt><trkpt lat="51.51751" lon="-9.6650367"><ele>6.0</ele><time>2026-05-05T13:51:03.202Z</time></trkpt><trkpt lat="51.5174133" lon="-9.6652267"><ele>6.0</ele><time>2026-05-05T13:51:04.203Z</time></trkpt><trkpt lat="51.51731" lon="-9.6654233"><ele>5.75</ele><time>2026-05-05T13:51:05.202Z</time></trkpt><trkpt lat="51.51722" lon="-9.66561"><ele>5.5</ele><time>2026-05-05T13:51:06.203Z</time></trkpt><trkpt lat="51.5171367" lon="-9.6658117"><ele>5.25</ele><time>2026-05-05T13:51:07.202Z</time></trkpt><trkpt lat="51.5170717" lon="-9.666015"><ele>5.0</ele><time>2026-05-05T13:51:08.203Z</time></trkpt><trkpt lat="51.5170167" lon="-9.666215"><ele>4.75</ele><time>2026-05-05T13:51:09.203Z</time></trkpt><trkpt lat="51.51697" lon="-9.6664117"><ele>4.5</ele><time>2026-05-05T13:51:10.202Z</time></trkpt><trkpt lat="51.5169317" lon="-9.6666"><ele>4.25</ele><time>2026-05-05T13:51:11.203Z</time></trkpt><trkpt lat="51.5169033" lon="-9.6668117"><ele>4.0</ele><time>2026-05-05T13:51:12.202Z</time></trkpt><trkpt lat="51.5168567" lon="-9.6670167"><ele>4.5</ele><time>2026-05-05T13:51:13.203Z</time></trkpt><trkpt lat="51.5167967" lon="-9.6672117"><ele>5.0</ele><time>2026-05-05T13:51:14.203Z</time></trkpt><trkpt lat="51.5167067" lon="-9.667405"><ele>5.5</ele><time>2026-05-05T13:51:15.202Z</time></trkpt><trkpt lat="51.5166217" lon="-9.6675717"><ele>6.0</ele><time>2026-05-05T13:51:16.203Z</time></trkpt><trkpt lat="51.5165033" lon="-9.667715"><ele>5.333333333333333</ele><time>2026-05-05T13:51:17.203Z</time></trkpt><trkpt lat="51.5163583" lon="-9.667825"><ele>4.666666666666666</ele><time>2026-05-05T13:51:18.202Z</time></trkpt><trkpt lat="51.5161917" lon="-9.6679017"><ele>4.0</ele><time>2026-05-05T13:51:19.202Z</time></trkpt><trkpt lat="51.5160267" lon="-9.6679767"><ele>4.0</ele><time>2026-05-05T13:51:20.203Z</time></trkpt><trkpt lat="51.515865" lon="-9.6680267"><ele>4.0</ele><time>2026-05-05T13:51:21.203Z</time></trkpt><trkpt lat="51.515715" lon="-9.6680617"><ele>4.0</ele><time>2026-05-05T13:51:22.203Z</time></trkpt><trkpt lat="51.5155817" lon="-9.6680817"><ele>4.0</ele><time>2026-05-05T13:51:23.202Z</time></trkpt><trkpt lat="51.515465" lon="-9.6680883"><ele>4.0</ele><time>2026-05-05T13:51:24.202Z</time></trkpt><trkpt lat="51.5153217" lon="-9.6681117"><ele>4.0</ele><time>2026-05-05T13:51:25.203Z</time></trkpt><trkpt lat="51.51517" lon="-9.6681217"><ele>4.0</ele><time>2026-05-05T13:51:26.202Z</time></trkpt><trkpt lat="51.5150133" lon="-9.6681267"><ele>5.333333333333333</ele><time>2026-05-05T13:51:27.203Z</time></trkpt><trkpt lat="51.5148467" lon="-9.6681183"><ele>6.666666666666666</ele><time>2026-05-05T13:51:28.202Z</time></trkpt><trkpt lat="51.5146783" lon="-9.6681017"><ele>8.0</ele><time>2026-05-05T13:51:29.203Z</time></trkpt><trkpt lat="51.5145117" lon="-9.6680733"><ele>10.666666666666666</ele><time>2026-05-05T13:51:30.202Z</time></trkpt><trkpt lat="51.5143617" lon="-9.6680317"><ele>13.333333333333332</ele><time>2026-05-05T13:51:31.203Z</time></trkpt><trkpt lat="51.5142117" lon="-9.668"><ele>16.0</ele><time>2026-05-05T13:51:32.203Z</time></trkpt><trkpt lat="51.51406" lon="-9.6679767"><ele>16.0</ele><time>2026-05-05T13:51:33.202Z</time></trkpt><trkpt lat="51.51391" lon="-9.6679633"><ele>16.0</ele><time>2026-05-05T13:51:34.202Z</time></trkpt><trkpt lat="51.5137517" lon="-9.667965"><ele>16.0</ele><time>2026-05-05T13:51:35.203Z</time></trkpt><trkpt lat="51.5135833" lon="-9.6679883"><ele>17.333333333333332</ele><time>2026-05-05T13:51:36.203Z</time></trkpt><trkpt lat="51.5134233" lon="-9.66805"><ele>18.666666666666668</ele><time>2026-05-05T13:51:37.202Z</time></trkpt><trkpt lat="51.5132783" lon="-9.6681317"><ele>20.0</ele><time>2026-05-05T13:51:38.203Z</time></trkpt><trkpt lat="51.51314" lon="-9.6681967"><ele>20.0</ele><time>2026-05-05T13:51:39.202Z</time></trkpt><trkpt lat="51.513015" lon="-9.6682867"><ele>20.0</ele><time>2026-05-05T13:51:40.203Z</time></trkpt><trkpt lat="51.5128617" lon="-9.6683333"><ele>20.0</ele><time>2026-05-05T13:51:41.202Z</time></trkpt><trkpt lat="51.51273" lon="-9.668355"><ele>20.0</ele><time>2026-05-05T13:51:42.203Z</time></trkpt><trkpt lat="51.5125833" lon="-9.6683783"><ele>20.25</ele><time>2026-05-05T13:51:43.203Z</time></trkpt><trkpt lat="51.5124533" lon="-9.6683783"><ele>20.5</ele><time>2026-05-05T13:51:44.203Z</time></trkpt><trkpt lat="51.51233" lon="-9.6683683"><ele>20.75</ele><time>2026-05-05T13:51:45.202Z</time></trkpt><trkpt lat="51.5121917" lon="-9.66835"><ele>21.0</ele><time>2026-05-05T13:51:46.203Z</time></trkpt><trkpt lat="51.5120383" lon="-9.6682717"><ele>21.666666666666668</ele><time>2026-05-05T13:51:47.203Z</time></trkpt><trkpt lat="51.51189" lon="-9.6681933"><ele>22.333333333333336</ele><time>2026-05-05T13:51:48.203Z</time></trkpt><trkpt lat="51.5117333" lon="-9.6681683"><ele>23.0</ele><time>2026-05-05T13:51:49.203Z</time></trkpt><trkpt lat="51.511565" lon="-9.6682067"><ele>23.0</ele><time>2026-05-05T13:51:50.203Z</time></trkpt><trkpt lat="51.5114183" lon="-9.668195"><ele>23.0</ele><time>2026-05-05T13:51:51.202Z</time></trkpt><trkpt lat="51.5112833" lon="-9.668195"><ele>23.0</ele><time>2026-05-05T13:51:52.202Z</time></trkpt><trkpt lat="51.51115" lon="-9.6682283"><ele>23.0</ele><time>2026-05-05T13:51:53.202Z</time></trkpt><trkpt lat="51.5110133" lon="-9.6682933"><ele>23.0</ele><time>2026-05-05T13:51:54.202Z</time></trkpt><trkpt lat="51.5108717" lon="-9.668405"><ele>23.0</ele><time>2026-05-05T13:51:55.203Z</time></trkpt><trkpt lat="51.5107267" lon="-9.66851"><ele>23.0</ele><time>2026-05-05T13:51:56.202Z</time></trkpt><trkpt lat="51.5106117" lon="-9.6686783"><ele>23.5</ele><time>2026-05-05T13:51:57.203Z</time></trkpt><trkpt lat="51.5104917" lon="-9.6688267"><ele>24.0</ele><time>2026-05-05T13:51:58.203Z</time></trkpt><trkpt lat="51.51037" lon="-9.6689533"><ele>24.5</ele><time>2026-05-05T13:51:59.203Z</time></trkpt><trkpt lat="51.51023" lon="-9.6690417"><ele>25.0</ele><time>2026-05-05T13:52:00.202Z</time></trkpt><trkpt lat="51.51007" lon="-9.66911"><ele>25.0</ele><time>2026-05-05T13:52:01.202Z</time></trkpt><trkpt lat="51.50991" lon="-9.6691617"><ele>25.0</ele><time>2026-05-05T13:52:02.203Z</time></trkpt><trkpt lat="51.5097517" lon="-9.669185"><ele>25.0</ele><time>2026-05-05T13:52:03.203Z</time></trkpt><trkpt lat="51.5095833" lon="-9.669205"><ele>24.666666666666668</ele><time>2026-05-05T13:52:04.203Z</time></trkpt><trkpt lat="51.5094217" lon="-9.66921"><ele>24.333333333333336</ele><time>2026-05-05T13:52:05.203Z</time></trkpt><trkpt lat="51.509265" lon="-9.66922"><ele>24.0</ele><time>2026-05-05T13:52:06.203Z</time></trkpt><trkpt lat="51.50909" lon="-9.66929"><ele>24.0</ele><time>2026-05-05T13:52:07.203Z</time></trkpt><trkpt lat="51.5089633" lon="-9.669385"><ele>24.0</ele><time>2026-05-05T13:52:08.203Z</time></trkpt><trkpt lat="51.5088183" lon="-9.6695017"><ele>24.0</ele><time>2026-05-05T13:52:09.202Z</time></trkpt><trkpt lat="51.50869" lon="-9.669645"><ele>24.0</ele><time>2026-05-05T13:52:10.203Z</time></trkpt><trkpt lat="51.5085983" lon="-9.66984"><ele>24.0</ele><time>2026-05-05T13:52:11.203Z</time></trkpt><trkpt lat="51.508525" lon="-9.67005"><ele>24.0</ele><time>2026-05-05T13:52:12.203Z</time></trkpt><trkpt lat="51.5084967" lon="-9.6702933"><ele>24.666666666666664</ele><time>2026-05-05T13:52:13.203Z</time></trkpt><trkpt lat="51.5084783" lon="-9.6705667"><ele>25.333333333333332</ele><time>2026-05-05T13:52:14.202Z</time></trkpt><trkpt lat="51.5084433" lon="-9.670835"><ele>26.0</ele><time>2026-05-05T13:52:15.203Z</time></trkpt><trkpt lat="51.50842" lon="-9.6711033"><ele>27.333333333333332</ele><time>2026-05-05T13:52:16.202Z</time></trkpt><trkpt lat="51.508395" lon="-9.6713733"><ele>28.666666666666664</ele><time>2026-05-05T13:52:17.202Z</time></trkpt><trkpt lat="51.5083717" lon="-9.6716433"><ele>30.0</ele><time>2026-05-05T13:52:18.203Z</time></trkpt><trkpt lat="51.508345" lon="-9.6719117"><ele>31.0</ele><time>2026-05-05T13:52:19.202Z</time></trkpt><trkpt lat="51.5083283" lon="-9.67223"><ele>32.0</ele><time>2026-05-05T13:52:20.203Z</time></trkpt><trkpt lat="51.50833" lon="-9.6725333"><ele>33.0</ele><time>2026-05-05T13:52:21.203Z</time></trkpt><trkpt lat="51.5082983" lon="-9.6728233"><ele>33.666666666666664</ele><time>2026-05-05T13:52:22.202Z</time></trkpt><trkpt lat="51.50824" lon="-9.6731083"><ele>34.33333333333333</ele><time>2026-05-05T13:52:23.202Z</time></trkpt><trkpt lat="51.508205" lon="-9.6733933"><ele>35.0</ele><time>2026-05-05T13:52:24.202Z</time></trkpt><trkpt lat="51.50817" lon="-9.6736633"><ele>35.0</ele><time>2026-05-05T13:52:25.202Z</time></trkpt><trkpt lat="51.50811" lon="-9.6739033"><ele>35.0</ele><time>2026-05-05T13:52:26.203Z</time></trkpt><trkpt lat="51.508045" lon="-9.67413"><ele>35.0</ele><time>2026-05-05T13:52:27.202Z</time></trkpt><trkpt lat="51.5079917" lon="-9.67437"><ele>34.666666666666664</ele><time>2026-05-05T13:52:28.202Z</time></trkpt><trkpt lat="51.5079317" lon="-9.6746067"><ele>34.333333333333336</ele><time>2026-05-05T13:52:29.203Z</time></trkpt><trkpt lat="51.5078783" lon="-9.6748483"><ele>34.0</ele><time>2026-05-05T13:52:30.203Z</time></trkpt><trkpt lat="51.50782" lon="-9.6750817"><ele>31.666666666666668</ele><time>2026-05-05T13:52:31.203Z</time></trkpt><trkpt lat="51.5078217" lon="-9.6753333"><ele>29.333333333333336</ele><time>2026-05-05T13:52:32.203Z</time></trkpt><trkpt lat="51.5078133" lon="-9.67558"><ele>27.0</ele><time>2026-05-05T13:52:33.203Z</time></trkpt><trkpt lat="51.507825" lon="-9.6758217"><ele>27.0</ele><time>2026-05-05T13:52:34.203Z</time></trkpt><trkpt lat="51.507865" lon="-9.676045"><ele>27.0</ele><time>2026-05-05T13:52:35.203Z</time></trkpt><trkpt lat="51.5079417" lon="-9.6762567"><ele>27.0</ele><time>2026-05-05T13:52:36.203Z</time></trkpt><trkpt lat="51.5080867" lon="-9.676435"><ele>27.666666666666664</ele><time>2026-05-05T13:52:37.203Z</time></trkpt><trkpt lat="51.508215" lon="-9.6765967"><ele>28.333333333333332</ele><time>2026-05-05T13:52:38.203Z</time></trkpt><trkpt lat="51.508325" lon="-9.6767867"><ele>29.0</ele><time>2026-05-05T13:52:39.202Z</time></trkpt><trkpt lat="51.5084267" lon="-9.6769983"><ele>29.0</ele><time>2026-05-05T13:52:40.202Z</time></trkpt><trkpt lat="51.5085" lon="-9.6772167"><ele>29.0</ele><time>2026-05-05T13:52:41.203Z</time></trkpt><trkpt lat="51.5085517" lon="-9.6774717"><ele>29.0</ele><time>2026-05-05T13:52:42.202Z</time></trkpt><trkpt lat="51.5085917" lon="-9.6777183"><ele>29.333333333333332</ele><time>2026-05-05T13:52:43.203Z</time></trkpt><trkpt lat="51.5085917" lon="-9.6779667"><ele>29.666666666666664</ele><time>2026-05-05T13:52:44.202Z</time></trkpt><trkpt lat="51.5085783" lon="-9.678215"><ele>30.0</ele><time>2026-05-05T13:52:45.202Z</time></trkpt><trkpt lat="51.5085433" lon="-9.6784533"><ele>30.333333333333336</ele><time>2026-05-05T13:52:46.203Z</time></trkpt><trkpt lat="51.5084833" lon="-9.6787"><ele>30.666666666666668</ele><time>2026-05-05T13:52:47.202Z</time></trkpt><trkpt lat="51.50843" lon="-9.6789433"><ele>31.0</ele><time>2026-05-05T13:52:48.203Z</time></trkpt><trkpt lat="51.5083817" lon="-9.6792033"><ele>31.666666666666668</ele><time>2026-05-05T13:52:49.203Z</time></trkpt><trkpt lat="51.5083367" lon="-9.67947"><ele>32.333333333333336</ele><time>2026-05-05T13:52:50.203Z</time></trkpt><trkpt lat="51.5083183" lon="-9.6797583"><ele>33.0</ele><time>2026-05-05T13:52:51.203Z</time></trkpt><trkpt lat="51.5083017" lon="-9.6800533"><ele>32.666666666666664</ele><time>2026-05-05T13:52:52.202Z</time></trkpt><trkpt lat="51.5083067" lon="-9.6803433"><ele>32.33333333333333</ele><time>2026-05-05T13:52:53.202Z</time></trkpt><trkpt lat="51.5082917" lon="-9.6806417"><ele>32.0</ele><time>2026-05-05T13:52:54.203Z</time></trkpt><trkpt lat="51.5082683" lon="-9.6809433"><ele>32.666666666666664</ele><time>2026-05-05T13:52:55.202Z</time></trkpt><trkpt lat="51.50824" lon="-9.68122"><ele>33.333333333333336</ele><time>2026-05-05T13:52:56.202Z</time></trkpt><trkpt lat="51.508195" lon="-9.6814833"><ele>34.0</ele><time>2026-05-05T13:52:57.202Z</time></trkpt><trkpt lat="51.50816" lon="-9.6817167"><ele>35.0</ele><time>2026-05-05T13:52:58.202Z</time></trkpt><trkpt lat="51.50811" lon="-9.6819433"><ele>36.0</ele><time>2026-05-05T13:52:59.202Z</time></trkpt><trkpt lat="51.5080267" lon="-9.6821767"><ele>37.0</ele><time>2026-05-05T13:53:00.202Z</time></trkpt><trkpt lat="51.5079633" lon="-9.6823967"><ele>33.0</ele><time>2026-05-05T13:53:01.203Z</time></trkpt><trkpt lat="51.5079083" lon="-9.6826317"><ele>29.0</ele><time>2026-05-05T13:53:02.204Z</time></trkpt><trkpt lat="51.507855" lon="-9.6828433"><ele>25.0</ele><time>2026-05-05T13:53:03.204Z</time></trkpt><trkpt lat="51.50779" lon="-9.6830733"><ele>25.0</ele><time>2026-05-05T13:53:04.204Z</time></trkpt><trkpt lat="51.5077417" lon="-9.68328"><ele>25.0</ele><time>2026-05-05T13:53:05.203Z</time></trkpt><trkpt lat="51.5077033" lon="-9.683475"><ele>25.0</ele><time>2026-05-05T13:53:06.203Z</time></trkpt><trkpt lat="51.5076767" lon="-9.683665"><ele>25.0</ele><time>2026-05-05T13:53:07.203Z</time></trkpt><trkpt lat="51.5076667" lon="-9.6838583"><ele>25.5</ele><time>2026-05-05T13:53:08.204Z</time></trkpt><trkpt lat="51.5076617" lon="-9.68408"><ele>26.0</ele><time>2026-05-05T13:53:09.203Z</time></trkpt><trkpt lat="51.5076717" lon="-9.68432"><ele>26.5</ele><time>2026-05-05T13:53:10.203Z</time></trkpt><trkpt lat="51.50771" lon="-9.6845333"><ele>27.0</ele><time>2026-05-05T13:53:11.204Z</time></trkpt><trkpt lat="51.5077683" lon="-9.6847283"><ele>27.25</ele><time>2026-05-05T13:53:12.204Z</time></trkpt><trkpt lat="51.5078367" lon="-9.684895"><ele>27.5</ele><time>2026-05-05T13:53:13.204Z</time></trkpt><trkpt lat="51.5079233" lon="-9.6850467"><ele>27.75</ele><time>2026-05-05T13:53:14.204Z</time></trkpt><trkpt lat="51.5080217" lon="-9.6851967"><ele>28.0</ele><time>2026-05-05T13:53:15.203Z</time></trkpt><trkpt lat="51.5081467" lon="-9.68537"><ele>31.333333333333336</ele><time>2026-05-05T13:53:16.204Z</time></trkpt><trkpt lat="51.5082633" lon="-9.6855567"><ele>34.666666666666664</ele><time>2026-05-05T13:53:17.204Z</time></trkpt><trkpt lat="51.5083783" lon="-9.6857617"><ele>38.0</ele><time>2026-05-05T13:53:18.203Z</time></trkpt><trkpt lat="51.50848" lon="-9.6859733"><ele>38.33333333333333</ele><time>2026-05-05T13:53:19.204Z</time></trkpt><trkpt lat="51.50855" lon="-9.686215"><ele>38.666666666666664</ele><time>2026-05-05T13:53:20.204Z</time></trkpt><trkpt lat="51.508615" lon="-9.6864633"><ele>39.0</ele><time>2026-05-05T13:53:21.203Z</time></trkpt><trkpt lat="51.5086767" lon="-9.6867033"><ele>39.333333333333336</ele><time>2026-05-05T13:53:22.203Z</time></trkpt><trkpt lat="51.508725" lon="-9.6869567"><ele>39.66666666666667</ele><time>2026-05-05T13:53:23.203Z</time></trkpt><trkpt lat="51.5087983" lon="-9.6872083"><ele>40.0</ele><time>2026-05-05T13:53:24.204Z</time></trkpt><trkpt lat="51.50887" lon="-9.6874583"><ele>40.0</ele><time>2026-05-05T13:53:25.204Z</time></trkpt><trkpt lat="51.5089267" lon="-9.6877183"><ele>40.0</ele><time>2026-05-05T13:53:26.203Z</time></trkpt><trkpt lat="51.508985" lon="-9.6879717"><ele>40.0</ele><time>2026-05-05T13:53:27.203Z</time></trkpt><trkpt lat="51.5090317" lon="-9.6882067"><ele>40.0</ele><time>2026-05-05T13:53:28.203Z</time></trkpt><trkpt lat="51.50903" lon="-9.6884467"><ele>40.0</ele><time>2026-05-05T13:53:29.204Z</time></trkpt><trkpt lat="51.5090183" lon="-9.688695"><ele>40.0</ele><time>2026-05-05T13:53:30.204Z</time></trkpt><trkpt lat="51.50899" lon="-9.688955"><ele>40.0</ele><time>2026-05-05T13:53:31.204Z</time></trkpt><trkpt lat="51.5089733" lon="-9.6892167"><ele>40.0</ele><time>2026-05-05T13:53:32.203Z</time></trkpt><trkpt lat="51.5089467" lon="-9.6895017"><ele>40.0</ele><time>2026-05-05T13:53:33.203Z</time></trkpt><trkpt lat="51.5089183" lon="-9.6898067"><ele>40.333333333333336</ele><time>2026-05-05T13:53:34.204Z</time></trkpt><trkpt lat="51.50888" lon="-9.6900983"><ele>40.666666666666664</ele><time>2026-05-05T13:53:35.203Z</time></trkpt><trkpt lat="51.5088483" lon="-9.6903867"><ele>41.0</ele><time>2026-05-05T13:53:36.203Z</time></trkpt><trkpt lat="51.50882" lon="-9.690675"><ele>41.666666666666664</ele><time>2026-05-05T13:53:37.203Z</time></trkpt><trkpt lat="51.5087867" lon="-9.690975"><ele>42.333333333333336</ele><time>2026-05-05T13:53:38.204Z</time></trkpt><trkpt lat="51.5087633" lon="-9.6912667"><ele>43.0</ele><time>2026-05-05T13:53:39.204Z</time></trkpt><trkpt lat="51.508735" lon="-9.691555"><ele>43.0</ele><time>2026-05-05T13:53:40.204Z</time></trkpt><trkpt lat="51.5086933" lon="-9.6918483"><ele>43.0</ele><time>2026-05-05T13:53:41.204Z</time></trkpt><trkpt lat="51.50866" lon="-9.6921067"><ele>43.0</ele><time>2026-05-05T13:53:42.203Z</time></trkpt><trkpt lat="51.508605" lon="-9.6923733"><ele>43.0</ele><time>2026-05-05T13:53:43.203Z</time></trkpt><trkpt lat="51.5085433" lon="-9.692655"><ele>43.0</ele><time>2026-05-05T13:53:44.204Z</time></trkpt><trkpt lat="51.5084717" lon="-9.6929533"><ele>43.0</ele><time>2026-05-05T13:53:45.204Z</time></trkpt><trkpt lat="51.5084033" lon="-9.693255"><ele>43.0</ele><time>2026-05-05T13:53:46.203Z</time></trkpt><trkpt lat="51.5083233" lon="-9.6935683"><ele>43.0</ele><time>2026-05-05T13:53:47.204Z</time></trkpt><trkpt lat="51.5082467" lon="-9.693885"><ele>43.0</ele><time>2026-05-05T13:53:48.204Z</time></trkpt><trkpt lat="51.5081683" lon="-9.69421"><ele>43.333333333333336</ele><time>2026-05-05T13:53:49.204Z</time></trkpt><trkpt lat="51.5080983" lon="-9.6945233"><ele>43.666666666666664</ele><time>2026-05-05T13:53:50.203Z</time></trkpt><trkpt lat="51.5080333" lon="-9.6948333"><ele>44.0</ele><time>2026-05-05T13:53:51.203Z</time></trkpt><trkpt lat="51.50796" lon="-9.6951317"><ele>44.33333333333333</ele><time>2026-05-05T13:53:52.204Z</time></trkpt><trkpt lat="51.5078883" lon="-9.695415"><ele>44.666666666666664</ele><time>2026-05-05T13:53:53.204Z</time></trkpt><trkpt lat="51.50782" lon="-9.6957017"><ele>45.0</ele><time>2026-05-05T13:53:54.204Z</time></trkpt><trkpt lat="51.5077367" lon="-9.696"><ele>44.666666666666664</ele><time>2026-05-05T13:53:55.204Z</time></trkpt><trkpt lat="51.5076683" lon="-9.6963033"><ele>44.33333333333333</ele><time>2026-05-05T13:53:56.204Z</time></trkpt><trkpt lat="51.5075967" lon="-9.6966167"><ele>44.0</ele><time>2026-05-05T13:53:57.204Z</time></trkpt><trkpt lat="51.507535" lon="-9.6969383"><ele>44.0</ele><time>2026-05-05T13:53:58.204Z</time></trkpt><trkpt lat="51.507485" lon="-9.6972467"><ele>44.0</ele><time>2026-05-05T13:53:59.204Z</time></trkpt><trkpt lat="51.5074267" lon="-9.697535"><ele>44.0</ele><time>2026-05-05T13:54:00.204Z</time></trkpt><trkpt lat="51.5073917" lon="-9.6977917"><ele>44.33333333333333</ele><time>2026-05-05T13:54:01.204Z</time></trkpt><trkpt lat="51.5073267" lon="-9.69805"><ele>44.666666666666664</ele><time>2026-05-05T13:54:02.204Z</time></trkpt><trkpt lat="51.5072617" lon="-9.6983017"><ele>45.0</ele><time>2026-05-05T13:54:03.204Z</time></trkpt><trkpt lat="51.5071833" lon="-9.6985433"><ele>44.666666666666664</ele><time>2026-05-05T13:54:04.204Z</time></trkpt><trkpt lat="51.5070783" lon="-9.6987667"><ele>44.33333333333333</ele><time>2026-05-05T13:54:05.204Z</time></trkpt><trkpt lat="51.5069733" lon="-9.6989583"><ele>44.0</ele><time>2026-05-05T13:54:06.203Z</time></trkpt><trkpt lat="51.506865" lon="-9.6991167"><ele>45.25</ele><time>2026-05-05T13:54:07.203Z</time></trkpt><trkpt lat="51.5067667" lon="-9.6992833"><ele>46.5</ele><time>2026-05-05T13:54:08.203Z</time></trkpt><trkpt lat="51.5066733" lon="-9.699475"><ele>47.75</ele><time>2026-05-05T13:54:09.203Z</time></trkpt><trkpt lat="51.506595" lon="-9.69969"><ele>49.0</ele><time>2026-05-05T13:54:10.204Z</time></trkpt><trkpt lat="51.506515" lon="-9.6999417"><ele>49.0</ele><time>2026-05-05T13:54:11.204Z</time></trkpt><trkpt lat="51.5064583" lon="-9.7001867"><ele>49.0</ele><time>2026-05-05T13:54:12.204Z</time></trkpt><trkpt lat="51.5063933" lon="-9.7004117"><ele>49.0</ele><time>2026-05-05T13:54:13.204Z</time></trkpt><trkpt lat="51.5063417" lon="-9.7006167"><ele>48.75</ele><time>2026-05-05T13:54:14.204Z</time></trkpt><trkpt lat="51.5062933" lon="-9.7008167"><ele>48.5</ele><time>2026-05-05T13:54:15.204Z</time></trkpt><trkpt lat="51.5062417" lon="-9.7009983"><ele>48.25</ele><time>2026-05-05T13:54:16.204Z</time></trkpt><trkpt lat="51.5061833" lon="-9.70118"><ele>48.0</ele><time>2026-05-05T13:54:17.203Z</time></trkpt><trkpt lat="51.506125" lon="-9.7013417"><ele>47.75</ele><time>2026-05-05T13:54:18.204Z</time></trkpt><trkpt lat="51.5060567" lon="-9.7014917"><ele>47.5</ele><time>2026-05-05T13:54:19.204Z</time></trkpt><trkpt lat="51.505975" lon="-9.7016167"><ele>47.25</ele><time>2026-05-05T13:54:20.204Z</time></trkpt><trkpt lat="51.5058667" lon="-9.7016967"><ele>47.0</ele><time>2026-05-05T13:54:21.203Z</time></trkpt><trkpt lat="51.5057467" lon="-9.70176"><ele>47.0</ele><time>2026-05-05T13:54:22.204Z</time></trkpt><trkpt lat="51.505625" lon="-9.7017967"><ele>47.0</ele><time>2026-05-05T13:54:23.204Z</time></trkpt><trkpt lat="51.5054883" lon="-9.7018183"><ele>47.0</ele><time>2026-05-05T13:54:24.203Z</time></trkpt><trkpt lat="51.5053267" lon="-9.7017633"><ele>47.0</ele><time>2026-05-05T13:54:25.204Z</time></trkpt><trkpt lat="51.5051767" lon="-9.7016633"><ele>46.0</ele><time>2026-05-05T13:54:26.203Z</time></trkpt><trkpt lat="51.505025" lon="-9.701565"><ele>45.0</ele><time>2026-05-05T13:54:27.204Z</time></trkpt><trkpt lat="51.5048867" lon="-9.7014617"><ele>44.0</ele><time>2026-05-05T13:54:28.203Z</time></trkpt><trkpt lat="51.5047517" lon="-9.7013983"><ele>44.0</ele><time>2026-05-05T13:54:29.204Z</time></trkpt><trkpt lat="51.50461" lon="-9.7013333"><ele>44.0</ele><time>2026-05-05T13:54:30.204Z</time></trkpt><trkpt lat="51.504465" lon="-9.7013417"><ele>44.0</ele><time>2026-05-05T13:54:31.204Z</time></trkpt><trkpt lat="51.5043233" lon="-9.701375"><ele>44.0</ele><time>2026-05-05T13:54:32.204Z</time></trkpt><trkpt lat="51.504165" lon="-9.701425"><ele>42.666666666666664</ele><time>2026-05-05T13:54:33.203Z</time></trkpt><trkpt lat="51.50402" lon="-9.7015017"><ele>41.333333333333336</ele><time>2026-05-05T13:54:34.203Z</time></trkpt><trkpt lat="51.5038583" lon="-9.7015833"><ele>40.0</ele><time>2026-05-05T13:54:35.204Z</time></trkpt><trkpt lat="51.5036783" lon="-9.70168"><ele>38.66666666666667</ele><time>2026-05-05T13:54:36.204Z</time></trkpt><trkpt lat="51.5035183" lon="-9.7017833"><ele>37.333333333333336</ele><time>2026-05-05T13:54:37.204Z</time></trkpt><trkpt lat="51.5033683" lon="-9.701895"><ele>36.0</ele><time>2026-05-05T13:54:38.204Z</time></trkpt><trkpt lat="51.5032" lon="-9.7020183"><ele>36.0</ele><time>2026-05-05T13:54:39.204Z</time></trkpt><trkpt lat="51.5030567" lon="-9.702145"><ele>36.0</ele><time>2026-05-05T13:54:40.204Z</time></trkpt><trkpt lat="51.502905" lon="-9.7022783"><ele>36.0</ele><time>2026-05-05T13:54:41.204Z</time></trkpt><trkpt lat="51.5027633" lon="-9.7024117"><ele>35.0</ele><time>2026-05-05T13:54:42.203Z</time></trkpt><trkpt lat="51.5026083" lon="-9.70254"><ele>34.0</ele><time>2026-05-05T13:54:43.204Z</time></trkpt><trkpt lat="51.5024483" lon="-9.70266"><ele>33.0</ele><time>2026-05-05T13:54:44.203Z</time></trkpt><trkpt lat="51.502285" lon="-9.7027717"><ele>32.25</ele><time>2026-05-05T13:54:45.203Z</time></trkpt><trkpt lat="51.5021483" lon="-9.702895"><ele>31.5</ele><time>2026-05-05T13:54:46.204Z</time></trkpt><trkpt lat="51.50204" lon="-9.7030317"><ele>30.75</ele><time>2026-05-05T13:54:47.204Z</time></trkpt><trkpt lat="51.5019633" lon="-9.7031933"><ele>30.0</ele><time>2026-05-05T13:54:48.204Z</time></trkpt><trkpt lat="51.5019083" lon="-9.7033983"><ele>28.666666666666664</ele><time>2026-05-05T13:54:49.204Z</time></trkpt><trkpt lat="51.5018667" lon="-9.7036367"><ele>27.333333333333332</ele><time>2026-05-05T13:54:50.203Z</time></trkpt><trkpt lat="51.50182" lon="-9.7038983"><ele>26.0</ele><time>2026-05-05T13:54:51.203Z</time></trkpt><trkpt lat="51.501765" lon="-9.70417"><ele>25.0</ele><time>2026-05-05T13:54:52.204Z</time></trkpt><trkpt lat="51.5017167" lon="-9.704445"><ele>24.0</ele><time>2026-05-05T13:54:53.203Z</time></trkpt><trkpt lat="51.5016633" lon="-9.70472"><ele>23.0</ele><time>2026-05-05T13:54:54.203Z</time></trkpt><trkpt lat="51.501605" lon="-9.7049967"><ele>22.333333333333336</ele><time>2026-05-05T13:54:55.203Z</time></trkpt><trkpt lat="51.5015483" lon="-9.7052767"><ele>21.666666666666668</ele><time>2026-05-05T13:54:56.203Z</time></trkpt><trkpt lat="51.5014767" lon="-9.7055367"><ele>21.0</ele><time>2026-05-05T13:54:57.203Z</time></trkpt><trkpt lat="51.5014017" lon="-9.7057967"><ele>21.0</ele><time>2026-05-05T13:54:58.204Z</time></trkpt><trkpt lat="51.5013383" lon="-9.7060333"><ele>21.0</ele><time>2026-05-05T13:54:59.204Z</time></trkpt><trkpt lat="51.5012717" lon="-9.7062567"><ele>21.0</ele><time>2026-05-05T13:55:00.204Z</time></trkpt><trkpt lat="51.5012133" lon="-9.7064833"><ele>20.333333333333332</ele><time>2026-05-05T13:55:01.204Z</time></trkpt><trkpt lat="51.5011533" lon="-9.7067083"><ele>19.666666666666664</ele><time>2026-05-05T13:55:02.203Z</time></trkpt><trkpt lat="51.5010817" lon="-9.7069417"><ele>19.0</ele><time>2026-05-05T13:55:03.204Z</time></trkpt><trkpt lat="51.50102" lon="-9.7071633"><ele>18.75</ele><time>2026-05-05T13:55:04.204Z</time></trkpt><trkpt lat="51.50096" lon="-9.7073883"><ele>18.5</ele><time>2026-05-05T13:55:05.204Z</time></trkpt><trkpt lat="51.5008967" lon="-9.707605"><ele>18.25</ele><time>2026-05-05T13:55:06.204Z</time></trkpt><trkpt lat="51.50082" lon="-9.7078067"><ele>18.0</ele><time>2026-05-05T13:55:07.204Z</time></trkpt><trkpt lat="51.5007333" lon="-9.7080117"><ele>17.666666666666668</ele><time>2026-05-05T13:55:08.204Z</time></trkpt><trkpt lat="51.500625" lon="-9.708215"><ele>17.333333333333336</ele><time>2026-05-05T13:55:09.204Z</time></trkpt><trkpt lat="51.5005217" lon="-9.7084233"><ele>17.0</ele><time>2026-05-05T13:55:10.204Z</time></trkpt><trkpt lat="51.5004117" lon="-9.7086283"><ele>17.666666666666668</ele><time>2026-05-05T13:55:11.204Z</time></trkpt><trkpt lat="51.50031" lon="-9.70887"><ele>18.333333333333332</ele><time>2026-05-05T13:55:12.204Z</time></trkpt><trkpt lat="51.5002233" lon="-9.7091317"><ele>19.0</ele><time>2026-05-05T13:55:13.203Z</time></trkpt><trkpt lat="51.5001467" lon="-9.7093983"><ele>18.333333333333332</ele><time>2026-05-05T13:55:14.204Z</time></trkpt><trkpt lat="51.500075" lon="-9.70968"><ele>17.666666666666668</ele><time>2026-05-05T13:55:15.203Z</time></trkpt><trkpt lat="51.4999967" lon="-9.7099367"><ele>17.0</ele><time>2026-05-05T13:55:16.203Z</time></trkpt><trkpt lat="51.4999483" lon="-9.7101933"><ele>16.0</ele><time>2026-05-05T13:55:17.204Z</time></trkpt><trkpt lat="51.4998933" lon="-9.7104317"><ele>15.0</ele><time>2026-05-05T13:55:18.203Z</time></trkpt><trkpt lat="51.4998217" lon="-9.71065"><ele>14.0</ele><time>2026-05-05T13:55:19.203Z</time></trkpt><trkpt lat="51.4997517" lon="-9.7108333"><ele>13.0</ele><time>2026-05-05T13:55:20.204Z</time></trkpt><trkpt lat="51.4996583" lon="-9.7109917"><ele>12.5</ele><time>2026-05-05T13:55:21.204Z</time></trkpt><trkpt lat="51.4995583" lon="-9.7111183"><ele>12.0</ele><time>2026-05-05T13:55:22.203Z</time></trkpt><trkpt lat="51.4994433" lon="-9.7112117"><ele>11.5</ele><time>2026-05-05T13:55:23.204Z</time></trkpt><trkpt lat="51.49931" lon="-9.7112917"><ele>11.0</ele><time>2026-05-05T13:55:24.204Z</time></trkpt><trkpt lat="51.499165" lon="-9.7113633"><ele>11.0</ele><time>2026-05-05T13:55:25.204Z</time></trkpt><trkpt lat="51.4990117" lon="-9.71145"><ele>11.0</ele><time>2026-05-05T13:55:26.204Z</time></trkpt><trkpt lat="51.498855" lon="-9.71154"><ele>11.0</ele><time>2026-05-05T13:55:27.204Z</time></trkpt><trkpt lat="51.498705" lon="-9.7116433"><ele>11.25</ele><time>2026-05-05T13:55:28.204Z</time></trkpt><trkpt lat="51.4985683" lon="-9.7117333"><ele>11.5</ele><time>2026-05-05T13:55:29.203Z</time></trkpt><trkpt lat="51.49844" lon="-9.711815"><ele>11.75</ele><time>2026-05-05T13:55:30.204Z</time></trkpt><trkpt lat="51.4983133" lon="-9.711885"><ele>12.0</ele><time>2026-05-05T13:55:31.204Z</time></trkpt><trkpt lat="51.498165" lon="-9.711915"><ele>12.0</ele><time>2026-05-05T13:55:32.204Z</time></trkpt><trkpt lat="51.4980083" lon="-9.7119"><ele>12.0</ele><time>2026-05-05T13:55:33.204Z</time></trkpt><trkpt lat="51.4978517" lon="-9.71186"><ele>12.0</ele><time>2026-05-05T13:55:34.204Z</time></trkpt><trkpt lat="51.497685" lon="-9.7118183"><ele>12.0</ele><time>2026-05-05T13:55:35.204Z</time></trkpt><trkpt lat="51.4975233" lon="-9.711765"><ele>12.0</ele><time>2026-05-05T13:55:36.204Z</time></trkpt><trkpt lat="51.49737" lon="-9.7117417"><ele>12.0</ele><time>2026-05-05T13:55:37.203Z</time></trkpt><trkpt lat="51.497225" lon="-9.7117433"><ele>11.25</ele><time>2026-05-05T13:55:38.203Z</time></trkpt><trkpt lat="51.4970817" lon="-9.711755"><ele>10.5</ele><time>2026-05-05T13:55:39.204Z</time></trkpt><trkpt lat="51.49694" lon="-9.7117767"><ele>9.75</ele><time>2026-05-05T13:55:40.204Z</time></trkpt><trkpt lat="51.4968033" lon="-9.7118033"><ele>9.0</ele><time>2026-05-05T13:55:41.204Z</time></trkpt><trkpt lat="51.49668" lon="-9.7118217"><ele>9.0</ele><time>2026-05-05T13:55:42.203Z</time></trkpt><trkpt lat="51.49655" lon="-9.711835"><ele>9.0</ele><time>2026-05-05T13:55:43.203Z</time></trkpt><trkpt lat="51.4964133" lon="-9.71183"><ele>9.0</ele><time>2026-05-05T13:55:44.203Z</time></trkpt><trkpt lat="51.4963067" lon="-9.7118167"><ele>9.0</ele><time>2026-05-05T13:55:45.203Z</time></trkpt><trkpt lat="51.4962133" lon="-9.711805"><ele>9.166666666666666</ele><time>2026-05-05T13:55:46.203Z</time></trkpt><trkpt lat="51.4961217" lon="-9.71181"><ele>9.333333333333334</ele><time>2026-05-05T13:55:47.204Z</time></trkpt><trkpt lat="51.496045" lon="-9.7118217"><ele>9.5</ele><time>2026-05-05T13:55:48.204Z</time></trkpt><trkpt lat="51.4959683" lon="-9.7118317"><ele>9.666666666666668</ele><time>2026-05-05T13:55:49.204Z</time></trkpt><trkpt lat="51.4958983" lon="-9.7118417"><ele>9.833333333333334</ele><time>2026-05-05T13:55:50.203Z</time></trkpt><trkpt lat="51.4958267" lon="-9.7118583"><ele>10.0</ele><time>2026-05-05T13:55:51.204Z</time></trkpt><trkpt lat="51.4957533" lon="-9.7118583"><ele>10.0</ele><time>2026-05-05T13:55:52.203Z</time></trkpt><trkpt lat="51.495675" lon="-9.711855"><ele>10.0</ele><time>2026-05-05T13:55:53.204Z</time></trkpt><trkpt lat="51.4955467" lon="-9.7118267"><ele>10.0</ele><time>2026-05-05T13:55:55.204Z</time></trkpt><trkpt lat="51.495485" lon="-9.7117933"><ele>10.0</ele><time>2026-05-05T13:55:56.204Z</time></trkpt><trkpt lat="51.495425" lon="-9.7117483"><ele>10.0</ele><time>2026-05-05T13:55:57.204Z</time></trkpt><trkpt lat="51.4953567" lon="-9.7117017"><ele>10.0</ele><time>2026-05-05T13:55:58.204Z</time></trkpt><trkpt lat="51.4952867" lon="-9.7116283"><ele>10.6</ele><time>2026-05-05T13:55:59.203Z</time></trkpt><trkpt lat="51.4952217" lon="-9.711525"><ele>11.2</ele><time>2026-05-05T13:56:00.203Z</time></trkpt><trkpt lat="51.4951583" lon="-9.7114167"><ele>11.8</ele><time>2026-05-05T13:56:01.204Z</time></trkpt><trkpt lat="51.4950917" lon="-9.7113183"><ele>12.4</ele><time>2026-05-05T13:56:02.204Z</time></trkpt><trkpt lat="51.4950283" lon="-9.7112183"><ele>13.0</ele><time>2026-05-05T13:56:03.204Z</time></trkpt><trkpt lat="51.494955" lon="-9.711105"><ele>12.600000000000001</ele><time>2026-05-05T13:56:04.203Z</time></trkpt><trkpt lat="51.494885" lon="-9.7109817"><ele>12.200000000000001</ele><time>2026-05-05T13:56:05.204Z</time></trkpt><trkpt lat="51.4948117" lon="-9.7108617"><ele>11.8</ele><time>2026-05-05T13:56:06.203Z</time></trkpt><trkpt lat="51.4947417" lon="-9.71075"><ele>11.4</ele><time>2026-05-05T13:56:07.204Z</time></trkpt><trkpt lat="51.4946633" lon="-9.71065"><ele>11.0</ele><time>2026-05-05T13:56:08.204Z</time></trkpt><trkpt lat="51.4945867" lon="-9.7105267"><ele>12.25</ele><time>2026-05-05T13:56:09.204Z</time></trkpt><trkpt lat="51.4945067" lon="-9.7103917"><ele>13.5</ele><time>2026-05-05T13:56:10.204Z</time></trkpt><trkpt lat="51.4944267" lon="-9.7102533"><ele>14.75</ele><time>2026-05-05T13:56:11.203Z</time></trkpt><trkpt lat="51.49435" lon="-9.7101183"><ele>16.0</ele><time>2026-05-05T13:56:12.204Z</time></trkpt><trkpt lat="51.494275" lon="-9.70999"><ele>16.0</ele><time>2026-05-05T13:56:13.204Z</time></trkpt><trkpt lat="51.4942017" lon="-9.7098633"><ele>16.0</ele><time>2026-05-05T13:56:14.204Z</time></trkpt><trkpt lat="51.4941283" lon="-9.709745"><ele>16.0</ele><time>2026-05-05T13:56:15.204Z</time></trkpt><trkpt lat="51.4940433" lon="-9.7096567"><ele>16.0</ele><time>2026-05-05T13:56:16.203Z</time></trkpt><trkpt lat="51.4939583" lon="-9.7095733"><ele>16.0</ele><time>2026-05-05T13:56:17.204Z</time></trkpt><trkpt lat="51.493865" lon="-9.7095017"><ele>16.0</ele><time>2026-05-05T13:56:18.203Z</time></trkpt><trkpt lat="51.49376" lon="-9.70946"><ele>16.0</ele><time>2026-05-05T13:56:19.203Z</time></trkpt><trkpt lat="51.4936367" lon="-9.7094467"><ele>16.0</ele><time>2026-05-05T13:56:20.204Z</time></trkpt><trkpt lat="51.4934867" lon="-9.70945"><ele>16.0</ele><time>2026-05-05T13:56:21.204Z</time></trkpt><trkpt lat="51.4933117" lon="-9.7094717"><ele>17.666666666666664</ele><time>2026-05-05T13:56:22.204Z</time></trkpt><trkpt lat="51.4931467" lon="-9.70948"><ele>19.333333333333332</ele><time>2026-05-05T13:56:23.204Z</time></trkpt><trkpt lat="51.4929933" lon="-9.7094817"><ele>21.0</ele><time>2026-05-05T13:56:24.203Z</time></trkpt><trkpt lat="51.4928617" lon="-9.7094683"><ele>21.333333333333332</ele><time>2026-05-05T13:56:25.203Z</time></trkpt><trkpt lat="51.4927533" lon="-9.7094517"><ele>21.666666666666668</ele><time>2026-05-05T13:56:26.203Z</time></trkpt><trkpt lat="51.492665" lon="-9.7094467"><ele>22.0</ele><time>2026-05-05T13:56:27.204Z</time></trkpt><trkpt lat="51.4925967" lon="-9.70945"><ele>22.333333333333336</ele><time>2026-05-05T13:56:28.204Z</time></trkpt><trkpt lat="51.49252" lon="-9.7094317"><ele>22.666666666666668</ele><time>2026-05-05T13:56:30.204Z</time></trkpt><trkpt lat="51.4924233" lon="-9.7093733"><ele>23.0</ele><time>2026-05-05T13:56:32.204Z</time></trkpt><trkpt lat="51.4923233" lon="-9.7092483"><ele>23.0</ele><time>2026-05-05T13:56:34.204Z</time></trkpt><trkpt lat="51.49228" lon="-9.7091617"><ele>23.0</ele><time>2026-05-05T13:56:35.203Z</time></trkpt><trkpt lat="51.4922167" lon="-9.7089917"><ele>23.0</ele><time>2026-05-05T13:56:37.204Z</time></trkpt><trkpt lat="51.4921733" lon="-9.708825"><ele>23.0</ele><time>2026-05-05T13:56:39.203Z</time></trkpt><trkpt lat="51.49212" lon="-9.70867"><ele>23.0</ele><time>2026-05-05T13:56:41.204Z</time></trkpt><trkpt lat="51.492045" lon="-9.7084967"><ele>23.2</ele><time>2026-05-05T13:56:43.204Z</time></trkpt><trkpt lat="51.4920117" lon="-9.7083917"><ele>23.4</ele><time>2026-05-05T13:56:44.204Z</time></trkpt><trkpt lat="51.4919633" lon="-9.708265"><ele>23.599999999999998</ele><time>2026-05-05T13:56:45.204Z</time></trkpt><trkpt lat="51.4919183" lon="-9.708115"><ele>23.799999999999997</ele><time>2026-05-05T13:56:46.204Z</time></trkpt><trkpt lat="51.491875" lon="-9.7078783"><ele>24.0</ele><time>2026-05-05T13:56:47.204Z</time></trkpt><trkpt lat="51.49185" lon="-9.70754"><ele>22.75</ele><time>2026-05-05T13:56:48.203Z</time></trkpt><trkpt lat="51.491815" lon="-9.7073033"><ele>21.5</ele><time>2026-05-05T13:56:49.204Z</time></trkpt><trkpt lat="51.491775" lon="-9.7070983"><ele>20.25</ele><time>2026-05-05T13:56:50.204Z</time></trkpt><trkpt lat="51.4917267" lon="-9.7068933"><ele>19.0</ele><time>2026-05-05T13:56:51.204Z</time></trkpt><trkpt lat="51.4916667" lon="-9.70666"><ele>18.0</ele><time>2026-05-05T13:56:52.204Z</time></trkpt><trkpt lat="51.4916033" lon="-9.706515"><ele>17.0</ele><time>2026-05-05T13:56:53.204Z</time></trkpt><trkpt lat="51.4915283" lon="-9.706375"><ele>16.0</ele><time>2026-05-05T13:56:54.203Z</time></trkpt><trkpt lat="51.4914417" lon="-9.70624"><ele>15.0</ele><time>2026-05-05T13:56:55.203Z</time></trkpt><trkpt lat="51.4913433" lon="-9.70614"><ele>15.75</ele><time>2026-05-05T13:56:56.204Z</time></trkpt><trkpt lat="51.49124" lon="-9.7060533"><ele>16.5</ele><time>2026-05-05T13:56:57.203Z</time></trkpt><trkpt lat="51.4911233" lon="-9.705965"><ele>17.25</ele><time>2026-05-05T13:56:58.204Z</time></trkpt><trkpt lat="51.4909967" lon="-9.70587"><ele>18.0</ele><time>2026-05-05T13:56:59.204Z</time></trkpt><trkpt lat="51.49087" lon="-9.7057933"><ele>18.0</ele><time>2026-05-05T13:57:00.204Z</time></trkpt><trkpt lat="51.4907267" lon="-9.7057517"><ele>18.0</ele><time>2026-05-05T13:57:01.203Z</time></trkpt><trkpt lat="51.49059" lon="-9.7057267"><ele>18.0</ele><time>2026-05-05T13:57:02.204Z</time></trkpt><trkpt lat="51.4904367" lon="-9.70572"><ele>18.0</ele><time>2026-05-05T13:57:03.204Z</time></trkpt><trkpt lat="51.4903033" lon="-9.7056783"><ele>18.75</ele><time>2026-05-05T13:57:04.203Z</time></trkpt><trkpt lat="51.4901817" lon="-9.7055983"><ele>19.5</ele><time>2026-05-05T13:57:05.204Z</time></trkpt><trkpt lat="51.4900817" lon="-9.7055083"><ele>20.25</ele><time>2026-05-05T13:57:06.204Z</time></trkpt><trkpt lat="51.490015" lon="-9.7053867"><ele>21.0</ele><time>2026-05-05T13:57:07.204Z</time></trkpt><trkpt lat="51.489925" lon="-9.70527"><ele>19.0</ele><time>2026-05-05T13:57:08.204Z</time></trkpt><trkpt lat="51.4898083" lon="-9.705215"><ele>17.0</ele><time>2026-05-05T13:57:09.204Z</time></trkpt><trkpt lat="51.4896833" lon="-9.7051833"><ele>15.0</ele><time>2026-05-05T13:57:10.204Z</time></trkpt><trkpt lat="51.48956" lon="-9.7051883"><ele>13.0</ele><time>2026-05-05T13:57:11.204Z</time></trkpt><trkpt lat="51.489415" lon="-9.705225"><ele>15.0</ele><time>2026-05-05T13:57:12.204Z</time></trkpt><trkpt lat="51.4892817" lon="-9.7052917"><ele>17.0</ele><time>2026-05-05T13:57:13.203Z</time></trkpt><trkpt lat="51.4891333" lon="-9.705365"><ele>19.0</ele><time>2026-05-05T13:57:14.203Z</time></trkpt><trkpt lat="51.4889767" lon="-9.705425"><ele>19.0</ele><time>2026-05-05T13:57:15.204Z</time></trkpt><trkpt lat="51.48884" lon="-9.705465"><ele>19.0</ele><time>2026-05-05T13:57:16.204Z</time></trkpt><trkpt lat="51.4887133" lon="-9.705485"><ele>19.0</ele><time>2026-05-05T13:57:17.204Z</time></trkpt><trkpt lat="51.4885733" lon="-9.705515"><ele>19.0</ele><time>2026-05-05T13:57:18.203Z</time></trkpt><trkpt lat="51.4884417" lon="-9.705585"><ele>18.0</ele><time>2026-05-05T13:57:19.204Z</time></trkpt><trkpt lat="51.4883083" lon="-9.7056717"><ele>17.0</ele><time>2026-05-05T13:57:20.204Z</time></trkpt><trkpt lat="51.4881833" lon="-9.7057583"><ele>16.0</ele><time>2026-05-05T13:57:21.204Z</time></trkpt><trkpt lat="51.4880733" lon="-9.70583"><ele>15.0</ele><time>2026-05-05T13:57:22.204Z</time></trkpt><trkpt lat="51.4879583" lon="-9.7058683"><ele>16.0</ele><time>2026-05-05T13:57:23.203Z</time></trkpt><trkpt lat="51.4878283" lon="-9.70586"><ele>17.0</ele><time>2026-05-05T13:57:24.204Z</time></trkpt><trkpt lat="51.4876967" lon="-9.7058267"><ele>18.0</ele><time>2026-05-05T13:57:25.203Z</time></trkpt><trkpt lat="51.4875617" lon="-9.70579"><ele>19.0</ele><time>2026-05-05T13:57:26.203Z</time></trkpt><trkpt lat="51.4874317" lon="-9.7057733"><ele>19.0</ele><time>2026-05-05T13:57:27.204Z</time></trkpt><trkpt lat="51.487305" lon="-9.70579"><ele>19.0</ele><time>2026-05-05T13:57:28.204Z</time></trkpt><trkpt lat="51.48719" lon="-9.7058417"><ele>19.0</ele><time>2026-05-05T13:57:29.203Z</time></trkpt><trkpt lat="51.4870717" lon="-9.705985"><ele>19.0</ele><time>2026-05-05T13:57:30.204Z</time></trkpt><trkpt lat="51.4869783" lon="-9.7061267"><ele>19.75</ele><time>2026-05-05T13:57:31.204Z</time></trkpt><trkpt lat="51.486885" lon="-9.7062817"><ele>20.5</ele><time>2026-05-05T13:57:32.203Z</time></trkpt><trkpt lat="51.4868267" lon="-9.706485"><ele>21.25</ele><time>2026-05-05T13:57:33.204Z</time></trkpt><trkpt lat="51.4867633" lon="-9.7066483"><ele>22.0</ele><time>2026-05-05T13:57:34.203Z</time></trkpt><trkpt lat="51.4866867" lon="-9.7067783"><ele>22.0</ele><time>2026-05-05T13:57:35.204Z</time></trkpt><trkpt lat="51.4866" lon="-9.7068833"><ele>22.0</ele><time>2026-05-05T13:57:36.204Z</time></trkpt><trkpt lat="51.486495" lon="-9.7069567"><ele>22.0</ele><time>2026-05-05T13:57:37.203Z</time></trkpt><trkpt lat="51.4863683" lon="-9.7070083"><ele>22.0</ele><time>2026-05-05T13:57:38.204Z</time></trkpt><trkpt lat="51.4862483" lon="-9.7070517"><ele>21.25</ele><time>2026-05-05T13:57:39.204Z</time></trkpt><trkpt lat="51.48614" lon="-9.7071017"><ele>20.5</ele><time>2026-05-05T13:57:40.203Z</time></trkpt><trkpt lat="51.4860333" lon="-9.7071717"><ele>19.75</ele><time>2026-05-05T13:57:41.203Z</time></trkpt><trkpt lat="51.4859233" lon="-9.7072717"><ele>19.0</ele><time>2026-05-05T13:57:42.204Z</time></trkpt><trkpt lat="51.4858067" lon="-9.7074"><ele>19.0</ele><time>2026-05-05T13:57:43.204Z</time></trkpt><trkpt lat="51.4857033" lon="-9.7075617"><ele>19.0</ele><time>2026-05-05T13:57:44.204Z</time></trkpt><trkpt lat="51.485625" lon="-9.7077767"><ele>19.0</ele><time>2026-05-05T13:57:45.204Z</time></trkpt><trkpt lat="51.4855467" lon="-9.7079717"><ele>19.0</ele><time>2026-05-05T13:57:46.204Z</time></trkpt><trkpt lat="51.4854667" lon="-9.7081433"><ele>18.0</ele><time>2026-05-05T13:57:47.204Z</time></trkpt><trkpt lat="51.48539" lon="-9.70828"><ele>17.0</ele><time>2026-05-05T13:57:48.203Z</time></trkpt><trkpt lat="51.48531" lon="-9.708395"><ele>15.999999999999998</ele><time>2026-05-05T13:57:49.203Z</time></trkpt><trkpt lat="51.4852183" lon="-9.7084733"><ele>15.0</ele><time>2026-05-05T13:57:50.204Z</time></trkpt><trkpt lat="51.4851133" lon="-9.70851"><ele>14.0</ele><time>2026-05-05T13:57:51.203Z</time></trkpt><trkpt lat="51.484975" lon="-9.708515"><ele>14.0</ele><time>2026-05-05T13:57:52.204Z</time></trkpt><trkpt lat="51.484835" lon="-9.7085117"><ele>14.0</ele><time>2026-05-05T13:57:53.204Z</time></trkpt><trkpt lat="51.4846867" lon="-9.708495"><ele>14.0</ele><time>2026-05-05T13:57:54.204Z</time></trkpt><trkpt lat="51.4845317" lon="-9.708485"><ele>14.0</ele><time>2026-05-05T13:57:55.203Z</time></trkpt><trkpt lat="51.4843433" lon="-9.7084783"><ele>13.666666666666668</ele><time>2026-05-05T13:57:56.204Z</time></trkpt><trkpt lat="51.48417" lon="-9.7084633"><ele>13.333333333333332</ele><time>2026-05-05T13:57:57.204Z</time></trkpt><trkpt lat="51.4840017" lon="-9.708445"><ele>13.0</ele><time>2026-05-05T13:57:58.203Z</time></trkpt><trkpt lat="51.4838383" lon="-9.7084317"><ele>14.0</ele><time>2026-05-05T13:57:59.204Z</time></trkpt><trkpt lat="51.4836617" lon="-9.70842"><ele>15.0</ele><time>2026-05-05T13:58:00.203Z</time></trkpt><trkpt lat="51.4834883" lon="-9.7084133"><ele>16.0</ele><time>2026-05-05T13:58:01.203Z</time></trkpt><trkpt lat="51.48334" lon="-9.7084133"><ele>16.0</ele><time>2026-05-05T13:58:02.203Z</time></trkpt><trkpt lat="51.4831917" lon="-9.7084133"><ele>16.0</ele><time>2026-05-05T13:58:03.204Z</time></trkpt><trkpt lat="51.483045" lon="-9.7083833"><ele>16.0</ele><time>2026-05-05T13:58:04.204Z</time></trkpt><trkpt lat="51.4828967" lon="-9.7082883"><ele>16.25</ele><time>2026-05-05T13:58:05.203Z</time></trkpt><trkpt lat="51.4827717" lon="-9.70823"><ele>16.5</ele><time>2026-05-05T13:58:06.204Z</time></trkpt><trkpt lat="51.4826533" lon="-9.7082033"><ele>16.75</ele><time>2026-05-05T13:58:07.204Z</time></trkpt><trkpt lat="51.4825367" lon="-9.708185"><ele>17.0</ele><time>2026-05-05T13:58:08.204Z</time></trkpt><trkpt lat="51.48242" lon="-9.70819"><ele>17.0</ele><time>2026-05-05T13:58:09.204Z</time></trkpt><trkpt lat="51.482285" lon="-9.7081917"><ele>17.0</ele><time>2026-05-05T13:58:10.203Z</time></trkpt><trkpt lat="51.4821433" lon="-9.708225"><ele>17.0</ele><time>2026-05-05T13:58:11.204Z</time></trkpt><trkpt lat="51.4819983" lon="-9.7082633"><ele>17.0</ele><time>2026-05-05T13:58:12.203Z</time></trkpt><trkpt lat="51.48184" lon="-9.7082817"><ele>15.5</ele><time>2026-05-05T13:58:13.203Z</time></trkpt><trkpt lat="51.4816933" lon="-9.7083017"><ele>14.0</ele><time>2026-05-05T13:58:14.204Z</time></trkpt><trkpt lat="51.4815417" lon="-9.708335"><ele>12.5</ele><time>2026-05-05T13:58:15.203Z</time></trkpt><trkpt lat="51.4814083" lon="-9.7083767"><ele>11.0</ele><time>2026-05-05T13:58:16.204Z</time></trkpt><trkpt lat="51.4812783" lon="-9.7084317"><ele>10.0</ele><time>2026-05-05T13:58:17.204Z</time></trkpt><trkpt lat="51.4811617" lon="-9.7085333"><ele>9.0</ele><time>2026-05-05T13:58:18.203Z</time></trkpt><trkpt lat="51.481035" lon="-9.708665"><ele>8.0</ele><time>2026-05-05T13:58:19.203Z</time></trkpt><trkpt lat="51.4809183" lon="-9.7088183"><ele>7.0</ele><time>2026-05-05T13:58:20.204Z</time></trkpt><trkpt lat="51.4808067" lon="-9.7089783"><ele>7.0</ele><time>2026-05-05T13:58:21.204Z</time></trkpt><trkpt lat="51.4807017" lon="-9.709135"><ele>7.0</ele><time>2026-05-05T13:58:22.204Z</time></trkpt><trkpt lat="51.4805767" lon="-9.7092667"><ele>7.0</ele><time>2026-05-05T13:58:23.204Z</time></trkpt><trkpt lat="51.48047" lon="-9.7093483"><ele>7.0</ele><time>2026-05-05T13:58:24.204Z</time></trkpt><trkpt lat="51.4803933" lon="-9.7094"><ele>7.000000000000001</ele><time>2026-05-05T13:58:25.204Z</time></trkpt><trkpt lat="51.4803283" lon="-9.70945"><ele>7.0</ele><time>2026-05-05T13:58:26.204Z</time></trkpt><trkpt lat="51.4802533" lon="-9.709535"><ele>7.0</ele><time>2026-05-05T13:58:28.203Z</time></trkpt><trkpt lat="51.4802033" lon="-9.70964"><ele>7.0</ele><time>2026-05-05T13:58:30.204Z</time></trkpt><trkpt lat="51.4801767" lon="-9.7097333"><ele>7.000000000000001</ele><time>2026-05-05T13:58:31.203Z</time></trkpt><trkpt lat="51.4801283" lon="-9.70984"><ele>7.0</ele><time>2026-05-05T13:58:32.204Z</time></trkpt><trkpt lat="51.480075" lon="-9.7099633"><ele>7.0</ele><time>2026-05-05T13:58:33.204Z</time></trkpt><trkpt lat="51.480015" lon="-9.7101067"><ele>7.0</ele><time>2026-05-05T13:58:34.204Z</time></trkpt><trkpt lat="51.47995" lon="-9.7102617"><ele>7.0</ele><time>2026-05-05T13:58:35.204Z</time></trkpt><trkpt lat="51.479885" lon="-9.710415"><ele>7.0</ele><time>2026-05-05T13:58:36.204Z</time></trkpt><trkpt lat="51.4798233" lon="-9.7105833"><ele>7.5</ele><time>2026-05-05T13:58:37.204Z</time></trkpt><trkpt lat="51.4797483" lon="-9.7107567"><ele>8.0</ele><time>2026-05-05T13:58:38.203Z</time></trkpt><trkpt lat="51.4796667" lon="-9.7109467"><ele>8.5</ele><time>2026-05-05T13:58:39.203Z</time></trkpt><trkpt lat="51.4795933" lon="-9.711145"><ele>9.0</ele><time>2026-05-05T13:58:40.203Z</time></trkpt><trkpt lat="51.4795217" lon="-9.7113617"><ele>9.0</ele><time>2026-05-05T13:58:41.204Z</time></trkpt><trkpt lat="51.479455" lon="-9.7115733"><ele>9.0</ele><time>2026-05-05T13:58:42.204Z</time></trkpt><trkpt lat="51.4793883" lon="-9.7117783"><ele>9.0</ele><time>2026-05-05T13:58:43.203Z</time></trkpt><trkpt lat="51.479315" lon="-9.7119767"><ele>9.0</ele><time>2026-05-05T13:58:44.204Z</time></trkpt><trkpt lat="51.4792317" lon="-9.712155"><ele>10.25</ele><time>2026-05-05T13:58:45.203Z</time></trkpt><trkpt lat="51.47915" lon="-9.7123383"><ele>11.5</ele><time>2026-05-05T13:58:46.204Z</time></trkpt><trkpt lat="51.4790733" lon="-9.712525"><ele>12.75</ele><time>2026-05-05T13:58:47.203Z</time></trkpt><trkpt lat="51.4789817" lon="-9.7127117"><ele>14.0</ele><time>2026-05-05T13:58:48.203Z</time></trkpt><trkpt lat="51.478885" lon="-9.712905"><ele>16.0</ele><time>2026-05-05T13:58:49.203Z</time></trkpt><trkpt lat="51.47878" lon="-9.7130883"><ele>18.0</ele><time>2026-05-05T13:58:50.204Z</time></trkpt><trkpt lat="51.4786567" lon="-9.71329"><ele>20.0</ele><time>2026-05-05T13:58:51.204Z</time></trkpt><trkpt lat="51.4785717" lon="-9.713475"><ele>16.333333333333336</ele><time>2026-05-05T13:58:52.204Z</time></trkpt><trkpt lat="51.47848" lon="-9.7136683"><ele>12.666666666666668</ele><time>2026-05-05T13:58:53.204Z</time></trkpt><trkpt lat="51.4783867" lon="-9.71391"><ele>9.0</ele><time>2026-05-05T13:58:54.204Z</time></trkpt><trkpt lat="51.4783217" lon="-9.7141383"><ele>11.333333333333332</ele><time>2026-05-05T13:58:55.203Z</time></trkpt><trkpt lat="51.4781867" lon="-9.7145483"><ele>13.666666666666666</ele><time>2026-05-05T13:58:57.204Z</time></trkpt><trkpt lat="51.4781" lon="-9.71473"><ele>16.0</ele><time>2026-05-05T13:58:58.204Z</time></trkpt><trkpt lat="51.478015" lon="-9.7149017"><ele>15.5</ele><time>2026-05-05T13:58:59.204Z</time></trkpt><trkpt lat="51.4779033" lon="-9.7150617"><ele>15.0</ele><time>2026-05-05T13:59:00.204Z</time></trkpt><trkpt lat="51.477795" lon="-9.715205"><ele>14.5</ele><time>2026-05-05T13:59:01.204Z</time></trkpt><trkpt lat="51.47768" lon="-9.71535"><ele>14.0</ele><time>2026-05-05T13:59:02.203Z</time></trkpt><trkpt lat="51.4775933" lon="-9.7155317"><ele>14.0</ele><time>2026-05-05T13:59:03.203Z</time></trkpt><trkpt lat="51.477495" lon="-9.7157083"><ele>14.0</ele><time>2026-05-05T13:59:04.204Z</time></trkpt><trkpt lat="51.4773983" lon="-9.7158917"><ele>14.0</ele><time>2026-05-05T13:59:05.204Z</time></trkpt><trkpt lat="51.477285" lon="-9.7160667"><ele>10.666666666666668</ele><time>2026-05-05T13:59:06.204Z</time></trkpt><trkpt lat="51.4772083" lon="-9.7162383"><ele>7.333333333333334</ele><time>2026-05-05T13:59:07.204Z</time></trkpt><trkpt lat="51.4771317" lon="-9.7164217"><ele>4.0</ele><time>2026-05-05T13:59:08.203Z</time></trkpt><trkpt lat="51.4769867" lon="-9.7168317"><ele>7.0</ele><time>2026-05-05T13:59:10.204Z</time></trkpt><trkpt lat="51.476935" lon="-9.7170517"><ele>10.0</ele><time>2026-05-05T13:59:11.203Z</time></trkpt><trkpt lat="51.47687" lon="-9.7172733"><ele>13.0</ele><time>2026-05-05T13:59:12.203Z</time></trkpt><trkpt lat="51.476795" lon="-9.7174917"><ele>13.0</ele><time>2026-05-05T13:59:13.203Z</time></trkpt><trkpt lat="51.4767117" lon="-9.7177033"><ele>13.0</ele><time>2026-05-05T13:59:14.203Z</time></trkpt><trkpt lat="51.4766183" lon="-9.7178967"><ele>13.0</ele><time>2026-05-05T13:59:15.203Z</time></trkpt><trkpt lat="51.4765317" lon="-9.71807"><ele>13.0</ele><time>2026-05-05T13:59:16.204Z</time></trkpt><trkpt lat="51.4764383" lon="-9.718245"><ele>12.25</ele><time>2026-05-05T13:59:17.203Z</time></trkpt><trkpt lat="51.4763633" lon="-9.7184033"><ele>11.5</ele><time>2026-05-05T13:59:18.204Z</time></trkpt><trkpt lat="51.4762733" lon="-9.718535"><ele>10.75</ele><time>2026-05-05T13:59:19.204Z</time></trkpt><trkpt lat="51.4761783" lon="-9.7186533"><ele>10.0</ele><time>2026-05-05T13:59:20.204Z</time></trkpt><trkpt lat="51.4761067" lon="-9.7187717"><ele>10.0</ele><time>2026-05-05T13:59:21.203Z</time></trkpt><trkpt lat="51.4760283" lon="-9.7189083"><ele>10.0</ele><time>2026-05-05T13:59:22.204Z</time></trkpt><trkpt lat="51.475865" lon="-9.71928"><ele>10.0</ele><time>2026-05-05T13:59:24.203Z</time></trkpt><trkpt lat="51.4757933" lon="-9.7194883"><ele>13.333333333333334</ele><time>2026-05-05T13:59:25.204Z</time></trkpt><trkpt lat="51.4757083" lon="-9.7197067"><ele>16.666666666666668</ele><time>2026-05-05T13:59:26.204Z</time></trkpt><trkpt lat="51.4756233" lon="-9.7199333"><ele>20.0</ele><time>2026-05-05T13:59:27.204Z</time></trkpt><trkpt lat="51.4755183" lon="-9.7201567"><ele>16.75</ele><time>2026-05-05T13:59:28.204Z</time></trkpt><trkpt lat="51.4754283" lon="-9.720365"><ele>13.5</ele><time>2026-05-05T13:59:29.204Z</time></trkpt><trkpt lat="51.4753517" lon="-9.7205417"><ele>10.25</ele><time>2026-05-05T13:59:30.204Z</time></trkpt><trkpt lat="51.47526" lon="-9.7207233"><ele>7.0</ele><time>2026-05-05T13:59:31.204Z</time></trkpt><trkpt lat="51.4751967" lon="-9.720925"><ele>6.5</ele><time>2026-05-05T13:59:32.204Z</time></trkpt><trkpt lat="51.4751383" lon="-9.721135"><ele>6.0</ele><time>2026-05-05T13:59:33.203Z</time></trkpt><trkpt lat="51.475085" lon="-9.72133"><ele>5.5</ele><time>2026-05-05T13:59:34.204Z</time></trkpt><trkpt lat="51.47507" lon="-9.721525"><ele>5.0</ele><time>2026-05-05T13:59:35.204Z</time></trkpt><trkpt lat="51.4751617" lon="-9.7219267"><ele>4.666666666666667</ele><time>2026-05-05T13:59:37.204Z</time></trkpt><trkpt lat="51.4752583" lon="-9.72213"><ele>4.333333333333333</ele><time>2026-05-05T13:59:38.204Z</time></trkpt><trkpt lat="51.4753183" lon="-9.722375"><ele>4.0</ele><time>2026-05-05T13:59:39.204Z</time></trkpt><trkpt lat="51.4753483" lon="-9.7226383"><ele>3.6666666666666665</ele><time>2026-05-05T13:59:40.203Z</time></trkpt><trkpt lat="51.4753683" lon="-9.7229183"><ele>3.333333333333333</ele><time>2026-05-05T13:59:41.204Z</time></trkpt><trkpt lat="51.475405" lon="-9.7231767"><ele>3.0</ele><time>2026-05-05T13:59:42.204Z</time></trkpt><trkpt lat="51.4754217" lon="-9.7234083"><ele>4.333333333333334</ele><time>2026-05-05T13:59:43.203Z</time></trkpt><trkpt lat="51.4754183" lon="-9.7236317"><ele>5.666666666666667</ele><time>2026-05-05T13:59:44.204Z</time></trkpt><trkpt lat="51.475385" lon="-9.7238667"><ele>7.0</ele><time>2026-05-05T13:59:45.204Z</time></trkpt><trkpt lat="51.47532" lon="-9.7241033"><ele>7.0</ele><time>2026-05-05T13:59:46.204Z</time></trkpt><trkpt lat="51.475255" lon="-9.7243267"><ele>7.0</ele><time>2026-05-05T13:59:47.204Z</time></trkpt><trkpt lat="51.4751767" lon="-9.724555"><ele>7.0</ele><time>2026-05-05T13:59:48.204Z</time></trkpt><trkpt lat="51.4751033" lon="-9.7247733"><ele>11.333333333333334</ele><time>2026-05-05T13:59:49.203Z</time></trkpt><trkpt lat="51.474995" lon="-9.7249817"><ele>15.666666666666668</ele><time>2026-05-05T13:59:50.203Z</time></trkpt><trkpt lat="51.4748883" lon="-9.7251633"><ele>20.0</ele><time>2026-05-05T13:59:51.203Z</time></trkpt><trkpt lat="51.4747567" lon="-9.725325"><ele>17.0</ele><time>2026-05-05T13:59:52.204Z</time></trkpt><trkpt lat="51.4745933" lon="-9.7254833"><ele>14.0</ele><time>2026-05-05T13:59:53.203Z</time></trkpt><trkpt lat="51.4744517" lon="-9.7256017"><ele>11.0</ele><time>2026-05-05T13:59:54.204Z</time></trkpt><trkpt lat="51.4743267" lon="-9.7257033"><ele>11.0</ele><time>2026-05-05T13:59:55.204Z</time></trkpt><trkpt lat="51.4741983" lon="-9.7258"><ele>11.0</ele><time>2026-05-05T13:59:56.203Z</time></trkpt><trkpt lat="51.4740767" lon="-9.725915"><ele>11.0</ele><time>2026-05-05T13:59:57.204Z</time></trkpt><trkpt lat="51.4739567" lon="-9.72606"><ele>11.0</ele><time>2026-05-05T13:59:58.204Z</time></trkpt><trkpt lat="51.4738733" lon="-9.7262617"><ele>15.0</ele><time>2026-05-05T13:59:59.203Z</time></trkpt><trkpt lat="51.47381" lon="-9.726485"><ele>19.0</ele><time>2026-05-05T14:00:00.204Z</time></trkpt><trkpt lat="51.4737767" lon="-9.72674"><ele>23.0</ele><time>2026-05-05T14:00:01.204Z</time></trkpt><trkpt lat="51.473775" lon="-9.72702"><ele>18.333333333333336</ele><time>2026-05-05T14:00:02.204Z</time></trkpt><trkpt lat="51.4737467" lon="-9.727315"><ele>13.666666666666668</ele><time>2026-05-05T14:00:03.204Z</time></trkpt><trkpt lat="51.47374" lon="-9.7275983"><ele>9.0</ele><time>2026-05-05T14:00:04.203Z</time></trkpt><trkpt lat="51.4737117" lon="-9.7278667"><ele>9.0</ele><time>2026-05-05T14:00:05.204Z</time></trkpt><trkpt lat="51.4737033" lon="-9.7281067"><ele>9.0</ele><time>2026-05-05T14:00:06.204Z</time></trkpt><trkpt lat="51.4736633" lon="-9.728355"><ele>9.0</ele><time>2026-05-05T14:00:07.204Z</time></trkpt><trkpt lat="51.473615" lon="-9.7285733"><ele>13.0</ele><time>2026-05-05T14:00:08.204Z</time></trkpt><trkpt lat="51.4735483" lon="-9.7287517"><ele>17.0</ele><time>2026-05-05T14:00:09.204Z</time></trkpt><trkpt lat="51.4734567" lon="-9.7288667"><ele>21.0</ele><time>2026-05-05T14:00:10.203Z</time></trkpt><trkpt lat="51.4733617" lon="-9.728925"><ele>25.0</ele><time>2026-05-05T14:00:11.203Z</time></trkpt><trkpt lat="51.47325" lon="-9.7289517"><ele>25.0</ele><time>2026-05-05T14:00:12.203Z</time></trkpt><trkpt lat="51.4731417" lon="-9.72897"><ele>25.0</ele><time>2026-05-05T14:00:13.204Z</time></trkpt><trkpt lat="51.4730367" lon="-9.729005"><ele>25.0</ele><time>2026-05-05T14:00:14.204Z</time></trkpt><trkpt lat="51.4729367" lon="-9.72906"><ele>25.0</ele><time>2026-05-05T14:00:15.203Z</time></trkpt><trkpt lat="51.4728417" lon="-9.7291383"><ele>25.0</ele><time>2026-05-05T14:00:16.204Z</time></trkpt><trkpt lat="51.4727567" lon="-9.7292633"><ele>20.666666666666668</ele><time>2026-05-05T14:00:17.202Z</time></trkpt><trkpt lat="51.4726833" lon="-9.729435"><ele>16.333333333333336</ele><time>2026-05-05T14:00:18.203Z</time></trkpt><trkpt lat="51.4726167" lon="-9.7296783"><ele>12.0</ele><time>2026-05-05T14:00:19.203Z</time></trkpt><trkpt lat="51.47252" lon="-9.7299467"><ele>12.0</ele><time>2026-05-05T14:00:20.203Z</time></trkpt><trkpt lat="51.472425" lon="-9.7301967"><ele>12.0</ele><time>2026-05-05T14:00:21.203Z</time></trkpt><trkpt lat="51.47235" lon="-9.7304"><ele>12.0</ele><time>2026-05-05T14:00:22.203Z</time></trkpt><trkpt lat="51.4722483" lon="-9.7305733"><ele>11.75</ele><time>2026-05-05T14:00:23.203Z</time></trkpt><trkpt lat="51.4721467" lon="-9.7307533"><ele>11.5</ele><time>2026-05-05T14:00:24.203Z</time></trkpt><trkpt lat="51.4720567" lon="-9.7309383"><ele>11.25</ele><time>2026-05-05T14:00:25.203Z</time></trkpt><trkpt lat="51.471965" lon="-9.73111"><ele>11.0</ele><time>2026-05-05T14:00:26.202Z</time></trkpt><trkpt lat="51.4719067" lon="-9.7313317"><ele>11.0</ele><time>2026-05-05T14:00:27.203Z</time></trkpt><trkpt lat="51.4718167" lon="-9.7315567"><ele>11.0</ele><time>2026-05-05T14:00:28.202Z</time></trkpt><trkpt lat="51.47175" lon="-9.731785"><ele>11.0</ele><time>2026-05-05T14:00:29.202Z</time></trkpt><trkpt lat="51.4716883" lon="-9.7320167"><ele>11.75</ele><time>2026-05-05T14:00:30.202Z</time></trkpt><trkpt lat="51.4716333" lon="-9.73223"><ele>12.5</ele><time>2026-05-05T14:00:31.203Z</time></trkpt><trkpt lat="51.4716267" lon="-9.73239"><ele>13.25</ele><time>2026-05-05T14:00:32.202Z</time></trkpt><trkpt lat="51.47162" lon="-9.7326333"><ele>14.0</ele><time>2026-05-05T14:00:33.202Z</time></trkpt><trkpt lat="51.4716233" lon="-9.73288"><ele>14.333333333333334</ele><time>2026-05-05T14:00:34.203Z</time></trkpt><trkpt lat="51.4716383" lon="-9.733145"><ele>14.666666666666668</ele><time>2026-05-05T14:00:35.203Z</time></trkpt><trkpt lat="51.4716433" lon="-9.7334233"><ele>15.0</ele><time>2026-05-05T14:00:36.203Z</time></trkpt><trkpt lat="51.4716817" lon="-9.7336967"><ele>16.0</ele><time>2026-05-05T14:00:37.202Z</time></trkpt><trkpt lat="51.4717133" lon="-9.7339917"><ele>17.0</ele><time>2026-05-05T14:00:38.203Z</time></trkpt><trkpt lat="51.4717567" lon="-9.7342683"><ele>18.0</ele><time>2026-05-05T14:00:39.202Z</time></trkpt><trkpt lat="51.4718083" lon="-9.7345183"><ele>19.666666666666668</ele><time>2026-05-05T14:00:40.203Z</time></trkpt><trkpt lat="51.4718083" lon="-9.734825"><ele>21.333333333333336</ele><time>2026-05-05T14:00:41.203Z</time></trkpt><trkpt lat="51.4717633" lon="-9.73512"><ele>23.0</ele><time>2026-05-05T14:00:42.203Z</time></trkpt><trkpt lat="51.4717133" lon="-9.7353983"><ele>24.333333333333336</ele><time>2026-05-05T14:00:43.202Z</time></trkpt><trkpt lat="51.47169" lon="-9.7356633"><ele>25.666666666666668</ele><time>2026-05-05T14:00:44.203Z</time></trkpt><trkpt lat="51.4716583" lon="-9.7359567"><ele>27.0</ele><time>2026-05-05T14:00:45.203Z</time></trkpt><trkpt lat="51.4716167" lon="-9.736225"><ele>29.0</ele><time>2026-05-05T14:00:46.202Z</time></trkpt><trkpt lat="51.47155" lon="-9.7364833"><ele>31.0</ele><time>2026-05-05T14:00:47.203Z</time></trkpt><trkpt lat="51.4714717" lon="-9.7367633"><ele>33.0</ele><time>2026-05-05T14:00:48.202Z</time></trkpt><trkpt lat="51.4714067" lon="-9.7370367"><ele>36.0</ele><time>2026-05-05T14:00:49.203Z</time></trkpt><trkpt lat="51.4713683" lon="-9.7373033"><ele>39.0</ele><time>2026-05-05T14:00:50.203Z</time></trkpt><trkpt lat="51.4713017" lon="-9.7375733"><ele>42.0</ele><time>2026-05-05T14:00:51.202Z</time></trkpt><trkpt lat="51.4712517" lon="-9.7378233"><ele>35.333333333333336</ele><time>2026-05-05T14:00:52.203Z</time></trkpt><trkpt lat="51.47119" lon="-9.7380933"><ele>28.666666666666664</ele><time>2026-05-05T14:00:53.203Z</time></trkpt><trkpt lat="51.4711133" lon="-9.7383583"><ele>22.0</ele><time>2026-05-05T14:00:54.203Z</time></trkpt><trkpt lat="51.4710233" lon="-9.738615"><ele>22.0</ele><time>2026-05-05T14:00:55.203Z</time></trkpt><trkpt lat="51.4709267" lon="-9.7388467"><ele>22.0</ele><time>2026-05-05T14:00:56.202Z</time></trkpt><trkpt lat="51.470845" lon="-9.73904"><ele>22.0</ele><time>2026-05-05T14:00:57.202Z</time></trkpt><trkpt lat="51.4707383" lon="-9.7392183"><ele>22.0</ele><time>2026-05-05T14:00:58.203Z</time></trkpt><trkpt lat="51.470655" lon="-9.7393817"><ele>22.0</ele><time>2026-05-05T14:00:59.202Z</time></trkpt><trkpt lat="51.470525" lon="-9.7395183"><ele>22.0</ele><time>2026-05-05T14:01:00.202Z</time></trkpt><trkpt lat="51.4704033" lon="-9.73964"><ele>22.0</ele><time>2026-05-05T14:01:01.203Z</time></trkpt><trkpt lat="51.4702267" lon="-9.7397667"><ele>21.25</ele><time>2026-05-05T14:01:02.203Z</time></trkpt><trkpt lat="51.47009" lon="-9.739875"><ele>20.5</ele><time>2026-05-05T14:01:03.203Z</time></trkpt><trkpt lat="51.4699467" lon="-9.7399817"><ele>19.75</ele><time>2026-05-05T14:01:04.203Z</time></trkpt><trkpt lat="51.4698467" lon="-9.7400817"><ele>19.0</ele><time>2026-05-05T14:01:05.202Z</time></trkpt><trkpt lat="51.4697417" lon="-9.7401817"><ele>19.0</ele><time>2026-05-05T14:01:06.203Z</time></trkpt><trkpt lat="51.4696483" lon="-9.7403"><ele>19.0</ele><time>2026-05-05T14:01:07.203Z</time></trkpt><trkpt lat="51.4695533" lon="-9.7404283"><ele>19.0</ele><time>2026-05-05T14:01:08.203Z</time></trkpt><trkpt lat="51.469455" lon="-9.7405633"><ele>19.0</ele><time>2026-05-05T14:01:09.203Z</time></trkpt><trkpt lat="51.4693617" lon="-9.7407"><ele>19.0</ele><time>2026-05-05T14:01:10.203Z</time></trkpt><trkpt lat="51.469255" lon="-9.7408383"><ele>19.0</ele><time>2026-05-05T14:01:11.202Z</time></trkpt><trkpt lat="51.4691367" lon="-9.74099"><ele>19.0</ele><time>2026-05-05T14:01:12.203Z</time></trkpt><trkpt lat="51.4690267" lon="-9.7411467"><ele>19.0</ele><time>2026-05-05T14:01:13.203Z</time></trkpt><trkpt lat="51.4689067" lon="-9.7412933"><ele>17.333333333333332</ele><time>2026-05-05T14:01:14.203Z</time></trkpt><trkpt lat="51.468775" lon="-9.7414333"><ele>15.666666666666668</ele><time>2026-05-05T14:01:15.203Z</time></trkpt><trkpt lat="51.4686267" lon="-9.7415417"><ele>14.0</ele><time>2026-05-05T14:01:16.203Z</time></trkpt><trkpt lat="51.46848" lon="-9.7416333"><ele>14.0</ele><time>2026-05-05T14:01:17.203Z</time></trkpt><trkpt lat="51.468335" lon="-9.7417133"><ele>14.0</ele><time>2026-05-05T14:01:18.203Z</time></trkpt><trkpt lat="51.4682033" lon="-9.7418033"><ele>14.0</ele><time>2026-05-05T14:01:19.203Z</time></trkpt><trkpt lat="51.4680817" lon="-9.7419333"><ele>14.0</ele><time>2026-05-05T14:01:20.203Z</time></trkpt><trkpt lat="51.46798" lon="-9.742085"><ele>14.25</ele><time>2026-05-05T14:01:21.203Z</time></trkpt><trkpt lat="51.4678767" lon="-9.7422267"><ele>14.5</ele><time>2026-05-05T14:01:22.202Z</time></trkpt><trkpt lat="51.4677667" lon="-9.74236"><ele>14.75</ele><time>2026-05-05T14:01:23.202Z</time></trkpt><trkpt lat="51.467675" lon="-9.7424967"><ele>15.0</ele><time>2026-05-05T14:01:24.202Z</time></trkpt><trkpt lat="51.4675967" lon="-9.74263"><ele>17.2</ele><time>2026-05-05T14:01:25.203Z</time></trkpt><trkpt lat="51.4675233" lon="-9.7427617"><ele>19.4</ele><time>2026-05-05T14:01:26.202Z</time></trkpt><trkpt lat="51.467455" lon="-9.7428767"><ele>21.6</ele><time>2026-05-05T14:01:27.202Z</time></trkpt><trkpt lat="51.4674017" lon="-9.7430033"><ele>23.8</ele><time>2026-05-05T14:01:28.202Z</time></trkpt><trkpt lat="51.4673317" lon="-9.7431333"><ele>26.0</ele><time>2026-05-05T14:01:29.203Z</time></trkpt><trkpt lat="51.4672533" lon="-9.7432683"><ele>26.0</ele><time>2026-05-05T14:01:30.203Z</time></trkpt><trkpt lat="51.467175" lon="-9.74344"><ele>26.0</ele><time>2026-05-05T14:01:31.203Z</time></trkpt><trkpt lat="51.4670933" lon="-9.7436117"><ele>26.0</ele><time>2026-05-05T14:01:32.203Z</time></trkpt><trkpt lat="51.4670017" lon="-9.7437967"><ele>26.0</ele><time>2026-05-05T14:01:33.203Z</time></trkpt><trkpt lat="51.4669067" lon="-9.7439683"><ele>26.5</ele><time>2026-05-05T14:01:34.202Z</time></trkpt><trkpt lat="51.4668017" lon="-9.744145"><ele>27.0</ele><time>2026-05-05T14:01:35.202Z</time></trkpt><trkpt lat="51.4667017" lon="-9.7443333"><ele>27.5</ele><time>2026-05-05T14:01:36.203Z</time></trkpt><trkpt lat="51.46661" lon="-9.7444933"><ele>28.0</ele><time>2026-05-05T14:01:37.202Z</time></trkpt><trkpt lat="51.4665117" lon="-9.74468"><ele>28.0</ele><time>2026-05-05T14:01:38.203Z</time></trkpt><trkpt lat="51.4664017" lon="-9.7448567"><ele>28.0</ele><time>2026-05-05T14:01:39.203Z</time></trkpt><trkpt lat="51.4663083" lon="-9.7450833"><ele>28.0</ele><time>2026-05-05T14:01:40.203Z</time></trkpt><trkpt lat="51.4662083" lon="-9.745345"><ele>25.333333333333336</ele><time>2026-05-05T14:01:41.203Z</time></trkpt><trkpt lat="51.4660983" lon="-9.7456117"><ele>22.666666666666668</ele><time>2026-05-05T14:01:42.203Z</time></trkpt><trkpt lat="51.4659833" lon="-9.7458567"><ele>20.0</ele><time>2026-05-05T14:01:43.203Z</time></trkpt><trkpt lat="51.4659117" lon="-9.7461033"><ele>20.0</ele><time>2026-05-05T14:01:44.202Z</time></trkpt><trkpt lat="51.4658217" lon="-9.7463483"><ele>20.0</ele><time>2026-05-05T14:01:45.203Z</time></trkpt><trkpt lat="51.46574" lon="-9.74656"><ele>20.0</ele><time>2026-05-05T14:01:46.203Z</time></trkpt><trkpt lat="51.465645" lon="-9.7467783"><ele>16.333333333333336</ele><time>2026-05-05T14:01:47.203Z</time></trkpt><trkpt lat="51.4655417" lon="-9.74701"><ele>12.666666666666668</ele><time>2026-05-05T14:01:48.203Z</time></trkpt><trkpt lat="51.4654317" lon="-9.7472367"><ele>9.0</ele><time>2026-05-05T14:01:49.203Z</time></trkpt><trkpt lat="51.46534" lon="-9.747445"><ele>9.0</ele><time>2026-05-05T14:01:50.202Z</time></trkpt><trkpt lat="51.4652533" lon="-9.7476533"><ele>9.0</ele><time>2026-05-05T14:01:51.203Z</time></trkpt><trkpt lat="51.4651717" lon="-9.7478783"><ele>9.0</ele><time>2026-05-05T14:01:52.203Z</time></trkpt><trkpt lat="51.4651033" lon="-9.7481267"><ele>10.666666666666668</ele><time>2026-05-05T14:01:53.203Z</time></trkpt><trkpt lat="51.4650433" lon="-9.7484017"><ele>12.333333333333334</ele><time>2026-05-05T14:01:54.203Z</time></trkpt><trkpt lat="51.4649967" lon="-9.7486567"><ele>14.0</ele><time>2026-05-05T14:01:55.202Z</time></trkpt><trkpt lat="51.46493" lon="-9.748895"><ele>15.5</ele><time>2026-05-05T14:01:56.202Z</time></trkpt><trkpt lat="51.4648983" lon="-9.7490983"><ele>17.0</ele><time>2026-05-05T14:01:57.202Z</time></trkpt><trkpt lat="51.4648533" lon="-9.74928"><ele>18.5</ele><time>2026-05-05T14:01:58.202Z</time></trkpt><trkpt lat="51.4648" lon="-9.7494667"><ele>20.0</ele><time>2026-05-05T14:01:59.202Z</time></trkpt><trkpt lat="51.4647533" lon="-9.74967"><ele>20.25</ele><time>2026-05-05T14:02:00.202Z</time></trkpt><trkpt lat="51.4647233" lon="-9.749865"><ele>20.5</ele><time>2026-05-05T14:02:01.203Z</time></trkpt><trkpt lat="51.4646867" lon="-9.7500717"><ele>20.75</ele><time>2026-05-05T14:02:02.203Z</time></trkpt><trkpt lat="51.4646533" lon="-9.7502817"><ele>21.0</ele><time>2026-05-05T14:02:03.203Z</time></trkpt><trkpt lat="51.46462" lon="-9.7505117"><ele>17.0</ele><time>2026-05-05T14:02:04.203Z</time></trkpt><trkpt lat="51.46458" lon="-9.75073"><ele>13.0</ele><time>2026-05-05T14:02:05.203Z</time></trkpt><trkpt lat="51.4645417" lon="-9.75092"><ele>9.0</ele><time>2026-05-05T14:02:06.202Z</time></trkpt><trkpt lat="51.4644967" lon="-9.7511133"><ele>5.0</ele><time>2026-05-05T14:02:07.203Z</time></trkpt><trkpt lat="51.4644433" lon="-9.7512933"><ele>5.0</ele><time>2026-05-05T14:02:08.203Z</time></trkpt><trkpt lat="51.4643817" lon="-9.7514567"><ele>5.0</ele><time>2026-05-05T14:02:09.202Z</time></trkpt><trkpt lat="51.4643283" lon="-9.7516017"><ele>5.0</ele><time>2026-05-05T14:02:10.203Z</time></trkpt><trkpt lat="51.4642817" lon="-9.751735"><ele>5.0</ele><time>2026-05-05T14:02:11.203Z</time></trkpt><trkpt lat="51.46424" lon="-9.7518467"><ele>5.0</ele><time>2026-05-05T14:02:12.202Z</time></trkpt><trkpt lat="51.46414" lon="-9.75197"><ele>4.833333333333334</ele><time>2026-05-05T14:02:14.203Z</time></trkpt><trkpt lat="51.4640783" lon="-9.7520117"><ele>4.666666666666667</ele><time>2026-05-05T14:02:15.203Z</time></trkpt><trkpt lat="51.464" lon="-9.7520467"><ele>4.5</ele><time>2026-05-05T14:02:16.203Z</time></trkpt><trkpt lat="51.46392" lon="-9.7520717"><ele>4.333333333333333</ele><time>2026-05-05T14:02:17.202Z</time></trkpt><trkpt lat="51.4638367" lon="-9.752085"><ele>4.166666666666666</ele><time>2026-05-05T14:02:18.203Z</time></trkpt><trkpt lat="51.4637517" lon="-9.7520933"><ele>4.0</ele><time>2026-05-05T14:02:19.203Z</time></trkpt><trkpt lat="51.463685" lon="-9.7520633"><ele>4.0</ele><time>2026-05-05T14:02:20.202Z</time></trkpt><trkpt lat="51.4635833" lon="-9.7520033"><ele>4.0</ele><time>2026-05-05T14:02:22.203Z</time></trkpt><trkpt lat="51.46348" lon="-9.7519983"><ele>4.0</ele><time>2026-05-05T14:02:24.202Z</time></trkpt><trkpt lat="51.4633917" lon="-9.75207"><ele>4.0</ele><time>2026-05-05T14:02:26.203Z</time></trkpt><trkpt lat="51.463365" lon="-9.7522133"><ele>4.0</ele><time>2026-05-05T14:02:28.203Z</time></trkpt><trkpt lat="51.4633883" lon="-9.7524"><ele>4.0</ele><time>2026-05-05T14:02:30.202Z</time></trkpt><trkpt lat="51.463405" lon="-9.752525"><ele>4.0</ele><time>2026-05-05T14:02:31.203Z</time></trkpt><trkpt lat="51.4634283" lon="-9.7526783"><ele>4.0</ele><time>2026-05-05T14:02:32.203Z</time></trkpt><trkpt lat="51.4634483" lon="-9.75282"><ele>4.0</ele><time>2026-05-05T14:02:33.203Z</time></trkpt><trkpt lat="51.4634917" lon="-9.7530083"><ele>4.0</ele><time>2026-05-05T14:02:34.203Z</time></trkpt><trkpt lat="51.463525" lon="-9.7531683"><ele>4.0</ele><time>2026-05-05T14:02:35.203Z</time></trkpt><trkpt lat="51.463545" lon="-9.75332"><ele>4.0</ele><time>2026-05-05T14:02:36.202Z</time></trkpt><trkpt lat="51.46358" lon="-9.7534617"><ele>4.0</ele><time>2026-05-05T14:02:37.203Z</time></trkpt><trkpt lat="51.4636133" lon="-9.7535933"><ele>4.0</ele><time>2026-05-05T14:02:38.203Z</time></trkpt><trkpt lat="51.4636317" lon="-9.7537333"><ele>4.0</ele><time>2026-05-05T14:02:39.202Z</time></trkpt><trkpt lat="51.463665" lon="-9.7538883"><ele>4.0</ele><time>2026-05-05T14:02:40.203Z</time></trkpt><trkpt lat="51.46371" lon="-9.7540617"><ele>4.0</ele><time>2026-05-05T14:02:41.202Z</time></trkpt><trkpt lat="51.4637583" lon="-9.754245"><ele>4.0</ele><time>2026-05-05T14:02:42.203Z</time></trkpt><trkpt lat="51.4638" lon="-9.7544383"><ele>4.0</ele><time>2026-05-05T14:02:43.202Z</time></trkpt><trkpt lat="51.4638433" lon="-9.754625"><ele>4.0</ele><time>2026-05-05T14:02:44.203Z</time></trkpt><trkpt lat="51.4639017" lon="-9.7547917"><ele>4.0</ele><time>2026-05-05T14:02:45.203Z</time></trkpt><trkpt lat="51.4639417" lon="-9.75498"><ele>4.0</ele><time>2026-05-05T14:02:46.202Z</time></trkpt><trkpt lat="51.463985" lon="-9.7551583"><ele>4.0</ele><time>2026-05-05T14:02:47.203Z</time></trkpt><trkpt lat="51.4640183" lon="-9.7553233"><ele>4.5</ele><time>2026-05-05T14:02:48.203Z</time></trkpt><trkpt lat="51.4640567" lon="-9.7554867"><ele>5.0</ele><time>2026-05-05T14:02:49.203Z</time></trkpt><trkpt lat="51.4641" lon="-9.7556433"><ele>5.5</ele><time>2026-05-05T14:02:50.202Z</time></trkpt><trkpt lat="51.464155" lon="-9.7558083"><ele>6.0</ele><time>2026-05-05T14:02:51.203Z</time></trkpt><trkpt lat="51.4642133" lon="-9.7559883"><ele>5.8</ele><time>2026-05-05T14:02:52.203Z</time></trkpt><trkpt lat="51.4642733" lon="-9.7561533"><ele>5.6</ele><time>2026-05-05T14:02:53.202Z</time></trkpt><trkpt lat="51.46433" lon="-9.7563117"><ele>5.4</ele><time>2026-05-05T14:02:54.203Z</time></trkpt><trkpt lat="51.4643833" lon="-9.7564567"><ele>5.2</ele><time>2026-05-05T14:02:55.202Z</time></trkpt><trkpt lat="51.4644383" lon="-9.7565983"><ele>5.0</ele><time>2026-05-05T14:02:56.203Z</time></trkpt><trkpt lat="51.4644817" lon="-9.7567167"><ele>5.0</ele><time>2026-05-05T14:02:57.202Z</time></trkpt><trkpt lat="51.464525" lon="-9.756855"><ele>5.0</ele><time>2026-05-05T14:02:58.202Z</time></trkpt><trkpt lat="51.4645533" lon="-9.7570067"><ele>5.0</ele><time>2026-05-05T14:02:59.203Z</time></trkpt><trkpt lat="51.46458" lon="-9.757185"><ele>5.0</ele><time>2026-05-05T14:03:00.203Z</time></trkpt><trkpt lat="51.4646083" lon="-9.7573817"><ele>5.0</ele><time>2026-05-05T14:03:01.202Z</time></trkpt><trkpt lat="51.4646217" lon="-9.7576"><ele>5.0</ele><time>2026-05-05T14:03:02.202Z</time></trkpt><trkpt lat="51.4646167" lon="-9.7578417"><ele>5.0</ele><time>2026-05-05T14:03:03.203Z</time></trkpt><trkpt lat="51.4645917" lon="-9.7580817"><ele>5.0</ele><time>2026-05-05T14:03:04.202Z</time></trkpt><trkpt lat="51.4645667" lon="-9.758295"><ele>5.0</ele><time>2026-05-05T14:03:05.202Z</time></trkpt><trkpt lat="51.464515" lon="-9.7585217"><ele>6.0</ele><time>2026-05-05T14:03:06.202Z</time></trkpt><trkpt lat="51.4644083" lon="-9.758755"><ele>7.0</ele><time>2026-05-05T14:03:07.202Z</time></trkpt><trkpt lat="51.4643433" lon="-9.7589933"><ele>8.0</ele><time>2026-05-05T14:03:08.203Z</time></trkpt><trkpt lat="51.4642833" lon="-9.7592283"><ele>9.333333333333332</ele><time>2026-05-05T14:03:09.203Z</time></trkpt><trkpt lat="51.4642283" lon="-9.7594667"><ele>10.666666666666666</ele><time>2026-05-05T14:03:10.202Z</time></trkpt><trkpt lat="51.4641617" lon="-9.75972"><ele>12.0</ele><time>2026-05-05T14:03:11.203Z</time></trkpt><trkpt lat="51.464095" lon="-9.7599617"><ele>13.666666666666668</ele><time>2026-05-05T14:03:12.203Z</time></trkpt><trkpt lat="51.46402" lon="-9.7602133"><ele>15.333333333333334</ele><time>2026-05-05T14:03:13.202Z</time></trkpt><trkpt lat="51.4639467" lon="-9.7604517"><ele>17.0</ele><time>2026-05-05T14:03:14.203Z</time></trkpt><trkpt lat="51.46389" lon="-9.7607067"><ele>17.0</ele><time>2026-05-05T14:03:15.203Z</time></trkpt><trkpt lat="51.463835" lon="-9.7609683"><ele>17.0</ele><time>2026-05-05T14:03:16.203Z</time></trkpt><trkpt lat="51.4637783" lon="-9.7612333"><ele>17.0</ele><time>2026-05-05T14:03:17.203Z</time></trkpt><trkpt lat="51.46373" lon="-9.761495"><ele>13.666666666666668</ele><time>2026-05-05T14:03:18.203Z</time></trkpt><trkpt lat="51.4636867" lon="-9.7617617"><ele>10.333333333333334</ele><time>2026-05-05T14:03:19.202Z</time></trkpt><trkpt lat="51.4636483" lon="-9.7620433"><ele>7.0</ele><time>2026-05-05T14:03:20.203Z</time></trkpt><trkpt lat="51.4636333" lon="-9.76231"><ele>7.0</ele><time>2026-05-05T14:03:21.203Z</time></trkpt><trkpt lat="51.4636" lon="-9.7625383"><ele>7.0</ele><time>2026-05-05T14:03:22.202Z</time></trkpt><trkpt lat="51.4635683" lon="-9.76275"><ele>7.0</ele><time>2026-05-05T14:03:23.202Z</time></trkpt><trkpt lat="51.463545" lon="-9.762915"><ele>7.0</ele><time>2026-05-05T14:03:24.202Z</time></trkpt><trkpt lat="51.4635567" lon="-9.7630217"><ele>7.6</ele><time>2026-05-05T14:03:25.202Z</time></trkpt><trkpt lat="51.46354" lon="-9.763155"><ele>8.2</ele><time>2026-05-05T14:03:26.202Z</time></trkpt><trkpt lat="51.4635217" lon="-9.7632967"><ele>8.8</ele><time>2026-05-05T14:03:27.203Z</time></trkpt><trkpt lat="51.4635083" lon="-9.7634483"><ele>9.4</ele><time>2026-05-05T14:03:28.203Z</time></trkpt><trkpt lat="51.463505" lon="-9.7636217"><ele>10.0</ele><time>2026-05-05T14:03:29.202Z</time></trkpt><trkpt lat="51.4635017" lon="-9.763815"><ele>10.0</ele><time>2026-05-05T14:03:30.202Z</time></trkpt><trkpt lat="51.46351" lon="-9.764015"><ele>10.0</ele><time>2026-05-05T14:03:31.203Z</time></trkpt><trkpt lat="51.4635267" lon="-9.7642083"><ele>10.0</ele><time>2026-05-05T14:03:32.202Z</time></trkpt><trkpt lat="51.4635567" lon="-9.7643933"><ele>10.0</ele><time>2026-05-05T14:03:33.203Z</time></trkpt><trkpt lat="51.463585" lon="-9.7645983"><ele>10.0</ele><time>2026-05-05T14:03:34.203Z</time></trkpt><trkpt lat="51.4636183" lon="-9.764815"><ele>10.0</ele><time>2026-05-05T14:03:35.202Z</time></trkpt><trkpt lat="51.4636533" lon="-9.76503"><ele>10.0</ele><time>2026-05-05T14:03:36.203Z</time></trkpt><trkpt lat="51.4636967" lon="-9.7652417"><ele>10.0</ele><time>2026-05-05T14:03:37.203Z</time></trkpt><trkpt lat="51.4637167" lon="-9.7654517"><ele>9.75</ele><time>2026-05-05T14:03:38.203Z</time></trkpt><trkpt lat="51.4637217" lon="-9.7656617"><ele>9.5</ele><time>2026-05-05T14:03:39.202Z</time></trkpt><trkpt lat="51.4637233" lon="-9.7658717"><ele>9.25</ele><time>2026-05-05T14:03:40.202Z</time></trkpt><trkpt lat="51.4637267" lon="-9.7660583"><ele>9.0</ele><time>2026-05-05T14:03:41.203Z</time></trkpt><trkpt lat="51.4637317" lon="-9.76624"><ele>8.75</ele><time>2026-05-05T14:03:42.203Z</time></trkpt><trkpt lat="51.46375" lon="-9.7664133"><ele>8.5</ele><time>2026-05-05T14:03:43.202Z</time></trkpt><trkpt lat="51.463815" lon="-9.7665933"><ele>8.25</ele><time>2026-05-05T14:03:44.203Z</time></trkpt><trkpt lat="51.4639" lon="-9.7667633"><ele>8.0</ele><time>2026-05-05T14:03:45.203Z</time></trkpt><trkpt lat="51.463955" lon="-9.7670033"><ele>11.5</ele><time>2026-05-05T14:03:46.203Z</time></trkpt><trkpt lat="51.464045" lon="-9.767185"><ele>15.0</ele><time>2026-05-05T14:03:47.202Z</time></trkpt><trkpt lat="51.4641267" lon="-9.767345"><ele>18.5</ele><time>2026-05-05T14:03:48.202Z</time></trkpt><trkpt lat="51.4641917" lon="-9.7674667"><ele>22.0</ele><time>2026-05-05T14:03:49.203Z</time></trkpt><trkpt lat="51.4642483" lon="-9.7675667"><ele>22.0</ele><time>2026-05-05T14:03:50.203Z</time></trkpt><trkpt lat="51.4642983" lon="-9.767655"><ele>22.0</ele><time>2026-05-05T14:03:51.203Z</time></trkpt><trkpt lat="51.4643433" lon="-9.7677317"><ele>22.0</ele><time>2026-05-05T14:03:52.203Z</time></trkpt><trkpt lat="51.4644017" lon="-9.7677983"><ele>22.0</ele><time>2026-05-05T14:03:55.202Z</time></trkpt><trkpt lat="51.4644817" lon="-9.767825"><ele>22.0</ele><time>2026-05-05T14:04:08.203Z</time></trkpt><trkpt lat="51.46454" lon="-9.7678917"><ele>22.0</ele><time>2026-05-05T14:04:10.202Z</time></trkpt><trkpt lat="51.4646467" lon="-9.7679417"><ele>24.400000000000002</ele><time>2026-05-05T14:17:47.202Z</time></trkpt><trkpt lat="51.4647217" lon="-9.7680183"><ele>26.8</ele><time>2026-05-05T14:17:49.202Z</time></trkpt><trkpt lat="51.4647917" lon="-9.7681"><ele>29.2</ele><time>2026-05-05T14:17:50.202Z</time></trkpt><trkpt lat="51.464875" lon="-9.7681867"><ele>31.6</ele><time>2026-05-05T14:17:51.201Z</time></trkpt><trkpt lat="51.4649633" lon="-9.7682617"><ele>34.0</ele><time>2026-05-05T14:17:52.202Z</time></trkpt><trkpt lat="51.465055" lon="-9.7683417"><ele>34.0</ele><time>2026-05-05T14:17:53.202Z</time></trkpt><trkpt lat="51.465145" lon="-9.7684183"><ele>34.0</ele><time>2026-05-05T14:17:54.202Z</time></trkpt><trkpt lat="51.46522" lon="-9.7684883"><ele>34.0</ele><time>2026-05-05T14:17:55.202Z</time></trkpt><trkpt lat="51.465285" lon="-9.7685517"><ele>34.0</ele><time>2026-05-05T14:17:56.201Z</time></trkpt><trkpt lat="51.46534" lon="-9.768605"><ele>34.0</ele><time>2026-05-05T14:17:57.202Z</time></trkpt><trkpt lat="51.46538" lon="-9.7686867"><ele>34.0</ele><time>2026-05-05T14:18:01.202Z</time></trkpt><trkpt lat="51.4654233" lon="-9.768815"><ele>35.16666666666667</ele><time>2026-05-05T14:18:05.202Z</time></trkpt><trkpt lat="51.4654967" lon="-9.7689517"><ele>36.333333333333336</ele><time>2026-05-05T14:18:07.202Z</time></trkpt><trkpt lat="51.4655483" lon="-9.7690133"><ele>37.5</ele><time>2026-05-05T14:18:08.201Z</time></trkpt><trkpt lat="51.4656083" lon="-9.7690833"><ele>38.666666666666664</ele><time>2026-05-05T14:18:09.201Z</time></trkpt><trkpt lat="51.4656817" lon="-9.769155"><ele>39.83333333333333</ele><time>2026-05-05T14:18:10.202Z</time></trkpt><trkpt lat="51.4657633" lon="-9.7692167"><ele>41.0</ele><time>2026-05-05T14:18:11.202Z</time></trkpt><trkpt lat="51.46584" lon="-9.7692667"><ele>41.0</ele><time>2026-05-05T14:18:12.201Z</time></trkpt><trkpt lat="51.4659117" lon="-9.7692883"><ele>41.0</ele><time>2026-05-05T14:18:13.202Z</time></trkpt><trkpt lat="51.4660267" lon="-9.769325"><ele>41.0</ele><time>2026-05-05T14:18:15.202Z</time></trkpt><trkpt lat="51.4661183" lon="-9.7693483"><ele>41.0</ele><time>2026-05-05T14:18:17.202Z</time></trkpt><trkpt lat="51.46619" lon="-9.7693683"><ele>41.0</ele><time>2026-05-05T14:18:19.202Z</time></trkpt><trkpt lat="51.4662717" lon="-9.7694067"><ele>41.0</ele><time>2026-05-05T14:20:18.202Z</time></trkpt><trkpt lat="51.4663667" lon="-9.7693767"><ele>40.4</ele><time>2026-05-05T14:20:20.202Z</time></trkpt><trkpt lat="51.4664433" lon="-9.7693533"><ele>39.8</ele><time>2026-05-05T14:20:21.202Z</time></trkpt><trkpt lat="51.4665383" lon="-9.76932"><ele>39.199999999999996</ele><time>2026-05-05T14:20:22.202Z</time></trkpt><trkpt lat="51.46665" lon="-9.7692783"><ele>38.599999999999994</ele><time>2026-05-05T14:20:23.201Z</time></trkpt><trkpt lat="51.46677" lon="-9.76924"><ele>38.0</ele><time>2026-05-05T14:20:24.202Z</time></trkpt><trkpt lat="51.466895" lon="-9.7692"><ele>38.0</ele><time>2026-05-05T14:20:25.201Z</time></trkpt><trkpt lat="51.4670267" lon="-9.7691733"><ele>38.0</ele><time>2026-05-05T14:20:26.201Z</time></trkpt><trkpt lat="51.4671533" lon="-9.7691517"><ele>38.0</ele><time>2026-05-05T14:20:27.201Z</time></trkpt><trkpt lat="51.46726" lon="-9.76913"><ele>38.0</ele><time>2026-05-05T14:20:28.202Z</time></trkpt><trkpt lat="51.4673867" lon="-9.7691133"><ele>37.25</ele><time>2026-05-05T14:20:29.202Z</time></trkpt><trkpt lat="51.4675317" lon="-9.769095"><ele>36.5</ele><time>2026-05-05T14:20:30.202Z</time></trkpt><trkpt lat="51.4676633" lon="-9.7690833"><ele>35.75</ele><time>2026-05-05T14:20:31.202Z</time></trkpt><trkpt lat="51.46779" lon="-9.7690633"><ele>35.0</ele><time>2026-05-05T14:20:32.202Z</time></trkpt><trkpt lat="51.467905" lon="-9.7690633"><ele>33.8</ele><time>2026-05-05T14:20:33.202Z</time></trkpt><trkpt lat="51.4680167" lon="-9.7690583"><ele>32.6</ele><time>2026-05-05T14:20:34.201Z</time></trkpt><trkpt lat="51.4681233" lon="-9.7690583"><ele>31.4</ele><time>2026-05-05T14:20:35.202Z</time></trkpt><trkpt lat="51.4682317" lon="-9.7690533"><ele>30.2</ele><time>2026-05-05T14:20:36.202Z</time></trkpt><trkpt lat="51.4683417" lon="-9.7690533"><ele>29.0</ele><time>2026-05-05T14:20:37.202Z</time></trkpt><trkpt lat="51.4684383" lon="-9.7690667"><ele>28.999999999999996</ele><time>2026-05-05T14:20:38.201Z</time></trkpt><trkpt lat="51.468525" lon="-9.7690933"><ele>29.0</ele><time>2026-05-05T14:20:39.201Z</time></trkpt><trkpt lat="51.46861" lon="-9.7691183"><ele>29.0</ele><time>2026-05-05T14:20:40.201Z</time></trkpt><trkpt lat="51.4686867" lon="-9.7691467"><ele>29.0</ele><time>2026-05-05T14:20:41.201Z</time></trkpt><trkpt lat="51.468755" lon="-9.769165"><ele>28.999999999999996</ele><time>2026-05-05T14:20:42.202Z</time></trkpt><trkpt lat="51.4688517" lon="-9.769195"><ele>29.0</ele><time>2026-05-05T14:20:44.202Z</time></trkpt><trkpt lat="51.4689267" lon="-9.7692283"><ele>27.799999999999997</ele><time>2026-05-05T14:20:46.202Z</time></trkpt><trkpt lat="51.4690033" lon="-9.7692533"><ele>26.599999999999998</ele><time>2026-05-05T14:20:49.201Z</time></trkpt><trkpt lat="51.4690917" lon="-9.7692167"><ele>25.4</ele><time>2026-05-05T14:21:31.201Z</time></trkpt><trkpt lat="51.46922" lon="-9.769215"><ele>24.2</ele><time>2026-05-05T14:21:33.201Z</time></trkpt><trkpt lat="51.4693" lon="-9.7692067"><ele>23.0</ele><time>2026-05-05T14:21:34.201Z</time></trkpt><trkpt lat="51.4693883" lon="-9.7691883"><ele>23.0</ele><time>2026-05-05T14:21:35.202Z</time></trkpt><trkpt lat="51.46948" lon="-9.7691667"><ele>23.0</ele><time>2026-05-05T14:21:36.202Z</time></trkpt><trkpt lat="51.469585" lon="-9.7691517"><ele>23.0</ele><time>2026-05-05T14:21:37.202Z</time></trkpt><trkpt lat="51.4696933" lon="-9.769125"><ele>23.0</ele><time>2026-05-05T14:21:38.202Z</time></trkpt><trkpt lat="51.4698067" lon="-9.76909"><ele>23.0</ele><time>2026-05-05T14:21:39.202Z</time></trkpt><trkpt lat="51.4699233" lon="-9.7690517"><ele>21.5</ele><time>2026-05-05T14:21:40.202Z</time></trkpt><trkpt lat="51.4700367" lon="-9.76901"><ele>20.0</ele><time>2026-05-05T14:21:41.202Z</time></trkpt><trkpt lat="51.4701517" lon="-9.7689667"><ele>18.5</ele><time>2026-05-05T14:21:42.202Z</time></trkpt><trkpt lat="51.4702683" lon="-9.7689183"><ele>17.0</ele><time>2026-05-05T14:21:43.202Z</time></trkpt><trkpt lat="51.4703767" lon="-9.7688567"><ele>17.5</ele><time>2026-05-05T14:21:44.202Z</time></trkpt><trkpt lat="51.4704817" lon="-9.7687833"><ele>18.0</ele><time>2026-05-05T14:21:45.202Z</time></trkpt><trkpt lat="51.47059" lon="-9.7686967"><ele>18.5</ele><time>2026-05-05T14:21:46.202Z</time></trkpt><trkpt lat="51.470705" lon="-9.7686083"><ele>19.0</ele><time>2026-05-05T14:21:47.201Z</time></trkpt><trkpt lat="51.47081" lon="-9.768505"><ele>19.0</ele><time>2026-05-05T14:21:48.202Z</time></trkpt><trkpt lat="51.4709633" lon="-9.7684233"><ele>19.0</ele><time>2026-05-05T14:21:49.201Z</time></trkpt><trkpt lat="51.4710633" lon="-9.768315"><ele>19.0</ele><time>2026-05-05T14:21:50.202Z</time></trkpt><trkpt lat="51.4711733" lon="-9.7682267"><ele>19.0</ele><time>2026-05-05T14:21:51.201Z</time></trkpt><trkpt lat="51.4712717" lon="-9.7681367"><ele>17.4</ele><time>2026-05-05T14:21:52.202Z</time></trkpt><trkpt lat="51.471375" lon="-9.7680567"><ele>15.799999999999999</ele><time>2026-05-05T14:21:53.201Z</time></trkpt><trkpt lat="51.47148" lon="-9.76799"><ele>14.2</ele><time>2026-05-05T14:21:54.202Z</time></trkpt><trkpt lat="51.4715783" lon="-9.7679267"><ele>12.600000000000001</ele><time>2026-05-05T14:21:55.202Z</time></trkpt><trkpt lat="51.471665" lon="-9.7678717"><ele>11.0</ele><time>2026-05-05T14:21:56.202Z</time></trkpt><trkpt lat="51.4717533" lon="-9.7678133"><ele>11.0</ele><time>2026-05-05T14:21:57.201Z</time></trkpt><trkpt lat="51.4718333" lon="-9.76774"><ele>11.0</ele><time>2026-05-05T14:21:58.201Z</time></trkpt><trkpt lat="51.4719083" lon="-9.7676717"><ele>11.0</ele><time>2026-05-05T14:21:59.202Z</time></trkpt><trkpt lat="51.4719967" lon="-9.76762"><ele>11.0</ele><time>2026-05-05T14:22:00.201Z</time></trkpt><trkpt lat="51.472085" lon="-9.76758"><ele>11.0</ele><time>2026-05-05T14:22:01.202Z</time></trkpt><trkpt lat="51.4721817" lon="-9.767545"><ele>10.25</ele><time>2026-05-05T14:22:02.202Z</time></trkpt><trkpt lat="51.47229" lon="-9.767525"><ele>9.5</ele><time>2026-05-05T14:22:03.202Z</time></trkpt><trkpt lat="51.472425" lon="-9.76752"><ele>8.75</ele><time>2026-05-05T14:22:04.202Z</time></trkpt><trkpt lat="51.47256" lon="-9.7675217"><ele>8.0</ele><time>2026-05-05T14:22:05.202Z</time></trkpt><trkpt lat="51.4726833" lon="-9.7675117"><ele>8.0</ele><time>2026-05-05T14:22:06.202Z</time></trkpt><trkpt lat="51.4727983" lon="-9.767515"><ele>8.0</ele><time>2026-05-05T14:22:07.202Z</time></trkpt><trkpt lat="51.47292" lon="-9.767525"><ele>8.0</ele><time>2026-05-05T14:22:08.201Z</time></trkpt><trkpt lat="51.4730367" lon="-9.767535"><ele>8.0</ele><time>2026-05-05T14:22:09.202Z</time></trkpt><trkpt lat="51.4731733" lon="-9.7675383"><ele>7.0</ele><time>2026-05-05T14:22:10.202Z</time></trkpt><trkpt lat="51.47331" lon="-9.76755"><ele>6.0</ele><time>2026-05-05T14:22:11.201Z</time></trkpt><trkpt lat="51.47344" lon="-9.7675667"><ele>5.0</ele><time>2026-05-05T14:22:12.202Z</time></trkpt><trkpt lat="51.47358" lon="-9.76759"><ele>4.0</ele><time>2026-05-05T14:22:13.201Z</time></trkpt><trkpt lat="51.4737183" lon="-9.7676183"><ele>3.333333333333333</ele><time>2026-05-05T14:22:14.202Z</time></trkpt><trkpt lat="51.47387" lon="-9.767645"><ele>2.6666666666666665</ele><time>2026-05-05T14:22:15.202Z</time></trkpt><trkpt lat="51.474025" lon="-9.7676733"><ele>2.0</ele><time>2026-05-05T14:22:16.201Z</time></trkpt><trkpt lat="51.4741733" lon="-9.767705"><ele>2.0</ele><time>2026-05-05T14:22:17.202Z</time></trkpt><trkpt lat="51.4743217" lon="-9.7677333"><ele>2.0</ele><time>2026-05-05T14:22:18.201Z</time></trkpt><trkpt lat="51.4744633" lon="-9.76777"><ele>2.0</ele><time>2026-05-05T14:22:19.201Z</time></trkpt><trkpt lat="51.4745983" lon="-9.7678167"><ele>2.0</ele><time>2026-05-05T14:22:20.201Z</time></trkpt><trkpt lat="51.47474" lon="-9.7678467"><ele>2.0</ele><time>2026-05-05T14:22:21.201Z</time></trkpt><trkpt lat="51.47488" lon="-9.7678617"><ele>2.0</ele><time>2026-05-05T14:22:22.202Z</time></trkpt><trkpt lat="51.4750117" lon="-9.7678917"><ele>2.0</ele><time>2026-05-05T14:22:23.201Z</time></trkpt><trkpt lat="51.4751467" lon="-9.7679383"><ele>2.0</ele><time>2026-05-05T14:22:24.202Z</time></trkpt><trkpt lat="51.4752767" lon="-9.7679767"><ele>2.0</ele><time>2026-05-05T14:22:25.202Z</time></trkpt><trkpt lat="51.4754017" lon="-9.7679967"><ele>2.0</ele><time>2026-05-05T14:22:26.202Z</time></trkpt><trkpt lat="51.47553" lon="-9.768"><ele>2.0</ele><time>2026-05-05T14:22:27.201Z</time></trkpt><trkpt lat="51.4756617" lon="-9.76801"><ele>2.0</ele><time>2026-05-05T14:22:28.201Z</time></trkpt><trkpt lat="51.4757833" lon="-9.7680417"><ele>2.25</ele><time>2026-05-05T14:22:29.202Z</time></trkpt><trkpt lat="51.4759" lon="-9.768085"><ele>2.5</ele><time>2026-05-05T14:22:30.201Z</time></trkpt><trkpt lat="51.4760317" lon="-9.7681183"><ele>2.75</ele><time>2026-05-05T14:22:31.202Z</time></trkpt><trkpt lat="51.4761767" lon="-9.7681567"><ele>3.0</ele><time>2026-05-05T14:22:32.201Z</time></trkpt><trkpt lat="51.4763183" lon="-9.7682"><ele>2.3333333333333335</ele><time>2026-05-05T14:22:33.201Z</time></trkpt><trkpt lat="51.47647" lon="-9.768245"><ele>1.6666666666666665</ele><time>2026-05-05T14:22:34.201Z</time></trkpt><trkpt lat="51.47662" lon="-9.768295"><ele>1.0</ele><time>2026-05-05T14:22:35.201Z</time></trkpt><trkpt lat="51.4767733" lon="-9.76834"><ele>1.0</ele><time>2026-05-05T14:22:36.201Z</time></trkpt><trkpt lat="51.4769233" lon="-9.7683883"><ele>1.0</ele><time>2026-05-05T14:22:37.201Z</time></trkpt><trkpt lat="51.4770783" lon="-9.7684367"><ele>1.0</ele><time>2026-05-05T14:22:38.201Z</time></trkpt><trkpt lat="51.4772317" lon="-9.7684833"><ele>0.75</ele><time>2026-05-05T14:22:39.2Z</time></trkpt><trkpt lat="51.4773817" lon="-9.768525"><ele>0.5</ele><time>2026-05-05T14:22:40.2Z</time></trkpt><trkpt lat="51.4775283" lon="-9.7685583"><ele>0.25</ele><time>2026-05-05T14:22:41.2Z</time></trkpt><trkpt lat="51.4776667" lon="-9.7685933"><ele>0.0</ele><time>2026-05-05T14:22:42.201Z</time></trkpt><trkpt lat="51.4777983" lon="-9.768635"><ele>0.5</ele><time>2026-05-05T14:22:43.2Z</time></trkpt><trkpt lat="51.47791" lon="-9.768685"><ele>1.0</ele><time>2026-05-05T14:22:44.2Z</time></trkpt><trkpt lat="51.4780267" lon="-9.7687567"><ele>1.5</ele><time>2026-05-05T14:22:45.2Z</time></trkpt><trkpt lat="51.4781217" lon="-9.7688367"><ele>2.0</ele><time>2026-05-05T14:22:46.201Z</time></trkpt><trkpt lat="51.4782117" lon="-9.7689383"><ele>3.333333333333333</ele><time>2026-05-05T14:22:47.201Z</time></trkpt><trkpt lat="51.478275" lon="-9.7690367"><ele>4.666666666666667</ele><time>2026-05-05T14:22:48.201Z</time></trkpt><trkpt lat="51.4783367" lon="-9.769125"><ele>6.0</ele><time>2026-05-05T14:22:49.2Z</time></trkpt><trkpt lat="51.47839" lon="-9.7692017"><ele>7.333333333333334</ele><time>2026-05-05T14:22:50.2Z</time></trkpt><trkpt lat="51.4784317" lon="-9.7693183"><ele>8.666666666666668</ele><time>2026-05-05T14:22:52.201Z</time></trkpt><trkpt lat="51.4784117" lon="-9.7694317"><ele>10.0</ele><time>2026-05-05T14:22:54.201Z</time></trkpt><trkpt lat="51.4783717" lon="-9.7696267"><ele>10.6</ele><time>2026-05-05T14:22:56.201Z</time></trkpt><trkpt lat="51.4783283" lon="-9.7697583"><ele>11.2</ele><time>2026-05-05T14:22:57.201Z</time></trkpt><trkpt lat="51.47828" lon="-9.7699017"><ele>11.8</ele><time>2026-05-05T14:22:58.201Z</time></trkpt><trkpt lat="51.4782267" lon="-9.7700667"><ele>12.4</ele><time>2026-05-05T14:22:59.2Z</time></trkpt><trkpt lat="51.478175" lon="-9.7702517"><ele>13.0</ele><time>2026-05-05T14:23:00.2Z</time></trkpt><trkpt lat="51.478125" lon="-9.77042"><ele>14.25</ele><time>2026-05-05T14:23:01.2Z</time></trkpt><trkpt lat="51.478075" lon="-9.770595"><ele>15.5</ele><time>2026-05-05T14:23:02.201Z</time></trkpt><trkpt lat="51.4779917" lon="-9.7707983"><ele>16.75</ele><time>2026-05-05T14:23:03.201Z</time></trkpt><trkpt lat="51.4779133" lon="-9.771"><ele>18.0</ele><time>2026-05-05T14:23:04.201Z</time></trkpt><trkpt lat="51.4778317" lon="-9.7712067"><ele>16.333333333333332</ele><time>2026-05-05T14:23:05.201Z</time></trkpt><trkpt lat="51.477705" lon="-9.77159"><ele>14.666666666666666</ele><time>2026-05-05T14:23:07.201Z</time></trkpt><trkpt lat="51.4776233" lon="-9.7717617"><ele>13.0</ele><time>2026-05-05T14:23:08.201Z</time></trkpt><trkpt lat="51.4775467" lon="-9.77192"><ele>13.0</ele><time>2026-05-05T14:23:09.2Z</time></trkpt><trkpt lat="51.4774617" lon="-9.7720833"><ele>13.0</ele><time>2026-05-05T14:23:10.201Z</time></trkpt><trkpt lat="51.4773683" lon="-9.772255"><ele>13.0</ele><time>2026-05-05T14:23:11.201Z</time></trkpt><trkpt lat="51.477275" lon="-9.772415"><ele>13.0</ele><time>2026-05-05T14:23:12.201Z</time></trkpt><trkpt lat="51.477195" lon="-9.7725833"><ele>14.25</ele><time>2026-05-05T14:23:13.201Z</time></trkpt><trkpt lat="51.47712" lon="-9.7727533"><ele>15.5</ele><time>2026-05-05T14:23:14.2Z</time></trkpt><trkpt lat="51.477045" lon="-9.7729417"><ele>16.75</ele><time>2026-05-05T14:23:15.201Z</time></trkpt><trkpt lat="51.4769767" lon="-9.77315"><ele>18.0</ele><time>2026-05-05T14:23:16.201Z</time></trkpt><trkpt lat="51.476905" lon="-9.7733733"><ele>15.0</ele><time>2026-05-05T14:23:17.2Z</time></trkpt><trkpt lat="51.4768317" lon="-9.7736117"><ele>12.0</ele><time>2026-05-05T14:23:18.2Z</time></trkpt><trkpt lat="51.476765" lon="-9.77385"><ele>9.0</ele><time>2026-05-05T14:23:19.2Z</time></trkpt><trkpt lat="51.4766967" lon="-9.774095"><ele>9.0</ele><time>2026-05-05T14:23:20.201Z</time></trkpt><trkpt lat="51.4766167" lon="-9.77433"><ele>9.0</ele><time>2026-05-05T14:23:21.201Z</time></trkpt><trkpt lat="51.4765517" lon="-9.774585"><ele>9.0</ele><time>2026-05-05T14:23:22.2Z</time></trkpt><trkpt lat="51.476475" lon="-9.7748367"><ele>8.666666666666666</ele><time>2026-05-05T14:23:23.2Z</time></trkpt><trkpt lat="51.4763833" lon="-9.7750683"><ele>8.333333333333332</ele><time>2026-05-05T14:23:24.201Z</time></trkpt><trkpt lat="51.4762717" lon="-9.7753033"><ele>8.0</ele><time>2026-05-05T14:23:25.201Z</time></trkpt><trkpt lat="51.4761617" lon="-9.7754967"><ele>8.0</ele><time>2026-05-05T14:23:26.201Z</time></trkpt><trkpt lat="51.4760467" lon="-9.7756783"><ele>8.0</ele><time>2026-05-05T14:23:27.201Z</time></trkpt><trkpt lat="51.4759383" lon="-9.7758733"><ele>8.0</ele><time>2026-05-05T14:23:28.2Z</time></trkpt><trkpt lat="51.4758367" lon="-9.7760617"><ele>7.5</ele><time>2026-05-05T14:23:29.2Z</time></trkpt><trkpt lat="51.4757317" lon="-9.7762217"><ele>7.0</ele><time>2026-05-05T14:23:30.2Z</time></trkpt><trkpt lat="51.4756317" lon="-9.7763683"><ele>6.5</ele><time>2026-05-05T14:23:31.2Z</time></trkpt><trkpt lat="51.4755283" lon="-9.7765067"><ele>6.0</ele><time>2026-05-05T14:23:32.201Z</time></trkpt><trkpt lat="51.4754183" lon="-9.776655"><ele>6.0</ele><time>2026-05-05T14:23:33.201Z</time></trkpt><trkpt lat="51.47531" lon="-9.7767967"><ele>6.0</ele><time>2026-05-05T14:23:34.201Z</time></trkpt><trkpt lat="51.4752133" lon="-9.7769583"><ele>6.0</ele><time>2026-05-05T14:23:35.201Z</time></trkpt><trkpt lat="51.4751133" lon="-9.7771417"><ele>6.0</ele><time>2026-05-05T14:23:36.201Z</time></trkpt><trkpt lat="51.4750217" lon="-9.7773367"><ele>8.0</ele><time>2026-05-05T14:23:37.201Z</time></trkpt><trkpt lat="51.4749317" lon="-9.7775483"><ele>10.0</ele><time>2026-05-05T14:23:38.2Z</time></trkpt><trkpt lat="51.4748383" lon="-9.7777683"><ele>12.0</ele><time>2026-05-05T14:23:39.201Z</time></trkpt><trkpt lat="51.4747317" lon="-9.7779833"><ele>13.25</ele><time>2026-05-05T14:23:40.201Z</time></trkpt><trkpt lat="51.47464" lon="-9.7781917"><ele>14.5</ele><time>2026-05-05T14:23:41.201Z</time></trkpt><trkpt lat="51.4745683" lon="-9.7784"><ele>15.75</ele><time>2026-05-05T14:23:42.201Z</time></trkpt><trkpt lat="51.474535" lon="-9.7786167"><ele>17.0</ele><time>2026-05-05T14:23:43.2Z</time></trkpt><trkpt lat="51.474525" lon="-9.7788517"><ele>15.0</ele><time>2026-05-05T14:23:44.201Z</time></trkpt><trkpt lat="51.4745067" lon="-9.779095"><ele>13.0</ele><time>2026-05-05T14:23:45.201Z</time></trkpt><trkpt lat="51.4745083" lon="-9.7793483"><ele>11.0</ele><time>2026-05-05T14:23:46.201Z</time></trkpt><trkpt lat="51.4744983" lon="-9.779595"><ele>11.0</ele><time>2026-05-05T14:23:47.201Z</time></trkpt><trkpt lat="51.474485" lon="-9.779835"><ele>11.0</ele><time>2026-05-05T14:23:48.201Z</time></trkpt><trkpt lat="51.4744667" lon="-9.7800783"><ele>11.0</ele><time>2026-05-05T14:23:49.201Z</time></trkpt><trkpt lat="51.47445" lon="-9.7803167"><ele>11.666666666666666</ele><time>2026-05-05T14:23:50.2Z</time></trkpt><trkpt lat="51.474425" lon="-9.7805583"><ele>12.333333333333332</ele><time>2026-05-05T14:23:51.2Z</time></trkpt><trkpt lat="51.4743983" lon="-9.7807983"><ele>13.0</ele><time>2026-05-05T14:23:52.201Z</time></trkpt><trkpt lat="51.47438" lon="-9.7810517"><ele>14.333333333333332</ele><time>2026-05-05T14:23:53.2Z</time></trkpt><trkpt lat="51.4743833" lon="-9.78132"><ele>15.666666666666668</ele><time>2026-05-05T14:23:54.201Z</time></trkpt><trkpt lat="51.4744067" lon="-9.7815833"><ele>17.0</ele><time>2026-05-05T14:23:55.2Z</time></trkpt><trkpt lat="51.4744283" lon="-9.7818583"><ele>19.0</ele><time>2026-05-05T14:23:56.2Z</time></trkpt><trkpt lat="51.4744633" lon="-9.7821167"><ele>21.0</ele><time>2026-05-05T14:23:57.201Z</time></trkpt><trkpt lat="51.4745133" lon="-9.7823733"><ele>23.0</ele><time>2026-05-05T14:23:58.201Z</time></trkpt><trkpt lat="51.474565" lon="-9.7826333"><ele>24.333333333333336</ele><time>2026-05-05T14:23:59.201Z</time></trkpt><trkpt lat="51.4746283" lon="-9.7828883"><ele>25.666666666666668</ele><time>2026-05-05T14:24:00.2Z</time></trkpt><trkpt lat="51.474685" lon="-9.7831467"><ele>27.0</ele><time>2026-05-05T14:24:01.2Z</time></trkpt><trkpt lat="51.4747367" lon="-9.783365"><ele>27.5</ele><time>2026-05-05T14:24:02.2Z</time></trkpt><trkpt lat="51.4747833" lon="-9.7835717"><ele>28.0</ele><time>2026-05-05T14:24:03.201Z</time></trkpt><trkpt lat="51.4748267" lon="-9.7837867"><ele>28.5</ele><time>2026-05-05T14:24:04.2Z</time></trkpt><trkpt lat="51.47485" lon="-9.7839833"><ele>29.0</ele><time>2026-05-05T14:24:05.201Z</time></trkpt><trkpt lat="51.4748667" lon="-9.78419"><ele>29.0</ele><time>2026-05-05T14:24:06.201Z</time></trkpt><trkpt lat="51.4748683" lon="-9.7844067"><ele>29.0</ele><time>2026-05-05T14:24:07.201Z</time></trkpt><trkpt lat="51.474855" lon="-9.7846333"><ele>29.0</ele><time>2026-05-05T14:24:08.201Z</time></trkpt><trkpt lat="51.4748433" lon="-9.78489"><ele>29.0</ele><time>2026-05-05T14:24:09.201Z</time></trkpt><trkpt lat="51.474835" lon="-9.7851433"><ele>29.333333333333332</ele><time>2026-05-05T14:24:10.201Z</time></trkpt><trkpt lat="51.474805" lon="-9.7854217"><ele>29.666666666666664</ele><time>2026-05-05T14:24:11.201Z</time></trkpt><trkpt lat="51.47479" lon="-9.785685"><ele>30.0</ele><time>2026-05-05T14:24:12.201Z</time></trkpt><trkpt lat="51.474765" lon="-9.785955"><ele>30.666666666666664</ele><time>2026-05-05T14:24:13.2Z</time></trkpt><trkpt lat="51.4747367" lon="-9.786215"><ele>31.333333333333332</ele><time>2026-05-05T14:24:14.2Z</time></trkpt><trkpt lat="51.4746917" lon="-9.7864833"><ele>32.0</ele><time>2026-05-05T14:24:15.201Z</time></trkpt><trkpt lat="51.474635" lon="-9.7867417"><ele>33.0</ele><time>2026-05-05T14:24:16.201Z</time></trkpt><trkpt lat="51.47459" lon="-9.7869717"><ele>34.0</ele><time>2026-05-05T14:24:17.201Z</time></trkpt><trkpt lat="51.474555" lon="-9.7871683"><ele>35.0</ele><time>2026-05-05T14:24:18.2Z</time></trkpt><trkpt lat="51.4745233" lon="-9.7873317"><ele>36.0</ele><time>2026-05-05T14:24:19.201Z</time></trkpt><trkpt lat="51.4744833" lon="-9.78745"><ele>36.0</ele><time>2026-05-05T14:24:20.2Z</time></trkpt><trkpt lat="51.4744517" lon="-9.787545"><ele>36.0</ele><time>2026-05-05T14:24:21.201Z</time></trkpt><trkpt lat="51.4744117" lon="-9.78766"><ele>36.0</ele><time>2026-05-05T14:24:23.201Z</time></trkpt><trkpt lat="51.4743133" lon="-9.7876483"><ele>36.0</ele><time>2026-05-05T14:24:28.2Z</time></trkpt><trkpt lat="51.4741933" lon="-9.78751"><ele>36.0</ele><time>2026-05-05T14:24:30.2Z</time></trkpt><trkpt lat="51.4741017" lon="-9.7874083"><ele>36.0</ele><time>2026-05-05T14:24:31.2Z</time></trkpt><trkpt lat="51.47398" lon="-9.7872667"><ele>36.0</ele><time>2026-05-05T14:24:32.201Z</time></trkpt><trkpt lat="51.4738583" lon="-9.7871233"><ele>36.0</ele><time>2026-05-05T14:24:33.201Z</time></trkpt><trkpt lat="51.4737183" lon="-9.7869567"><ele>35.666666666666664</ele><time>2026-05-05T14:24:34.201Z</time></trkpt><trkpt lat="51.4735883" lon="-9.7868133"><ele>35.33333333333333</ele><time>2026-05-05T14:24:35.201Z</time></trkpt><trkpt lat="51.4734467" lon="-9.78665"><ele>35.0</ele><time>2026-05-05T14:24:36.201Z</time></trkpt><trkpt lat="51.4733067" lon="-9.786495"><ele>35.0</ele><time>2026-05-05T14:24:37.201Z</time></trkpt><trkpt lat="51.47315" lon="-9.7863217"><ele>35.0</ele><time>2026-05-05T14:24:38.201Z</time></trkpt><trkpt lat="51.4730033" lon="-9.7861333"><ele>35.0</ele><time>2026-05-05T14:24:39.201Z</time></trkpt><trkpt lat="51.4728533" lon="-9.7859433"><ele>35.666666666666664</ele><time>2026-05-05T14:24:40.201Z</time></trkpt><trkpt lat="51.47272" lon="-9.7857383"><ele>36.333333333333336</ele><time>2026-05-05T14:24:41.2Z</time></trkpt><trkpt lat="51.4725733" lon="-9.785525"><ele>37.0</ele><time>2026-05-05T14:24:42.201Z</time></trkpt><trkpt lat="51.47244" lon="-9.7853367"><ele>37.66666666666667</ele><time>2026-05-05T14:24:43.2Z</time></trkpt><trkpt lat="51.4722967" lon="-9.7851583"><ele>38.333333333333336</ele><time>2026-05-05T14:24:44.201Z</time></trkpt><trkpt lat="51.4721533" lon="-9.78497"><ele>39.0</ele><time>2026-05-05T14:24:45.201Z</time></trkpt><trkpt lat="51.472025" lon="-9.7847883"><ele>39.0</ele><time>2026-05-05T14:24:46.2Z</time></trkpt><trkpt lat="51.4719083" lon="-9.7846167"><ele>39.0</ele><time>2026-05-05T14:24:47.201Z</time></trkpt><trkpt lat="51.471785" lon="-9.78444"><ele>39.0</ele><time>2026-05-05T14:24:48.2Z</time></trkpt><trkpt lat="51.4716833" lon="-9.784285"><ele>38.0</ele><time>2026-05-05T14:24:49.201Z</time></trkpt><trkpt lat="51.4715817" lon="-9.7841367"><ele>37.0</ele><time>2026-05-05T14:24:50.201Z</time></trkpt><trkpt lat="51.4714817" lon="-9.7839883"><ele>36.0</ele><time>2026-05-05T14:24:51.2Z</time></trkpt><trkpt lat="51.47138" lon="-9.7838367"><ele>35.0</ele><time>2026-05-05T14:24:52.201Z</time></trkpt><trkpt lat="51.471285" lon="-9.7836917"><ele>36.2</ele><time>2026-05-05T14:24:53.201Z</time></trkpt><trkpt lat="51.4712" lon="-9.78357"><ele>37.4</ele><time>2026-05-05T14:24:54.2Z</time></trkpt><trkpt lat="51.4711267" lon="-9.7834567"><ele>38.599999999999994</ele><time>2026-05-05T14:24:55.201Z</time></trkpt><trkpt lat="51.4710567" lon="-9.7833467"><ele>39.8</ele><time>2026-05-05T14:24:56.2Z</time></trkpt><trkpt lat="51.4709867" lon="-9.78324"><ele>41.0</ele><time>2026-05-05T14:24:57.201Z</time></trkpt><trkpt lat="51.4709083" lon="-9.7831333"><ele>41.0</ele><time>2026-05-05T14:24:58.2Z</time></trkpt><trkpt lat="51.4708233" lon="-9.7830217"><ele>41.0</ele><time>2026-05-05T14:24:59.2Z</time></trkpt><trkpt lat="51.47073" lon="-9.78289"><ele>41.0</ele><time>2026-05-05T14:25:00.201Z</time></trkpt><trkpt lat="51.4706033" lon="-9.78277"><ele>41.0</ele><time>2026-05-05T14:25:01.201Z</time></trkpt><trkpt lat="51.4704883" lon="-9.7826567"><ele>41.25</ele><time>2026-05-05T14:25:02.2Z</time></trkpt><trkpt lat="51.47036" lon="-9.7825467"><ele>41.5</ele><time>2026-05-05T14:25:03.201Z</time></trkpt><trkpt lat="51.4702317" lon="-9.7824433"><ele>41.75</ele><time>2026-05-05T14:25:04.201Z</time></trkpt><trkpt lat="51.4701117" lon="-9.7823533"><ele>42.0</ele><time>2026-05-05T14:25:05.201Z</time></trkpt><trkpt lat="51.4699917" lon="-9.7822767"><ele>42.0</ele><time>2026-05-05T14:25:06.201Z</time></trkpt><trkpt lat="51.46989" lon="-9.78223"><ele>42.0</ele><time>2026-05-05T14:25:07.2Z</time></trkpt><trkpt lat="51.4697683" lon="-9.7821717"><ele>42.0</ele><time>2026-05-05T14:25:08.2Z</time></trkpt><trkpt lat="51.4696667" lon="-9.7821267"><ele>42.0</ele><time>2026-05-05T14:25:09.201Z</time></trkpt><trkpt lat="51.4695583" lon="-9.7820867"><ele>42.0</ele><time>2026-05-05T14:25:10.201Z</time></trkpt><trkpt lat="51.4694417" lon="-9.7820467"><ele>44.25</ele><time>2026-05-05T14:25:11.2Z</time></trkpt><trkpt lat="51.4692967" lon="-9.782005"><ele>46.5</ele><time>2026-05-05T14:25:12.201Z</time></trkpt><trkpt lat="51.46916" lon="-9.78197"><ele>48.75</ele><time>2026-05-05T14:25:13.201Z</time></trkpt><trkpt lat="51.4690133" lon="-9.7819467"><ele>51.0</ele><time>2026-05-05T14:25:14.2Z</time></trkpt><trkpt lat="51.468865" lon="-9.7819233"><ele>52.25</ele><time>2026-05-05T14:25:15.2Z</time></trkpt><trkpt lat="51.46873" lon="-9.7819083"><ele>53.5</ele><time>2026-05-05T14:25:16.2Z</time></trkpt><trkpt lat="51.46861" lon="-9.781905"><ele>54.75</ele><time>2026-05-05T14:25:17.2Z</time></trkpt><trkpt lat="51.4684833" lon="-9.7819"><ele>56.0</ele><time>2026-05-05T14:25:18.201Z</time></trkpt><trkpt lat="51.46837" lon="-9.781905"><ele>56.0</ele><time>2026-05-05T14:25:19.2Z</time></trkpt><trkpt lat="51.4682383" lon="-9.7819033"><ele>56.0</ele><time>2026-05-05T14:25:20.201Z</time></trkpt><trkpt lat="51.4681017" lon="-9.7819067"><ele>56.0</ele><time>2026-05-05T14:25:21.201Z</time></trkpt><trkpt lat="51.4679633" lon="-9.781895"><ele>56.0</ele><time>2026-05-05T14:25:22.201Z</time></trkpt><trkpt lat="51.4677883" lon="-9.781855"><ele>53.0</ele><time>2026-05-05T14:25:23.2Z</time></trkpt><trkpt lat="51.4676283" lon="-9.7817933"><ele>50.0</ele><time>2026-05-05T14:25:24.201Z</time></trkpt><trkpt lat="51.4674633" lon="-9.7817217"><ele>47.0</ele><time>2026-05-05T14:25:25.201Z</time></trkpt><trkpt lat="51.4673017" lon="-9.7816633"><ele>47.0</ele><time>2026-05-05T14:25:26.201Z</time></trkpt><trkpt lat="51.4671533" lon="-9.7816033"><ele>47.0</ele><time>2026-05-05T14:25:27.2Z</time></trkpt><trkpt lat="51.4670017" lon="-9.7815533"><ele>47.0</ele><time>2026-05-05T14:25:28.201Z</time></trkpt><trkpt lat="51.4668633" lon="-9.7815"><ele>47.5</ele><time>2026-05-05T14:25:29.201Z</time></trkpt><trkpt lat="51.46675" lon="-9.7814533"><ele>48.0</ele><time>2026-05-05T14:25:30.201Z</time></trkpt><trkpt lat="51.4666567" lon="-9.781405"><ele>48.5</ele><time>2026-05-05T14:25:31.2Z</time></trkpt><trkpt lat="51.4665833" lon="-9.78137"><ele>49.0</ele><time>2026-05-05T14:25:32.201Z</time></trkpt><trkpt lat="51.4665183" lon="-9.78135"><ele>49.50000000000001</ele><time>2026-05-05T14:25:33.2Z</time></trkpt><trkpt lat="51.4664467" lon="-9.7813533"><ele>50.0</ele><time>2026-05-05T14:25:34.2Z</time></trkpt><trkpt lat="51.4663883" lon="-9.7814033"><ele>50.0</ele><time>2026-05-05T14:25:35.201Z</time></trkpt><trkpt lat="51.4663217" lon="-9.7814767"><ele>50.0</ele><time>2026-05-05T14:25:36.2Z</time></trkpt><trkpt lat="51.46626" lon="-9.781595"><ele>50.0</ele><time>2026-05-05T14:25:37.201Z</time></trkpt><trkpt lat="51.46619" lon="-9.7817483"><ele>50.0</ele><time>2026-05-05T14:25:38.2Z</time></trkpt><trkpt lat="51.4660933" lon="-9.781915"><ele>50.0</ele><time>2026-05-05T14:25:39.2Z</time></trkpt><trkpt lat="51.4659967" lon="-9.7820467"><ele>53.25</ele><time>2026-05-05T14:25:40.201Z</time></trkpt><trkpt lat="51.4658733" lon="-9.7821783"><ele>56.5</ele><time>2026-05-05T14:25:41.2Z</time></trkpt><trkpt lat="51.4657617" lon="-9.7822817"><ele>59.75</ele><time>2026-05-05T14:25:42.201Z</time></trkpt><trkpt lat="51.4656517" lon="-9.782385"><ele>63.0</ele><time>2026-05-05T14:25:43.2Z</time></trkpt><trkpt lat="51.465535" lon="-9.7824883"><ele>63.5</ele><time>2026-05-05T14:25:44.201Z</time></trkpt><trkpt lat="51.465395" lon="-9.7825867"><ele>64.0</ele><time>2026-05-05T14:25:45.2Z</time></trkpt><trkpt lat="51.46527" lon="-9.7826783"><ele>64.5</ele><time>2026-05-05T14:25:46.201Z</time></trkpt><trkpt lat="51.4651667" lon="-9.7827733"><ele>65.0</ele><time>2026-05-05T14:25:47.201Z</time></trkpt><trkpt lat="51.4650667" lon="-9.78288"><ele>65.0</ele><time>2026-05-05T14:25:48.201Z</time></trkpt><trkpt lat="51.4649817" lon="-9.7830167"><ele>65.0</ele><time>2026-05-05T14:25:49.201Z</time></trkpt><trkpt lat="51.4649017" lon="-9.7831717"><ele>65.0</ele><time>2026-05-05T14:25:50.201Z</time></trkpt><trkpt lat="51.4648233" lon="-9.7833283"><ele>65.0</ele><time>2026-05-05T14:25:51.201Z</time></trkpt><trkpt lat="51.46476" lon="-9.783495"><ele>64.6</ele><time>2026-05-05T14:25:52.2Z</time></trkpt><trkpt lat="51.4646867" lon="-9.783645"><ele>64.2</ele><time>2026-05-05T14:25:53.2Z</time></trkpt><trkpt lat="51.464635" lon="-9.7837733"><ele>63.8</ele><time>2026-05-05T14:25:54.201Z</time></trkpt><trkpt lat="51.4645883" lon="-9.78388"><ele>63.4</ele><time>2026-05-05T14:25:55.201Z</time></trkpt><trkpt lat="51.4645183" lon="-9.7840383"><ele>63.0</ele><time>2026-05-05T14:25:57.201Z</time></trkpt><trkpt lat="51.4644833" lon="-9.7841333"><ele>63.0</ele><time>2026-05-05T14:25:58.201Z</time></trkpt><trkpt lat="51.4644433" lon="-9.7842383"><ele>63.0</ele><time>2026-05-05T14:25:59.201Z</time></trkpt><trkpt lat="51.46439" lon="-9.7843433"><ele>63.0</ele><time>2026-05-05T14:26:00.201Z</time></trkpt><trkpt lat="51.4643417" lon="-9.7844633"><ele>63.0</ele><time>2026-05-05T14:26:01.201Z</time></trkpt><trkpt lat="51.464285" lon="-9.78459"><ele>63.0</ele><time>2026-05-05T14:26:02.201Z</time></trkpt><trkpt lat="51.4642267" lon="-9.7847367"><ele>65.0</ele><time>2026-05-05T14:26:03.201Z</time></trkpt><trkpt lat="51.464155" lon="-9.7848983"><ele>67.0</ele><time>2026-05-05T14:26:04.201Z</time></trkpt><trkpt lat="51.4640867" lon="-9.7850667"><ele>69.0</ele><time>2026-05-05T14:26:05.201Z</time></trkpt><trkpt lat="51.4640167" lon="-9.7852417"><ele>71.0</ele><time>2026-05-05T14:26:06.2Z</time></trkpt><trkpt lat="51.4639417" lon="-9.7854133"><ele>70.5</ele><time>2026-05-05T14:26:07.201Z</time></trkpt><trkpt lat="51.4638633" lon="-9.7855833"><ele>70.0</ele><time>2026-05-05T14:26:08.2Z</time></trkpt><trkpt lat="51.46378" lon="-9.7857683"><ele>69.5</ele><time>2026-05-05T14:26:09.201Z</time></trkpt><trkpt lat="51.463695" lon="-9.7859667"><ele>69.0</ele><time>2026-05-05T14:26:10.2Z</time></trkpt><trkpt lat="51.463565" lon="-9.7861483"><ele>71.33333333333333</ele><time>2026-05-05T14:26:11.201Z</time></trkpt><trkpt lat="51.463465" lon="-9.7863467"><ele>73.66666666666666</ele><time>2026-05-05T14:26:12.201Z</time></trkpt><trkpt lat="51.46336" lon="-9.7865467"><ele>76.0</ele><time>2026-05-05T14:26:13.201Z</time></trkpt><trkpt lat="51.4632533" lon="-9.7867433"><ele>77.33333333333333</ele><time>2026-05-05T14:26:14.201Z</time></trkpt><trkpt lat="51.46315" lon="-9.7869333"><ele>78.66666666666667</ele><time>2026-05-05T14:26:15.201Z</time></trkpt><trkpt lat="51.4630383" lon="-9.7871267"><ele>80.0</ele><time>2026-05-05T14:26:16.2Z</time></trkpt><trkpt lat="51.46291" lon="-9.7873283"><ele>80.0</ele><time>2026-05-05T14:26:17.2Z</time></trkpt><trkpt lat="51.4627983" lon="-9.7875233"><ele>80.0</ele><time>2026-05-05T14:26:18.2Z</time></trkpt><trkpt lat="51.4626883" lon="-9.7877167"><ele>80.0</ele><time>2026-05-05T14:26:19.2Z</time></trkpt><trkpt lat="51.462575" lon="-9.7879117"><ele>82.0</ele><time>2026-05-05T14:26:20.2Z</time></trkpt><trkpt lat="51.4624633" lon="-9.7881"><ele>84.0</ele><time>2026-05-05T14:26:21.201Z</time></trkpt><trkpt lat="51.4623517" lon="-9.78828"><ele>86.0</ele><time>2026-05-05T14:26:22.201Z</time></trkpt><trkpt lat="51.4622383" lon="-9.788455"><ele>86.33333333333334</ele><time>2026-05-05T14:26:23.201Z</time></trkpt><trkpt lat="51.462125" lon="-9.78863"><ele>86.66666666666667</ele><time>2026-05-05T14:26:24.2Z</time></trkpt><trkpt lat="51.46201" lon="-9.788805"><ele>87.0</ele><time>2026-05-05T14:26:25.201Z</time></trkpt><trkpt lat="51.4618967" lon="-9.78899"><ele>87.0</ele><time>2026-05-05T14:26:26.2Z</time></trkpt><trkpt lat="51.4617833" lon="-9.7891683"><ele>87.0</ele><time>2026-05-05T14:26:27.201Z</time></trkpt><trkpt lat="51.4616483" lon="-9.7893483"><ele>87.0</ele><time>2026-05-05T14:26:28.201Z</time></trkpt><trkpt lat="51.4615433" lon="-9.7895283"><ele>88.66666666666667</ele><time>2026-05-05T14:26:29.201Z</time></trkpt><trkpt lat="51.4614283" lon="-9.7897367"><ele>90.33333333333334</ele><time>2026-05-05T14:26:30.201Z</time></trkpt><trkpt lat="51.4613233" lon="-9.7899583"><ele>92.0</ele><time>2026-05-05T14:26:31.2Z</time></trkpt><trkpt lat="51.4612067" lon="-9.7901767"><ele>92.0</ele><time>2026-05-05T14:26:32.201Z</time></trkpt><trkpt lat="51.4610917" lon="-9.7904167"><ele>92.0</ele><time>2026-05-05T14:26:33.2Z</time></trkpt><trkpt lat="51.460965" lon="-9.7906533"><ele>92.0</ele><time>2026-05-05T14:26:34.2Z</time></trkpt><trkpt lat="51.4608433" lon="-9.7908933"><ele>94.66666666666667</ele><time>2026-05-05T14:26:35.201Z</time></trkpt><trkpt lat="51.4607217" lon="-9.7911383"><ele>97.33333333333334</ele><time>2026-05-05T14:26:36.201Z</time></trkpt><trkpt lat="51.4606083" lon="-9.79137"><ele>100.0</ele><time>2026-05-05T14:26:37.201Z</time></trkpt><trkpt lat="51.4605" lon="-9.7915867"><ele>99.66666666666667</ele><time>2026-05-05T14:26:38.2Z</time></trkpt><trkpt lat="51.4604033" lon="-9.7917983"><ele>99.33333333333334</ele><time>2026-05-05T14:26:39.2Z</time></trkpt><trkpt lat="51.460305" lon="-9.7920017"><ele>99.0</ele><time>2026-05-05T14:26:40.201Z</time></trkpt><trkpt lat="51.4602167" lon="-9.7921833"><ele>99.0</ele><time>2026-05-05T14:26:41.201Z</time></trkpt><trkpt lat="51.460135" lon="-9.7923383"><ele>99.0</ele><time>2026-05-05T14:26:42.201Z</time></trkpt><trkpt lat="51.460075" lon="-9.7924717"><ele>99.0</ele><time>2026-05-05T14:26:43.2Z</time></trkpt><trkpt lat="51.4600167" lon="-9.7925917"><ele>99.0</ele><time>2026-05-05T14:26:44.2Z</time></trkpt><trkpt lat="51.459945" lon="-9.7926917"><ele>99.0</ele><time>2026-05-05T14:26:45.201Z</time></trkpt><trkpt lat="51.45986" lon="-9.792785"><ele>99.0</ele><time>2026-05-05T14:26:46.201Z</time></trkpt><trkpt lat="51.4597533" lon="-9.7928817"><ele>99.0</ele><time>2026-05-05T14:26:47.2Z</time></trkpt><trkpt lat="51.4596317" lon="-9.7929917"><ele>99.0</ele><time>2026-05-05T14:26:48.2Z</time></trkpt><trkpt lat="51.45952" lon="-9.7931117"><ele>99.0</ele><time>2026-05-05T14:26:49.201Z</time></trkpt><trkpt lat="51.4593967" lon="-9.7932367"><ele>99.0</ele><time>2026-05-05T14:26:50.2Z</time></trkpt><trkpt lat="51.4592667" lon="-9.7933633"><ele>99.0</ele><time>2026-05-05T14:26:51.2Z</time></trkpt><trkpt lat="51.459115" lon="-9.79348"><ele>99.0</ele><time>2026-05-05T14:26:52.2Z</time></trkpt><trkpt lat="51.4589983" lon="-9.7936183"><ele>100.0</ele><time>2026-05-05T14:26:53.201Z</time></trkpt><trkpt lat="51.45887" lon="-9.7937467"><ele>101.0</ele><time>2026-05-05T14:26:54.201Z</time></trkpt><trkpt lat="51.4587283" lon="-9.79388"><ele>102.0</ele><time>2026-05-05T14:26:55.2Z</time></trkpt><trkpt lat="51.458585" lon="-9.7940083"><ele>102.0</ele><time>2026-05-05T14:26:56.201Z</time></trkpt><trkpt lat="51.4584317" lon="-9.7941283"><ele>102.0</ele><time>2026-05-05T14:26:57.2Z</time></trkpt><trkpt lat="51.4582867" lon="-9.7942517"><ele>102.0</ele><time>2026-05-05T14:26:58.201Z</time></trkpt><trkpt lat="51.4581383" lon="-9.7943667"><ele>103.0</ele><time>2026-05-05T14:26:59.201Z</time></trkpt><trkpt lat="51.4579917" lon="-9.79445"><ele>104.0</ele><time>2026-05-05T14:27:00.201Z</time></trkpt><trkpt lat="51.4578467" lon="-9.79455"><ele>105.0</ele><time>2026-05-05T14:27:01.2Z</time></trkpt><trkpt lat="51.4577067" lon="-9.7946117"><ele>105.0</ele><time>2026-05-05T14:27:02.201Z</time></trkpt><trkpt lat="51.457585" lon="-9.7946467"><ele>105.0</ele><time>2026-05-05T14:27:03.201Z</time></trkpt><trkpt lat="51.4574883" lon="-9.7946933"><ele>105.0</ele><time>2026-05-05T14:27:04.201Z</time></trkpt><trkpt lat="51.4573783" lon="-9.7947367"><ele>105.0</ele><time>2026-05-05T14:27:05.201Z</time></trkpt><trkpt lat="51.4572817" lon="-9.7948283"><ele>105.0</ele><time>2026-05-05T14:27:06.201Z</time></trkpt><trkpt lat="51.4571883" lon="-9.7949367"><ele>105.0</ele><time>2026-05-05T14:27:07.201Z</time></trkpt><trkpt lat="51.4570967" lon="-9.79505"><ele>105.0</ele><time>2026-05-05T14:27:08.201Z</time></trkpt><trkpt lat="51.457025" lon="-9.79517"><ele>105.0</ele><time>2026-05-05T14:27:09.2Z</time></trkpt><trkpt lat="51.456955" lon="-9.795305"><ele>105.0</ele><time>2026-05-05T14:27:10.201Z</time></trkpt><trkpt lat="51.4568983" lon="-9.7954783"><ele>104.75</ele><time>2026-05-05T14:27:11.2Z</time></trkpt><trkpt lat="51.4568417" lon="-9.7956783"><ele>104.5</ele><time>2026-05-05T14:27:12.201Z</time></trkpt><trkpt lat="51.4567983" lon="-9.7958733"><ele>104.25</ele><time>2026-05-05T14:27:13.201Z</time></trkpt><trkpt lat="51.4567533" lon="-9.7960617"><ele>104.0</ele><time>2026-05-05T14:27:14.201Z</time></trkpt><trkpt lat="51.4567117" lon="-9.796235"><ele>104.0</ele><time>2026-05-05T14:27:15.2Z</time></trkpt><trkpt lat="51.456685" lon="-9.7964183"><ele>104.0</ele><time>2026-05-05T14:27:16.201Z</time></trkpt><trkpt lat="51.4566733" lon="-9.7965833"><ele>104.0</ele><time>2026-05-05T14:27:17.201Z</time></trkpt><trkpt lat="51.4566733" lon="-9.7967317"><ele>104.0</ele><time>2026-05-05T14:27:18.2Z</time></trkpt><trkpt lat="51.4566833" lon="-9.7968783"><ele>104.0</ele><time>2026-05-05T14:27:19.2Z</time></trkpt><trkpt lat="51.456695" lon="-9.7970267"><ele>104.0</ele><time>2026-05-05T14:27:20.201Z</time></trkpt><trkpt lat="51.4567067" lon="-9.797165"><ele>104.0</ele><time>2026-05-05T14:27:21.2Z</time></trkpt><trkpt lat="51.45671" lon="-9.797305"><ele>104.0</ele><time>2026-05-05T14:27:22.201Z</time></trkpt><trkpt lat="51.4567317" lon="-9.797465"><ele>104.0</ele><time>2026-05-05T14:27:23.2Z</time></trkpt><trkpt lat="51.45676" lon="-9.797635"><ele>104.0</ele><time>2026-05-05T14:27:24.201Z</time></trkpt><trkpt lat="51.4567833" lon="-9.797825"><ele>103.25</ele><time>2026-05-05T14:27:25.201Z</time></trkpt><trkpt lat="51.45681" lon="-9.7980233"><ele>102.5</ele><time>2026-05-05T14:27:26.201Z</time></trkpt><trkpt lat="51.4568267" lon="-9.7982417"><ele>101.75</ele><time>2026-05-05T14:27:27.2Z</time></trkpt><trkpt lat="51.4568433" lon="-9.798475"><ele>101.0</ele><time>2026-05-05T14:27:28.2Z</time></trkpt><trkpt lat="51.4568417" lon="-9.7987217"><ele>100.0</ele><time>2026-05-05T14:27:29.201Z</time></trkpt><trkpt lat="51.4568433" lon="-9.79896"><ele>99.0</ele><time>2026-05-05T14:27:30.201Z</time></trkpt><trkpt lat="51.456855" lon="-9.7992"><ele>98.0</ele><time>2026-05-05T14:27:31.201Z</time></trkpt><trkpt lat="51.45687" lon="-9.79944"><ele>97.0</ele><time>2026-05-05T14:27:32.201Z</time></trkpt><trkpt lat="51.4568867" lon="-9.7996967"><ele>96.5</ele><time>2026-05-05T14:27:33.2Z</time></trkpt><trkpt lat="51.4569067" lon="-9.7999483"><ele>96.0</ele><time>2026-05-05T14:27:34.2Z</time></trkpt><trkpt lat="51.4569267" lon="-9.80018"><ele>95.5</ele><time>2026-05-05T14:27:35.2Z</time></trkpt><trkpt lat="51.4569433" lon="-9.8003933"><ele>95.0</ele><time>2026-05-05T14:27:36.201Z</time></trkpt><trkpt lat="51.456965" lon="-9.8005967"><ele>94.75</ele><time>2026-05-05T14:27:37.201Z</time></trkpt><trkpt lat="51.4569667" lon="-9.8008133"><ele>94.5</ele><time>2026-05-05T14:27:38.201Z</time></trkpt><trkpt lat="51.456965" lon="-9.8010333"><ele>94.25</ele><time>2026-05-05T14:27:39.2Z</time></trkpt><trkpt lat="51.45696" lon="-9.8012617"><ele>94.0</ele><time>2026-05-05T14:27:40.201Z</time></trkpt><trkpt lat="51.4569317" lon="-9.80152"><ele>94.0</ele><time>2026-05-05T14:27:41.201Z</time></trkpt><trkpt lat="51.4569083" lon="-9.80177"><ele>94.0</ele><time>2026-05-05T14:27:42.2Z</time></trkpt><trkpt lat="51.456885" lon="-9.8020217"><ele>94.0</ele><time>2026-05-05T14:27:43.2Z</time></trkpt><trkpt lat="51.4568583" lon="-9.80225"><ele>95.33333333333333</ele><time>2026-05-05T14:27:44.201Z</time></trkpt><trkpt lat="51.4568283" lon="-9.80247"><ele>96.66666666666666</ele><time>2026-05-05T14:27:45.2Z</time></trkpt><trkpt lat="51.4567567" lon="-9.8026917"><ele>98.0</ele><time>2026-05-05T14:27:46.201Z</time></trkpt><trkpt lat="51.45667" lon="-9.8029033"><ele>100.66666666666666</ele><time>2026-05-05T14:27:47.201Z</time></trkpt><trkpt lat="51.45658" lon="-9.8031083"><ele>103.33333333333334</ele><time>2026-05-05T14:27:48.201Z</time></trkpt><trkpt lat="51.45649" lon="-9.8033117"><ele>106.0</ele><time>2026-05-05T14:27:49.201Z</time></trkpt><trkpt lat="51.4563883" lon="-9.8034867"><ele>108.33333333333334</ele><time>2026-05-05T14:27:50.2Z</time></trkpt><trkpt lat="51.45629" lon="-9.8036567"><ele>110.66666666666666</ele><time>2026-05-05T14:27:51.201Z</time></trkpt><trkpt lat="51.4561817" lon="-9.8038283"><ele>113.0</ele><time>2026-05-05T14:27:52.2Z</time></trkpt><trkpt lat="51.456055" lon="-9.8039967"><ele>111.0</ele><time>2026-05-05T14:27:53.2Z</time></trkpt><trkpt lat="51.455915" lon="-9.8041583"><ele>109.0</ele><time>2026-05-05T14:27:54.2Z</time></trkpt><trkpt lat="51.4557817" lon="-9.8043183"><ele>107.0</ele><time>2026-05-05T14:27:55.201Z</time></trkpt><trkpt lat="51.4556517" lon="-9.80447"><ele>107.0</ele><time>2026-05-05T14:27:56.201Z</time></trkpt><trkpt lat="51.4555333" lon="-9.8046233"><ele>107.0</ele><time>2026-05-05T14:27:57.2Z</time></trkpt><trkpt lat="51.455425" lon="-9.80477"><ele>107.0</ele><time>2026-05-05T14:27:58.201Z</time></trkpt><trkpt lat="51.45532" lon="-9.8049033"><ele>107.0</ele><time>2026-05-05T14:27:59.201Z</time></trkpt><trkpt lat="51.4552217" lon="-9.8050533"><ele>105.25</ele><time>2026-05-05T14:28:00.201Z</time></trkpt><trkpt lat="51.4551267" lon="-9.8052017"><ele>103.5</ele><time>2026-05-05T14:28:01.201Z</time></trkpt><trkpt lat="51.4550283" lon="-9.8053467"><ele>101.75</ele><time>2026-05-05T14:28:02.201Z</time></trkpt><trkpt lat="51.4549417" lon="-9.8055033"><ele>100.0</ele><time>2026-05-05T14:28:03.2Z</time></trkpt><trkpt lat="51.454845" lon="-9.805635"><ele>100.0</ele><time>2026-05-05T14:28:04.201Z</time></trkpt><trkpt lat="51.4547433" lon="-9.805765"><ele>100.0</ele><time>2026-05-05T14:28:05.2Z</time></trkpt><trkpt lat="51.4546317" lon="-9.8058983"><ele>100.0</ele><time>2026-05-05T14:28:06.201Z</time></trkpt><trkpt lat="51.454505" lon="-9.806005"><ele>100.0</ele><time>2026-05-05T14:28:07.2Z</time></trkpt><trkpt lat="51.45438" lon="-9.8061217"><ele>99.5</ele><time>2026-05-05T14:28:08.201Z</time></trkpt><trkpt lat="51.4542533" lon="-9.8062283"><ele>99.0</ele><time>2026-05-05T14:28:09.201Z</time></trkpt><trkpt lat="51.4541367" lon="-9.8063217"><ele>98.5</ele><time>2026-05-05T14:28:10.201Z</time></trkpt><trkpt lat="51.4540283" lon="-9.8064083"><ele>98.0</ele><time>2026-05-05T14:28:11.201Z</time></trkpt><trkpt lat="51.45392" lon="-9.8064683"><ele>98.0</ele><time>2026-05-05T14:28:12.2Z</time></trkpt><trkpt lat="51.453835" lon="-9.8065367"><ele>98.0</ele><time>2026-05-05T14:28:13.201Z</time></trkpt><trkpt lat="51.4537383" lon="-9.806595"><ele>98.0</ele><time>2026-05-05T14:28:14.201Z</time></trkpt><trkpt lat="51.453645" lon="-9.806685"><ele>98.0</ele><time>2026-05-05T14:28:15.201Z</time></trkpt><trkpt lat="51.4535567" lon="-9.8068"><ele>98.0</ele><time>2026-05-05T14:28:16.201Z</time></trkpt><trkpt lat="51.4534667" lon="-9.8069267"><ele>97.25</ele><time>2026-05-05T14:28:17.2Z</time></trkpt><trkpt lat="51.4533733" lon="-9.80705"><ele>96.5</ele><time>2026-05-05T14:28:18.2Z</time></trkpt><trkpt lat="51.4532817" lon="-9.80717"><ele>95.75</ele><time>2026-05-05T14:28:19.2Z</time></trkpt><trkpt lat="51.4531933" lon="-9.8072867"><ele>95.0</ele><time>2026-05-05T14:28:20.201Z</time></trkpt><trkpt lat="51.4531033" lon="-9.8073933"><ele>95.0</ele><time>2026-05-05T14:28:21.201Z</time></trkpt><trkpt lat="51.45303" lon="-9.8074883"><ele>95.0</ele><time>2026-05-05T14:28:22.201Z</time></trkpt><trkpt lat="51.4529717" lon="-9.80757"><ele>95.0</ele><time>2026-05-05T14:28:23.201Z</time></trkpt><trkpt lat="51.452925" lon="-9.8076417"><ele>95.0</ele><time>2026-05-05T14:28:24.2Z</time></trkpt><trkpt lat="51.4528667" lon="-9.8077267"><ele>95.0</ele><time>2026-05-05T14:28:26.201Z</time></trkpt><trkpt lat="51.4528167" lon="-9.8078133"><ele>95.0</ele><time>2026-05-05T14:28:28.2Z</time></trkpt><trkpt lat="51.4527633" lon="-9.807895"><ele>94.83333333333334</ele><time>2026-05-05T14:28:31.201Z</time></trkpt><trkpt lat="51.45271" lon="-9.807975"><ele>94.66666666666667</ele><time>2026-05-05T14:28:33.2Z</time></trkpt><trkpt lat="51.452655" lon="-9.8080467"><ele>94.5</ele><time>2026-05-05T14:28:35.201Z</time></trkpt><trkpt lat="51.4525983" lon="-9.8081283"><ele>94.33333333333333</ele><time>2026-05-05T14:28:37.2Z</time></trkpt><trkpt lat="51.4525267" lon="-9.8082583"><ele>94.16666666666666</ele><time>2026-05-05T14:28:39.201Z</time></trkpt><trkpt lat="51.452465" lon="-9.8084083"><ele>94.0</ele><time>2026-05-05T14:28:41.201Z</time></trkpt><trkpt lat="51.4523933" lon="-9.80856"><ele>94.0</ele><time>2026-05-05T14:28:43.2Z</time></trkpt><trkpt lat="51.45232" lon="-9.80872"><ele>94.0</ele><time>2026-05-05T14:28:45.201Z</time></trkpt><trkpt lat="51.4522667" lon="-9.808815"><ele>94.0</ele><time>2026-05-05T14:28:46.201Z</time></trkpt><trkpt lat="51.4522083" lon="-9.8088933"><ele>94.0</ele><time>2026-05-05T14:28:47.201Z</time></trkpt><trkpt lat="51.45216" lon="-9.8089783"><ele>94.0</ele><time>2026-05-05T14:28:48.2Z</time></trkpt><trkpt lat="51.4521167" lon="-9.8090733"><ele>94.0</ele><time>2026-05-05T14:28:49.201Z</time></trkpt><trkpt lat="51.4520767" lon="-9.8091733"><ele>89.5</ele><time>2026-05-05T14:28:50.201Z</time></trkpt><trkpt lat="51.4520383" lon="-9.8092617"><ele>85.0</ele><time>2026-05-05T14:28:51.201Z</time></trkpt><trkpt lat="51.4520017" lon="-9.809345"><ele>80.5</ele><time>2026-05-05T14:28:52.2Z</time></trkpt><trkpt lat="51.4519467" lon="-9.80949"><ele>76.0</ele><time>2026-05-05T14:28:54.201Z</time></trkpt><trkpt lat="51.4519017" lon="-9.8096283"><ele>71.5</ele><time>2026-05-05T14:28:56.201Z</time></trkpt><trkpt lat="51.4518817" lon="-9.809725"><ele>67.0</ele><time>2026-05-05T14:28:58.201Z</time></trkpt><trkpt lat="51.451855" lon="-9.809825"><ele>67.0</ele><time>2026-05-05T14:29:00.201Z</time></trkpt><trkpt lat="51.451815" lon="-9.80992"><ele>67.0</ele><time>2026-05-05T14:29:02.2Z</time></trkpt><trkpt lat="51.451845" lon="-9.8101133"><ele>67.0</ele><time>2026-05-05T14:35:42.2Z</time></trkpt><trkpt lat="51.4518517" lon="-9.8100083"><ele>67.0</ele><time>2026-05-05T15:27:23.194Z</time></trkpt><trkpt lat="51.45187" lon="-9.8099067"><ele>67.0</ele><time>2026-05-05T15:27:25.194Z</time></trkpt><trkpt lat="51.4518883" lon="-9.809795"><ele>67.0</ele><time>2026-05-05T15:27:28.193Z</time></trkpt><trkpt lat="51.4519233" lon="-9.8096383"><ele>67.0</ele><time>2026-05-05T15:27:48.193Z</time></trkpt><trkpt lat="51.4519833" lon="-9.8094317"><ele>67.0</ele><time>2026-05-05T15:27:50.193Z</time></trkpt><trkpt lat="51.452035" lon="-9.8092917"><ele>67.0</ele><time>2026-05-05T15:27:51.194Z</time></trkpt><trkpt lat="51.4520933" lon="-9.809155"><ele>67.0</ele><time>2026-05-05T15:27:52.194Z</time></trkpt><trkpt lat="51.452155" lon="-9.809025"><ele>67.0</ele><time>2026-05-05T15:27:53.194Z</time></trkpt><trkpt lat="51.4522217" lon="-9.8089067"><ele>70.16666666666666</ele><time>2026-05-05T15:27:54.193Z</time></trkpt><trkpt lat="51.4522883" lon="-9.8087967"><ele>73.33333333333333</ele><time>2026-05-05T15:27:55.193Z</time></trkpt><trkpt lat="51.4523483" lon="-9.8087033"><ele>76.5</ele><time>2026-05-05T15:27:56.194Z</time></trkpt><trkpt lat="51.4524017" lon="-9.8086117"><ele>79.66666666666667</ele><time>2026-05-05T15:27:57.193Z</time></trkpt><trkpt lat="51.452445" lon="-9.8085333"><ele>82.83333333333334</ele><time>2026-05-05T15:27:58.194Z</time></trkpt><trkpt lat="51.4525217" lon="-9.8084233"><ele>86.0</ele><time>2026-05-05T15:28:00.193Z</time></trkpt><trkpt lat="51.4526033" lon="-9.8082783"><ele>86.0</ele><time>2026-05-05T15:28:02.194Z</time></trkpt><trkpt lat="51.4526617" lon="-9.808185"><ele>86.0</ele><time>2026-05-05T15:28:03.193Z</time></trkpt><trkpt lat="51.4527333" lon="-9.8080783"><ele>86.0</ele><time>2026-05-05T15:28:04.194Z</time></trkpt><trkpt lat="51.4528017" lon="-9.807965"><ele>86.0</ele><time>2026-05-05T15:28:05.194Z</time></trkpt><trkpt lat="51.4528683" lon="-9.80784"><ele>86.0</ele><time>2026-05-05T15:28:06.193Z</time></trkpt><trkpt lat="51.4529417" lon="-9.8077033"><ele>88.25</ele><time>2026-05-05T15:28:07.194Z</time></trkpt><trkpt lat="51.45303" lon="-9.8075667"><ele>90.5</ele><time>2026-05-05T15:28:08.193Z</time></trkpt><trkpt lat="51.453135" lon="-9.807415"><ele>92.75</ele><time>2026-05-05T15:28:09.193Z</time></trkpt><trkpt lat="51.4532417" lon="-9.8072833"><ele>95.0</ele><time>2026-05-05T15:28:10.194Z</time></trkpt><trkpt lat="51.45335" lon="-9.807145"><ele>95.0</ele><time>2026-05-05T15:28:11.193Z</time></trkpt><trkpt lat="51.4534717" lon="-9.80699"><ele>95.0</ele><time>2026-05-05T15:28:12.194Z</time></trkpt><trkpt lat="51.45358" lon="-9.8068483"><ele>95.0</ele><time>2026-05-05T15:28:13.194Z</time></trkpt><trkpt lat="51.45368" lon="-9.80672"><ele>95.0</ele><time>2026-05-05T15:28:14.194Z</time></trkpt><trkpt lat="51.4537817" lon="-9.80661"><ele>95.75</ele><time>2026-05-05T15:28:15.193Z</time></trkpt><trkpt lat="51.453885" lon="-9.80652"><ele>96.5</ele><time>2026-05-05T15:28:16.193Z</time></trkpt><trkpt lat="51.4540033" lon="-9.8064267"><ele>97.25</ele><time>2026-05-05T15:28:17.194Z</time></trkpt><trkpt lat="51.45412" lon="-9.8063117"><ele>98.0</ele><time>2026-05-05T15:28:18.194Z</time></trkpt><trkpt lat="51.4542367" lon="-9.8062283"><ele>98.0</ele><time>2026-05-05T15:28:19.194Z</time></trkpt><trkpt lat="51.4543383" lon="-9.8061667"><ele>98.0</ele><time>2026-05-05T15:28:20.194Z</time></trkpt><trkpt lat="51.4544467" lon="-9.806095"><ele>98.0</ele><time>2026-05-05T15:28:21.193Z</time></trkpt><trkpt lat="51.4545583" lon="-9.8060083"><ele>98.0</ele><time>2026-05-05T15:28:22.193Z</time></trkpt><trkpt lat="51.4546667" lon="-9.80592"><ele>98.5</ele><time>2026-05-05T15:28:23.193Z</time></trkpt><trkpt lat="51.4547733" lon="-9.8058183"><ele>99.0</ele><time>2026-05-05T15:28:24.193Z</time></trkpt><trkpt lat="51.4548633" lon="-9.8056533"><ele>99.5</ele><time>2026-05-05T15:28:25.193Z</time></trkpt><trkpt lat="51.4549583" lon="-9.8055"><ele>100.0</ele><time>2026-05-05T15:28:26.194Z</time></trkpt><trkpt lat="51.4550483" lon="-9.805355"><ele>100.0</ele><time>2026-05-05T15:28:27.194Z</time></trkpt><trkpt lat="51.4551433" lon="-9.8052067"><ele>100.0</ele><time>2026-05-05T15:28:28.193Z</time></trkpt><trkpt lat="51.4552317" lon="-9.8050783"><ele>100.0</ele><time>2026-05-05T15:28:29.194Z</time></trkpt><trkpt lat="51.4553217" lon="-9.8049633"><ele>100.0</ele><time>2026-05-05T15:28:30.193Z</time></trkpt><trkpt lat="51.4554067" lon="-9.8048517"><ele>101.75</ele><time>2026-05-05T15:28:31.193Z</time></trkpt><trkpt lat="51.4554883" lon="-9.80474"><ele>103.5</ele><time>2026-05-05T15:28:32.194Z</time></trkpt><trkpt lat="51.4555783" lon="-9.804625"><ele>105.25</ele><time>2026-05-05T15:28:33.193Z</time></trkpt><trkpt lat="51.4556717" lon="-9.804495"><ele>107.0</ele><time>2026-05-05T15:28:34.194Z</time></trkpt><trkpt lat="51.455785" lon="-9.8043683"><ele>108.5</ele><time>2026-05-05T15:28:35.194Z</time></trkpt><trkpt lat="51.455885" lon="-9.80426"><ele>110.0</ele><time>2026-05-05T15:28:36.194Z</time></trkpt><trkpt lat="51.4559917" lon="-9.8041267"><ele>111.5</ele><time>2026-05-05T15:28:37.194Z</time></trkpt><trkpt lat="51.4561017" lon="-9.8039867"><ele>113.0</ele><time>2026-05-05T15:28:38.193Z</time></trkpt><trkpt lat="51.45631" lon="-9.8037483"><ele>113.0</ele><time>2026-05-05T15:28:40.193Z</time></trkpt><trkpt lat="51.4564" lon="-9.80361"><ele>113.0</ele><time>2026-05-05T15:28:41.194Z</time></trkpt><trkpt lat="51.4564867" lon="-9.8034417"><ele>113.0</ele><time>2026-05-05T15:28:42.193Z</time></trkpt><trkpt lat="51.4565733" lon="-9.8032633"><ele>113.0</ele><time>2026-05-05T15:28:43.194Z</time></trkpt><trkpt lat="51.4566517" lon="-9.8030717"><ele>111.25</ele><time>2026-05-05T15:28:44.194Z</time></trkpt><trkpt lat="51.45673" lon="-9.802885"><ele>109.5</ele><time>2026-05-05T15:28:45.193Z</time></trkpt><trkpt lat="51.4568067" lon="-9.8026867"><ele>107.75</ele><time>2026-05-05T15:28:46.193Z</time></trkpt><trkpt lat="51.4568733" lon="-9.8024933"><ele>106.0</ele><time>2026-05-05T15:28:47.194Z</time></trkpt><trkpt lat="51.456935" lon="-9.8022717"><ele>103.33333333333334</ele><time>2026-05-05T15:28:48.194Z</time></trkpt><trkpt lat="51.45696" lon="-9.8020333"><ele>100.66666666666666</ele><time>2026-05-05T15:28:49.194Z</time></trkpt><trkpt lat="51.45697" lon="-9.8018117"><ele>98.0</ele><time>2026-05-05T15:28:50.194Z</time></trkpt><trkpt lat="51.456995" lon="-9.8015433"><ele>96.66666666666666</ele><time>2026-05-05T15:28:51.194Z</time></trkpt><trkpt lat="51.4570067" lon="-9.8012817"><ele>95.33333333333333</ele><time>2026-05-05T15:28:52.194Z</time></trkpt><trkpt lat="51.456995" lon="-9.8010217"><ele>94.0</ele><time>2026-05-05T15:28:53.194Z</time></trkpt><trkpt lat="51.4569867" lon="-9.8007933"><ele>94.0</ele><time>2026-05-05T15:28:54.193Z</time></trkpt><trkpt lat="51.4569833" lon="-9.8005783"><ele>94.0</ele><time>2026-05-05T15:28:55.194Z</time></trkpt><trkpt lat="51.4569733" lon="-9.8003767"><ele>94.0</ele><time>2026-05-05T15:28:56.193Z</time></trkpt><trkpt lat="51.4569617" lon="-9.800175"><ele>94.0</ele><time>2026-05-05T15:28:57.194Z</time></trkpt><trkpt lat="51.4569417" lon="-9.7999483"><ele>94.25</ele><time>2026-05-05T15:28:58.194Z</time></trkpt><trkpt lat="51.4569067" lon="-9.7997283"><ele>94.5</ele><time>2026-05-05T15:28:59.194Z</time></trkpt><trkpt lat="51.4568883" lon="-9.799495"><ele>94.75</ele><time>2026-05-05T15:29:00.194Z</time></trkpt><trkpt lat="51.4568733" lon="-9.7992783"><ele>95.0</ele><time>2026-05-05T15:29:01.194Z</time></trkpt><trkpt lat="51.45686" lon="-9.7990783"><ele>95.66666666666667</ele><time>2026-05-05T15:29:02.194Z</time></trkpt><trkpt lat="51.456855" lon="-9.7988683"><ele>96.33333333333334</ele><time>2026-05-05T15:29:03.193Z</time></trkpt><trkpt lat="51.456875" lon="-9.7983867"><ele>97.0</ele><time>2026-05-05T15:29:05.193Z</time></trkpt><trkpt lat="51.4568617" lon="-9.7981333"><ele>98.0</ele><time>2026-05-05T15:29:06.193Z</time></trkpt><trkpt lat="51.45684" lon="-9.7979"><ele>99.0</ele><time>2026-05-05T15:29:07.193Z</time></trkpt><trkpt lat="51.45681" lon="-9.7976783"><ele>100.0</ele><time>2026-05-05T15:29:08.194Z</time></trkpt><trkpt lat="51.4567767" lon="-9.7974633"><ele>101.0</ele><time>2026-05-05T15:29:09.194Z</time></trkpt><trkpt lat="51.45675" lon="-9.7972667"><ele>101.75</ele><time>2026-05-05T15:29:10.194Z</time></trkpt><trkpt lat="51.456735" lon="-9.79704"><ele>102.5</ele><time>2026-05-05T15:29:11.194Z</time></trkpt><trkpt lat="51.4567267" lon="-9.7968283"><ele>103.25</ele><time>2026-05-05T15:29:12.193Z</time></trkpt><trkpt lat="51.4567083" lon="-9.7966283"><ele>104.0</ele><time>2026-05-05T15:29:13.193Z</time></trkpt><trkpt lat="51.4567167" lon="-9.7964383"><ele>104.0</ele><time>2026-05-05T15:29:14.194Z</time></trkpt><trkpt lat="51.456745" lon="-9.7962517"><ele>104.0</ele><time>2026-05-05T15:29:15.193Z</time></trkpt><trkpt lat="51.4567933" lon="-9.7960683"><ele>104.0</ele><time>2026-05-05T15:29:16.193Z</time></trkpt><trkpt lat="51.4568417" lon="-9.79591"><ele>104.0</ele><time>2026-05-05T15:29:17.194Z</time></trkpt><trkpt lat="51.4568983" lon="-9.7957567"><ele>103.80000000000001</ele><time>2026-05-05T15:29:18.194Z</time></trkpt><trkpt lat="51.456945" lon="-9.7955967"><ele>103.60000000000001</ele><time>2026-05-05T15:29:19.194Z</time></trkpt><trkpt lat="51.4569883" lon="-9.7954583"><ele>103.4</ele><time>2026-05-05T15:29:20.194Z</time></trkpt><trkpt lat="51.4570267" lon="-9.7953317"><ele>103.2</ele><time>2026-05-05T15:29:21.193Z</time></trkpt><trkpt lat="51.4570767" lon="-9.795215"><ele>103.0</ele><time>2026-05-05T15:29:22.193Z</time></trkpt><trkpt lat="51.4571733" lon="-9.7950367"><ele>103.33333333333334</ele><time>2026-05-05T15:29:24.194Z</time></trkpt><trkpt lat="51.4572317" lon="-9.794965"><ele>103.66666666666667</ele><time>2026-05-05T15:29:25.193Z</time></trkpt><trkpt lat="51.457295" lon="-9.7948983"><ele>104.0</ele><time>2026-05-05T15:29:26.193Z</time></trkpt><trkpt lat="51.4573817" lon="-9.7948217"><ele>104.33333333333334</ele><time>2026-05-05T15:29:27.194Z</time></trkpt><trkpt lat="51.4574667" lon="-9.7947633"><ele>104.66666666666667</ele><time>2026-05-05T15:29:28.193Z</time></trkpt><trkpt lat="51.4575617" lon="-9.7947067"><ele>105.0</ele><time>2026-05-05T15:29:29.194Z</time></trkpt><trkpt lat="51.4576717" lon="-9.794665"><ele>105.0</ele><time>2026-05-05T15:29:30.194Z</time></trkpt><trkpt lat="51.4577883" lon="-9.794615"><ele>105.0</ele><time>2026-05-05T15:29:31.193Z</time></trkpt><trkpt lat="51.45791" lon="-9.7945583"><ele>105.0</ele><time>2026-05-05T15:29:32.194Z</time></trkpt><trkpt lat="51.4580233" lon="-9.7945067"><ele>105.0</ele><time>2026-05-05T15:29:33.194Z</time></trkpt><trkpt lat="51.4581433" lon="-9.794425"><ele>104.25</ele><time>2026-05-05T15:29:34.194Z</time></trkpt><trkpt lat="51.4582817" lon="-9.79434"><ele>103.5</ele><time>2026-05-05T15:29:35.194Z</time></trkpt><trkpt lat="51.4584167" lon="-9.7942467"><ele>102.75</ele><time>2026-05-05T15:29:36.193Z</time></trkpt><trkpt lat="51.458565" lon="-9.7941917"><ele>102.0</ele><time>2026-05-05T15:29:37.194Z</time></trkpt><trkpt lat="51.4586967" lon="-9.794075"><ele>103.33333333333334</ele><time>2026-05-05T15:29:38.194Z</time></trkpt><trkpt lat="51.4588283" lon="-9.7939783"><ele>104.66666666666667</ele><time>2026-05-05T15:29:39.194Z</time></trkpt><trkpt lat="51.4589567" lon="-9.7937983"><ele>106.0</ele><time>2026-05-05T15:29:40.193Z</time></trkpt><trkpt lat="51.45909" lon="-9.793665"><ele>106.0</ele><time>2026-05-05T15:29:41.194Z</time></trkpt><trkpt lat="51.459225" lon="-9.7935233"><ele>106.0</ele><time>2026-05-05T15:29:42.193Z</time></trkpt><trkpt lat="51.4593633" lon="-9.7933983"><ele>106.0</ele><time>2026-05-05T15:29:43.194Z</time></trkpt><trkpt lat="51.4595" lon="-9.7932583"><ele>106.0</ele><time>2026-05-05T15:29:44.193Z</time></trkpt><trkpt lat="51.4596433" lon="-9.793105"><ele>106.0</ele><time>2026-05-05T15:29:45.194Z</time></trkpt><trkpt lat="51.4597783" lon="-9.79297"><ele>106.0</ele><time>2026-05-05T15:29:46.193Z</time></trkpt><trkpt lat="51.4599083" lon="-9.79283"><ele>106.0</ele><time>2026-05-05T15:29:47.194Z</time></trkpt><trkpt lat="51.4600233" lon="-9.792685"><ele>106.0</ele><time>2026-05-05T15:29:48.194Z</time></trkpt><trkpt lat="51.46013" lon="-9.792535"><ele>106.0</ele><time>2026-05-05T15:29:49.194Z</time></trkpt><trkpt lat="51.46023" lon="-9.7923633"><ele>106.0</ele><time>2026-05-05T15:29:50.194Z</time></trkpt><trkpt lat="51.4603233" lon="-9.792155"><ele>104.0</ele><time>2026-05-05T15:29:51.193Z</time></trkpt><trkpt lat="51.4604383" lon="-9.7919417"><ele>102.0</ele><time>2026-05-05T15:29:52.194Z</time></trkpt><trkpt lat="51.46054" lon="-9.7917317"><ele>100.0</ele><time>2026-05-05T15:29:53.193Z</time></trkpt><trkpt lat="51.4606417" lon="-9.7915583"><ele>100.0</ele><time>2026-05-05T15:29:54.193Z</time></trkpt><trkpt lat="51.460725" lon="-9.79139"><ele>100.0</ele><time>2026-05-05T15:29:55.193Z</time></trkpt><trkpt lat="51.460795" lon="-9.7912067"><ele>100.0</ele><time>2026-05-05T15:29:56.194Z</time></trkpt><trkpt lat="51.4608783" lon="-9.7910167"><ele>100.0</ele><time>2026-05-05T15:29:57.193Z</time></trkpt><trkpt lat="51.46097" lon="-9.7908217"><ele>97.33333333333334</ele><time>2026-05-05T15:29:58.194Z</time></trkpt><trkpt lat="51.4610683" lon="-9.7906267"><ele>94.66666666666667</ele><time>2026-05-05T15:29:59.194Z</time></trkpt><trkpt lat="51.46116" lon="-9.7904317"><ele>92.0</ele><time>2026-05-05T15:30:00.194Z</time></trkpt><trkpt lat="51.4612583" lon="-9.7902583"><ele>92.0</ele><time>2026-05-05T15:30:01.194Z</time></trkpt><trkpt lat="51.4613517" lon="-9.79008"><ele>92.0</ele><time>2026-05-05T15:30:02.194Z</time></trkpt><trkpt lat="51.46144" lon="-9.7899033"><ele>92.0</ele><time>2026-05-05T15:30:03.194Z</time></trkpt><trkpt lat="51.4615283" lon="-9.7897333"><ele>92.0</ele><time>2026-05-05T15:30:04.194Z</time></trkpt><trkpt lat="51.461615" lon="-9.7895767"><ele>92.0</ele><time>2026-05-05T15:30:05.194Z</time></trkpt><trkpt lat="51.4617067" lon="-9.7894217"><ele>92.0</ele><time>2026-05-05T15:30:06.194Z</time></trkpt><trkpt lat="51.4618" lon="-9.7892767"><ele>92.0</ele><time>2026-05-05T15:30:07.194Z</time></trkpt><trkpt lat="51.4619017" lon="-9.7891233"><ele>92.0</ele><time>2026-05-05T15:30:08.194Z</time></trkpt><trkpt lat="51.4620033" lon="-9.7889567"><ele>91.66666666666667</ele><time>2026-05-05T15:30:09.193Z</time></trkpt><trkpt lat="51.4621067" lon="-9.7887617"><ele>91.33333333333333</ele><time>2026-05-05T15:30:10.194Z</time></trkpt><trkpt lat="51.4622183" lon="-9.78857"><ele>91.0</ele><time>2026-05-05T15:30:11.194Z</time></trkpt><trkpt lat="51.462335" lon="-9.7883617"><ele>89.33333333333333</ele><time>2026-05-05T15:30:12.193Z</time></trkpt><trkpt lat="51.4624483" lon="-9.7881733"><ele>87.66666666666667</ele><time>2026-05-05T15:30:13.194Z</time></trkpt><trkpt lat="51.4625467" lon="-9.7880083"><ele>86.0</ele><time>2026-05-05T15:30:14.194Z</time></trkpt><trkpt lat="51.4626483" lon="-9.78784"><ele>86.0</ele><time>2026-05-05T15:30:15.193Z</time></trkpt><trkpt lat="51.4627283" lon="-9.7876817"><ele>86.0</ele><time>2026-05-05T15:30:16.193Z</time></trkpt><trkpt lat="51.46281" lon="-9.787515"><ele>86.0</ele><time>2026-05-05T15:30:17.193Z</time></trkpt><trkpt lat="51.4629067" lon="-9.7873467"><ele>86.0</ele><time>2026-05-05T15:30:18.194Z</time></trkpt><trkpt lat="51.4630133" lon="-9.787185"><ele>85.25</ele><time>2026-05-05T15:30:19.194Z</time></trkpt><trkpt lat="51.463115" lon="-9.78702"><ele>84.5</ele><time>2026-05-05T15:30:20.194Z</time></trkpt><trkpt lat="51.4632167" lon="-9.78684"><ele>83.75</ele><time>2026-05-05T15:30:21.194Z</time></trkpt><trkpt lat="51.4633017" lon="-9.7866633"><ele>83.0</ele><time>2026-05-05T15:30:22.194Z</time></trkpt><trkpt lat="51.4634017" lon="-9.7864733"><ele>80.66666666666667</ele><time>2026-05-05T15:30:23.194Z</time></trkpt><trkpt lat="51.4634733" lon="-9.7862917"><ele>78.33333333333333</ele><time>2026-05-05T15:30:24.193Z</time></trkpt><trkpt lat="51.4635733" lon="-9.78609"><ele>76.0</ele><time>2026-05-05T15:30:25.194Z</time></trkpt><trkpt lat="51.463685" lon="-9.7859067"><ele>76.66666666666666</ele><time>2026-05-05T15:30:26.193Z</time></trkpt><trkpt lat="51.4637817" lon="-9.7857117"><ele>77.33333333333333</ele><time>2026-05-05T15:30:27.194Z</time></trkpt><trkpt lat="51.4638983" lon="-9.78551"><ele>78.0</ele><time>2026-05-05T15:30:28.194Z</time></trkpt><trkpt lat="51.4639983" lon="-9.785305"><ele>76.25</ele><time>2026-05-05T15:30:29.194Z</time></trkpt><trkpt lat="51.4640717" lon="-9.7851183"><ele>74.5</ele><time>2026-05-05T15:30:30.194Z</time></trkpt><trkpt lat="51.46415" lon="-9.7849267"><ele>72.75</ele><time>2026-05-05T15:30:31.194Z</time></trkpt><trkpt lat="51.4642367" lon="-9.7847367"><ele>71.0</ele><time>2026-05-05T15:30:32.194Z</time></trkpt><trkpt lat="51.464325" lon="-9.7845567"><ele>71.0</ele><time>2026-05-05T15:30:33.193Z</time></trkpt><trkpt lat="51.464415" lon="-9.7843717"><ele>71.0</ele><time>2026-05-05T15:30:34.194Z</time></trkpt><trkpt lat="51.4644917" lon="-9.7842"><ele>71.0</ele><time>2026-05-05T15:30:35.193Z</time></trkpt><trkpt lat="51.4646617" lon="-9.783825"><ele>72.0</ele><time>2026-05-05T15:30:37.193Z</time></trkpt><trkpt lat="51.4647417" lon="-9.783645"><ele>73.0</ele><time>2026-05-05T15:30:38.194Z</time></trkpt><trkpt lat="51.4648167" lon="-9.7834867"><ele>74.0</ele><time>2026-05-05T15:30:39.194Z</time></trkpt><trkpt lat="51.4648983" lon="-9.7833083"><ele>75.0</ele><time>2026-05-05T15:30:40.193Z</time></trkpt><trkpt lat="51.46498" lon="-9.7831383"><ele>72.5</ele><time>2026-05-05T15:30:41.193Z</time></trkpt><trkpt lat="51.4650933" lon="-9.7829667"><ele>70.0</ele><time>2026-05-05T15:30:42.193Z</time></trkpt><trkpt lat="51.4652" lon="-9.7828217"><ele>67.5</ele><time>2026-05-05T15:30:43.193Z</time></trkpt><trkpt lat="51.4652983" lon="-9.7827017"><ele>65.0</ele><time>2026-05-05T15:30:44.194Z</time></trkpt><trkpt lat="51.4653833" lon="-9.7826083"><ele>64.5</ele><time>2026-05-05T15:30:45.193Z</time></trkpt><trkpt lat="51.4654817" lon="-9.7825167"><ele>64.0</ele><time>2026-05-05T15:30:46.194Z</time></trkpt><trkpt lat="51.465585" lon="-9.7824283"><ele>63.5</ele><time>2026-05-05T15:30:47.194Z</time></trkpt><trkpt lat="51.46569" lon="-9.78234"><ele>63.0</ele><time>2026-05-05T15:30:48.194Z</time></trkpt><trkpt lat="51.4658" lon="-9.782245"><ele>63.0</ele><time>2026-05-05T15:30:49.194Z</time></trkpt><trkpt lat="51.4659133" lon="-9.7821533"><ele>63.0</ele><time>2026-05-05T15:30:50.194Z</time></trkpt><trkpt lat="51.4660283" lon="-9.78206"><ele>63.0</ele><time>2026-05-05T15:30:51.194Z</time></trkpt><trkpt lat="51.4661233" lon="-9.7819433"><ele>63.0</ele><time>2026-05-05T15:30:52.194Z</time></trkpt><trkpt lat="51.46621" lon="-9.7818233"><ele>60.4</ele><time>2026-05-05T15:30:53.194Z</time></trkpt><trkpt lat="51.466305" lon="-9.7817067"><ele>57.8</ele><time>2026-05-05T15:30:54.194Z</time></trkpt><trkpt lat="51.4663867" lon="-9.7815933"><ele>55.2</ele><time>2026-05-05T15:30:55.194Z</time></trkpt><trkpt lat="51.46646" lon="-9.7815017"><ele>52.6</ele><time>2026-05-05T15:30:56.193Z</time></trkpt><trkpt lat="51.4665267" lon="-9.78144"><ele>50.0</ele><time>2026-05-05T15:30:57.193Z</time></trkpt><trkpt lat="51.46665" lon="-9.78141"><ele>50.0</ele><time>2026-05-05T15:30:59.194Z</time></trkpt><trkpt lat="51.466725" lon="-9.7814367"><ele>50.0</ele><time>2026-05-05T15:31:00.194Z</time></trkpt><trkpt lat="51.4667983" lon="-9.7814767"><ele>50.0</ele><time>2026-05-05T15:31:01.194Z</time></trkpt><trkpt lat="51.466885" lon="-9.781535"><ele>50.0</ele><time>2026-05-05T15:31:02.194Z</time></trkpt><trkpt lat="51.46699" lon="-9.7815983"><ele>50.0</ele><time>2026-05-05T15:31:03.194Z</time></trkpt><trkpt lat="51.4671067" lon="-9.7816533"><ele>49.25</ele><time>2026-05-05T15:31:04.193Z</time></trkpt><trkpt lat="51.4672383" lon="-9.78174"><ele>48.5</ele><time>2026-05-05T15:31:05.194Z</time></trkpt><trkpt lat="51.467365" lon="-9.781815"><ele>47.75</ele><time>2026-05-05T15:31:06.194Z</time></trkpt><trkpt lat="51.4674967" lon="-9.78185"><ele>47.0</ele><time>2026-05-05T15:31:07.194Z</time></trkpt><trkpt lat="51.4676117" lon="-9.7818433"><ele>49.25</ele><time>2026-05-05T15:31:08.194Z</time></trkpt><trkpt lat="51.4677283" lon="-9.781885"><ele>51.5</ele><time>2026-05-05T15:31:09.194Z</time></trkpt><trkpt lat="51.467845" lon="-9.7819233"><ele>53.75</ele><time>2026-05-05T15:31:10.194Z</time></trkpt><trkpt lat="51.46796" lon="-9.781915"><ele>56.0</ele><time>2026-05-05T15:31:11.194Z</time></trkpt><trkpt lat="51.46808" lon="-9.781925"><ele>56.0</ele><time>2026-05-05T15:31:12.193Z</time></trkpt><trkpt lat="51.46822" lon="-9.7819083"><ele>56.0</ele><time>2026-05-05T15:31:13.193Z</time></trkpt><trkpt lat="51.4683483" lon="-9.7818967"><ele>56.0</ele><time>2026-05-05T15:31:14.194Z</time></trkpt><trkpt lat="51.4685017" lon="-9.7818683"><ele>56.0</ele><time>2026-05-05T15:31:15.194Z</time></trkpt><trkpt lat="51.4686333" lon="-9.78187"><ele>56.0</ele><time>2026-05-05T15:31:16.194Z</time></trkpt><trkpt lat="51.468755" lon="-9.7818883"><ele>55.99999999999999</ele><time>2026-05-05T15:31:17.194Z</time></trkpt><trkpt lat="51.4688567" lon="-9.7819117"><ele>55.99999999999999</ele><time>2026-05-05T15:31:18.194Z</time></trkpt><trkpt lat="51.46897" lon="-9.78194"><ele>56.0</ele><time>2026-05-05T15:31:19.194Z</time></trkpt><trkpt lat="51.4690567" lon="-9.78197"><ele>56.0</ele><time>2026-05-05T15:31:20.194Z</time></trkpt><trkpt lat="51.4691383" lon="-9.7819983"><ele>55.0</ele><time>2026-05-05T15:31:21.193Z</time></trkpt><trkpt lat="51.4692167" lon="-9.7820183"><ele>53.99999999999999</ele><time>2026-05-05T15:31:22.194Z</time></trkpt><trkpt lat="51.4693117" lon="-9.782045"><ele>53.0</ele><time>2026-05-05T15:31:23.193Z</time></trkpt><trkpt lat="51.469415" lon="-9.782085"><ele>52.0</ele><time>2026-05-05T15:31:24.193Z</time></trkpt><trkpt lat="51.4695217" lon="-9.78213"><ele>51.0</ele><time>2026-05-05T15:31:25.193Z</time></trkpt><trkpt lat="51.4696417" lon="-9.7821867"><ele>48.75</ele><time>2026-05-05T15:31:26.193Z</time></trkpt><trkpt lat="51.4697617" lon="-9.78227"><ele>46.5</ele><time>2026-05-05T15:31:27.194Z</time></trkpt><trkpt lat="51.4698883" lon="-9.7823117"><ele>44.25</ele><time>2026-05-05T15:31:28.194Z</time></trkpt><trkpt lat="51.4700083" lon="-9.7824"><ele>42.0</ele><time>2026-05-05T15:31:29.194Z</time></trkpt><trkpt lat="51.4701333" lon="-9.7824933"><ele>42.0</ele><time>2026-05-05T15:31:30.194Z</time></trkpt><trkpt lat="51.470245" lon="-9.78258"><ele>42.0</ele><time>2026-05-05T15:31:31.194Z</time></trkpt><trkpt lat="51.4703467" lon="-9.78263"><ele>42.0</ele><time>2026-05-05T15:31:32.194Z</time></trkpt><trkpt lat="51.47043" lon="-9.78271"><ele>42.0</ele><time>2026-05-05T15:31:33.194Z</time></trkpt><trkpt lat="51.47049" lon="-9.7827983"><ele>42.0</ele><time>2026-05-05T15:31:34.193Z</time></trkpt><trkpt lat="51.4705533" lon="-9.7829083"><ele>41.8</ele><time>2026-05-05T15:31:36.194Z</time></trkpt><trkpt lat="51.4706167" lon="-9.782935"><ele>41.6</ele><time>2026-05-05T15:31:55.193Z</time></trkpt><trkpt lat="51.470685" lon="-9.7829783"><ele>41.4</ele><time>2026-05-05T15:31:57.193Z</time></trkpt><trkpt lat="51.4708033" lon="-9.7831083"><ele>41.199999999999996</ele><time>2026-05-05T15:31:59.194Z</time></trkpt><trkpt lat="51.4708817" lon="-9.7832083"><ele>41.0</ele><time>2026-05-05T15:32:00.194Z</time></trkpt><trkpt lat="51.4709733" lon="-9.78332"><ele>41.0</ele><time>2026-05-05T15:32:01.193Z</time></trkpt><trkpt lat="51.4710433" lon="-9.7834267"><ele>41.0</ele><time>2026-05-05T15:32:02.193Z</time></trkpt><trkpt lat="51.4710983" lon="-9.7834967"><ele>41.0</ele><time>2026-05-05T15:32:03.194Z</time></trkpt><trkpt lat="51.471145" lon="-9.7835667"><ele>41.0</ele><time>2026-05-05T15:32:04.194Z</time></trkpt><trkpt lat="51.4712083" lon="-9.7836717"><ele>41.0</ele><time>2026-05-05T15:32:06.194Z</time></trkpt><trkpt lat="51.47127" lon="-9.783765"><ele>41.0</ele><time>2026-05-05T15:32:08.194Z</time></trkpt><trkpt lat="51.471335" lon="-9.7838533"><ele>40.5</ele><time>2026-05-05T15:32:10.193Z</time></trkpt><trkpt lat="51.4714233" lon="-9.7839783"><ele>40.0</ele><time>2026-05-05T15:32:12.194Z</time></trkpt><trkpt lat="51.4715183" lon="-9.7841317"><ele>39.5</ele><time>2026-05-05T15:32:14.193Z</time></trkpt><trkpt lat="51.4715733" lon="-9.7842233"><ele>39.0</ele><time>2026-05-05T15:32:15.194Z</time></trkpt><trkpt lat="51.4716617" lon="-9.7843517"><ele>39.0</ele><time>2026-05-05T15:32:17.193Z</time></trkpt><trkpt lat="51.471745" lon="-9.784475"><ele>39.0</ele><time>2026-05-05T15:32:19.194Z</time></trkpt><trkpt lat="51.471815" lon="-9.7845917"><ele>39.0</ele><time>2026-05-05T15:32:21.193Z</time></trkpt><trkpt lat="51.4719017" lon="-9.78472"><ele>39.0</ele><time>2026-05-05T15:32:23.194Z</time></trkpt><trkpt lat="51.4719583" lon="-9.7848017"><ele>39.0</ele><time>2026-05-05T15:32:24.194Z</time></trkpt><trkpt lat="51.47202" lon="-9.784895"><ele>39.0</ele><time>2026-05-05T15:32:25.194Z</time></trkpt><trkpt lat="51.47209" lon="-9.7849917"><ele>39.0</ele><time>2026-05-05T15:32:26.194Z</time></trkpt><trkpt lat="51.472165" lon="-9.785095"><ele>39.0</ele><time>2026-05-05T15:32:27.193Z</time></trkpt><trkpt lat="51.4722333" lon="-9.7851933"><ele>39.0</ele><time>2026-05-05T15:32:28.193Z</time></trkpt><trkpt lat="51.4723" lon="-9.785285"><ele>39.0</ele><time>2026-05-05T15:32:29.194Z</time></trkpt><trkpt lat="51.4723717" lon="-9.785385"><ele>38.6</ele><time>2026-05-05T15:32:30.194Z</time></trkpt><trkpt lat="51.47244" lon="-9.7854783"><ele>38.2</ele><time>2026-05-05T15:32:31.194Z</time></trkpt><trkpt lat="51.4725183" lon="-9.7855817"><ele>37.800000000000004</ele><time>2026-05-05T15:32:32.193Z</time></trkpt><trkpt lat="51.4726083" lon="-9.7857"><ele>37.4</ele><time>2026-05-05T15:32:33.194Z</time></trkpt><trkpt lat="51.4726883" lon="-9.78581"><ele>37.0</ele><time>2026-05-05T15:32:34.193Z</time></trkpt><trkpt lat="51.4727683" lon="-9.7859217"><ele>37.4</ele><time>2026-05-05T15:32:35.194Z</time></trkpt><trkpt lat="51.47285" lon="-9.786035"><ele>37.800000000000004</ele><time>2026-05-05T15:32:36.194Z</time></trkpt><trkpt lat="51.4729317" lon="-9.7861367"><ele>38.2</ele><time>2026-05-05T15:32:37.193Z</time></trkpt><trkpt lat="51.4730167" lon="-9.7862467"><ele>38.6</ele><time>2026-05-05T15:32:38.193Z</time></trkpt><trkpt lat="51.4730967" lon="-9.7863533"><ele>39.0</ele><time>2026-05-05T15:32:39.194Z</time></trkpt><trkpt lat="51.4731867" lon="-9.7864683"><ele>38.75</ele><time>2026-05-05T15:32:40.194Z</time></trkpt><trkpt lat="51.4732733" lon="-9.786585"><ele>38.5</ele><time>2026-05-05T15:32:41.194Z</time></trkpt><trkpt lat="51.4733517" lon="-9.7866817"><ele>38.25</ele><time>2026-05-05T15:32:42.194Z</time></trkpt><trkpt lat="51.473445" lon="-9.786795"><ele>38.0</ele><time>2026-05-05T15:32:43.193Z</time></trkpt><trkpt lat="51.473555" lon="-9.7868933"><ele>38.0</ele><time>2026-05-05T15:32:44.194Z</time></trkpt><trkpt lat="51.473645" lon="-9.7869917"><ele>38.0</ele><time>2026-05-05T15:32:45.193Z</time></trkpt><trkpt lat="51.47373" lon="-9.7870733"><ele>38.0</ele><time>2026-05-05T15:32:46.194Z</time></trkpt><trkpt lat="51.47382" lon="-9.7871633"><ele>38.0</ele><time>2026-05-05T15:32:47.193Z</time></trkpt><trkpt lat="51.4739067" lon="-9.7872433"><ele>38.0</ele><time>2026-05-05T15:32:48.194Z</time></trkpt><trkpt lat="51.473985" lon="-9.7873167"><ele>38.166666666666664</ele><time>2026-05-05T15:32:49.194Z</time></trkpt><trkpt lat="51.474055" lon="-9.7873867"><ele>38.33333333333333</ele><time>2026-05-05T15:32:50.194Z</time></trkpt><trkpt lat="51.4741067" lon="-9.787455"><ele>38.5</ele><time>2026-05-05T15:32:51.194Z</time></trkpt><trkpt lat="51.4741633" lon="-9.7875133"><ele>38.666666666666664</ele><time>2026-05-05T15:32:52.194Z</time></trkpt><trkpt lat="51.4742167" lon="-9.7875733"><ele>38.833333333333336</ele><time>2026-05-05T15:32:53.193Z</time></trkpt><trkpt lat="51.4743" lon="-9.78766"><ele>39.0</ele><time>2026-05-05T15:32:55.194Z</time></trkpt><trkpt lat="51.4743783" lon="-9.7877233"><ele>39.0</ele><time>2026-05-05T15:32:57.194Z</time></trkpt><trkpt lat="51.4744517" lon="-9.7877283"><ele>39.0</ele><time>2026-05-05T15:32:59.194Z</time></trkpt><trkpt lat="51.47454" lon="-9.7876583"><ele>39.0</ele><time>2026-05-05T15:33:01.194Z</time></trkpt><trkpt lat="51.4746067" lon="-9.7874617"><ele>39.0</ele><time>2026-05-05T15:33:03.194Z</time></trkpt><trkpt lat="51.47463" lon="-9.7872933"><ele>39.0</ele><time>2026-05-05T15:33:04.193Z</time></trkpt><trkpt lat="51.4746417" lon="-9.7870183"><ele>36.666666666666664</ele><time>2026-05-05T15:33:05.193Z</time></trkpt><trkpt lat="51.4746783" lon="-9.786745"><ele>34.33333333333333</ele><time>2026-05-05T15:33:06.194Z</time></trkpt><trkpt lat="51.4747133" lon="-9.7864817"><ele>32.0</ele><time>2026-05-05T15:33:07.194Z</time></trkpt><trkpt lat="51.47474" lon="-9.7862333"><ele>31.333333333333332</ele><time>2026-05-05T15:33:08.194Z</time></trkpt><trkpt lat="51.4747783" lon="-9.78596"><ele>30.666666666666664</ele><time>2026-05-05T15:33:09.194Z</time></trkpt><trkpt lat="51.4748" lon="-9.7857117"><ele>30.0</ele><time>2026-05-05T15:33:10.193Z</time></trkpt><trkpt lat="51.4748133" lon="-9.7854533"><ele>30.0</ele><time>2026-05-05T15:33:11.194Z</time></trkpt><trkpt lat="51.47484" lon="-9.7851883"><ele>30.0</ele><time>2026-05-05T15:33:12.194Z</time></trkpt><trkpt lat="51.4748467" lon="-9.7849533"><ele>30.0</ele><time>2026-05-05T15:33:13.194Z</time></trkpt><trkpt lat="51.4748583" lon="-9.7847233"><ele>29.75</ele><time>2026-05-05T15:33:14.194Z</time></trkpt><trkpt lat="51.474865" lon="-9.784525"><ele>29.5</ele><time>2026-05-05T15:33:15.194Z</time></trkpt><trkpt lat="51.4748717" lon="-9.7843367"><ele>29.25</ele><time>2026-05-05T15:33:16.193Z</time></trkpt><trkpt lat="51.474875" lon="-9.7841617"><ele>29.0</ele><time>2026-05-05T15:33:17.194Z</time></trkpt><trkpt lat="51.474865" lon="-9.783965"><ele>29.0</ele><time>2026-05-05T15:33:18.194Z</time></trkpt><trkpt lat="51.474825" lon="-9.783775"><ele>29.0</ele><time>2026-05-05T15:33:19.194Z</time></trkpt><trkpt lat="51.4747767" lon="-9.7835583"><ele>29.0</ele><time>2026-05-05T15:33:20.193Z</time></trkpt><trkpt lat="51.4747233" lon="-9.78334"><ele>29.0</ele><time>2026-05-05T15:33:21.193Z</time></trkpt><trkpt lat="51.474675" lon="-9.7831083"><ele>28.333333333333332</ele><time>2026-05-05T15:33:22.193Z</time></trkpt><trkpt lat="51.4746233" lon="-9.7828767"><ele>27.666666666666664</ele><time>2026-05-05T15:33:23.194Z</time></trkpt><trkpt lat="51.4745733" lon="-9.782655"><ele>27.0</ele><time>2026-05-05T15:33:24.194Z</time></trkpt><trkpt lat="51.47453" lon="-9.7824183"><ele>25.666666666666668</ele><time>2026-05-05T15:33:25.194Z</time></trkpt><trkpt lat="51.4744833" lon="-9.7821783"><ele>24.333333333333336</ele><time>2026-05-05T15:33:26.193Z</time></trkpt><trkpt lat="51.47445" lon="-9.7819367"><ele>23.0</ele><time>2026-05-05T15:33:27.194Z</time></trkpt><trkpt lat="51.4744217" lon="-9.7816733"><ele>21.0</ele><time>2026-05-05T15:33:28.193Z</time></trkpt><trkpt lat="51.4744067" lon="-9.7814117"><ele>19.0</ele><time>2026-05-05T15:33:29.194Z</time></trkpt><trkpt lat="51.47439" lon="-9.7811517"><ele>17.0</ele><time>2026-05-05T15:33:30.193Z</time></trkpt><trkpt lat="51.4743883" lon="-9.7808883"><ele>15.666666666666668</ele><time>2026-05-05T15:33:31.194Z</time></trkpt><trkpt lat="51.47441" lon="-9.7806383"><ele>14.333333333333332</ele><time>2026-05-05T15:33:32.194Z</time></trkpt><trkpt lat="51.474445" lon="-9.7803817"><ele>13.0</ele><time>2026-05-05T15:33:33.194Z</time></trkpt><trkpt lat="51.4744783" lon="-9.7801283"><ele>12.333333333333332</ele><time>2026-05-05T15:33:34.194Z</time></trkpt><trkpt lat="51.474515" lon="-9.77988"><ele>11.666666666666666</ele><time>2026-05-05T15:33:35.194Z</time></trkpt><trkpt lat="51.4745317" lon="-9.7796267"><ele>11.0</ele><time>2026-05-05T15:33:36.194Z</time></trkpt><trkpt lat="51.4745517" lon="-9.7793683"><ele>9.666666666666666</ele><time>2026-05-05T15:33:37.194Z</time></trkpt><trkpt lat="51.4745617" lon="-9.7791267"><ele>8.333333333333334</ele><time>2026-05-05T15:33:38.194Z</time></trkpt><trkpt lat="51.4745717" lon="-9.77888"><ele>7.0</ele><time>2026-05-05T15:33:39.193Z</time></trkpt><trkpt lat="51.4745867" lon="-9.7786367"><ele>9.5</ele><time>2026-05-05T15:33:40.193Z</time></trkpt><trkpt lat="51.4746183" lon="-9.7783967"><ele>12.0</ele><time>2026-05-05T15:33:41.194Z</time></trkpt><trkpt lat="51.474665" lon="-9.7781583"><ele>14.5</ele><time>2026-05-05T15:33:42.194Z</time></trkpt><trkpt lat="51.4747233" lon="-9.7779533"><ele>17.0</ele><time>2026-05-05T15:33:43.194Z</time></trkpt><trkpt lat="51.4747933" lon="-9.7777517"><ele>15.333333333333334</ele><time>2026-05-05T15:33:44.194Z</time></trkpt><trkpt lat="51.47488" lon="-9.7775483"><ele>13.666666666666668</ele><time>2026-05-05T15:33:45.193Z</time></trkpt><trkpt lat="51.474975" lon="-9.7773417"><ele>12.0</ele><time>2026-05-05T15:33:46.194Z</time></trkpt><trkpt lat="51.475075" lon="-9.7771433"><ele>12.0</ele><time>2026-05-05T15:33:47.193Z</time></trkpt><trkpt lat="51.475215" lon="-9.7769217"><ele>12.0</ele><time>2026-05-05T15:33:48.194Z</time></trkpt><trkpt lat="51.4753333" lon="-9.77673"><ele>12.0</ele><time>2026-05-05T15:33:49.194Z</time></trkpt><trkpt lat="51.4754567" lon="-9.7765717"><ele>13.666666666666668</ele><time>2026-05-05T15:33:50.194Z</time></trkpt><trkpt lat="51.475585" lon="-9.776425"><ele>15.333333333333334</ele><time>2026-05-05T15:33:51.194Z</time></trkpt><trkpt lat="51.4757067" lon="-9.776255"><ele>17.0</ele><time>2026-05-05T15:33:52.193Z</time></trkpt><trkpt lat="51.4758333" lon="-9.7760783"><ele>14.0</ele><time>2026-05-05T15:33:53.194Z</time></trkpt><trkpt lat="51.47596" lon="-9.7759117"><ele>11.0</ele><time>2026-05-05T15:33:54.194Z</time></trkpt><trkpt lat="51.4760733" lon="-9.7757283"><ele>8.0</ele><time>2026-05-05T15:33:55.194Z</time></trkpt><trkpt lat="51.476195" lon="-9.7755367"><ele>10.0</ele><time>2026-05-05T15:33:56.194Z</time></trkpt><trkpt lat="51.4763133" lon="-9.7753367"><ele>12.0</ele><time>2026-05-05T15:33:57.194Z</time></trkpt><trkpt lat="51.47642" lon="-9.77513"><ele>14.0</ele><time>2026-05-05T15:33:58.194Z</time></trkpt><trkpt lat="51.476525" lon="-9.7749133"><ele>14.0</ele><time>2026-05-05T15:33:59.194Z</time></trkpt><trkpt lat="51.4766317" lon="-9.77469"><ele>14.0</ele><time>2026-05-05T15:34:00.193Z</time></trkpt><trkpt lat="51.4767133" lon="-9.7744883"><ele>14.0</ele><time>2026-05-05T15:34:01.193Z</time></trkpt><trkpt lat="51.476775" lon="-9.7743"><ele>12.75</ele><time>2026-05-05T15:34:02.193Z</time></trkpt><trkpt lat="51.4768067" lon="-9.7741183"><ele>11.5</ele><time>2026-05-05T15:34:03.193Z</time></trkpt><trkpt lat="51.47684" lon="-9.7739517"><ele>10.25</ele><time>2026-05-05T15:34:04.194Z</time></trkpt><trkpt lat="51.4768683" lon="-9.7737433"><ele>9.0</ele><time>2026-05-05T15:34:05.194Z</time></trkpt><trkpt lat="51.47692" lon="-9.7735583"><ele>8.25</ele><time>2026-05-05T15:34:06.193Z</time></trkpt><trkpt lat="51.4769817" lon="-9.7733783"><ele>7.5</ele><time>2026-05-05T15:34:07.194Z</time></trkpt><trkpt lat="51.4770367" lon="-9.7731867"><ele>6.75</ele><time>2026-05-05T15:34:08.193Z</time></trkpt><trkpt lat="51.4770933" lon="-9.7730017"><ele>6.0</ele><time>2026-05-05T15:34:09.194Z</time></trkpt><trkpt lat="51.4771633" lon="-9.7728217"><ele>8.333333333333332</ele><time>2026-05-05T15:34:10.194Z</time></trkpt><trkpt lat="51.4772467" lon="-9.772635"><ele>10.666666666666666</ele><time>2026-05-05T15:34:11.193Z</time></trkpt><trkpt lat="51.477345" lon="-9.7724333"><ele>13.0</ele><time>2026-05-05T15:34:12.193Z</time></trkpt><trkpt lat="51.4774533" lon="-9.7721967"><ele>13.0</ele><time>2026-05-05T15:34:13.194Z</time></trkpt><trkpt lat="51.4775517" lon="-9.7719967"><ele>13.0</ele><time>2026-05-05T15:34:14.194Z</time></trkpt><trkpt lat="51.4776483" lon="-9.7717883"><ele>13.0</ele><time>2026-05-05T15:34:15.194Z</time></trkpt><trkpt lat="51.4777283" lon="-9.77156"><ele>11.333333333333332</ele><time>2026-05-05T15:34:16.193Z</time></trkpt><trkpt lat="51.4778033" lon="-9.7713317"><ele>9.666666666666666</ele><time>2026-05-05T15:34:17.194Z</time></trkpt><trkpt lat="51.4778783" lon="-9.7710917"><ele>8.0</ele><time>2026-05-05T15:34:18.194Z</time></trkpt><trkpt lat="51.4779517" lon="-9.7708383"><ele>9.666666666666666</ele><time>2026-05-05T15:34:19.193Z</time></trkpt><trkpt lat="51.4780433" lon="-9.7705433"><ele>11.333333333333332</ele><time>2026-05-05T15:34:20.193Z</time></trkpt><trkpt lat="51.4781383" lon="-9.7702567"><ele>13.0</ele><time>2026-05-05T15:34:21.194Z</time></trkpt><trkpt lat="51.4782233" lon="-9.769965"><ele>13.0</ele><time>2026-05-05T15:34:22.194Z</time></trkpt><trkpt lat="51.4783033" lon="-9.769705"><ele>13.0</ele><time>2026-05-05T15:34:23.194Z</time></trkpt><trkpt lat="51.4783767" lon="-9.7694533"><ele>13.0</ele><time>2026-05-05T15:34:24.194Z</time></trkpt><trkpt lat="51.4784567" lon="-9.7692117"><ele>12.0</ele><time>2026-05-05T15:34:25.193Z</time></trkpt><trkpt lat="51.47854" lon="-9.7689717"><ele>11.0</ele><time>2026-05-05T15:34:26.194Z</time></trkpt><trkpt lat="51.478635" lon="-9.7687233"><ele>10.0</ele><time>2026-05-05T15:34:27.194Z</time></trkpt><trkpt lat="51.4787267" lon="-9.7684767"><ele>12.0</ele><time>2026-05-05T15:34:28.194Z</time></trkpt><trkpt lat="51.4787783" lon="-9.7682717"><ele>14.0</ele><time>2026-05-05T15:34:29.194Z</time></trkpt><trkpt lat="51.4788617" lon="-9.7680517"><ele>16.0</ele><time>2026-05-05T15:34:30.193Z</time></trkpt><trkpt lat="51.47894" lon="-9.7678333"><ele>13.666666666666666</ele><time>2026-05-05T15:34:31.194Z</time></trkpt><trkpt lat="51.4790217" lon="-9.7676083"><ele>11.333333333333332</ele><time>2026-05-05T15:34:32.193Z</time></trkpt><trkpt lat="51.4791067" lon="-9.7673733"><ele>9.0</ele><time>2026-05-05T15:34:33.193Z</time></trkpt><trkpt lat="51.4791833" lon="-9.767145"><ele>9.0</ele><time>2026-05-05T15:34:34.194Z</time></trkpt><trkpt lat="51.4792583" lon="-9.76692"><ele>9.0</ele><time>2026-05-05T15:34:35.194Z</time></trkpt><trkpt lat="51.47936" lon="-9.7667033"><ele>9.0</ele><time>2026-05-05T15:34:36.194Z</time></trkpt><trkpt lat="51.479435" lon="-9.766495"><ele>8.0</ele><time>2026-05-05T15:34:37.193Z</time></trkpt><trkpt lat="51.47951" lon="-9.7662867"><ele>7.0</ele><time>2026-05-05T15:34:38.194Z</time></trkpt><trkpt lat="51.4796" lon="-9.76608"><ele>6.0</ele><time>2026-05-05T15:34:39.194Z</time></trkpt><trkpt lat="51.4796883" lon="-9.7658783"><ele>8.0</ele><time>2026-05-05T15:34:40.193Z</time></trkpt><trkpt lat="51.4797883" lon="-9.7656817"><ele>10.0</ele><time>2026-05-05T15:34:41.194Z</time></trkpt><trkpt lat="51.479885" lon="-9.7654683"><ele>12.0</ele><time>2026-05-05T15:34:42.194Z</time></trkpt><trkpt lat="51.4799767" lon="-9.7652267"><ele>10.333333333333334</ele><time>2026-05-05T15:34:43.193Z</time></trkpt><trkpt lat="51.48005" lon="-9.7649767"><ele>8.666666666666668</ele><time>2026-05-05T15:34:44.193Z</time></trkpt><trkpt lat="51.4801333" lon="-9.7647417"><ele>7.0</ele><time>2026-05-05T15:34:45.194Z</time></trkpt><trkpt lat="51.48023" lon="-9.7644933"><ele>5.666666666666667</ele><time>2026-05-05T15:34:46.194Z</time></trkpt><trkpt lat="51.4803033" lon="-9.7642483"><ele>4.333333333333334</ele><time>2026-05-05T15:34:47.193Z</time></trkpt><trkpt lat="51.4803783" lon="-9.76399"><ele>3.0</ele><time>2026-05-05T15:34:48.193Z</time></trkpt><trkpt lat="51.4804167" lon="-9.7637817"><ele>3.0</ele><time>2026-05-05T15:34:49.193Z</time></trkpt><trkpt lat="51.4804367" lon="-9.7635967"><ele>3.0</ele><time>2026-05-05T15:34:50.193Z</time></trkpt><trkpt lat="51.48045" lon="-9.763405"><ele>3.0</ele><time>2026-05-05T15:34:51.194Z</time></trkpt><trkpt lat="51.4804583" lon="-9.7632333"><ele>3.0</ele><time>2026-05-05T15:34:52.194Z</time></trkpt><trkpt lat="51.48046" lon="-9.7631083"><ele>3.0</ele><time>2026-05-05T15:34:53.194Z</time></trkpt><trkpt lat="51.4804617" lon="-9.763005"><ele>3.0</ele><time>2026-05-05T15:34:54.194Z</time></trkpt><trkpt lat="51.4804583" lon="-9.7628367"><ele>3.0</ele><time>2026-05-05T15:34:56.193Z</time></trkpt><trkpt lat="51.480495" lon="-9.7627217"><ele>3.0</ele><time>2026-05-05T15:34:59.194Z</time></trkpt><trkpt lat="51.48061" lon="-9.7627517"><ele>3.0</ele><time>2026-05-05T15:35:19.194Z</time></trkpt><trkpt lat="51.480705" lon="-9.7628117"><ele>3.0</ele><time>2026-05-05T15:35:21.194Z</time></trkpt><trkpt lat="51.480775" lon="-9.76286"><ele>3.0</ele><time>2026-05-05T15:35:22.194Z</time></trkpt><trkpt lat="51.4808633" lon="-9.7629283"><ele>3.0</ele><time>2026-05-05T15:35:23.194Z</time></trkpt><trkpt lat="51.4809783" lon="-9.763015"><ele>3.0</ele><time>2026-05-05T15:35:24.194Z</time></trkpt><trkpt lat="51.4811217" lon="-9.7631367"><ele>3.0</ele><time>2026-05-05T15:35:25.193Z</time></trkpt><trkpt lat="51.481265" lon="-9.763275"><ele>3.666666666666667</ele><time>2026-05-05T15:35:26.194Z</time></trkpt><trkpt lat="51.48139" lon="-9.7634517"><ele>4.333333333333334</ele><time>2026-05-05T15:35:27.194Z</time></trkpt><trkpt lat="51.4814967" lon="-9.7636083"><ele>5.0</ele><time>2026-05-05T15:35:28.193Z</time></trkpt><trkpt lat="51.48161" lon="-9.7637383"><ele>5.0</ele><time>2026-05-05T15:35:29.194Z</time></trkpt><trkpt lat="51.4817283" lon="-9.763855"><ele>5.0</ele><time>2026-05-05T15:35:30.193Z</time></trkpt><trkpt lat="51.48189" lon="-9.7639967"><ele>5.0</ele><time>2026-05-05T15:35:31.193Z</time></trkpt><trkpt lat="51.4820267" lon="-9.76406"><ele>4.666666666666667</ele><time>2026-05-05T15:35:32.194Z</time></trkpt><trkpt lat="51.4821717" lon="-9.7641083"><ele>4.333333333333333</ele><time>2026-05-05T15:35:33.193Z</time></trkpt><trkpt lat="51.4823283" lon="-9.764125"><ele>4.0</ele><time>2026-05-05T15:35:34.194Z</time></trkpt><trkpt lat="51.4825" lon="-9.76411"><ele>4.0</ele><time>2026-05-05T15:35:35.194Z</time></trkpt><trkpt lat="51.482675" lon="-9.7641083"><ele>4.0</ele><time>2026-05-05T15:35:36.194Z</time></trkpt><trkpt lat="51.48285" lon="-9.7641617"><ele>4.0</ele><time>2026-05-05T15:35:37.193Z</time></trkpt><trkpt lat="51.4830233" lon="-9.764205"><ele>4.0</ele><time>2026-05-05T15:35:38.194Z</time></trkpt><trkpt lat="51.48321" lon="-9.7642417"><ele>4.0</ele><time>2026-05-05T15:35:39.193Z</time></trkpt><trkpt lat="51.48339" lon="-9.7642917"><ele>4.0</ele><time>2026-05-05T15:35:40.194Z</time></trkpt><trkpt lat="51.483565" lon="-9.7643683"><ele>4.333333333333333</ele><time>2026-05-05T15:35:41.194Z</time></trkpt><trkpt lat="51.4837233" lon="-9.7644117"><ele>4.666666666666667</ele><time>2026-05-05T15:35:42.193Z</time></trkpt><trkpt lat="51.4838783" lon="-9.764465"><ele>5.0</ele><time>2026-05-05T15:35:43.193Z</time></trkpt><trkpt lat="51.4840367" lon="-9.7644983"><ele>5.0</ele><time>2026-05-05T15:35:44.194Z</time></trkpt><trkpt lat="51.4842067" lon="-9.764555"><ele>5.0</ele><time>2026-05-05T15:35:45.194Z</time></trkpt><trkpt lat="51.4843683" lon="-9.764605"><ele>5.0</ele><time>2026-05-05T15:35:46.194Z</time></trkpt><trkpt lat="51.4845317" lon="-9.764665"><ele>5.333333333333334</ele><time>2026-05-05T15:35:47.193Z</time></trkpt><trkpt lat="51.4846933" lon="-9.764705"><ele>5.666666666666667</ele><time>2026-05-05T15:35:48.193Z</time></trkpt><trkpt lat="51.4848367" lon="-9.7647483"><ele>6.0</ele><time>2026-05-05T15:35:49.193Z</time></trkpt><trkpt lat="51.484975" lon="-9.7647883"><ele>6.0</ele><time>2026-05-05T15:35:50.194Z</time></trkpt><trkpt lat="51.4851017" lon="-9.76483"><ele>6.0</ele><time>2026-05-05T15:35:51.194Z</time></trkpt><trkpt lat="51.4852283" lon="-9.76487"><ele>6.0</ele><time>2026-05-05T15:35:52.193Z</time></trkpt><trkpt lat="51.4853483" lon="-9.7649317"><ele>6.0</ele><time>2026-05-05T15:35:53.193Z</time></trkpt><trkpt lat="51.4854633" lon="-9.7650167"><ele>5.75</ele><time>2026-05-05T15:35:54.193Z</time></trkpt><trkpt lat="51.485575" lon="-9.7651517"><ele>5.5</ele><time>2026-05-05T15:35:55.194Z</time></trkpt><trkpt lat="51.4856817" lon="-9.7652883"><ele>5.25</ele><time>2026-05-05T15:35:56.193Z</time></trkpt><trkpt lat="51.4857683" lon="-9.7654767"><ele>5.0</ele><time>2026-05-05T15:35:57.193Z</time></trkpt><trkpt lat="51.485825" lon="-9.7656917"><ele>5.0</ele><time>2026-05-05T15:35:58.194Z</time></trkpt><trkpt lat="51.485855" lon="-9.7659317"><ele>5.0</ele><time>2026-05-05T15:35:59.194Z</time></trkpt><trkpt lat="51.485885" lon="-9.766155"><ele>5.0</ele><time>2026-05-05T15:36:00.193Z</time></trkpt><trkpt lat="51.4859133" lon="-9.7663783"><ele>5.0</ele><time>2026-05-05T15:36:01.192Z</time></trkpt><trkpt lat="51.485955" lon="-9.76661"><ele>5.5</ele><time>2026-05-05T15:36:02.193Z</time></trkpt><trkpt lat="51.4859867" lon="-9.7668183"><ele>6.0</ele><time>2026-05-05T15:36:03.193Z</time></trkpt><trkpt lat="51.4860283" lon="-9.76703"><ele>6.5</ele><time>2026-05-05T15:36:04.193Z</time></trkpt><trkpt lat="51.4860667" lon="-9.7672483"><ele>7.0</ele><time>2026-05-05T15:36:05.192Z</time></trkpt><trkpt lat="51.4860967" lon="-9.767445"><ele>7.75</ele><time>2026-05-05T15:36:06.193Z</time></trkpt><trkpt lat="51.486125" lon="-9.76765"><ele>8.5</ele><time>2026-05-05T15:36:07.192Z</time></trkpt><trkpt lat="51.4861433" lon="-9.7678517"><ele>9.25</ele><time>2026-05-05T15:36:08.192Z</time></trkpt><trkpt lat="51.48612" lon="-9.76808"><ele>10.0</ele><time>2026-05-05T15:36:09.193Z</time></trkpt><trkpt lat="51.4860533" lon="-9.76832"><ele>10.75</ele><time>2026-05-05T15:36:10.193Z</time></trkpt><trkpt lat="51.486025" lon="-9.768525"><ele>11.5</ele><time>2026-05-05T15:36:11.193Z</time></trkpt><trkpt lat="51.4859983" lon="-9.7687267"><ele>12.25</ele><time>2026-05-05T15:36:12.192Z</time></trkpt><trkpt lat="51.4860083" lon="-9.7689067"><ele>13.0</ele><time>2026-05-05T15:36:13.193Z</time></trkpt><trkpt lat="51.48604" lon="-9.7690683"><ele>13.666666666666666</ele><time>2026-05-05T15:36:14.193Z</time></trkpt><trkpt lat="51.486085" lon="-9.7692167"><ele>14.333333333333332</ele><time>2026-05-05T15:36:15.192Z</time></trkpt><trkpt lat="51.4861267" lon="-9.7693517"><ele>15.0</ele><time>2026-05-05T15:36:16.193Z</time></trkpt><trkpt lat="51.4861567" lon="-9.7694783"><ele>15.666666666666668</ele><time>2026-05-05T15:36:17.193Z</time></trkpt><trkpt lat="51.48617" lon="-9.7696017"><ele>16.333333333333336</ele><time>2026-05-05T15:36:18.193Z</time></trkpt><trkpt lat="51.4861683" lon="-9.7697383"><ele>17.0</ele><time>2026-05-05T15:36:19.192Z</time></trkpt><trkpt lat="51.4861683" lon="-9.7698633"><ele>16.833333333333336</ele><time>2026-05-05T15:36:20.193Z</time></trkpt><trkpt lat="51.4861533" lon="-9.769975"><ele>16.666666666666668</ele><time>2026-05-05T15:36:21.193Z</time></trkpt><trkpt lat="51.48614" lon="-9.770075"><ele>16.5</ele><time>2026-05-05T15:36:22.192Z</time></trkpt><trkpt lat="51.48612" lon="-9.7702483"><ele>16.333333333333332</ele><time>2026-05-05T15:36:24.193Z</time></trkpt><trkpt lat="51.48612" lon="-9.7703817"><ele>16.166666666666664</ele><time>2026-05-05T15:36:26.193Z</time></trkpt><trkpt lat="51.4861783" lon="-9.7704717"><ele>16.0</ele><time>2026-05-05T15:36:28.193Z</time></trkpt><trkpt lat="51.4862933" lon="-9.770495"><ele>16.0</ele><time>2026-05-05T15:36:30.192Z</time></trkpt><trkpt lat="51.4863967" lon="-9.7704417"><ele>16.0</ele><time>2026-05-05T15:36:31.193Z</time></trkpt><trkpt lat="51.4865217" lon="-9.7703667"><ele>16.0</ele><time>2026-05-05T15:36:32.193Z</time></trkpt><trkpt lat="51.4866333" lon="-9.7702933"><ele>16.0</ele><time>2026-05-05T15:36:33.193Z</time></trkpt><trkpt lat="51.486725" lon="-9.77022"><ele>15.666666666666666</ele><time>2026-05-05T15:36:34.193Z</time></trkpt><trkpt lat="51.48679" lon="-9.770155"><ele>15.333333333333332</ele><time>2026-05-05T15:36:35.193Z</time></trkpt><trkpt lat="51.486865" lon="-9.7700833"><ele>15.0</ele><time>2026-05-05T15:36:37.192Z</time></trkpt><trkpt lat="51.4869067" lon="-9.7700067"><ele>14.666666666666668</ele><time>2026-05-05T15:36:48.193Z</time></trkpt><trkpt lat="51.4869867" lon="-9.76984"><ele>14.333333333333334</ele><time>2026-05-05T15:36:50.193Z</time></trkpt><trkpt lat="51.4870333" lon="-9.7697317"><ele>14.0</ele><time>2026-05-05T15:36:51.192Z</time></trkpt><trkpt lat="51.4870867" lon="-9.7695967"><ele>14.5</ele><time>2026-05-05T15:36:52.193Z</time></trkpt><trkpt lat="51.4871467" lon="-9.769445"><ele>15.0</ele><time>2026-05-05T15:36:53.192Z</time></trkpt><trkpt lat="51.4872083" lon="-9.76928"><ele>15.5</ele><time>2026-05-05T15:36:54.193Z</time></trkpt><trkpt lat="51.487275" lon="-9.769125"><ele>16.0</ele><time>2026-05-05T15:36:55.192Z</time></trkpt><trkpt lat="51.4873283" lon="-9.7689583"><ele>16.0</ele><time>2026-05-05T15:36:56.192Z</time></trkpt><trkpt lat="51.4873667" lon="-9.7687967"><ele>16.0</ele><time>2026-05-05T15:36:57.192Z</time></trkpt><trkpt lat="51.4874283" lon="-9.7685833"><ele>16.0</ele><time>2026-05-05T15:36:58.192Z</time></trkpt><trkpt lat="51.4874717" lon="-9.76841"><ele>16.0</ele><time>2026-05-05T15:36:59.192Z</time></trkpt><trkpt lat="51.48751" lon="-9.7682383"><ele>16.0</ele><time>2026-05-05T15:37:00.193Z</time></trkpt><trkpt lat="51.4875633" lon="-9.76806"><ele>16.0</ele><time>2026-05-05T15:37:01.193Z</time></trkpt><trkpt lat="51.4876267" lon="-9.7678817"><ele>16.0</ele><time>2026-05-05T15:37:02.192Z</time></trkpt><trkpt lat="51.4877017" lon="-9.767685"><ele>16.0</ele><time>2026-05-05T15:37:03.192Z</time></trkpt><trkpt lat="51.4877583" lon="-9.7674883"><ele>15.5</ele><time>2026-05-05T15:37:04.193Z</time></trkpt><trkpt lat="51.4878167" lon="-9.7673017"><ele>15.0</ele><time>2026-05-05T15:37:05.193Z</time></trkpt><trkpt lat="51.48788" lon="-9.7671117"><ele>14.5</ele><time>2026-05-05T15:37:06.193Z</time></trkpt><trkpt lat="51.4879417" lon="-9.7669233"><ele>14.0</ele><time>2026-05-05T15:37:07.192Z</time></trkpt><trkpt lat="51.4880033" lon="-9.7667383"><ele>16.75</ele><time>2026-05-05T15:37:08.193Z</time></trkpt><trkpt lat="51.4880717" lon="-9.7665667"><ele>19.5</ele><time>2026-05-05T15:37:09.193Z</time></trkpt><trkpt lat="51.4881333" lon="-9.7664033"><ele>22.25</ele><time>2026-05-05T15:37:10.192Z</time></trkpt><trkpt lat="51.4881917" lon="-9.7662533"><ele>25.0</ele><time>2026-05-05T15:37:11.193Z</time></trkpt><trkpt lat="51.4882367" lon="-9.7661"><ele>24.5</ele><time>2026-05-05T15:37:12.192Z</time></trkpt><trkpt lat="51.48828" lon="-9.765945"><ele>24.0</ele><time>2026-05-05T15:37:13.193Z</time></trkpt><trkpt lat="51.48833" lon="-9.76578"><ele>23.5</ele><time>2026-05-05T15:37:14.192Z</time></trkpt><trkpt lat="51.4883833" lon="-9.7655883"><ele>23.0</ele><time>2026-05-05T15:37:15.192Z</time></trkpt><trkpt lat="51.4884383" lon="-9.765395"><ele>23.0</ele><time>2026-05-05T15:37:16.193Z</time></trkpt><trkpt lat="51.4884967" lon="-9.7651967"><ele>23.0</ele><time>2026-05-05T15:37:17.192Z</time></trkpt><trkpt lat="51.4885683" lon="-9.7649717"><ele>23.0</ele><time>2026-05-05T15:37:18.193Z</time></trkpt><trkpt lat="51.488625" lon="-9.7647733"><ele>23.0</ele><time>2026-05-05T15:37:19.192Z</time></trkpt><trkpt lat="51.488675" lon="-9.7645683"><ele>22.25</ele><time>2026-05-05T15:37:20.193Z</time></trkpt><trkpt lat="51.488725" lon="-9.7643833"><ele>21.5</ele><time>2026-05-05T15:37:21.192Z</time></trkpt><trkpt lat="51.48877" lon="-9.7641817"><ele>20.75</ele><time>2026-05-05T15:37:22.192Z</time></trkpt><trkpt lat="51.4888183" lon="-9.7640083"><ele>20.0</ele><time>2026-05-05T15:37:23.193Z</time></trkpt><trkpt lat="51.4888983" lon="-9.7638183"><ele>23.666666666666668</ele><time>2026-05-05T15:37:24.193Z</time></trkpt><trkpt lat="51.4889917" lon="-9.7636"><ele>27.333333333333336</ele><time>2026-05-05T15:37:25.192Z</time></trkpt><trkpt lat="51.489085" lon="-9.7633967"><ele>31.0</ele><time>2026-05-05T15:37:26.192Z</time></trkpt><trkpt lat="51.4891683" lon="-9.7632"><ele>31.0</ele><time>2026-05-05T15:37:27.193Z</time></trkpt><trkpt lat="51.4892333" lon="-9.7630283"><ele>31.0</ele><time>2026-05-05T15:37:28.193Z</time></trkpt><trkpt lat="51.4893" lon="-9.7628817"><ele>31.0</ele><time>2026-05-05T15:37:29.192Z</time></trkpt><trkpt lat="51.489375" lon="-9.7627133"><ele>31.0</ele><time>2026-05-05T15:37:30.193Z</time></trkpt><trkpt lat="51.4894233" lon="-9.7625683"><ele>30.75</ele><time>2026-05-05T15:37:31.193Z</time></trkpt><trkpt lat="51.4894733" lon="-9.7624017"><ele>30.5</ele><time>2026-05-05T15:37:32.192Z</time></trkpt><trkpt lat="51.4895233" lon="-9.762235"><ele>30.25</ele><time>2026-05-05T15:37:33.193Z</time></trkpt><trkpt lat="51.4895817" lon="-9.7620767"><ele>30.0</ele><time>2026-05-05T15:37:34.193Z</time></trkpt><trkpt lat="51.4896433" lon="-9.761905"><ele>32.75</ele><time>2026-05-05T15:37:35.192Z</time></trkpt><trkpt lat="51.489705" lon="-9.7617183"><ele>35.5</ele><time>2026-05-05T15:37:36.193Z</time></trkpt><trkpt lat="51.489755" lon="-9.7615433"><ele>38.25</ele><time>2026-05-05T15:37:37.193Z</time></trkpt><trkpt lat="51.4897933" lon="-9.761375"><ele>41.0</ele><time>2026-05-05T15:37:38.193Z</time></trkpt><trkpt lat="51.4898383" lon="-9.7612183"><ele>41.0</ele><time>2026-05-05T15:37:39.193Z</time></trkpt><trkpt lat="51.4898733" lon="-9.761085"><ele>41.0</ele><time>2026-05-05T15:37:40.192Z</time></trkpt><trkpt lat="51.4898983" lon="-9.7609683"><ele>41.0</ele><time>2026-05-05T15:37:41.193Z</time></trkpt><trkpt lat="51.4899167" lon="-9.7608517"><ele>41.0</ele><time>2026-05-05T15:37:42.193Z</time></trkpt><trkpt lat="51.48994" lon="-9.76071"><ele>41.0</ele><time>2026-05-05T15:37:43.193Z</time></trkpt><trkpt lat="51.48994" lon="-9.76055"><ele>41.0</ele><time>2026-05-05T15:37:44.192Z</time></trkpt><trkpt lat="51.48991" lon="-9.76037"><ele>41.199999999999996</ele><time>2026-05-05T15:37:45.193Z</time></trkpt><trkpt lat="51.4898783" lon="-9.7601767"><ele>41.4</ele><time>2026-05-05T15:37:46.193Z</time></trkpt><trkpt lat="51.4898583" lon="-9.7599983"><ele>41.6</ele><time>2026-05-05T15:37:47.193Z</time></trkpt><trkpt lat="51.4898483" lon="-9.7598367"><ele>41.8</ele><time>2026-05-05T15:37:48.193Z</time></trkpt><trkpt lat="51.4898467" lon="-9.7596683"><ele>42.0</ele><time>2026-05-05T15:37:49.193Z</time></trkpt><trkpt lat="51.4898517" lon="-9.75949"><ele>42.75</ele><time>2026-05-05T15:37:50.193Z</time></trkpt><trkpt lat="51.4898617" lon="-9.7593033"><ele>43.5</ele><time>2026-05-05T15:37:51.192Z</time></trkpt><trkpt lat="51.4898933" lon="-9.75909"><ele>44.25</ele><time>2026-05-05T15:37:52.192Z</time></trkpt><trkpt lat="51.4899017" lon="-9.758875"><ele>45.0</ele><time>2026-05-05T15:37:53.193Z</time></trkpt><trkpt lat="51.4899233" lon="-9.75865"><ele>45.5</ele><time>2026-05-05T15:37:54.193Z</time></trkpt><trkpt lat="51.4899583" lon="-9.75841"><ele>46.0</ele><time>2026-05-05T15:37:55.192Z</time></trkpt><trkpt lat="51.4899917" lon="-9.7581883"><ele>46.5</ele><time>2026-05-05T15:37:56.193Z</time></trkpt><trkpt lat="51.4900217" lon="-9.75796"><ele>47.0</ele><time>2026-05-05T15:37:57.193Z</time></trkpt><trkpt lat="51.490055" lon="-9.757735"><ele>47.33333333333333</ele><time>2026-05-05T15:37:58.192Z</time></trkpt><trkpt lat="51.490085" lon="-9.7575017"><ele>47.666666666666664</ele><time>2026-05-05T15:37:59.193Z</time></trkpt><trkpt lat="51.4901167" lon="-9.757265"><ele>48.0</ele><time>2026-05-05T15:38:00.193Z</time></trkpt><trkpt lat="51.49016" lon="-9.7570333"><ele>48.0</ele><time>2026-05-05T15:38:01.193Z</time></trkpt><trkpt lat="51.49022" lon="-9.7567867"><ele>48.0</ele><time>2026-05-05T15:38:02.192Z</time></trkpt><trkpt lat="51.4902717" lon="-9.756545"><ele>48.0</ele><time>2026-05-05T15:38:03.192Z</time></trkpt><trkpt lat="51.4903167" lon="-9.7563167"><ele>48.0</ele><time>2026-05-05T15:38:04.192Z</time></trkpt><trkpt lat="51.4903683" lon="-9.7560883"><ele>48.0</ele><time>2026-05-05T15:38:05.193Z</time></trkpt><trkpt lat="51.49042" lon="-9.7558733"><ele>48.0</ele><time>2026-05-05T15:38:06.193Z</time></trkpt><trkpt lat="51.49048" lon="-9.75566"><ele>48.0</ele><time>2026-05-05T15:38:07.193Z</time></trkpt><trkpt lat="51.49055" lon="-9.7554517"><ele>50.75</ele><time>2026-05-05T15:38:08.192Z</time></trkpt><trkpt lat="51.490625" lon="-9.7552417"><ele>53.5</ele><time>2026-05-05T15:38:09.193Z</time></trkpt><trkpt lat="51.4906933" lon="-9.755045"><ele>56.25</ele><time>2026-05-05T15:38:10.193Z</time></trkpt><trkpt lat="51.49074" lon="-9.7548633"><ele>59.0</ele><time>2026-05-05T15:38:11.192Z</time></trkpt><trkpt lat="51.4907983" lon="-9.75469"><ele>59.0</ele><time>2026-05-05T15:38:12.193Z</time></trkpt><trkpt lat="51.490865" lon="-9.7545267"><ele>59.0</ele><time>2026-05-05T15:38:13.193Z</time></trkpt><trkpt lat="51.490945" lon="-9.75433"><ele>59.0</ele><time>2026-05-05T15:38:14.193Z</time></trkpt><trkpt lat="51.4910233" lon="-9.7541317"><ele>59.0</ele><time>2026-05-05T15:38:15.193Z</time></trkpt><trkpt lat="51.4911233" lon="-9.7539583"><ele>58.5</ele><time>2026-05-05T15:38:16.192Z</time></trkpt><trkpt lat="51.4912017" lon="-9.75378"><ele>58.0</ele><time>2026-05-05T15:38:17.192Z</time></trkpt><trkpt lat="51.4912917" lon="-9.7535867"><ele>57.5</ele><time>2026-05-05T15:38:18.193Z</time></trkpt><trkpt lat="51.491385" lon="-9.7533983"><ele>57.0</ele><time>2026-05-05T15:38:19.193Z</time></trkpt><trkpt lat="51.49149" lon="-9.7532133"><ele>59.66666666666667</ele><time>2026-05-05T15:38:20.193Z</time></trkpt><trkpt lat="51.4916383" lon="-9.7529483"><ele>62.333333333333336</ele><time>2026-05-05T15:38:21.193Z</time></trkpt><trkpt lat="51.491745" lon="-9.75278"><ele>65.0</ele><time>2026-05-05T15:38:22.192Z</time></trkpt><trkpt lat="51.4918333" lon="-9.7526367"><ele>65.2</ele><time>2026-05-05T15:38:23.192Z</time></trkpt><trkpt lat="51.49192" lon="-9.7525267"><ele>65.4</ele><time>2026-05-05T15:38:24.192Z</time></trkpt><trkpt lat="51.492005" lon="-9.75242"><ele>65.6</ele><time>2026-05-05T15:38:25.193Z</time></trkpt><trkpt lat="51.492085" lon="-9.7523317"><ele>65.8</ele><time>2026-05-05T15:38:26.193Z</time></trkpt><trkpt lat="51.4921833" lon="-9.7522567"><ele>66.0</ele><time>2026-05-05T15:38:27.192Z</time></trkpt><trkpt lat="51.49231" lon="-9.752165"><ele>67.33333333333333</ele><time>2026-05-05T15:38:28.193Z</time></trkpt><trkpt lat="51.4924517" lon="-9.75207"><ele>68.66666666666666</ele><time>2026-05-05T15:38:29.192Z</time></trkpt><trkpt lat="51.4925983" lon="-9.751985"><ele>70.0</ele><time>2026-05-05T15:38:30.193Z</time></trkpt><trkpt lat="51.4927517" lon="-9.7519167"><ele>69.5</ele><time>2026-05-05T15:38:31.193Z</time></trkpt><trkpt lat="51.49288" lon="-9.75181"><ele>69.0</ele><time>2026-05-05T15:38:32.192Z</time></trkpt><trkpt lat="51.4929983" lon="-9.7517067"><ele>68.5</ele><time>2026-05-05T15:38:33.192Z</time></trkpt><trkpt lat="51.49311" lon="-9.751615"><ele>68.0</ele><time>2026-05-05T15:38:34.192Z</time></trkpt><trkpt lat="51.4932083" lon="-9.7515083"><ele>68.8</ele><time>2026-05-05T15:38:35.193Z</time></trkpt><trkpt lat="51.4933017" lon="-9.7513983"><ele>69.6</ele><time>2026-05-05T15:38:36.193Z</time></trkpt><trkpt lat="51.49338" lon="-9.7513183"><ele>70.4</ele><time>2026-05-05T15:38:37.192Z</time></trkpt><trkpt lat="51.4934567" lon="-9.7512367"><ele>71.2</ele><time>2026-05-05T15:38:38.193Z</time></trkpt><trkpt lat="51.493525" lon="-9.75116"><ele>72.0</ele><time>2026-05-05T15:38:39.193Z</time></trkpt><trkpt lat="51.4935817" lon="-9.7510717"><ele>72.5</ele><time>2026-05-05T15:38:40.192Z</time></trkpt><trkpt lat="51.493635" lon="-9.7509833"><ele>73.0</ele><time>2026-05-05T15:38:41.193Z</time></trkpt><trkpt lat="51.4936817" lon="-9.7508933"><ele>73.5</ele><time>2026-05-05T15:38:42.192Z</time></trkpt><trkpt lat="51.4937367" lon="-9.750795"><ele>74.0</ele><time>2026-05-05T15:38:43.192Z</time></trkpt><trkpt lat="51.4937667" lon="-9.7506967"><ele>74.5</ele><time>2026-05-05T15:38:44.193Z</time></trkpt><trkpt lat="51.4937817" lon="-9.7505717"><ele>75.0</ele><time>2026-05-05T15:38:45.193Z</time></trkpt><trkpt lat="51.4938017" lon="-9.7504367"><ele>75.6</ele><time>2026-05-05T15:38:46.192Z</time></trkpt><trkpt lat="51.4938117" lon="-9.75028"><ele>76.2</ele><time>2026-05-05T15:38:47.193Z</time></trkpt><trkpt lat="51.4937883" lon="-9.7501383"><ele>76.8</ele><time>2026-05-05T15:38:48.193Z</time></trkpt><trkpt lat="51.4937733" lon="-9.7499967"><ele>77.4</ele><time>2026-05-05T15:38:49.193Z</time></trkpt><trkpt lat="51.4937583" lon="-9.74985"><ele>78.0</ele><time>2026-05-05T15:38:50.192Z</time></trkpt><trkpt lat="51.4937367" lon="-9.7496833"><ele>78.0</ele><time>2026-05-05T15:38:51.193Z</time></trkpt><trkpt lat="51.4936683" lon="-9.7495383"><ele>78.0</ele><time>2026-05-05T15:38:52.193Z</time></trkpt><trkpt lat="51.4936117" lon="-9.7494017"><ele>78.0</ele><time>2026-05-05T15:38:53.193Z</time></trkpt><trkpt lat="51.4935167" lon="-9.7493067"><ele>78.0</ele><time>2026-05-05T15:38:54.193Z</time></trkpt><trkpt lat="51.4933833" lon="-9.749245"><ele>78.6</ele><time>2026-05-05T15:38:55.192Z</time></trkpt><trkpt lat="51.4932517" lon="-9.7491767"><ele>79.19999999999999</ele><time>2026-05-05T15:38:56.193Z</time></trkpt><trkpt lat="51.4931333" lon="-9.7491033"><ele>79.8</ele><time>2026-05-05T15:38:57.193Z</time></trkpt><trkpt lat="51.4930433" lon="-9.7490233"><ele>80.39999999999999</ele><time>2026-05-05T15:38:58.193Z</time></trkpt><trkpt lat="51.4929783" lon="-9.748945"><ele>81.0</ele><time>2026-05-05T15:38:59.192Z</time></trkpt><trkpt lat="51.4929433" lon="-9.7488333"><ele>81.0</ele><time>2026-05-05T15:39:00.193Z</time></trkpt><trkpt lat="51.4929267" lon="-9.7487183"><ele>81.0</ele><time>2026-05-05T15:39:01.193Z</time></trkpt><trkpt lat="51.4929233" lon="-9.7485917"><ele>81.0</ele><time>2026-05-05T15:39:02.192Z</time></trkpt><trkpt lat="51.4929417" lon="-9.7484333"><ele>81.0</ele><time>2026-05-05T15:39:03.192Z</time></trkpt><trkpt lat="51.4929733" lon="-9.74826"><ele>81.0</ele><time>2026-05-05T15:39:04.192Z</time></trkpt><trkpt lat="51.4930067" lon="-9.7480817"><ele>81.6</ele><time>2026-05-05T15:39:05.192Z</time></trkpt><trkpt lat="51.493035" lon="-9.7479167"><ele>82.19999999999999</ele><time>2026-05-05T15:39:06.193Z</time></trkpt><trkpt lat="51.493065" lon="-9.7477617"><ele>82.80000000000001</ele><time>2026-05-05T15:39:07.192Z</time></trkpt><trkpt lat="51.493085" lon="-9.7476167"><ele>83.4</ele><time>2026-05-05T15:39:08.192Z</time></trkpt><trkpt lat="51.4931033" lon="-9.7474483"><ele>84.0</ele><time>2026-05-05T15:39:09.193Z</time></trkpt><trkpt lat="51.4930867" lon="-9.7473017"><ele>84.6</ele><time>2026-05-05T15:39:10.192Z</time></trkpt><trkpt lat="51.4930817" lon="-9.7471433"><ele>85.2</ele><time>2026-05-05T15:39:11.192Z</time></trkpt><trkpt lat="51.4930783" lon="-9.7469883"><ele>85.8</ele><time>2026-05-05T15:39:12.193Z</time></trkpt><trkpt lat="51.493085" lon="-9.7468233"><ele>86.39999999999999</ele><time>2026-05-05T15:39:13.192Z</time></trkpt><trkpt lat="51.493105" lon="-9.746625"><ele>87.0</ele><time>2026-05-05T15:39:14.193Z</time></trkpt><trkpt lat="51.4931283" lon="-9.746415"><ele>87.5</ele><time>2026-05-05T15:39:15.192Z</time></trkpt><trkpt lat="51.4931533" lon="-9.746195"><ele>88.0</ele><time>2026-05-05T15:39:16.193Z</time></trkpt><trkpt lat="51.49317" lon="-9.7459717"><ele>88.5</ele><time>2026-05-05T15:39:17.192Z</time></trkpt><trkpt lat="51.493185" lon="-9.7457517"><ele>89.0</ele><time>2026-05-05T15:39:18.193Z</time></trkpt><trkpt lat="51.4931967" lon="-9.74552"><ele>89.25</ele><time>2026-05-05T15:39:19.193Z</time></trkpt><trkpt lat="51.49321" lon="-9.7452817"><ele>89.5</ele><time>2026-05-05T15:39:20.193Z</time></trkpt><trkpt lat="51.4932167" lon="-9.7450367"><ele>89.75</ele><time>2026-05-05T15:39:21.193Z</time></trkpt><trkpt lat="51.49322" lon="-9.74483"><ele>90.0</ele><time>2026-05-05T15:39:22.192Z</time></trkpt><trkpt lat="51.4932233" lon="-9.74462"><ele>90.0</ele><time>2026-05-05T15:39:23.192Z</time></trkpt><trkpt lat="51.4932267" lon="-9.7444483"><ele>90.0</ele><time>2026-05-05T15:39:24.193Z</time></trkpt><trkpt lat="51.4932283" lon="-9.7443117"><ele>90.0</ele><time>2026-05-05T15:39:25.192Z</time></trkpt><trkpt lat="51.49323" lon="-9.7441967"><ele>90.0</ele><time>2026-05-05T15:39:26.193Z</time></trkpt><trkpt lat="51.4932617" lon="-9.744005"><ele>90.0</ele><time>2026-05-05T15:39:28.193Z</time></trkpt><trkpt lat="51.493295" lon="-9.7439067"><ele>90.25</ele><time>2026-05-05T15:39:29.193Z</time></trkpt><trkpt lat="51.4933483" lon="-9.743785"><ele>90.5</ele><time>2026-05-05T15:39:30.192Z</time></trkpt><trkpt lat="51.4934167" lon="-9.7436367"><ele>90.75</ele><time>2026-05-05T15:39:31.192Z</time></trkpt><trkpt lat="51.49349" lon="-9.7434867"><ele>91.0</ele><time>2026-05-05T15:39:32.192Z</time></trkpt><trkpt lat="51.4935833" lon="-9.7433117"><ele>91.0</ele><time>2026-05-05T15:39:33.193Z</time></trkpt><trkpt lat="51.49369" lon="-9.7431183"><ele>91.0</ele><time>2026-05-05T15:39:34.193Z</time></trkpt><trkpt lat="51.4937867" lon="-9.7429467"><ele>91.0</ele><time>2026-05-05T15:39:35.193Z</time></trkpt><trkpt lat="51.4938933" lon="-9.7427717"><ele>94.66666666666666</ele><time>2026-05-05T15:39:36.192Z</time></trkpt><trkpt lat="51.494025" lon="-9.7425733"><ele>98.33333333333333</ele><time>2026-05-05T15:39:37.192Z</time></trkpt><trkpt lat="51.49412" lon="-9.7423867"><ele>102.0</ele><time>2026-05-05T15:39:38.192Z</time></trkpt><trkpt lat="51.494215" lon="-9.7422233"><ele>102.0</ele><time>2026-05-05T15:39:39.193Z</time></trkpt><trkpt lat="51.4943183" lon="-9.7420483"><ele>102.0</ele><time>2026-05-05T15:39:40.192Z</time></trkpt><trkpt lat="51.4944367" lon="-9.74189"><ele>102.0</ele><time>2026-05-05T15:39:41.193Z</time></trkpt><trkpt lat="51.49455" lon="-9.7417033"><ele>105.66666666666666</ele><time>2026-05-05T15:39:42.192Z</time></trkpt><trkpt lat="51.49467" lon="-9.74154"><ele>109.33333333333333</ele><time>2026-05-05T15:39:43.193Z</time></trkpt><trkpt lat="51.4947817" lon="-9.7413667"><ele>113.0</ele><time>2026-05-05T15:39:44.193Z</time></trkpt><trkpt lat="51.4948867" lon="-9.7412017"><ele>112.0</ele><time>2026-05-05T15:39:45.193Z</time></trkpt><trkpt lat="51.4950083" lon="-9.7410283"><ele>111.0</ele><time>2026-05-05T15:39:46.192Z</time></trkpt><trkpt lat="51.4951267" lon="-9.7408583"><ele>110.0</ele><time>2026-05-05T15:39:47.193Z</time></trkpt><trkpt lat="51.4952417" lon="-9.7407017"><ele>110.0</ele><time>2026-05-05T15:39:48.193Z</time></trkpt><trkpt lat="51.4953483" lon="-9.7405233"><ele>110.0</ele><time>2026-05-05T15:39:49.193Z</time></trkpt><trkpt lat="51.49546" lon="-9.7403417"><ele>110.0</ele><time>2026-05-05T15:39:50.192Z</time></trkpt><trkpt lat="51.4955417" lon="-9.7401583"><ele>112.25</ele><time>2026-05-05T15:39:51.193Z</time></trkpt><trkpt lat="51.49564" lon="-9.7399733"><ele>114.5</ele><time>2026-05-05T15:39:52.193Z</time></trkpt><trkpt lat="51.495725" lon="-9.73978"><ele>116.75</ele><time>2026-05-05T15:39:53.192Z</time></trkpt><trkpt lat="51.49582" lon="-9.7395983"><ele>119.0</ele><time>2026-05-05T15:39:54.192Z</time></trkpt><trkpt lat="51.4958883" lon="-9.7394133"><ele>118.75</ele><time>2026-05-05T15:39:55.192Z</time></trkpt><trkpt lat="51.495965" lon="-9.739225"><ele>118.5</ele><time>2026-05-05T15:39:56.192Z</time></trkpt><trkpt lat="51.4960133" lon="-9.7390367"><ele>118.25</ele><time>2026-05-05T15:39:57.193Z</time></trkpt><trkpt lat="51.4960433" lon="-9.73887"><ele>118.0</ele><time>2026-05-05T15:39:58.192Z</time></trkpt><trkpt lat="51.4960667" lon="-9.73872"><ele>118.0</ele><time>2026-05-05T15:39:59.193Z</time></trkpt><trkpt lat="51.4960883" lon="-9.7385633"><ele>118.0</ele><time>2026-05-05T15:40:00.193Z</time></trkpt><trkpt lat="51.4961167" lon="-9.7383867"><ele>118.0</ele><time>2026-05-05T15:40:01.193Z</time></trkpt><trkpt lat="51.4961517" lon="-9.7381833"><ele>118.0</ele><time>2026-05-05T15:40:02.193Z</time></trkpt><trkpt lat="51.4961817" lon="-9.73799"><ele>118.25</ele><time>2026-05-05T15:40:03.193Z</time></trkpt><trkpt lat="51.4962017" lon="-9.7378083"><ele>118.5</ele><time>2026-05-05T15:40:04.193Z</time></trkpt><trkpt lat="51.4962317" lon="-9.7376317"><ele>118.75</ele><time>2026-05-05T15:40:05.192Z</time></trkpt><trkpt lat="51.4962767" lon="-9.73745"><ele>119.0</ele><time>2026-05-05T15:40:06.193Z</time></trkpt><trkpt lat="51.4963283" lon="-9.7372783"><ele>119.75</ele><time>2026-05-05T15:40:07.193Z</time></trkpt><trkpt lat="51.4963833" lon="-9.7371133"><ele>120.5</ele><time>2026-05-05T15:40:08.193Z</time></trkpt><trkpt lat="51.4964417" lon="-9.736955"><ele>121.25</ele><time>2026-05-05T15:40:09.193Z</time></trkpt><trkpt lat="51.4965083" lon="-9.7368"><ele>122.0</ele><time>2026-05-05T15:40:10.192Z</time></trkpt><trkpt lat="51.49658" lon="-9.7366617"><ele>122.0</ele><time>2026-05-05T15:40:11.193Z</time></trkpt><trkpt lat="51.4966617" lon="-9.736515"><ele>122.0</ele><time>2026-05-05T15:40:12.193Z</time></trkpt><trkpt lat="51.496745" lon="-9.7363783"><ele>122.0</ele><time>2026-05-05T15:40:13.193Z</time></trkpt><trkpt lat="51.4968183" lon="-9.7362483"><ele>122.0</ele><time>2026-05-05T15:40:14.193Z</time></trkpt><trkpt lat="51.496905" lon="-9.7361217"><ele>121.5</ele><time>2026-05-05T15:40:15.192Z</time></trkpt><trkpt lat="51.496995" lon="-9.7360017"><ele>121.0</ele><time>2026-05-05T15:40:16.193Z</time></trkpt><trkpt lat="51.4971" lon="-9.7359067"><ele>120.5</ele><time>2026-05-05T15:40:17.193Z</time></trkpt><trkpt lat="51.4972133" lon="-9.7357917"><ele>120.0</ele><time>2026-05-05T15:40:18.193Z</time></trkpt><trkpt lat="51.49733" lon="-9.7356867"><ele>120.0</ele><time>2026-05-05T15:40:19.193Z</time></trkpt><trkpt lat="51.497435" lon="-9.7355867"><ele>120.0</ele><time>2026-05-05T15:40:20.193Z</time></trkpt><trkpt lat="51.4975217" lon="-9.7354917"><ele>120.0</ele><time>2026-05-05T15:40:21.193Z</time></trkpt><trkpt lat="51.49762" lon="-9.7353867"><ele>120.0</ele><time>2026-05-05T15:40:22.192Z</time></trkpt><trkpt lat="51.4977333" lon="-9.73532"><ele>120.0</ele><time>2026-05-05T15:40:23.192Z</time></trkpt><trkpt lat="51.49785" lon="-9.735265"><ele>120.0</ele><time>2026-05-05T15:40:24.193Z</time></trkpt><trkpt lat="51.497975" lon="-9.7352217"><ele>120.0</ele><time>2026-05-05T15:40:25.193Z</time></trkpt><trkpt lat="51.4981067" lon="-9.7352"><ele>120.0</ele><time>2026-05-05T15:40:26.192Z</time></trkpt><trkpt lat="51.4982283" lon="-9.7351917"><ele>120.0</ele><time>2026-05-05T15:40:27.193Z</time></trkpt><trkpt lat="51.4983383" lon="-9.7351933"><ele>120.0</ele><time>2026-05-05T15:40:28.192Z</time></trkpt><trkpt lat="51.498455" lon="-9.7352283"><ele>120.0</ele><time>2026-05-05T15:40:29.193Z</time></trkpt><trkpt lat="51.4985667" lon="-9.7352767"><ele>120.0</ele><time>2026-05-05T15:40:30.192Z</time></trkpt><trkpt lat="51.49868" lon="-9.735335"><ele>119.0</ele><time>2026-05-05T15:40:31.193Z</time></trkpt><trkpt lat="51.4987817" lon="-9.7353883"><ele>118.0</ele><time>2026-05-05T15:40:32.193Z</time></trkpt><trkpt lat="51.4988783" lon="-9.7354517"><ele>117.0</ele><time>2026-05-05T15:40:33.192Z</time></trkpt><trkpt lat="51.4989667" lon="-9.7355317"><ele>116.0</ele><time>2026-05-05T15:40:34.193Z</time></trkpt><trkpt lat="51.49905" lon="-9.7355867"><ele>115.0</ele><time>2026-05-05T15:40:35.192Z</time></trkpt><trkpt lat="51.49912" lon="-9.7356333"><ele>115.0</ele><time>2026-05-05T15:40:36.192Z</time></trkpt><trkpt lat="51.499225" lon="-9.7356633"><ele>115.0</ele><time>2026-05-05T15:40:38.193Z</time></trkpt><trkpt lat="51.4993" lon="-9.7356783"><ele>115.0</ele><time>2026-05-05T15:40:40.192Z</time></trkpt><trkpt lat="51.49939" lon="-9.73573"><ele>115.0</ele><time>2026-05-05T15:40:51.193Z</time></trkpt><trkpt lat="51.4994867" lon="-9.7357783"><ele>115.0</ele><time>2026-05-05T15:40:53.192Z</time></trkpt><trkpt lat="51.4995567" lon="-9.7358117"><ele>115.16666666666667</ele><time>2026-05-05T15:40:54.192Z</time></trkpt><trkpt lat="51.49962" lon="-9.7358167"><ele>115.33333333333334</ele><time>2026-05-05T15:40:55.193Z</time></trkpt><trkpt lat="51.499695" lon="-9.7358083"><ele>115.5</ele><time>2026-05-05T15:40:56.193Z</time></trkpt><trkpt lat="51.4997833" lon="-9.7357867"><ele>115.66666666666666</ele><time>2026-05-05T15:40:57.192Z</time></trkpt><trkpt lat="51.4998867" lon="-9.7357733"><ele>115.83333333333333</ele><time>2026-05-05T15:40:58.193Z</time></trkpt><trkpt lat="51.5" lon="-9.735765"><ele>116.0</ele><time>2026-05-05T15:40:59.193Z</time></trkpt><trkpt lat="51.50012" lon="-9.7357317"><ele>116.0</ele><time>2026-05-05T15:41:00.192Z</time></trkpt><trkpt lat="51.5002333" lon="-9.7356967"><ele>116.0</ele><time>2026-05-05T15:41:01.192Z</time></trkpt><trkpt lat="51.5003467" lon="-9.735665"><ele>116.0</ele><time>2026-05-05T15:41:02.193Z</time></trkpt><trkpt lat="51.500465" lon="-9.735655"><ele>116.0</ele><time>2026-05-05T15:41:03.193Z</time></trkpt><trkpt lat="51.50057" lon="-9.735635"><ele>116.8</ele><time>2026-05-05T15:41:04.193Z</time></trkpt><trkpt lat="51.5006667" lon="-9.735605"><ele>117.6</ele><time>2026-05-05T15:41:05.193Z</time></trkpt><trkpt lat="51.5007667" lon="-9.7355883"><ele>118.4</ele><time>2026-05-05T15:41:06.192Z</time></trkpt><trkpt lat="51.5008683" lon="-9.73557"><ele>119.2</ele><time>2026-05-05T15:41:07.193Z</time></trkpt><trkpt lat="51.5009667" lon="-9.735535"><ele>120.0</ele><time>2026-05-05T15:41:08.193Z</time></trkpt><trkpt lat="51.5010717" lon="-9.7354817"><ele>120.0</ele><time>2026-05-05T15:41:09.193Z</time></trkpt><trkpt lat="51.5011817" lon="-9.7354217"><ele>120.0</ele><time>2026-05-05T15:41:10.192Z</time></trkpt><trkpt lat="51.501295" lon="-9.735355"><ele>120.0</ele><time>2026-05-05T15:41:11.193Z</time></trkpt><trkpt lat="51.5014033" lon="-9.735295"><ele>120.0</ele><time>2026-05-05T15:41:12.192Z</time></trkpt><trkpt lat="51.501525" lon="-9.7352133"><ele>118.75</ele><time>2026-05-05T15:41:13.193Z</time></trkpt><trkpt lat="51.501665" lon="-9.7351117"><ele>117.5</ele><time>2026-05-05T15:41:14.192Z</time></trkpt><trkpt lat="51.5017917" lon="-9.7350167"><ele>116.25</ele><time>2026-05-05T15:41:15.192Z</time></trkpt><trkpt lat="51.501915" lon="-9.73494"><ele>115.0</ele><time>2026-05-05T15:41:16.193Z</time></trkpt><trkpt lat="51.50204" lon="-9.7348633"><ele>116.0</ele><time>2026-05-05T15:41:17.193Z</time></trkpt><trkpt lat="51.50216" lon="-9.734795"><ele>117.0</ele><time>2026-05-05T15:41:18.192Z</time></trkpt><trkpt lat="51.502275" lon="-9.73477"><ele>118.0</ele><time>2026-05-05T15:41:19.193Z</time></trkpt><trkpt lat="51.50238" lon="-9.734715"><ele>119.0</ele><time>2026-05-05T15:41:20.193Z</time></trkpt><trkpt lat="51.5024817" lon="-9.7346717"><ele>119.0</ele><time>2026-05-05T15:41:21.192Z</time></trkpt><trkpt lat="51.50258" lon="-9.73463"><ele>119.0</ele><time>2026-05-05T15:41:22.192Z</time></trkpt><trkpt lat="51.5026883" lon="-9.7346033"><ele>119.0</ele><time>2026-05-05T15:41:23.193Z</time></trkpt><trkpt lat="51.5028" lon="-9.73457"><ele>119.0</ele><time>2026-05-05T15:41:24.193Z</time></trkpt><trkpt lat="51.50291" lon="-9.7345483"><ele>119.0</ele><time>2026-05-05T15:41:25.193Z</time></trkpt><trkpt lat="51.5030267" lon="-9.73454"><ele>118.75</ele><time>2026-05-05T15:41:26.193Z</time></trkpt><trkpt lat="51.50314" lon="-9.7345233"><ele>118.5</ele><time>2026-05-05T15:41:27.192Z</time></trkpt><trkpt lat="51.5032483" lon="-9.7344917"><ele>118.25</ele><time>2026-05-05T15:41:28.193Z</time></trkpt><trkpt lat="51.5033567" lon="-9.7344517"><ele>118.0</ele><time>2026-05-05T15:41:29.193Z</time></trkpt><trkpt lat="51.5034683" lon="-9.7343983"><ele>117.0</ele><time>2026-05-05T15:41:30.192Z</time></trkpt><trkpt lat="51.5035783" lon="-9.7343533"><ele>116.00000000000001</ele><time>2026-05-05T15:41:31.193Z</time></trkpt><trkpt lat="51.50368" lon="-9.7343067"><ele>115.00000000000001</ele><time>2026-05-05T15:41:32.192Z</time></trkpt><trkpt lat="51.5037883" lon="-9.7342533"><ele>114.0</ele><time>2026-05-05T15:41:33.193Z</time></trkpt><trkpt lat="51.503895" lon="-9.7342033"><ele>113.0</ele><time>2026-05-05T15:41:34.193Z</time></trkpt><trkpt lat="51.504" lon="-9.7341633"><ele>113.0</ele><time>2026-05-05T15:41:35.193Z</time></trkpt><trkpt lat="51.504095" lon="-9.7341217"><ele>113.00000000000001</ele><time>2026-05-05T15:41:36.192Z</time></trkpt><trkpt lat="51.5041917" lon="-9.734065"><ele>113.00000000000001</ele><time>2026-05-05T15:41:37.193Z</time></trkpt><trkpt lat="51.5042967" lon="-9.7339967"><ele>113.0</ele><time>2026-05-05T15:41:38.192Z</time></trkpt><trkpt lat="51.5044017" lon="-9.7339183"><ele>113.0</ele><time>2026-05-05T15:41:39.192Z</time></trkpt><trkpt lat="51.5044967" lon="-9.7338383"><ele>113.80000000000001</ele><time>2026-05-05T15:41:40.193Z</time></trkpt><trkpt lat="51.504595" lon="-9.7337333"><ele>114.60000000000001</ele><time>2026-05-05T15:41:41.193Z</time></trkpt><trkpt lat="51.5046833" lon="-9.733635"><ele>115.39999999999999</ele><time>2026-05-05T15:41:42.193Z</time></trkpt><trkpt lat="51.5047633" lon="-9.7335517"><ele>116.19999999999999</ele><time>2026-05-05T15:41:43.193Z</time></trkpt><trkpt lat="51.504835" lon="-9.73346"><ele>117.0</ele><time>2026-05-05T15:41:44.193Z</time></trkpt><trkpt lat="51.5049067" lon="-9.73337"><ele>115.5</ele><time>2026-05-05T15:41:45.193Z</time></trkpt><trkpt lat="51.5049733" lon="-9.7332733"><ele>114.0</ele><time>2026-05-05T15:41:46.193Z</time></trkpt><trkpt lat="51.50504" lon="-9.7331833"><ele>112.5</ele><time>2026-05-05T15:41:47.193Z</time></trkpt><trkpt lat="51.50511" lon="-9.7330983"><ele>111.0</ele><time>2026-05-05T15:41:48.193Z</time></trkpt><trkpt lat="51.5051817" lon="-9.7330133"><ele>109.5</ele><time>2026-05-05T15:41:49.192Z</time></trkpt><trkpt lat="51.5052533" lon="-9.7329133"><ele>108.0</ele><time>2026-05-05T15:41:50.192Z</time></trkpt><trkpt lat="51.5053283" lon="-9.73281"><ele>107.5</ele><time>2026-05-05T15:41:51.193Z</time></trkpt><trkpt lat="51.5053917" lon="-9.732715"><ele>107.0</ele><time>2026-05-05T15:41:52.193Z</time></trkpt><trkpt lat="51.50545" lon="-9.7326233"><ele>106.5</ele><time>2026-05-05T15:41:53.193Z</time></trkpt><trkpt lat="51.5055017" lon="-9.7325433"><ele>106.0</ele><time>2026-05-05T15:41:54.193Z</time></trkpt><trkpt lat="51.5055467" lon="-9.7324717"><ele>105.5</ele><time>2026-05-05T15:41:55.193Z</time></trkpt><trkpt lat="51.5056317" lon="-9.7323933"><ele>105.0</ele><time>2026-05-05T15:41:57.193Z</time></trkpt><trkpt lat="51.50575" lon="-9.73235"><ele>105.0</ele><time>2026-05-05T15:41:59.192Z</time></trkpt><trkpt lat="51.505825" lon="-9.7323467"><ele>105.0</ele><time>2026-05-05T15:42:00.192Z</time></trkpt><trkpt lat="51.5059017" lon="-9.732365"><ele>105.0</ele><time>2026-05-05T15:42:01.193Z</time></trkpt><trkpt lat="51.5059717" lon="-9.7323917"><ele>105.0</ele><time>2026-05-05T15:42:02.192Z</time></trkpt><trkpt lat="51.506095" lon="-9.7325217"><ele>105.0</ele><time>2026-05-05T15:42:04.192Z</time></trkpt><trkpt lat="51.5061517" lon="-9.7326117"><ele>106.8</ele><time>2026-05-05T15:42:05.193Z</time></trkpt><trkpt lat="51.50621" lon="-9.7327417"><ele>108.6</ele><time>2026-05-05T15:42:06.192Z</time></trkpt><trkpt lat="51.506255" lon="-9.7329017"><ele>110.4</ele><time>2026-05-05T15:42:07.193Z</time></trkpt><trkpt lat="51.5063167" lon="-9.7330767"><ele>112.2</ele><time>2026-05-05T15:42:08.192Z</time></trkpt><trkpt lat="51.5063733" lon="-9.7332317"><ele>114.0</ele><time>2026-05-05T15:42:09.192Z</time></trkpt><trkpt lat="51.5064367" lon="-9.7333633"><ele>115.0</ele><time>2026-05-05T15:42:10.192Z</time></trkpt><trkpt lat="51.506505" lon="-9.733455"><ele>116.0</ele><time>2026-05-05T15:42:11.193Z</time></trkpt><trkpt lat="51.5065783" lon="-9.7335267"><ele>117.0</ele><time>2026-05-05T15:42:12.193Z</time></trkpt><trkpt lat="51.5066633" lon="-9.7335883"><ele>118.0</ele><time>2026-05-05T15:42:13.193Z</time></trkpt><trkpt lat="51.5067567" lon="-9.7336367"><ele>119.0</ele><time>2026-05-05T15:42:14.192Z</time></trkpt><trkpt lat="51.5068817" lon="-9.73368"><ele>120.6</ele><time>2026-05-05T15:42:15.192Z</time></trkpt><trkpt lat="51.507005" lon="-9.7337117"><ele>122.2</ele><time>2026-05-05T15:42:16.192Z</time></trkpt><trkpt lat="51.507115" lon="-9.733745"><ele>123.79999999999998</ele><time>2026-05-05T15:42:17.192Z</time></trkpt><trkpt lat="51.5072" lon="-9.7337733"><ele>125.39999999999999</ele><time>2026-05-05T15:42:18.192Z</time></trkpt><trkpt lat="51.5072717" lon="-9.733765"><ele>127.0</ele><time>2026-05-05T15:42:19.192Z</time></trkpt><trkpt lat="51.5073517" lon="-9.7337783"><ele>127.83333333333334</ele><time>2026-05-05T15:42:20.192Z</time></trkpt><trkpt lat="51.5074317" lon="-9.733805"><ele>128.66666666666669</ele><time>2026-05-05T15:42:21.193Z</time></trkpt><trkpt lat="51.507515" lon="-9.7338367"><ele>129.5</ele><time>2026-05-05T15:42:22.192Z</time></trkpt><trkpt lat="51.5075967" lon="-9.7338767"><ele>130.33333333333334</ele><time>2026-05-05T15:42:23.192Z</time></trkpt><trkpt lat="51.5076817" lon="-9.7339083"><ele>131.16666666666666</ele><time>2026-05-05T15:42:24.192Z</time></trkpt><trkpt lat="51.5077733" lon="-9.733945"><ele>132.0</ele><time>2026-05-05T15:42:25.193Z</time></trkpt><trkpt lat="51.50786" lon="-9.73397"><ele>133.0</ele><time>2026-05-05T15:42:26.192Z</time></trkpt><trkpt lat="51.5079467" lon="-9.7339867"><ele>134.0</ele><time>2026-05-05T15:42:27.193Z</time></trkpt><trkpt lat="51.5080217" lon="-9.733995"><ele>135.0</ele><time>2026-05-05T15:42:28.193Z</time></trkpt><trkpt lat="51.5080933" lon="-9.7339967"><ele>136.0</ele><time>2026-05-05T15:42:29.192Z</time></trkpt><trkpt lat="51.5081683" lon="-9.7339867"><ele>137.0</ele><time>2026-05-05T15:42:30.193Z</time></trkpt><trkpt lat="51.508245" lon="-9.7339483"><ele>138.0</ele><time>2026-05-05T15:42:31.193Z</time></trkpt><trkpt lat="51.50834" lon="-9.733925"><ele>138.0</ele><time>2026-05-05T15:42:32.193Z</time></trkpt><trkpt lat="51.5084583" lon="-9.7339033"><ele>138.0</ele><time>2026-05-05T15:42:33.193Z</time></trkpt><trkpt lat="51.5085817" lon="-9.7338933"><ele>138.0</ele><time>2026-05-05T15:42:34.193Z</time></trkpt><trkpt lat="51.5086883" lon="-9.7338933"><ele>138.0</ele><time>2026-05-05T15:42:35.193Z</time></trkpt><trkpt lat="51.5087883" lon="-9.7338933"><ele>138.0</ele><time>2026-05-05T15:42:36.193Z</time></trkpt><trkpt lat="51.508875" lon="-9.7339"><ele>139.0</ele><time>2026-05-05T15:42:37.193Z</time></trkpt><trkpt lat="51.5089683" lon="-9.7338833"><ele>140.0</ele><time>2026-05-05T15:42:38.192Z</time></trkpt><trkpt lat="51.5090567" lon="-9.73385"><ele>141.0</ele><time>2026-05-05T15:42:39.193Z</time></trkpt><trkpt lat="51.509135" lon="-9.733815"><ele>142.0</ele><time>2026-05-05T15:42:40.193Z</time></trkpt><trkpt lat="51.5092067" lon="-9.7337917"><ele>143.0</ele><time>2026-05-05T15:42:41.192Z</time></trkpt><trkpt lat="51.5092733" lon="-9.7337783"><ele>144.0</ele><time>2026-05-05T15:42:42.193Z</time></trkpt><trkpt lat="51.50934" lon="-9.73376"><ele>144.0</ele><time>2026-05-05T15:42:43.193Z</time></trkpt><trkpt lat="51.5094117" lon="-9.7337367"><ele>144.0</ele><time>2026-05-05T15:42:44.193Z</time></trkpt><trkpt lat="51.5094883" lon="-9.7337"><ele>144.0</ele><time>2026-05-05T15:42:45.193Z</time></trkpt><trkpt lat="51.5095733" lon="-9.73366"><ele>144.0</ele><time>2026-05-05T15:42:46.192Z</time></trkpt><trkpt lat="51.5096617" lon="-9.7336183"><ele>144.0</ele><time>2026-05-05T15:42:47.193Z</time></trkpt><trkpt lat="51.509765" lon="-9.7335833"><ele>144.0</ele><time>2026-05-05T15:42:48.192Z</time></trkpt><trkpt lat="51.509875" lon="-9.733545"><ele>143.0</ele><time>2026-05-05T15:42:49.192Z</time></trkpt><trkpt lat="51.50999" lon="-9.733505"><ele>142.0</ele><time>2026-05-05T15:42:50.193Z</time></trkpt><trkpt lat="51.5101017" lon="-9.7334733"><ele>141.0</ele><time>2026-05-05T15:42:51.193Z</time></trkpt><trkpt lat="51.5102067" lon="-9.7334483"><ele>140.0</ele><time>2026-05-05T15:42:52.193Z</time></trkpt><trkpt lat="51.5103167" lon="-9.7334233"><ele>139.0</ele><time>2026-05-05T15:42:53.192Z</time></trkpt><trkpt lat="51.5104233" lon="-9.7333867"><ele>142.5</ele><time>2026-05-05T15:42:54.193Z</time></trkpt><trkpt lat="51.5105317" lon="-9.733355"><ele>146.0</ele><time>2026-05-05T15:42:55.192Z</time></trkpt><trkpt lat="51.510645" lon="-9.733325"><ele>149.5</ele><time>2026-05-05T15:42:56.193Z</time></trkpt><trkpt lat="51.5107567" lon="-9.7332867"><ele>153.0</ele><time>2026-05-05T15:42:57.192Z</time></trkpt><trkpt lat="51.5108667" lon="-9.7332533"><ele>153.0</ele><time>2026-05-05T15:42:58.193Z</time></trkpt><trkpt lat="51.5109683" lon="-9.7332267"><ele>153.0</ele><time>2026-05-05T15:42:59.193Z</time></trkpt><trkpt lat="51.5110667" lon="-9.7331983"><ele>153.0</ele><time>2026-05-05T15:43:00.193Z</time></trkpt><trkpt lat="51.5111583" lon="-9.7331683"><ele>153.0</ele><time>2026-05-05T15:43:01.193Z</time></trkpt><trkpt lat="51.51124" lon="-9.733135"><ele>153.0</ele><time>2026-05-05T15:43:02.193Z</time></trkpt><trkpt lat="51.5113117" lon="-9.733095"><ele>156.2</ele><time>2026-05-05T15:43:03.193Z</time></trkpt><trkpt lat="51.5113817" lon="-9.7330467"><ele>159.4</ele><time>2026-05-05T15:43:04.193Z</time></trkpt><trkpt lat="51.5114533" lon="-9.73302"><ele>162.6</ele><time>2026-05-05T15:43:05.192Z</time></trkpt><trkpt lat="51.5115383" lon="-9.732975"><ele>165.79999999999998</ele><time>2026-05-05T15:43:06.193Z</time></trkpt><trkpt lat="51.511635" lon="-9.732935"><ele>169.0</ele><time>2026-05-05T15:43:07.193Z</time></trkpt><trkpt lat="51.5117467" lon="-9.7328983"><ele>169.0</ele><time>2026-05-05T15:43:08.193Z</time></trkpt><trkpt lat="51.5118617" lon="-9.73286"><ele>169.0</ele><time>2026-05-05T15:43:09.193Z</time></trkpt><trkpt lat="51.51198" lon="-9.7328183"><ele>169.0</ele><time>2026-05-05T15:43:10.193Z</time></trkpt><trkpt lat="51.5121017" lon="-9.7327833"><ele>169.0</ele><time>2026-05-05T15:43:11.193Z</time></trkpt><trkpt lat="51.51222" lon="-9.7327317"><ele>169.6</ele><time>2026-05-05T15:43:12.193Z</time></trkpt><trkpt lat="51.5123217" lon="-9.732705"><ele>170.2</ele><time>2026-05-05T15:43:13.192Z</time></trkpt><trkpt lat="51.5124217" lon="-9.7326583"><ele>170.79999999999998</ele><time>2026-05-05T15:43:14.193Z</time></trkpt><trkpt lat="51.5125267" lon="-9.732585"><ele>171.39999999999998</ele><time>2026-05-05T15:43:15.192Z</time></trkpt><trkpt lat="51.5126367" lon="-9.732525"><ele>172.0</ele><time>2026-05-05T15:43:16.192Z</time></trkpt><trkpt lat="51.5127367" lon="-9.73247"><ele>172.0</ele><time>2026-05-05T15:43:17.192Z</time></trkpt><trkpt lat="51.51284" lon="-9.732415"><ele>172.0</ele><time>2026-05-05T15:43:18.193Z</time></trkpt><trkpt lat="51.512945" lon="-9.732385"><ele>172.0</ele><time>2026-05-05T15:43:19.192Z</time></trkpt><trkpt lat="51.51306" lon="-9.7323667"><ele>172.0</ele><time>2026-05-05T15:43:20.193Z</time></trkpt><trkpt lat="51.5131717" lon="-9.7323517"><ele>172.0</ele><time>2026-05-05T15:43:21.192Z</time></trkpt><trkpt lat="51.5132733" lon="-9.732335"><ele>173.8</ele><time>2026-05-05T15:43:22.192Z</time></trkpt><trkpt lat="51.5133733" lon="-9.7323167"><ele>175.6</ele><time>2026-05-05T15:43:23.193Z</time></trkpt><trkpt lat="51.5134783" lon="-9.7323033"><ele>177.4</ele><time>2026-05-05T15:43:24.192Z</time></trkpt><trkpt lat="51.5135817" lon="-9.7322817"><ele>179.20000000000002</ele><time>2026-05-05T15:43:25.192Z</time></trkpt><trkpt lat="51.51368" lon="-9.732255"><ele>181.0</ele><time>2026-05-05T15:43:26.193Z</time></trkpt><trkpt lat="51.5137633" lon="-9.732215"><ele>181.4</ele><time>2026-05-05T15:43:27.193Z</time></trkpt><trkpt lat="51.5138417" lon="-9.7321567"><ele>181.8</ele><time>2026-05-05T15:43:28.193Z</time></trkpt><trkpt lat="51.5139083" lon="-9.7321067"><ele>182.20000000000002</ele><time>2026-05-05T15:43:29.193Z</time></trkpt><trkpt lat="51.5140183" lon="-9.73203"><ele>182.60000000000002</ele><time>2026-05-05T15:43:31.193Z</time></trkpt><trkpt lat="51.5141133" lon="-9.73196"><ele>183.0</ele><time>2026-05-05T15:43:33.192Z</time></trkpt><trkpt lat="51.514195" lon="-9.731895"><ele>181.8</ele><time>2026-05-05T15:43:35.192Z</time></trkpt><trkpt lat="51.5143067" lon="-9.73187"><ele>180.60000000000002</ele><time>2026-05-05T15:43:51.193Z</time></trkpt><trkpt lat="51.5143633" lon="-9.731825"><ele>179.39999999999998</ele><time>2026-05-05T15:43:54.193Z</time></trkpt><trkpt lat="51.5144483" lon="-9.731785"><ele>178.2</ele><time>2026-05-05T15:43:57.193Z</time></trkpt><trkpt lat="51.51453" lon="-9.7317867"><ele>177.0</ele><time>2026-05-05T15:43:59.192Z</time></trkpt><trkpt lat="51.514635" lon="-9.73182"><ele>175.8</ele><time>2026-05-05T15:44:01.192Z</time></trkpt><trkpt lat="51.51476" lon="-9.7318983"><ele>174.6</ele><time>2026-05-05T15:44:03.192Z</time></trkpt><trkpt lat="51.5148217" lon="-9.7319333"><ele>173.4</ele><time>2026-05-05T15:44:04.193Z</time></trkpt><trkpt lat="51.5149367" lon="-9.7320017"><ele>172.20000000000002</ele><time>2026-05-05T15:44:06.193Z</time></trkpt><trkpt lat="51.5150017" lon="-9.732045"><ele>171.0</ele><time>2026-05-05T15:44:07.193Z</time></trkpt><trkpt lat="51.5150717" lon="-9.7320917"><ele>171.0</ele><time>2026-05-05T15:44:08.192Z</time></trkpt><trkpt lat="51.515135" lon="-9.7321433"><ele>171.0</ele><time>2026-05-05T15:44:09.193Z</time></trkpt><trkpt lat="51.5152567" lon="-9.7322133"><ele>171.0</ele><time>2026-05-05T15:44:11.192Z</time></trkpt><trkpt lat="51.5153167" lon="-9.7322567"><ele>171.0</ele><time>2026-05-05T15:44:12.193Z</time></trkpt><trkpt lat="51.5153767" lon="-9.7322883"><ele>171.0</ele><time>2026-05-05T15:44:13.193Z</time></trkpt><trkpt lat="51.515435" lon="-9.73233"><ele>171.0</ele><time>2026-05-05T15:44:14.193Z</time></trkpt><trkpt lat="51.515495" lon="-9.7323767"><ele>169.0</ele><time>2026-05-05T15:44:15.193Z</time></trkpt><trkpt lat="51.5155567" lon="-9.732425"><ele>167.0</ele><time>2026-05-05T15:44:16.193Z</time></trkpt><trkpt lat="51.515675" lon="-9.7325217"><ele>165.0</ele><time>2026-05-05T15:44:18.193Z</time></trkpt><trkpt lat="51.515735" lon="-9.732575"><ele>163.0</ele><time>2026-05-05T15:44:19.193Z</time></trkpt><trkpt lat="51.5157933" lon="-9.7326317"><ele>161.0</ele><time>2026-05-05T15:44:20.193Z</time></trkpt><trkpt lat="51.5158567" lon="-9.73269"><ele>159.0</ele><time>2026-05-05T15:44:21.193Z</time></trkpt><trkpt lat="51.5159283" lon="-9.7327467"><ele>159.0</ele><time>2026-05-05T15:44:22.193Z</time></trkpt><trkpt lat="51.5159917" lon="-9.73281"><ele>159.0</ele><time>2026-05-05T15:44:23.192Z</time></trkpt><trkpt lat="51.5160517" lon="-9.732875"><ele>159.0</ele><time>2026-05-05T15:44:24.193Z</time></trkpt><trkpt lat="51.5161433" lon="-9.7329967"><ele>159.0</ele><time>2026-05-05T15:44:26.192Z</time></trkpt><trkpt lat="51.5162333" lon="-9.73306"><ele>159.0</ele><time>2026-05-05T15:44:29.193Z</time></trkpt><trkpt lat="51.5163167" lon="-9.733115"><ele>155.0</ele><time>2026-05-05T15:44:31.193Z</time></trkpt><trkpt lat="51.5164117" lon="-9.7331633"><ele>151.0</ele><time>2026-05-05T15:44:33.193Z</time></trkpt><trkpt lat="51.5164867" lon="-9.733205"><ele>147.0</ele><time>2026-05-05T15:44:35.192Z</time></trkpt><trkpt lat="51.51655" lon="-9.733165"><ele>143.0</ele><time>2026-05-05T15:44:39.193Z</time></trkpt><trkpt lat="51.5165617" lon="-9.7330233"><ele>139.0</ele><time>2026-05-05T15:44:41.192Z</time></trkpt><trkpt lat="51.5165683" lon="-9.7329033"><ele>135.0</ele><time>2026-05-05T15:44:42.193Z</time></trkpt><trkpt lat="51.5165667" lon="-9.7327717"><ele>134.2</ele><time>2026-05-05T15:44:43.193Z</time></trkpt><trkpt lat="51.5165667" lon="-9.73263"><ele>133.4</ele><time>2026-05-05T15:44:44.193Z</time></trkpt><trkpt lat="51.51656" lon="-9.7324783"><ele>132.6</ele><time>2026-05-05T15:44:45.193Z</time></trkpt><trkpt lat="51.5165467" lon="-9.73231"><ele>131.8</ele><time>2026-05-05T15:44:46.193Z</time></trkpt><trkpt lat="51.5165233" lon="-9.7321283"><ele>131.0</ele><time>2026-05-05T15:44:47.193Z</time></trkpt><trkpt lat="51.5165017" lon="-9.7318817"><ele>130.5</ele><time>2026-05-05T15:44:48.193Z</time></trkpt><trkpt lat="51.5164517" lon="-9.7316917"><ele>130.0</ele><time>2026-05-05T15:44:49.192Z</time></trkpt><trkpt lat="51.5164167" lon="-9.7314633"><ele>129.5</ele><time>2026-05-05T15:44:50.193Z</time></trkpt><trkpt lat="51.5164083" lon="-9.7312433"><ele>129.0</ele><time>2026-05-05T15:44:51.193Z</time></trkpt><trkpt lat="51.5164083" lon="-9.7309967"><ele>128.75</ele><time>2026-05-05T15:44:52.193Z</time></trkpt><trkpt lat="51.5164117" lon="-9.7307733"><ele>128.5</ele><time>2026-05-05T15:44:53.193Z</time></trkpt><trkpt lat="51.5164167" lon="-9.73055"><ele>128.25</ele><time>2026-05-05T15:44:54.192Z</time></trkpt><trkpt lat="51.5164467" lon="-9.7303183"><ele>128.0</ele><time>2026-05-05T15:44:55.193Z</time></trkpt><trkpt lat="51.5164867" lon="-9.7300833"><ele>128.0</ele><time>2026-05-05T15:44:56.193Z</time></trkpt><trkpt lat="51.51654" lon="-9.7298617"><ele>128.0</ele><time>2026-05-05T15:44:57.193Z</time></trkpt><trkpt lat="51.5165783" lon="-9.729645"><ele>128.0</ele><time>2026-05-05T15:44:58.193Z</time></trkpt><trkpt lat="51.5166283" lon="-9.7294233"><ele>128.0</ele><time>2026-05-05T15:44:59.193Z</time></trkpt><trkpt lat="51.5166717" lon="-9.7292067"><ele>127.5</ele><time>2026-05-05T15:45:00.192Z</time></trkpt><trkpt lat="51.516705" lon="-9.7289917"><ele>127.0</ele><time>2026-05-05T15:45:01.193Z</time></trkpt><trkpt lat="51.5167317" lon="-9.7287983"><ele>126.5</ele><time>2026-05-05T15:45:02.193Z</time></trkpt><trkpt lat="51.5167517" lon="-9.7286317"><ele>126.0</ele><time>2026-05-05T15:45:03.193Z</time></trkpt><trkpt lat="51.51677" lon="-9.7284883"><ele>125.5</ele><time>2026-05-05T15:45:04.192Z</time></trkpt><trkpt lat="51.5167717" lon="-9.7283683"><ele>125.0</ele><time>2026-05-05T15:45:05.192Z</time></trkpt><trkpt lat="51.516765" lon="-9.7282467"><ele>124.5</ele><time>2026-05-05T15:45:06.192Z</time></trkpt><trkpt lat="51.516755" lon="-9.7281217"><ele>124.0</ele><time>2026-05-05T15:45:07.193Z</time></trkpt><trkpt lat="51.5167233" lon="-9.7280067"><ele>123.5</ele><time>2026-05-05T15:45:08.192Z</time></trkpt><trkpt lat="51.5166983" lon="-9.7278667"><ele>123.0</ele><time>2026-05-05T15:45:09.193Z</time></trkpt><trkpt lat="51.5166833" lon="-9.7276783"><ele>122.4</ele><time>2026-05-05T15:45:10.193Z</time></trkpt><trkpt lat="51.516645" lon="-9.72751"><ele>121.80000000000001</ele><time>2026-05-05T15:45:11.192Z</time></trkpt><trkpt lat="51.51662" lon="-9.72736"><ele>121.2</ele><time>2026-05-05T15:45:12.192Z</time></trkpt><trkpt lat="51.5166233" lon="-9.727215"><ele>120.6</ele><time>2026-05-05T15:45:13.193Z</time></trkpt><trkpt lat="51.5166417" lon="-9.7270817"><ele>120.0</ele><time>2026-05-05T15:45:14.193Z</time></trkpt><trkpt lat="51.5166717" lon="-9.7269433"><ele>119.8</ele><time>2026-05-05T15:45:15.192Z</time></trkpt><trkpt lat="51.5167033" lon="-9.7267917"><ele>119.6</ele><time>2026-05-05T15:45:16.192Z</time></trkpt><trkpt lat="51.51672" lon="-9.7266183"><ele>119.4</ele><time>2026-05-05T15:45:17.193Z</time></trkpt><trkpt lat="51.5167233" lon="-9.7264383"><ele>119.2</ele><time>2026-05-05T15:45:18.193Z</time></trkpt><trkpt lat="51.5167" lon="-9.7262483"><ele>119.0</ele><time>2026-05-05T15:45:19.193Z</time></trkpt><trkpt lat="51.5166167" lon="-9.7261067"><ele>118.80000000000001</ele><time>2026-05-05T15:45:20.192Z</time></trkpt><trkpt lat="51.51661" lon="-9.7259217"><ele>118.60000000000001</ele><time>2026-05-05T15:45:21.192Z</time></trkpt><trkpt lat="51.516615" lon="-9.7257533"><ele>118.4</ele><time>2026-05-05T15:45:22.192Z</time></trkpt><trkpt lat="51.51665" lon="-9.7255967"><ele>118.2</ele><time>2026-05-05T15:45:23.193Z</time></trkpt><trkpt lat="51.516705" lon="-9.7254317"><ele>118.0</ele><time>2026-05-05T15:45:24.193Z</time></trkpt><trkpt lat="51.5167733" lon="-9.7252667"><ele>118.25</ele><time>2026-05-05T15:45:25.193Z</time></trkpt><trkpt lat="51.5168367" lon="-9.7250967"><ele>118.5</ele><time>2026-05-05T15:45:26.193Z</time></trkpt><trkpt lat="51.5168817" lon="-9.72492"><ele>118.75</ele><time>2026-05-05T15:45:27.192Z</time></trkpt><trkpt lat="51.51692" lon="-9.7247433"><ele>119.0</ele><time>2026-05-05T15:45:28.193Z</time></trkpt><trkpt lat="51.5169567" lon="-9.7245417"><ele>118.75</ele><time>2026-05-05T15:45:29.192Z</time></trkpt><trkpt lat="51.516975" lon="-9.724335"><ele>118.5</ele><time>2026-05-05T15:45:30.192Z</time></trkpt><trkpt lat="51.5170067" lon="-9.7241117"><ele>118.25</ele><time>2026-05-05T15:45:31.193Z</time></trkpt><trkpt lat="51.5170217" lon="-9.7239017"><ele>118.0</ele><time>2026-05-05T15:45:32.192Z</time></trkpt><trkpt lat="51.5170683" lon="-9.7236783"><ele>115.5</ele><time>2026-05-05T15:45:33.192Z</time></trkpt><trkpt lat="51.517115" lon="-9.72349"><ele>113.0</ele><time>2026-05-05T15:45:34.193Z</time></trkpt><trkpt lat="51.517175" lon="-9.723295"><ele>110.5</ele><time>2026-05-05T15:45:35.192Z</time></trkpt><trkpt lat="51.5172517" lon="-9.7230917"><ele>108.0</ele><time>2026-05-05T15:45:36.193Z</time></trkpt><trkpt lat="51.51732" lon="-9.722885"><ele>108.25</ele><time>2026-05-05T15:45:37.193Z</time></trkpt><trkpt lat="51.5174" lon="-9.7226617"><ele>108.5</ele><time>2026-05-05T15:45:38.192Z</time></trkpt><trkpt lat="51.5174783" lon="-9.7224717"><ele>108.75</ele><time>2026-05-05T15:45:39.192Z</time></trkpt><trkpt lat="51.5175483" lon="-9.7222867"><ele>109.0</ele><time>2026-05-05T15:45:40.193Z</time></trkpt><trkpt lat="51.517605" lon="-9.7221383"><ele>109.00000000000001</ele><time>2026-05-05T15:45:41.193Z</time></trkpt><trkpt lat="51.5176433" lon="-9.72201"><ele>109.0</ele><time>2026-05-05T15:45:42.193Z</time></trkpt><trkpt lat="51.517665" lon="-9.7218883"><ele>109.0</ele><time>2026-05-05T15:45:43.192Z</time></trkpt><trkpt lat="51.517675" lon="-9.7217583"><ele>109.0</ele><time>2026-05-05T15:45:44.193Z</time></trkpt><trkpt lat="51.5176667" lon="-9.7216233"><ele>109.00000000000001</ele><time>2026-05-05T15:45:45.193Z</time></trkpt><trkpt lat="51.51764" lon="-9.7214733"><ele>109.0</ele><time>2026-05-05T15:45:46.193Z</time></trkpt><trkpt lat="51.5176167" lon="-9.7213267"><ele>109.0</ele><time>2026-05-05T15:45:47.192Z</time></trkpt><trkpt lat="51.5175917" lon="-9.7211783"><ele>109.0</ele><time>2026-05-05T15:45:48.193Z</time></trkpt><trkpt lat="51.51759" lon="-9.7210333"><ele>109.0</ele><time>2026-05-05T15:45:49.193Z</time></trkpt><trkpt lat="51.5176017" lon="-9.7208917"><ele>109.0</ele><time>2026-05-05T15:45:50.192Z</time></trkpt><trkpt lat="51.5176233" lon="-9.7207583"><ele>109.0</ele><time>2026-05-05T15:45:51.192Z</time></trkpt><trkpt lat="51.51766" lon="-9.7205967"><ele>109.0</ele><time>2026-05-05T15:45:52.193Z</time></trkpt><trkpt lat="51.51771" lon="-9.720445"><ele>109.0</ele><time>2026-05-05T15:45:53.192Z</time></trkpt><trkpt lat="51.5177767" lon="-9.7202883"><ele>109.0</ele><time>2026-05-05T15:45:54.192Z</time></trkpt><trkpt lat="51.51786" lon="-9.7201367"><ele>109.0</ele><time>2026-05-05T15:45:55.193Z</time></trkpt><trkpt lat="51.51794" lon="-9.720015"><ele>105.75</ele><time>2026-05-05T15:45:56.193Z</time></trkpt><trkpt lat="51.5180033" lon="-9.71988"><ele>102.5</ele><time>2026-05-05T15:45:57.193Z</time></trkpt><trkpt lat="51.5180617" lon="-9.7197183"><ele>99.25</ele><time>2026-05-05T15:45:58.193Z</time></trkpt><trkpt lat="51.5181133" lon="-9.7195433"><ele>96.0</ele><time>2026-05-05T15:45:59.193Z</time></trkpt><trkpt lat="51.5181517" lon="-9.7193533"><ele>96.0</ele><time>2026-05-05T15:46:00.193Z</time></trkpt><trkpt lat="51.5181967" lon="-9.7191533"><ele>96.0</ele><time>2026-05-05T15:46:01.193Z</time></trkpt><trkpt lat="51.51824" lon="-9.7189533"><ele>96.0</ele><time>2026-05-05T15:46:02.193Z</time></trkpt><trkpt lat="51.5182817" lon="-9.718755"><ele>96.0</ele><time>2026-05-05T15:46:03.193Z</time></trkpt><trkpt lat="51.5183267" lon="-9.718545"><ele>96.25</ele><time>2026-05-05T15:46:04.193Z</time></trkpt><trkpt lat="51.5183883" lon="-9.71835"><ele>96.5</ele><time>2026-05-05T15:46:05.193Z</time></trkpt><trkpt lat="51.5184617" lon="-9.7181817"><ele>96.75</ele><time>2026-05-05T15:46:06.193Z</time></trkpt><trkpt lat="51.5185433" lon="-9.71802"><ele>97.0</ele><time>2026-05-05T15:46:07.193Z</time></trkpt><trkpt lat="51.5186167" lon="-9.7178733"><ele>96.0</ele><time>2026-05-05T15:46:08.192Z</time></trkpt><trkpt lat="51.5186933" lon="-9.7177317"><ele>95.0</ele><time>2026-05-05T15:46:09.193Z</time></trkpt><trkpt lat="51.51876" lon="-9.7175917"><ele>94.0</ele><time>2026-05-05T15:46:10.193Z</time></trkpt><trkpt lat="51.51883" lon="-9.7174583"><ele>93.0</ele><time>2026-05-05T15:46:11.192Z</time></trkpt><trkpt lat="51.5189067" lon="-9.71732"><ele>93.0</ele><time>2026-05-05T15:46:12.193Z</time></trkpt><trkpt lat="51.518985" lon="-9.7171833"><ele>93.0</ele><time>2026-05-05T15:46:13.192Z</time></trkpt><trkpt lat="51.519065" lon="-9.717085"><ele>93.0</ele><time>2026-05-05T15:46:14.193Z</time></trkpt><trkpt lat="51.5191383" lon="-9.71698"><ele>93.0</ele><time>2026-05-05T15:46:15.193Z</time></trkpt><trkpt lat="51.519205" lon="-9.7168933"><ele>93.0</ele><time>2026-05-05T15:46:16.192Z</time></trkpt><trkpt lat="51.5192767" lon="-9.7168167"><ele>94.0</ele><time>2026-05-05T15:46:17.193Z</time></trkpt><trkpt lat="51.51936" lon="-9.7167467"><ele>95.0</ele><time>2026-05-05T15:46:18.192Z</time></trkpt><trkpt lat="51.5194667" lon="-9.7166983"><ele>96.0</ele><time>2026-05-05T15:46:19.193Z</time></trkpt><trkpt lat="51.5195767" lon="-9.71665"><ele>97.0</ele><time>2026-05-05T15:46:20.193Z</time></trkpt><trkpt lat="51.5196883" lon="-9.7166317"><ele>98.0</ele><time>2026-05-05T15:46:21.193Z</time></trkpt><trkpt lat="51.5197767" lon="-9.7166417"><ele>95.80000000000001</ele><time>2026-05-05T15:46:22.193Z</time></trkpt><trkpt lat="51.5198517" lon="-9.71665"><ele>93.6</ele><time>2026-05-05T15:46:23.192Z</time></trkpt><trkpt lat="51.519925" lon="-9.71667"><ele>91.4</ele><time>2026-05-05T15:46:24.193Z</time></trkpt><trkpt lat="51.52" lon="-9.71672"><ele>89.19999999999999</ele><time>2026-05-05T15:46:25.192Z</time></trkpt><trkpt lat="51.5201017" lon="-9.716745"><ele>87.0</ele><time>2026-05-05T15:46:27.193Z</time></trkpt><trkpt lat="51.520225" lon="-9.7166883"><ele>87.0</ele><time>2026-05-05T15:46:29.193Z</time></trkpt><trkpt lat="51.5202933" lon="-9.7166517"><ele>87.0</ele><time>2026-05-05T15:46:30.192Z</time></trkpt><trkpt lat="51.5203467" lon="-9.7165767"><ele>87.0</ele><time>2026-05-05T15:46:31.193Z</time></trkpt><trkpt lat="51.5203883" lon="-9.7164617"><ele>87.0</ele><time>2026-05-05T15:46:32.192Z</time></trkpt><trkpt lat="51.520435" lon="-9.7163083"><ele>87.0</ele><time>2026-05-05T15:46:33.193Z</time></trkpt><trkpt lat="51.520485" lon="-9.7161617"><ele>87.0</ele><time>2026-05-05T15:46:34.193Z</time></trkpt><trkpt lat="51.5205467" lon="-9.7160217"><ele>84.5</ele><time>2026-05-05T15:46:35.193Z</time></trkpt><trkpt lat="51.5206133" lon="-9.7159"><ele>82.0</ele><time>2026-05-05T15:46:36.193Z</time></trkpt><trkpt lat="51.52068" lon="-9.7157483"><ele>79.5</ele><time>2026-05-05T15:46:37.193Z</time></trkpt><trkpt lat="51.5207633" lon="-9.7156017"><ele>77.0</ele><time>2026-05-05T15:46:38.193Z</time></trkpt><trkpt lat="51.520835" lon="-9.715435"><ele>77.0</ele><time>2026-05-05T15:46:39.193Z</time></trkpt><trkpt lat="51.5209033" lon="-9.71527"><ele>77.0</ele><time>2026-05-05T15:46:40.193Z</time></trkpt><trkpt lat="51.5209583" lon="-9.7150683"><ele>77.0</ele><time>2026-05-05T15:46:41.193Z</time></trkpt><trkpt lat="51.52101" lon="-9.7148167"><ele>77.0</ele><time>2026-05-05T15:46:42.193Z</time></trkpt><trkpt lat="51.521035" lon="-9.7146383"><ele>77.0</ele><time>2026-05-05T15:46:43.192Z</time></trkpt><trkpt lat="51.5210583" lon="-9.71449"><ele>77.0</ele><time>2026-05-05T15:46:44.193Z</time></trkpt><trkpt lat="51.521085" lon="-9.7143617"><ele>77.0</ele><time>2026-05-05T15:46:45.193Z</time></trkpt><trkpt lat="51.5211017" lon="-9.7142433"><ele>77.0</ele><time>2026-05-05T15:46:46.193Z</time></trkpt><trkpt lat="51.521115" lon="-9.71414"><ele>77.0</ele><time>2026-05-05T15:46:47.193Z</time></trkpt><trkpt lat="51.5211217" lon="-9.7139467"><ele>77.0</ele><time>2026-05-05T15:46:49.193Z</time></trkpt><trkpt lat="51.5210633" lon="-9.7137483"><ele>77.0</ele><time>2026-05-05T15:46:51.193Z</time></trkpt><trkpt lat="51.52101" lon="-9.713625"><ele>77.0</ele><time>2026-05-05T15:46:52.193Z</time></trkpt><trkpt lat="51.520925" lon="-9.7134933"><ele>77.0</ele><time>2026-05-05T15:46:53.192Z</time></trkpt><trkpt lat="51.5208433" lon="-9.7133767"><ele>77.0</ele><time>2026-05-05T15:46:54.193Z</time></trkpt><trkpt lat="51.5207433" lon="-9.7132567"><ele>77.0</ele><time>2026-05-05T15:46:55.192Z</time></trkpt><trkpt lat="51.52063" lon="-9.7131367"><ele>76.25</ele><time>2026-05-05T15:46:56.193Z</time></trkpt><trkpt lat="51.5205217" lon="-9.7130233"><ele>75.5</ele><time>2026-05-05T15:46:57.193Z</time></trkpt><trkpt lat="51.5204117" lon="-9.7128983"><ele>74.75</ele><time>2026-05-05T15:46:58.192Z</time></trkpt><trkpt lat="51.5203283" lon="-9.7127467"><ele>74.0</ele><time>2026-05-05T15:46:59.193Z</time></trkpt><trkpt lat="51.5202633" lon="-9.712595"><ele>74.0</ele><time>2026-05-05T15:47:00.193Z</time></trkpt><trkpt lat="51.5202033" lon="-9.7124367"><ele>74.0</ele><time>2026-05-05T15:47:01.193Z</time></trkpt><trkpt lat="51.5201483" lon="-9.712265"><ele>74.0</ele><time>2026-05-05T15:47:02.192Z</time></trkpt><trkpt lat="51.5200983" lon="-9.7121"><ele>74.0</ele><time>2026-05-05T15:47:03.193Z</time></trkpt><trkpt lat="51.5200483" lon="-9.711925"><ele>72.60000000000001</ele><time>2026-05-05T15:47:04.193Z</time></trkpt><trkpt lat="51.52001" lon="-9.71176"><ele>71.2</ele><time>2026-05-05T15:47:05.193Z</time></trkpt><trkpt lat="51.5199683" lon="-9.7116083"><ele>69.80000000000001</ele><time>2026-05-05T15:47:06.192Z</time></trkpt><trkpt lat="51.519925" lon="-9.7114783"><ele>68.4</ele><time>2026-05-05T15:47:07.193Z</time></trkpt><trkpt lat="51.5198783" lon="-9.7113567"><ele>67.0</ele><time>2026-05-05T15:47:08.192Z</time></trkpt><trkpt lat="51.51983" lon="-9.71124"><ele>67.0</ele><time>2026-05-05T15:47:09.192Z</time></trkpt><trkpt lat="51.519775" lon="-9.711135"><ele>67.0</ele><time>2026-05-05T15:47:10.193Z</time></trkpt><trkpt lat="51.51974" lon="-9.71101"><ele>67.0</ele><time>2026-05-05T15:47:11.192Z</time></trkpt><trkpt lat="51.51968" lon="-9.7108867"><ele>67.0</ele><time>2026-05-05T15:47:12.193Z</time></trkpt><trkpt lat="51.5195767" lon="-9.7107867"><ele>67.0</ele><time>2026-05-05T15:47:13.193Z</time></trkpt><trkpt lat="51.5194717" lon="-9.7106667"><ele>67.0</ele><time>2026-05-05T15:47:14.193Z</time></trkpt><trkpt lat="51.5193733" lon="-9.71053"><ele>67.0</ele><time>2026-05-05T15:47:15.193Z</time></trkpt><trkpt lat="51.5192783" lon="-9.710405"><ele>67.0</ele><time>2026-05-05T15:47:16.193Z</time></trkpt><trkpt lat="51.5191867" lon="-9.7102967"><ele>67.0</ele><time>2026-05-05T15:47:17.193Z</time></trkpt><trkpt lat="51.5191383" lon="-9.7101883"><ele>65.6</ele><time>2026-05-05T15:47:18.193Z</time></trkpt><trkpt lat="51.5190917" lon="-9.710075"><ele>64.2</ele><time>2026-05-05T15:47:19.192Z</time></trkpt><trkpt lat="51.5190617" lon="-9.7099483"><ele>62.8</ele><time>2026-05-05T15:47:20.192Z</time></trkpt><trkpt lat="51.51904" lon="-9.709795"><ele>61.4</ele><time>2026-05-05T15:47:21.193Z</time></trkpt><trkpt lat="51.5190383" lon="-9.7096167"><ele>60.0</ele><time>2026-05-05T15:47:22.193Z</time></trkpt><trkpt lat="51.5190433" lon="-9.709415"><ele>59.0</ele><time>2026-05-05T15:47:23.193Z</time></trkpt><trkpt lat="51.5190367" lon="-9.7092183"><ele>58.0</ele><time>2026-05-05T15:47:24.193Z</time></trkpt><trkpt lat="51.5190267" lon="-9.70902"><ele>57.0</ele><time>2026-05-05T15:47:25.193Z</time></trkpt><trkpt lat="51.519015" lon="-9.7088367"><ele>56.0</ele><time>2026-05-05T15:47:26.193Z</time></trkpt><trkpt lat="51.5190167" lon="-9.7086617"><ele>55.4</ele><time>2026-05-05T15:47:27.192Z</time></trkpt><trkpt lat="51.5190367" lon="-9.7084967"><ele>54.8</ele><time>2026-05-05T15:47:28.192Z</time></trkpt><trkpt lat="51.519075" lon="-9.7083383"><ele>54.199999999999996</ele><time>2026-05-05T15:47:29.193Z</time></trkpt><trkpt lat="51.5191333" lon="-9.7081933"><ele>53.599999999999994</ele><time>2026-05-05T15:47:30.192Z</time></trkpt><trkpt lat="51.5192" lon="-9.7080417"><ele>53.0</ele><time>2026-05-05T15:47:31.193Z</time></trkpt><trkpt lat="51.519275" lon="-9.7078833"><ele>53.0</ele><time>2026-05-05T15:47:32.193Z</time></trkpt><trkpt lat="51.5193533" lon="-9.7077117"><ele>53.0</ele><time>2026-05-05T15:47:33.192Z</time></trkpt><trkpt lat="51.5194367" lon="-9.7075433"><ele>53.0</ele><time>2026-05-05T15:47:34.193Z</time></trkpt><trkpt lat="51.519515" lon="-9.7073683"><ele>53.0</ele><time>2026-05-05T15:47:35.193Z</time></trkpt><trkpt lat="51.5195967" lon="-9.7071817"><ele>51.75</ele><time>2026-05-05T15:47:36.193Z</time></trkpt><trkpt lat="51.51967" lon="-9.707"><ele>50.5</ele><time>2026-05-05T15:47:37.193Z</time></trkpt><trkpt lat="51.51974" lon="-9.706795"><ele>49.25</ele><time>2026-05-05T15:47:38.193Z</time></trkpt><trkpt lat="51.5198067" lon="-9.706585"><ele>48.0</ele><time>2026-05-05T15:47:39.193Z</time></trkpt><trkpt lat="51.5198667" lon="-9.7063967"><ele>48.0</ele><time>2026-05-05T15:47:40.192Z</time></trkpt><trkpt lat="51.519935" lon="-9.7061933"><ele>48.0</ele><time>2026-05-05T15:47:41.193Z</time></trkpt><trkpt lat="51.5200033" lon="-9.705995"><ele>48.0</ele><time>2026-05-05T15:47:42.193Z</time></trkpt><trkpt lat="51.5200717" lon="-9.7058133"><ele>48.0</ele><time>2026-05-05T15:47:43.192Z</time></trkpt><trkpt lat="51.5201417" lon="-9.7056583"><ele>48.599999999999994</ele><time>2026-05-05T15:47:44.193Z</time></trkpt><trkpt lat="51.5202133" lon="-9.70553"><ele>49.199999999999996</ele><time>2026-05-05T15:47:45.193Z</time></trkpt><trkpt lat="51.5203017" lon="-9.705425"><ele>49.8</ele><time>2026-05-05T15:47:46.193Z</time></trkpt><trkpt lat="51.5203867" lon="-9.705335"><ele>50.4</ele><time>2026-05-05T15:47:47.193Z</time></trkpt><trkpt lat="51.520485" lon="-9.705245"><ele>51.0</ele><time>2026-05-05T15:47:48.193Z</time></trkpt><trkpt lat="51.52059" lon="-9.7051683"><ele>49.0</ele><time>2026-05-05T15:47:49.192Z</time></trkpt><trkpt lat="51.5207033" lon="-9.705075"><ele>47.0</ele><time>2026-05-05T15:47:50.193Z</time></trkpt><trkpt lat="51.5208117" lon="-9.7049283"><ele>45.0</ele><time>2026-05-05T15:47:51.192Z</time></trkpt><trkpt lat="51.520905" lon="-9.704765"><ele>43.0</ele><time>2026-05-05T15:47:52.193Z</time></trkpt><trkpt lat="51.5209867" lon="-9.7045933"><ele>43.0</ele><time>2026-05-05T15:47:53.193Z</time></trkpt><trkpt lat="51.5210617" lon="-9.7044317"><ele>43.0</ele><time>2026-05-05T15:47:54.193Z</time></trkpt><trkpt lat="51.5211467" lon="-9.704295"><ele>43.0</ele><time>2026-05-05T15:47:55.193Z</time></trkpt><trkpt lat="51.5212267" lon="-9.70415"><ele>43.0</ele><time>2026-05-05T15:47:56.193Z</time></trkpt><trkpt lat="51.5213033" lon="-9.7040267"><ele>42.5</ele><time>2026-05-05T15:47:57.193Z</time></trkpt><trkpt lat="51.5213883" lon="-9.7039067"><ele>42.0</ele><time>2026-05-05T15:47:58.192Z</time></trkpt><trkpt lat="51.5215017" lon="-9.7038267"><ele>41.5</ele><time>2026-05-05T15:47:59.193Z</time></trkpt><trkpt lat="51.521635" lon="-9.7037733"><ele>41.0</ele><time>2026-05-05T15:48:00.193Z</time></trkpt><trkpt lat="51.5217683" lon="-9.7037217"><ele>41.0</ele><time>2026-05-05T15:48:01.193Z</time></trkpt><trkpt lat="51.521905" lon="-9.7036767"><ele>41.0</ele><time>2026-05-05T15:48:02.193Z</time></trkpt><trkpt lat="51.5220417" lon="-9.7036417"><ele>41.0</ele><time>2026-05-05T15:48:03.193Z</time></trkpt><trkpt lat="51.522175" lon="-9.703605"><ele>41.0</ele><time>2026-05-05T15:48:04.193Z</time></trkpt><trkpt lat="51.522305" lon="-9.7035733"><ele>40.25</ele><time>2026-05-05T15:48:05.193Z</time></trkpt><trkpt lat="51.5224217" lon="-9.7035233"><ele>39.5</ele><time>2026-05-05T15:48:06.192Z</time></trkpt><trkpt lat="51.5225317" lon="-9.703455"><ele>38.75</ele><time>2026-05-05T15:48:07.193Z</time></trkpt><trkpt lat="51.5226267" lon="-9.7033667"><ele>38.0</ele><time>2026-05-05T15:48:08.192Z</time></trkpt><trkpt lat="51.5227167" lon="-9.703285"><ele>38.0</ele><time>2026-05-05T15:48:09.193Z</time></trkpt><trkpt lat="51.5228" lon="-9.703175"><ele>38.0</ele><time>2026-05-05T15:48:10.192Z</time></trkpt><trkpt lat="51.52287" lon="-9.703055"><ele>38.0</ele><time>2026-05-05T15:48:11.193Z</time></trkpt><trkpt lat="51.522935" lon="-9.7029133"><ele>38.0</ele><time>2026-05-05T15:48:12.193Z</time></trkpt><trkpt lat="51.5230017" lon="-9.702775"><ele>38.0</ele><time>2026-05-05T15:48:13.192Z</time></trkpt><trkpt lat="51.52307" lon="-9.7026283"><ele>38.0</ele><time>2026-05-05T15:48:14.193Z</time></trkpt><trkpt lat="51.52314" lon="-9.7024683"><ele>38.0</ele><time>2026-05-05T15:48:15.192Z</time></trkpt><trkpt lat="51.5232083" lon="-9.702245"><ele>38.0</ele><time>2026-05-05T15:48:16.193Z</time></trkpt><trkpt lat="51.5232783" lon="-9.7020733"><ele>38.0</ele><time>2026-05-05T15:48:17.193Z</time></trkpt><trkpt lat="51.52336" lon="-9.7019133"><ele>38.0</ele><time>2026-05-05T15:48:18.193Z</time></trkpt><trkpt lat="51.5234617" lon="-9.70178"><ele>38.0</ele><time>2026-05-05T15:48:19.193Z</time></trkpt><trkpt lat="51.5235717" lon="-9.7016417"><ele>38.0</ele><time>2026-05-05T15:48:20.192Z</time></trkpt><trkpt lat="51.5236717" lon="-9.7015083"><ele>38.0</ele><time>2026-05-05T15:48:21.193Z</time></trkpt><trkpt lat="51.523775" lon="-9.7013783"><ele>38.0</ele><time>2026-05-05T15:48:22.193Z</time></trkpt><trkpt lat="51.5238817" lon="-9.701255"><ele>38.0</ele><time>2026-05-05T15:48:23.192Z</time></trkpt><trkpt lat="51.5239917" lon="-9.701135"><ele>38.0</ele><time>2026-05-05T15:48:24.193Z</time></trkpt><trkpt lat="51.5241017" lon="-9.7010233"><ele>38.0</ele><time>2026-05-05T15:48:25.193Z</time></trkpt><trkpt lat="51.5242133" lon="-9.7009133"><ele>38.75</ele><time>2026-05-05T15:48:26.193Z</time></trkpt><trkpt lat="51.52432" lon="-9.7007933"><ele>39.5</ele><time>2026-05-05T15:48:27.192Z</time></trkpt><trkpt lat="51.52443" lon="-9.7006633"><ele>40.25</ele><time>2026-05-05T15:48:28.193Z</time></trkpt><trkpt lat="51.5245417" lon="-9.7005267"><ele>41.0</ele><time>2026-05-05T15:48:29.192Z</time></trkpt><trkpt lat="51.5246483" lon="-9.700385"><ele>40.0</ele><time>2026-05-05T15:48:30.192Z</time></trkpt><trkpt lat="51.5247517" lon="-9.7002483"><ele>39.0</ele><time>2026-05-05T15:48:31.193Z</time></trkpt><trkpt lat="51.5248533" lon="-9.7001033"><ele>38.0</ele><time>2026-05-05T15:48:32.192Z</time></trkpt><trkpt lat="51.5249533" lon="-9.6999567"><ele>37.0</ele><time>2026-05-05T15:48:33.193Z</time></trkpt><trkpt lat="51.525055" lon="-9.69981"><ele>37.0</ele><time>2026-05-05T15:48:34.193Z</time></trkpt><trkpt lat="51.5251583" lon="-9.699655"><ele>37.0</ele><time>2026-05-05T15:48:35.193Z</time></trkpt><trkpt lat="51.5252717" lon="-9.6994967"><ele>37.0</ele><time>2026-05-05T15:48:36.193Z</time></trkpt><trkpt lat="51.5254033" lon="-9.6993267"><ele>36.0</ele><time>2026-05-05T15:48:37.192Z</time></trkpt><trkpt lat="51.5255083" lon="-9.6991583"><ele>35.0</ele><time>2026-05-05T15:48:38.192Z</time></trkpt><trkpt lat="51.5256233" lon="-9.6989883"><ele>34.0</ele><time>2026-05-05T15:48:39.193Z</time></trkpt><trkpt lat="51.5257217" lon="-9.6988117"><ele>34.0</ele><time>2026-05-05T15:48:40.192Z</time></trkpt><trkpt lat="51.525815" lon="-9.69863"><ele>34.0</ele><time>2026-05-05T15:48:41.193Z</time></trkpt><trkpt lat="51.52591" lon="-9.6984267"><ele>34.0</ele><time>2026-05-05T15:48:42.192Z</time></trkpt><trkpt lat="51.5260033" lon="-9.6981867"><ele>33.0</ele><time>2026-05-05T15:48:43.192Z</time></trkpt><trkpt lat="51.5260833" lon="-9.69798"><ele>32.0</ele><time>2026-05-05T15:48:44.193Z</time></trkpt><trkpt lat="51.5261867" lon="-9.6977517"><ele>31.0</ele><time>2026-05-05T15:48:45.193Z</time></trkpt><trkpt lat="51.5262867" lon="-9.697515"><ele>31.0</ele><time>2026-05-05T15:48:46.192Z</time></trkpt><trkpt lat="51.5263733" lon="-9.6973383"><ele>31.0</ele><time>2026-05-05T15:48:47.193Z</time></trkpt><trkpt lat="51.5264733" lon="-9.6970983"><ele>31.0</ele><time>2026-05-05T15:48:48.193Z</time></trkpt><trkpt lat="51.5265733" lon="-9.69686"><ele>32.333333333333336</ele><time>2026-05-05T15:48:49.192Z</time></trkpt><trkpt lat="51.526665" lon="-9.6966283"><ele>33.666666666666664</ele><time>2026-05-05T15:48:50.193Z</time></trkpt><trkpt lat="51.5267533" lon="-9.6964167"><ele>35.0</ele><time>2026-05-05T15:48:51.193Z</time></trkpt><trkpt lat="51.5268417" lon="-9.6961867"><ele>36.33333333333333</ele><time>2026-05-05T15:48:52.192Z</time></trkpt><trkpt lat="51.5269533" lon="-9.6959533"><ele>37.666666666666664</ele><time>2026-05-05T15:48:53.193Z</time></trkpt><trkpt lat="51.5270467" lon="-9.6957267"><ele>39.0</ele><time>2026-05-05T15:48:54.193Z</time></trkpt><trkpt lat="51.5271383" lon="-9.69551"><ele>35.666666666666664</ele><time>2026-05-05T15:48:55.193Z</time></trkpt><trkpt lat="51.5272167" lon="-9.695305"><ele>32.33333333333333</ele><time>2026-05-05T15:48:56.192Z</time></trkpt><trkpt lat="51.5273" lon="-9.6951"><ele>29.0</ele><time>2026-05-05T15:48:57.193Z</time></trkpt><trkpt lat="51.5273917" lon="-9.694885"><ele>29.0</ele><time>2026-05-05T15:48:58.193Z</time></trkpt><trkpt lat="51.5274867" lon="-9.6946667"><ele>29.0</ele><time>2026-05-05T15:48:59.191Z</time></trkpt><trkpt lat="51.5275733" lon="-9.6944533"><ele>29.0</ele><time>2026-05-05T15:49:00.193Z</time></trkpt><trkpt lat="51.5276583" lon="-9.6942583"><ele>30.5</ele><time>2026-05-05T15:49:01.192Z</time></trkpt><trkpt lat="51.527735" lon="-9.6940967"><ele>32.0</ele><time>2026-05-05T15:49:02.192Z</time></trkpt><trkpt lat="51.5278167" lon="-9.6939467"><ele>33.5</ele><time>2026-05-05T15:49:03.192Z</time></trkpt><trkpt lat="51.5279033" lon="-9.6937967"><ele>35.0</ele><time>2026-05-05T15:49:04.193Z</time></trkpt><trkpt lat="51.527985" lon="-9.6936583"><ele>33.25</ele><time>2026-05-05T15:49:05.193Z</time></trkpt><trkpt lat="51.5280717" lon="-9.6935333"><ele>31.5</ele><time>2026-05-05T15:49:06.192Z</time></trkpt><trkpt lat="51.5281517" lon="-9.6934033"><ele>29.75</ele><time>2026-05-05T15:49:07.193Z</time></trkpt><trkpt lat="51.5282183" lon="-9.6932567"><ele>28.0</ele><time>2026-05-05T15:49:08.192Z</time></trkpt><trkpt lat="51.52828" lon="-9.6930967"><ele>28.0</ele><time>2026-05-05T15:49:09.193Z</time></trkpt><trkpt lat="51.52834" lon="-9.6929267"><ele>28.0</ele><time>2026-05-05T15:49:10.192Z</time></trkpt><trkpt lat="51.528395" lon="-9.69275"><ele>28.0</ele><time>2026-05-05T15:49:11.193Z</time></trkpt><trkpt lat="51.5284583" lon="-9.69258"><ele>28.0</ele><time>2026-05-05T15:49:12.193Z</time></trkpt><trkpt lat="51.52852" lon="-9.6924133"><ele>29.0</ele><time>2026-05-05T15:49:13.192Z</time></trkpt><trkpt lat="51.5285717" lon="-9.692255"><ele>30.0</ele><time>2026-05-05T15:49:14.193Z</time></trkpt><trkpt lat="51.5286433" lon="-9.6920667"><ele>31.0</ele><time>2026-05-05T15:49:15.193Z</time></trkpt><trkpt lat="51.5287067" lon="-9.6918817"><ele>32.0</ele><time>2026-05-05T15:49:16.193Z</time></trkpt><trkpt lat="51.5287783" lon="-9.6916883"><ele>30.25</ele><time>2026-05-05T15:49:17.192Z</time></trkpt><trkpt lat="51.52885" lon="-9.6914883"><ele>28.5</ele><time>2026-05-05T15:49:18.193Z</time></trkpt><trkpt lat="51.528915" lon="-9.6912883"><ele>26.75</ele><time>2026-05-05T15:49:19.193Z</time></trkpt><trkpt lat="51.5289817" lon="-9.6910867"><ele>25.0</ele><time>2026-05-05T15:49:20.193Z</time></trkpt><trkpt lat="51.5290667" lon="-9.6908683"><ele>25.0</ele><time>2026-05-05T15:49:21.193Z</time></trkpt><trkpt lat="51.5291467" lon="-9.690675"><ele>25.0</ele><time>2026-05-05T15:49:22.193Z</time></trkpt><trkpt lat="51.5292317" lon="-9.6904783"><ele>25.0</ele><time>2026-05-05T15:49:23.193Z</time></trkpt><trkpt lat="51.5293183" lon="-9.6902967"><ele>25.0</ele><time>2026-05-05T15:49:24.192Z</time></trkpt><trkpt lat="51.529395" lon="-9.6901333"><ele>23.75</ele><time>2026-05-05T15:49:25.193Z</time></trkpt><trkpt lat="51.5294767" lon="-9.6899733"><ele>22.5</ele><time>2026-05-05T15:49:26.193Z</time></trkpt><trkpt lat="51.52957" lon="-9.6898283"><ele>21.25</ele><time>2026-05-05T15:49:27.193Z</time></trkpt><trkpt lat="51.5296583" lon="-9.6896917"><ele>20.0</ele><time>2026-05-05T15:49:28.192Z</time></trkpt><trkpt lat="51.52977" lon="-9.6895617"><ele>20.0</ele><time>2026-05-05T15:49:29.192Z</time></trkpt><trkpt lat="51.529885" lon="-9.6894283"><ele>20.0</ele><time>2026-05-05T15:49:30.192Z</time></trkpt><trkpt lat="51.53" lon="-9.6892917"><ele>20.0</ele><time>2026-05-05T15:49:31.193Z</time></trkpt><trkpt lat="51.53011" lon="-9.6891567"><ele>20.0</ele><time>2026-05-05T15:49:32.193Z</time></trkpt><trkpt lat="51.530225" lon="-9.6890233"><ele>20.0</ele><time>2026-05-05T15:49:33.193Z</time></trkpt><trkpt lat="51.5303433" lon="-9.6888933"><ele>20.0</ele><time>2026-05-05T15:49:34.192Z</time></trkpt><trkpt lat="51.530465" lon="-9.688765"><ele>20.0</ele><time>2026-05-05T15:49:35.193Z</time></trkpt><trkpt lat="51.530595" lon="-9.6886167"><ele>20.0</ele><time>2026-05-05T15:49:36.193Z</time></trkpt><trkpt lat="51.5307067" lon="-9.6884783"><ele>20.0</ele><time>2026-05-05T15:49:37.193Z</time></trkpt><trkpt lat="51.5308183" lon="-9.6883633"><ele>20.0</ele><time>2026-05-05T15:49:38.193Z</time></trkpt><trkpt lat="51.530925" lon="-9.6882383"><ele>20.0</ele><time>2026-05-05T15:49:39.193Z</time></trkpt><trkpt lat="51.531035" lon="-9.6881267"><ele>20.0</ele><time>2026-05-05T15:49:40.192Z</time></trkpt><trkpt lat="51.531135" lon="-9.688015"><ele>17.0</ele><time>2026-05-05T15:49:41.193Z</time></trkpt><trkpt lat="51.531225" lon="-9.6878767"><ele>14.0</ele><time>2026-05-05T15:49:42.193Z</time></trkpt><trkpt lat="51.5313117" lon="-9.6877167"><ele>11.0</ele><time>2026-05-05T15:49:43.193Z</time></trkpt><trkpt lat="51.5313817" lon="-9.6875233"><ele>8.0</ele><time>2026-05-05T15:49:44.193Z</time></trkpt><trkpt lat="51.5314667" lon="-9.6873133"><ele>8.0</ele><time>2026-05-05T15:49:45.192Z</time></trkpt><trkpt lat="51.531555" lon="-9.6870983"><ele>8.0</ele><time>2026-05-05T15:49:46.193Z</time></trkpt><trkpt lat="51.5316433" lon="-9.6868783"><ele>8.0</ele><time>2026-05-05T15:49:47.193Z</time></trkpt><trkpt lat="51.5317283" lon="-9.68669"><ele>10.0</ele><time>2026-05-05T15:49:48.193Z</time></trkpt><trkpt lat="51.5318017" lon="-9.6865317"><ele>12.0</ele><time>2026-05-05T15:49:49.193Z</time></trkpt><trkpt lat="51.531865" lon="-9.686375"><ele>14.0</ele><time>2026-05-05T15:49:50.192Z</time></trkpt><trkpt lat="51.53192" lon="-9.6862233"><ele>16.0</ele><time>2026-05-05T15:49:51.193Z</time></trkpt><trkpt lat="51.5319683" lon="-9.6860533"><ele>18.0</ele><time>2026-05-05T15:49:52.193Z</time></trkpt><trkpt lat="51.5320233" lon="-9.68585"><ele>20.0</ele><time>2026-05-05T15:49:53.193Z</time></trkpt><trkpt lat="51.5320717" lon="-9.6856533"><ele>22.0</ele><time>2026-05-05T15:49:54.192Z</time></trkpt><trkpt lat="51.532125" lon="-9.6854683"><ele>24.0</ele><time>2026-05-05T15:49:55.192Z</time></trkpt><trkpt lat="51.5322033" lon="-9.6853067"><ele>21.75</ele><time>2026-05-05T15:49:56.193Z</time></trkpt><trkpt lat="51.532305" lon="-9.68516"><ele>19.5</ele><time>2026-05-05T15:49:57.192Z</time></trkpt><trkpt lat="51.5324067" lon="-9.685015"><ele>17.25</ele><time>2026-05-05T15:49:58.193Z</time></trkpt><trkpt lat="51.5325133" lon="-9.6848567"><ele>15.0</ele><time>2026-05-05T15:49:59.193Z</time></trkpt><trkpt lat="51.532625" lon="-9.6846867"><ele>15.0</ele><time>2026-05-05T15:50:00.193Z</time></trkpt><trkpt lat="51.5327283" lon="-9.68452"><ele>15.0</ele><time>2026-05-05T15:50:01.193Z</time></trkpt><trkpt lat="51.53283" lon="-9.68437"><ele>15.0</ele><time>2026-05-05T15:50:02.192Z</time></trkpt><trkpt lat="51.5329233" lon="-9.6842117"><ele>15.0</ele><time>2026-05-05T15:50:03.192Z</time></trkpt><trkpt lat="51.5330183" lon="-9.6840483"><ele>14.5</ele><time>2026-05-05T15:50:04.192Z</time></trkpt><trkpt lat="51.5330933" lon="-9.6838733"><ele>14.0</ele><time>2026-05-05T15:50:05.193Z</time></trkpt><trkpt lat="51.5331767" lon="-9.683675"><ele>13.5</ele><time>2026-05-05T15:50:06.192Z</time></trkpt><trkpt lat="51.5332483" lon="-9.68344"><ele>13.0</ele><time>2026-05-05T15:50:07.193Z</time></trkpt><trkpt lat="51.5333183" lon="-9.6832317"><ele>13.0</ele><time>2026-05-05T15:50:08.193Z</time></trkpt><trkpt lat="51.5333833" lon="-9.6830267"><ele>13.0</ele><time>2026-05-05T15:50:09.192Z</time></trkpt><trkpt lat="51.5334433" lon="-9.6828467"><ele>13.0</ele><time>2026-05-05T15:50:10.193Z</time></trkpt><trkpt lat="51.5335" lon="-9.68268"><ele>13.0</ele><time>2026-05-05T15:50:11.193Z</time></trkpt><trkpt lat="51.5335533" lon="-9.6825467"><ele>11.6</ele><time>2026-05-05T15:50:12.193Z</time></trkpt><trkpt lat="51.53362" lon="-9.6824433"><ele>10.200000000000001</ele><time>2026-05-05T15:50:13.192Z</time></trkpt><trkpt lat="51.5336783" lon="-9.6823617"><ele>8.8</ele><time>2026-05-05T15:50:14.193Z</time></trkpt><trkpt lat="51.533755" lon="-9.6822717"><ele>7.4</ele><time>2026-05-05T15:50:15.193Z</time></trkpt><trkpt lat="51.5338283" lon="-9.6821583"><ele>6.0</ele><time>2026-05-05T15:50:16.193Z</time></trkpt><trkpt lat="51.5338933" lon="-9.6820183"><ele>8.0</ele><time>2026-05-05T15:50:17.193Z</time></trkpt><trkpt lat="51.533955" lon="-9.6818517"><ele>10.0</ele><time>2026-05-05T15:50:18.193Z</time></trkpt><trkpt lat="51.5340167" lon="-9.6816933"><ele>12.0</ele><time>2026-05-05T15:50:19.192Z</time></trkpt><trkpt lat="51.5340767" lon="-9.6815333"><ele>14.0</ele><time>2026-05-05T15:50:20.193Z</time></trkpt><trkpt lat="51.5341383" lon="-9.681375"><ele>14.0</ele><time>2026-05-05T15:50:21.193Z</time></trkpt><trkpt lat="51.5342067" lon="-9.68125"><ele>13.999999999999998</ele><time>2026-05-05T15:50:22.193Z</time></trkpt><trkpt lat="51.534285" lon="-9.681145"><ele>13.999999999999998</ele><time>2026-05-05T15:50:23.193Z</time></trkpt><trkpt lat="51.5343833" lon="-9.6810633"><ele>14.0</ele><time>2026-05-05T15:50:24.192Z</time></trkpt><trkpt lat="51.5344917" lon="-9.681005"><ele>14.0</ele><time>2026-05-05T15:50:25.193Z</time></trkpt><trkpt lat="51.53462" lon="-9.68096"><ele>14.0</ele><time>2026-05-05T15:50:26.193Z</time></trkpt><trkpt lat="51.53472" lon="-9.6808933"><ele>13.999999999999998</ele><time>2026-05-05T15:50:27.192Z</time></trkpt><trkpt lat="51.534805" lon="-9.6808017"><ele>13.999999999999998</ele><time>2026-05-05T15:50:28.193Z</time></trkpt><trkpt lat="51.5348867" lon="-9.6806883"><ele>14.0</ele><time>2026-05-05T15:50:29.193Z</time></trkpt><trkpt lat="51.5349483" lon="-9.6805467"><ele>14.0</ele><time>2026-05-05T15:50:30.192Z</time></trkpt><trkpt lat="51.5350133" lon="-9.68044"><ele>14.000000000000002</ele><time>2026-05-05T15:50:31.193Z</time></trkpt><trkpt lat="51.535085" lon="-9.6803667"><ele>14.0</ele><time>2026-05-05T15:50:32.193Z</time></trkpt><trkpt lat="51.535195" lon="-9.6803467"><ele>14.0</ele><time>2026-05-05T15:50:34.192Z</time></trkpt><trkpt lat="51.535265" lon="-9.680385"><ele>14.0</ele><time>2026-05-05T15:50:35.193Z</time></trkpt><trkpt lat="51.5353383" lon="-9.6804133"><ele>14.000000000000002</ele><time>2026-05-05T15:50:36.192Z</time></trkpt><trkpt lat="51.535425" lon="-9.6804317"><ele>14.0</ele><time>2026-05-05T15:50:37.193Z</time></trkpt><trkpt lat="51.5355167" lon="-9.6804317"><ele>13.25</ele><time>2026-05-05T15:50:38.193Z</time></trkpt><trkpt lat="51.5356133" lon="-9.6804017"><ele>12.5</ele><time>2026-05-05T15:50:39.192Z</time></trkpt><trkpt lat="51.5357183" lon="-9.68034"><ele>11.75</ele><time>2026-05-05T15:50:40.193Z</time></trkpt><trkpt lat="51.5358317" lon="-9.6802483"><ele>11.0</ele><time>2026-05-05T15:50:41.193Z</time></trkpt><trkpt lat="51.5359467" lon="-9.68013"><ele>9.75</ele><time>2026-05-05T15:50:42.193Z</time></trkpt><trkpt lat="51.5360583" lon="-9.6799983"><ele>8.5</ele><time>2026-05-05T15:50:43.193Z</time></trkpt><trkpt lat="51.5361783" lon="-9.6798783"><ele>7.25</ele><time>2026-05-05T15:50:44.193Z</time></trkpt><trkpt lat="51.53629" lon="-9.6797483"><ele>6.0</ele><time>2026-05-05T15:50:45.192Z</time></trkpt><trkpt lat="51.5364017" lon="-9.679615"><ele>6.0</ele><time>2026-05-05T15:50:46.193Z</time></trkpt><trkpt lat="51.53651" lon="-9.679475"><ele>6.0</ele><time>2026-05-05T15:50:47.193Z</time></trkpt><trkpt lat="51.5366317" lon="-9.67934"><ele>6.0</ele><time>2026-05-05T15:50:48.192Z</time></trkpt><trkpt lat="51.5367367" lon="-9.6792117"><ele>6.0</ele><time>2026-05-05T15:50:49.192Z</time></trkpt><trkpt lat="51.5368267" lon="-9.6790933"><ele>5.75</ele><time>2026-05-05T15:50:50.193Z</time></trkpt><trkpt lat="51.5369" lon="-9.6789683"><ele>5.5</ele><time>2026-05-05T15:50:51.193Z</time></trkpt><trkpt lat="51.5369683" lon="-9.678825"><ele>5.25</ele><time>2026-05-05T15:50:52.192Z</time></trkpt><trkpt lat="51.537045" lon="-9.6786817"><ele>5.0</ele><time>2026-05-05T15:50:53.192Z</time></trkpt><trkpt lat="51.5371083" lon="-9.6785033"><ele>5.0</ele><time>2026-05-05T15:50:54.192Z</time></trkpt><trkpt lat="51.5371717" lon="-9.67829"><ele>5.0</ele><time>2026-05-05T15:50:55.192Z</time></trkpt><trkpt lat="51.5372267" lon="-9.6780683"><ele>5.0</ele><time>2026-05-05T15:50:56.192Z</time></trkpt><trkpt lat="51.53729" lon="-9.67786"><ele>5.0</ele><time>2026-05-05T15:50:57.193Z</time></trkpt><trkpt lat="51.5373533" lon="-9.67767"><ele>7.0</ele><time>2026-05-05T15:50:58.193Z</time></trkpt><trkpt lat="51.5374367" lon="-9.6774767"><ele>9.0</ele><time>2026-05-05T15:50:59.192Z</time></trkpt><trkpt lat="51.5375417" lon="-9.6772683"><ele>11.0</ele><time>2026-05-05T15:51:00.193Z</time></trkpt><trkpt lat="51.5376417" lon="-9.6770733"><ele>9.0</ele><time>2026-05-05T15:51:01.192Z</time></trkpt><trkpt lat="51.5377467" lon="-9.6768817"><ele>7.0</ele><time>2026-05-05T15:51:02.192Z</time></trkpt><trkpt lat="51.5378317" lon="-9.6767167"><ele>5.0</ele><time>2026-05-05T15:51:03.192Z</time></trkpt><trkpt lat="51.53791" lon="-9.6765567"><ele>3.0</ele><time>2026-05-05T15:51:04.193Z</time></trkpt><trkpt lat="51.5379867" lon="-9.676375"><ele>3.0</ele><time>2026-05-05T15:51:05.192Z</time></trkpt><trkpt lat="51.5380517" lon="-9.6761917"><ele>3.0</ele><time>2026-05-05T15:51:06.193Z</time></trkpt><trkpt lat="51.538105" lon="-9.676045"><ele>3.0</ele><time>2026-05-05T15:51:07.193Z</time></trkpt><trkpt lat="51.5381617" lon="-9.6759"><ele>3.0</ele><time>2026-05-05T15:51:08.193Z</time></trkpt><trkpt lat="51.5381917" lon="-9.6757667"><ele>3.0</ele><time>2026-05-05T15:51:09.192Z</time></trkpt><trkpt lat="51.5381967" lon="-9.67565"><ele>4.0</ele><time>2026-05-05T15:51:10.193Z</time></trkpt><trkpt lat="51.5381817" lon="-9.6755367"><ele>5.0</ele><time>2026-05-05T15:51:11.193Z</time></trkpt><trkpt lat="51.538175" lon="-9.6754183"><ele>6.0</ele><time>2026-05-05T15:51:12.192Z</time></trkpt><trkpt lat="51.5381783" lon="-9.6753083"><ele>7.0</ele><time>2026-05-05T15:51:13.193Z</time></trkpt><trkpt lat="51.5381933" lon="-9.67521"><ele>8.0</ele><time>2026-05-05T15:51:14.193Z</time></trkpt><trkpt lat="51.5382683" lon="-9.6750083"><ele>9.0</ele><time>2026-05-05T15:51:16.192Z</time></trkpt><trkpt lat="51.538345" lon="-9.6749017"><ele>7.25</ele><time>2026-05-05T15:51:17.193Z</time></trkpt><trkpt lat="51.53843" lon="-9.674795"><ele>5.5</ele><time>2026-05-05T15:51:18.193Z</time></trkpt><trkpt lat="51.538575" lon="-9.674715"><ele>3.75</ele><time>2026-05-05T15:51:19.193Z</time></trkpt><trkpt lat="51.5386983" lon="-9.6746367"><ele>2.0</ele><time>2026-05-05T15:51:20.192Z</time></trkpt><trkpt lat="51.53883" lon="-9.674555"><ele>2.0</ele><time>2026-05-05T15:51:21.192Z</time></trkpt><trkpt lat="51.5389533" lon="-9.6744683"><ele>2.0</ele><time>2026-05-05T15:51:22.193Z</time></trkpt><trkpt lat="51.5390533" lon="-9.674375"><ele>2.0</ele><time>2026-05-05T15:51:23.193Z</time></trkpt><trkpt lat="51.5391383" lon="-9.6742683"><ele>2.0</ele><time>2026-05-05T15:51:24.193Z</time></trkpt><trkpt lat="51.5392083" lon="-9.674145"><ele>4.25</ele><time>2026-05-05T15:51:25.192Z</time></trkpt><trkpt lat="51.5392833" lon="-9.6739817"><ele>6.5</ele><time>2026-05-05T15:51:26.193Z</time></trkpt><trkpt lat="51.5393667" lon="-9.6738083"><ele>8.75</ele><time>2026-05-05T15:51:27.193Z</time></trkpt><trkpt lat="51.5394317" lon="-9.673655"><ele>11.0</ele><time>2026-05-05T15:51:28.193Z</time></trkpt><trkpt lat="51.5395" lon="-9.6735133"><ele>10.0</ele><time>2026-05-05T15:51:29.193Z</time></trkpt><trkpt lat="51.5395583" lon="-9.67336"><ele>9.0</ele><time>2026-05-05T15:51:30.193Z</time></trkpt><trkpt lat="51.5396" lon="-9.6731767"><ele>8.0</ele><time>2026-05-05T15:51:31.193Z</time></trkpt><trkpt lat="51.5396317" lon="-9.6729933"><ele>7.0</ele><time>2026-05-05T15:51:32.192Z</time></trkpt><trkpt lat="51.53966" lon="-9.67279"><ele>8.0</ele><time>2026-05-05T15:51:33.192Z</time></trkpt><trkpt lat="51.5396733" lon="-9.6725583"><ele>9.0</ele><time>2026-05-05T15:51:34.193Z</time></trkpt><trkpt lat="51.5396783" lon="-9.672315"><ele>10.0</ele><time>2026-05-05T15:51:35.193Z</time></trkpt><trkpt lat="51.53968" lon="-9.6720533"><ele>11.0</ele><time>2026-05-05T15:51:36.192Z</time></trkpt><trkpt lat="51.5396817" lon="-9.6717817"><ele>12.0</ele><time>2026-05-05T15:51:37.193Z</time></trkpt><trkpt lat="51.5396717" lon="-9.6715283"><ele>13.0</ele><time>2026-05-05T15:51:38.193Z</time></trkpt><trkpt lat="51.53967" lon="-9.671275"><ele>13.0</ele><time>2026-05-05T15:51:39.193Z</time></trkpt><trkpt lat="51.5396733" lon="-9.6710267"><ele>13.0</ele><time>2026-05-05T15:51:40.193Z</time></trkpt><trkpt lat="51.5396833" lon="-9.6707867"><ele>13.0</ele><time>2026-05-05T15:51:41.193Z</time></trkpt><trkpt lat="51.5396833" lon="-9.6705417"><ele>13.0</ele><time>2026-05-05T15:51:42.193Z</time></trkpt><trkpt lat="51.5396833" lon="-9.670315"><ele>13.0</ele><time>2026-05-05T15:51:43.192Z</time></trkpt><trkpt lat="51.5396783" lon="-9.670075"><ele>13.0</ele><time>2026-05-05T15:51:44.193Z</time></trkpt><trkpt lat="51.539655" lon="-9.6698283"><ele>13.0</ele><time>2026-05-05T15:51:45.193Z</time></trkpt><trkpt lat="51.5396317" lon="-9.6696"><ele>12.25</ele><time>2026-05-05T15:51:46.193Z</time></trkpt><trkpt lat="51.5396183" lon="-9.66938"><ele>11.5</ele><time>2026-05-05T15:51:47.192Z</time></trkpt><trkpt lat="51.5396133" lon="-9.6691633"><ele>10.75</ele><time>2026-05-05T15:51:48.193Z</time></trkpt><trkpt lat="51.5396167" lon="-9.6689483"><ele>10.0</ele><time>2026-05-05T15:51:49.193Z</time></trkpt><trkpt lat="51.5396317" lon="-9.6687317"><ele>10.0</ele><time>2026-05-05T15:51:50.192Z</time></trkpt><trkpt lat="51.539665" lon="-9.6685"><ele>10.0</ele><time>2026-05-05T15:51:51.193Z</time></trkpt><trkpt lat="51.5397283" lon="-9.66825"><ele>10.0</ele><time>2026-05-05T15:51:52.193Z</time></trkpt><trkpt lat="51.5397767" lon="-9.6680117"><ele>10.333333333333334</ele><time>2026-05-05T15:51:53.193Z</time></trkpt><trkpt lat="51.5398233" lon="-9.6677767"><ele>10.666666666666666</ele><time>2026-05-05T15:51:54.193Z</time></trkpt><trkpt lat="51.5398767" lon="-9.6675267"><ele>11.0</ele><time>2026-05-05T15:51:55.193Z</time></trkpt><trkpt lat="51.539935" lon="-9.6672717"><ele>11.0</ele><time>2026-05-05T15:51:56.193Z</time></trkpt><trkpt lat="51.5399783" lon="-9.667015"><ele>11.0</ele><time>2026-05-05T15:51:57.192Z</time></trkpt><trkpt lat="51.5400167" lon="-9.6667717"><ele>11.0</ele><time>2026-05-05T15:51:58.193Z</time></trkpt><trkpt lat="51.54006" lon="-9.666525"><ele>11.0</ele><time>2026-05-05T15:51:59.192Z</time></trkpt><trkpt lat="51.5400867" lon="-9.6663017"><ele>11.0</ele><time>2026-05-05T15:52:00.193Z</time></trkpt><trkpt lat="51.5401233" lon="-9.6660917"><ele>11.0</ele><time>2026-05-05T15:52:01.192Z</time></trkpt><trkpt lat="51.54017" lon="-9.6658483"><ele>11.0</ele><time>2026-05-05T15:52:02.193Z</time></trkpt><trkpt lat="51.5401833" lon="-9.6656467"><ele>10.600000000000001</ele><time>2026-05-05T15:52:03.193Z</time></trkpt><trkpt lat="51.5401667" lon="-9.66547"><ele>10.200000000000001</ele><time>2026-05-05T15:52:04.192Z</time></trkpt><trkpt lat="51.5401117" lon="-9.6653367"><ele>9.8</ele><time>2026-05-05T15:52:05.192Z</time></trkpt><trkpt lat="51.5400533" lon="-9.6652033"><ele>9.4</ele><time>2026-05-05T15:52:06.193Z</time></trkpt><trkpt lat="51.5399833" lon="-9.6650917"><ele>9.0</ele><time>2026-05-05T15:52:07.193Z</time></trkpt><trkpt lat="51.5398983" lon="-9.665015"><ele>8.5</ele><time>2026-05-05T15:52:08.192Z</time></trkpt><trkpt lat="51.539815" lon="-9.664945"><ele>8.0</ele><time>2026-05-05T15:52:09.193Z</time></trkpt><trkpt lat="51.5397467" lon="-9.6648633"><ele>7.5</ele><time>2026-05-05T15:52:10.192Z</time></trkpt><trkpt lat="51.539695" lon="-9.6647667"><ele>7.0</ele><time>2026-05-05T15:52:11.193Z</time></trkpt><trkpt lat="51.5396533" lon="-9.6646717"><ele>6.5</ele><time>2026-05-05T15:52:12.192Z</time></trkpt><trkpt lat="51.5396267" lon="-9.6645783"><ele>6.0</ele><time>2026-05-05T15:52:13.193Z</time></trkpt><trkpt lat="51.5396183" lon="-9.6644283"><ele>5.833333333333333</ele><time>2026-05-05T15:52:15.193Z</time></trkpt><trkpt lat="51.539665" lon="-9.66433"><ele>5.666666666666667</ele><time>2026-05-05T15:52:16.192Z</time></trkpt><trkpt lat="51.5397117" lon="-9.66424"><ele>5.5</ele><time>2026-05-05T15:52:17.192Z</time></trkpt><trkpt lat="51.5397733" lon="-9.6641183"><ele>5.333333333333334</ele><time>2026-05-05T15:52:18.192Z</time></trkpt><trkpt lat="51.53982" lon="-9.6639983"><ele>5.166666666666667</ele><time>2026-05-05T15:52:19.193Z</time></trkpt><trkpt lat="51.5398633" lon="-9.6638617"><ele>5.0</ele><time>2026-05-05T15:52:20.192Z</time></trkpt><trkpt lat="51.5399117" lon="-9.6636983"><ele>4.5</ele><time>2026-05-05T15:52:21.192Z</time></trkpt><trkpt lat="51.5399367" lon="-9.6635033"><ele>4.0</ele><time>2026-05-05T15:52:22.193Z</time></trkpt><trkpt lat="51.53996" lon="-9.66331"><ele>3.5</ele><time>2026-05-05T15:52:23.193Z</time></trkpt><trkpt lat="51.53998" lon="-9.6631117"><ele>3.0</ele><time>2026-05-05T15:52:24.193Z</time></trkpt><trkpt lat="51.540035" lon="-9.6628783"><ele>3.0</ele><time>2026-05-05T15:52:25.193Z</time></trkpt><trkpt lat="51.5400467" lon="-9.6626983"><ele>3.0</ele><time>2026-05-05T15:52:26.193Z</time></trkpt><trkpt lat="51.5400567" lon="-9.6625333"><ele>3.0</ele><time>2026-05-05T15:52:27.193Z</time></trkpt><trkpt lat="51.540065" lon="-9.6623667"><ele>3.0</ele><time>2026-05-05T15:52:28.193Z</time></trkpt><trkpt lat="51.5400767" lon="-9.662195"><ele>3.0</ele><time>2026-05-05T15:52:29.193Z</time></trkpt><trkpt lat="51.5400967" lon="-9.6620183"><ele>3.2</ele><time>2026-05-05T15:52:30.193Z</time></trkpt><trkpt lat="51.5401167" lon="-9.6618367"><ele>3.4</ele><time>2026-05-05T15:52:31.193Z</time></trkpt><trkpt lat="51.54014" lon="-9.6616783"><ele>3.6000000000000005</ele><time>2026-05-05T15:52:32.192Z</time></trkpt><trkpt lat="51.5401883" lon="-9.6615233"><ele>3.8000000000000003</ele><time>2026-05-05T15:52:33.192Z</time></trkpt><trkpt lat="51.5402533" lon="-9.6613633"><ele>4.0</ele><time>2026-05-05T15:52:34.193Z</time></trkpt><trkpt lat="51.5403267" lon="-9.6612067"><ele>3.6</ele><time>2026-05-05T15:52:35.193Z</time></trkpt><trkpt lat="51.540395" lon="-9.66106"><ele>3.2</ele><time>2026-05-05T15:52:36.192Z</time></trkpt><trkpt lat="51.5404517" lon="-9.6609133"><ele>2.8000000000000003</ele><time>2026-05-05T15:52:37.193Z</time></trkpt><trkpt lat="51.5405017" lon="-9.6607567"><ele>2.4000000000000004</ele><time>2026-05-05T15:52:38.192Z</time></trkpt><trkpt lat="51.5405483" lon="-9.6605933"><ele>2.0</ele><time>2026-05-05T15:52:39.193Z</time></trkpt><trkpt lat="51.5405783" lon="-9.66042"><ele>1.9999999999999998</ele><time>2026-05-05T15:52:40.192Z</time></trkpt><trkpt lat="51.5405933" lon="-9.6602533"><ele>2.0</ele><time>2026-05-05T15:52:41.193Z</time></trkpt><trkpt lat="51.5405867" lon="-9.66009"><ele>2.0</ele><time>2026-05-05T15:52:42.193Z</time></trkpt><trkpt lat="51.5405717" lon="-9.6599483"><ele>2.0</ele><time>2026-05-05T15:52:43.193Z</time></trkpt><trkpt lat="51.5405567" lon="-9.659835"><ele>1.9999999999999998</ele><time>2026-05-05T15:52:44.193Z</time></trkpt><trkpt lat="51.5405417" lon="-9.65973"><ele>2.0</ele><time>2026-05-05T15:52:45.193Z</time></trkpt><trkpt lat="51.540505" lon="-9.6596183"><ele>2.0</ele><time>2026-05-05T15:52:46.193Z</time></trkpt><trkpt lat="51.5404517" lon="-9.6594933"><ele>2.0</ele><time>2026-05-05T15:52:47.192Z</time></trkpt><trkpt lat="51.5403917" lon="-9.65936"><ele>2.0</ele><time>2026-05-05T15:52:48.192Z</time></trkpt><trkpt lat="51.5403067" lon="-9.659225"><ele>2.0</ele><time>2026-05-05T15:52:49.192Z</time></trkpt><trkpt lat="51.5402383" lon="-9.6590583"><ele>2.0</ele><time>2026-05-05T15:52:50.192Z</time></trkpt><trkpt lat="51.540175" lon="-9.6589067"><ele>2.75</ele><time>2026-05-05T15:52:51.192Z</time></trkpt><trkpt lat="51.5401117" lon="-9.6587317"><ele>3.5</ele><time>2026-05-05T15:52:52.193Z</time></trkpt><trkpt lat="51.54005" lon="-9.6585433"><ele>4.25</ele><time>2026-05-05T15:52:53.193Z</time></trkpt><trkpt lat="51.53998" lon="-9.6583533"><ele>5.0</ele><time>2026-05-05T15:52:54.193Z</time></trkpt><trkpt lat="51.5399217" lon="-9.658155"><ele>5.0</ele><time>2026-05-05T15:52:55.193Z</time></trkpt><trkpt lat="51.5398833" lon="-9.6579333"><ele>5.0</ele><time>2026-05-05T15:52:56.193Z</time></trkpt><trkpt lat="51.5398467" lon="-9.65774"><ele>5.0</ele><time>2026-05-05T15:52:57.193Z</time></trkpt><trkpt lat="51.5398183" lon="-9.6575633"><ele>5.0</ele><time>2026-05-05T15:52:58.193Z</time></trkpt><trkpt lat="51.5397917" lon="-9.6573633"><ele>5.25</ele><time>2026-05-05T15:52:59.193Z</time></trkpt><trkpt lat="51.53976" lon="-9.6571683"><ele>5.5</ele><time>2026-05-05T15:53:00.193Z</time></trkpt><trkpt lat="51.53973" lon="-9.65696"><ele>5.75</ele><time>2026-05-05T15:53:01.193Z</time></trkpt><trkpt lat="51.5396983" lon="-9.6567417"><ele>6.0</ele><time>2026-05-05T15:53:02.193Z</time></trkpt><trkpt lat="51.539665" lon="-9.6565317"><ele>6.25</ele><time>2026-05-05T15:53:03.193Z</time></trkpt><trkpt lat="51.5396317" lon="-9.6563317"><ele>6.5</ele><time>2026-05-05T15:53:04.193Z</time></trkpt><trkpt lat="51.5396067" lon="-9.6561333"><ele>6.75</ele><time>2026-05-05T15:53:05.193Z</time></trkpt><trkpt lat="51.5395833" lon="-9.6559433"><ele>7.0</ele><time>2026-05-05T15:53:06.193Z</time></trkpt><trkpt lat="51.5395483" lon="-9.6557333"><ele>7.75</ele><time>2026-05-05T15:53:07.192Z</time></trkpt><trkpt lat="51.5395183" lon="-9.65551"><ele>8.5</ele><time>2026-05-05T15:53:08.193Z</time></trkpt><trkpt lat="51.5395067" lon="-9.6552617"><ele>9.25</ele><time>2026-05-05T15:53:09.193Z</time></trkpt><trkpt lat="51.5394783" lon="-9.65505"><ele>10.0</ele><time>2026-05-05T15:53:10.193Z</time></trkpt><trkpt lat="51.5394533" lon="-9.6548367"><ele>10.0</ele><time>2026-05-05T15:53:11.193Z</time></trkpt><trkpt lat="51.539425" lon="-9.6546433"><ele>10.0</ele><time>2026-05-05T15:53:12.192Z</time></trkpt><trkpt lat="51.5393933" lon="-9.6544667"><ele>10.0</ele><time>2026-05-05T15:53:13.193Z</time></trkpt><trkpt lat="51.5393733" lon="-9.6542967"><ele>10.0</ele><time>2026-05-05T15:53:14.193Z</time></trkpt><trkpt lat="51.5393517" lon="-9.6541483"><ele>10.0</ele><time>2026-05-05T15:53:15.192Z</time></trkpt><trkpt lat="51.53933" lon="-9.654005"><ele>10.2</ele><time>2026-05-05T15:53:16.193Z</time></trkpt><trkpt lat="51.53931" lon="-9.6538583"><ele>10.4</ele><time>2026-05-05T15:53:17.193Z</time></trkpt><trkpt lat="51.5392883" lon="-9.6537067"><ele>10.600000000000001</ele><time>2026-05-05T15:53:18.193Z</time></trkpt><trkpt lat="51.5392667" lon="-9.6535417"><ele>10.8</ele><time>2026-05-05T15:53:19.193Z</time></trkpt><trkpt lat="51.5392367" lon="-9.6533533"><ele>11.0</ele><time>2026-05-05T15:53:20.192Z</time></trkpt><trkpt lat="51.539215" lon="-9.653175"><ele>11.0</ele><time>2026-05-05T15:53:21.193Z</time></trkpt><trkpt lat="51.539195" lon="-9.65298"><ele>11.0</ele><time>2026-05-05T15:53:22.192Z</time></trkpt><trkpt lat="51.539165" lon="-9.6527867"><ele>11.0</ele><time>2026-05-05T15:53:23.192Z</time></trkpt><trkpt lat="51.539135" lon="-9.6525867"><ele>11.0</ele><time>2026-05-05T15:53:24.193Z</time></trkpt><trkpt lat="51.5391083" lon="-9.652375"><ele>11.0</ele><time>2026-05-05T15:53:25.192Z</time></trkpt><trkpt lat="51.53909" lon="-9.6521467"><ele>11.0</ele><time>2026-05-05T15:53:26.192Z</time></trkpt><trkpt lat="51.53907" lon="-9.65192"><ele>11.0</ele><time>2026-05-05T15:53:27.192Z</time></trkpt><trkpt lat="51.5390483" lon="-9.65171"><ele>11.0</ele><time>2026-05-05T15:53:28.193Z</time></trkpt><trkpt lat="51.5390317" lon="-9.6515167"><ele>11.0</ele><time>2026-05-05T15:53:29.193Z</time></trkpt><trkpt lat="51.5390083" lon="-9.6513367"><ele>11.0</ele><time>2026-05-05T15:53:30.193Z</time></trkpt><trkpt lat="51.5389983" lon="-9.6511467"><ele>11.0</ele><time>2026-05-05T15:53:31.192Z</time></trkpt><trkpt lat="51.5389833" lon="-9.6509633"><ele>11.0</ele><time>2026-05-05T15:53:32.193Z</time></trkpt><trkpt lat="51.5389783" lon="-9.65078"><ele>11.200000000000001</ele><time>2026-05-05T15:53:33.193Z</time></trkpt><trkpt lat="51.5389833" lon="-9.6505883"><ele>11.4</ele><time>2026-05-05T15:53:34.193Z</time></trkpt><trkpt lat="51.5389717" lon="-9.6504267"><ele>11.6</ele><time>2026-05-05T15:53:35.193Z</time></trkpt><trkpt lat="51.53897" lon="-9.650265"><ele>11.8</ele><time>2026-05-05T15:53:36.192Z</time></trkpt><trkpt lat="51.538965" lon="-9.6500933"><ele>12.0</ele><time>2026-05-05T15:53:37.192Z</time></trkpt><trkpt lat="51.53896" lon="-9.64991"><ele>12.0</ele><time>2026-05-05T15:53:38.193Z</time></trkpt><trkpt lat="51.5389583" lon="-9.6497133"><ele>12.0</ele><time>2026-05-05T15:53:39.193Z</time></trkpt><trkpt lat="51.538965" lon="-9.649495"><ele>12.0</ele><time>2026-05-05T15:53:40.193Z</time></trkpt><trkpt lat="51.5389733" lon="-9.64926"><ele>12.0</ele><time>2026-05-05T15:53:41.192Z</time></trkpt><trkpt lat="51.5389767" lon="-9.6490183"><ele>12.0</ele><time>2026-05-05T15:53:42.193Z</time></trkpt><trkpt lat="51.5389817" lon="-9.648755"><ele>12.0</ele><time>2026-05-05T15:53:43.192Z</time></trkpt><trkpt lat="51.5389917" lon="-9.6484967"><ele>12.0</ele><time>2026-05-05T15:53:44.193Z</time></trkpt><trkpt lat="51.539" lon="-9.6482467"><ele>12.2</ele><time>2026-05-05T15:53:45.192Z</time></trkpt><trkpt lat="51.5390083" lon="-9.64803"><ele>12.399999999999999</ele><time>2026-05-05T15:53:46.193Z</time></trkpt><trkpt lat="51.539015" lon="-9.6478317"><ele>12.600000000000001</ele><time>2026-05-05T15:53:47.193Z</time></trkpt><trkpt lat="51.53902" lon="-9.64767"><ele>12.8</ele><time>2026-05-05T15:53:48.193Z</time></trkpt><trkpt lat="51.5390267" lon="-9.647535"><ele>13.0</ele><time>2026-05-05T15:53:49.193Z</time></trkpt><trkpt lat="51.53904" lon="-9.6473933"><ele>13.0</ele><time>2026-05-05T15:53:50.192Z</time></trkpt><trkpt lat="51.5390517" lon="-9.6472333"><ele>13.0</ele><time>2026-05-05T15:53:51.193Z</time></trkpt><trkpt lat="51.5390567" lon="-9.6470583"><ele>13.0</ele><time>2026-05-05T15:53:52.193Z</time></trkpt><trkpt lat="51.5390633" lon="-9.6468617"><ele>13.0</ele><time>2026-05-05T15:53:53.193Z</time></trkpt><trkpt lat="51.53907" lon="-9.646655"><ele>13.25</ele><time>2026-05-05T15:53:54.192Z</time></trkpt><trkpt lat="51.53908" lon="-9.6464317"><ele>13.5</ele><time>2026-05-05T15:53:55.193Z</time></trkpt><trkpt lat="51.539085" lon="-9.6461983"><ele>13.75</ele><time>2026-05-05T15:53:56.193Z</time></trkpt><trkpt lat="51.5390917" lon="-9.64596"><ele>14.0</ele><time>2026-05-05T15:53:57.193Z</time></trkpt><trkpt lat="51.5391033" lon="-9.6457183"><ele>14.0</ele><time>2026-05-05T15:53:58.193Z</time></trkpt><trkpt lat="51.5391167" lon="-9.6454833"><ele>14.0</ele><time>2026-05-05T15:53:59.193Z</time></trkpt><trkpt lat="51.5391217" lon="-9.6452717"><ele>14.0</ele><time>2026-05-05T15:54:00.192Z</time></trkpt><trkpt lat="51.5391267" lon="-9.6450717"><ele>14.0</ele><time>2026-05-05T15:54:01.192Z</time></trkpt><trkpt lat="51.53913" lon="-9.64488"><ele>14.2</ele><time>2026-05-05T15:54:02.193Z</time></trkpt><trkpt lat="51.5391317" lon="-9.6447017"><ele>14.399999999999999</ele><time>2026-05-05T15:54:03.192Z</time></trkpt><trkpt lat="51.5391367" lon="-9.6445333"><ele>14.6</ele><time>2026-05-05T15:54:04.193Z</time></trkpt><trkpt lat="51.5391417" lon="-9.64436"><ele>14.8</ele><time>2026-05-05T15:54:05.193Z</time></trkpt><trkpt lat="51.5391467" lon="-9.6441683"><ele>15.0</ele><time>2026-05-05T15:54:06.193Z</time></trkpt><trkpt lat="51.53915" lon="-9.6439667"><ele>15.25</ele><time>2026-05-05T15:54:07.192Z</time></trkpt><trkpt lat="51.539155" lon="-9.6437717"><ele>15.5</ele><time>2026-05-05T15:54:08.193Z</time></trkpt><trkpt lat="51.5391567" lon="-9.6435683"><ele>15.75</ele><time>2026-05-05T15:54:09.193Z</time></trkpt><trkpt lat="51.53915" lon="-9.6433917"><ele>16.0</ele><time>2026-05-05T15:54:10.193Z</time></trkpt><trkpt lat="51.539145" lon="-9.64323"><ele>16.166666666666664</ele><time>2026-05-05T15:54:11.193Z</time></trkpt><trkpt lat="51.5391317" lon="-9.643075"><ele>16.333333333333332</ele><time>2026-05-05T15:54:12.193Z</time></trkpt><trkpt lat="51.5391167" lon="-9.642945"><ele>16.5</ele><time>2026-05-05T15:54:13.192Z</time></trkpt><trkpt lat="51.5390983" lon="-9.6428433"><ele>16.666666666666668</ele><time>2026-05-05T15:54:14.193Z</time></trkpt><trkpt lat="51.53907" lon="-9.642705"><ele>16.833333333333336</ele><time>2026-05-05T15:54:16.193Z</time></trkpt><trkpt lat="51.5390833" lon="-9.6426417"><ele>17.0</ele><time>2026-05-05T15:58:33.193Z</time></trkpt><trkpt lat="51.5390417" lon="-9.6425167"><ele>17.4</ele><time>2026-05-05T15:58:36.193Z</time></trkpt><trkpt lat="51.5390133" lon="-9.6424133"><ele>17.799999999999997</ele><time>2026-05-05T15:58:39.193Z</time></trkpt><trkpt lat="51.53904" lon="-9.64227"><ele>18.2</ele><time>2026-05-05T15:58:42.192Z</time></trkpt><trkpt lat="51.53913" lon="-9.6420933"><ele>18.599999999999998</ele><time>2026-05-05T15:58:44.192Z</time></trkpt><trkpt lat="51.5391867" lon="-9.6419717"><ele>19.0</ele><time>2026-05-05T15:58:45.193Z</time></trkpt><trkpt lat="51.5392367" lon="-9.641835"><ele>19.0</ele><time>2026-05-05T15:58:46.193Z</time></trkpt><trkpt lat="51.5392967" lon="-9.6416817"><ele>19.0</ele><time>2026-05-05T15:58:47.193Z</time></trkpt><trkpt lat="51.5393567" lon="-9.64152"><ele>19.0</ele><time>2026-05-05T15:58:48.193Z</time></trkpt><trkpt lat="51.5394217" lon="-9.6413467"><ele>19.0</ele><time>2026-05-05T15:58:49.192Z</time></trkpt><trkpt lat="51.539495" lon="-9.6411883"><ele>18.75</ele><time>2026-05-05T15:58:50.193Z</time></trkpt><trkpt lat="51.539575" lon="-9.6410467"><ele>18.5</ele><time>2026-05-05T15:58:51.192Z</time></trkpt><trkpt lat="51.5396567" lon="-9.6409117"><ele>18.25</ele><time>2026-05-05T15:58:52.193Z</time></trkpt><trkpt lat="51.5397467" lon="-9.6407767"><ele>18.0</ele><time>2026-05-05T15:58:53.192Z</time></trkpt><trkpt lat="51.53984" lon="-9.6406467"><ele>18.0</ele><time>2026-05-05T15:58:54.192Z</time></trkpt><trkpt lat="51.53994" lon="-9.6405083"><ele>18.0</ele><time>2026-05-05T15:58:55.193Z</time></trkpt><trkpt lat="51.54004" lon="-9.640365"><ele>18.0</ele><time>2026-05-05T15:58:56.193Z</time></trkpt><trkpt lat="51.54014" lon="-9.640235"><ele>18.0</ele><time>2026-05-05T15:58:57.193Z</time></trkpt><trkpt lat="51.5402433" lon="-9.6401017"><ele>18.0</ele><time>2026-05-05T15:58:58.193Z</time></trkpt><trkpt lat="51.5403533" lon="-9.63996"><ele>18.0</ele><time>2026-05-05T15:58:59.193Z</time></trkpt><trkpt lat="51.5404517" lon="-9.63982"><ele>18.0</ele><time>2026-05-05T15:59:00.193Z</time></trkpt><trkpt lat="51.5405483" lon="-9.6396767"><ele>18.0</ele><time>2026-05-05T15:59:01.193Z</time></trkpt><trkpt lat="51.5406617" lon="-9.6395333"><ele>17.333333333333332</ele><time>2026-05-05T15:59:02.192Z</time></trkpt><trkpt lat="51.5407983" lon="-9.63936"><ele>16.666666666666664</ele><time>2026-05-05T15:59:03.192Z</time></trkpt><trkpt lat="51.5409183" lon="-9.6392017"><ele>16.0</ele><time>2026-05-05T15:59:04.193Z</time></trkpt><trkpt lat="51.5410517" lon="-9.63905"><ele>16.0</ele><time>2026-05-05T15:59:05.193Z</time></trkpt><trkpt lat="51.5411883" lon="-9.638895"><ele>16.0</ele><time>2026-05-05T15:59:06.193Z</time></trkpt><trkpt lat="51.5413117" lon="-9.638735"><ele>16.0</ele><time>2026-05-05T15:59:07.192Z</time></trkpt><trkpt lat="51.541445" lon="-9.6385533"><ele>16.333333333333332</ele><time>2026-05-05T15:59:08.192Z</time></trkpt><trkpt lat="51.5415783" lon="-9.63839"><ele>16.666666666666668</ele><time>2026-05-05T15:59:09.192Z</time></trkpt><trkpt lat="51.5417283" lon="-9.63822"><ele>17.0</ele><time>2026-05-05T15:59:10.193Z</time></trkpt><trkpt lat="51.5418733" lon="-9.63805"><ele>17.0</ele><time>2026-05-05T15:59:11.193Z</time></trkpt><trkpt lat="51.542025" lon="-9.6378667"><ele>17.0</ele><time>2026-05-05T15:59:12.193Z</time></trkpt><trkpt lat="51.54218" lon="-9.637655"><ele>17.0</ele><time>2026-05-05T15:59:13.192Z</time></trkpt><trkpt lat="51.5423333" lon="-9.6374567"><ele>16.666666666666668</ele><time>2026-05-05T15:59:14.193Z</time></trkpt><trkpt lat="51.5424967" lon="-9.63726"><ele>16.333333333333332</ele><time>2026-05-05T15:59:15.193Z</time></trkpt><trkpt lat="51.5426567" lon="-9.6370583"><ele>16.0</ele><time>2026-05-05T15:59:16.193Z</time></trkpt><trkpt lat="51.54282" lon="-9.63686"><ele>15.333333333333332</ele><time>2026-05-05T15:59:17.193Z</time></trkpt><trkpt lat="51.542975" lon="-9.63667"><ele>14.666666666666668</ele><time>2026-05-05T15:59:18.193Z</time></trkpt><trkpt lat="51.5431267" lon="-9.6364917"><ele>14.0</ele><time>2026-05-05T15:59:19.193Z</time></trkpt><trkpt lat="51.5432767" lon="-9.6363233"><ele>14.0</ele><time>2026-05-05T15:59:20.193Z</time></trkpt><trkpt lat="51.5434517" lon="-9.6361633"><ele>14.0</ele><time>2026-05-05T15:59:21.193Z</time></trkpt><trkpt lat="51.5436267" lon="-9.636"><ele>14.0</ele><time>2026-05-05T15:59:22.192Z</time></trkpt><trkpt lat="51.543815" lon="-9.6358367"><ele>14.0</ele><time>2026-05-05T15:59:23.192Z</time></trkpt><trkpt lat="51.5440033" lon="-9.6356883"><ele>14.0</ele><time>2026-05-05T15:59:24.192Z</time></trkpt><trkpt lat="51.5441933" lon="-9.6355383"><ele>14.0</ele><time>2026-05-05T15:59:25.193Z</time></trkpt><trkpt lat="51.5443767" lon="-9.6353783"><ele>15.0</ele><time>2026-05-05T15:59:26.193Z</time></trkpt><trkpt lat="51.5445583" lon="-9.63522"><ele>16.0</ele><time>2026-05-05T15:59:27.193Z</time></trkpt><trkpt lat="51.5447417" lon="-9.6350683"><ele>17.0</ele><time>2026-05-05T15:59:28.193Z</time></trkpt><trkpt lat="51.5449333" lon="-9.634925"><ele>17.0</ele><time>2026-05-05T15:59:29.193Z</time></trkpt><trkpt lat="51.54512" lon="-9.6347933"><ele>17.0</ele><time>2026-05-05T15:59:30.193Z</time></trkpt><trkpt lat="51.5453033" lon="-9.6346483"><ele>17.0</ele><time>2026-05-05T15:59:31.192Z</time></trkpt><trkpt lat="51.5454783" lon="-9.634505"><ele>17.333333333333336</ele><time>2026-05-05T15:59:32.193Z</time></trkpt><trkpt lat="51.54565" lon="-9.6343683"><ele>17.666666666666668</ele><time>2026-05-05T15:59:33.192Z</time></trkpt><trkpt lat="51.545815" lon="-9.6342267"><ele>18.0</ele><time>2026-05-05T15:59:34.193Z</time></trkpt><trkpt lat="51.545985" lon="-9.6340883"><ele>18.0</ele><time>2026-05-05T15:59:35.193Z</time></trkpt><trkpt lat="51.5461567" lon="-9.6339433"><ele>18.0</ele><time>2026-05-05T15:59:36.192Z</time></trkpt><trkpt lat="51.54634" lon="-9.6337967"><ele>18.0</ele><time>2026-05-05T15:59:37.192Z</time></trkpt><trkpt lat="51.5465083" lon="-9.6336433"><ele>19.333333333333332</ele><time>2026-05-05T15:59:38.193Z</time></trkpt><trkpt lat="51.546665" lon="-9.633485"><ele>20.666666666666664</ele><time>2026-05-05T15:59:39.192Z</time></trkpt><trkpt lat="51.54681" lon="-9.6333367"><ele>22.0</ele><time>2026-05-05T15:59:40.193Z</time></trkpt><trkpt lat="51.546915" lon="-9.633155"><ele>23.333333333333332</ele><time>2026-05-05T15:59:41.193Z</time></trkpt><trkpt lat="51.54707" lon="-9.6329883"><ele>24.666666666666664</ele><time>2026-05-05T15:59:42.192Z</time></trkpt><trkpt lat="51.5472417" lon="-9.6328683"><ele>26.0</ele><time>2026-05-05T15:59:43.193Z</time></trkpt><trkpt lat="51.5474067" lon="-9.6327483"><ele>26.0</ele><time>2026-05-05T15:59:44.193Z</time></trkpt><trkpt lat="51.5475867" lon="-9.632635"><ele>26.0</ele><time>2026-05-05T15:59:45.193Z</time></trkpt><trkpt lat="51.5477617" lon="-9.6325183"><ele>26.0</ele><time>2026-05-05T15:59:46.192Z</time></trkpt><trkpt lat="51.547935" lon="-9.6323917"><ele>27.666666666666664</ele><time>2026-05-05T15:59:47.192Z</time></trkpt><trkpt lat="51.5481" lon="-9.6322733"><ele>29.333333333333336</ele><time>2026-05-05T15:59:48.192Z</time></trkpt><trkpt lat="51.548255" lon="-9.6321683"><ele>31.0</ele><time>2026-05-05T15:59:49.192Z</time></trkpt><trkpt lat="51.5483917" lon="-9.6320633"><ele>31.0</ele><time>2026-05-05T15:59:50.192Z</time></trkpt><trkpt lat="51.548515" lon="-9.6319667"><ele>31.0</ele><time>2026-05-05T15:59:51.193Z</time></trkpt><trkpt lat="51.5485917" lon="-9.6317817"><ele>31.0</ele><time>2026-05-05T15:59:52.193Z</time></trkpt><trkpt lat="51.548705" lon="-9.6316233"><ele>31.0</ele><time>2026-05-05T15:59:53.193Z</time></trkpt><trkpt lat="51.5487917" lon="-9.6314283"><ele>31.0</ele><time>2026-05-05T15:59:54.192Z</time></trkpt><trkpt lat="51.5488967" lon="-9.63127"><ele>31.0</ele><time>2026-05-05T15:59:55.193Z</time></trkpt><trkpt lat="51.5490083" lon="-9.63113"><ele>31.0</ele><time>2026-05-05T15:59:56.193Z</time></trkpt><trkpt lat="51.5491283" lon="-9.6310583"><ele>31.0</ele><time>2026-05-05T15:59:57.192Z</time></trkpt><trkpt lat="51.549235" lon="-9.6310083"><ele>31.0</ele><time>2026-05-05T15:59:58.193Z</time></trkpt><trkpt lat="51.549335" lon="-9.631035"><ele>31.0</ele><time>2026-05-05T15:59:59.193Z</time></trkpt><trkpt lat="51.5494467" lon="-9.63115"><ele>31.0</ele><time>2026-05-05T16:00:00.193Z</time></trkpt><trkpt lat="51.5495517" lon="-9.6313367"><ele>31.0</ele><time>2026-05-05T16:00:01.193Z</time></trkpt><trkpt lat="51.5496633" lon="-9.6314917"><ele>32.0</ele><time>2026-05-05T16:00:02.193Z</time></trkpt><trkpt lat="51.5497583" lon="-9.63162"><ele>33.0</ele><time>2026-05-05T16:00:03.193Z</time></trkpt><trkpt lat="51.549875" lon="-9.6316767"><ele>34.0</ele><time>2026-05-05T16:00:04.193Z</time></trkpt><trkpt lat="51.5500133" lon="-9.6317017"><ele>35.0</ele><time>2026-05-05T16:00:05.193Z</time></trkpt><trkpt lat="51.5501917" lon="-9.63169"><ele>35.0</ele><time>2026-05-05T16:00:06.193Z</time></trkpt><trkpt lat="51.5503317" lon="-9.6316583"><ele>35.0</ele><time>2026-05-05T16:00:07.192Z</time></trkpt><trkpt lat="51.55047" lon="-9.6315333"><ele>35.0</ele><time>2026-05-05T16:00:08.193Z</time></trkpt><trkpt lat="51.550585" lon="-9.6313767"><ele>36.666666666666664</ele><time>2026-05-05T16:00:09.193Z</time></trkpt><trkpt lat="51.5507033" lon="-9.6312067"><ele>38.333333333333336</ele><time>2026-05-05T16:00:10.193Z</time></trkpt><trkpt lat="51.5508367" lon="-9.6310417"><ele>40.0</ele><time>2026-05-05T16:00:11.192Z</time></trkpt><trkpt lat="51.5510217" lon="-9.6308683"><ele>40.333333333333336</ele><time>2026-05-05T16:00:12.193Z</time></trkpt><trkpt lat="51.551185" lon="-9.6307417"><ele>40.666666666666664</ele><time>2026-05-05T16:00:13.193Z</time></trkpt><trkpt lat="51.55131" lon="-9.630645"><ele>41.0</ele><time>2026-05-05T16:00:14.193Z</time></trkpt><trkpt lat="51.55142" lon="-9.6305333"><ele>42.0</ele><time>2026-05-05T16:00:15.193Z</time></trkpt><trkpt lat="51.5515167" lon="-9.6303917"><ele>43.0</ele><time>2026-05-05T16:00:16.193Z</time></trkpt><trkpt lat="51.5516067" lon="-9.6302083"><ele>44.0</ele><time>2026-05-05T16:00:17.193Z</time></trkpt><trkpt lat="51.5517" lon="-9.6299483"><ele>44.0</ele><time>2026-05-05T16:00:18.193Z</time></trkpt><trkpt lat="51.5517833" lon="-9.629675"><ele>44.0</ele><time>2026-05-05T16:00:19.192Z</time></trkpt><trkpt lat="51.5518533" lon="-9.62942"><ele>44.0</ele><time>2026-05-05T16:00:20.192Z</time></trkpt><trkpt lat="51.5519317" lon="-9.629145"><ele>45.0</ele><time>2026-05-05T16:00:21.192Z</time></trkpt><trkpt lat="51.5519767" lon="-9.6288733"><ele>46.0</ele><time>2026-05-05T16:00:22.192Z</time></trkpt><trkpt lat="51.5520117" lon="-9.628605"><ele>47.0</ele><time>2026-05-05T16:00:23.192Z</time></trkpt><trkpt lat="51.5520383" lon="-9.6283333"><ele>47.33333333333333</ele><time>2026-05-05T16:00:24.193Z</time></trkpt><trkpt lat="51.5520767" lon="-9.6280717"><ele>47.666666666666664</ele><time>2026-05-05T16:00:25.193Z</time></trkpt><trkpt lat="51.5521417" lon="-9.6278017"><ele>48.0</ele><time>2026-05-05T16:00:26.193Z</time></trkpt><trkpt lat="51.5522167" lon="-9.6275217"><ele>48.33333333333333</ele><time>2026-05-05T16:00:27.193Z</time></trkpt><trkpt lat="51.552275" lon="-9.6272533"><ele>48.666666666666664</ele><time>2026-05-05T16:00:28.193Z</time></trkpt><trkpt lat="51.55236" lon="-9.6269833"><ele>49.0</ele><time>2026-05-05T16:00:29.192Z</time></trkpt><trkpt lat="51.5524533" lon="-9.6267267"><ele>49.33333333333333</ele><time>2026-05-05T16:00:30.193Z</time></trkpt><trkpt lat="51.5525267" lon="-9.6264733"><ele>49.66666666666667</ele><time>2026-05-05T16:00:31.193Z</time></trkpt><trkpt lat="51.5526217" lon="-9.6262433"><ele>50.0</ele><time>2026-05-05T16:00:32.193Z</time></trkpt><trkpt lat="51.5527317" lon="-9.6259917"><ele>50.333333333333336</ele><time>2026-05-05T16:00:33.193Z</time></trkpt><trkpt lat="51.5528133" lon="-9.6257533"><ele>50.66666666666667</ele><time>2026-05-05T16:00:34.193Z</time></trkpt><trkpt lat="51.5528717" lon="-9.625515"><ele>51.0</ele><time>2026-05-05T16:00:35.192Z</time></trkpt><trkpt lat="51.5529333" lon="-9.6252633"><ele>51.0</ele><time>2026-05-05T16:00:36.192Z</time></trkpt><trkpt lat="51.5529833" lon="-9.6250067"><ele>51.0</ele><time>2026-05-05T16:00:37.192Z</time></trkpt><trkpt lat="51.5530417" lon="-9.6247717"><ele>51.0</ele><time>2026-05-05T16:00:38.193Z</time></trkpt><trkpt lat="51.553105" lon="-9.62457"><ele>53.0</ele><time>2026-05-05T16:00:39.193Z</time></trkpt><trkpt lat="51.5531883" lon="-9.624375"><ele>55.0</ele><time>2026-05-05T16:00:40.193Z</time></trkpt><trkpt lat="51.5533017" lon="-9.6241833"><ele>57.0</ele><time>2026-05-05T16:00:41.193Z</time></trkpt><trkpt lat="51.5534133" lon="-9.62396"><ele>57.0</ele><time>2026-05-05T16:00:42.193Z</time></trkpt><trkpt lat="51.5535167" lon="-9.62374"><ele>57.0</ele><time>2026-05-05T16:00:43.193Z</time></trkpt><trkpt lat="51.55361" lon="-9.623525"><ele>57.0</ele><time>2026-05-05T16:00:44.193Z</time></trkpt><trkpt lat="51.5536983" lon="-9.6233167"><ele>56.66666666666667</ele><time>2026-05-05T16:00:45.192Z</time></trkpt><trkpt lat="51.5537833" lon="-9.6231117"><ele>56.333333333333336</ele><time>2026-05-05T16:00:46.193Z</time></trkpt><trkpt lat="51.553875" lon="-9.6229067"><ele>56.0</ele><time>2026-05-05T16:00:47.193Z</time></trkpt><trkpt lat="51.5539867" lon="-9.6226917"><ele>57.0</ele><time>2026-05-05T16:00:48.192Z</time></trkpt><trkpt lat="51.5540933" lon="-9.6225033"><ele>58.0</ele><time>2026-05-05T16:00:49.193Z</time></trkpt><trkpt lat="51.554215" lon="-9.622325"><ele>59.0</ele><time>2026-05-05T16:00:50.192Z</time></trkpt><trkpt lat="51.55435" lon="-9.6221567"><ele>59.0</ele><time>2026-05-05T16:00:51.193Z</time></trkpt><trkpt lat="51.5544933" lon="-9.6219867"><ele>59.0</ele><time>2026-05-05T16:00:52.193Z</time></trkpt><trkpt lat="51.5546433" lon="-9.6218183"><ele>59.0</ele><time>2026-05-05T16:00:53.192Z</time></trkpt><trkpt lat="51.554805" lon="-9.6216367"><ele>59.0</ele><time>2026-05-05T16:00:54.193Z</time></trkpt><trkpt lat="51.55496" lon="-9.621455"><ele>59.0</ele><time>2026-05-05T16:00:55.192Z</time></trkpt><trkpt lat="51.5551133" lon="-9.621275"><ele>59.0</ele><time>2026-05-05T16:00:56.193Z</time></trkpt><trkpt lat="51.555275" lon="-9.621105"><ele>59.66666666666667</ele><time>2026-05-05T16:00:57.193Z</time></trkpt><trkpt lat="51.5554383" lon="-9.6209333"><ele>60.33333333333333</ele><time>2026-05-05T16:00:58.193Z</time></trkpt><trkpt lat="51.555605" lon="-9.6207533"><ele>61.0</ele><time>2026-05-05T16:00:59.193Z</time></trkpt><trkpt lat="51.5557733" lon="-9.6205717"><ele>61.0</ele><time>2026-05-05T16:01:00.192Z</time></trkpt><trkpt lat="51.55594" lon="-9.6203867"><ele>61.0</ele><time>2026-05-05T16:01:01.193Z</time></trkpt><trkpt lat="51.5560933" lon="-9.6202183"><ele>61.0</ele><time>2026-05-05T16:01:02.193Z</time></trkpt><trkpt lat="51.5562367" lon="-9.62006"><ele>62.33333333333333</ele><time>2026-05-05T16:01:03.192Z</time></trkpt><trkpt lat="51.556375" lon="-9.6199167"><ele>63.66666666666667</ele><time>2026-05-05T16:01:04.193Z</time></trkpt><trkpt lat="51.5565183" lon="-9.61978"><ele>65.0</ele><time>2026-05-05T16:01:05.193Z</time></trkpt><trkpt lat="51.556665" lon="-9.6196533"><ele>65.0</ele><time>2026-05-05T16:01:06.192Z</time></trkpt><trkpt lat="51.556825" lon="-9.6195517"><ele>65.0</ele><time>2026-05-05T16:01:07.192Z</time></trkpt><trkpt lat="51.556995" lon="-9.6194733"><ele>65.0</ele><time>2026-05-05T16:01:08.193Z</time></trkpt><trkpt lat="51.5571833" lon="-9.6194167"><ele>66.66666666666667</ele><time>2026-05-05T16:01:09.192Z</time></trkpt><trkpt lat="51.5573683" lon="-9.6193767"><ele>68.33333333333333</ele><time>2026-05-05T16:01:10.193Z</time></trkpt><trkpt lat="51.5575367" lon="-9.6193483"><ele>70.0</ele><time>2026-05-05T16:01:11.193Z</time></trkpt><trkpt lat="51.5577167" lon="-9.619315"><ele>70.0</ele><time>2026-05-05T16:01:12.192Z</time></trkpt><trkpt lat="51.557895" lon="-9.6192817"><ele>70.0</ele><time>2026-05-05T16:01:13.193Z</time></trkpt><trkpt lat="51.5580783" lon="-9.6192217"><ele>70.0</ele><time>2026-05-05T16:01:14.193Z</time></trkpt><trkpt lat="51.5582667" lon="-9.6191483"><ele>70.0</ele><time>2026-05-05T16:01:15.192Z</time></trkpt><trkpt lat="51.5584583" lon="-9.6190617"><ele>70.0</ele><time>2026-05-05T16:01:16.193Z</time></trkpt><trkpt lat="51.55865" lon="-9.6189733"><ele>70.0</ele><time>2026-05-05T16:01:17.192Z</time></trkpt><trkpt lat="51.5588433" lon="-9.618885"><ele>70.33333333333333</ele><time>2026-05-05T16:01:18.192Z</time></trkpt><trkpt lat="51.5590317" lon="-9.6187817"><ele>70.66666666666667</ele><time>2026-05-05T16:01:19.193Z</time></trkpt><trkpt lat="51.5592183" lon="-9.6186933"><ele>71.0</ele><time>2026-05-05T16:01:20.193Z</time></trkpt><trkpt lat="51.559405" lon="-9.6186133"><ele>71.66666666666667</ele><time>2026-05-05T16:01:21.192Z</time></trkpt><trkpt lat="51.5595933" lon="-9.61853"><ele>72.33333333333333</ele><time>2026-05-05T16:01:22.192Z</time></trkpt><trkpt lat="51.5597767" lon="-9.618455"><ele>73.0</ele><time>2026-05-05T16:01:23.193Z</time></trkpt><trkpt lat="51.559955" lon="-9.6184"><ele>73.0</ele><time>2026-05-05T16:01:24.193Z</time></trkpt><trkpt lat="51.5601317" lon="-9.6183617"><ele>73.0</ele><time>2026-05-05T16:01:25.192Z</time></trkpt><trkpt lat="51.5603017" lon="-9.6183333"><ele>73.0</ele><time>2026-05-05T16:01:26.193Z</time></trkpt><trkpt lat="51.5604667" lon="-9.61831"><ele>74.0</ele><time>2026-05-05T16:01:27.192Z</time></trkpt><trkpt lat="51.5606367" lon="-9.6182883"><ele>75.0</ele><time>2026-05-05T16:01:28.193Z</time></trkpt><trkpt lat="51.5608117" lon="-9.6182617"><ele>76.0</ele><time>2026-05-05T16:01:29.193Z</time></trkpt><trkpt lat="51.5609867" lon="-9.6182383"><ele>76.0</ele><time>2026-05-05T16:01:30.192Z</time></trkpt><trkpt lat="51.561155" lon="-9.618215"><ele>76.0</ele><time>2026-05-05T16:01:31.193Z</time></trkpt><trkpt lat="51.5613317" lon="-9.61821"><ele>76.0</ele><time>2026-05-05T16:01:32.193Z</time></trkpt><trkpt lat="51.5615133" lon="-9.6182183"><ele>76.33333333333333</ele><time>2026-05-05T16:01:33.193Z</time></trkpt><trkpt lat="51.561725" lon="-9.61824"><ele>76.66666666666667</ele><time>2026-05-05T16:01:34.193Z</time></trkpt><trkpt lat="51.5619233" lon="-9.618275"><ele>77.0</ele><time>2026-05-05T16:01:35.192Z</time></trkpt><trkpt lat="51.56213" lon="-9.6183217"><ele>78.0</ele><time>2026-05-05T16:01:36.192Z</time></trkpt><trkpt lat="51.5623267" lon="-9.6183833"><ele>79.0</ele><time>2026-05-05T16:01:37.192Z</time></trkpt><trkpt lat="51.5625233" lon="-9.6184433"><ele>80.0</ele><time>2026-05-05T16:01:38.192Z</time></trkpt><trkpt lat="51.5627067" lon="-9.6184933"><ele>79.66666666666667</ele><time>2026-05-05T16:01:39.193Z</time></trkpt><trkpt lat="51.5628733" lon="-9.618535"><ele>79.33333333333333</ele><time>2026-05-05T16:01:40.193Z</time></trkpt><trkpt lat="51.5630233" lon="-9.6185667"><ele>79.0</ele><time>2026-05-05T16:01:41.193Z</time></trkpt><trkpt lat="51.5631617" lon="-9.6185883"><ele>79.0</ele><time>2026-05-05T16:01:42.193Z</time></trkpt><trkpt lat="51.5633117" lon="-9.618565"><ele>79.0</ele><time>2026-05-05T16:01:43.193Z</time></trkpt><trkpt lat="51.56347" lon="-9.6185117"><ele>79.0</ele><time>2026-05-05T16:01:44.193Z</time></trkpt><trkpt lat="51.5636433" lon="-9.61842"><ele>78.33333333333333</ele><time>2026-05-05T16:01:45.193Z</time></trkpt><trkpt lat="51.563815" lon="-9.6182767"><ele>77.66666666666667</ele><time>2026-05-05T16:01:46.192Z</time></trkpt><trkpt lat="51.56399" lon="-9.618125"><ele>77.0</ele><time>2026-05-05T16:01:47.193Z</time></trkpt><trkpt lat="51.5641583" lon="-9.6179617"><ele>77.0</ele><time>2026-05-05T16:01:48.192Z</time></trkpt><trkpt lat="51.5643217" lon="-9.6178267"><ele>77.0</ele><time>2026-05-05T16:01:49.193Z</time></trkpt><trkpt lat="51.5644817" lon="-9.617705"><ele>77.0</ele><time>2026-05-05T16:01:50.192Z</time></trkpt><trkpt lat="51.5646433" lon="-9.6176033"><ele>77.0</ele><time>2026-05-05T16:01:51.193Z</time></trkpt><trkpt lat="51.5648133" lon="-9.6175383"><ele>77.0</ele><time>2026-05-05T16:01:52.192Z</time></trkpt><trkpt lat="51.5649967" lon="-9.6174917"><ele>77.0</ele><time>2026-05-05T16:01:53.192Z</time></trkpt><trkpt lat="51.56518" lon="-9.61744"><ele>77.0</ele><time>2026-05-05T16:01:54.193Z</time></trkpt><trkpt lat="51.5653617" lon="-9.6173817"><ele>77.0</ele><time>2026-05-05T16:01:55.192Z</time></trkpt><trkpt lat="51.5655483" lon="-9.6173217"><ele>77.0</ele><time>2026-05-05T16:01:56.193Z</time></trkpt><trkpt lat="51.56575" lon="-9.6172883"><ele>76.33333333333334</ele><time>2026-05-05T16:01:57.192Z</time></trkpt><trkpt lat="51.5659483" lon="-9.6172617"><ele>75.66666666666667</ele><time>2026-05-05T16:01:58.193Z</time></trkpt><trkpt lat="51.56613" lon="-9.6172367"><ele>75.0</ele><time>2026-05-05T16:01:59.192Z</time></trkpt><trkpt lat="51.566305" lon="-9.6172367"><ele>75.0</ele><time>2026-05-05T16:02:00.192Z</time></trkpt><trkpt lat="51.56648" lon="-9.61727"><ele>75.0</ele><time>2026-05-05T16:02:01.192Z</time></trkpt><trkpt lat="51.56666" lon="-9.61733"><ele>75.0</ele><time>2026-05-05T16:02:02.193Z</time></trkpt><trkpt lat="51.5668267" lon="-9.6174133"><ele>75.0</ele><time>2026-05-05T16:02:03.193Z</time></trkpt><trkpt lat="51.566975" lon="-9.617525"><ele>75.0</ele><time>2026-05-05T16:02:04.192Z</time></trkpt><trkpt lat="51.5671017" lon="-9.6176483"><ele>75.0</ele><time>2026-05-05T16:02:05.193Z</time></trkpt><trkpt lat="51.56721" lon="-9.617775"><ele>75.0</ele><time>2026-05-05T16:02:06.193Z</time></trkpt><trkpt lat="51.5672467" lon="-9.6179917"><ele>75.25</ele><time>2026-05-05T16:02:07.193Z</time></trkpt><trkpt lat="51.5672867" lon="-9.6181983"><ele>75.5</ele><time>2026-05-05T16:02:08.193Z</time></trkpt><trkpt lat="51.5672917" lon="-9.618455"><ele>75.75</ele><time>2026-05-05T16:02:09.193Z</time></trkpt><trkpt lat="51.567305" lon="-9.6187"><ele>76.0</ele><time>2026-05-05T16:02:10.192Z</time></trkpt><trkpt lat="51.5673183" lon="-9.6189533"><ele>75.25</ele><time>2026-05-05T16:02:11.192Z</time></trkpt><trkpt lat="51.5673583" lon="-9.6191733"><ele>74.5</ele><time>2026-05-05T16:02:12.193Z</time></trkpt><trkpt lat="51.5674033" lon="-9.61937"><ele>73.75</ele><time>2026-05-05T16:02:13.193Z</time></trkpt><trkpt lat="51.5674767" lon="-9.6195417"><ele>73.0</ele><time>2026-05-05T16:02:14.192Z</time></trkpt><trkpt lat="51.567585" lon="-9.6196483"><ele>73.0</ele><time>2026-05-05T16:02:15.193Z</time></trkpt><trkpt lat="51.5677167" lon="-9.61966"><ele>73.0</ele><time>2026-05-05T16:02:16.193Z</time></trkpt><trkpt lat="51.567845" lon="-9.619635"><ele>73.0</ele><time>2026-05-05T16:02:17.193Z</time></trkpt><trkpt lat="51.5679633" lon="-9.619545"><ele>73.0</ele><time>2026-05-05T16:02:18.193Z</time></trkpt><trkpt lat="51.5680717" lon="-9.6194033"><ele>72.66666666666666</ele><time>2026-05-05T16:02:19.192Z</time></trkpt><trkpt lat="51.56818" lon="-9.61927"><ele>72.33333333333333</ele><time>2026-05-05T16:02:20.193Z</time></trkpt><trkpt lat="51.568295" lon="-9.6190683"><ele>72.0</ele><time>2026-05-05T16:02:21.192Z</time></trkpt><trkpt lat="51.5684067" lon="-9.6188733"><ele>72.0</ele><time>2026-05-05T16:02:22.193Z</time></trkpt><trkpt lat="51.5685083" lon="-9.6186967"><ele>72.0</ele><time>2026-05-05T16:02:23.193Z</time></trkpt><trkpt lat="51.5685967" lon="-9.6185467"><ele>72.0</ele><time>2026-05-05T16:02:24.193Z</time></trkpt><trkpt lat="51.5686967" lon="-9.6183817"><ele>72.0</ele><time>2026-05-05T16:02:25.193Z</time></trkpt><trkpt lat="51.5688033" lon="-9.6182117"><ele>72.0</ele><time>2026-05-05T16:02:26.193Z</time></trkpt><trkpt lat="51.5689183" lon="-9.61805"><ele>72.0</ele><time>2026-05-05T16:02:27.193Z</time></trkpt><trkpt lat="51.5690367" lon="-9.6178967"><ele>72.0</ele><time>2026-05-05T16:02:28.193Z</time></trkpt><trkpt lat="51.5691617" lon="-9.6177367"><ele>72.0</ele><time>2026-05-05T16:02:29.193Z</time></trkpt><trkpt lat="51.569285" lon="-9.6175667"><ele>72.0</ele><time>2026-05-05T16:02:30.193Z</time></trkpt><trkpt lat="51.5694" lon="-9.6173817"><ele>72.0</ele><time>2026-05-05T16:02:31.193Z</time></trkpt><trkpt lat="51.569505" lon="-9.6171517"><ele>70.33333333333333</ele><time>2026-05-05T16:02:32.193Z</time></trkpt><trkpt lat="51.5695917" lon="-9.616915"><ele>68.66666666666666</ele><time>2026-05-05T16:02:33.192Z</time></trkpt><trkpt lat="51.5696717" lon="-9.6166533"><ele>67.0</ele><time>2026-05-05T16:02:34.193Z</time></trkpt><trkpt lat="51.5697633" lon="-9.6163783"><ele>67.66666666666666</ele><time>2026-05-05T16:02:35.192Z</time></trkpt><trkpt lat="51.5698483" lon="-9.616095"><ele>68.33333333333333</ele><time>2026-05-05T16:02:36.193Z</time></trkpt><trkpt lat="51.569925" lon="-9.615815"><ele>69.0</ele><time>2026-05-05T16:02:37.193Z</time></trkpt><trkpt lat="51.5699917" lon="-9.61555"><ele>69.33333333333333</ele><time>2026-05-05T16:02:38.193Z</time></trkpt><trkpt lat="51.570055" lon="-9.61529"><ele>69.66666666666666</ele><time>2026-05-05T16:02:39.192Z</time></trkpt><trkpt lat="51.5701233" lon="-9.615035"><ele>70.0</ele><time>2026-05-05T16:02:40.193Z</time></trkpt><trkpt lat="51.57021" lon="-9.6147883"><ele>70.0</ele><time>2026-05-05T16:02:41.193Z</time></trkpt><trkpt lat="51.570295" lon="-9.6145333"><ele>70.0</ele><time>2026-05-05T16:02:42.193Z</time></trkpt><trkpt lat="51.5703833" lon="-9.6142683"><ele>70.0</ele><time>2026-05-05T16:02:43.192Z</time></trkpt><trkpt lat="51.570455" lon="-9.6140183"><ele>67.33333333333333</ele><time>2026-05-05T16:02:44.192Z</time></trkpt><trkpt lat="51.57053" lon="-9.613765"><ele>64.66666666666667</ele><time>2026-05-05T16:02:45.193Z</time></trkpt><trkpt lat="51.5705967" lon="-9.6135217"><ele>62.0</ele><time>2026-05-05T16:02:46.192Z</time></trkpt><trkpt lat="51.5706633" lon="-9.61328"><ele>62.0</ele><time>2026-05-05T16:02:47.193Z</time></trkpt><trkpt lat="51.570755" lon="-9.6130133"><ele>62.0</ele><time>2026-05-05T16:02:48.192Z</time></trkpt><trkpt lat="51.5708367" lon="-9.612775"><ele>62.0</ele><time>2026-05-05T16:02:49.193Z</time></trkpt><trkpt lat="51.57093" lon="-9.61254"><ele>63.333333333333336</ele><time>2026-05-05T16:02:50.193Z</time></trkpt><trkpt lat="51.5710433" lon="-9.612315"><ele>64.66666666666667</ele><time>2026-05-05T16:02:51.193Z</time></trkpt><trkpt lat="51.5711483" lon="-9.61214"><ele>66.0</ele><time>2026-05-05T16:02:52.193Z</time></trkpt><trkpt lat="51.5712533" lon="-9.6119217"><ele>62.0</ele><time>2026-05-05T16:02:53.193Z</time></trkpt><trkpt lat="51.57136" lon="-9.61169"><ele>58.0</ele><time>2026-05-05T16:02:54.193Z</time></trkpt><trkpt lat="51.5714533" lon="-9.6114983"><ele>54.0</ele><time>2026-05-05T16:02:55.193Z</time></trkpt><trkpt lat="51.5715517" lon="-9.611255"><ele>56.33333333333333</ele><time>2026-05-05T16:02:56.193Z</time></trkpt><trkpt lat="51.5716433" lon="-9.611005"><ele>58.666666666666664</ele><time>2026-05-05T16:02:57.192Z</time></trkpt><trkpt lat="51.5717317" lon="-9.6107483"><ele>61.0</ele><time>2026-05-05T16:02:58.193Z</time></trkpt><trkpt lat="51.571825" lon="-9.6104867"><ele>63.0</ele><time>2026-05-05T16:02:59.193Z</time></trkpt><trkpt lat="51.571925" lon="-9.6102017"><ele>65.0</ele><time>2026-05-05T16:03:00.192Z</time></trkpt><trkpt lat="51.5720183" lon="-9.6099483"><ele>67.0</ele><time>2026-05-05T16:03:01.193Z</time></trkpt><trkpt lat="51.5721183" lon="-9.6096967"><ele>62.666666666666664</ele><time>2026-05-05T16:03:02.193Z</time></trkpt><trkpt lat="51.572235" lon="-9.6094133"><ele>58.33333333333333</ele><time>2026-05-05T16:03:03.193Z</time></trkpt><trkpt lat="51.5723517" lon="-9.609135"><ele>54.0</ele><time>2026-05-05T16:03:04.192Z</time></trkpt><trkpt lat="51.5724433" lon="-9.608835"><ele>55.66666666666667</ele><time>2026-05-05T16:03:05.193Z</time></trkpt><trkpt lat="51.5725467" lon="-9.6085417"><ele>57.333333333333336</ele><time>2026-05-05T16:03:06.193Z</time></trkpt><trkpt lat="51.5726283" lon="-9.608265"><ele>59.0</ele><time>2026-05-05T16:03:07.193Z</time></trkpt><trkpt lat="51.5727017" lon="-9.6079883"><ele>60.333333333333336</ele><time>2026-05-05T16:03:08.193Z</time></trkpt><trkpt lat="51.57278" lon="-9.6076883"><ele>61.66666666666667</ele><time>2026-05-05T16:03:09.192Z</time></trkpt><trkpt lat="51.572855" lon="-9.6073817"><ele>63.0</ele><time>2026-05-05T16:03:10.192Z</time></trkpt><trkpt lat="51.572925" lon="-9.6071"><ele>59.33333333333333</ele><time>2026-05-05T16:03:11.193Z</time></trkpt><trkpt lat="51.5729917" lon="-9.6068033"><ele>55.666666666666664</ele><time>2026-05-05T16:03:12.192Z</time></trkpt><trkpt lat="51.5730667" lon="-9.606495"><ele>52.0</ele><time>2026-05-05T16:03:13.192Z</time></trkpt><trkpt lat="51.5731417" lon="-9.606235"><ele>54.33333333333333</ele><time>2026-05-05T16:03:14.193Z</time></trkpt><trkpt lat="51.5732233" lon="-9.6059967"><ele>56.66666666666667</ele><time>2026-05-05T16:03:15.192Z</time></trkpt><trkpt lat="51.5733133" lon="-9.6057833"><ele>59.0</ele><time>2026-05-05T16:03:16.193Z</time></trkpt><trkpt lat="51.5733933" lon="-9.605635"><ele>59.0</ele><time>2026-05-05T16:03:17.193Z</time></trkpt><trkpt lat="51.5734983" lon="-9.6054533"><ele>59.0</ele><time>2026-05-05T16:03:18.192Z</time></trkpt><trkpt lat="51.5736183" lon="-9.6052767"><ele>59.0</ele><time>2026-05-05T16:03:19.193Z</time></trkpt><trkpt lat="51.5737517" lon="-9.6051017"><ele>56.66666666666667</ele><time>2026-05-05T16:03:20.193Z</time></trkpt><trkpt lat="51.5738867" lon="-9.604935"><ele>54.33333333333333</ele><time>2026-05-05T16:03:21.192Z</time></trkpt><trkpt lat="51.5740217" lon="-9.604745"><ele>52.0</ele><time>2026-05-05T16:03:22.192Z</time></trkpt><trkpt lat="51.574145" lon="-9.6045367"><ele>52.0</ele><time>2026-05-05T16:03:23.193Z</time></trkpt><trkpt lat="51.5742667" lon="-9.6043283"><ele>52.0</ele><time>2026-05-05T16:03:24.193Z</time></trkpt><trkpt lat="51.5743867" lon="-9.6041233"><ele>52.0</ele><time>2026-05-05T16:03:25.193Z</time></trkpt><trkpt lat="51.57454" lon="-9.6038983"><ele>52.0</ele><time>2026-05-05T16:03:26.193Z</time></trkpt><trkpt lat="51.57468" lon="-9.6037067"><ele>52.0</ele><time>2026-05-05T16:03:27.192Z</time></trkpt><trkpt lat="51.5748283" lon="-9.60352"><ele>52.0</ele><time>2026-05-05T16:03:28.192Z</time></trkpt><trkpt lat="51.57498" lon="-9.6033233"><ele>52.666666666666664</ele><time>2026-05-05T16:03:29.193Z</time></trkpt><trkpt lat="51.5751333" lon="-9.6031317"><ele>53.33333333333333</ele><time>2026-05-05T16:03:30.193Z</time></trkpt><trkpt lat="51.5752817" lon="-9.602955"><ele>54.0</ele><time>2026-05-05T16:03:31.193Z</time></trkpt><trkpt lat="51.575435" lon="-9.6027733"><ele>54.0</ele><time>2026-05-05T16:03:32.193Z</time></trkpt><trkpt lat="51.5755783" lon="-9.6026033"><ele>54.0</ele><time>2026-05-05T16:03:33.193Z</time></trkpt><trkpt lat="51.57571" lon="-9.6024317"><ele>54.0</ele><time>2026-05-05T16:03:34.193Z</time></trkpt><trkpt lat="51.5758333" lon="-9.6022717"><ele>54.0</ele><time>2026-05-05T16:03:35.192Z</time></trkpt><trkpt lat="51.5759417" lon="-9.6021067"><ele>54.0</ele><time>2026-05-05T16:03:36.193Z</time></trkpt><trkpt lat="51.5760433" lon="-9.6019283"><ele>54.0</ele><time>2026-05-05T16:03:37.193Z</time></trkpt><trkpt lat="51.576135" lon="-9.60168"><ele>54.0</ele><time>2026-05-05T16:03:38.192Z</time></trkpt><trkpt lat="51.576255" lon="-9.6014117"><ele>54.0</ele><time>2026-05-05T16:03:39.193Z</time></trkpt><trkpt lat="51.5763783" lon="-9.6011667"><ele>54.0</ele><time>2026-05-05T16:03:40.193Z</time></trkpt><trkpt lat="51.5765133" lon="-9.6009317"><ele>54.0</ele><time>2026-05-05T16:03:41.193Z</time></trkpt><trkpt lat="51.57664" lon="-9.6007083"><ele>54.0</ele><time>2026-05-05T16:03:42.193Z</time></trkpt><trkpt lat="51.5767783" lon="-9.6004933"><ele>54.0</ele><time>2026-05-05T16:03:43.193Z</time></trkpt><trkpt lat="51.5769283" lon="-9.6002917"><ele>52.66666666666667</ele><time>2026-05-05T16:03:44.192Z</time></trkpt><trkpt lat="51.57708" lon="-9.60009"><ele>51.333333333333336</ele><time>2026-05-05T16:03:45.193Z</time></trkpt><trkpt lat="51.5772283" lon="-9.5998783"><ele>50.0</ele><time>2026-05-05T16:03:46.193Z</time></trkpt><trkpt lat="51.5773767" lon="-9.5996733"><ele>51.333333333333336</ele><time>2026-05-05T16:03:47.193Z</time></trkpt><trkpt lat="51.577515" lon="-9.5994417"><ele>52.66666666666667</ele><time>2026-05-05T16:03:48.192Z</time></trkpt><trkpt lat="51.5776233" lon="-9.59924"><ele>54.0</ele><time>2026-05-05T16:03:49.193Z</time></trkpt><trkpt lat="51.5777567" lon="-9.5989833"><ele>52.0</ele><time>2026-05-05T16:03:50.192Z</time></trkpt><trkpt lat="51.5778717" lon="-9.59878"><ele>50.0</ele><time>2026-05-05T16:03:51.192Z</time></trkpt><trkpt lat="51.578" lon="-9.59855"><ele>48.0</ele><time>2026-05-05T16:03:52.193Z</time></trkpt><trkpt lat="51.5781317" lon="-9.5982933"><ele>48.0</ele><time>2026-05-05T16:03:53.193Z</time></trkpt><trkpt lat="51.5782383" lon="-9.598035"><ele>48.0</ele><time>2026-05-05T16:03:54.193Z</time></trkpt><trkpt lat="51.578325" lon="-9.5977633"><ele>48.0</ele><time>2026-05-05T16:03:55.193Z</time></trkpt><trkpt lat="51.5784017" lon="-9.59748"><ele>49.33333333333333</ele><time>2026-05-05T16:03:56.193Z</time></trkpt><trkpt lat="51.57847" lon="-9.597205"><ele>50.666666666666664</ele><time>2026-05-05T16:03:57.192Z</time></trkpt><trkpt lat="51.5785433" lon="-9.5969183"><ele>52.0</ele><time>2026-05-05T16:03:58.192Z</time></trkpt><trkpt lat="51.5786233" lon="-9.5966217"><ele>50.33333333333333</ele><time>2026-05-05T16:03:59.192Z</time></trkpt><trkpt lat="51.5786983" lon="-9.5963317"><ele>48.666666666666664</ele><time>2026-05-05T16:04:00.193Z</time></trkpt><trkpt lat="51.578795" lon="-9.596045"><ele>47.0</ele><time>2026-05-05T16:04:01.192Z</time></trkpt><trkpt lat="51.5788767" lon="-9.59575"><ele>47.0</ele><time>2026-05-05T16:04:02.193Z</time></trkpt><trkpt lat="51.5789667" lon="-9.5954783"><ele>47.0</ele><time>2026-05-05T16:04:03.193Z</time></trkpt><trkpt lat="51.57906" lon="-9.5951817"><ele>47.0</ele><time>2026-05-05T16:04:04.193Z</time></trkpt><trkpt lat="51.5791533" lon="-9.5948783"><ele>48.0</ele><time>2026-05-05T16:04:05.193Z</time></trkpt><trkpt lat="51.5792633" lon="-9.594575"><ele>49.0</ele><time>2026-05-05T16:04:06.193Z</time></trkpt><trkpt lat="51.5793583" lon="-9.5942817"><ele>50.0</ele><time>2026-05-05T16:04:07.193Z</time></trkpt><trkpt lat="51.5794483" lon="-9.5939917"><ele>48.0</ele><time>2026-05-05T16:04:08.192Z</time></trkpt><trkpt lat="51.579545" lon="-9.5937017"><ele>46.0</ele><time>2026-05-05T16:04:09.193Z</time></trkpt><trkpt lat="51.5796433" lon="-9.5934117"><ele>44.0</ele><time>2026-05-05T16:04:10.192Z</time></trkpt><trkpt lat="51.579735" lon="-9.59312"><ele>44.0</ele><time>2026-05-05T16:04:11.193Z</time></trkpt><trkpt lat="51.5798217" lon="-9.5928517"><ele>44.0</ele><time>2026-05-05T16:04:12.193Z</time></trkpt><trkpt lat="51.5799067" lon="-9.5925783"><ele>44.0</ele><time>2026-05-05T16:04:13.192Z</time></trkpt><trkpt lat="51.57999" lon="-9.5922933"><ele>44.33333333333333</ele><time>2026-05-05T16:04:14.193Z</time></trkpt><trkpt lat="51.5800767" lon="-9.5920233"><ele>44.666666666666664</ele><time>2026-05-05T16:04:15.193Z</time></trkpt><trkpt lat="51.58017" lon="-9.5917517"><ele>45.0</ele><time>2026-05-05T16:04:16.192Z</time></trkpt><trkpt lat="51.5802617" lon="-9.5914733"><ele>43.666666666666664</ele><time>2026-05-05T16:04:17.192Z</time></trkpt><trkpt lat="51.580355" lon="-9.59119"><ele>42.33333333333333</ele><time>2026-05-05T16:04:18.193Z</time></trkpt><trkpt lat="51.5804467" lon="-9.5909067"><ele>41.0</ele><time>2026-05-05T16:04:19.193Z</time></trkpt><trkpt lat="51.580525" lon="-9.590635"><ele>41.0</ele><time>2026-05-05T16:04:20.193Z</time></trkpt><trkpt lat="51.5806" lon="-9.5903633"><ele>41.0</ele><time>2026-05-05T16:04:21.192Z</time></trkpt><trkpt lat="51.5806533" lon="-9.5900967"><ele>41.0</ele><time>2026-05-05T16:04:22.193Z</time></trkpt><trkpt lat="51.5807333" lon="-9.5897983"><ele>41.33333333333333</ele><time>2026-05-05T16:04:23.192Z</time></trkpt><trkpt lat="51.5808183" lon="-9.5895167"><ele>41.666666666666664</ele><time>2026-05-05T16:04:24.192Z</time></trkpt><trkpt lat="51.5809067" lon="-9.5892383"><ele>42.0</ele><time>2026-05-05T16:04:25.192Z</time></trkpt><trkpt lat="51.5810233" lon="-9.5889717"><ele>42.0</ele><time>2026-05-05T16:04:26.193Z</time></trkpt><trkpt lat="51.5811417" lon="-9.5887033"><ele>42.0</ele><time>2026-05-05T16:04:27.192Z</time></trkpt><trkpt lat="51.5812667" lon="-9.5884483"><ele>42.0</ele><time>2026-05-05T16:04:28.193Z</time></trkpt><trkpt lat="51.58139" lon="-9.5882017"><ele>40.333333333333336</ele><time>2026-05-05T16:04:29.192Z</time></trkpt><trkpt lat="51.5815233" lon="-9.587965"><ele>38.66666666666667</ele><time>2026-05-05T16:04:30.192Z</time></trkpt><trkpt lat="51.58166" lon="-9.5877167"><ele>37.0</ele><time>2026-05-05T16:04:31.193Z</time></trkpt><trkpt lat="51.5817917" lon="-9.5874717"><ele>37.0</ele><time>2026-05-05T16:04:32.192Z</time></trkpt><trkpt lat="51.581945" lon="-9.58722"><ele>37.0</ele><time>2026-05-05T16:04:33.193Z</time></trkpt><trkpt lat="51.5820933" lon="-9.58697"><ele>37.0</ele><time>2026-05-05T16:04:34.192Z</time></trkpt><trkpt lat="51.58222" lon="-9.5867333"><ele>36.333333333333336</ele><time>2026-05-05T16:04:35.192Z</time></trkpt><trkpt lat="51.58235" lon="-9.5864767"><ele>35.666666666666664</ele><time>2026-05-05T16:04:36.192Z</time></trkpt><trkpt lat="51.582505" lon="-9.5862283"><ele>35.0</ele><time>2026-05-05T16:04:37.193Z</time></trkpt><trkpt lat="51.58265" lon="-9.585985"><ele>35.0</ele><time>2026-05-05T16:04:38.193Z</time></trkpt><trkpt lat="51.5827783" lon="-9.585755"><ele>35.0</ele><time>2026-05-05T16:04:39.192Z</time></trkpt><trkpt lat="51.5828933" lon="-9.585525"><ele>35.0</ele><time>2026-05-05T16:04:40.192Z</time></trkpt><trkpt lat="51.5830167" lon="-9.5852983"><ele>34.0</ele><time>2026-05-05T16:04:41.193Z</time></trkpt><trkpt lat="51.58315" lon="-9.585075"><ele>33.0</ele><time>2026-05-05T16:04:42.193Z</time></trkpt><trkpt lat="51.5832967" lon="-9.5848467"><ele>32.0</ele><time>2026-05-05T16:04:43.193Z</time></trkpt><trkpt lat="51.583445" lon="-9.58463"><ele>32.0</ele><time>2026-05-05T16:04:44.193Z</time></trkpt><trkpt lat="51.5835883" lon="-9.584395"><ele>32.0</ele><time>2026-05-05T16:04:45.193Z</time></trkpt><trkpt lat="51.5837333" lon="-9.5841667"><ele>32.0</ele><time>2026-05-05T16:04:46.192Z</time></trkpt><trkpt lat="51.583865" lon="-9.583965"><ele>32.0</ele><time>2026-05-05T16:04:47.193Z</time></trkpt><trkpt lat="51.5839867" lon="-9.5837767"><ele>32.0</ele><time>2026-05-05T16:04:48.192Z</time></trkpt><trkpt lat="51.584095" lon="-9.5835917"><ele>32.0</ele><time>2026-05-05T16:04:49.192Z</time></trkpt><trkpt lat="51.5842033" lon="-9.583385"><ele>31.333333333333332</ele><time>2026-05-05T16:04:50.193Z</time></trkpt><trkpt lat="51.5843083" lon="-9.5831367"><ele>30.666666666666664</ele><time>2026-05-05T16:04:51.193Z</time></trkpt><trkpt lat="51.5843917" lon="-9.5828883"><ele>30.0</ele><time>2026-05-05T16:04:52.192Z</time></trkpt><trkpt lat="51.5844733" lon="-9.58266"><ele>29.25</ele><time>2026-05-05T16:04:53.193Z</time></trkpt><trkpt lat="51.5845567" lon="-9.58245"><ele>28.5</ele><time>2026-05-05T16:04:54.192Z</time></trkpt><trkpt lat="51.5846483" lon="-9.58228"><ele>27.75</ele><time>2026-05-05T16:04:55.193Z</time></trkpt><trkpt lat="51.584755" lon="-9.5821517"><ele>27.0</ele><time>2026-05-05T16:04:56.192Z</time></trkpt><trkpt lat="51.5848767" lon="-9.5820417"><ele>27.0</ele><time>2026-05-05T16:04:57.192Z</time></trkpt><trkpt lat="51.5850133" lon="-9.5819933"><ele>27.0</ele><time>2026-05-05T16:04:58.193Z</time></trkpt><trkpt lat="51.5851483" lon="-9.58198"><ele>27.0</ele><time>2026-05-05T16:04:59.193Z</time></trkpt><trkpt lat="51.5853433" lon="-9.582015"><ele>25.333333333333332</ele><time>2026-05-05T16:05:00.192Z</time></trkpt><trkpt lat="51.585525" lon="-9.582045"><ele>23.666666666666664</ele><time>2026-05-05T16:05:01.192Z</time></trkpt><trkpt lat="51.5856917" lon="-9.582045"><ele>22.0</ele><time>2026-05-05T16:05:02.193Z</time></trkpt><trkpt lat="51.5858417" lon="-9.5819817"><ele>21.0</ele><time>2026-05-05T16:05:03.193Z</time></trkpt><trkpt lat="51.58598" lon="-9.58187"><ele>20.0</ele><time>2026-05-05T16:05:04.192Z</time></trkpt><trkpt lat="51.586115" lon="-9.5816917"><ele>19.0</ele><time>2026-05-05T16:05:05.193Z</time></trkpt><trkpt lat="51.58625" lon="-9.5814933"><ele>18.666666666666664</ele><time>2026-05-05T16:05:06.192Z</time></trkpt><trkpt lat="51.5863817" lon="-9.5813267"><ele>18.333333333333332</ele><time>2026-05-05T16:05:07.193Z</time></trkpt><trkpt lat="51.5865067" lon="-9.58119"><ele>18.0</ele><time>2026-05-05T16:05:08.193Z</time></trkpt><trkpt lat="51.5866283" lon="-9.581095"><ele>18.25</ele><time>2026-05-05T16:05:09.192Z</time></trkpt><trkpt lat="51.586755" lon="-9.58104"><ele>18.5</ele><time>2026-05-05T16:05:10.193Z</time></trkpt><trkpt lat="51.586875" lon="-9.5810333"><ele>18.75</ele><time>2026-05-05T16:05:11.192Z</time></trkpt><trkpt lat="51.58703" lon="-9.58103"><ele>19.0</ele><time>2026-05-05T16:05:12.193Z</time></trkpt><trkpt lat="51.5871983" lon="-9.58105"><ele>19.0</ele><time>2026-05-05T16:05:13.193Z</time></trkpt><trkpt lat="51.587375" lon="-9.5810783"><ele>19.0</ele><time>2026-05-05T16:05:14.192Z</time></trkpt><trkpt lat="51.587555" lon="-9.5811067"><ele>19.0</ele><time>2026-05-05T16:05:15.193Z</time></trkpt><trkpt lat="51.587745" lon="-9.5811283"><ele>18.0</ele><time>2026-05-05T16:05:16.193Z</time></trkpt><trkpt lat="51.5879383" lon="-9.5811433"><ele>17.0</ele><time>2026-05-05T16:05:17.193Z</time></trkpt><trkpt lat="51.5881417" lon="-9.5811517"><ele>16.0</ele><time>2026-05-05T16:05:18.193Z</time></trkpt><trkpt lat="51.5883483" lon="-9.5811567"><ele>16.0</ele><time>2026-05-05T16:05:19.192Z</time></trkpt><trkpt lat="51.5885433" lon="-9.5811517"><ele>16.0</ele><time>2026-05-05T16:05:20.193Z</time></trkpt><trkpt lat="51.58872" lon="-9.5811367"><ele>16.0</ele><time>2026-05-05T16:05:21.192Z</time></trkpt><trkpt lat="51.5888933" lon="-9.5811283"><ele>16.0</ele><time>2026-05-05T16:05:22.193Z</time></trkpt><trkpt lat="51.5890533" lon="-9.5811183"><ele>16.0</ele><time>2026-05-05T16:05:23.192Z</time></trkpt><trkpt lat="51.589205" lon="-9.5810867"><ele>16.0</ele><time>2026-05-05T16:05:24.193Z</time></trkpt><trkpt lat="51.5893317" lon="-9.5810533"><ele>16.0</ele><time>2026-05-05T16:05:25.193Z</time></trkpt><trkpt lat="51.5894583" lon="-9.5809767"><ele>15.666666666666666</ele><time>2026-05-05T16:05:26.192Z</time></trkpt><trkpt lat="51.58958" lon="-9.5808567"><ele>15.333333333333332</ele><time>2026-05-05T16:05:27.192Z</time></trkpt><trkpt lat="51.5897" lon="-9.5806967"><ele>15.0</ele><time>2026-05-05T16:05:28.193Z</time></trkpt><trkpt lat="51.5898117" lon="-9.5805233"><ele>15.0</ele><time>2026-05-05T16:05:29.193Z</time></trkpt><trkpt lat="51.5899217" lon="-9.5803617"><ele>15.0</ele><time>2026-05-05T16:05:30.192Z</time></trkpt><trkpt lat="51.5900367" lon="-9.580235"><ele>15.0</ele><time>2026-05-05T16:05:31.193Z</time></trkpt><trkpt lat="51.5901583" lon="-9.5801217"><ele>15.0</ele><time>2026-05-05T16:05:32.193Z</time></trkpt><trkpt lat="51.59029" lon="-9.5800567"><ele>15.666666666666668</ele><time>2026-05-05T16:05:33.193Z</time></trkpt><trkpt lat="51.5904433" lon="-9.58002"><ele>16.333333333333336</ele><time>2026-05-05T16:05:34.193Z</time></trkpt><trkpt lat="51.5906167" lon="-9.580015"><ele>17.0</ele><time>2026-05-05T16:05:35.193Z</time></trkpt><trkpt lat="51.590795" lon="-9.5800333"><ele>17.0</ele><time>2026-05-05T16:05:36.192Z</time></trkpt><trkpt lat="51.5909817" lon="-9.58006"><ele>17.0</ele><time>2026-05-05T16:05:37.192Z</time></trkpt><trkpt lat="51.59117" lon="-9.58009"><ele>17.0</ele><time>2026-05-05T16:05:38.193Z</time></trkpt><trkpt lat="51.5913667" lon="-9.5801283"><ele>17.0</ele><time>2026-05-05T16:05:39.193Z</time></trkpt><trkpt lat="51.5915683" lon="-9.5801617"><ele>17.0</ele><time>2026-05-05T16:05:40.192Z</time></trkpt><trkpt lat="51.59177" lon="-9.580195"><ele>17.0</ele><time>2026-05-05T16:05:41.193Z</time></trkpt><trkpt lat="51.59196" lon="-9.5802183"><ele>17.666666666666668</ele><time>2026-05-05T16:05:42.192Z</time></trkpt><trkpt lat="51.5921317" lon="-9.5802317"><ele>18.333333333333332</ele><time>2026-05-05T16:05:43.192Z</time></trkpt><trkpt lat="51.5922933" lon="-9.5802483"><ele>19.0</ele><time>2026-05-05T16:05:44.192Z</time></trkpt><trkpt lat="51.592445" lon="-9.58023"><ele>19.0</ele><time>2026-05-05T16:05:45.193Z</time></trkpt><trkpt lat="51.5926" lon="-9.5801783"><ele>19.0</ele><time>2026-05-05T16:05:46.192Z</time></trkpt><trkpt lat="51.5927583" lon="-9.5801033"><ele>19.0</ele><time>2026-05-05T16:05:47.192Z</time></trkpt><trkpt lat="51.5929167" lon="-9.58001"><ele>19.0</ele><time>2026-05-05T16:05:48.192Z</time></trkpt><trkpt lat="51.59307" lon="-9.57992"><ele>19.0</ele><time>2026-05-05T16:05:49.192Z</time></trkpt><trkpt lat="51.5932183" lon="-9.579815"><ele>19.0</ele><time>2026-05-05T16:05:50.193Z</time></trkpt><trkpt lat="51.593365" lon="-9.579675"><ele>20.0</ele><time>2026-05-05T16:05:51.193Z</time></trkpt><trkpt lat="51.5935133" lon="-9.57951"><ele>21.0</ele><time>2026-05-05T16:05:52.193Z</time></trkpt><trkpt lat="51.5936617" lon="-9.5793333"><ele>22.0</ele><time>2026-05-05T16:05:53.193Z</time></trkpt><trkpt lat="51.5938133" lon="-9.5791533"><ele>22.0</ele><time>2026-05-05T16:05:54.193Z</time></trkpt><trkpt lat="51.5939683" lon="-9.5789683"><ele>22.0</ele><time>2026-05-05T16:05:55.193Z</time></trkpt><trkpt lat="51.5941183" lon="-9.5787867"><ele>22.0</ele><time>2026-05-05T16:05:56.192Z</time></trkpt><trkpt lat="51.5942667" lon="-9.5785967"><ele>22.666666666666664</ele><time>2026-05-05T16:05:57.193Z</time></trkpt><trkpt lat="51.5944067" lon="-9.5783883"><ele>23.333333333333332</ele><time>2026-05-05T16:05:58.192Z</time></trkpt><trkpt lat="51.59453" lon="-9.57814"><ele>24.0</ele><time>2026-05-05T16:05:59.193Z</time></trkpt><trkpt lat="51.5946467" lon="-9.5778633"><ele>24.0</ele><time>2026-05-05T16:06:00.193Z</time></trkpt><trkpt lat="51.5947617" lon="-9.577575"><ele>24.0</ele><time>2026-05-05T16:06:01.192Z</time></trkpt><trkpt lat="51.594865" lon="-9.5772833"><ele>24.0</ele><time>2026-05-05T16:06:02.192Z</time></trkpt><trkpt lat="51.594965" lon="-9.5769883"><ele>24.0</ele><time>2026-05-05T16:06:03.193Z</time></trkpt><trkpt lat="51.59507" lon="-9.576695"><ele>24.0</ele><time>2026-05-05T16:06:04.192Z</time></trkpt><trkpt lat="51.59517" lon="-9.576405"><ele>24.0</ele><time>2026-05-05T16:06:05.193Z</time></trkpt><trkpt lat="51.5952767" lon="-9.5761267"><ele>24.666666666666664</ele><time>2026-05-05T16:06:06.192Z</time></trkpt><trkpt lat="51.5953767" lon="-9.5758433"><ele>25.333333333333332</ele><time>2026-05-05T16:06:07.192Z</time></trkpt><trkpt lat="51.59547" lon="-9.5755767"><ele>26.0</ele><time>2026-05-05T16:06:08.193Z</time></trkpt><trkpt lat="51.595565" lon="-9.5753"><ele>26.333333333333332</ele><time>2026-05-05T16:06:09.193Z</time></trkpt><trkpt lat="51.595665" lon="-9.5750167"><ele>26.666666666666664</ele><time>2026-05-05T16:06:10.192Z</time></trkpt><trkpt lat="51.5957683" lon="-9.574705"><ele>27.0</ele><time>2026-05-05T16:06:11.193Z</time></trkpt><trkpt lat="51.59587" lon="-9.5744167"><ele>27.333333333333336</ele><time>2026-05-05T16:06:12.193Z</time></trkpt><trkpt lat="51.5959717" lon="-9.574135"><ele>27.666666666666668</ele><time>2026-05-05T16:06:13.193Z</time></trkpt><trkpt lat="51.5960633" lon="-9.5738917"><ele>28.0</ele><time>2026-05-05T16:06:14.192Z</time></trkpt><trkpt lat="51.5961133" lon="-9.5736617"><ele>27.0</ele><time>2026-05-05T16:06:15.193Z</time></trkpt><trkpt lat="51.59619" lon="-9.5734083"><ele>26.0</ele><time>2026-05-05T16:06:16.193Z</time></trkpt><trkpt lat="51.5962817" lon="-9.5731533"><ele>25.0</ele><time>2026-05-05T16:06:17.193Z</time></trkpt><trkpt lat="51.5963533" lon="-9.5728883"><ele>25.666666666666668</ele><time>2026-05-05T16:06:18.192Z</time></trkpt><trkpt lat="51.5964367" lon="-9.5726083"><ele>26.333333333333336</ele><time>2026-05-05T16:06:19.192Z</time></trkpt><trkpt lat="51.5964417" lon="-9.57236"><ele>27.0</ele><time>2026-05-05T16:06:20.193Z</time></trkpt><trkpt lat="51.5965183" lon="-9.5720533"><ele>27.666666666666664</ele><time>2026-05-05T16:06:21.193Z</time></trkpt><trkpt lat="51.596605" lon="-9.5717517"><ele>28.333333333333332</ele><time>2026-05-05T16:06:22.193Z</time></trkpt><trkpt lat="51.5967017" lon="-9.5714533"><ele>29.0</ele><time>2026-05-05T16:06:23.193Z</time></trkpt><trkpt lat="51.5967967" lon="-9.57116"><ele>29.333333333333332</ele><time>2026-05-05T16:06:24.193Z</time></trkpt><trkpt lat="51.5968983" lon="-9.5708467"><ele>29.666666666666664</ele><time>2026-05-05T16:06:25.193Z</time></trkpt><trkpt lat="51.596965" lon="-9.5705967"><ele>30.0</ele><time>2026-05-05T16:06:26.192Z</time></trkpt><trkpt lat="51.5970533" lon="-9.570305"><ele>29.333333333333336</ele><time>2026-05-05T16:06:27.192Z</time></trkpt><trkpt lat="51.5971433" lon="-9.570015"><ele>28.666666666666668</ele><time>2026-05-05T16:06:28.192Z</time></trkpt><trkpt lat="51.5972333" lon="-9.5697233"><ele>28.0</ele><time>2026-05-05T16:06:29.193Z</time></trkpt><trkpt lat="51.59733" lon="-9.56943"><ele>28.0</ele><time>2026-05-05T16:06:30.192Z</time></trkpt><trkpt lat="51.5974183" lon="-9.5691533"><ele>28.0</ele><time>2026-05-05T16:06:31.192Z</time></trkpt><trkpt lat="51.5975333" lon="-9.5688717"><ele>28.0</ele><time>2026-05-05T16:06:32.193Z</time></trkpt><trkpt lat="51.5976467" lon="-9.5686083"><ele>28.666666666666668</ele><time>2026-05-05T16:06:33.193Z</time></trkpt><trkpt lat="51.5977567" lon="-9.5683217"><ele>29.333333333333336</ele><time>2026-05-05T16:06:34.193Z</time></trkpt><trkpt lat="51.597875" lon="-9.56805"><ele>30.0</ele><time>2026-05-05T16:06:35.193Z</time></trkpt><trkpt lat="51.5980017" lon="-9.5677533"><ele>26.333333333333332</ele><time>2026-05-05T16:06:36.193Z</time></trkpt><trkpt lat="51.5981167" lon="-9.5674383"><ele>22.666666666666664</ele><time>2026-05-05T16:06:37.192Z</time></trkpt><trkpt lat="51.5981667" lon="-9.5671833"><ele>19.0</ele><time>2026-05-05T16:06:38.193Z</time></trkpt><trkpt lat="51.59823" lon="-9.5668633"><ele>19.0</ele><time>2026-05-05T16:06:39.193Z</time></trkpt><trkpt lat="51.5982833" lon="-9.5665233"><ele>19.0</ele><time>2026-05-05T16:06:40.193Z</time></trkpt><trkpt lat="51.5983333" lon="-9.566165"><ele>19.0</ele><time>2026-05-05T16:06:41.193Z</time></trkpt><trkpt lat="51.598385" lon="-9.5658133"><ele>19.333333333333332</ele><time>2026-05-05T16:06:42.192Z</time></trkpt><trkpt lat="51.5984283" lon="-9.56546"><ele>19.666666666666668</ele><time>2026-05-05T16:06:43.193Z</time></trkpt><trkpt lat="51.5984533" lon="-9.5651283"><ele>20.0</ele><time>2026-05-05T16:06:44.193Z</time></trkpt><trkpt lat="51.5985017" lon="-9.5648"><ele>21.0</ele><time>2026-05-05T16:06:45.193Z</time></trkpt><trkpt lat="51.5985533" lon="-9.56447"><ele>22.0</ele><time>2026-05-05T16:06:46.192Z</time></trkpt><trkpt lat="51.598595" lon="-9.5641667"><ele>23.0</ele><time>2026-05-05T16:06:47.193Z</time></trkpt><trkpt lat="51.5986583" lon="-9.5638467"><ele>20.333333333333336</ele><time>2026-05-05T16:06:48.192Z</time></trkpt><trkpt lat="51.5987317" lon="-9.5635317"><ele>17.666666666666668</ele><time>2026-05-05T16:06:49.193Z</time></trkpt><trkpt lat="51.5988017" lon="-9.5632317"><ele>15.0</ele><time>2026-05-05T16:06:50.193Z</time></trkpt><trkpt lat="51.5988933" lon="-9.56291"><ele>15.333333333333332</ele><time>2026-05-05T16:06:51.193Z</time></trkpt><trkpt lat="51.598935" lon="-9.5626333"><ele>15.666666666666666</ele><time>2026-05-05T16:06:52.192Z</time></trkpt><trkpt lat="51.59897" lon="-9.56233"><ele>16.0</ele><time>2026-05-05T16:06:53.192Z</time></trkpt><trkpt lat="51.599" lon="-9.5620333"><ele>16.333333333333332</ele><time>2026-05-05T16:06:54.193Z</time></trkpt><trkpt lat="51.5990417" lon="-9.5617183"><ele>16.666666666666668</ele><time>2026-05-05T16:06:55.193Z</time></trkpt><trkpt lat="51.5990817" lon="-9.5613983"><ele>17.0</ele><time>2026-05-05T16:06:56.193Z</time></trkpt><trkpt lat="51.5991183" lon="-9.5610783"><ele>18.0</ele><time>2026-05-05T16:06:57.192Z</time></trkpt><trkpt lat="51.5991417" lon="-9.5607483"><ele>19.0</ele><time>2026-05-05T16:06:58.192Z</time></trkpt><trkpt lat="51.5991833" lon="-9.56042"><ele>20.0</ele><time>2026-05-05T16:06:59.193Z</time></trkpt><trkpt lat="51.5992267" lon="-9.56009"><ele>21.333333333333336</ele><time>2026-05-05T16:07:00.192Z</time></trkpt><trkpt lat="51.599275" lon="-9.55975"><ele>22.666666666666668</ele><time>2026-05-05T16:07:01.193Z</time></trkpt><trkpt lat="51.59934" lon="-9.559425"><ele>24.0</ele><time>2026-05-05T16:07:02.192Z</time></trkpt><trkpt lat="51.5994067" lon="-9.5591233"><ele>24.333333333333336</ele><time>2026-05-05T16:07:03.193Z</time></trkpt><trkpt lat="51.5994717" lon="-9.55881"><ele>24.666666666666668</ele><time>2026-05-05T16:07:04.192Z</time></trkpt><trkpt lat="51.5995483" lon="-9.5585017"><ele>25.0</ele><time>2026-05-05T16:07:05.193Z</time></trkpt><trkpt lat="51.5996367" lon="-9.5582017"><ele>23.0</ele><time>2026-05-05T16:07:06.193Z</time></trkpt><trkpt lat="51.5997383" lon="-9.5579"><ele>21.0</ele><time>2026-05-05T16:07:07.193Z</time></trkpt><trkpt lat="51.599805" lon="-9.5576133"><ele>19.0</ele><time>2026-05-05T16:07:08.192Z</time></trkpt><trkpt lat="51.5999233" lon="-9.5572933"><ele>20.5</ele><time>2026-05-05T16:07:09.193Z</time></trkpt><trkpt lat="51.6000767" lon="-9.556975"><ele>22.0</ele><time>2026-05-05T16:07:10.193Z</time></trkpt><trkpt lat="51.6001967" lon="-9.5567"><ele>19.333333333333332</ele><time>2026-05-05T16:07:11.193Z</time></trkpt><trkpt lat="51.6003467" lon="-9.5564067"><ele>16.666666666666668</ele><time>2026-05-05T16:07:12.192Z</time></trkpt><trkpt lat="51.600455" lon="-9.5561317"><ele>14.0</ele><time>2026-05-05T16:07:13.193Z</time></trkpt><trkpt lat="51.6005517" lon="-9.5558667"><ele>14.0</ele><time>2026-05-05T16:07:14.193Z</time></trkpt><trkpt lat="51.6006333" lon="-9.5556017"><ele>14.0</ele><time>2026-05-05T16:07:15.193Z</time></trkpt><trkpt lat="51.6007033" lon="-9.5553183"><ele>14.0</ele><time>2026-05-05T16:07:16.193Z</time></trkpt><trkpt lat="51.6007633" lon="-9.55503"><ele>14.666666666666668</ele><time>2026-05-05T16:07:17.193Z</time></trkpt><trkpt lat="51.6008033" lon="-9.55473"><ele>15.333333333333332</ele><time>2026-05-05T16:07:18.192Z</time></trkpt><trkpt lat="51.6008433" lon="-9.554425"><ele>16.0</ele><time>2026-05-05T16:07:19.193Z</time></trkpt><trkpt lat="51.6008833" lon="-9.55414"><ele>17.0</ele><time>2026-05-05T16:07:20.193Z</time></trkpt><trkpt lat="51.6008867" lon="-9.55389"><ele>18.0</ele><time>2026-05-05T16:07:21.192Z</time></trkpt><trkpt lat="51.6009367" lon="-9.5536167"><ele>19.0</ele><time>2026-05-05T16:07:22.193Z</time></trkpt><trkpt lat="51.600935" lon="-9.5533917"><ele>19.333333333333332</ele><time>2026-05-05T16:07:23.193Z</time></trkpt><trkpt lat="51.6009583" lon="-9.5531183"><ele>19.666666666666668</ele><time>2026-05-05T16:07:24.193Z</time></trkpt><trkpt lat="51.600995" lon="-9.5528133"><ele>20.0</ele><time>2026-05-05T16:07:25.193Z</time></trkpt><trkpt lat="51.6010067" lon="-9.5524967"><ele>20.666666666666668</ele><time>2026-05-05T16:07:26.192Z</time></trkpt><trkpt lat="51.6010167" lon="-9.5521783"><ele>21.333333333333332</ele><time>2026-05-05T16:07:27.192Z</time></trkpt><trkpt lat="51.601035" lon="-9.5518767"><ele>22.0</ele><time>2026-05-05T16:07:28.192Z</time></trkpt><trkpt lat="51.6010683" lon="-9.55157"><ele>23.0</ele><time>2026-05-05T16:07:29.192Z</time></trkpt><trkpt lat="51.60113" lon="-9.551275"><ele>24.0</ele><time>2026-05-05T16:07:30.193Z</time></trkpt><trkpt lat="51.6011967" lon="-9.5509667"><ele>25.0</ele><time>2026-05-05T16:07:31.193Z</time></trkpt><trkpt lat="51.6012483" lon="-9.5506483"><ele>22.666666666666668</ele><time>2026-05-05T16:07:32.193Z</time></trkpt><trkpt lat="51.6013133" lon="-9.5503317"><ele>20.333333333333336</ele><time>2026-05-05T16:07:33.193Z</time></trkpt><trkpt lat="51.6013783" lon="-9.5500283"><ele>18.0</ele><time>2026-05-05T16:07:34.192Z</time></trkpt><trkpt lat="51.6014583" lon="-9.5497233"><ele>18.666666666666668</ele><time>2026-05-05T16:07:35.193Z</time></trkpt><trkpt lat="51.60153" lon="-9.5494417"><ele>19.333333333333336</ele><time>2026-05-05T16:07:36.193Z</time></trkpt><trkpt lat="51.6016133" lon="-9.54917"><ele>20.0</ele><time>2026-05-05T16:07:37.193Z</time></trkpt><trkpt lat="51.6016967" lon="-9.54891"><ele>20.333333333333336</ele><time>2026-05-05T16:07:38.193Z</time></trkpt><trkpt lat="51.6017867" lon="-9.5486583"><ele>20.666666666666668</ele><time>2026-05-05T16:07:39.192Z</time></trkpt><trkpt lat="51.60188" lon="-9.5484117"><ele>21.0</ele><time>2026-05-05T16:07:40.193Z</time></trkpt><trkpt lat="51.6019767" lon="-9.5481633"><ele>19.666666666666668</ele><time>2026-05-05T16:07:41.193Z</time></trkpt><trkpt lat="51.6020567" lon="-9.5479183"><ele>18.333333333333336</ele><time>2026-05-05T16:07:42.193Z</time></trkpt><trkpt lat="51.6021317" lon="-9.5477083"><ele>17.0</ele><time>2026-05-05T16:07:43.192Z</time></trkpt><trkpt lat="51.6021983" lon="-9.5474417"><ele>17.0</ele><time>2026-05-05T16:07:44.193Z</time></trkpt><trkpt lat="51.6022733" lon="-9.5471167"><ele>17.0</ele><time>2026-05-05T16:07:45.193Z</time></trkpt><trkpt lat="51.6023217" lon="-9.5468267"><ele>17.0</ele><time>2026-05-05T16:07:46.192Z</time></trkpt><trkpt lat="51.6024033" lon="-9.5465417"><ele>18.666666666666668</ele><time>2026-05-05T16:07:47.192Z</time></trkpt><trkpt lat="51.602475" lon="-9.5463033"><ele>20.333333333333332</ele><time>2026-05-05T16:07:48.192Z</time></trkpt><trkpt lat="51.60261" lon="-9.5460367"><ele>22.0</ele><time>2026-05-05T16:07:49.193Z</time></trkpt><trkpt lat="51.60273" lon="-9.5458"><ele>19.666666666666664</ele><time>2026-05-05T16:07:50.193Z</time></trkpt><trkpt lat="51.6028483" lon="-9.5455683"><ele>17.333333333333332</ele><time>2026-05-05T16:07:51.193Z</time></trkpt><trkpt lat="51.6029567" lon="-9.5453283"><ele>15.0</ele><time>2026-05-05T16:07:52.192Z</time></trkpt><trkpt lat="51.6030833" lon="-9.54507"><ele>15.0</ele><time>2026-05-05T16:07:53.193Z</time></trkpt><trkpt lat="51.603185" lon="-9.5448033"><ele>15.0</ele><time>2026-05-05T16:07:54.192Z</time></trkpt><trkpt lat="51.6032817" lon="-9.5445367"><ele>15.0</ele><time>2026-05-05T16:07:55.192Z</time></trkpt><trkpt lat="51.6033583" lon="-9.544305"><ele>15.333333333333332</ele><time>2026-05-05T16:07:56.193Z</time></trkpt><trkpt lat="51.6034367" lon="-9.5440683"><ele>15.666666666666666</ele><time>2026-05-05T16:07:57.192Z</time></trkpt><trkpt lat="51.6035183" lon="-9.5438017"><ele>16.0</ele><time>2026-05-05T16:07:58.193Z</time></trkpt><trkpt lat="51.6035817" lon="-9.54353"><ele>16.333333333333332</ele><time>2026-05-05T16:07:59.193Z</time></trkpt><trkpt lat="51.6036383" lon="-9.5432367"><ele>16.666666666666668</ele><time>2026-05-05T16:08:00.192Z</time></trkpt><trkpt lat="51.6036983" lon="-9.5429417"><ele>17.0</ele><time>2026-05-05T16:08:01.193Z</time></trkpt><trkpt lat="51.603755" lon="-9.5426567"><ele>14.0</ele><time>2026-05-05T16:08:02.193Z</time></trkpt><trkpt lat="51.6037933" lon="-9.542375"><ele>11.0</ele><time>2026-05-05T16:08:03.192Z</time></trkpt><trkpt lat="51.6038317" lon="-9.5421033"><ele>8.0</ele><time>2026-05-05T16:08:04.193Z</time></trkpt><trkpt lat="51.6038967" lon="-9.541845"><ele>8.0</ele><time>2026-05-05T16:08:05.193Z</time></trkpt><trkpt lat="51.6039633" lon="-9.5415667"><ele>8.0</ele><time>2026-05-05T16:08:06.193Z</time></trkpt><trkpt lat="51.6040583" lon="-9.5413067"><ele>8.0</ele><time>2026-05-05T16:08:07.193Z</time></trkpt><trkpt lat="51.6041667" lon="-9.5410517"><ele>9.0</ele><time>2026-05-05T16:08:08.193Z</time></trkpt><trkpt lat="51.6042583" lon="-9.540815"><ele>10.0</ele><time>2026-05-05T16:08:09.193Z</time></trkpt><trkpt lat="51.6043467" lon="-9.5405767"><ele>11.0</ele><time>2026-05-05T16:08:10.193Z</time></trkpt><trkpt lat="51.6044283" lon="-9.5403483"><ele>8.666666666666666</ele><time>2026-05-05T16:08:11.193Z</time></trkpt><trkpt lat="51.60451" lon="-9.54011"><ele>6.333333333333333</ele><time>2026-05-05T16:08:12.193Z</time></trkpt><trkpt lat="51.6045917" lon="-9.53987"><ele>4.0</ele><time>2026-05-05T16:08:13.193Z</time></trkpt><trkpt lat="51.6046833" lon="-9.539635"><ele>5.0</ele><time>2026-05-05T16:08:14.193Z</time></trkpt><trkpt lat="51.6047817" lon="-9.5393967"><ele>6.0</ele><time>2026-05-05T16:08:15.193Z</time></trkpt><trkpt lat="51.6048817" lon="-9.539155"><ele>7.0</ele><time>2026-05-05T16:08:16.193Z</time></trkpt><trkpt lat="51.6049833" lon="-9.538925"><ele>7.333333333333334</ele><time>2026-05-05T16:08:17.193Z</time></trkpt><trkpt lat="51.6050967" lon="-9.5387133"><ele>7.666666666666666</ele><time>2026-05-05T16:08:18.192Z</time></trkpt><trkpt lat="51.6052067" lon="-9.5385117"><ele>8.0</ele><time>2026-05-05T16:08:19.193Z</time></trkpt><trkpt lat="51.6053367" lon="-9.538305"><ele>8.333333333333332</ele><time>2026-05-05T16:08:20.192Z</time></trkpt><trkpt lat="51.6054733" lon="-9.538085"><ele>8.666666666666666</ele><time>2026-05-05T16:08:21.192Z</time></trkpt><trkpt lat="51.6056267" lon="-9.5378617"><ele>9.0</ele><time>2026-05-05T16:08:22.193Z</time></trkpt><trkpt lat="51.6057583" lon="-9.537625"><ele>9.0</ele><time>2026-05-05T16:08:23.193Z</time></trkpt><trkpt lat="51.6058733" lon="-9.5374033"><ele>9.0</ele><time>2026-05-05T16:08:24.193Z</time></trkpt><trkpt lat="51.6059817" lon="-9.5371617"><ele>9.0</ele><time>2026-05-05T16:08:25.192Z</time></trkpt><trkpt lat="51.6060967" lon="-9.5369533"><ele>9.333333333333334</ele><time>2026-05-05T16:08:26.193Z</time></trkpt><trkpt lat="51.606205" lon="-9.53674"><ele>9.666666666666668</ele><time>2026-05-05T16:08:27.192Z</time></trkpt><trkpt lat="51.606315" lon="-9.5365167"><ele>10.0</ele><time>2026-05-05T16:08:28.193Z</time></trkpt><trkpt lat="51.6064233" lon="-9.536285"><ele>11.0</ele><time>2026-05-05T16:08:29.193Z</time></trkpt><trkpt lat="51.6065367" lon="-9.5360433"><ele>12.0</ele><time>2026-05-05T16:08:30.192Z</time></trkpt><trkpt lat="51.6066517" lon="-9.5358067"><ele>13.0</ele><time>2026-05-05T16:08:31.193Z</time></trkpt><trkpt lat="51.6067633" lon="-9.5355833"><ele>14.0</ele><time>2026-05-05T16:08:32.193Z</time></trkpt><trkpt lat="51.6068617" lon="-9.5353833"><ele>15.0</ele><time>2026-05-05T16:08:33.193Z</time></trkpt><trkpt lat="51.606955" lon="-9.5351833"><ele>16.0</ele><time>2026-05-05T16:08:34.193Z</time></trkpt><trkpt lat="51.60704" lon="-9.5349933"><ele>14.75</ele><time>2026-05-05T16:08:35.193Z</time></trkpt><trkpt lat="51.6071183" lon="-9.5347833"><ele>13.5</ele><time>2026-05-05T16:08:36.192Z</time></trkpt><trkpt lat="51.6071933" lon="-9.534575"><ele>12.25</ele><time>2026-05-05T16:08:37.193Z</time></trkpt><trkpt lat="51.6072733" lon="-9.5343817"><ele>11.0</ele><time>2026-05-05T16:08:38.192Z</time></trkpt><trkpt lat="51.6073867" lon="-9.5341317"><ele>11.0</ele><time>2026-05-05T16:08:39.193Z</time></trkpt><trkpt lat="51.607495" lon="-9.533915"><ele>11.0</ele><time>2026-05-05T16:08:40.192Z</time></trkpt><trkpt lat="51.607595" lon="-9.5337317"><ele>11.0</ele><time>2026-05-05T16:08:41.193Z</time></trkpt><trkpt lat="51.60771" lon="-9.5335417"><ele>9.333333333333332</ele><time>2026-05-05T16:08:42.193Z</time></trkpt><trkpt lat="51.6078333" lon="-9.5333567"><ele>7.666666666666666</ele><time>2026-05-05T16:08:43.193Z</time></trkpt><trkpt lat="51.607965" lon="-9.5331783"><ele>6.0</ele><time>2026-05-05T16:08:44.193Z</time></trkpt><trkpt lat="51.608105" lon="-9.5329967"><ele>6.666666666666666</ele><time>2026-05-05T16:08:45.193Z</time></trkpt><trkpt lat="51.608255" lon="-9.5328017"><ele>7.333333333333333</ele><time>2026-05-05T16:08:46.193Z</time></trkpt><trkpt lat="51.6083983" lon="-9.53262"><ele>8.0</ele><time>2026-05-05T16:08:47.192Z</time></trkpt><trkpt lat="51.6085317" lon="-9.5324583"><ele>7.75</ele><time>2026-05-05T16:08:48.192Z</time></trkpt><trkpt lat="51.608685" lon="-9.5323367"><ele>7.5</ele><time>2026-05-05T16:08:49.193Z</time></trkpt><trkpt lat="51.6088117" lon="-9.53223"><ele>7.25</ele><time>2026-05-05T16:08:50.192Z</time></trkpt><trkpt lat="51.6089283" lon="-9.53212"><ele>7.0</ele><time>2026-05-05T16:08:51.193Z</time></trkpt><trkpt lat="51.60905" lon="-9.53201"><ele>7.0</ele><time>2026-05-05T16:08:52.192Z</time></trkpt><trkpt lat="51.609195" lon="-9.531885"><ele>7.0</ele><time>2026-05-05T16:08:53.193Z</time></trkpt><trkpt lat="51.609305" lon="-9.531725"><ele>7.0</ele><time>2026-05-05T16:08:54.193Z</time></trkpt><trkpt lat="51.6093683" lon="-9.5315717"><ele>7.0</ele><time>2026-05-05T16:08:55.192Z</time></trkpt><trkpt lat="51.60948" lon="-9.5313967"><ele>7.0</ele><time>2026-05-05T16:08:56.192Z</time></trkpt><trkpt lat="51.60958" lon="-9.5312167"><ele>7.0</ele><time>2026-05-05T16:08:57.193Z</time></trkpt><trkpt lat="51.6097017" lon="-9.5310567"><ele>7.0</ele><time>2026-05-05T16:08:58.193Z</time></trkpt><trkpt lat="51.6098033" lon="-9.5308933"><ele>7.0</ele><time>2026-05-05T16:08:59.193Z</time></trkpt><trkpt lat="51.6099317" lon="-9.5307483"><ele>7.0</ele><time>2026-05-05T16:09:00.192Z</time></trkpt><trkpt lat="51.6100633" lon="-9.53061"><ele>7.0</ele><time>2026-05-05T16:09:01.192Z</time></trkpt><trkpt lat="51.610215" lon="-9.5304883"><ele>6.666666666666667</ele><time>2026-05-05T16:09:02.193Z</time></trkpt><trkpt lat="51.6103783" lon="-9.5303817"><ele>6.333333333333334</ele><time>2026-05-05T16:09:03.193Z</time></trkpt><trkpt lat="51.61052" lon="-9.5302533"><ele>6.0</ele><time>2026-05-05T16:09:04.193Z</time></trkpt><trkpt lat="51.6106767" lon="-9.5301333"><ele>6.0</ele><time>2026-05-05T16:09:05.192Z</time></trkpt><trkpt lat="51.6108417" lon="-9.5300117"><ele>6.0</ele><time>2026-05-05T16:09:06.193Z</time></trkpt><trkpt lat="51.6110033" lon="-9.5299383"><ele>6.0</ele><time>2026-05-05T16:09:07.193Z</time></trkpt><trkpt lat="51.6111683" lon="-9.529835"><ele>7.333333333333334</ele><time>2026-05-05T16:09:08.193Z</time></trkpt><trkpt lat="51.61133" lon="-9.5297383"><ele>8.666666666666668</ele><time>2026-05-05T16:09:09.193Z</time></trkpt><trkpt lat="51.6114883" lon="-9.529655"><ele>10.0</ele><time>2026-05-05T16:09:10.193Z</time></trkpt><trkpt lat="51.61165" lon="-9.5295717"><ele>10.0</ele><time>2026-05-05T16:09:11.192Z</time></trkpt><trkpt lat="51.6118" lon="-9.5294933"><ele>10.0</ele><time>2026-05-05T16:09:12.193Z</time></trkpt><trkpt lat="51.6119483" lon="-9.5294417"><ele>10.0</ele><time>2026-05-05T16:09:13.193Z</time></trkpt><trkpt lat="51.6120867" lon="-9.5294033"><ele>11.0</ele><time>2026-05-05T16:09:14.193Z</time></trkpt><trkpt lat="51.6122017" lon="-9.5293233"><ele>12.0</ele><time>2026-05-05T16:09:15.193Z</time></trkpt><trkpt lat="51.6123383" lon="-9.529275"><ele>13.0</ele><time>2026-05-05T16:09:16.193Z</time></trkpt><trkpt lat="51.6124817" lon="-9.5292133"><ele>14.0</ele><time>2026-05-05T16:09:17.192Z</time></trkpt><trkpt lat="51.612625" lon="-9.5291067"><ele>14.0</ele><time>2026-05-05T16:09:18.192Z</time></trkpt><trkpt lat="51.6127767" lon="-9.5289417"><ele>14.0</ele><time>2026-05-05T16:09:19.193Z</time></trkpt><trkpt lat="51.6129233" lon="-9.528795"><ele>14.0</ele><time>2026-05-05T16:09:20.193Z</time></trkpt><trkpt lat="51.6130667" lon="-9.5286833"><ele>14.666666666666668</ele><time>2026-05-05T16:09:21.193Z</time></trkpt><trkpt lat="51.6132167" lon="-9.52855"><ele>15.333333333333332</ele><time>2026-05-05T16:09:22.193Z</time></trkpt><trkpt lat="51.6133583" lon="-9.528435"><ele>16.0</ele><time>2026-05-05T16:09:23.193Z</time></trkpt><trkpt lat="51.613495" lon="-9.5283283"><ele>16.0</ele><time>2026-05-05T16:09:24.192Z</time></trkpt><trkpt lat="51.6136317" lon="-9.5282333"><ele>16.0</ele><time>2026-05-05T16:09:25.193Z</time></trkpt><trkpt lat="51.6137733" lon="-9.5281333"><ele>16.0</ele><time>2026-05-05T16:09:26.193Z</time></trkpt><trkpt lat="51.6139283" lon="-9.528045"><ele>16.333333333333332</ele><time>2026-05-05T16:09:27.193Z</time></trkpt><trkpt lat="51.614095" lon="-9.5279667"><ele>16.666666666666668</ele><time>2026-05-05T16:09:28.193Z</time></trkpt><trkpt lat="51.61427" lon="-9.5278983"><ele>17.0</ele><time>2026-05-05T16:09:29.193Z</time></trkpt><trkpt lat="51.6144433" lon="-9.5278167"><ele>17.333333333333336</ele><time>2026-05-05T16:09:30.192Z</time></trkpt><trkpt lat="51.6146283" lon="-9.5277083"><ele>17.666666666666668</ele><time>2026-05-05T16:09:31.192Z</time></trkpt><trkpt lat="51.6148217" lon="-9.52763"><ele>18.0</ele><time>2026-05-05T16:09:32.193Z</time></trkpt><trkpt lat="51.6149983" lon="-9.5275617"><ele>18.0</ele><time>2026-05-05T16:09:33.193Z</time></trkpt><trkpt lat="51.6151733" lon="-9.5275133"><ele>18.0</ele><time>2026-05-05T16:09:34.192Z</time></trkpt><trkpt lat="51.6153617" lon="-9.52746"><ele>18.0</ele><time>2026-05-05T16:09:35.193Z</time></trkpt><trkpt lat="51.6155517" lon="-9.5274017"><ele>18.0</ele><time>2026-05-05T16:09:36.193Z</time></trkpt><trkpt lat="51.6157383" lon="-9.52732"><ele>18.0</ele><time>2026-05-05T16:09:37.192Z</time></trkpt><trkpt lat="51.615915" lon="-9.5272433"><ele>18.0</ele><time>2026-05-05T16:09:38.193Z</time></trkpt><trkpt lat="51.61608" lon="-9.52717"><ele>17.75</ele><time>2026-05-05T16:09:39.192Z</time></trkpt><trkpt lat="51.6162267" lon="-9.5271"><ele>17.5</ele><time>2026-05-05T16:09:40.193Z</time></trkpt><trkpt lat="51.6163683" lon="-9.5270317"><ele>17.25</ele><time>2026-05-05T16:09:41.192Z</time></trkpt><trkpt lat="51.616505" lon="-9.5269617"><ele>17.0</ele><time>2026-05-05T16:09:42.193Z</time></trkpt><trkpt lat="51.616645" lon="-9.5268933"><ele>16.666666666666668</ele><time>2026-05-05T16:09:43.193Z</time></trkpt><trkpt lat="51.6167817" lon="-9.5268183"><ele>16.333333333333332</ele><time>2026-05-05T16:09:44.193Z</time></trkpt><trkpt lat="51.616935" lon="-9.5267617"><ele>16.0</ele><time>2026-05-05T16:09:45.192Z</time></trkpt><trkpt lat="51.61708" lon="-9.5267083"><ele>16.0</ele><time>2026-05-05T16:09:46.192Z</time></trkpt><trkpt lat="51.61723" lon="-9.5266567"><ele>16.0</ele><time>2026-05-05T16:09:47.192Z</time></trkpt><trkpt lat="51.6173767" lon="-9.5265983"><ele>16.0</ele><time>2026-05-05T16:09:48.193Z</time></trkpt><trkpt lat="51.6175133" lon="-9.5265383"><ele>16.0</ele><time>2026-05-05T16:09:49.193Z</time></trkpt><trkpt lat="51.617645" lon="-9.526465"><ele>16.0</ele><time>2026-05-05T16:09:50.193Z</time></trkpt><trkpt lat="51.6177767" lon="-9.5263717"><ele>16.0</ele><time>2026-05-05T16:09:51.192Z</time></trkpt><trkpt lat="51.6179167" lon="-9.5262317"><ele>16.0</ele><time>2026-05-05T16:09:52.193Z</time></trkpt><trkpt lat="51.6180367" lon="-9.526085"><ele>14.666666666666666</ele><time>2026-05-05T16:09:53.193Z</time></trkpt><trkpt lat="51.6181467" lon="-9.5259183"><ele>13.333333333333332</ele><time>2026-05-05T16:09:54.193Z</time></trkpt><trkpt lat="51.6182667" lon="-9.5257433"><ele>12.0</ele><time>2026-05-05T16:09:55.192Z</time></trkpt><trkpt lat="51.618395" lon="-9.5255417"><ele>12.666666666666668</ele><time>2026-05-05T16:09:56.193Z</time></trkpt><trkpt lat="51.61852" lon="-9.52535"><ele>13.333333333333334</ele><time>2026-05-05T16:09:57.193Z</time></trkpt><trkpt lat="51.6186383" lon="-9.5251733"><ele>14.0</ele><time>2026-05-05T16:09:58.193Z</time></trkpt><trkpt lat="51.6187433" lon="-9.52502"><ele>12.75</ele><time>2026-05-05T16:09:59.193Z</time></trkpt><trkpt lat="51.6188517" lon="-9.52488"><ele>11.5</ele><time>2026-05-05T16:10:00.193Z</time></trkpt><trkpt lat="51.6189433" lon="-9.5247417"><ele>10.25</ele><time>2026-05-05T16:10:01.192Z</time></trkpt><trkpt lat="51.619025" lon="-9.524605"><ele>9.0</ele><time>2026-05-05T16:10:02.193Z</time></trkpt><trkpt lat="51.6191067" lon="-9.5244733"><ele>9.0</ele><time>2026-05-05T16:10:03.192Z</time></trkpt><trkpt lat="51.6191817" lon="-9.52434"><ele>9.0</ele><time>2026-05-05T16:10:04.192Z</time></trkpt><trkpt lat="51.6192633" lon="-9.5242017"><ele>9.0</ele><time>2026-05-05T16:10:05.193Z</time></trkpt><trkpt lat="51.61936" lon="-9.5240617"><ele>9.0</ele><time>2026-05-05T16:10:06.193Z</time></trkpt><trkpt lat="51.619465" lon="-9.5239"><ele>9.0</ele><time>2026-05-05T16:10:07.192Z</time></trkpt><trkpt lat="51.6195717" lon="-9.5237433"><ele>9.0</ele><time>2026-05-05T16:10:08.193Z</time></trkpt><trkpt lat="51.6196767" lon="-9.5236017"><ele>9.0</ele><time>2026-05-05T16:10:09.193Z</time></trkpt><trkpt lat="51.6197767" lon="-9.5234667"><ele>9.0</ele><time>2026-05-05T16:10:10.193Z</time></trkpt><trkpt lat="51.6198833" lon="-9.5233417"><ele>8.75</ele><time>2026-05-05T16:10:11.192Z</time></trkpt><trkpt lat="51.6199983" lon="-9.5232267"><ele>8.5</ele><time>2026-05-05T16:10:12.193Z</time></trkpt><trkpt lat="51.6201217" lon="-9.52312"><ele>8.25</ele><time>2026-05-05T16:10:13.193Z</time></trkpt><trkpt lat="51.6202417" lon="-9.523025"><ele>8.0</ele><time>2026-05-05T16:10:14.193Z</time></trkpt><trkpt lat="51.62039" lon="-9.5229433"><ele>8.5</ele><time>2026-05-05T16:10:15.192Z</time></trkpt><trkpt lat="51.6205033" lon="-9.5228717"><ele>9.0</ele><time>2026-05-05T16:10:16.193Z</time></trkpt><trkpt lat="51.620605" lon="-9.52279"><ele>9.5</ele><time>2026-05-05T16:10:17.192Z</time></trkpt><trkpt lat="51.62071" lon="-9.52272"><ele>10.0</ele><time>2026-05-05T16:10:18.193Z</time></trkpt><trkpt lat="51.6208117" lon="-9.522645"><ele>10.0</ele><time>2026-05-05T16:10:19.193Z</time></trkpt><trkpt lat="51.6209083" lon="-9.5225733"><ele>10.0</ele><time>2026-05-05T16:10:20.193Z</time></trkpt><trkpt lat="51.620995" lon="-9.5225117"><ele>10.0</ele><time>2026-05-05T16:10:21.193Z</time></trkpt><trkpt lat="51.6210733" lon="-9.5224567"><ele>10.0</ele><time>2026-05-05T16:10:22.192Z</time></trkpt><trkpt lat="51.6211433" lon="-9.52242"><ele>10.0</ele><time>2026-05-05T16:10:23.193Z</time></trkpt><trkpt lat="51.6212183" lon="-9.52238"><ele>10.0</ele><time>2026-05-05T16:10:24.192Z</time></trkpt><trkpt lat="51.6212967" lon="-9.5223333"><ele>10.666666666666668</ele><time>2026-05-05T16:10:25.193Z</time></trkpt><trkpt lat="51.62138" lon="-9.5222733"><ele>11.333333333333334</ele><time>2026-05-05T16:10:26.193Z</time></trkpt><trkpt lat="51.6214633" lon="-9.5222217"><ele>12.0</ele><time>2026-05-05T16:10:27.192Z</time></trkpt><trkpt lat="51.621535" lon="-9.5221683"><ele>12.666666666666668</ele><time>2026-05-05T16:10:28.193Z</time></trkpt><trkpt lat="51.6216067" lon="-9.5221233"><ele>13.333333333333334</ele><time>2026-05-05T16:10:29.192Z</time></trkpt><trkpt lat="51.6216683" lon="-9.5220717"><ele>14.0</ele><time>2026-05-05T16:10:30.192Z</time></trkpt><trkpt lat="51.6217267" lon="-9.5220217"><ele>14.000000000000002</ele><time>2026-05-05T16:10:31.192Z</time></trkpt><trkpt lat="51.621785" lon="-9.52198"><ele>14.0</ele><time>2026-05-05T16:10:32.193Z</time></trkpt><trkpt lat="51.6218417" lon="-9.5219283"><ele>14.0</ele><time>2026-05-05T16:10:33.193Z</time></trkpt><trkpt lat="51.6219067" lon="-9.5218683"><ele>14.0</ele><time>2026-05-05T16:10:34.192Z</time></trkpt><trkpt lat="51.62198" lon="-9.5217967"><ele>14.000000000000002</ele><time>2026-05-05T16:10:35.193Z</time></trkpt><trkpt lat="51.6220733" lon="-9.5217317"><ele>14.0</ele><time>2026-05-05T16:10:36.193Z</time></trkpt><trkpt lat="51.6221917" lon="-9.5216667"><ele>15.25</ele><time>2026-05-05T16:10:37.193Z</time></trkpt><trkpt lat="51.6223267" lon="-9.5215983"><ele>16.5</ele><time>2026-05-05T16:10:38.193Z</time></trkpt><trkpt lat="51.62247" lon="-9.521515"><ele>17.75</ele><time>2026-05-05T16:10:39.192Z</time></trkpt><trkpt lat="51.6226133" lon="-9.5214217"><ele>19.0</ele><time>2026-05-05T16:10:40.193Z</time></trkpt><trkpt lat="51.6227683" lon="-9.5213333"><ele>19.333333333333332</ele><time>2026-05-05T16:10:41.193Z</time></trkpt><trkpt lat="51.6229267" lon="-9.5212283"><ele>19.666666666666668</ele><time>2026-05-05T16:10:42.193Z</time></trkpt><trkpt lat="51.623095" lon="-9.5211217"><ele>20.0</ele><time>2026-05-05T16:10:43.192Z</time></trkpt><trkpt lat="51.62327" lon="-9.5210133"><ele>20.0</ele><time>2026-05-05T16:10:44.193Z</time></trkpt><trkpt lat="51.6234383" lon="-9.52091"><ele>20.0</ele><time>2026-05-05T16:10:45.193Z</time></trkpt><trkpt lat="51.623595" lon="-9.5207767"><ele>20.0</ele><time>2026-05-05T16:10:46.193Z</time></trkpt><trkpt lat="51.6237533" lon="-9.5206383"><ele>21.666666666666668</ele><time>2026-05-05T16:10:47.193Z</time></trkpt><trkpt lat="51.6239" lon="-9.5205"><ele>23.333333333333336</ele><time>2026-05-05T16:10:48.192Z</time></trkpt><trkpt lat="51.6240433" lon="-9.52036"><ele>25.0</ele><time>2026-05-05T16:10:49.193Z</time></trkpt><trkpt lat="51.6241883" lon="-9.5202267"><ele>25.0</ele><time>2026-05-05T16:10:50.193Z</time></trkpt><trkpt lat="51.6243633" lon="-9.5201067"><ele>25.0</ele><time>2026-05-05T16:10:51.192Z</time></trkpt><trkpt lat="51.6245167" lon="-9.5199883"><ele>25.0</ele><time>2026-05-05T16:10:52.193Z</time></trkpt><trkpt lat="51.6246533" lon="-9.51985"><ele>28.0</ele><time>2026-05-05T16:10:53.193Z</time></trkpt><trkpt lat="51.6247867" lon="-9.5197333"><ele>31.0</ele><time>2026-05-05T16:10:54.193Z</time></trkpt><trkpt lat="51.6249367" lon="-9.51963"><ele>34.0</ele><time>2026-05-05T16:10:55.193Z</time></trkpt><trkpt lat="51.6250783" lon="-9.5195683"><ele>34.25</ele><time>2026-05-05T16:10:56.193Z</time></trkpt><trkpt lat="51.6252333" lon="-9.519505"><ele>34.5</ele><time>2026-05-05T16:10:57.193Z</time></trkpt><trkpt lat="51.6253817" lon="-9.5194583"><ele>34.75</ele><time>2026-05-05T16:10:58.193Z</time></trkpt><trkpt lat="51.625515" lon="-9.5194067"><ele>35.0</ele><time>2026-05-05T16:10:59.193Z</time></trkpt><trkpt lat="51.6256433" lon="-9.51936"><ele>35.0</ele><time>2026-05-05T16:11:00.193Z</time></trkpt><trkpt lat="51.6257733" lon="-9.519305"><ele>35.0</ele><time>2026-05-05T16:11:01.192Z</time></trkpt><trkpt lat="51.625915" lon="-9.5192483"><ele>35.0</ele><time>2026-05-05T16:11:02.192Z</time></trkpt><trkpt lat="51.626075" lon="-9.5192033"><ele>35.0</ele><time>2026-05-05T16:11:03.193Z</time></trkpt><trkpt lat="51.6262367" lon="-9.519155"><ele>33.666666666666664</ele><time>2026-05-05T16:11:04.192Z</time></trkpt><trkpt lat="51.6264017" lon="-9.519095"><ele>32.333333333333336</ele><time>2026-05-05T16:11:05.192Z</time></trkpt><trkpt lat="51.6265683" lon="-9.5190067"><ele>31.0</ele><time>2026-05-05T16:11:06.193Z</time></trkpt><trkpt lat="51.626745" lon="-9.518885"><ele>30.666666666666668</ele><time>2026-05-05T16:11:07.192Z</time></trkpt><trkpt lat="51.626915" lon="-9.5187267"><ele>30.333333333333336</ele><time>2026-05-05T16:11:08.193Z</time></trkpt><trkpt lat="51.62709" lon="-9.5185517"><ele>30.0</ele><time>2026-05-05T16:11:09.193Z</time></trkpt><trkpt lat="51.6272667" lon="-9.5183883"><ele>29.333333333333336</ele><time>2026-05-05T16:11:10.192Z</time></trkpt><trkpt lat="51.6274433" lon="-9.5182367"><ele>28.666666666666668</ele><time>2026-05-05T16:11:11.192Z</time></trkpt><trkpt lat="51.6276217" lon="-9.5180983"><ele>28.0</ele><time>2026-05-05T16:11:12.193Z</time></trkpt><trkpt lat="51.6277917" lon="-9.5179683"><ele>29.0</ele><time>2026-05-05T16:11:13.193Z</time></trkpt><trkpt lat="51.62796" lon="-9.5178417"><ele>30.0</ele><time>2026-05-05T16:11:14.193Z</time></trkpt><trkpt lat="51.6281333" lon="-9.5177333"><ele>31.0</ele><time>2026-05-05T16:11:15.193Z</time></trkpt><trkpt lat="51.6283083" lon="-9.5176567"><ele>31.0</ele><time>2026-05-05T16:11:16.192Z</time></trkpt><trkpt lat="51.628495" lon="-9.5175983"><ele>31.0</ele><time>2026-05-05T16:11:17.193Z</time></trkpt><trkpt lat="51.62869" lon="-9.5175417"><ele>31.0</ele><time>2026-05-05T16:11:18.193Z</time></trkpt><trkpt lat="51.6288533" lon="-9.5174583"><ele>31.666666666666668</ele><time>2026-05-05T16:11:19.192Z</time></trkpt><trkpt lat="51.6290167" lon="-9.51736"><ele>32.333333333333336</ele><time>2026-05-05T16:11:20.193Z</time></trkpt><trkpt lat="51.6291933" lon="-9.5172117"><ele>33.0</ele><time>2026-05-05T16:11:21.193Z</time></trkpt><trkpt lat="51.6293583" lon="-9.5170767"><ele>33.0</ele><time>2026-05-05T16:11:22.193Z</time></trkpt><trkpt lat="51.6295117" lon="-9.5169383"><ele>33.0</ele><time>2026-05-05T16:11:23.193Z</time></trkpt><trkpt lat="51.6296617" lon="-9.5168"><ele>33.0</ele><time>2026-05-05T16:11:24.192Z</time></trkpt><trkpt lat="51.62981" lon="-9.5166367"><ele>33.0</ele><time>2026-05-05T16:11:25.193Z</time></trkpt><trkpt lat="51.6299367" lon="-9.5164183"><ele>33.0</ele><time>2026-05-05T16:11:26.193Z</time></trkpt><trkpt lat="51.63008" lon="-9.51619"><ele>33.0</ele><time>2026-05-05T16:11:27.192Z</time></trkpt><trkpt lat="51.630235" lon="-9.5160017"><ele>33.333333333333336</ele><time>2026-05-05T16:11:28.193Z</time></trkpt><trkpt lat="51.6304" lon="-9.5158367"><ele>33.66666666666667</ele><time>2026-05-05T16:11:29.193Z</time></trkpt><trkpt lat="51.6305683" lon="-9.515685"><ele>34.0</ele><time>2026-05-05T16:11:30.193Z</time></trkpt><trkpt lat="51.630735" lon="-9.5155367"><ele>34.0</ele><time>2026-05-05T16:11:31.193Z</time></trkpt><trkpt lat="51.630895" lon="-9.5153933"><ele>34.0</ele><time>2026-05-05T16:11:32.193Z</time></trkpt><trkpt lat="51.63105" lon="-9.5152467"><ele>34.0</ele><time>2026-05-05T16:11:33.193Z</time></trkpt><trkpt lat="51.6312133" lon="-9.5151117"><ele>34.333333333333336</ele><time>2026-05-05T16:11:34.192Z</time></trkpt><trkpt lat="51.6313833" lon="-9.5149967"><ele>34.666666666666664</ele><time>2026-05-05T16:11:35.193Z</time></trkpt><trkpt lat="51.6315583" lon="-9.5148867"><ele>35.0</ele><time>2026-05-05T16:11:36.192Z</time></trkpt><trkpt lat="51.63173" lon="-9.5147667"><ele>35.0</ele><time>2026-05-05T16:11:37.193Z</time></trkpt><trkpt lat="51.631905" lon="-9.5146317"><ele>35.0</ele><time>2026-05-05T16:11:38.193Z</time></trkpt><trkpt lat="51.63208" lon="-9.5144533"><ele>35.0</ele><time>2026-05-05T16:11:39.193Z</time></trkpt><trkpt lat="51.6322333" lon="-9.5142583"><ele>35.33333333333333</ele><time>2026-05-05T16:11:40.193Z</time></trkpt><trkpt lat="51.6323617" lon="-9.51405"><ele>35.666666666666664</ele><time>2026-05-05T16:11:41.193Z</time></trkpt><trkpt lat="51.6324767" lon="-9.51384"><ele>36.0</ele><time>2026-05-05T16:11:42.192Z</time></trkpt><trkpt lat="51.6325767" lon="-9.5136267"><ele>35.333333333333336</ele><time>2026-05-05T16:11:43.193Z</time></trkpt><trkpt lat="51.6326583" lon="-9.5133667"><ele>34.66666666666667</ele><time>2026-05-05T16:11:44.193Z</time></trkpt><trkpt lat="51.6326733" lon="-9.5130517"><ele>34.0</ele><time>2026-05-05T16:11:45.193Z</time></trkpt><trkpt lat="51.63272" lon="-9.5127133"><ele>33.0</ele><time>2026-05-05T16:11:46.192Z</time></trkpt><trkpt lat="51.63279" lon="-9.5123583"><ele>32.0</ele><time>2026-05-05T16:11:47.192Z</time></trkpt><trkpt lat="51.63286" lon="-9.5120367"><ele>31.0</ele><time>2026-05-05T16:11:48.193Z</time></trkpt><trkpt lat="51.6329367" lon="-9.51171"><ele>33.0</ele><time>2026-05-05T16:11:49.193Z</time></trkpt><trkpt lat="51.6330433" lon="-9.5113483"><ele>35.0</ele><time>2026-05-05T16:11:50.193Z</time></trkpt><trkpt lat="51.6331133" lon="-9.5110083"><ele>35.0</ele><time>2026-05-05T16:11:51.193Z</time></trkpt><trkpt lat="51.6332033" lon="-9.510695"><ele>35.0</ele><time>2026-05-05T16:11:52.192Z</time></trkpt><trkpt lat="51.6332817" lon="-9.5103917"><ele>35.0</ele><time>2026-05-05T16:11:53.193Z</time></trkpt><trkpt lat="51.6333533" lon="-9.5100867"><ele>34.0</ele><time>2026-05-05T16:11:54.192Z</time></trkpt><trkpt lat="51.633435" lon="-9.509785"><ele>33.0</ele><time>2026-05-05T16:11:55.193Z</time></trkpt><trkpt lat="51.6335183" lon="-9.50949"><ele>32.0</ele><time>2026-05-05T16:11:56.192Z</time></trkpt><trkpt lat="51.6336067" lon="-9.5091883"><ele>33.0</ele><time>2026-05-05T16:11:57.193Z</time></trkpt><trkpt lat="51.6337083" lon="-9.50888"><ele>34.0</ele><time>2026-05-05T16:11:58.192Z</time></trkpt><trkpt lat="51.6338133" lon="-9.50857"><ele>35.0</ele><time>2026-05-05T16:11:59.193Z</time></trkpt><trkpt lat="51.63392" lon="-9.508275"><ele>35.0</ele><time>2026-05-05T16:12:00.192Z</time></trkpt><trkpt lat="51.63402" lon="-9.50799"><ele>35.0</ele><time>2026-05-05T16:12:01.193Z</time></trkpt><trkpt lat="51.634115" lon="-9.5077217"><ele>35.0</ele><time>2026-05-05T16:12:02.193Z</time></trkpt><trkpt lat="51.6341933" lon="-9.507465"><ele>34.33333333333333</ele><time>2026-05-05T16:12:03.193Z</time></trkpt><trkpt lat="51.6342783" lon="-9.5071933"><ele>33.666666666666664</ele><time>2026-05-05T16:12:04.193Z</time></trkpt><trkpt lat="51.634325" lon="-9.5069433"><ele>33.0</ele><time>2026-05-05T16:12:05.193Z</time></trkpt><trkpt lat="51.63437" lon="-9.5066483"><ele>32.666666666666664</ele><time>2026-05-05T16:12:06.193Z</time></trkpt><trkpt lat="51.6344067" lon="-9.5063333"><ele>32.33333333333333</ele><time>2026-05-05T16:12:07.192Z</time></trkpt><trkpt lat="51.6344417" lon="-9.5060183"><ele>32.0</ele><time>2026-05-05T16:12:08.193Z</time></trkpt><trkpt lat="51.634445" lon="-9.5056983"><ele>31.0</ele><time>2026-05-05T16:12:09.193Z</time></trkpt><trkpt lat="51.6344567" lon="-9.5053533"><ele>30.0</ele><time>2026-05-05T16:12:10.193Z</time></trkpt><trkpt lat="51.634485" lon="-9.5050467"><ele>29.0</ele><time>2026-05-05T16:12:11.192Z</time></trkpt><trkpt lat="51.6345383" lon="-9.5047367"><ele>31.333333333333332</ele><time>2026-05-05T16:12:12.193Z</time></trkpt><trkpt lat="51.6345867" lon="-9.5044233"><ele>33.666666666666664</ele><time>2026-05-05T16:12:13.193Z</time></trkpt><trkpt lat="51.6346367" lon="-9.50413"><ele>36.0</ele><time>2026-05-05T16:12:14.193Z</time></trkpt><trkpt lat="51.6346817" lon="-9.5038367"><ele>35.666666666666664</ele><time>2026-05-05T16:12:15.193Z</time></trkpt><trkpt lat="51.6347233" lon="-9.50353"><ele>35.33333333333333</ele><time>2026-05-05T16:12:16.193Z</time></trkpt><trkpt lat="51.6347667" lon="-9.5031983"><ele>35.0</ele><time>2026-05-05T16:12:17.192Z</time></trkpt><trkpt lat="51.6348017" lon="-9.502865"><ele>34.33333333333333</ele><time>2026-05-05T16:12:18.193Z</time></trkpt><trkpt lat="51.6348367" lon="-9.50252"><ele>33.666666666666664</ele><time>2026-05-05T16:12:19.193Z</time></trkpt><trkpt lat="51.63488" lon="-9.5021633"><ele>33.0</ele><time>2026-05-05T16:12:20.193Z</time></trkpt><trkpt lat="51.6349317" lon="-9.5017867"><ele>32.666666666666664</ele><time>2026-05-05T16:12:21.193Z</time></trkpt><trkpt lat="51.6349833" lon="-9.5014417"><ele>32.33333333333333</ele><time>2026-05-05T16:12:22.193Z</time></trkpt><trkpt lat="51.6350383" lon="-9.5010883"><ele>32.0</ele><time>2026-05-05T16:12:23.192Z</time></trkpt><trkpt lat="51.6350867" lon="-9.5007417"><ele>32.0</ele><time>2026-05-05T16:12:24.193Z</time></trkpt><trkpt lat="51.6351533" lon="-9.5004033"><ele>32.0</ele><time>2026-05-05T16:12:25.193Z</time></trkpt><trkpt lat="51.63522" lon="-9.5000533"><ele>32.0</ele><time>2026-05-05T16:12:26.193Z</time></trkpt><trkpt lat="51.635275" lon="-9.49972"><ele>34.33333333333333</ele><time>2026-05-05T16:12:27.192Z</time></trkpt><trkpt lat="51.6353367" lon="-9.4993933"><ele>36.666666666666664</ele><time>2026-05-05T16:12:28.193Z</time></trkpt><trkpt lat="51.635415" lon="-9.4990733"><ele>39.0</ele><time>2026-05-05T16:12:29.193Z</time></trkpt><trkpt lat="51.6355067" lon="-9.49873"><ele>39.333333333333336</ele><time>2026-05-05T16:12:30.192Z</time></trkpt><trkpt lat="51.6355867" lon="-9.49843"><ele>39.66666666666667</ele><time>2026-05-05T16:12:31.192Z</time></trkpt><trkpt lat="51.63565" lon="-9.498115"><ele>40.0</ele><time>2026-05-05T16:12:32.193Z</time></trkpt><trkpt lat="51.6356917" lon="-9.497785"><ele>40.333333333333336</ele><time>2026-05-05T16:12:33.192Z</time></trkpt><trkpt lat="51.635745" lon="-9.49746"><ele>40.666666666666664</ele><time>2026-05-05T16:12:34.193Z</time></trkpt><trkpt lat="51.6357917" lon="-9.497135"><ele>41.0</ele><time>2026-05-05T16:12:35.192Z</time></trkpt><trkpt lat="51.6358317" lon="-9.49681"><ele>41.0</ele><time>2026-05-05T16:12:36.192Z</time></trkpt><trkpt lat="51.6358983" lon="-9.4964517"><ele>41.0</ele><time>2026-05-05T16:12:37.192Z</time></trkpt><trkpt lat="51.63593" lon="-9.4961133"><ele>41.0</ele><time>2026-05-05T16:12:38.193Z</time></trkpt><trkpt lat="51.6359583" lon="-9.49577"><ele>41.0</ele><time>2026-05-05T16:12:39.193Z</time></trkpt><trkpt lat="51.6359867" lon="-9.4954333"><ele>41.0</ele><time>2026-05-05T16:12:40.192Z</time></trkpt><trkpt lat="51.63602" lon="-9.4950883"><ele>41.0</ele><time>2026-05-05T16:12:41.193Z</time></trkpt><trkpt lat="51.63606" lon="-9.4947517"><ele>43.33333333333333</ele><time>2026-05-05T16:12:42.193Z</time></trkpt><trkpt lat="51.636105" lon="-9.49442"><ele>45.666666666666664</ele><time>2026-05-05T16:12:43.192Z</time></trkpt><trkpt lat="51.6361567" lon="-9.49409"><ele>48.0</ele><time>2026-05-05T16:12:44.192Z</time></trkpt><trkpt lat="51.6362167" lon="-9.4937933"><ele>49.66666666666667</ele><time>2026-05-05T16:12:45.193Z</time></trkpt><trkpt lat="51.636285" lon="-9.4935117"><ele>51.333333333333336</ele><time>2026-05-05T16:12:46.192Z</time></trkpt><trkpt lat="51.636355" lon="-9.4932767"><ele>53.0</ele><time>2026-05-05T16:12:47.193Z</time></trkpt><trkpt lat="51.63643" lon="-9.4930683"><ele>52.66666666666667</ele><time>2026-05-05T16:12:48.193Z</time></trkpt><trkpt lat="51.636515" lon="-9.4928717"><ele>52.33333333333333</ele><time>2026-05-05T16:12:49.193Z</time></trkpt><trkpt lat="51.6366233" lon="-9.4926817"><ele>52.0</ele><time>2026-05-05T16:12:50.192Z</time></trkpt><trkpt lat="51.6367533" lon="-9.4924883"><ele>52.0</ele><time>2026-05-05T16:12:51.192Z</time></trkpt><trkpt lat="51.6368983" lon="-9.4922933"><ele>52.0</ele><time>2026-05-05T16:12:52.193Z</time></trkpt><trkpt lat="51.63704" lon="-9.4920633"><ele>52.0</ele><time>2026-05-05T16:12:53.192Z</time></trkpt><trkpt lat="51.6371733" lon="-9.4918283"><ele>53.33333333333333</ele><time>2026-05-05T16:12:54.193Z</time></trkpt><trkpt lat="51.637295" lon="-9.49157"><ele>54.66666666666667</ele><time>2026-05-05T16:12:55.193Z</time></trkpt><trkpt lat="51.6374033" lon="-9.491295"><ele>56.0</ele><time>2026-05-05T16:12:56.193Z</time></trkpt><trkpt lat="51.6375067" lon="-9.491015"><ele>56.0</ele><time>2026-05-05T16:12:57.193Z</time></trkpt><trkpt lat="51.6376033" lon="-9.4907317"><ele>56.0</ele><time>2026-05-05T16:12:58.192Z</time></trkpt><trkpt lat="51.6376933" lon="-9.4904483"><ele>56.0</ele><time>2026-05-05T16:12:59.193Z</time></trkpt><trkpt lat="51.6377817" lon="-9.4901583"><ele>59.66666666666667</ele><time>2026-05-05T16:13:00.193Z</time></trkpt><trkpt lat="51.63786" lon="-9.489865"><ele>63.33333333333333</ele><time>2026-05-05T16:13:01.193Z</time></trkpt><trkpt lat="51.6379067" lon="-9.489605"><ele>67.0</ele><time>2026-05-05T16:13:02.193Z</time></trkpt><trkpt lat="51.6379733" lon="-9.48929"><ele>65.5</ele><time>2026-05-05T16:13:03.193Z</time></trkpt><trkpt lat="51.638135" lon="-9.4887"><ele>64.0</ele><time>2026-05-05T16:13:05.193Z</time></trkpt><trkpt lat="51.6382133" lon="-9.4884"><ele>64.0</ele><time>2026-05-05T16:13:06.193Z</time></trkpt><trkpt lat="51.6382983" lon="-9.4880817"><ele>64.0</ele><time>2026-05-05T16:13:07.193Z</time></trkpt><trkpt lat="51.6383633" lon="-9.4877767"><ele>64.0</ele><time>2026-05-05T16:13:08.193Z</time></trkpt><trkpt lat="51.6384183" lon="-9.4874633"><ele>63.0</ele><time>2026-05-05T16:13:09.192Z</time></trkpt><trkpt lat="51.638465" lon="-9.4871533"><ele>62.0</ele><time>2026-05-05T16:13:10.193Z</time></trkpt><trkpt lat="51.6385167" lon="-9.4868483"><ele>61.0</ele><time>2026-05-05T16:13:11.193Z</time></trkpt><trkpt lat="51.6385633" lon="-9.486575"><ele>60.33333333333333</ele><time>2026-05-05T16:13:12.193Z</time></trkpt><trkpt lat="51.6386217" lon="-9.4863217"><ele>59.66666666666667</ele><time>2026-05-05T16:13:13.192Z</time></trkpt><trkpt lat="51.6386917" lon="-9.4860683"><ele>59.0</ele><time>2026-05-05T16:13:14.193Z</time></trkpt><trkpt lat="51.6387683" lon="-9.48582"><ele>61.0</ele><time>2026-05-05T16:13:15.192Z</time></trkpt><trkpt lat="51.638865" lon="-9.4855617"><ele>63.0</ele><time>2026-05-05T16:13:16.193Z</time></trkpt><trkpt lat="51.6389833" lon="-9.4853433"><ele>65.0</ele><time>2026-05-05T16:13:17.193Z</time></trkpt><trkpt lat="51.6390917" lon="-9.4851417"><ele>65.0</ele><time>2026-05-05T16:13:18.192Z</time></trkpt><trkpt lat="51.639205" lon="-9.4849017"><ele>65.0</ele><time>2026-05-05T16:13:19.193Z</time></trkpt><trkpt lat="51.6393133" lon="-9.4846533"><ele>65.0</ele><time>2026-05-05T16:13:20.193Z</time></trkpt><trkpt lat="51.6394167" lon="-9.4844"><ele>67.33333333333334</ele><time>2026-05-05T16:13:21.193Z</time></trkpt><trkpt lat="51.63955" lon="-9.4841083"><ele>69.66666666666667</ele><time>2026-05-05T16:13:22.193Z</time></trkpt><trkpt lat="51.6396767" lon="-9.4838217"><ele>72.0</ele><time>2026-05-05T16:13:23.192Z</time></trkpt><trkpt lat="51.6397733" lon="-9.4835267"><ele>72.0</ele><time>2026-05-05T16:13:24.192Z</time></trkpt><trkpt lat="51.6398533" lon="-9.4832317"><ele>72.0</ele><time>2026-05-05T16:13:25.193Z</time></trkpt><trkpt lat="51.639925" lon="-9.4829517"><ele>72.0</ele><time>2026-05-05T16:13:26.193Z</time></trkpt><trkpt lat="51.6400167" lon="-9.4826667"><ele>73.0</ele><time>2026-05-05T16:13:27.193Z</time></trkpt><trkpt lat="51.640135" lon="-9.482365"><ele>74.0</ele><time>2026-05-05T16:13:28.193Z</time></trkpt><trkpt lat="51.6402283" lon="-9.482115"><ele>75.0</ele><time>2026-05-05T16:13:29.192Z</time></trkpt><trkpt lat="51.64033" lon="-9.481875"><ele>75.0</ele><time>2026-05-05T16:13:30.193Z</time></trkpt><trkpt lat="51.6404583" lon="-9.48165"><ele>75.0</ele><time>2026-05-05T16:13:31.193Z</time></trkpt><trkpt lat="51.6405867" lon="-9.4814533"><ele>75.0</ele><time>2026-05-05T16:13:32.193Z</time></trkpt><trkpt lat="51.6407217" lon="-9.481275"><ele>75.0</ele><time>2026-05-05T16:13:33.193Z</time></trkpt><trkpt lat="51.6408767" lon="-9.4811417"><ele>75.0</ele><time>2026-05-05T16:13:34.192Z</time></trkpt><trkpt lat="51.6410267" lon="-9.48101"><ele>75.0</ele><time>2026-05-05T16:13:35.193Z</time></trkpt><trkpt lat="51.6411967" lon="-9.4809133"><ele>75.0</ele><time>2026-05-05T16:13:36.193Z</time></trkpt><trkpt lat="51.64138" lon="-9.4807783"><ele>75.0</ele><time>2026-05-05T16:13:37.192Z</time></trkpt><trkpt lat="51.6415567" lon="-9.480645"><ele>75.0</ele><time>2026-05-05T16:13:38.193Z</time></trkpt><trkpt lat="51.641735" lon="-9.480515"><ele>75.66666666666667</ele><time>2026-05-05T16:13:39.193Z</time></trkpt><trkpt lat="51.6419" lon="-9.4803767"><ele>76.33333333333334</ele><time>2026-05-05T16:13:40.192Z</time></trkpt><trkpt lat="51.6420583" lon="-9.4802433"><ele>77.0</ele><time>2026-05-05T16:13:41.193Z</time></trkpt><trkpt lat="51.6422067" lon="-9.4801283"><ele>77.0</ele><time>2026-05-05T16:13:42.192Z</time></trkpt><trkpt lat="51.6423533" lon="-9.480035"><ele>77.0</ele><time>2026-05-05T16:13:43.192Z</time></trkpt><trkpt lat="51.6425" lon="-9.4799633"><ele>77.0</ele><time>2026-05-05T16:13:44.192Z</time></trkpt><trkpt lat="51.6426567" lon="-9.47991"><ele>78.0</ele><time>2026-05-05T16:13:45.193Z</time></trkpt><trkpt lat="51.6428317" lon="-9.47989"><ele>79.0</ele><time>2026-05-05T16:13:46.193Z</time></trkpt><trkpt lat="51.6430317" lon="-9.4799083"><ele>80.0</ele><time>2026-05-05T16:13:47.192Z</time></trkpt><trkpt lat="51.6432417" lon="-9.4799533"><ele>80.0</ele><time>2026-05-05T16:13:48.193Z</time></trkpt><trkpt lat="51.64343" lon="-9.4800033"><ele>80.0</ele><time>2026-05-05T16:13:49.193Z</time></trkpt><trkpt lat="51.6436267" lon="-9.4800517"><ele>80.0</ele><time>2026-05-05T16:13:50.193Z</time></trkpt><trkpt lat="51.6438033" lon="-9.4801067"><ele>80.0</ele><time>2026-05-05T16:13:51.193Z</time></trkpt><trkpt lat="51.643985" lon="-9.4801733"><ele>80.0</ele><time>2026-05-05T16:13:52.193Z</time></trkpt><trkpt lat="51.64416" lon="-9.480205"><ele>80.0</ele><time>2026-05-05T16:13:53.193Z</time></trkpt><trkpt lat="51.6443383" lon="-9.4802167"><ele>80.33333333333334</ele><time>2026-05-05T16:13:54.192Z</time></trkpt><trkpt lat="51.6445117" lon="-9.4802133"><ele>80.66666666666667</ele><time>2026-05-05T16:13:55.193Z</time></trkpt><trkpt lat="51.644675" lon="-9.480225"><ele>81.0</ele><time>2026-05-05T16:13:56.193Z</time></trkpt><trkpt lat="51.6448383" lon="-9.4802467"><ele>81.0</ele><time>2026-05-05T16:13:57.193Z</time></trkpt><trkpt lat="51.644995" lon="-9.4803"><ele>81.0</ele><time>2026-05-05T16:13:58.193Z</time></trkpt><trkpt lat="51.6451483" lon="-9.4803967"><ele>81.0</ele><time>2026-05-05T16:13:59.192Z</time></trkpt><trkpt lat="51.6453017" lon="-9.4805167"><ele>82.0</ele><time>2026-05-05T16:14:00.193Z</time></trkpt><trkpt lat="51.6454583" lon="-9.480645"><ele>83.0</ele><time>2026-05-05T16:14:01.192Z</time></trkpt><trkpt lat="51.64563" lon="-9.4807633"><ele>84.0</ele><time>2026-05-05T16:14:02.192Z</time></trkpt><trkpt lat="51.6458117" lon="-9.4808433"><ele>84.0</ele><time>2026-05-05T16:14:03.192Z</time></trkpt><trkpt lat="51.645995" lon="-9.4809033"><ele>84.0</ele><time>2026-05-05T16:14:04.192Z</time></trkpt><trkpt lat="51.6461667" lon="-9.48094"><ele>84.0</ele><time>2026-05-05T16:14:05.193Z</time></trkpt><trkpt lat="51.6463533" lon="-9.4809983"><ele>83.0</ele><time>2026-05-05T16:14:06.193Z</time></trkpt><trkpt lat="51.64655" lon="-9.4810367"><ele>82.0</ele><time>2026-05-05T16:14:07.193Z</time></trkpt><trkpt lat="51.6467483" lon="-9.481055"><ele>81.0</ele><time>2026-05-05T16:14:08.193Z</time></trkpt><trkpt lat="51.6469517" lon="-9.4810383"><ele>79.66666666666667</ele><time>2026-05-05T16:14:09.193Z</time></trkpt><trkpt lat="51.6471667" lon="-9.481005"><ele>78.33333333333334</ele><time>2026-05-05T16:14:10.193Z</time></trkpt><trkpt lat="51.6473933" lon="-9.4809683"><ele>77.0</ele><time>2026-05-05T16:14:11.193Z</time></trkpt><trkpt lat="51.6476217" lon="-9.48093"><ele>77.5</ele><time>2026-05-05T16:14:12.192Z</time></trkpt><trkpt lat="51.647855" lon="-9.4808917"><ele>78.0</ele><time>2026-05-05T16:14:13.192Z</time></trkpt><trkpt lat="51.6480917" lon="-9.4808667"><ele>78.0</ele><time>2026-05-05T16:14:14.192Z</time></trkpt><trkpt lat="51.64832" lon="-9.480835"><ele>78.0</ele><time>2026-05-05T16:14:15.193Z</time></trkpt><trkpt lat="51.6485583" lon="-9.4808"><ele>79.0</ele><time>2026-05-05T16:14:16.193Z</time></trkpt><trkpt lat="51.6487983" lon="-9.480775"><ele>80.0</ele><time>2026-05-05T16:14:17.192Z</time></trkpt><trkpt lat="51.6490383" lon="-9.4807517"><ele>80.0</ele><time>2026-05-05T16:14:18.192Z</time></trkpt><trkpt lat="51.64927" lon="-9.4807217"><ele>80.0</ele><time>2026-05-05T16:14:19.193Z</time></trkpt><trkpt lat="51.649505" lon="-9.480695"><ele>80.33333333333334</ele><time>2026-05-05T16:14:20.193Z</time></trkpt><trkpt lat="51.6497283" lon="-9.4806667"><ele>80.66666666666667</ele><time>2026-05-05T16:14:21.193Z</time></trkpt><trkpt lat="51.6499483" lon="-9.480645"><ele>81.0</ele><time>2026-05-05T16:14:22.193Z</time></trkpt><trkpt lat="51.65017" lon="-9.480625"><ele>81.33333333333333</ele><time>2026-05-05T16:14:23.193Z</time></trkpt><trkpt lat="51.6503933" lon="-9.4806033"><ele>81.66666666666666</ele><time>2026-05-05T16:14:24.193Z</time></trkpt><trkpt lat="51.6506117" lon="-9.4805783"><ele>82.0</ele><time>2026-05-05T16:14:25.193Z</time></trkpt><trkpt lat="51.6508183" lon="-9.48054"><ele>82.0</ele><time>2026-05-05T16:14:26.193Z</time></trkpt><trkpt lat="51.6510317" lon="-9.4805233"><ele>82.0</ele><time>2026-05-05T16:14:27.193Z</time></trkpt><trkpt lat="51.6512383" lon="-9.4805067"><ele>82.0</ele><time>2026-05-05T16:14:28.192Z</time></trkpt><trkpt lat="51.6514483" lon="-9.4804717"><ele>84.0</ele><time>2026-05-05T16:14:29.193Z</time></trkpt><trkpt lat="51.65165" lon="-9.4804217"><ele>86.0</ele><time>2026-05-05T16:14:30.193Z</time></trkpt><trkpt lat="51.6518267" lon="-9.4803433"><ele>88.0</ele><time>2026-05-05T16:14:31.192Z</time></trkpt><trkpt lat="51.652" lon="-9.4802283"><ele>88.0</ele><time>2026-05-05T16:14:32.192Z</time></trkpt><trkpt lat="51.6521733" lon="-9.4800733"><ele>88.0</ele><time>2026-05-05T16:14:33.193Z</time></trkpt><trkpt lat="51.6523367" lon="-9.4799033"><ele>88.0</ele><time>2026-05-05T16:14:34.193Z</time></trkpt><trkpt lat="51.6525017" lon="-9.4797417"><ele>89.66666666666666</ele><time>2026-05-05T16:14:35.193Z</time></trkpt><trkpt lat="51.652665" lon="-9.4795933"><ele>91.33333333333333</ele><time>2026-05-05T16:14:36.193Z</time></trkpt><trkpt lat="51.6528317" lon="-9.4794667"><ele>93.0</ele><time>2026-05-05T16:14:37.193Z</time></trkpt><trkpt lat="51.6529883" lon="-9.4793417"><ele>89.66666666666667</ele><time>2026-05-05T16:14:38.193Z</time></trkpt><trkpt lat="51.653135" lon="-9.4792233"><ele>86.33333333333334</ele><time>2026-05-05T16:14:39.192Z</time></trkpt><trkpt lat="51.65327" lon="-9.47909"><ele>83.0</ele><time>2026-05-05T16:14:40.193Z</time></trkpt><trkpt lat="51.6533933" lon="-9.4789217"><ele>84.66666666666667</ele><time>2026-05-05T16:14:41.193Z</time></trkpt><trkpt lat="51.65351" lon="-9.4787317"><ele>86.33333333333333</ele><time>2026-05-05T16:14:42.192Z</time></trkpt><trkpt lat="51.6536333" lon="-9.47852"><ele>88.0</ele><time>2026-05-05T16:14:43.193Z</time></trkpt><trkpt lat="51.653755" lon="-9.47828"><ele>83.33333333333333</ele><time>2026-05-05T16:14:44.193Z</time></trkpt><trkpt lat="51.6538683" lon="-9.4780217"><ele>78.66666666666667</ele><time>2026-05-05T16:14:45.193Z</time></trkpt><trkpt lat="51.65398" lon="-9.4777517"><ele>74.0</ele><time>2026-05-05T16:14:46.193Z</time></trkpt><trkpt lat="51.6540917" lon="-9.4774733"><ele>74.0</ele><time>2026-05-05T16:14:47.192Z</time></trkpt><trkpt lat="51.6541983" lon="-9.47719"><ele>74.0</ele><time>2026-05-05T16:14:48.192Z</time></trkpt><trkpt lat="51.65431" lon="-9.4769267"><ele>74.0</ele><time>2026-05-05T16:14:49.192Z</time></trkpt><trkpt lat="51.6544167" lon="-9.4766533"><ele>72.33333333333334</ele><time>2026-05-05T16:14:50.193Z</time></trkpt><trkpt lat="51.65452" lon="-9.4764117"><ele>70.66666666666667</ele><time>2026-05-05T16:14:51.192Z</time></trkpt><trkpt lat="51.6546117" lon="-9.4761667"><ele>69.0</ele><time>2026-05-05T16:14:52.192Z</time></trkpt><trkpt lat="51.6546933" lon="-9.4759483"><ele>69.0</ele><time>2026-05-05T16:14:53.192Z</time></trkpt><trkpt lat="51.6547817" lon="-9.475735"><ele>69.0</ele><time>2026-05-05T16:14:54.193Z</time></trkpt><trkpt lat="51.654875" lon="-9.4755033"><ele>69.0</ele><time>2026-05-05T16:14:55.192Z</time></trkpt><trkpt lat="51.6549683" lon="-9.4752483"><ele>69.0</ele><time>2026-05-05T16:14:56.193Z</time></trkpt><trkpt lat="51.6550567" lon="-9.4749633"><ele>69.0</ele><time>2026-05-05T16:14:57.193Z</time></trkpt><trkpt lat="51.6551183" lon="-9.4746867"><ele>69.0</ele><time>2026-05-05T16:14:58.193Z</time></trkpt><trkpt lat="51.6551967" lon="-9.474385"><ele>69.0</ele><time>2026-05-05T16:14:59.193Z</time></trkpt><trkpt lat="51.6552633" lon="-9.474075"><ele>69.0</ele><time>2026-05-05T16:15:00.193Z</time></trkpt><trkpt lat="51.65534" lon="-9.473775"><ele>69.0</ele><time>2026-05-05T16:15:01.193Z</time></trkpt><trkpt lat="51.6554267" lon="-9.4734767"><ele>68.33333333333333</ele><time>2026-05-05T16:15:02.193Z</time></trkpt><trkpt lat="51.6555133" lon="-9.4731833"><ele>67.66666666666666</ele><time>2026-05-05T16:15:03.193Z</time></trkpt><trkpt lat="51.65562" lon="-9.472885"><ele>67.0</ele><time>2026-05-05T16:15:04.192Z</time></trkpt><trkpt lat="51.6557267" lon="-9.4725967"><ele>67.0</ele><time>2026-05-05T16:15:05.193Z</time></trkpt><trkpt lat="51.6558317" lon="-9.4723133"><ele>67.0</ele><time>2026-05-05T16:15:06.193Z</time></trkpt><trkpt lat="51.6559317" lon="-9.4720417"><ele>67.0</ele><time>2026-05-05T16:15:07.193Z</time></trkpt><trkpt lat="51.65603" lon="-9.4717683"><ele>65.0</ele><time>2026-05-05T16:15:08.192Z</time></trkpt><trkpt lat="51.656135" lon="-9.471505"><ele>63.0</ele><time>2026-05-05T16:15:09.193Z</time></trkpt><trkpt lat="51.6562483" lon="-9.471255"><ele>61.0</ele><time>2026-05-05T16:15:10.192Z</time></trkpt><trkpt lat="51.6563683" lon="-9.47101"><ele>61.0</ele><time>2026-05-05T16:15:11.193Z</time></trkpt><trkpt lat="51.6565" lon="-9.470765"><ele>61.0</ele><time>2026-05-05T16:15:12.193Z</time></trkpt><trkpt lat="51.6566433" lon="-9.4705767"><ele>61.0</ele><time>2026-05-05T16:15:13.193Z</time></trkpt><trkpt lat="51.6568283" lon="-9.4703667"><ele>61.0</ele><time>2026-05-05T16:15:14.193Z</time></trkpt><trkpt lat="51.657" lon="-9.470175"><ele>61.0</ele><time>2026-05-05T16:15:15.193Z</time></trkpt><trkpt lat="51.6571483" lon="-9.4699933"><ele>61.0</ele><time>2026-05-05T16:15:16.193Z</time></trkpt><trkpt lat="51.657275" lon="-9.46983"><ele>61.0</ele><time>2026-05-05T16:15:17.193Z</time></trkpt><trkpt lat="51.6573783" lon="-9.46969"><ele>61.0</ele><time>2026-05-05T16:15:18.193Z</time></trkpt><trkpt lat="51.657465" lon="-9.4695533"><ele>61.0</ele><time>2026-05-05T16:15:19.193Z</time></trkpt><trkpt lat="51.6575367" lon="-9.4694283"><ele>61.0</ele><time>2026-05-05T16:15:20.192Z</time></trkpt><trkpt lat="51.6576" lon="-9.4693083"><ele>60.83333333333333</ele><time>2026-05-05T16:15:21.193Z</time></trkpt><trkpt lat="51.6576533" lon="-9.4692067"><ele>60.666666666666664</ele><time>2026-05-05T16:15:22.193Z</time></trkpt><trkpt lat="51.6577067" lon="-9.4691133"><ele>60.5</ele><time>2026-05-05T16:15:23.192Z</time></trkpt><trkpt lat="51.657755" lon="-9.4690233"><ele>60.33333333333333</ele><time>2026-05-05T16:15:24.193Z</time></trkpt><trkpt lat="51.6578033" lon="-9.4689283"><ele>60.166666666666664</ele><time>2026-05-05T16:15:25.193Z</time></trkpt><trkpt lat="51.6578533" lon="-9.4688317"><ele>60.0</ele><time>2026-05-05T16:15:26.193Z</time></trkpt><trkpt lat="51.65791" lon="-9.4687233"><ele>60.0</ele><time>2026-05-05T16:15:27.193Z</time></trkpt><trkpt lat="51.6579767" lon="-9.4686067"><ele>60.0</ele><time>2026-05-05T16:15:28.192Z</time></trkpt><trkpt lat="51.6580467" lon="-9.4684817"><ele>60.0</ele><time>2026-05-05T16:15:29.193Z</time></trkpt><trkpt lat="51.658135" lon="-9.4683583"><ele>60.0</ele><time>2026-05-05T16:15:30.193Z</time></trkpt><trkpt lat="51.6582183" lon="-9.4682317"><ele>60.0</ele><time>2026-05-05T16:15:31.193Z</time></trkpt><trkpt lat="51.6583017" lon="-9.4681233"><ele>60.0</ele><time>2026-05-05T16:15:32.193Z</time></trkpt><trkpt lat="51.658375" lon="-9.4680383"><ele>60.0</ele><time>2026-05-05T16:15:33.193Z</time></trkpt><trkpt lat="51.6584433" lon="-9.4679733"><ele>60.0</ele><time>2026-05-05T16:15:34.193Z</time></trkpt><trkpt lat="51.6585" lon="-9.4679267"><ele>60.0</ele><time>2026-05-05T16:15:35.192Z</time></trkpt><trkpt lat="51.6585767" lon="-9.4678567"><ele>60.0</ele><time>2026-05-05T16:15:37.193Z</time></trkpt><trkpt lat="51.658685" lon="-9.4678217"><ele>60.0</ele><time>2026-05-05T16:15:45.193Z</time></trkpt><trkpt lat="51.6587417" lon="-9.4679217"><ele>59.8</ele><time>2026-05-05T16:15:47.193Z</time></trkpt><trkpt lat="51.6587817" lon="-9.4680017"><ele>59.6</ele><time>2026-05-05T16:15:48.193Z</time></trkpt><trkpt lat="51.6588267" lon="-9.46811"><ele>59.400000000000006</ele><time>2026-05-05T16:15:49.193Z</time></trkpt><trkpt lat="51.6588867" lon="-9.46826"><ele>59.2</ele><time>2026-05-05T16:15:50.193Z</time></trkpt><trkpt lat="51.6589583" lon="-9.4684167"><ele>59.0</ele><time>2026-05-05T16:15:51.193Z</time></trkpt><trkpt lat="51.65907" lon="-9.4686267"><ele>58.66666666666667</ele><time>2026-05-05T16:15:52.193Z</time></trkpt><trkpt lat="51.65919" lon="-9.4688467"><ele>58.33333333333333</ele><time>2026-05-05T16:15:53.193Z</time></trkpt><trkpt lat="51.6593167" lon="-9.4690367"><ele>58.0</ele><time>2026-05-05T16:15:54.193Z</time></trkpt><trkpt lat="51.6594367" lon="-9.4692317"><ele>57.666666666666664</ele><time>2026-05-05T16:15:55.193Z</time></trkpt><trkpt lat="51.65956" lon="-9.469435"><ele>57.33333333333333</ele><time>2026-05-05T16:15:56.193Z</time></trkpt><trkpt lat="51.659685" lon="-9.46962"><ele>57.0</ele><time>2026-05-05T16:15:57.193Z</time></trkpt><trkpt lat="51.6598133" lon="-9.4698083"><ele>56.33333333333333</ele><time>2026-05-05T16:15:58.193Z</time></trkpt><trkpt lat="51.6599483" lon="-9.4700067"><ele>55.666666666666664</ele><time>2026-05-05T16:15:59.192Z</time></trkpt><trkpt lat="51.6600783" lon="-9.4702067"><ele>55.0</ele><time>2026-05-05T16:16:00.193Z</time></trkpt><trkpt lat="51.6602217" lon="-9.4704067"><ele>54.0</ele><time>2026-05-05T16:16:01.193Z</time></trkpt><trkpt lat="51.6603617" lon="-9.4706"><ele>53.0</ele><time>2026-05-05T16:16:02.193Z</time></trkpt><trkpt lat="51.6604983" lon="-9.470795"><ele>52.0</ele><time>2026-05-05T16:16:03.192Z</time></trkpt><trkpt lat="51.6606283" lon="-9.470995"><ele>52.0</ele><time>2026-05-05T16:16:04.193Z</time></trkpt><trkpt lat="51.66076" lon="-9.4711817"><ele>52.0</ele><time>2026-05-05T16:16:05.192Z</time></trkpt><trkpt lat="51.6609033" lon="-9.471385"><ele>52.0</ele><time>2026-05-05T16:16:06.193Z</time></trkpt><trkpt lat="51.6610483" lon="-9.471595"><ele>51.666666666666664</ele><time>2026-05-05T16:16:07.193Z</time></trkpt><trkpt lat="51.6611933" lon="-9.4718067"><ele>51.33333333333333</ele><time>2026-05-05T16:16:08.193Z</time></trkpt><trkpt lat="51.661335" lon="-9.47201"><ele>51.0</ele><time>2026-05-05T16:16:09.192Z</time></trkpt><trkpt lat="51.6614767" lon="-9.47222"><ele>50.66666666666667</ele><time>2026-05-05T16:16:10.193Z</time></trkpt><trkpt lat="51.6616267" lon="-9.4724333"><ele>50.333333333333336</ele><time>2026-05-05T16:16:11.192Z</time></trkpt><trkpt lat="51.6617667" lon="-9.4726383"><ele>50.0</ele><time>2026-05-05T16:16:12.192Z</time></trkpt><trkpt lat="51.66192" lon="-9.4728583"><ele>50.66666666666667</ele><time>2026-05-05T16:16:13.193Z</time></trkpt><trkpt lat="51.66207" lon="-9.47308"><ele>51.33333333333333</ele><time>2026-05-05T16:16:14.192Z</time></trkpt><trkpt lat="51.662215" lon="-9.4732867"><ele>52.0</ele><time>2026-05-05T16:16:15.192Z</time></trkpt><trkpt lat="51.6623483" lon="-9.47347"><ele>52.0</ele><time>2026-05-05T16:16:16.193Z</time></trkpt><trkpt lat="51.662495" lon="-9.4736567"><ele>52.0</ele><time>2026-05-05T16:16:17.192Z</time></trkpt><trkpt lat="51.6626533" lon="-9.47385"><ele>52.0</ele><time>2026-05-05T16:16:18.193Z</time></trkpt><trkpt lat="51.6628167" lon="-9.47403"><ele>53.0</ele><time>2026-05-05T16:16:19.192Z</time></trkpt><trkpt lat="51.66297" lon="-9.474195"><ele>54.0</ele><time>2026-05-05T16:16:20.192Z</time></trkpt><trkpt lat="51.663125" lon="-9.4743667"><ele>55.0</ele><time>2026-05-05T16:16:21.192Z</time></trkpt><trkpt lat="51.66329" lon="-9.4745483"><ele>54.33333333333333</ele><time>2026-05-05T16:16:22.192Z</time></trkpt><trkpt lat="51.6634783" lon="-9.4747117"><ele>53.66666666666667</ele><time>2026-05-05T16:16:23.192Z</time></trkpt><trkpt lat="51.663655" lon="-9.4748967"><ele>53.0</ele><time>2026-05-05T16:16:24.192Z</time></trkpt><trkpt lat="51.663835" lon="-9.4750933"><ele>53.0</ele><time>2026-05-05T16:16:25.193Z</time></trkpt><trkpt lat="51.66402" lon="-9.4753"><ele>53.0</ele><time>2026-05-05T16:16:26.192Z</time></trkpt><trkpt lat="51.6642033" lon="-9.475505"><ele>53.0</ele><time>2026-05-05T16:16:27.192Z</time></trkpt><trkpt lat="51.6644017" lon="-9.4757183"><ele>53.5</ele><time>2026-05-05T16:16:28.192Z</time></trkpt><trkpt lat="51.6646067" lon="-9.4759333"><ele>54.0</ele><time>2026-05-05T16:16:29.193Z</time></trkpt><trkpt lat="51.66481" lon="-9.4761517"><ele>52.0</ele><time>2026-05-05T16:16:30.193Z</time></trkpt><trkpt lat="51.6650283" lon="-9.476365"><ele>50.0</ele><time>2026-05-05T16:16:31.193Z</time></trkpt><trkpt lat="51.6652367" lon="-9.476565"><ele>52.5</ele><time>2026-05-05T16:16:32.193Z</time></trkpt><trkpt lat="51.665435" lon="-9.47678"><ele>55.0</ele><time>2026-05-05T16:16:33.193Z</time></trkpt><trkpt lat="51.6656217" lon="-9.4769867"><ele>54.666666666666664</ele><time>2026-05-05T16:16:34.193Z</time></trkpt><trkpt lat="51.6658" lon="-9.47718"><ele>54.33333333333333</ele><time>2026-05-05T16:16:35.193Z</time></trkpt><trkpt lat="51.6659667" lon="-9.4773583"><ele>54.0</ele><time>2026-05-05T16:16:36.193Z</time></trkpt><trkpt lat="51.6661183" lon="-9.4775317"><ele>56.33333333333333</ele><time>2026-05-05T16:16:37.192Z</time></trkpt><trkpt lat="51.6662683" lon="-9.477695"><ele>58.666666666666664</ele><time>2026-05-05T16:16:38.193Z</time></trkpt><trkpt lat="51.6664133" lon="-9.477845"><ele>61.0</ele><time>2026-05-05T16:16:39.193Z</time></trkpt><trkpt lat="51.666565" lon="-9.4779883"><ele>61.0</ele><time>2026-05-05T16:16:40.192Z</time></trkpt><trkpt lat="51.6667333" lon="-9.4781367"><ele>61.0</ele><time>2026-05-05T16:16:41.193Z</time></trkpt><trkpt lat="51.6669033" lon="-9.4782567"><ele>61.0</ele><time>2026-05-05T16:16:42.193Z</time></trkpt><trkpt lat="51.6670817" lon="-9.47837"><ele>59.0</ele><time>2026-05-05T16:16:43.193Z</time></trkpt><trkpt lat="51.6672717" lon="-9.4784767"><ele>57.0</ele><time>2026-05-05T16:16:44.192Z</time></trkpt><trkpt lat="51.6674717" lon="-9.4785683"><ele>55.0</ele><time>2026-05-05T16:16:45.193Z</time></trkpt><trkpt lat="51.6676883" lon="-9.478635"><ele>50.5</ele><time>2026-05-05T16:16:46.192Z</time></trkpt><trkpt lat="51.6679233" lon="-9.4786417"><ele>46.0</ele><time>2026-05-05T16:16:47.193Z</time></trkpt><trkpt lat="51.6681517" lon="-9.47863"><ele>46.0</ele><time>2026-05-05T16:16:48.193Z</time></trkpt><trkpt lat="51.6683783" lon="-9.4785667"><ele>46.0</ele><time>2026-05-05T16:16:49.193Z</time></trkpt><trkpt lat="51.6686133" lon="-9.4784633"><ele>41.0</ele><time>2026-05-05T16:16:50.193Z</time></trkpt><trkpt lat="51.6688483" lon="-9.4782967"><ele>36.0</ele><time>2026-05-05T16:16:51.193Z</time></trkpt><trkpt lat="51.669095" lon="-9.4781617"><ele>36.0</ele><time>2026-05-05T16:16:52.192Z</time></trkpt><trkpt lat="51.669335" lon="-9.4780167"><ele>36.0</ele><time>2026-05-05T16:16:53.192Z</time></trkpt><trkpt lat="51.6695633" lon="-9.4778683"><ele>35.0</ele><time>2026-05-05T16:16:54.193Z</time></trkpt><trkpt lat="51.66978" lon="-9.477725"><ele>34.0</ele><time>2026-05-05T16:16:55.193Z</time></trkpt><trkpt lat="51.66998" lon="-9.47759"><ele>34.0</ele><time>2026-05-05T16:16:56.192Z</time></trkpt><trkpt lat="51.6701633" lon="-9.4774567"><ele>34.0</ele><time>2026-05-05T16:16:57.193Z</time></trkpt><trkpt lat="51.6703317" lon="-9.4773317"><ele>34.0</ele><time>2026-05-05T16:16:58.193Z</time></trkpt><trkpt lat="51.670495" lon="-9.4772167"><ele>33.66666666666667</ele><time>2026-05-05T16:16:59.193Z</time></trkpt><trkpt lat="51.670645" lon="-9.4770983"><ele>33.333333333333336</ele><time>2026-05-05T16:17:00.193Z</time></trkpt><trkpt lat="51.67079" lon="-9.4770017"><ele>33.0</ele><time>2026-05-05T16:17:01.193Z</time></trkpt><trkpt lat="51.670925" lon="-9.4769117"><ele>33.0</ele><time>2026-05-05T16:17:02.193Z</time></trkpt><trkpt lat="51.6710433" lon="-9.4767917"><ele>33.0</ele><time>2026-05-05T16:17:03.193Z</time></trkpt><trkpt lat="51.67116" lon="-9.4767067"><ele>33.0</ele><time>2026-05-05T16:17:04.193Z</time></trkpt><trkpt lat="51.6712333" lon="-9.47656"><ele>33.0</ele><time>2026-05-05T16:17:05.193Z</time></trkpt><trkpt lat="51.67134" lon="-9.4764933"><ele>32.5</ele><time>2026-05-05T16:17:06.193Z</time></trkpt><trkpt lat="51.6714517" lon="-9.4764267"><ele>32.0</ele><time>2026-05-05T16:17:07.192Z</time></trkpt><trkpt lat="51.6715717" lon="-9.4763583"><ele>31.5</ele><time>2026-05-05T16:17:08.193Z</time></trkpt><trkpt lat="51.6716967" lon="-9.4762867"><ele>31.0</ele><time>2026-05-05T16:17:09.192Z</time></trkpt><trkpt lat="51.6718283" lon="-9.476205"><ele>29.333333333333336</ele><time>2026-05-05T16:17:10.192Z</time></trkpt><trkpt lat="51.6719717" lon="-9.47613"><ele>27.666666666666664</ele><time>2026-05-05T16:17:11.193Z</time></trkpt><trkpt lat="51.67212" lon="-9.47606"><ele>26.0</ele><time>2026-05-05T16:17:12.193Z</time></trkpt><trkpt lat="51.6722633" lon="-9.476"><ele>26.0</ele><time>2026-05-05T16:17:13.192Z</time></trkpt><trkpt lat="51.6724083" lon="-9.475935"><ele>26.0</ele><time>2026-05-05T16:17:14.192Z</time></trkpt><trkpt lat="51.67256" lon="-9.4758683"><ele>26.0</ele><time>2026-05-05T16:17:15.193Z</time></trkpt><trkpt lat="51.6727217" lon="-9.4757867"><ele>24.333333333333332</ele><time>2026-05-05T16:17:16.193Z</time></trkpt><trkpt lat="51.67289" lon="-9.4756883"><ele>22.666666666666664</ele><time>2026-05-05T16:17:17.193Z</time></trkpt><trkpt lat="51.6730683" lon="-9.4755833"><ele>21.0</ele><time>2026-05-05T16:17:18.193Z</time></trkpt><trkpt lat="51.6732483" lon="-9.4754733"><ele>21.333333333333332</ele><time>2026-05-05T16:17:19.193Z</time></trkpt><trkpt lat="51.6734367" lon="-9.475375"><ele>21.666666666666664</ele><time>2026-05-05T16:17:20.193Z</time></trkpt><trkpt lat="51.6736283" lon="-9.47528"><ele>22.0</ele><time>2026-05-05T16:17:21.193Z</time></trkpt><trkpt lat="51.6738133" lon="-9.4751967"><ele>23.333333333333332</ele><time>2026-05-05T16:17:22.193Z</time></trkpt><trkpt lat="51.674" lon="-9.4751017"><ele>24.666666666666664</ele><time>2026-05-05T16:17:23.193Z</time></trkpt><trkpt lat="51.6741817" lon="-9.4749583"><ele>26.0</ele><time>2026-05-05T16:17:24.192Z</time></trkpt><trkpt lat="51.67432" lon="-9.4747917"><ele>24.666666666666664</ele><time>2026-05-05T16:17:25.193Z</time></trkpt><trkpt lat="51.6744533" lon="-9.474635"><ele>23.333333333333332</ele><time>2026-05-05T16:17:26.193Z</time></trkpt><trkpt lat="51.6745883" lon="-9.4745067"><ele>22.0</ele><time>2026-05-05T16:17:27.193Z</time></trkpt><trkpt lat="51.6747167" lon="-9.47439"><ele>22.0</ele><time>2026-05-05T16:17:28.192Z</time></trkpt><trkpt lat="51.674835" lon="-9.47427"><ele>22.0</ele><time>2026-05-05T16:17:29.193Z</time></trkpt><trkpt lat="51.6749567" lon="-9.4741717"><ele>22.0</ele><time>2026-05-05T16:17:30.192Z</time></trkpt><trkpt lat="51.6750767" lon="-9.4740833"><ele>22.0</ele><time>2026-05-05T16:17:31.192Z</time></trkpt><trkpt lat="51.6752017" lon="-9.473995"><ele>22.75</ele><time>2026-05-05T16:17:32.193Z</time></trkpt><trkpt lat="51.675325" lon="-9.4738833"><ele>23.5</ele><time>2026-05-05T16:17:33.193Z</time></trkpt><trkpt lat="51.675445" lon="-9.4737617"><ele>24.25</ele><time>2026-05-05T16:17:34.193Z</time></trkpt><trkpt lat="51.6755533" lon="-9.4736267"><ele>25.0</ele><time>2026-05-05T16:17:35.193Z</time></trkpt><trkpt lat="51.675675" lon="-9.4735183"><ele>22.0</ele><time>2026-05-05T16:17:36.193Z</time></trkpt><trkpt lat="51.675805" lon="-9.473415"><ele>19.0</ele><time>2026-05-05T16:17:37.192Z</time></trkpt><trkpt lat="51.6759417" lon="-9.4733167"><ele>16.0</ele><time>2026-05-05T16:17:38.193Z</time></trkpt><trkpt lat="51.6760833" lon="-9.47321"><ele>16.5</ele><time>2026-05-05T16:17:39.193Z</time></trkpt><trkpt lat="51.676225" lon="-9.4731067"><ele>17.0</ele><time>2026-05-05T16:17:40.192Z</time></trkpt><trkpt lat="51.67636" lon="-9.4730033"><ele>17.5</ele><time>2026-05-05T16:17:41.192Z</time></trkpt><trkpt lat="51.6764867" lon="-9.4728933"><ele>18.0</ele><time>2026-05-05T16:17:42.192Z</time></trkpt><trkpt lat="51.6766033" lon="-9.4727817"><ele>15.5</ele><time>2026-05-05T16:17:43.193Z</time></trkpt><trkpt lat="51.6767117" lon="-9.4726667"><ele>13.0</ele><time>2026-05-05T16:17:44.193Z</time></trkpt><trkpt lat="51.6768133" lon="-9.472555"><ele>10.5</ele><time>2026-05-05T16:17:45.193Z</time></trkpt><trkpt lat="51.67688" lon="-9.4724183"><ele>8.0</ele><time>2026-05-05T16:17:46.192Z</time></trkpt><trkpt lat="51.67693" lon="-9.4722833"><ele>8.0</ele><time>2026-05-05T16:17:47.193Z</time></trkpt><trkpt lat="51.6769933" lon="-9.4721233"><ele>8.0</ele><time>2026-05-05T16:17:48.193Z</time></trkpt><trkpt lat="51.6770483" lon="-9.4719633"><ele>8.0</ele><time>2026-05-05T16:17:49.193Z</time></trkpt><trkpt lat="51.6770933" lon="-9.4718033"><ele>8.0</ele><time>2026-05-05T16:17:50.193Z</time></trkpt><trkpt lat="51.677125" lon="-9.4716367"><ele>8.0</ele><time>2026-05-05T16:17:51.193Z</time></trkpt><trkpt lat="51.6771467" lon="-9.4714817"><ele>7.0</ele><time>2026-05-05T16:17:52.192Z</time></trkpt><trkpt lat="51.6771583" lon="-9.47133"><ele>6.000000000000001</ele><time>2026-05-05T16:17:53.192Z</time></trkpt><trkpt lat="51.67717" lon="-9.4711883"><ele>5.0</ele><time>2026-05-05T16:17:54.193Z</time></trkpt><trkpt lat="51.67718" lon="-9.4710383"><ele>4.0</ele><time>2026-05-05T16:17:55.192Z</time></trkpt><trkpt lat="51.6771967" lon="-9.4708833"><ele>3.0</ele><time>2026-05-05T16:17:56.193Z</time></trkpt><trkpt lat="51.6772133" lon="-9.4707233"><ele>2.75</ele><time>2026-05-05T16:17:57.193Z</time></trkpt><trkpt lat="51.6772317" lon="-9.470555"><ele>2.5</ele><time>2026-05-05T16:17:58.193Z</time></trkpt><trkpt lat="51.6772517" lon="-9.4703733"><ele>2.25</ele><time>2026-05-05T16:17:59.193Z</time></trkpt><trkpt lat="51.6772717" lon="-9.4701733"><ele>2.0</ele><time>2026-05-05T16:18:00.193Z</time></trkpt><trkpt lat="51.6772933" lon="-9.46997"><ele>2.0</ele><time>2026-05-05T16:18:01.193Z</time></trkpt><trkpt lat="51.677315" lon="-9.4697767"><ele>2.0</ele><time>2026-05-05T16:18:02.193Z</time></trkpt><trkpt lat="51.6773383" lon="-9.4695917"><ele>2.0</ele><time>2026-05-05T16:18:03.193Z</time></trkpt><trkpt lat="51.6773567" lon="-9.4694033"><ele>2.0</ele><time>2026-05-05T16:18:04.193Z</time></trkpt><trkpt lat="51.6773783" lon="-9.4691917"><ele>3.0</ele><time>2026-05-05T16:18:05.192Z</time></trkpt><trkpt lat="51.6773783" lon="-9.46898"><ele>4.0</ele><time>2026-05-05T16:18:06.193Z</time></trkpt><trkpt lat="51.6773617" lon="-9.4687683"><ele>5.0</ele><time>2026-05-05T16:18:07.193Z</time></trkpt><trkpt lat="51.6773767" lon="-9.4685567"><ele>6.0</ele><time>2026-05-05T16:18:08.193Z</time></trkpt><trkpt lat="51.6773683" lon="-9.4683433"><ele>6.25</ele><time>2026-05-05T16:18:09.192Z</time></trkpt><trkpt lat="51.67737" lon="-9.4681317"><ele>6.5</ele><time>2026-05-05T16:18:10.192Z</time></trkpt><trkpt lat="51.6773883" lon="-9.467915"><ele>6.75</ele><time>2026-05-05T16:18:11.193Z</time></trkpt><trkpt lat="51.677425" lon="-9.46769"><ele>7.0</ele><time>2026-05-05T16:18:12.193Z</time></trkpt><trkpt lat="51.677485" lon="-9.4674683"><ele>7.0</ele><time>2026-05-05T16:18:13.192Z</time></trkpt><trkpt lat="51.6775583" lon="-9.4672317"><ele>7.0</ele><time>2026-05-05T16:18:14.193Z</time></trkpt><trkpt lat="51.677645" lon="-9.4669983"><ele>7.0</ele><time>2026-05-05T16:18:15.192Z</time></trkpt><trkpt lat="51.677745" lon="-9.46676"><ele>5.666666666666667</ele><time>2026-05-05T16:18:16.193Z</time></trkpt><trkpt lat="51.6778433" lon="-9.4665383"><ele>4.333333333333334</ele><time>2026-05-05T16:18:17.192Z</time></trkpt><trkpt lat="51.6779317" lon="-9.466335"><ele>3.0</ele><time>2026-05-05T16:18:18.193Z</time></trkpt><trkpt lat="51.6780217" lon="-9.46615"><ele>3.0</ele><time>2026-05-05T16:18:19.193Z</time></trkpt><trkpt lat="51.67811" lon="-9.465975"><ele>3.0</ele><time>2026-05-05T16:18:20.193Z</time></trkpt><trkpt lat="51.6781817" lon="-9.4658033"><ele>3.0</ele><time>2026-05-05T16:18:21.193Z</time></trkpt><trkpt lat="51.6782633" lon="-9.46564"><ele>3.0</ele><time>2026-05-05T16:18:22.193Z</time></trkpt><trkpt lat="51.678345" lon="-9.4654933"><ele>4.5</ele><time>2026-05-05T16:18:23.193Z</time></trkpt><trkpt lat="51.6784217" lon="-9.46535"><ele>6.0</ele><time>2026-05-05T16:18:24.192Z</time></trkpt><trkpt lat="51.6785" lon="-9.4652217"><ele>7.5</ele><time>2026-05-05T16:18:25.193Z</time></trkpt><trkpt lat="51.6785517" lon="-9.465045"><ele>9.0</ele><time>2026-05-05T16:18:26.192Z</time></trkpt><trkpt lat="51.67856" lon="-9.4648633"><ele>9.0</ele><time>2026-05-05T16:18:27.192Z</time></trkpt><trkpt lat="51.6785667" lon="-9.4646467"><ele>9.0</ele><time>2026-05-05T16:18:28.193Z</time></trkpt><trkpt lat="51.6785483" lon="-9.4644267"><ele>9.0</ele><time>2026-05-05T16:18:29.193Z</time></trkpt><trkpt lat="51.67853" lon="-9.4642317"><ele>9.0</ele><time>2026-05-05T16:18:30.193Z</time></trkpt><trkpt lat="51.6785067" lon="-9.4640517"><ele>10.2</ele><time>2026-05-05T16:18:31.193Z</time></trkpt><trkpt lat="51.6784917" lon="-9.4638783"><ele>11.4</ele><time>2026-05-05T16:18:32.193Z</time></trkpt><trkpt lat="51.678485" lon="-9.4637033"><ele>12.6</ele><time>2026-05-05T16:18:33.193Z</time></trkpt><trkpt lat="51.6784983" lon="-9.4635383"><ele>13.8</ele><time>2026-05-05T16:18:34.192Z</time></trkpt><trkpt lat="51.6785167" lon="-9.4633867"><ele>15.0</ele><time>2026-05-05T16:18:35.193Z</time></trkpt><trkpt lat="51.678545" lon="-9.463225"><ele>15.6</ele><time>2026-05-05T16:18:36.193Z</time></trkpt><trkpt lat="51.6785867" lon="-9.4630783"><ele>16.2</ele><time>2026-05-05T16:18:37.193Z</time></trkpt><trkpt lat="51.678645" lon="-9.4629267"><ele>16.8</ele><time>2026-05-05T16:18:38.193Z</time></trkpt><trkpt lat="51.678705" lon="-9.4627833"><ele>17.4</ele><time>2026-05-05T16:18:39.193Z</time></trkpt><trkpt lat="51.6787567" lon="-9.462645"><ele>18.0</ele><time>2026-05-05T16:18:40.193Z</time></trkpt><trkpt lat="51.6788117" lon="-9.46251"><ele>18.0</ele><time>2026-05-05T16:18:41.192Z</time></trkpt><trkpt lat="51.6788667" lon="-9.462385"><ele>18.0</ele><time>2026-05-05T16:18:42.193Z</time></trkpt><trkpt lat="51.6789283" lon="-9.4622567"><ele>18.0</ele><time>2026-05-05T16:18:43.193Z</time></trkpt><trkpt lat="51.6789983" lon="-9.462135"><ele>18.0</ele><time>2026-05-05T16:18:44.193Z</time></trkpt><trkpt lat="51.6790717" lon="-9.4620017"><ele>18.0</ele><time>2026-05-05T16:18:45.192Z</time></trkpt><trkpt lat="51.6791517" lon="-9.4618667"><ele>18.0</ele><time>2026-05-05T16:18:46.192Z</time></trkpt><trkpt lat="51.679235" lon="-9.46173"><ele>18.0</ele><time>2026-05-05T16:18:47.192Z</time></trkpt><trkpt lat="51.6793133" lon="-9.46158"><ele>18.0</ele><time>2026-05-05T16:18:48.193Z</time></trkpt><trkpt lat="51.67939" lon="-9.4614133"><ele>18.0</ele><time>2026-05-05T16:18:49.193Z</time></trkpt><trkpt lat="51.67946" lon="-9.4612367"><ele>15.0</ele><time>2026-05-05T16:18:50.193Z</time></trkpt><trkpt lat="51.679525" lon="-9.461065"><ele>12.0</ele><time>2026-05-05T16:18:51.192Z</time></trkpt><trkpt lat="51.67959" lon="-9.4608983"><ele>9.0</ele><time>2026-05-05T16:18:52.192Z</time></trkpt><trkpt lat="51.6796483" lon="-9.4607317"><ele>6.0</ele><time>2026-05-05T16:18:53.192Z</time></trkpt><trkpt lat="51.6797017" lon="-9.460555"><ele>7.25</ele><time>2026-05-05T16:18:54.193Z</time></trkpt><trkpt lat="51.6797433" lon="-9.4603733"><ele>8.5</ele><time>2026-05-05T16:18:55.192Z</time></trkpt><trkpt lat="51.6797733" lon="-9.46019"><ele>9.75</ele><time>2026-05-05T16:18:56.193Z</time></trkpt><trkpt lat="51.6798033" lon="-9.4599933"><ele>11.0</ele><time>2026-05-05T16:18:57.193Z</time></trkpt><trkpt lat="51.6798267" lon="-9.4597733"><ele>11.75</ele><time>2026-05-05T16:18:58.193Z</time></trkpt><trkpt lat="51.6798483" lon="-9.45955"><ele>12.5</ele><time>2026-05-05T16:18:59.193Z</time></trkpt><trkpt lat="51.6798617" lon="-9.459335"><ele>13.25</ele><time>2026-05-05T16:19:00.193Z</time></trkpt><trkpt lat="51.6798767" lon="-9.459135"><ele>14.0</ele><time>2026-05-05T16:19:01.193Z</time></trkpt><trkpt lat="51.679895" lon="-9.458945"><ele>14.25</ele><time>2026-05-05T16:19:02.193Z</time></trkpt><trkpt lat="51.6799217" lon="-9.4587433"><ele>14.5</ele><time>2026-05-05T16:19:03.193Z</time></trkpt><trkpt lat="51.6799483" lon="-9.4585483"><ele>14.75</ele><time>2026-05-05T16:19:04.193Z</time></trkpt><trkpt lat="51.679965" lon="-9.45836"><ele>15.0</ele><time>2026-05-05T16:19:05.192Z</time></trkpt><trkpt lat="51.6799733" lon="-9.45819"><ele>15.0</ele><time>2026-05-05T16:19:06.193Z</time></trkpt><trkpt lat="51.6799833" lon="-9.45802"><ele>15.0</ele><time>2026-05-05T16:19:07.192Z</time></trkpt><trkpt lat="51.6800033" lon="-9.457855"><ele>15.0</ele><time>2026-05-05T16:19:08.192Z</time></trkpt><trkpt lat="51.6800183" lon="-9.4577167"><ele>15.0</ele><time>2026-05-05T16:19:09.192Z</time></trkpt><trkpt lat="51.6800283" lon="-9.4575817"><ele>15.0</ele><time>2026-05-05T16:19:10.192Z</time></trkpt><trkpt lat="51.6800367" lon="-9.4574617"><ele>14.75</ele><time>2026-05-05T16:19:11.193Z</time></trkpt><trkpt lat="51.6800617" lon="-9.4572867"><ele>14.5</ele><time>2026-05-05T16:19:13.193Z</time></trkpt><trkpt lat="51.6800667" lon="-9.45711"><ele>14.25</ele><time>2026-05-05T16:19:15.193Z</time></trkpt><trkpt lat="51.680075" lon="-9.4569267"><ele>14.0</ele><time>2026-05-05T16:19:17.193Z</time></trkpt><trkpt lat="51.6800867" lon="-9.45672"><ele>13.714285714285714</ele><time>2026-05-05T16:19:19.192Z</time></trkpt><trkpt lat="51.6800983" lon="-9.4566033"><ele>13.428571428571429</ele><time>2026-05-05T16:19:20.193Z</time></trkpt><trkpt lat="51.6801117" lon="-9.45648"><ele>13.142857142857142</ele><time>2026-05-05T16:19:21.193Z</time></trkpt><trkpt lat="51.68012" lon="-9.4563667"><ele>12.857142857142858</ele><time>2026-05-05T16:19:22.193Z</time></trkpt><trkpt lat="51.6801367" lon="-9.456265"><ele>12.571428571428571</ele><time>2026-05-05T16:19:23.193Z</time></trkpt><trkpt lat="51.6801483" lon="-9.4561617"><ele>12.285714285714285</ele><time>2026-05-05T16:19:24.192Z</time></trkpt><trkpt lat="51.68016" lon="-9.4560567"><ele>12.0</ele><time>2026-05-05T16:19:25.192Z</time></trkpt><trkpt lat="51.6801717" lon="-9.4559483"><ele>11.5</ele><time>2026-05-05T16:19:26.193Z</time></trkpt><trkpt lat="51.6801833" lon="-9.4558467"><ele>11.0</ele><time>2026-05-05T16:19:27.193Z</time></trkpt><trkpt lat="51.6801933" lon="-9.4557383"><ele>10.5</ele><time>2026-05-05T16:19:28.193Z</time></trkpt><trkpt lat="51.6802017" lon="-9.455625"><ele>10.0</ele><time>2026-05-05T16:19:29.193Z</time></trkpt><trkpt lat="51.6802217" lon="-9.455515"><ele>9.5</ele><time>2026-05-05T16:19:30.193Z</time></trkpt><trkpt lat="51.680235" lon="-9.4554083"><ele>9.0</ele><time>2026-05-05T16:19:31.193Z</time></trkpt><trkpt lat="51.6802783" lon="-9.455235"><ele>8.0</ele><time>2026-05-05T16:19:33.193Z</time></trkpt><trkpt lat="51.6803233" lon="-9.45515"><ele>7.0</ele><time>2026-05-05T16:19:34.193Z</time></trkpt><trkpt lat="51.6804267" lon="-9.4550283"><ele>6.0</ele><time>2026-05-05T16:19:36.193Z</time></trkpt><trkpt lat="51.6804983" lon="-9.4549883"><ele>5.0</ele><time>2026-05-05T16:19:37.193Z</time></trkpt><trkpt lat="51.68057" lon="-9.4549317"><ele>4.0</ele><time>2026-05-05T16:19:38.193Z</time></trkpt><trkpt lat="51.6806417" lon="-9.4548883"><ele>3.0</ele><time>2026-05-05T16:19:39.193Z</time></trkpt><trkpt lat="51.68071" lon="-9.45485"><ele>3.0</ele><time>2026-05-05T16:19:40.192Z</time></trkpt><trkpt lat="51.68077" lon="-9.45481"><ele>3.0</ele><time>2026-05-05T16:19:41.193Z</time></trkpt><trkpt lat="51.6808567" lon="-9.4546767"><ele>3.0</ele><time>2026-05-05T16:19:43.193Z</time></trkpt><trkpt lat="51.6808917" lon="-9.4545717"><ele>3.0</ele><time>2026-05-05T16:19:44.193Z</time></trkpt><trkpt lat="51.6808933" lon="-9.454445"><ele>3.0</ele><time>2026-05-05T16:19:45.192Z</time></trkpt><trkpt lat="51.680885" lon="-9.4543167"><ele>3.0</ele><time>2026-05-05T16:19:46.192Z</time></trkpt><trkpt lat="51.6808567" lon="-9.45418"><ele>3.5</ele><time>2026-05-05T16:19:47.193Z</time></trkpt><trkpt lat="51.6808133" lon="-9.4540183"><ele>4.0</ele><time>2026-05-05T16:19:48.193Z</time></trkpt><trkpt lat="51.680755" lon="-9.453845"><ele>4.5</ele><time>2026-05-05T16:19:49.192Z</time></trkpt><trkpt lat="51.6806883" lon="-9.45369"><ele>5.0</ele><time>2026-05-05T16:19:50.192Z</time></trkpt><trkpt lat="51.6806333" lon="-9.4535333"><ele>5.4</ele><time>2026-05-05T16:19:51.193Z</time></trkpt><trkpt lat="51.680585" lon="-9.45338"><ele>5.8</ele><time>2026-05-05T16:19:52.193Z</time></trkpt><trkpt lat="51.6805417" lon="-9.45323"><ele>6.199999999999999</ele><time>2026-05-05T16:19:53.193Z</time></trkpt><trkpt lat="51.6805067" lon="-9.4530917"><ele>6.6</ele><time>2026-05-05T16:19:54.192Z</time></trkpt><trkpt lat="51.6804817" lon="-9.4529717"><ele>7.0</ele><time>2026-05-05T16:19:55.193Z</time></trkpt><trkpt lat="51.6804533" lon="-9.45286"><ele>7.500000000000001</ele><time>2026-05-05T16:19:56.192Z</time></trkpt><trkpt lat="51.6804333" lon="-9.4527517"><ele>8.0</ele><time>2026-05-05T16:19:57.193Z</time></trkpt><trkpt lat="51.6804033" lon="-9.452585"><ele>8.5</ele><time>2026-05-05T16:19:59.193Z</time></trkpt><trkpt lat="51.6803883" lon="-9.45248"><ele>9.0</ele><time>2026-05-05T16:20:01.193Z</time></trkpt><trkpt lat="51.680385" lon="-9.4523683"><ele>9.5</ele><time>2026-05-05T16:20:04.193Z</time></trkpt><trkpt lat="51.6803683" lon="-9.452265"><ele>10.0</ele><time>2026-05-05T16:20:06.193Z</time></trkpt><trkpt lat="51.6803283" lon="-9.4520833"><ele>10.6</ele><time>2026-05-05T16:20:08.193Z</time></trkpt><trkpt lat="51.6802867" lon="-9.4519717"><ele>11.2</ele><time>2026-05-05T16:20:09.193Z</time></trkpt><trkpt lat="51.680245" lon="-9.4518417"><ele>11.8</ele><time>2026-05-05T16:20:10.193Z</time></trkpt><trkpt lat="51.6802017" lon="-9.4516967"><ele>12.4</ele><time>2026-05-05T16:20:11.192Z</time></trkpt><trkpt lat="51.68015" lon="-9.451535"><ele>13.0</ele><time>2026-05-05T16:20:12.192Z</time></trkpt><trkpt lat="51.6801117" lon="-9.4513583"><ele>12.0</ele><time>2026-05-05T16:20:13.193Z</time></trkpt><trkpt lat="51.68008" lon="-9.4511817"><ele>11.0</ele><time>2026-05-05T16:20:14.192Z</time></trkpt><trkpt lat="51.6800617" lon="-9.4510083"><ele>10.0</ele><time>2026-05-05T16:20:15.193Z</time></trkpt><trkpt lat="51.680045" lon="-9.4508483"><ele>9.0</ele><time>2026-05-05T16:20:16.193Z</time></trkpt><trkpt lat="51.6800267" lon="-9.4506967"><ele>8.0</ele><time>2026-05-05T16:20:17.193Z</time></trkpt><trkpt lat="51.6800217" lon="-9.45055"><ele>8.166666666666666</ele><time>2026-05-05T16:20:18.193Z</time></trkpt><trkpt lat="51.6800117" lon="-9.4504067"><ele>8.333333333333332</ele><time>2026-05-05T16:20:19.193Z</time></trkpt><trkpt lat="51.6800117" lon="-9.4502867"><ele>8.5</ele><time>2026-05-05T16:20:20.193Z</time></trkpt><trkpt lat="51.680015" lon="-9.450175"><ele>8.666666666666666</ele><time>2026-05-05T16:20:21.193Z</time></trkpt><trkpt lat="51.6800233" lon="-9.4500333"><ele>8.833333333333334</ele><time>2026-05-05T16:20:23.193Z</time></trkpt><trkpt lat="51.6800483" lon="-9.44992"><ele>9.0</ele><time>2026-05-05T16:20:25.192Z</time></trkpt><trkpt lat="51.6800633" lon="-9.449795"><ele>9.0</ele><time>2026-05-05T16:20:29.193Z</time></trkpt><trkpt lat="51.6801117" lon="-9.4496417"><ele>9.0</ele><time>2026-05-05T16:20:31.193Z</time></trkpt><trkpt lat="51.6801467" lon="-9.4495533"><ele>9.0</ele><time>2026-05-05T16:20:32.193Z</time></trkpt><trkpt lat="51.6801783" lon="-9.44945"><ele>9.0</ele><time>2026-05-05T16:20:33.192Z</time></trkpt><trkpt lat="51.680205" lon="-9.4493367"><ele>9.0</ele><time>2026-05-05T16:20:34.193Z</time></trkpt><trkpt lat="51.6802417" lon="-9.4492333"><ele>9.0</ele><time>2026-05-05T16:20:35.193Z</time></trkpt><trkpt lat="51.6802733" lon="-9.4491433"><ele>9.714285714285715</ele><time>2026-05-05T16:20:36.192Z</time></trkpt><trkpt lat="51.6803067" lon="-9.4490467"><ele>10.428571428571429</ele><time>2026-05-05T16:20:37.192Z</time></trkpt><trkpt lat="51.6803533" lon="-9.4489683"><ele>11.142857142857142</ele><time>2026-05-05T16:20:38.192Z</time></trkpt><trkpt lat="51.680405" lon="-9.448895"><ele>11.857142857142858</ele><time>2026-05-05T16:20:39.193Z</time></trkpt><trkpt lat="51.6804617" lon="-9.4488333"><ele>12.571428571428571</ele><time>2026-05-05T16:20:40.192Z</time></trkpt><trkpt lat="51.6805317" lon="-9.4487933"><ele>13.285714285714286</ele><time>2026-05-05T16:20:41.193Z</time></trkpt><trkpt lat="51.6806083" lon="-9.4487633"><ele>14.0</ele><time>2026-05-05T16:20:42.192Z</time></trkpt><trkpt lat="51.6806867" lon="-9.448735"><ele>14.000000000000002</ele><time>2026-05-05T16:20:43.193Z</time></trkpt><trkpt lat="51.6807617" lon="-9.448705"><ele>14.0</ele><time>2026-05-05T16:20:44.193Z</time></trkpt><trkpt lat="51.6808333" lon="-9.4486617"><ele>14.0</ele><time>2026-05-05T16:20:45.193Z</time></trkpt><trkpt lat="51.6809033" lon="-9.4486167"><ele>14.0</ele><time>2026-05-05T16:20:46.193Z</time></trkpt><trkpt lat="51.6809767" lon="-9.448565"><ele>14.000000000000002</ele><time>2026-05-05T16:20:47.193Z</time></trkpt><trkpt lat="51.681055" lon="-9.4485167"><ele>14.0</ele><time>2026-05-05T16:20:48.192Z</time></trkpt><trkpt lat="51.6811283" lon="-9.4484667"><ele>14.500000000000002</ele><time>2026-05-05T16:20:49.193Z</time></trkpt><trkpt lat="51.6811983" lon="-9.44842"><ele>15.0</ele><time>2026-05-05T16:20:50.193Z</time></trkpt><trkpt lat="51.6812617" lon="-9.448385"><ele>15.5</ele><time>2026-05-05T16:20:51.193Z</time></trkpt><trkpt lat="51.6813533" lon="-9.44834"><ele>16.0</ele><time>2026-05-05T16:20:53.193Z</time></trkpt><trkpt lat="51.6814167" lon="-9.448315"><ele>16.5</ele><time>2026-05-05T16:20:57.192Z</time></trkpt><trkpt lat="51.681485" lon="-9.4482517"><ele>17.0</ele><time>2026-05-05T16:21:00.192Z</time></trkpt><trkpt lat="51.6815467" lon="-9.448175"><ele>17.0</ele><time>2026-05-05T16:21:02.193Z</time></trkpt><trkpt lat="51.6816583" lon="-9.4480717"><ele>17.0</ele><time>2026-05-05T16:21:04.193Z</time></trkpt><trkpt lat="51.68173" lon="-9.448005"><ele>17.0</ele><time>2026-05-05T16:21:05.192Z</time></trkpt><trkpt lat="51.6818033" lon="-9.4479483"><ele>17.0</ele><time>2026-05-05T16:21:06.193Z</time></trkpt><trkpt lat="51.6818733" lon="-9.447885"><ele>17.0</ele><time>2026-05-05T16:21:07.193Z</time></trkpt><trkpt lat="51.6819517" lon="-9.4478083"><ele>16.4</ele><time>2026-05-05T16:21:08.193Z</time></trkpt><trkpt lat="51.6820383" lon="-9.4477233"><ele>15.799999999999999</ele><time>2026-05-05T16:21:09.192Z</time></trkpt><trkpt lat="51.6821333" lon="-9.4476283"><ele>15.2</ele><time>2026-05-05T16:21:10.192Z</time></trkpt><trkpt lat="51.682225" lon="-9.4475417"><ele>14.6</ele><time>2026-05-05T16:21:11.193Z</time></trkpt><trkpt lat="51.68231" lon="-9.4474617"><ele>14.0</ele><time>2026-05-05T16:21:12.193Z</time></trkpt><trkpt lat="51.682385" lon="-9.4473933"><ele>14.0</ele><time>2026-05-05T16:21:13.192Z</time></trkpt><trkpt lat="51.6824517" lon="-9.44733"><ele>13.999999999999998</ele><time>2026-05-05T16:21:14.192Z</time></trkpt><trkpt lat="51.6825133" lon="-9.44726"><ele>13.999999999999998</ele><time>2026-05-05T16:21:15.193Z</time></trkpt><trkpt lat="51.6825667" lon="-9.44719"><ele>14.0</ele><time>2026-05-05T16:21:16.192Z</time></trkpt><trkpt lat="51.682655" lon="-9.4470633"><ele>14.0</ele><time>2026-05-05T16:21:18.193Z</time></trkpt><trkpt lat="51.682735" lon="-9.4469233"><ele>14.428571428571429</ele><time>2026-05-05T16:21:20.193Z</time></trkpt><trkpt lat="51.6827817" lon="-9.4468467"><ele>14.857142857142858</ele><time>2026-05-05T16:21:21.192Z</time></trkpt><trkpt lat="51.68283" lon="-9.4467783"><ele>15.285714285714285</ele><time>2026-05-05T16:21:22.193Z</time></trkpt><trkpt lat="51.6828783" lon="-9.446705"><ele>15.714285714285714</ele><time>2026-05-05T16:21:23.193Z</time></trkpt><trkpt lat="51.682935" lon="-9.4466283"><ele>16.142857142857142</ele><time>2026-05-05T16:21:24.193Z</time></trkpt><trkpt lat="51.6829967" lon="-9.446545"><ele>16.57142857142857</ele><time>2026-05-05T16:21:25.193Z</time></trkpt><trkpt lat="51.68307" lon="-9.4464633"><ele>17.0</ele><time>2026-05-05T16:21:26.192Z</time></trkpt><trkpt lat="51.68316" lon="-9.4463983"><ele>17.0</ele><time>2026-05-05T16:21:27.193Z</time></trkpt><trkpt lat="51.683265" lon="-9.4463383"><ele>17.0</ele><time>2026-05-05T16:21:28.193Z</time></trkpt><trkpt lat="51.68339" lon="-9.44631"><ele>17.0</ele><time>2026-05-05T16:21:29.193Z</time></trkpt><trkpt lat="51.683515" lon="-9.4462967"><ele>17.0</ele><time>2026-05-05T16:21:30.193Z</time></trkpt><trkpt lat="51.68364" lon="-9.446295"><ele>17.25</ele><time>2026-05-05T16:21:31.193Z</time></trkpt><trkpt lat="51.6838017" lon="-9.446275"><ele>17.5</ele><time>2026-05-05T16:21:32.192Z</time></trkpt><trkpt lat="51.68392" lon="-9.4462917"><ele>17.75</ele><time>2026-05-05T16:21:33.193Z</time></trkpt><trkpt lat="51.6840267" lon="-9.4463033"><ele>18.0</ele><time>2026-05-05T16:21:34.193Z</time></trkpt><trkpt lat="51.6841367" lon="-9.4463167"><ele>18.75</ele><time>2026-05-05T16:21:35.193Z</time></trkpt><trkpt lat="51.68425" lon="-9.44633"><ele>19.5</ele><time>2026-05-05T16:21:36.192Z</time></trkpt><trkpt lat="51.6843633" lon="-9.4463433"><ele>20.25</ele><time>2026-05-05T16:21:37.193Z</time></trkpt><trkpt lat="51.6844783" lon="-9.4463467"><ele>21.0</ele><time>2026-05-05T16:21:38.193Z</time></trkpt><trkpt lat="51.6845867" lon="-9.44635"><ele>21.5</ele><time>2026-05-05T16:21:39.193Z</time></trkpt><trkpt lat="51.684695" lon="-9.44635"><ele>22.0</ele><time>2026-05-05T16:21:40.192Z</time></trkpt><trkpt lat="51.68481" lon="-9.4463483"><ele>22.5</ele><time>2026-05-05T16:21:41.193Z</time></trkpt><trkpt lat="51.68493" lon="-9.4463517"><ele>23.0</ele><time>2026-05-05T16:21:42.192Z</time></trkpt><trkpt lat="51.6850533" lon="-9.44635"><ele>23.0</ele><time>2026-05-05T16:21:43.193Z</time></trkpt><trkpt lat="51.6851883" lon="-9.446335"><ele>23.0</ele><time>2026-05-05T16:21:44.192Z</time></trkpt><trkpt lat="51.685335" lon="-9.4463167"><ele>23.0</ele><time>2026-05-05T16:21:45.192Z</time></trkpt><trkpt lat="51.68547" lon="-9.4462883"><ele>23.0</ele><time>2026-05-05T16:21:46.191Z</time></trkpt><trkpt lat="51.6856083" lon="-9.4462683"><ele>24.25</ele><time>2026-05-05T16:21:47.192Z</time></trkpt><trkpt lat="51.68573" lon="-9.4462417"><ele>25.5</ele><time>2026-05-05T16:21:48.192Z</time></trkpt><trkpt lat="51.6858517" lon="-9.4462133"><ele>26.75</ele><time>2026-05-05T16:21:49.192Z</time></trkpt><trkpt lat="51.68598" lon="-9.4461917"><ele>28.0</ele><time>2026-05-05T16:21:50.191Z</time></trkpt><trkpt lat="51.6861067" lon="-9.4461633"><ele>28.25</ele><time>2026-05-05T16:21:51.191Z</time></trkpt><trkpt lat="51.6862467" lon="-9.4461383"><ele>28.5</ele><time>2026-05-05T16:21:52.192Z</time></trkpt><trkpt lat="51.68639" lon="-9.4461017"><ele>28.75</ele><time>2026-05-05T16:21:53.191Z</time></trkpt><trkpt lat="51.6865317" lon="-9.4460583"><ele>29.0</ele><time>2026-05-05T16:21:54.192Z</time></trkpt><trkpt lat="51.686685" lon="-9.4460033"><ele>29.0</ele><time>2026-05-05T16:21:55.191Z</time></trkpt><trkpt lat="51.6868383" lon="-9.445955"><ele>29.0</ele><time>2026-05-05T16:21:56.192Z</time></trkpt><trkpt lat="51.6869867" lon="-9.4459017"><ele>29.0</ele><time>2026-05-05T16:21:57.192Z</time></trkpt><trkpt lat="51.6871167" lon="-9.4458217"><ele>29.0</ele><time>2026-05-05T16:21:58.192Z</time></trkpt><trkpt lat="51.687255" lon="-9.4457467"><ele>29.0</ele><time>2026-05-05T16:21:59.192Z</time></trkpt><trkpt lat="51.6873883" lon="-9.4456467"><ele>29.0</ele><time>2026-05-05T16:22:00.192Z</time></trkpt><trkpt lat="51.687515" lon="-9.4455233"><ele>29.0</ele><time>2026-05-05T16:22:01.191Z</time></trkpt><trkpt lat="51.6876517" lon="-9.4454117"><ele>29.0</ele><time>2026-05-05T16:22:02.192Z</time></trkpt><trkpt lat="51.687785" lon="-9.4452867"><ele>29.0</ele><time>2026-05-05T16:22:03.191Z</time></trkpt><trkpt lat="51.6879033" lon="-9.4451417"><ele>29.0</ele><time>2026-05-05T16:22:04.191Z</time></trkpt><trkpt lat="51.6880083" lon="-9.4450017"><ele>29.0</ele><time>2026-05-05T16:22:05.192Z</time></trkpt><trkpt lat="51.6881117" lon="-9.4448783"><ele>29.0</ele><time>2026-05-05T16:22:06.191Z</time></trkpt><trkpt lat="51.6882133" lon="-9.44476"><ele>30.0</ele><time>2026-05-05T16:22:07.191Z</time></trkpt><trkpt lat="51.688315" lon="-9.4446217"><ele>31.0</ele><time>2026-05-05T16:22:08.192Z</time></trkpt><trkpt lat="51.6884183" lon="-9.4444767"><ele>32.0</ele><time>2026-05-05T16:22:09.191Z</time></trkpt><trkpt lat="51.6885167" lon="-9.44432"><ele>33.0</ele><time>2026-05-05T16:22:10.192Z</time></trkpt><trkpt lat="51.6886033" lon="-9.4441467"><ele>30.25</ele><time>2026-05-05T16:22:11.191Z</time></trkpt><trkpt lat="51.6887" lon="-9.4439833"><ele>27.5</ele><time>2026-05-05T16:22:12.191Z</time></trkpt><trkpt lat="51.6888" lon="-9.4438183"><ele>24.75</ele><time>2026-05-05T16:22:13.191Z</time></trkpt><trkpt lat="51.6888717" lon="-9.4436167"><ele>22.0</ele><time>2026-05-05T16:22:14.192Z</time></trkpt><trkpt lat="51.688975" lon="-9.4434533"><ele>22.0</ele><time>2026-05-05T16:22:15.192Z</time></trkpt><trkpt lat="51.6890683" lon="-9.4432617"><ele>22.0</ele><time>2026-05-05T16:22:16.191Z</time></trkpt><trkpt lat="51.68918" lon="-9.4430917"><ele>22.0</ele><time>2026-05-05T16:22:17.191Z</time></trkpt><trkpt lat="51.6893117" lon="-9.4429467"><ele>22.666666666666664</ele><time>2026-05-05T16:22:18.191Z</time></trkpt><trkpt lat="51.68944" lon="-9.4428317"><ele>23.333333333333332</ele><time>2026-05-05T16:22:19.192Z</time></trkpt><trkpt lat="51.6895817" lon="-9.44275"><ele>24.0</ele><time>2026-05-05T16:22:20.192Z</time></trkpt><trkpt lat="51.6897267" lon="-9.442655"><ele>24.0</ele><time>2026-05-05T16:22:21.192Z</time></trkpt><trkpt lat="51.68989" lon="-9.4425817"><ele>24.0</ele><time>2026-05-05T16:22:22.192Z</time></trkpt><trkpt lat="51.69004" lon="-9.4425467"><ele>24.0</ele><time>2026-05-05T16:22:23.192Z</time></trkpt><trkpt lat="51.6901967" lon="-9.4425283"><ele>23.0</ele><time>2026-05-05T16:22:24.192Z</time></trkpt><trkpt lat="51.6903583" lon="-9.4425233"><ele>22.0</ele><time>2026-05-05T16:22:25.192Z</time></trkpt><trkpt lat="51.6905183" lon="-9.44255"><ele>21.0</ele><time>2026-05-05T16:22:26.191Z</time></trkpt><trkpt lat="51.6906717" lon="-9.4425917"><ele>21.0</ele><time>2026-05-05T16:22:27.192Z</time></trkpt><trkpt lat="51.6908283" lon="-9.4426533"><ele>21.0</ele><time>2026-05-05T16:22:28.192Z</time></trkpt><trkpt lat="51.690995" lon="-9.4427183"><ele>21.0</ele><time>2026-05-05T16:22:29.192Z</time></trkpt><trkpt lat="51.6911633" lon="-9.4427917"><ele>22.0</ele><time>2026-05-05T16:22:30.191Z</time></trkpt><trkpt lat="51.691335" lon="-9.4428683"><ele>23.0</ele><time>2026-05-05T16:22:31.192Z</time></trkpt><trkpt lat="51.6915" lon="-9.442935"><ele>24.0</ele><time>2026-05-05T16:22:32.192Z</time></trkpt><trkpt lat="51.6916533" lon="-9.442995"><ele>21.5</ele><time>2026-05-05T16:22:33.192Z</time></trkpt><trkpt lat="51.6918033" lon="-9.44304"><ele>19.0</ele><time>2026-05-05T16:22:34.192Z</time></trkpt><trkpt lat="51.6919433" lon="-9.4430883"><ele>16.5</ele><time>2026-05-05T16:22:35.192Z</time></trkpt><trkpt lat="51.6920767" lon="-9.4431233"><ele>14.0</ele><time>2026-05-05T16:22:36.192Z</time></trkpt><trkpt lat="51.69221" lon="-9.4431217"><ele>14.0</ele><time>2026-05-05T16:22:37.191Z</time></trkpt><trkpt lat="51.6923367" lon="-9.443115"><ele>14.0</ele><time>2026-05-05T16:22:38.191Z</time></trkpt><trkpt lat="51.6924583" lon="-9.4431033"><ele>14.0</ele><time>2026-05-05T16:22:39.191Z</time></trkpt><trkpt lat="51.6925817" lon="-9.4430733"><ele>14.0</ele><time>2026-05-05T16:22:40.192Z</time></trkpt><trkpt lat="51.692695" lon="-9.4430267"><ele>14.5</ele><time>2026-05-05T16:22:41.192Z</time></trkpt><trkpt lat="51.6927967" lon="-9.44296"><ele>15.0</ele><time>2026-05-05T16:22:42.191Z</time></trkpt><trkpt lat="51.6928983" lon="-9.4428917"><ele>15.5</ele><time>2026-05-05T16:22:43.192Z</time></trkpt><trkpt lat="51.693005" lon="-9.442815"><ele>16.0</ele><time>2026-05-05T16:22:44.192Z</time></trkpt><trkpt lat="51.693115" lon="-9.4427283"><ele>16.0</ele><time>2026-05-05T16:22:45.192Z</time></trkpt><trkpt lat="51.6932167" lon="-9.4426217"><ele>16.0</ele><time>2026-05-05T16:22:46.191Z</time></trkpt><trkpt lat="51.6933133" lon="-9.4424983"><ele>16.0</ele><time>2026-05-05T16:22:47.192Z</time></trkpt><trkpt lat="51.693415" lon="-9.44237"><ele>16.0</ele><time>2026-05-05T16:22:48.192Z</time></trkpt><trkpt lat="51.693515" lon="-9.442225"><ele>15.25</ele><time>2026-05-05T16:22:49.191Z</time></trkpt><trkpt lat="51.6936067" lon="-9.4420617"><ele>14.5</ele><time>2026-05-05T16:22:50.192Z</time></trkpt><trkpt lat="51.6936883" lon="-9.441895"><ele>13.75</ele><time>2026-05-05T16:22:51.191Z</time></trkpt><trkpt lat="51.6937617" lon="-9.441735"><ele>13.0</ele><time>2026-05-05T16:22:52.192Z</time></trkpt><trkpt lat="51.69384" lon="-9.44157"><ele>13.0</ele><time>2026-05-05T16:22:53.192Z</time></trkpt><trkpt lat="51.6939283" lon="-9.4413717"><ele>13.0</ele><time>2026-05-05T16:22:54.191Z</time></trkpt><trkpt lat="51.6940233" lon="-9.4411567"><ele>13.0</ele><time>2026-05-05T16:22:55.191Z</time></trkpt><trkpt lat="51.69412" lon="-9.4409233"><ele>12.666666666666666</ele><time>2026-05-05T16:22:56.191Z</time></trkpt><trkpt lat="51.694225" lon="-9.4406917"><ele>12.333333333333332</ele><time>2026-05-05T16:22:57.192Z</time></trkpt><trkpt lat="51.6943333" lon="-9.4404717"><ele>12.0</ele><time>2026-05-05T16:22:58.192Z</time></trkpt><trkpt lat="51.6944433" lon="-9.4402717"><ele>12.0</ele><time>2026-05-05T16:22:59.192Z</time></trkpt><trkpt lat="51.69455" lon="-9.4400733"><ele>12.0</ele><time>2026-05-05T16:23:00.192Z</time></trkpt><trkpt lat="51.6946483" lon="-9.4398733"><ele>12.0</ele><time>2026-05-05T16:23:01.192Z</time></trkpt><trkpt lat="51.694745" lon="-9.43969"><ele>14.0</ele><time>2026-05-05T16:23:02.192Z</time></trkpt><trkpt lat="51.69484" lon="-9.4395233"><ele>16.0</ele><time>2026-05-05T16:23:03.191Z</time></trkpt><trkpt lat="51.6949367" lon="-9.43937"><ele>18.0</ele><time>2026-05-05T16:23:04.191Z</time></trkpt><trkpt lat="51.695055" lon="-9.4392267"><ele>20.0</ele><time>2026-05-05T16:23:05.191Z</time></trkpt><trkpt lat="51.6951817" lon="-9.4391017"><ele>20.5</ele><time>2026-05-05T16:23:06.191Z</time></trkpt><trkpt lat="51.69531" lon="-9.4389933"><ele>21.0</ele><time>2026-05-05T16:23:07.192Z</time></trkpt><trkpt lat="51.695435" lon="-9.4389133"><ele>21.5</ele><time>2026-05-05T16:23:08.192Z</time></trkpt><trkpt lat="51.69557" lon="-9.4388833"><ele>22.0</ele><time>2026-05-05T16:23:09.191Z</time></trkpt><trkpt lat="51.6957017" lon="-9.43888"><ele>22.0</ele><time>2026-05-05T16:23:10.192Z</time></trkpt><trkpt lat="51.69584" lon="-9.4389183"><ele>22.0</ele><time>2026-05-05T16:23:11.192Z</time></trkpt><trkpt lat="51.695995" lon="-9.439045"><ele>22.0</ele><time>2026-05-05T16:23:12.192Z</time></trkpt><trkpt lat="51.6961467" lon="-9.4392083"><ele>21.333333333333332</ele><time>2026-05-05T16:23:13.192Z</time></trkpt><trkpt lat="51.6962717" lon="-9.4393733"><ele>20.666666666666668</ele><time>2026-05-05T16:23:14.192Z</time></trkpt><trkpt lat="51.6963667" lon="-9.43956"><ele>20.0</ele><time>2026-05-05T16:23:15.192Z</time></trkpt><trkpt lat="51.6964467" lon="-9.4397683"><ele>20.0</ele><time>2026-05-05T16:23:16.192Z</time></trkpt><trkpt lat="51.696525" lon="-9.439985"><ele>20.0</ele><time>2026-05-05T16:23:17.192Z</time></trkpt><trkpt lat="51.6966267" lon="-9.4402433"><ele>20.0</ele><time>2026-05-05T16:23:18.191Z</time></trkpt><trkpt lat="51.69677" lon="-9.4404933"><ele>20.0</ele><time>2026-05-05T16:23:19.192Z</time></trkpt><trkpt lat="51.696915" lon="-9.440715"><ele>20.0</ele><time>2026-05-05T16:23:20.192Z</time></trkpt><trkpt lat="51.697055" lon="-9.4409317"><ele>20.0</ele><time>2026-05-05T16:23:21.192Z</time></trkpt><trkpt lat="51.6972" lon="-9.4411383"><ele>18.666666666666668</ele><time>2026-05-05T16:23:22.192Z</time></trkpt><trkpt lat="51.6973633" lon="-9.4413283"><ele>17.333333333333332</ele><time>2026-05-05T16:23:23.191Z</time></trkpt><trkpt lat="51.6975433" lon="-9.4415167"><ele>16.0</ele><time>2026-05-05T16:23:24.192Z</time></trkpt><trkpt lat="51.697715" lon="-9.4416917"><ele>17.333333333333332</ele><time>2026-05-05T16:23:25.192Z</time></trkpt><trkpt lat="51.69788" lon="-9.441845"><ele>18.666666666666668</ele><time>2026-05-05T16:23:26.192Z</time></trkpt><trkpt lat="51.6980433" lon="-9.441995"><ele>20.0</ele><time>2026-05-05T16:23:27.192Z</time></trkpt><trkpt lat="51.6982083" lon="-9.44213"><ele>20.333333333333336</ele><time>2026-05-05T16:23:28.192Z</time></trkpt><trkpt lat="51.6983667" lon="-9.442265"><ele>20.666666666666668</ele><time>2026-05-05T16:23:29.192Z</time></trkpt><trkpt lat="51.6985133" lon="-9.442365"><ele>21.0</ele><time>2026-05-05T16:23:30.192Z</time></trkpt><trkpt lat="51.6986533" lon="-9.4424383"><ele>21.0</ele><time>2026-05-05T16:23:31.192Z</time></trkpt><trkpt lat="51.6988067" lon="-9.4424817"><ele>21.0</ele><time>2026-05-05T16:23:32.192Z</time></trkpt><trkpt lat="51.6989683" lon="-9.4424667"><ele>21.0</ele><time>2026-05-05T16:23:33.192Z</time></trkpt><trkpt lat="51.6991583" lon="-9.4424617"><ele>21.0</ele><time>2026-05-05T16:23:34.191Z</time></trkpt><trkpt lat="51.6993717" lon="-9.4424283"><ele>21.0</ele><time>2026-05-05T16:23:35.192Z</time></trkpt><trkpt lat="51.699605" lon="-9.4424167"><ele>21.0</ele><time>2026-05-05T16:23:36.192Z</time></trkpt><trkpt lat="51.69985" lon="-9.4424117"><ele>24.0</ele><time>2026-05-05T16:23:37.192Z</time></trkpt><trkpt lat="51.7000967" lon="-9.4424033"><ele>27.0</ele><time>2026-05-05T16:23:38.191Z</time></trkpt><trkpt lat="51.7003767" lon="-9.44238"><ele>28.0</ele><time>2026-05-05T16:23:39.192Z</time></trkpt><trkpt lat="51.7006367" lon="-9.4423917"><ele>29.0</ele><time>2026-05-05T16:23:40.192Z</time></trkpt><trkpt lat="51.700905" lon="-9.442385"><ele>30.5</ele><time>2026-05-05T16:23:41.191Z</time></trkpt><trkpt lat="51.7011667" lon="-9.4423917"><ele>32.0</ele><time>2026-05-05T16:23:42.192Z</time></trkpt><trkpt lat="51.7014117" lon="-9.4423983"><ele>32.0</ele><time>2026-05-05T16:23:43.191Z</time></trkpt><trkpt lat="51.7016183" lon="-9.442405"><ele>32.0</ele><time>2026-05-05T16:23:44.192Z</time></trkpt><trkpt lat="51.7017917" lon="-9.4424117"><ele>32.0</ele><time>2026-05-05T16:23:45.191Z</time></trkpt><trkpt lat="51.7019317" lon="-9.4424117"><ele>32.25</ele><time>2026-05-05T16:23:46.191Z</time></trkpt><trkpt lat="51.7020533" lon="-9.44242"><ele>32.5</ele><time>2026-05-05T16:23:47.192Z</time></trkpt><trkpt lat="51.7021633" lon="-9.442425"><ele>32.75</ele><time>2026-05-05T16:23:48.192Z</time></trkpt><trkpt lat="51.7022717" lon="-9.4424367"><ele>33.0</ele><time>2026-05-05T16:23:49.192Z</time></trkpt><trkpt lat="51.7023917" lon="-9.4424417"><ele>33.0</ele><time>2026-05-05T16:23:50.192Z</time></trkpt><trkpt lat="51.7025217" lon="-9.4424533"><ele>33.0</ele><time>2026-05-05T16:23:51.191Z</time></trkpt><trkpt lat="51.7026633" lon="-9.442475"><ele>33.0</ele><time>2026-05-05T16:23:52.191Z</time></trkpt><trkpt lat="51.7028083" lon="-9.442495"><ele>33.0</ele><time>2026-05-05T16:23:53.192Z</time></trkpt><trkpt lat="51.7029517" lon="-9.4425067"><ele>32.333333333333336</ele><time>2026-05-05T16:23:54.192Z</time></trkpt><trkpt lat="51.703105" lon="-9.4425233"><ele>31.666666666666668</ele><time>2026-05-05T16:23:55.192Z</time></trkpt><trkpt lat="51.7032583" lon="-9.4425367"><ele>31.0</ele><time>2026-05-05T16:23:56.192Z</time></trkpt><trkpt lat="51.7034033" lon="-9.4425483"><ele>31.0</ele><time>2026-05-05T16:23:57.192Z</time></trkpt><trkpt lat="51.7035433" lon="-9.4425617"><ele>31.0</ele><time>2026-05-05T16:23:58.191Z</time></trkpt><trkpt lat="51.703685" lon="-9.4425667"><ele>31.0</ele><time>2026-05-05T16:23:59.191Z</time></trkpt><trkpt lat="51.70383" lon="-9.44257"><ele>31.0</ele><time>2026-05-05T16:24:00.191Z</time></trkpt><trkpt lat="51.7039867" lon="-9.44257"><ele>30.666666666666668</ele><time>2026-05-05T16:24:01.191Z</time></trkpt><trkpt lat="51.70415" lon="-9.442565"><ele>30.333333333333336</ele><time>2026-05-05T16:24:02.191Z</time></trkpt><trkpt lat="51.704325" lon="-9.4425483"><ele>30.0</ele><time>2026-05-05T16:24:03.191Z</time></trkpt><trkpt lat="51.704515" lon="-9.442525"><ele>28.666666666666664</ele><time>2026-05-05T16:24:04.191Z</time></trkpt><trkpt lat="51.7047217" lon="-9.4425"><ele>27.333333333333332</ele><time>2026-05-05T16:24:05.191Z</time></trkpt><trkpt lat="51.7049317" lon="-9.442475"><ele>26.0</ele><time>2026-05-05T16:24:06.191Z</time></trkpt><trkpt lat="51.7051367" lon="-9.44244"><ele>24.333333333333332</ele><time>2026-05-05T16:24:07.191Z</time></trkpt><trkpt lat="51.705335" lon="-9.442385"><ele>22.666666666666664</ele><time>2026-05-05T16:24:08.191Z</time></trkpt><trkpt lat="51.7055267" lon="-9.44234"><ele>21.0</ele><time>2026-05-05T16:24:09.191Z</time></trkpt><trkpt lat="51.705695" lon="-9.4422867"><ele>21.0</ele><time>2026-05-05T16:24:10.191Z</time></trkpt><trkpt lat="51.7058567" lon="-9.4422283"><ele>21.0</ele><time>2026-05-05T16:24:11.191Z</time></trkpt><trkpt lat="51.70599" lon="-9.4421667"><ele>21.0</ele><time>2026-05-05T16:24:12.192Z</time></trkpt><trkpt lat="51.7061233" lon="-9.4420833"><ele>21.0</ele><time>2026-05-05T16:24:13.191Z</time></trkpt><trkpt lat="51.7062667" lon="-9.4419883"><ele>22.0</ele><time>2026-05-05T16:24:14.192Z</time></trkpt><trkpt lat="51.7064017" lon="-9.4418667"><ele>23.0</ele><time>2026-05-05T16:24:15.192Z</time></trkpt><trkpt lat="51.7065233" lon="-9.4417033"><ele>24.0</ele><time>2026-05-05T16:24:16.192Z</time></trkpt><trkpt lat="51.7066517" lon="-9.441505"><ele>27.0</ele><time>2026-05-05T16:24:17.192Z</time></trkpt><trkpt lat="51.7067833" lon="-9.4412783"><ele>30.0</ele><time>2026-05-05T16:24:18.192Z</time></trkpt><trkpt lat="51.7069283" lon="-9.4410017"><ele>33.0</ele><time>2026-05-05T16:24:19.192Z</time></trkpt><trkpt lat="51.707065" lon="-9.440715"><ele>28.0</ele><time>2026-05-05T16:24:20.192Z</time></trkpt><trkpt lat="51.70722" lon="-9.440415"><ele>23.0</ele><time>2026-05-05T16:24:21.191Z</time></trkpt><trkpt lat="51.707365" lon="-9.4401417"><ele>23.0</ele><time>2026-05-05T16:24:22.191Z</time></trkpt><trkpt lat="51.7075" lon="-9.439885"><ele>23.0</ele><time>2026-05-05T16:24:23.192Z</time></trkpt><trkpt lat="51.707645" lon="-9.4396533"><ele>23.0</ele><time>2026-05-05T16:24:24.192Z</time></trkpt><trkpt lat="51.707805" lon="-9.4394467"><ele>21.333333333333336</ele><time>2026-05-05T16:24:25.191Z</time></trkpt><trkpt lat="51.7079817" lon="-9.4392383"><ele>19.666666666666668</ele><time>2026-05-05T16:24:26.191Z</time></trkpt><trkpt lat="51.7081533" lon="-9.4390433"><ele>18.0</ele><time>2026-05-05T16:24:27.192Z</time></trkpt><trkpt lat="51.70832" lon="-9.4388583"><ele>17.0</ele><time>2026-05-05T16:24:28.192Z</time></trkpt><trkpt lat="51.7084783" lon="-9.43868"><ele>16.0</ele><time>2026-05-05T16:24:29.191Z</time></trkpt><trkpt lat="51.7086217" lon="-9.4385083"><ele>15.0</ele><time>2026-05-05T16:24:30.192Z</time></trkpt><trkpt lat="51.7087583" lon="-9.43834"><ele>15.0</ele><time>2026-05-05T16:24:31.192Z</time></trkpt><trkpt lat="51.7088683" lon="-9.4381533"><ele>15.0</ele><time>2026-05-05T16:24:32.191Z</time></trkpt><trkpt lat="51.7090083" lon="-9.4379733"><ele>15.0</ele><time>2026-05-05T16:24:33.191Z</time></trkpt><trkpt lat="51.7091567" lon="-9.4378183"><ele>14.666666666666668</ele><time>2026-05-05T16:24:34.192Z</time></trkpt><trkpt lat="51.7093017" lon="-9.4376483"><ele>14.333333333333334</ele><time>2026-05-05T16:24:35.192Z</time></trkpt><trkpt lat="51.7094633" lon="-9.4375"><ele>14.0</ele><time>2026-05-05T16:24:36.192Z</time></trkpt><trkpt lat="51.7096317" lon="-9.4373583"><ele>14.0</ele><time>2026-05-05T16:24:37.191Z</time></trkpt><trkpt lat="51.709815" lon="-9.4372617"><ele>14.0</ele><time>2026-05-05T16:24:38.192Z</time></trkpt><trkpt lat="51.7100017" lon="-9.4371817"><ele>14.0</ele><time>2026-05-05T16:24:39.192Z</time></trkpt><trkpt lat="51.71017" lon="-9.437115"><ele>15.333333333333334</ele><time>2026-05-05T16:24:40.192Z</time></trkpt><trkpt lat="51.71033" lon="-9.4370483"><ele>16.666666666666668</ele><time>2026-05-05T16:24:41.192Z</time></trkpt><trkpt lat="51.71051" lon="-9.4369633"><ele>18.0</ele><time>2026-05-05T16:24:42.192Z</time></trkpt><trkpt lat="51.710685" lon="-9.4369117"><ele>18.0</ele><time>2026-05-05T16:24:43.192Z</time></trkpt><trkpt lat="51.710855" lon="-9.436865"><ele>18.0</ele><time>2026-05-05T16:24:44.191Z</time></trkpt><trkpt lat="51.711025" lon="-9.4368267"><ele>18.0</ele><time>2026-05-05T16:24:45.192Z</time></trkpt><trkpt lat="51.711205" lon="-9.43682"><ele>18.0</ele><time>2026-05-05T16:24:46.192Z</time></trkpt><trkpt lat="51.7113917" lon="-9.436855"><ele>18.0</ele><time>2026-05-05T16:24:47.192Z</time></trkpt><trkpt lat="51.71159" lon="-9.4369"><ele>18.0</ele><time>2026-05-05T16:24:48.191Z</time></trkpt><trkpt lat="51.711795" lon="-9.4369617"><ele>18.0</ele><time>2026-05-05T16:24:49.192Z</time></trkpt><trkpt lat="51.7120033" lon="-9.4370317"><ele>18.0</ele><time>2026-05-05T16:24:50.191Z</time></trkpt><trkpt lat="51.712205" lon="-9.4371083"><ele>18.0</ele><time>2026-05-05T16:24:51.191Z</time></trkpt><trkpt lat="51.7124217" lon="-9.43721"><ele>18.0</ele><time>2026-05-05T16:24:52.192Z</time></trkpt><trkpt lat="51.7126217" lon="-9.437275"><ele>18.0</ele><time>2026-05-05T16:24:53.191Z</time></trkpt><trkpt lat="51.7128217" lon="-9.4373333"><ele>18.0</ele><time>2026-05-05T16:24:54.192Z</time></trkpt><trkpt lat="51.7130283" lon="-9.4373633"><ele>18.0</ele><time>2026-05-05T16:24:55.192Z</time></trkpt><trkpt lat="51.7132433" lon="-9.43743"><ele>18.0</ele><time>2026-05-05T16:24:56.192Z</time></trkpt><trkpt lat="51.71347" lon="-9.4375083"><ele>20.0</ele><time>2026-05-05T16:24:57.192Z</time></trkpt><trkpt lat="51.7136833" lon="-9.43757"><ele>22.0</ele><time>2026-05-05T16:24:58.192Z</time></trkpt><trkpt lat="51.7138817" lon="-9.4376333"><ele>24.0</ele><time>2026-05-05T16:24:59.192Z</time></trkpt><trkpt lat="51.7140717" lon="-9.4377"><ele>24.0</ele><time>2026-05-05T16:25:00.192Z</time></trkpt><trkpt lat="51.7142567" lon="-9.4377667"><ele>24.0</ele><time>2026-05-05T16:25:01.192Z</time></trkpt><trkpt lat="51.7144483" lon="-9.4378383"><ele>24.0</ele><time>2026-05-05T16:25:02.192Z</time></trkpt><trkpt lat="51.7146367" lon="-9.4378833"><ele>23.333333333333332</ele><time>2026-05-05T16:25:03.192Z</time></trkpt><trkpt lat="51.7148317" lon="-9.4379333"><ele>22.666666666666664</ele><time>2026-05-05T16:25:04.192Z</time></trkpt><trkpt lat="51.7150133" lon="-9.4379717"><ele>22.0</ele><time>2026-05-05T16:25:05.192Z</time></trkpt><trkpt lat="51.7151917" lon="-9.4380067"><ele>22.0</ele><time>2026-05-05T16:25:06.191Z</time></trkpt><trkpt lat="51.7153567" lon="-9.43804"><ele>22.0</ele><time>2026-05-05T16:25:07.192Z</time></trkpt><trkpt lat="51.7155133" lon="-9.4380767"><ele>22.0</ele><time>2026-05-05T16:25:08.192Z</time></trkpt><trkpt lat="51.71566" lon="-9.4380983"><ele>22.0</ele><time>2026-05-05T16:25:09.192Z</time></trkpt><trkpt lat="51.7158133" lon="-9.4381367"><ele>22.0</ele><time>2026-05-05T16:25:10.192Z</time></trkpt><trkpt lat="51.7159817" lon="-9.4381967"><ele>22.0</ele><time>2026-05-05T16:25:11.192Z</time></trkpt><trkpt lat="51.7161383" lon="-9.43824"><ele>22.666666666666664</ele><time>2026-05-05T16:25:12.191Z</time></trkpt><trkpt lat="51.7162933" lon="-9.43826"><ele>23.333333333333332</ele><time>2026-05-05T16:25:13.192Z</time></trkpt><trkpt lat="51.7164533" lon="-9.4383217"><ele>24.0</ele><time>2026-05-05T16:25:14.192Z</time></trkpt><trkpt lat="51.7166167" lon="-9.4384233"><ele>24.0</ele><time>2026-05-05T16:25:15.192Z</time></trkpt><trkpt lat="51.7167717" lon="-9.4385133"><ele>24.0</ele><time>2026-05-05T16:25:16.192Z</time></trkpt><trkpt lat="51.7169217" lon="-9.4386283"><ele>24.0</ele><time>2026-05-05T16:25:17.191Z</time></trkpt><trkpt lat="51.71706" lon="-9.4387733"><ele>23.666666666666668</ele><time>2026-05-05T16:25:18.192Z</time></trkpt><trkpt lat="51.71717" lon="-9.4389067"><ele>23.333333333333336</ele><time>2026-05-05T16:25:19.192Z</time></trkpt><trkpt lat="51.7173" lon="-9.4390633"><ele>23.0</ele><time>2026-05-05T16:25:20.192Z</time></trkpt><trkpt lat="51.7174367" lon="-9.4392233"><ele>23.0</ele><time>2026-05-05T16:25:21.191Z</time></trkpt><trkpt lat="51.7175817" lon="-9.4393767"><ele>23.0</ele><time>2026-05-05T16:25:22.192Z</time></trkpt><trkpt lat="51.7177217" lon="-9.4394967"><ele>23.0</ele><time>2026-05-05T16:25:23.192Z</time></trkpt><trkpt lat="51.7178567" lon="-9.4395967"><ele>20.666666666666668</ele><time>2026-05-05T16:25:24.192Z</time></trkpt><trkpt lat="51.7179917" lon="-9.439675"><ele>18.333333333333332</ele><time>2026-05-05T16:25:25.192Z</time></trkpt><trkpt lat="51.7181383" lon="-9.4397333"><ele>16.0</ele><time>2026-05-05T16:25:26.192Z</time></trkpt><trkpt lat="51.7182933" lon="-9.4397567"><ele>16.0</ele><time>2026-05-05T16:25:27.192Z</time></trkpt><trkpt lat="51.7184467" lon="-9.4397683"><ele>16.0</ele><time>2026-05-05T16:25:28.192Z</time></trkpt><trkpt lat="51.718605" lon="-9.4397467"><ele>16.0</ele><time>2026-05-05T16:25:29.192Z</time></trkpt><trkpt lat="51.71876" lon="-9.439685"><ele>16.0</ele><time>2026-05-05T16:25:30.191Z</time></trkpt><trkpt lat="51.718895" lon="-9.4395267"><ele>16.0</ele><time>2026-05-05T16:25:31.192Z</time></trkpt><trkpt lat="51.719025" lon="-9.4393217"><ele>16.0</ele><time>2026-05-05T16:25:32.191Z</time></trkpt><trkpt lat="51.7191667" lon="-9.4391717"><ele>16.0</ele><time>2026-05-05T16:25:33.191Z</time></trkpt><trkpt lat="51.7192933" lon="-9.439005"><ele>16.0</ele><time>2026-05-05T16:25:34.192Z</time></trkpt><trkpt lat="51.7194017" lon="-9.438835"><ele>16.0</ele><time>2026-05-05T16:25:35.192Z</time></trkpt><trkpt lat="51.7195117" lon="-9.43868"><ele>15.25</ele><time>2026-05-05T16:25:36.191Z</time></trkpt><trkpt lat="51.7196217" lon="-9.4385467"><ele>14.5</ele><time>2026-05-05T16:25:37.192Z</time></trkpt><trkpt lat="51.7197417" lon="-9.4384367"><ele>13.75</ele><time>2026-05-05T16:25:38.192Z</time></trkpt><trkpt lat="51.71987" lon="-9.4383533"><ele>13.0</ele><time>2026-05-05T16:25:39.191Z</time></trkpt><trkpt lat="51.72" lon="-9.4382633"><ele>13.0</ele><time>2026-05-05T16:25:40.192Z</time></trkpt><trkpt lat="51.720145" lon="-9.43818"><ele>13.0</ele><time>2026-05-05T16:25:41.192Z</time></trkpt><trkpt lat="51.7202983" lon="-9.438095"><ele>13.0</ele><time>2026-05-05T16:25:42.192Z</time></trkpt><trkpt lat="51.7204517" lon="-9.4380117"><ele>12.75</ele><time>2026-05-05T16:25:43.192Z</time></trkpt><trkpt lat="51.7206017" lon="-9.4379417"><ele>12.5</ele><time>2026-05-05T16:25:44.192Z</time></trkpt><trkpt lat="51.7207417" lon="-9.4378817"><ele>12.25</ele><time>2026-05-05T16:25:45.192Z</time></trkpt><trkpt lat="51.7208783" lon="-9.43783"><ele>12.0</ele><time>2026-05-05T16:25:46.192Z</time></trkpt><trkpt lat="51.7210183" lon="-9.43778"><ele>12.25</ele><time>2026-05-05T16:25:47.191Z</time></trkpt><trkpt lat="51.721165" lon="-9.43774"><ele>12.5</ele><time>2026-05-05T16:25:48.192Z</time></trkpt><trkpt lat="51.721305" lon="-9.437715"><ele>12.75</ele><time>2026-05-05T16:25:49.191Z</time></trkpt><trkpt lat="51.7214483" lon="-9.43772"><ele>13.0</ele><time>2026-05-05T16:25:50.192Z</time></trkpt><trkpt lat="51.7215817" lon="-9.437715"><ele>13.0</ele><time>2026-05-05T16:25:51.192Z</time></trkpt><trkpt lat="51.7217167" lon="-9.43775"><ele>13.0</ele><time>2026-05-05T16:25:52.191Z</time></trkpt><trkpt lat="51.7218583" lon="-9.4378017"><ele>13.0</ele><time>2026-05-05T16:25:53.192Z</time></trkpt><trkpt lat="51.7220133" lon="-9.43786"><ele>13.0</ele><time>2026-05-05T16:25:54.192Z</time></trkpt><trkpt lat="51.7221683" lon="-9.4379133"><ele>12.666666666666666</ele><time>2026-05-05T16:25:55.191Z</time></trkpt><trkpt lat="51.722355" lon="-9.4379933"><ele>12.333333333333332</ele><time>2026-05-05T16:25:56.192Z</time></trkpt><trkpt lat="51.7225333" lon="-9.43807"><ele>12.0</ele><time>2026-05-05T16:25:57.192Z</time></trkpt><trkpt lat="51.722695" lon="-9.43815"><ele>12.0</ele><time>2026-05-05T16:25:58.192Z</time></trkpt><trkpt lat="51.7228633" lon="-9.4383117"><ele>12.0</ele><time>2026-05-05T16:25:59.192Z</time></trkpt><trkpt lat="51.7230183" lon="-9.4384417"><ele>12.0</ele><time>2026-05-05T16:26:00.192Z</time></trkpt><trkpt lat="51.7231567" lon="-9.4385533"><ele>12.0</ele><time>2026-05-05T16:26:01.192Z</time></trkpt><trkpt lat="51.7232817" lon="-9.43869"><ele>12.0</ele><time>2026-05-05T16:26:02.192Z</time></trkpt><trkpt lat="51.7233717" lon="-9.438815"><ele>12.0</ele><time>2026-05-05T16:26:03.191Z</time></trkpt><trkpt lat="51.72348" lon="-9.43908"><ele>12.0</ele><time>2026-05-05T16:26:04.192Z</time></trkpt><trkpt lat="51.72356" lon="-9.439355"><ele>12.0</ele><time>2026-05-05T16:26:05.192Z</time></trkpt><trkpt lat="51.7236183" lon="-9.4395733"><ele>12.0</ele><time>2026-05-05T16:26:06.192Z</time></trkpt><trkpt lat="51.7236717" lon="-9.4397083"><ele>12.0</ele><time>2026-05-05T16:26:07.192Z</time></trkpt><trkpt lat="51.7236917" lon="-9.4398617"><ele>12.25</ele><time>2026-05-05T16:26:08.192Z</time></trkpt><trkpt lat="51.723745" lon="-9.4400017"><ele>12.5</ele><time>2026-05-05T16:26:09.192Z</time></trkpt><trkpt lat="51.7237817" lon="-9.4401617"><ele>12.75</ele><time>2026-05-05T16:26:10.191Z</time></trkpt><trkpt lat="51.7237" lon="-9.440315"><ele>13.0</ele><time>2026-05-05T16:26:11.191Z</time></trkpt><trkpt lat="51.7235967" lon="-9.4404817"><ele>13.0</ele><time>2026-05-05T16:26:12.192Z</time></trkpt><trkpt lat="51.7234717" lon="-9.440635"><ele>13.0</ele><time>2026-05-05T16:26:13.192Z</time></trkpt><trkpt lat="51.7233133" lon="-9.4408083"><ele>13.0</ele><time>2026-05-05T16:26:14.192Z</time></trkpt><trkpt lat="51.7231667" lon="-9.4409967"><ele>13.0</ele><time>2026-05-05T16:26:15.191Z</time></trkpt><trkpt lat="51.7230033" lon="-9.4412033"><ele>13.0</ele><time>2026-05-05T16:26:16.192Z</time></trkpt><trkpt lat="51.7228583" lon="-9.44142"><ele>13.0</ele><time>2026-05-05T16:26:17.192Z</time></trkpt><trkpt lat="51.72273" lon="-9.4416483"><ele>13.333333333333332</ele><time>2026-05-05T16:26:18.191Z</time></trkpt><trkpt lat="51.7225617" lon="-9.4419033"><ele>13.666666666666668</ele><time>2026-05-05T16:26:19.191Z</time></trkpt><trkpt lat="51.722445" lon="-9.4421417"><ele>14.0</ele><time>2026-05-05T16:26:20.192Z</time></trkpt><trkpt lat="51.72234" lon="-9.4423783"><ele>14.0</ele><time>2026-05-05T16:26:21.192Z</time></trkpt><trkpt lat="51.7222433" lon="-9.44261"><ele>14.0</ele><time>2026-05-05T16:26:22.192Z</time></trkpt><trkpt lat="51.7221267" lon="-9.4428667"><ele>14.0</ele><time>2026-05-05T16:26:23.191Z</time></trkpt><trkpt lat="51.7220417" lon="-9.4431217"><ele>13.666666666666668</ele><time>2026-05-05T16:26:24.192Z</time></trkpt><trkpt lat="51.7219617" lon="-9.4433883"><ele>13.333333333333332</ele><time>2026-05-05T16:26:25.192Z</time></trkpt><trkpt lat="51.7218683" lon="-9.4436533"><ele>13.0</ele><time>2026-05-05T16:26:26.192Z</time></trkpt><trkpt lat="51.7217833" lon="-9.4439433"><ele>10.666666666666666</ele><time>2026-05-05T16:26:27.192Z</time></trkpt><trkpt lat="51.7216883" lon="-9.4442333"><ele>8.333333333333332</ele><time>2026-05-05T16:26:28.191Z</time></trkpt><trkpt lat="51.7216017" lon="-9.444535"><ele>6.0</ele><time>2026-05-05T16:26:29.192Z</time></trkpt><trkpt lat="51.721515" lon="-9.4448333"><ele>6.0</ele><time>2026-05-05T16:26:30.192Z</time></trkpt><trkpt lat="51.7214267" lon="-9.4450967"><ele>6.0</ele><time>2026-05-05T16:26:31.192Z</time></trkpt><trkpt lat="51.7213417" lon="-9.4453717"><ele>6.0</ele><time>2026-05-05T16:26:32.192Z</time></trkpt><trkpt lat="51.7212533" lon="-9.4456517"><ele>7.0</ele><time>2026-05-05T16:26:33.192Z</time></trkpt><trkpt lat="51.72118" lon="-9.44594"><ele>8.0</ele><time>2026-05-05T16:26:34.191Z</time></trkpt><trkpt lat="51.7211167" lon="-9.4462433"><ele>9.0</ele><time>2026-05-05T16:26:35.192Z</time></trkpt><trkpt lat="51.7210667" lon="-9.4465467"><ele>9.0</ele><time>2026-05-05T16:26:36.191Z</time></trkpt><trkpt lat="51.7210333" lon="-9.4468583"><ele>9.0</ele><time>2026-05-05T16:26:37.192Z</time></trkpt><trkpt lat="51.7210133" lon="-9.4472067"><ele>9.0</ele><time>2026-05-05T16:26:38.192Z</time></trkpt><trkpt lat="51.720995" lon="-9.4475183"><ele>9.333333333333334</ele><time>2026-05-05T16:26:39.191Z</time></trkpt><trkpt lat="51.7210183" lon="-9.4478417"><ele>9.666666666666668</ele><time>2026-05-05T16:26:40.192Z</time></trkpt><trkpt lat="51.7210383" lon="-9.4481533"><ele>10.0</ele><time>2026-05-05T16:26:41.191Z</time></trkpt><trkpt lat="51.72106" lon="-9.448475"><ele>10.666666666666668</ele><time>2026-05-05T16:26:42.192Z</time></trkpt><trkpt lat="51.7210817" lon="-9.4487883"><ele>11.333333333333334</ele><time>2026-05-05T16:26:43.192Z</time></trkpt><trkpt lat="51.7210917" lon="-9.4490883"><ele>12.0</ele><time>2026-05-05T16:26:44.192Z</time></trkpt><trkpt lat="51.7211" lon="-9.4493933"><ele>13.0</ele><time>2026-05-05T16:26:45.192Z</time></trkpt><trkpt lat="51.7211083" lon="-9.449695"><ele>14.0</ele><time>2026-05-05T16:26:46.192Z</time></trkpt><trkpt lat="51.7211217" lon="-9.4499867"><ele>15.0</ele><time>2026-05-05T16:26:47.192Z</time></trkpt><trkpt lat="51.7211533" lon="-9.45027"><ele>15.0</ele><time>2026-05-05T16:26:48.191Z</time></trkpt><trkpt lat="51.7212" lon="-9.4505467"><ele>15.0</ele><time>2026-05-05T16:26:49.191Z</time></trkpt><trkpt lat="51.7212717" lon="-9.4508067"><ele>15.0</ele><time>2026-05-05T16:26:50.192Z</time></trkpt><trkpt lat="51.7214667" lon="-9.4509733"><ele>15.0</ele><time>2026-05-05T16:26:51.192Z</time></trkpt><trkpt lat="51.7215717" lon="-9.4512033"><ele>15.0</ele><time>2026-05-05T16:26:52.192Z</time></trkpt><trkpt lat="51.7216867" lon="-9.4514067"><ele>15.0</ele><time>2026-05-05T16:26:53.192Z</time></trkpt><trkpt lat="51.7218067" lon="-9.4515933"><ele>14.333333333333332</ele><time>2026-05-05T16:26:54.191Z</time></trkpt><trkpt lat="51.7219417" lon="-9.4517417"><ele>13.666666666666666</ele><time>2026-05-05T16:26:55.192Z</time></trkpt><trkpt lat="51.722105" lon="-9.4517717"><ele>13.0</ele><time>2026-05-05T16:26:56.192Z</time></trkpt><trkpt lat="51.7222717" lon="-9.4518683"><ele>13.0</ele><time>2026-05-05T16:26:57.192Z</time></trkpt><trkpt lat="51.7224583" lon="-9.4519567"><ele>13.0</ele><time>2026-05-05T16:26:58.191Z</time></trkpt><trkpt lat="51.7226417" lon="-9.45202"><ele>13.0</ele><time>2026-05-05T16:26:59.191Z</time></trkpt><trkpt lat="51.7228233" lon="-9.45203"><ele>12.333333333333332</ele><time>2026-05-05T16:27:00.192Z</time></trkpt><trkpt lat="51.7230533" lon="-9.4519617"><ele>11.666666666666666</ele><time>2026-05-05T16:27:01.192Z</time></trkpt><trkpt lat="51.723265" lon="-9.4519383"><ele>11.0</ele><time>2026-05-05T16:27:02.192Z</time></trkpt><trkpt lat="51.7234933" lon="-9.4518683"><ele>9.0</ele><time>2026-05-05T16:27:03.191Z</time></trkpt><trkpt lat="51.7237617" lon="-9.45176"><ele>7.0</ele><time>2026-05-05T16:27:04.192Z</time></trkpt><trkpt lat="51.7239767" lon="-9.4516533"><ele>7.0</ele><time>2026-05-05T16:27:05.192Z</time></trkpt><trkpt lat="51.7241783" lon="-9.4515533"><ele>7.0</ele><time>2026-05-05T16:27:06.192Z</time></trkpt><trkpt lat="51.724375" lon="-9.4514567"><ele>7.0</ele><time>2026-05-05T16:27:07.192Z</time></trkpt><trkpt lat="51.72454" lon="-9.4513717"><ele>7.666666666666667</ele><time>2026-05-05T16:27:08.191Z</time></trkpt><trkpt lat="51.7247" lon="-9.4512867"><ele>8.333333333333334</ele><time>2026-05-05T16:27:09.192Z</time></trkpt><trkpt lat="51.7248517" lon="-9.4511917"><ele>9.0</ele><time>2026-05-05T16:27:10.191Z</time></trkpt><trkpt lat="51.725" lon="-9.45107"><ele>9.0</ele><time>2026-05-05T16:27:11.192Z</time></trkpt><trkpt lat="51.7251533" lon="-9.4509"><ele>9.0</ele><time>2026-05-05T16:27:12.191Z</time></trkpt><trkpt lat="51.7252867" lon="-9.4506833"><ele>9.0</ele><time>2026-05-05T16:27:13.191Z</time></trkpt><trkpt lat="51.7254217" lon="-9.450445"><ele>8.333333333333334</ele><time>2026-05-05T16:27:14.192Z</time></trkpt><trkpt lat="51.7255567" lon="-9.4501917"><ele>7.666666666666667</ele><time>2026-05-05T16:27:15.192Z</time></trkpt><trkpt lat="51.72569" lon="-9.4499517"><ele>7.0</ele><time>2026-05-05T16:27:16.192Z</time></trkpt><trkpt lat="51.7258167" lon="-9.4497383"><ele>7.0</ele><time>2026-05-05T16:27:17.192Z</time></trkpt><trkpt lat="51.7259367" lon="-9.4495417"><ele>7.0</ele><time>2026-05-05T16:27:18.191Z</time></trkpt><trkpt lat="51.7260533" lon="-9.4493733"><ele>7.0</ele><time>2026-05-05T16:27:19.192Z</time></trkpt><trkpt lat="51.726165" lon="-9.4492317"><ele>7.0</ele><time>2026-05-05T16:27:20.192Z</time></trkpt><trkpt lat="51.72629" lon="-9.44912"><ele>7.0</ele><time>2026-05-05T16:27:21.192Z</time></trkpt><trkpt lat="51.7264367" lon="-9.4490417"><ele>7.0</ele><time>2026-05-05T16:27:22.191Z</time></trkpt><trkpt lat="51.7265883" lon="-9.4489917"><ele>7.0</ele><time>2026-05-05T16:27:23.192Z</time></trkpt><trkpt lat="51.72674" lon="-9.4489717"><ele>7.0</ele><time>2026-05-05T16:27:24.191Z</time></trkpt><trkpt lat="51.726905" lon="-9.4489867"><ele>7.0</ele><time>2026-05-05T16:27:25.192Z</time></trkpt><trkpt lat="51.7270767" lon="-9.44905"><ele>6.0</ele><time>2026-05-05T16:27:26.192Z</time></trkpt><trkpt lat="51.7272483" lon="-9.4491517"><ele>5.0</ele><time>2026-05-05T16:27:27.192Z</time></trkpt><trkpt lat="51.72741" lon="-9.44929"><ele>4.0</ele><time>2026-05-05T16:27:28.191Z</time></trkpt><trkpt lat="51.7275533" lon="-9.4494567"><ele>4.0</ele><time>2026-05-05T16:27:29.192Z</time></trkpt><trkpt lat="51.7276733" lon="-9.4496633"><ele>4.0</ele><time>2026-05-05T16:27:30.191Z</time></trkpt><trkpt lat="51.72777" lon="-9.4498933"><ele>4.0</ele><time>2026-05-05T16:27:31.192Z</time></trkpt><trkpt lat="51.7278483" lon="-9.450155"><ele>6.333333333333333</ele><time>2026-05-05T16:27:32.191Z</time></trkpt><trkpt lat="51.7278917" lon="-9.4504817"><ele>8.666666666666666</ele><time>2026-05-05T16:27:33.192Z</time></trkpt><trkpt lat="51.7279267" lon="-9.4507967"><ele>11.0</ele><time>2026-05-05T16:27:34.192Z</time></trkpt><trkpt lat="51.7279583" lon="-9.451095"><ele>11.0</ele><time>2026-05-05T16:27:35.192Z</time></trkpt><trkpt lat="51.7279967" lon="-9.4513883"><ele>11.0</ele><time>2026-05-05T16:27:36.192Z</time></trkpt><trkpt lat="51.7280417" lon="-9.4516733"><ele>11.0</ele><time>2026-05-05T16:27:37.191Z</time></trkpt><trkpt lat="51.7280933" lon="-9.4519417"><ele>10.666666666666666</ele><time>2026-05-05T16:27:38.191Z</time></trkpt><trkpt lat="51.7281617" lon="-9.452185"><ele>10.333333333333334</ele><time>2026-05-05T16:27:39.191Z</time></trkpt><trkpt lat="51.7282483" lon="-9.45241"><ele>10.0</ele><time>2026-05-05T16:27:40.192Z</time></trkpt><trkpt lat="51.7283483" lon="-9.4526167"><ele>10.0</ele><time>2026-05-05T16:27:41.192Z</time></trkpt><trkpt lat="51.7284567" lon="-9.45278"><ele>10.0</ele><time>2026-05-05T16:27:42.191Z</time></trkpt><trkpt lat="51.72858" lon="-9.4528933"><ele>10.0</ele><time>2026-05-05T16:27:43.192Z</time></trkpt><trkpt lat="51.7287267" lon="-9.45298"><ele>10.0</ele><time>2026-05-05T16:27:44.192Z</time></trkpt><trkpt lat="51.7288833" lon="-9.4530317"><ele>10.333333333333334</ele><time>2026-05-05T16:27:45.192Z</time></trkpt><trkpt lat="51.7290533" lon="-9.4530483"><ele>10.666666666666666</ele><time>2026-05-05T16:27:46.192Z</time></trkpt><trkpt lat="51.7292217" lon="-9.4530033"><ele>11.0</ele><time>2026-05-05T16:27:47.192Z</time></trkpt><trkpt lat="51.7293833" lon="-9.4529167"><ele>8.333333333333332</ele><time>2026-05-05T16:27:48.192Z</time></trkpt><trkpt lat="51.729545" lon="-9.4527783"><ele>5.666666666666666</ele><time>2026-05-05T16:27:49.191Z</time></trkpt><trkpt lat="51.7297017" lon="-9.4526133"><ele>3.0</ele><time>2026-05-05T16:27:50.191Z</time></trkpt><trkpt lat="51.729855" lon="-9.45242"><ele>3.0</ele><time>2026-05-05T16:27:51.192Z</time></trkpt><trkpt lat="51.7299917" lon="-9.4521917"><ele>3.0</ele><time>2026-05-05T16:27:52.191Z</time></trkpt><trkpt lat="51.7301133" lon="-9.4519283"><ele>3.0</ele><time>2026-05-05T16:27:53.192Z</time></trkpt><trkpt lat="51.7302267" lon="-9.4516617"><ele>2.6666666666666665</ele><time>2026-05-05T16:27:54.192Z</time></trkpt><trkpt lat="51.73035" lon="-9.45142"><ele>2.333333333333333</ele><time>2026-05-05T16:27:55.191Z</time></trkpt><trkpt lat="51.730475" lon="-9.4511967"><ele>2.0</ele><time>2026-05-05T16:27:56.191Z</time></trkpt><trkpt lat="51.73061" lon="-9.4510133"><ele>3.333333333333333</ele><time>2026-05-05T16:27:57.191Z</time></trkpt><trkpt lat="51.73075" lon="-9.4508567"><ele>4.666666666666667</ele><time>2026-05-05T16:27:58.191Z</time></trkpt><trkpt lat="51.7308967" lon="-9.450745"><ele>6.0</ele><time>2026-05-05T16:27:59.191Z</time></trkpt><trkpt lat="51.7310633" lon="-9.4506683"><ele>6.333333333333334</ele><time>2026-05-05T16:28:00.192Z</time></trkpt><trkpt lat="51.731225" lon="-9.4506283"><ele>6.666666666666667</ele><time>2026-05-05T16:28:01.191Z</time></trkpt><trkpt lat="51.7314033" lon="-9.4506633"><ele>7.0</ele><time>2026-05-05T16:28:02.191Z</time></trkpt><trkpt lat="51.731565" lon="-9.45073"><ele>7.0</ele><time>2026-05-05T16:28:03.192Z</time></trkpt><trkpt lat="51.7317283" lon="-9.4508483"><ele>7.0</ele><time>2026-05-05T16:28:04.192Z</time></trkpt><trkpt lat="51.73188" lon="-9.451"><ele>7.0</ele><time>2026-05-05T16:28:05.192Z</time></trkpt><trkpt lat="51.732" lon="-9.4512083"><ele>6.0</ele><time>2026-05-05T16:28:06.191Z</time></trkpt><trkpt lat="51.7320933" lon="-9.4514967"><ele>5.0</ele><time>2026-05-05T16:28:07.192Z</time></trkpt><trkpt lat="51.7321917" lon="-9.4518083"><ele>4.0</ele><time>2026-05-05T16:28:08.192Z</time></trkpt><trkpt lat="51.7322767" lon="-9.4520933"><ele>4.333333333333333</ele><time>2026-05-05T16:28:09.192Z</time></trkpt><trkpt lat="51.7323517" lon="-9.4523617"><ele>4.666666666666667</ele><time>2026-05-05T16:28:10.192Z</time></trkpt><trkpt lat="51.7324217" lon="-9.4526467"><ele>5.0</ele><time>2026-05-05T16:28:11.192Z</time></trkpt><trkpt lat="51.7324633" lon="-9.4529233"><ele>6.333333333333334</ele><time>2026-05-05T16:28:12.191Z</time></trkpt><trkpt lat="51.7324767" lon="-9.4532167"><ele>7.666666666666667</ele><time>2026-05-05T16:28:13.191Z</time></trkpt><trkpt lat="51.7324767" lon="-9.45349"><ele>9.0</ele><time>2026-05-05T16:28:14.191Z</time></trkpt><trkpt lat="51.7324533" lon="-9.4537417"><ele>11.0</ele><time>2026-05-05T16:28:15.191Z</time></trkpt><trkpt lat="51.7324083" lon="-9.4539983"><ele>13.0</ele><time>2026-05-05T16:28:16.191Z</time></trkpt><trkpt lat="51.7323267" lon="-9.45428"><ele>15.0</ele><time>2026-05-05T16:28:17.192Z</time></trkpt><trkpt lat="51.73218" lon="-9.4546267"><ele>17.5</ele><time>2026-05-05T16:28:18.191Z</time></trkpt><trkpt lat="51.732065" lon="-9.454945"><ele>20.0</ele><time>2026-05-05T16:28:19.192Z</time></trkpt><trkpt lat="51.7319117" lon="-9.4553167"><ele>18.5</ele><time>2026-05-05T16:28:20.192Z</time></trkpt><trkpt lat="51.7317733" lon="-9.455695"><ele>17.0</ele><time>2026-05-05T16:28:21.192Z</time></trkpt><trkpt lat="51.7316467" lon="-9.4560683"><ele>19.5</ele><time>2026-05-05T16:28:22.192Z</time></trkpt><trkpt lat="51.7315267" lon="-9.4564433"><ele>22.0</ele><time>2026-05-05T16:28:23.191Z</time></trkpt><trkpt lat="51.7314083" lon="-9.456825"><ele>24.5</ele><time>2026-05-05T16:28:24.192Z</time></trkpt><trkpt lat="51.7312867" lon="-9.4572067"><ele>27.0</ele><time>2026-05-05T16:28:25.191Z</time></trkpt><trkpt lat="51.7311633" lon="-9.4575883"><ele>27.5</ele><time>2026-05-05T16:28:26.192Z</time></trkpt><trkpt lat="51.7310483" lon="-9.457975"><ele>28.0</ele><time>2026-05-05T16:28:27.192Z</time></trkpt><trkpt lat="51.7309183" lon="-9.45834"><ele>28.0</ele><time>2026-05-05T16:28:28.191Z</time></trkpt><trkpt lat="51.7307967" lon="-9.45868"><ele>28.0</ele><time>2026-05-05T16:28:29.191Z</time></trkpt><trkpt lat="51.730695" lon="-9.4590017"><ele>29.0</ele><time>2026-05-05T16:28:30.191Z</time></trkpt><trkpt lat="51.7306533" lon="-9.4593083"><ele>30.0</ele><time>2026-05-05T16:28:31.192Z</time></trkpt><trkpt lat="51.7305867" lon="-9.4596517"><ele>31.0</ele><time>2026-05-05T16:28:32.192Z</time></trkpt><trkpt lat="51.730565" lon="-9.4599983"><ele>31.5</ele><time>2026-05-05T16:28:33.191Z</time></trkpt><trkpt lat="51.730535" lon="-9.4603633"><ele>32.0</ele><time>2026-05-05T16:28:34.191Z</time></trkpt><trkpt lat="51.7305017" lon="-9.4607333"><ele>32.0</ele><time>2026-05-05T16:28:35.192Z</time></trkpt><trkpt lat="51.730465" lon="-9.461115"><ele>32.0</ele><time>2026-05-05T16:28:36.191Z</time></trkpt><trkpt lat="51.730395" lon="-9.46151"><ele>31.0</ele><time>2026-05-05T16:28:37.191Z</time></trkpt><trkpt lat="51.7303167" lon="-9.4619717"><ele>30.0</ele><time>2026-05-05T16:28:38.192Z</time></trkpt><trkpt lat="51.7302667" lon="-9.4623683"><ele>29.5</ele><time>2026-05-05T16:28:39.192Z</time></trkpt><trkpt lat="51.73022" lon="-9.4627817"><ele>29.0</ele><time>2026-05-05T16:28:40.191Z</time></trkpt><trkpt lat="51.7301683" lon="-9.463155"><ele>29.0</ele><time>2026-05-05T16:28:41.191Z</time></trkpt><trkpt lat="51.73012" lon="-9.4634833"><ele>29.0</ele><time>2026-05-05T16:28:42.192Z</time></trkpt><trkpt lat="51.7300933" lon="-9.463845"><ele>29.0</ele><time>2026-05-05T16:28:43.192Z</time></trkpt><trkpt lat="51.7300667" lon="-9.4641567"><ele>29.333333333333332</ele><time>2026-05-05T16:28:44.192Z</time></trkpt><trkpt lat="51.7300217" lon="-9.4644767"><ele>29.666666666666664</ele><time>2026-05-05T16:28:45.192Z</time></trkpt><trkpt lat="51.7299733" lon="-9.464795"><ele>30.0</ele><time>2026-05-05T16:28:46.192Z</time></trkpt><trkpt lat="51.7299233" lon="-9.4651083"><ele>30.333333333333336</ele><time>2026-05-05T16:28:47.192Z</time></trkpt><trkpt lat="51.7298883" lon="-9.4654283"><ele>30.666666666666668</ele><time>2026-05-05T16:28:48.192Z</time></trkpt><trkpt lat="51.7298583" lon="-9.4657567"><ele>31.0</ele><time>2026-05-05T16:28:49.192Z</time></trkpt><trkpt lat="51.7298167" lon="-9.4660833"><ele>33.0</ele><time>2026-05-05T16:28:50.191Z</time></trkpt><trkpt lat="51.7297633" lon="-9.4663967"><ele>35.0</ele><time>2026-05-05T16:28:51.192Z</time></trkpt><trkpt lat="51.7297117" lon="-9.4667167"><ele>37.0</ele><time>2026-05-05T16:28:52.192Z</time></trkpt><trkpt lat="51.7296683" lon="-9.4670133"><ele>37.66666666666667</ele><time>2026-05-05T16:28:53.192Z</time></trkpt><trkpt lat="51.7296217" lon="-9.4672983"><ele>38.333333333333336</ele><time>2026-05-05T16:28:54.191Z</time></trkpt><trkpt lat="51.7295517" lon="-9.4675983"><ele>39.0</ele><time>2026-05-05T16:28:55.192Z</time></trkpt><trkpt lat="51.72947" lon="-9.467895"><ele>39.0</ele><time>2026-05-05T16:28:56.192Z</time></trkpt><trkpt lat="51.729375" lon="-9.4682033"><ele>39.0</ele><time>2026-05-05T16:28:57.192Z</time></trkpt><trkpt lat="51.729255" lon="-9.46852"><ele>39.0</ele><time>2026-05-05T16:28:58.192Z</time></trkpt><trkpt lat="51.7290783" lon="-9.468905"><ele>39.0</ele><time>2026-05-05T16:28:59.192Z</time></trkpt><trkpt lat="51.7289417" lon="-9.46922"><ele>39.0</ele><time>2026-05-05T16:29:00.191Z</time></trkpt><trkpt lat="51.7288067" lon="-9.4695383"><ele>40.5</ele><time>2026-05-05T16:29:01.192Z</time></trkpt><trkpt lat="51.7286667" lon="-9.4698517"><ele>42.0</ele><time>2026-05-05T16:29:02.192Z</time></trkpt><trkpt lat="51.7285317" lon="-9.4701583"><ele>43.5</ele><time>2026-05-05T16:29:03.192Z</time></trkpt><trkpt lat="51.7284" lon="-9.4704817"><ele>45.0</ele><time>2026-05-05T16:29:04.191Z</time></trkpt><trkpt lat="51.7282717" lon="-9.4707783"><ele>45.0</ele><time>2026-05-05T16:29:05.191Z</time></trkpt><trkpt lat="51.7281267" lon="-9.471115"><ele>45.0</ele><time>2026-05-05T16:29:06.192Z</time></trkpt><trkpt lat="51.7280017" lon="-9.4714233"><ele>45.333333333333336</ele><time>2026-05-05T16:29:07.191Z</time></trkpt><trkpt lat="51.727895" lon="-9.47173"><ele>45.66666666666667</ele><time>2026-05-05T16:29:08.192Z</time></trkpt><trkpt lat="51.7277967" lon="-9.4720367"><ele>46.0</ele><time>2026-05-05T16:29:09.191Z</time></trkpt><trkpt lat="51.7277083" lon="-9.472345"><ele>47.0</ele><time>2026-05-05T16:29:10.192Z</time></trkpt><trkpt lat="51.7276233" lon="-9.4726567"><ele>48.0</ele><time>2026-05-05T16:29:11.192Z</time></trkpt><trkpt lat="51.7275317" lon="-9.472965"><ele>49.0</ele><time>2026-05-05T16:29:12.192Z</time></trkpt><trkpt lat="51.7273617" lon="-9.473265"><ele>49.0</ele><time>2026-05-05T16:29:13.192Z</time></trkpt><trkpt lat="51.7272717" lon="-9.4736083"><ele>49.0</ele><time>2026-05-05T16:29:14.192Z</time></trkpt><trkpt lat="51.7271883" lon="-9.473955"><ele>48.33333333333333</ele><time>2026-05-05T16:29:15.192Z</time></trkpt><trkpt lat="51.727105" lon="-9.474285"><ele>47.666666666666664</ele><time>2026-05-05T16:29:16.191Z</time></trkpt><trkpt lat="51.7270883" lon="-9.474595"><ele>47.0</ele><time>2026-05-05T16:29:17.191Z</time></trkpt><trkpt lat="51.727055" lon="-9.47492"><ele>47.0</ele><time>2026-05-05T16:29:18.191Z</time></trkpt><trkpt lat="51.7270067" lon="-9.475265"><ele>47.0</ele><time>2026-05-05T16:29:19.192Z</time></trkpt><trkpt lat="51.726985" lon="-9.475625"><ele>47.0</ele><time>2026-05-05T16:29:20.191Z</time></trkpt><trkpt lat="51.727025" lon="-9.4760333"><ele>48.5</ele><time>2026-05-05T16:29:21.191Z</time></trkpt><trkpt lat="51.7270083" lon="-9.47642"><ele>50.0</ele><time>2026-05-05T16:29:22.192Z</time></trkpt><trkpt lat="51.7269783" lon="-9.47679"><ele>50.66666666666667</ele><time>2026-05-05T16:29:23.191Z</time></trkpt><trkpt lat="51.7269417" lon="-9.4771417"><ele>51.33333333333333</ele><time>2026-05-05T16:29:24.191Z</time></trkpt><trkpt lat="51.7268867" lon="-9.47747"><ele>52.0</ele><time>2026-05-05T16:29:25.192Z</time></trkpt><trkpt lat="51.7267883" lon="-9.4777717"><ele>50.0</ele><time>2026-05-05T16:29:26.191Z</time></trkpt><trkpt lat="51.7266617" lon="-9.47809"><ele>48.0</ele><time>2026-05-05T16:29:27.191Z</time></trkpt><trkpt lat="51.7265267" lon="-9.478415"><ele>48.0</ele><time>2026-05-05T16:29:28.192Z</time></trkpt><trkpt lat="51.7263933" lon="-9.4787333"><ele>48.0</ele><time>2026-05-05T16:29:29.192Z</time></trkpt><trkpt lat="51.7262567" lon="-9.4790433"><ele>47.666666666666664</ele><time>2026-05-05T16:29:30.191Z</time></trkpt><trkpt lat="51.726125" lon="-9.4793317"><ele>47.33333333333333</ele><time>2026-05-05T16:29:31.192Z</time></trkpt><trkpt lat="51.7259867" lon="-9.4795983"><ele>47.0</ele><time>2026-05-05T16:29:32.192Z</time></trkpt><trkpt lat="51.7258633" lon="-9.4798767"><ele>47.0</ele><time>2026-05-05T16:29:33.191Z</time></trkpt><trkpt lat="51.7257367" lon="-9.48016"><ele>47.0</ele><time>2026-05-05T16:29:34.192Z</time></trkpt><trkpt lat="51.7256167" lon="-9.480455"><ele>47.0</ele><time>2026-05-05T16:29:35.192Z</time></trkpt><trkpt lat="51.72549" lon="-9.48073"><ele>46.666666666666664</ele><time>2026-05-05T16:29:36.191Z</time></trkpt><trkpt lat="51.7253833" lon="-9.4810017"><ele>46.333333333333336</ele><time>2026-05-05T16:29:37.192Z</time></trkpt><trkpt lat="51.725295" lon="-9.4812967"><ele>46.0</ele><time>2026-05-05T16:29:38.192Z</time></trkpt><trkpt lat="51.7252067" lon="-9.4816267"><ele>46.0</ele><time>2026-05-05T16:29:39.191Z</time></trkpt><trkpt lat="51.7251233" lon="-9.4819733"><ele>46.0</ele><time>2026-05-05T16:29:40.192Z</time></trkpt><trkpt lat="51.7250483" lon="-9.4823367"><ele>47.5</ele><time>2026-05-05T16:29:41.192Z</time></trkpt><trkpt lat="51.7249683" lon="-9.48271"><ele>49.0</ele><time>2026-05-05T16:29:42.192Z</time></trkpt><trkpt lat="51.724885" lon="-9.48308"><ele>50.5</ele><time>2026-05-05T16:29:43.192Z</time></trkpt><trkpt lat="51.7248117" lon="-9.4834567"><ele>52.0</ele><time>2026-05-05T16:29:44.191Z</time></trkpt><trkpt lat="51.72474" lon="-9.4838217"><ele>54.0</ele><time>2026-05-05T16:29:45.192Z</time></trkpt><trkpt lat="51.7246717" lon="-9.4841667"><ele>56.0</ele><time>2026-05-05T16:29:46.192Z</time></trkpt><trkpt lat="51.7246017" lon="-9.4845183"><ele>57.5</ele><time>2026-05-05T16:29:47.192Z</time></trkpt><trkpt lat="51.7245333" lon="-9.48487"><ele>59.0</ele><time>2026-05-05T16:29:48.192Z</time></trkpt><trkpt lat="51.7244617" lon="-9.4852283"><ele>55.0</ele><time>2026-05-05T16:29:49.191Z</time></trkpt><trkpt lat="51.724385" lon="-9.48559"><ele>51.0</ele><time>2026-05-05T16:29:50.192Z</time></trkpt><trkpt lat="51.7243067" lon="-9.4859667"><ele>53.0</ele><time>2026-05-05T16:29:51.192Z</time></trkpt><trkpt lat="51.7242433" lon="-9.4863583"><ele>55.0</ele><time>2026-05-05T16:29:52.192Z</time></trkpt><trkpt lat="51.7241667" lon="-9.4867267"><ele>55.0</ele><time>2026-05-05T16:29:53.191Z</time></trkpt><trkpt lat="51.7240983" lon="-9.487055"><ele>55.0</ele><time>2026-05-05T16:29:54.191Z</time></trkpt><trkpt lat="51.7240383" lon="-9.487375"><ele>55.0</ele><time>2026-05-05T16:29:55.191Z</time></trkpt><trkpt lat="51.72399" lon="-9.48771"><ele>57.0</ele><time>2026-05-05T16:29:56.191Z</time></trkpt><trkpt lat="51.7239617" lon="-9.4880667"><ele>59.0</ele><time>2026-05-05T16:29:57.192Z</time></trkpt><trkpt lat="51.7239517" lon="-9.488425"><ele>61.0</ele><time>2026-05-05T16:29:58.191Z</time></trkpt><trkpt lat="51.7239567" lon="-9.4888083"><ele>61.0</ele><time>2026-05-05T16:29:59.191Z</time></trkpt><trkpt lat="51.72397" lon="-9.4892017"><ele>61.0</ele><time>2026-05-05T16:30:00.192Z</time></trkpt><trkpt lat="51.7239967" lon="-9.4895917"><ele>61.5</ele><time>2026-05-05T16:30:01.192Z</time></trkpt><trkpt lat="51.7240367" lon="-9.4899717"><ele>62.0</ele><time>2026-05-05T16:30:02.192Z</time></trkpt><trkpt lat="51.7240967" lon="-9.490355"><ele>62.5</ele><time>2026-05-05T16:30:03.191Z</time></trkpt><trkpt lat="51.7241683" lon="-9.4907267"><ele>63.0</ele><time>2026-05-05T16:30:04.192Z</time></trkpt><trkpt lat="51.7242517" lon="-9.4910867"><ele>62.5</ele><time>2026-05-05T16:30:05.191Z</time></trkpt><trkpt lat="51.7243333" lon="-9.49144"><ele>62.0</ele><time>2026-05-05T16:30:06.192Z</time></trkpt><trkpt lat="51.7244133" lon="-9.4918017"><ele>67.0</ele><time>2026-05-05T16:30:07.192Z</time></trkpt><trkpt lat="51.7245033" lon="-9.4922017"><ele>72.0</ele><time>2026-05-05T16:30:08.191Z</time></trkpt><trkpt lat="51.7245933" lon="-9.49256"><ele>71.0</ele><time>2026-05-05T16:30:09.192Z</time></trkpt><trkpt lat="51.724665" lon="-9.4929283"><ele>70.0</ele><time>2026-05-05T16:30:10.192Z</time></trkpt><trkpt lat="51.72474" lon="-9.4932767"><ele>70.0</ele><time>2026-05-05T16:30:11.191Z</time></trkpt><trkpt lat="51.7248167" lon="-9.4936067"><ele>70.0</ele><time>2026-05-05T16:30:12.192Z</time></trkpt><trkpt lat="51.7249083" lon="-9.4939167"><ele>70.0</ele><time>2026-05-05T16:30:13.192Z</time></trkpt><trkpt lat="51.7250133" lon="-9.4941983"><ele>69.66666666666666</ele><time>2026-05-05T16:30:14.191Z</time></trkpt><trkpt lat="51.7251267" lon="-9.49446"><ele>69.33333333333333</ele><time>2026-05-05T16:30:15.191Z</time></trkpt><trkpt lat="51.725255" lon="-9.4946983"><ele>69.0</ele><time>2026-05-05T16:30:16.191Z</time></trkpt><trkpt lat="51.7254017" lon="-9.494895"><ele>69.66666666666667</ele><time>2026-05-05T16:30:17.192Z</time></trkpt><trkpt lat="51.72556" lon="-9.4950867"><ele>70.33333333333334</ele><time>2026-05-05T16:30:18.192Z</time></trkpt><trkpt lat="51.7257483" lon="-9.49526"><ele>71.0</ele><time>2026-05-05T16:30:19.191Z</time></trkpt><trkpt lat="51.725955" lon="-9.49543"><ele>71.0</ele><time>2026-05-05T16:30:20.191Z</time></trkpt><trkpt lat="51.7261617" lon="-9.4956017"><ele>71.0</ele><time>2026-05-05T16:30:21.191Z</time></trkpt><trkpt lat="51.7263683" lon="-9.49579"><ele>71.0</ele><time>2026-05-05T16:30:22.192Z</time></trkpt><trkpt lat="51.7265717" lon="-9.496"><ele>71.0</ele><time>2026-05-05T16:30:23.192Z</time></trkpt><trkpt lat="51.7267733" lon="-9.4962383"><ele>70.5</ele><time>2026-05-05T16:30:24.192Z</time></trkpt><trkpt lat="51.7269767" lon="-9.4965183"><ele>70.0</ele><time>2026-05-05T16:30:25.192Z</time></trkpt><trkpt lat="51.727185" lon="-9.496815"><ele>69.5</ele><time>2026-05-05T16:30:26.192Z</time></trkpt><trkpt lat="51.7273967" lon="-9.4971083"><ele>69.0</ele><time>2026-05-05T16:30:27.192Z</time></trkpt><trkpt lat="51.7276067" lon="-9.4973783"><ele>72.0</ele><time>2026-05-05T16:30:28.192Z</time></trkpt><trkpt lat="51.7278033" lon="-9.4976483"><ele>75.0</ele><time>2026-05-05T16:30:29.192Z</time></trkpt><trkpt lat="51.72799" lon="-9.49792"><ele>75.0</ele><time>2026-05-05T16:30:30.191Z</time></trkpt><trkpt lat="51.7281867" lon="-9.4981717"><ele>75.0</ele><time>2026-05-05T16:30:31.191Z</time></trkpt><trkpt lat="51.7283667" lon="-9.4984383"><ele>75.0</ele><time>2026-05-05T16:30:32.192Z</time></trkpt><trkpt lat="51.7285367" lon="-9.49869"><ele>75.0</ele><time>2026-05-05T16:30:33.192Z</time></trkpt><trkpt lat="51.7287017" lon="-9.498905"><ele>75.0</ele><time>2026-05-05T16:30:34.191Z</time></trkpt><trkpt lat="51.72886" lon="-9.4990983"><ele>75.0</ele><time>2026-05-05T16:30:35.192Z</time></trkpt><trkpt lat="51.7289983" lon="-9.4992767"><ele>75.0</ele><time>2026-05-05T16:30:36.191Z</time></trkpt><trkpt lat="51.7291433" lon="-9.4994417"><ele>75.0</ele><time>2026-05-05T16:30:37.192Z</time></trkpt><trkpt lat="51.7292883" lon="-9.4995767"><ele>74.66666666666667</ele><time>2026-05-05T16:30:38.192Z</time></trkpt><trkpt lat="51.7294533" lon="-9.4996933"><ele>74.33333333333334</ele><time>2026-05-05T16:30:39.191Z</time></trkpt><trkpt lat="51.729635" lon="-9.4997917"><ele>74.0</ele><time>2026-05-05T16:30:40.191Z</time></trkpt><trkpt lat="51.72983" lon="-9.4998633"><ele>74.0</ele><time>2026-05-05T16:30:41.191Z</time></trkpt><trkpt lat="51.7300217" lon="-9.4999283"><ele>74.0</ele><time>2026-05-05T16:30:42.192Z</time></trkpt><trkpt lat="51.7302167" lon="-9.499985"><ele>74.0</ele><time>2026-05-05T16:30:43.192Z</time></trkpt><trkpt lat="51.7304117" lon="-9.500035"><ele>75.33333333333334</ele><time>2026-05-05T16:30:44.191Z</time></trkpt><trkpt lat="51.7306183" lon="-9.500065"><ele>76.66666666666667</ele><time>2026-05-05T16:30:45.191Z</time></trkpt><trkpt lat="51.7308317" lon="-9.5000867"><ele>78.0</ele><time>2026-05-05T16:30:46.192Z</time></trkpt><trkpt lat="51.7310483" lon="-9.5000883"><ele>79.5</ele><time>2026-05-05T16:30:47.192Z</time></trkpt><trkpt lat="51.7312733" lon="-9.500085"><ele>81.0</ele><time>2026-05-05T16:30:48.191Z</time></trkpt><trkpt lat="51.731505" lon="-9.5000783"><ele>81.0</ele><time>2026-05-05T16:30:49.192Z</time></trkpt><trkpt lat="51.7317367" lon="-9.5000617"><ele>81.0</ele><time>2026-05-05T16:30:50.192Z</time></trkpt><trkpt lat="51.7319667" lon="-9.5000467"><ele>82.0</ele><time>2026-05-05T16:30:51.192Z</time></trkpt><trkpt lat="51.73219" lon="-9.50004"><ele>83.0</ele><time>2026-05-05T16:30:52.192Z</time></trkpt><trkpt lat="51.73241" lon="-9.5000317"><ele>84.0</ele><time>2026-05-05T16:30:53.192Z</time></trkpt><trkpt lat="51.7326267" lon="-9.5000083"><ele>83.66666666666667</ele><time>2026-05-05T16:30:54.192Z</time></trkpt><trkpt lat="51.7328433" lon="-9.4999983"><ele>83.33333333333334</ele><time>2026-05-05T16:30:55.191Z</time></trkpt><trkpt lat="51.7330617" lon="-9.5000067"><ele>83.0</ele><time>2026-05-05T16:30:56.192Z</time></trkpt><trkpt lat="51.73328" lon="-9.50003"><ele>83.0</ele><time>2026-05-05T16:30:57.192Z</time></trkpt><trkpt lat="51.7334883" lon="-9.5000467"><ele>83.0</ele><time>2026-05-05T16:30:58.192Z</time></trkpt><trkpt lat="51.733685" lon="-9.5000683"><ele>83.0</ele><time>2026-05-05T16:30:59.192Z</time></trkpt><trkpt lat="51.7338683" lon="-9.5000967"><ele>84.0</ele><time>2026-05-05T16:31:00.192Z</time></trkpt><trkpt lat="51.7340383" lon="-9.5001383"><ele>85.0</ele><time>2026-05-05T16:31:01.192Z</time></trkpt><trkpt lat="51.7342117" lon="-9.5002133"><ele>86.0</ele><time>2026-05-05T16:31:02.191Z</time></trkpt><trkpt lat="51.7343783" lon="-9.5003283"><ele>86.66666666666667</ele><time>2026-05-05T16:31:03.192Z</time></trkpt><trkpt lat="51.73453" lon="-9.50047"><ele>87.33333333333333</ele><time>2026-05-05T16:31:04.192Z</time></trkpt><trkpt lat="51.7346533" lon="-9.5006333"><ele>88.0</ele><time>2026-05-05T16:31:05.192Z</time></trkpt><trkpt lat="51.73478" lon="-9.500855"><ele>88.0</ele><time>2026-05-05T16:31:06.192Z</time></trkpt><trkpt lat="51.7348833" lon="-9.5011117"><ele>88.0</ele><time>2026-05-05T16:31:07.191Z</time></trkpt><trkpt lat="51.73496" lon="-9.5014083"><ele>88.0</ele><time>2026-05-05T16:31:08.191Z</time></trkpt><trkpt lat="51.7350233" lon="-9.501725"><ele>86.66666666666666</ele><time>2026-05-05T16:31:09.192Z</time></trkpt><trkpt lat="51.7350717" lon="-9.5020167"><ele>85.33333333333333</ele><time>2026-05-05T16:31:10.191Z</time></trkpt><trkpt lat="51.73512" lon="-9.5023017"><ele>84.0</ele><time>2026-05-05T16:31:11.191Z</time></trkpt><trkpt lat="51.7351733" lon="-9.5025933"><ele>87.0</ele><time>2026-05-05T16:31:12.191Z</time></trkpt><trkpt lat="51.7352233" lon="-9.5029083"><ele>90.0</ele><time>2026-05-05T16:31:13.192Z</time></trkpt><trkpt lat="51.7352683" lon="-9.5032483"><ele>93.0</ele><time>2026-05-05T16:31:14.191Z</time></trkpt><trkpt lat="51.7353033" lon="-9.5036233"><ele>92.0</ele><time>2026-05-05T16:31:15.192Z</time></trkpt><trkpt lat="51.7353417" lon="-9.5039683"><ele>91.0</ele><time>2026-05-05T16:31:16.191Z</time></trkpt><trkpt lat="51.73538" lon="-9.5042933"><ele>90.0</ele><time>2026-05-05T16:31:17.192Z</time></trkpt><trkpt lat="51.7354133" lon="-9.50461"><ele>88.0</ele><time>2026-05-05T16:31:18.192Z</time></trkpt><trkpt lat="51.7354517" lon="-9.5049067"><ele>86.0</ele><time>2026-05-05T16:31:19.192Z</time></trkpt><trkpt lat="51.7355033" lon="-9.5051967"><ele>84.0</ele><time>2026-05-05T16:31:20.192Z</time></trkpt><trkpt lat="51.73558" lon="-9.5054767"><ele>82.33333333333333</ele><time>2026-05-05T16:31:21.191Z</time></trkpt><trkpt lat="51.73569" lon="-9.50574"><ele>80.66666666666666</ele><time>2026-05-05T16:31:22.191Z</time></trkpt><trkpt lat="51.7358083" lon="-9.5059933"><ele>79.0</ele><time>2026-05-05T16:31:23.192Z</time></trkpt><trkpt lat="51.7359367" lon="-9.5062133"><ele>81.0</ele><time>2026-05-05T16:31:24.191Z</time></trkpt><trkpt lat="51.7360783" lon="-9.5064183"><ele>83.0</ele><time>2026-05-05T16:31:25.192Z</time></trkpt><trkpt lat="51.736215" lon="-9.5066183"><ele>85.0</ele><time>2026-05-05T16:31:26.192Z</time></trkpt><trkpt lat="51.7363433" lon="-9.5068183"><ele>85.0</ele><time>2026-05-05T16:31:27.191Z</time></trkpt><trkpt lat="51.7364533" lon="-9.5070183"><ele>85.0</ele><time>2026-05-05T16:31:28.191Z</time></trkpt><trkpt lat="51.7365433" lon="-9.50723"><ele>85.0</ele><time>2026-05-05T16:31:29.191Z</time></trkpt><trkpt lat="51.7366117" lon="-9.5074533"><ele>84.0</ele><time>2026-05-05T16:31:30.192Z</time></trkpt><trkpt lat="51.7366767" lon="-9.5076883"><ele>83.0</ele><time>2026-05-05T16:31:31.192Z</time></trkpt><trkpt lat="51.7367333" lon="-9.5079383"><ele>82.0</ele><time>2026-05-05T16:31:32.191Z</time></trkpt><trkpt lat="51.7367767" lon="-9.508185"><ele>81.33333333333333</ele><time>2026-05-05T16:31:33.191Z</time></trkpt><trkpt lat="51.7368283" lon="-9.5084217"><ele>80.66666666666667</ele><time>2026-05-05T16:31:34.192Z</time></trkpt><trkpt lat="51.73689" lon="-9.508645"><ele>80.0</ele><time>2026-05-05T16:31:35.192Z</time></trkpt><trkpt lat="51.73697" lon="-9.5088533"><ele>82.66666666666667</ele><time>2026-05-05T16:31:36.192Z</time></trkpt><trkpt lat="51.7370583" lon="-9.5090667"><ele>85.33333333333333</ele><time>2026-05-05T16:31:37.191Z</time></trkpt><trkpt lat="51.7371767" lon="-9.5092817"><ele>88.0</ele><time>2026-05-05T16:31:38.192Z</time></trkpt><trkpt lat="51.73736" lon="-9.5095483"><ele>84.0</ele><time>2026-05-05T16:31:39.191Z</time></trkpt><trkpt lat="51.7375183" lon="-9.5098433"><ele>80.0</ele><time>2026-05-05T16:31:40.191Z</time></trkpt><trkpt lat="51.737655" lon="-9.5100967"><ele>82.66666666666667</ele><time>2026-05-05T16:31:41.192Z</time></trkpt><trkpt lat="51.7377783" lon="-9.5103583"><ele>85.33333333333333</ele><time>2026-05-05T16:31:42.191Z</time></trkpt><trkpt lat="51.7378933" lon="-9.5106117"><ele>88.0</ele><time>2026-05-05T16:31:43.191Z</time></trkpt><trkpt lat="51.7380183" lon="-9.5108367"><ele>88.0</ele><time>2026-05-05T16:31:44.191Z</time></trkpt><trkpt lat="51.73812" lon="-9.5110683"><ele>88.0</ele><time>2026-05-05T16:31:45.191Z</time></trkpt><trkpt lat="51.7382233" lon="-9.51129"><ele>88.0</ele><time>2026-05-05T16:31:46.191Z</time></trkpt><trkpt lat="51.7383167" lon="-9.5114917"><ele>86.5</ele><time>2026-05-05T16:31:47.191Z</time></trkpt><trkpt lat="51.7384083" lon="-9.51167"><ele>85.0</ele><time>2026-05-05T16:31:48.192Z</time></trkpt><trkpt lat="51.7385017" lon="-9.5118233"><ele>83.5</ele><time>2026-05-05T16:31:49.192Z</time></trkpt><trkpt lat="51.73861" lon="-9.5119633"><ele>82.0</ele><time>2026-05-05T16:31:50.192Z</time></trkpt><trkpt lat="51.7387233" lon="-9.5121267"><ele>86.0</ele><time>2026-05-05T16:31:51.192Z</time></trkpt><trkpt lat="51.7388417" lon="-9.5123083"><ele>90.0</ele><time>2026-05-05T16:31:52.191Z</time></trkpt><trkpt lat="51.73896" lon="-9.5125"><ele>94.0</ele><time>2026-05-05T16:31:53.191Z</time></trkpt><trkpt lat="51.7390667" lon="-9.5127"><ele>94.0</ele><time>2026-05-05T16:31:54.192Z</time></trkpt><trkpt lat="51.7391667" lon="-9.5128883"><ele>94.0</ele><time>2026-05-05T16:31:55.192Z</time></trkpt><trkpt lat="51.73927" lon="-9.5130667"><ele>94.0</ele><time>2026-05-05T16:31:56.191Z</time></trkpt><trkpt lat="51.7393617" lon="-9.513275"><ele>93.33333333333333</ele><time>2026-05-05T16:31:57.192Z</time></trkpt><trkpt lat="51.7394967" lon="-9.5134433"><ele>92.66666666666667</ele><time>2026-05-05T16:31:58.191Z</time></trkpt><trkpt lat="51.7396567" lon="-9.5136167"><ele>92.0</ele><time>2026-05-05T16:31:59.192Z</time></trkpt><trkpt lat="51.73987" lon="-9.513795"><ele>92.0</ele><time>2026-05-05T16:32:00.191Z</time></trkpt><trkpt lat="51.7400883" lon="-9.5139833"><ele>92.0</ele><time>2026-05-05T16:32:01.192Z</time></trkpt><trkpt lat="51.7402867" lon="-9.5141933"><ele>93.0</ele><time>2026-05-05T16:32:02.192Z</time></trkpt><trkpt lat="51.7404733" lon="-9.5144"><ele>94.0</ele><time>2026-05-05T16:32:03.192Z</time></trkpt><trkpt lat="51.7406183" lon="-9.51458"><ele>95.0</ele><time>2026-05-05T16:32:04.192Z</time></trkpt><trkpt lat="51.7407517" lon="-9.51478"><ele>95.0</ele><time>2026-05-05T16:32:05.191Z</time></trkpt><trkpt lat="51.740865" lon="-9.5150083"><ele>95.0</ele><time>2026-05-05T16:32:06.192Z</time></trkpt><trkpt lat="51.74095" lon="-9.51529"><ele>95.0</ele><time>2026-05-05T16:32:07.192Z</time></trkpt><trkpt lat="51.74104" lon="-9.51557"><ele>95.66666666666667</ele><time>2026-05-05T16:32:08.192Z</time></trkpt><trkpt lat="51.7411317" lon="-9.5158417"><ele>96.33333333333334</ele><time>2026-05-05T16:32:09.191Z</time></trkpt><trkpt lat="51.74123" lon="-9.5160967"><ele>97.0</ele><time>2026-05-05T16:32:10.192Z</time></trkpt><trkpt lat="51.7413367" lon="-9.5163417"><ele>94.33333333333334</ele><time>2026-05-05T16:32:11.192Z</time></trkpt><trkpt lat="51.7414483" lon="-9.5165733"><ele>91.66666666666667</ele><time>2026-05-05T16:32:12.192Z</time></trkpt><trkpt lat="51.7415783" lon="-9.516775"><ele>89.0</ele><time>2026-05-05T16:32:13.191Z</time></trkpt><trkpt lat="51.7417267" lon="-9.516945"><ele>86.66666666666667</ele><time>2026-05-05T16:32:14.191Z</time></trkpt><trkpt lat="51.741885" lon="-9.5170983"><ele>84.33333333333333</ele><time>2026-05-05T16:32:15.192Z</time></trkpt><trkpt lat="51.7420517" lon="-9.5172283"><ele>82.0</ele><time>2026-05-05T16:32:16.192Z</time></trkpt><trkpt lat="51.74224" lon="-9.51734"><ele>82.0</ele><time>2026-05-05T16:32:17.191Z</time></trkpt><trkpt lat="51.7424617" lon="-9.5174283"><ele>82.0</ele><time>2026-05-05T16:32:18.192Z</time></trkpt><trkpt lat="51.7426783" lon="-9.5175267"><ele>81.0</ele><time>2026-05-05T16:32:19.191Z</time></trkpt><trkpt lat="51.7429133" lon="-9.517575"><ele>80.0</ele><time>2026-05-05T16:32:20.191Z</time></trkpt><trkpt lat="51.74315" lon="-9.51764"><ele>80.0</ele><time>2026-05-05T16:32:21.191Z</time></trkpt><trkpt lat="51.7434067" lon="-9.5176917"><ele>80.0</ele><time>2026-05-05T16:32:22.191Z</time></trkpt><trkpt lat="51.7436533" lon="-9.5177533"><ele>80.5</ele><time>2026-05-05T16:32:23.192Z</time></trkpt><trkpt lat="51.7439033" lon="-9.5178067"><ele>81.0</ele><time>2026-05-05T16:32:24.191Z</time></trkpt><trkpt lat="51.744145" lon="-9.5178683"><ele>79.0</ele><time>2026-05-05T16:32:25.192Z</time></trkpt><trkpt lat="51.7443817" lon="-9.5179283"><ele>77.0</ele><time>2026-05-05T16:32:26.191Z</time></trkpt><trkpt lat="51.7446183" lon="-9.5179917"><ele>77.0</ele><time>2026-05-05T16:32:27.191Z</time></trkpt><trkpt lat="51.7448567" lon="-9.5180567"><ele>77.0</ele><time>2026-05-05T16:32:28.191Z</time></trkpt><trkpt lat="51.7450917" lon="-9.51812"><ele>79.0</ele><time>2026-05-05T16:32:29.192Z</time></trkpt><trkpt lat="51.7453283" lon="-9.5181817"><ele>81.0</ele><time>2026-05-05T16:32:30.192Z</time></trkpt><trkpt lat="51.745565" lon="-9.5182417"><ele>81.0</ele><time>2026-05-05T16:32:31.191Z</time></trkpt><trkpt lat="51.7458033" lon="-9.5183017"><ele>81.0</ele><time>2026-05-05T16:32:32.192Z</time></trkpt><trkpt lat="51.7460467" lon="-9.518365"><ele>81.0</ele><time>2026-05-05T16:32:33.192Z</time></trkpt><trkpt lat="51.7462917" lon="-9.5184083"><ele>81.0</ele><time>2026-05-05T16:32:34.192Z</time></trkpt><trkpt lat="51.7465233" lon="-9.5184583"><ele>81.0</ele><time>2026-05-05T16:32:35.192Z</time></trkpt><trkpt lat="51.7467433" lon="-9.5185217"><ele>81.0</ele><time>2026-05-05T16:32:36.192Z</time></trkpt><trkpt lat="51.7469417" lon="-9.518515"><ele>81.0</ele><time>2026-05-05T16:32:37.192Z</time></trkpt><trkpt lat="51.747155" lon="-9.5185767"><ele>80.33333333333333</ele><time>2026-05-05T16:32:38.192Z</time></trkpt><trkpt lat="51.7473617" lon="-9.5186367"><ele>79.66666666666666</ele><time>2026-05-05T16:32:39.191Z</time></trkpt><trkpt lat="51.7475567" lon="-9.51875"><ele>79.0</ele><time>2026-05-05T16:32:40.192Z</time></trkpt><trkpt lat="51.74776" lon="-9.518845"><ele>78.66666666666666</ele><time>2026-05-05T16:32:41.192Z</time></trkpt><trkpt lat="51.747955" lon="-9.5189633"><ele>78.33333333333333</ele><time>2026-05-05T16:32:42.192Z</time></trkpt><trkpt lat="51.7481717" lon="-9.5191283"><ele>78.0</ele><time>2026-05-05T16:32:43.192Z</time></trkpt><trkpt lat="51.7483933" lon="-9.5192767"><ele>78.0</ele><time>2026-05-05T16:32:44.192Z</time></trkpt><trkpt lat="51.74862" lon="-9.5194317"><ele>78.0</ele><time>2026-05-05T16:32:45.191Z</time></trkpt><trkpt lat="51.7488383" lon="-9.5195833"><ele>77.66666666666667</ele><time>2026-05-05T16:32:46.191Z</time></trkpt><trkpt lat="51.7490383" lon="-9.5197383"><ele>77.33333333333334</ele><time>2026-05-05T16:32:47.191Z</time></trkpt><trkpt lat="51.7492117" lon="-9.519875"><ele>77.0</ele><time>2026-05-05T16:32:48.191Z</time></trkpt><trkpt lat="51.7493683" lon="-9.5200033"><ele>76.33333333333334</ele><time>2026-05-05T16:32:49.191Z</time></trkpt><trkpt lat="51.749515" lon="-9.5201383"><ele>75.66666666666667</ele><time>2026-05-05T16:32:50.191Z</time></trkpt><trkpt lat="51.7496533" lon="-9.5202683"><ele>75.0</ele><time>2026-05-05T16:32:51.192Z</time></trkpt><trkpt lat="51.7498" lon="-9.5203933"><ele>74.66666666666667</ele><time>2026-05-05T16:32:52.191Z</time></trkpt><trkpt lat="51.749955" lon="-9.5205183"><ele>74.33333333333334</ele><time>2026-05-05T16:32:53.192Z</time></trkpt><trkpt lat="51.7501183" lon="-9.520695"><ele>74.0</ele><time>2026-05-05T16:32:54.191Z</time></trkpt><trkpt lat="51.7502667" lon="-9.5208767"><ele>74.0</ele><time>2026-05-05T16:32:55.192Z</time></trkpt><trkpt lat="51.7504117" lon="-9.5210833"><ele>74.0</ele><time>2026-05-05T16:32:56.192Z</time></trkpt><trkpt lat="51.750565" lon="-9.5213283"><ele>74.0</ele><time>2026-05-05T16:32:57.191Z</time></trkpt><trkpt lat="51.750715" lon="-9.521625"><ele>73.5</ele><time>2026-05-05T16:32:58.192Z</time></trkpt><trkpt lat="51.750865" lon="-9.5219317"><ele>73.0</ele><time>2026-05-05T16:32:59.191Z</time></trkpt><trkpt lat="51.7510167" lon="-9.5222483"><ele>72.0</ele><time>2026-05-05T16:33:00.192Z</time></trkpt><trkpt lat="51.7511817" lon="-9.5225383"><ele>71.0</ele><time>2026-05-05T16:33:01.192Z</time></trkpt><trkpt lat="51.7513533" lon="-9.5228183"><ele>69.5</ele><time>2026-05-05T16:33:02.192Z</time></trkpt><trkpt lat="51.7515283" lon="-9.52308"><ele>68.0</ele><time>2026-05-05T16:33:03.191Z</time></trkpt><trkpt lat="51.7516983" lon="-9.5233267"><ele>68.0</ele><time>2026-05-05T16:33:04.192Z</time></trkpt><trkpt lat="51.7518683" lon="-9.5235533"><ele>68.0</ele><time>2026-05-05T16:33:05.192Z</time></trkpt><trkpt lat="51.7520433" lon="-9.5237333"><ele>68.0</ele><time>2026-05-05T16:33:06.192Z</time></trkpt><trkpt lat="51.7522133" lon="-9.5239033"><ele>66.0</ele><time>2026-05-05T16:33:07.191Z</time></trkpt><trkpt lat="51.75239" lon="-9.524075"><ele>64.0</ele><time>2026-05-05T16:33:08.192Z</time></trkpt><trkpt lat="51.752555" lon="-9.5242633"><ele>62.0</ele><time>2026-05-05T16:33:09.192Z</time></trkpt><trkpt lat="51.7527033" lon="-9.5244733"><ele>61.66666666666667</ele><time>2026-05-05T16:33:10.192Z</time></trkpt><trkpt lat="51.7528383" lon="-9.524705"><ele>61.33333333333333</ele><time>2026-05-05T16:33:11.192Z</time></trkpt><trkpt lat="51.752965" lon="-9.524945"><ele>61.0</ele><time>2026-05-05T16:33:12.192Z</time></trkpt><trkpt lat="51.75306" lon="-9.5251683"><ele>61.0</ele><time>2026-05-05T16:33:13.191Z</time></trkpt><trkpt lat="51.7531667" lon="-9.525395"><ele>61.0</ele><time>2026-05-05T16:33:14.192Z</time></trkpt><trkpt lat="51.7532567" lon="-9.5256183"><ele>61.0</ele><time>2026-05-05T16:33:15.192Z</time></trkpt><trkpt lat="51.7533217" lon="-9.5258583"><ele>58.666666666666664</ele><time>2026-05-05T16:33:16.192Z</time></trkpt><trkpt lat="51.7533683" lon="-9.5261217"><ele>56.33333333333333</ele><time>2026-05-05T16:33:17.192Z</time></trkpt><trkpt lat="51.753415" lon="-9.5263667"><ele>54.0</ele><time>2026-05-05T16:33:18.192Z</time></trkpt><trkpt lat="51.75339" lon="-9.5266633"><ele>53.5</ele><time>2026-05-05T16:33:19.192Z</time></trkpt><trkpt lat="51.7533433" lon="-9.5269517"><ele>53.0</ele><time>2026-05-05T16:33:20.191Z</time></trkpt><trkpt lat="51.7531717" lon="-9.5272933"><ele>53.0</ele><time>2026-05-05T16:33:21.192Z</time></trkpt><trkpt lat="51.7529967" lon="-9.5276267"><ele>53.0</ele><time>2026-05-05T16:33:22.192Z</time></trkpt><trkpt lat="51.75283" lon="-9.5279533"><ele>48.5</ele><time>2026-05-05T16:33:23.191Z</time></trkpt><trkpt lat="51.752695" lon="-9.528275"><ele>44.0</ele><time>2026-05-05T16:33:24.191Z</time></trkpt><trkpt lat="51.752575" lon="-9.52859"><ele>43.5</ele><time>2026-05-05T16:33:25.192Z</time></trkpt><trkpt lat="51.7524633" lon="-9.5289133"><ele>43.0</ele><time>2026-05-05T16:33:26.192Z</time></trkpt><trkpt lat="51.7523467" lon="-9.5292583"><ele>41.5</ele><time>2026-05-05T16:33:27.192Z</time></trkpt><trkpt lat="51.75224" lon="-9.5295967"><ele>40.0</ele><time>2026-05-05T16:33:28.191Z</time></trkpt><trkpt lat="51.7521317" lon="-9.5299317"><ele>40.0</ele><time>2026-05-05T16:33:29.192Z</time></trkpt><trkpt lat="51.75197" lon="-9.5302583"><ele>40.0</ele><time>2026-05-05T16:33:30.191Z</time></trkpt><trkpt lat="51.7517733" lon="-9.5305617"><ele>37.5</ele><time>2026-05-05T16:33:31.191Z</time></trkpt><trkpt lat="51.7516217" lon="-9.5308283"><ele>35.0</ele><time>2026-05-05T16:33:32.192Z</time></trkpt><trkpt lat="51.7514367" lon="-9.5311133"><ele>35.0</ele><time>2026-05-05T16:33:33.192Z</time></trkpt><trkpt lat="51.7513267" lon="-9.53141"><ele>35.0</ele><time>2026-05-05T16:33:34.192Z</time></trkpt><trkpt lat="51.7512467" lon="-9.5317217"><ele>35.0</ele><time>2026-05-05T16:33:35.192Z</time></trkpt><trkpt lat="51.7511767" lon="-9.5320367"><ele>34.33333333333333</ele><time>2026-05-05T16:33:36.191Z</time></trkpt><trkpt lat="51.7511317" lon="-9.5323717"><ele>33.666666666666664</ele><time>2026-05-05T16:33:37.192Z</time></trkpt><trkpt lat="51.7511117" lon="-9.5327183"><ele>33.0</ele><time>2026-05-05T16:33:38.192Z</time></trkpt><trkpt lat="51.7511" lon="-9.5330833"><ele>31.666666666666664</ele><time>2026-05-05T16:33:39.192Z</time></trkpt><trkpt lat="51.7511033" lon="-9.5334167"><ele>30.333333333333332</ele><time>2026-05-05T16:33:40.192Z</time></trkpt><trkpt lat="51.75114" lon="-9.5337567"><ele>29.0</ele><time>2026-05-05T16:33:41.192Z</time></trkpt><trkpt lat="51.7512117" lon="-9.534085"><ele>27.666666666666664</ele><time>2026-05-05T16:33:42.192Z</time></trkpt><trkpt lat="51.7513067" lon="-9.5344067"><ele>26.333333333333336</ele><time>2026-05-05T16:33:43.192Z</time></trkpt><trkpt lat="51.7514267" lon="-9.5347083"><ele>25.0</ele><time>2026-05-05T16:33:44.192Z</time></trkpt><trkpt lat="51.75155" lon="-9.534985"><ele>25.333333333333336</ele><time>2026-05-05T16:33:45.191Z</time></trkpt><trkpt lat="51.7516733" lon="-9.5352483"><ele>25.666666666666664</ele><time>2026-05-05T16:33:46.192Z</time></trkpt><trkpt lat="51.751795" lon="-9.5355017"><ele>26.0</ele><time>2026-05-05T16:33:47.192Z</time></trkpt><trkpt lat="51.7519183" lon="-9.5357417"><ele>26.0</ele><time>2026-05-05T16:33:48.191Z</time></trkpt><trkpt lat="51.7520483" lon="-9.535975"><ele>26.0</ele><time>2026-05-05T16:33:49.192Z</time></trkpt><trkpt lat="51.7521783" lon="-9.5361833"><ele>26.0</ele><time>2026-05-05T16:33:50.191Z</time></trkpt><trkpt lat="51.7523133" lon="-9.53639"><ele>24.333333333333332</ele><time>2026-05-05T16:33:51.192Z</time></trkpt><trkpt lat="51.752425" lon="-9.5365867"><ele>22.666666666666664</ele><time>2026-05-05T16:33:52.192Z</time></trkpt><trkpt lat="51.752515" lon="-9.53678"><ele>21.0</ele><time>2026-05-05T16:33:53.192Z</time></trkpt><trkpt lat="51.7526033" lon="-9.5369833"><ele>20.5</ele><time>2026-05-05T16:33:54.192Z</time></trkpt><trkpt lat="51.7526883" lon="-9.5371917"><ele>20.0</ele><time>2026-05-05T16:33:55.192Z</time></trkpt><trkpt lat="51.7527667" lon="-9.5373983"><ele>19.5</ele><time>2026-05-05T16:33:56.191Z</time></trkpt><trkpt lat="51.7528317" lon="-9.5376"><ele>19.0</ele><time>2026-05-05T16:33:57.191Z</time></trkpt><trkpt lat="51.7528883" lon="-9.5377983"><ele>20.0</ele><time>2026-05-05T16:33:58.192Z</time></trkpt><trkpt lat="51.7528983" lon="-9.53803"><ele>21.0</ele><time>2026-05-05T16:33:59.191Z</time></trkpt><trkpt lat="51.75285" lon="-9.5382817"><ele>22.0</ele><time>2026-05-05T16:34:00.191Z</time></trkpt><trkpt lat="51.7527167" lon="-9.5385667"><ele>16.0</ele><time>2026-05-05T16:34:01.191Z</time></trkpt><trkpt lat="51.7525767" lon="-9.5388067"><ele>10.0</ele><time>2026-05-05T16:34:02.192Z</time></trkpt><trkpt lat="51.75236" lon="-9.5390533"><ele>10.0</ele><time>2026-05-05T16:34:03.192Z</time></trkpt><trkpt lat="51.7522217" lon="-9.5392767"><ele>10.0</ele><time>2026-05-05T16:34:04.192Z</time></trkpt><trkpt lat="51.7520867" lon="-9.5395083"><ele>10.0</ele><time>2026-05-05T16:34:05.192Z</time></trkpt><trkpt lat="51.75196" lon="-9.5397567"><ele>8.666666666666668</ele><time>2026-05-05T16:34:06.192Z</time></trkpt><trkpt lat="51.7518333" lon="-9.54"><ele>7.333333333333334</ele><time>2026-05-05T16:34:07.191Z</time></trkpt><trkpt lat="51.7517083" lon="-9.5402383"><ele>6.0</ele><time>2026-05-05T16:34:08.191Z</time></trkpt><trkpt lat="51.751535" lon="-9.54047"><ele>6.0</ele><time>2026-05-05T16:34:09.191Z</time></trkpt><trkpt lat="51.7514083" lon="-9.540705"><ele>6.0</ele><time>2026-05-05T16:34:10.191Z</time></trkpt><trkpt lat="51.7512917" lon="-9.540925"><ele>6.0</ele><time>2026-05-05T16:34:11.192Z</time></trkpt><trkpt lat="51.751185" lon="-9.54115"><ele>6.0</ele><time>2026-05-05T16:34:12.192Z</time></trkpt><trkpt lat="51.751075" lon="-9.54137"><ele>6.0</ele><time>2026-05-05T16:34:13.192Z</time></trkpt><trkpt lat="51.7509683" lon="-9.5415917"><ele>6.0</ele><time>2026-05-05T16:34:14.192Z</time></trkpt><trkpt lat="51.7508683" lon="-9.54181"><ele>6.0</ele><time>2026-05-05T16:34:15.191Z</time></trkpt><trkpt lat="51.750785" lon="-9.5420367"><ele>6.0</ele><time>2026-05-05T16:34:16.191Z</time></trkpt><trkpt lat="51.7507117" lon="-9.5422567"><ele>6.0</ele><time>2026-05-05T16:34:17.191Z</time></trkpt><trkpt lat="51.7506583" lon="-9.542515"><ele>7.666666666666666</ele><time>2026-05-05T16:34:18.192Z</time></trkpt><trkpt lat="51.750615" lon="-9.542775"><ele>9.333333333333332</ele><time>2026-05-05T16:34:19.191Z</time></trkpt><trkpt lat="51.7505817" lon="-9.54303"><ele>11.0</ele><time>2026-05-05T16:34:20.192Z</time></trkpt><trkpt lat="51.7505783" lon="-9.54333"><ele>13.0</ele><time>2026-05-05T16:34:21.192Z</time></trkpt><trkpt lat="51.7505633" lon="-9.543625"><ele>15.0</ele><time>2026-05-05T16:34:22.192Z</time></trkpt><trkpt lat="51.7505317" lon="-9.54396"><ele>17.0</ele><time>2026-05-05T16:34:23.191Z</time></trkpt><trkpt lat="51.750485" lon="-9.5442967"><ele>18.0</ele><time>2026-05-05T16:34:24.191Z</time></trkpt><trkpt lat="51.7504433" lon="-9.5445883"><ele>19.0</ele><time>2026-05-05T16:34:25.192Z</time></trkpt><trkpt lat="51.7503833" lon="-9.54486"><ele>20.0</ele><time>2026-05-05T16:34:26.192Z</time></trkpt><trkpt lat="51.7503183" lon="-9.5451467"><ele>19.666666666666668</ele><time>2026-05-05T16:34:27.191Z</time></trkpt><trkpt lat="51.7502633" lon="-9.5454383"><ele>19.333333333333332</ele><time>2026-05-05T16:34:28.191Z</time></trkpt><trkpt lat="51.75022" lon="-9.545735"><ele>19.0</ele><time>2026-05-05T16:34:29.191Z</time></trkpt><trkpt lat="51.750205" lon="-9.5460367"><ele>17.333333333333332</ele><time>2026-05-05T16:34:30.191Z</time></trkpt><trkpt lat="51.7501983" lon="-9.54633"><ele>15.666666666666668</ele><time>2026-05-05T16:34:31.192Z</time></trkpt><trkpt lat="51.7501933" lon="-9.5466133"><ele>14.0</ele><time>2026-05-05T16:34:32.192Z</time></trkpt><trkpt lat="51.7501983" lon="-9.54688"><ele>15.333333333333334</ele><time>2026-05-05T16:34:33.191Z</time></trkpt><trkpt lat="51.7501883" lon="-9.547145"><ele>16.666666666666668</ele><time>2026-05-05T16:34:34.191Z</time></trkpt><trkpt lat="51.7501717" lon="-9.547385"><ele>18.0</ele><time>2026-05-05T16:34:35.192Z</time></trkpt><trkpt lat="51.7501617" lon="-9.5476233"><ele>18.0</ele><time>2026-05-05T16:34:36.191Z</time></trkpt><trkpt lat="51.7501483" lon="-9.5478333"><ele>18.0</ele><time>2026-05-05T16:34:37.192Z</time></trkpt><trkpt lat="51.750145" lon="-9.54806"><ele>18.0</ele><time>2026-05-05T16:34:38.192Z</time></trkpt><trkpt lat="51.75014" lon="-9.5483067"><ele>18.0</ele><time>2026-05-05T16:34:39.192Z</time></trkpt><trkpt lat="51.7501333" lon="-9.5485517"><ele>16.75</ele><time>2026-05-05T16:34:40.192Z</time></trkpt><trkpt lat="51.7501217" lon="-9.5487933"><ele>15.5</ele><time>2026-05-05T16:34:41.192Z</time></trkpt><trkpt lat="51.750115" lon="-9.54903"><ele>14.25</ele><time>2026-05-05T16:34:42.191Z</time></trkpt><trkpt lat="51.750105" lon="-9.5492617"><ele>13.0</ele><time>2026-05-05T16:34:43.191Z</time></trkpt><trkpt lat="51.7500983" lon="-9.5494917"><ele>13.25</ele><time>2026-05-05T16:34:44.191Z</time></trkpt><trkpt lat="51.7500917" lon="-9.5497117"><ele>13.5</ele><time>2026-05-05T16:34:45.192Z</time></trkpt><trkpt lat="51.7500967" lon="-9.5499117"><ele>13.75</ele><time>2026-05-05T16:34:46.192Z</time></trkpt><trkpt lat="51.7500967" lon="-9.55011"><ele>14.0</ele><time>2026-05-05T16:34:47.192Z</time></trkpt><trkpt lat="51.7500983" lon="-9.550305"><ele>14.25</ele><time>2026-05-05T16:34:48.191Z</time></trkpt><trkpt lat="51.7500983" lon="-9.5504983"><ele>14.5</ele><time>2026-05-05T16:34:49.192Z</time></trkpt><trkpt lat="51.7501067" lon="-9.55069"><ele>14.75</ele><time>2026-05-05T16:34:50.191Z</time></trkpt><trkpt lat="51.75011" lon="-9.550885"><ele>15.0</ele><time>2026-05-05T16:34:51.191Z</time></trkpt><trkpt lat="51.7501017" lon="-9.55109"><ele>15.2</ele><time>2026-05-05T16:34:52.192Z</time></trkpt><trkpt lat="51.7500867" lon="-9.5512867"><ele>15.4</ele><time>2026-05-05T16:34:53.192Z</time></trkpt><trkpt lat="51.7500733" lon="-9.5514633"><ele>15.600000000000001</ele><time>2026-05-05T16:34:54.192Z</time></trkpt><trkpt lat="51.750075" lon="-9.55164"><ele>15.8</ele><time>2026-05-05T16:34:55.192Z</time></trkpt><trkpt lat="51.750065" lon="-9.5518033"><ele>16.0</ele><time>2026-05-05T16:34:56.191Z</time></trkpt><trkpt lat="51.7500533" lon="-9.55196"><ele>15.8</ele><time>2026-05-05T16:34:57.192Z</time></trkpt><trkpt lat="51.7500367" lon="-9.552115"><ele>15.600000000000001</ele><time>2026-05-05T16:34:58.191Z</time></trkpt><trkpt lat="51.7500233" lon="-9.55226"><ele>15.4</ele><time>2026-05-05T16:34:59.192Z</time></trkpt><trkpt lat="51.7500117" lon="-9.5524033"><ele>15.2</ele><time>2026-05-05T16:35:00.192Z</time></trkpt><trkpt lat="51.7500083" lon="-9.5525633"><ele>15.0</ele><time>2026-05-05T16:35:01.192Z</time></trkpt><trkpt lat="51.7500167" lon="-9.5527383"><ele>14.5</ele><time>2026-05-05T16:35:02.192Z</time></trkpt><trkpt lat="51.7500233" lon="-9.5529283"><ele>14.0</ele><time>2026-05-05T16:35:03.191Z</time></trkpt><trkpt lat="51.7500333" lon="-9.5531167"><ele>13.5</ele><time>2026-05-05T16:35:04.191Z</time></trkpt><trkpt lat="51.75005" lon="-9.553305"><ele>13.0</ele><time>2026-05-05T16:35:05.191Z</time></trkpt><trkpt lat="51.750085" lon="-9.553505"><ele>13.0</ele><time>2026-05-05T16:35:06.192Z</time></trkpt><trkpt lat="51.75013" lon="-9.553705"><ele>13.0</ele><time>2026-05-05T16:35:07.192Z</time></trkpt><trkpt lat="51.7501867" lon="-9.5539033"><ele>13.0</ele><time>2026-05-05T16:35:08.191Z</time></trkpt><trkpt lat="51.75027" lon="-9.5541"><ele>13.0</ele><time>2026-05-05T16:35:09.191Z</time></trkpt><trkpt lat="51.75038" lon="-9.554315"><ele>11.666666666666666</ele><time>2026-05-05T16:35:10.192Z</time></trkpt><trkpt lat="51.750545" lon="-9.5545367"><ele>10.333333333333332</ele><time>2026-05-05T16:35:11.192Z</time></trkpt><trkpt lat="51.7507117" lon="-9.55476"><ele>9.0</ele><time>2026-05-05T16:35:12.192Z</time></trkpt><trkpt lat="51.7508583" lon="-9.55498"><ele>9.0</ele><time>2026-05-05T16:35:13.192Z</time></trkpt><trkpt lat="51.7510033" lon="-9.5551767"><ele>9.0</ele><time>2026-05-05T16:35:14.192Z</time></trkpt><trkpt lat="51.7511383" lon="-9.5553667"><ele>9.0</ele><time>2026-05-05T16:35:15.192Z</time></trkpt><trkpt lat="51.7512733" lon="-9.55557"><ele>11.0</ele><time>2026-05-05T16:35:16.191Z</time></trkpt><trkpt lat="51.7514083" lon="-9.5557783"><ele>13.0</ele><time>2026-05-05T16:35:17.192Z</time></trkpt><trkpt lat="51.7515417" lon="-9.5559833"><ele>15.0</ele><time>2026-05-05T16:35:18.191Z</time></trkpt><trkpt lat="51.7516817" lon="-9.5561767"><ele>15.333333333333332</ele><time>2026-05-05T16:35:19.192Z</time></trkpt><trkpt lat="51.75183" lon="-9.5563467"><ele>15.666666666666666</ele><time>2026-05-05T16:35:20.192Z</time></trkpt><trkpt lat="51.7519933" lon="-9.5564967"><ele>16.0</ele><time>2026-05-05T16:35:21.192Z</time></trkpt><trkpt lat="51.75216" lon="-9.55665"><ele>16.0</ele><time>2026-05-05T16:35:22.192Z</time></trkpt><trkpt lat="51.7523267" lon="-9.5568283"><ele>16.0</ele><time>2026-05-05T16:35:23.191Z</time></trkpt><trkpt lat="51.7524833" lon="-9.5569967"><ele>16.0</ele><time>2026-05-05T16:35:24.192Z</time></trkpt><trkpt lat="51.752635" lon="-9.557155"><ele>16.0</ele><time>2026-05-05T16:35:25.191Z</time></trkpt><trkpt lat="51.75278" lon="-9.5573117"><ele>16.0</ele><time>2026-05-05T16:35:26.192Z</time></trkpt><trkpt lat="51.752915" lon="-9.55747"><ele>16.0</ele><time>2026-05-05T16:35:27.191Z</time></trkpt><trkpt lat="51.7530467" lon="-9.5576683"><ele>15.0</ele><time>2026-05-05T16:35:28.191Z</time></trkpt><trkpt lat="51.753165" lon="-9.5579"><ele>14.0</ele><time>2026-05-05T16:35:29.192Z</time></trkpt><trkpt lat="51.7532567" lon="-9.5581617"><ele>13.0</ele><time>2026-05-05T16:35:30.191Z</time></trkpt><trkpt lat="51.7533567" lon="-9.5584067"><ele>13.0</ele><time>2026-05-05T16:35:31.192Z</time></trkpt><trkpt lat="51.7534483" lon="-9.5586533"><ele>13.0</ele><time>2026-05-05T16:35:32.191Z</time></trkpt><trkpt lat="51.7535317" lon="-9.558915"><ele>13.0</ele><time>2026-05-05T16:35:33.192Z</time></trkpt><trkpt lat="51.7536133" lon="-9.5591583"><ele>15.666666666666666</ele><time>2026-05-05T16:35:34.192Z</time></trkpt><trkpt lat="51.753685" lon="-9.5593967"><ele>18.333333333333332</ele><time>2026-05-05T16:35:35.191Z</time></trkpt><trkpt lat="51.7537483" lon="-9.559655"><ele>21.0</ele><time>2026-05-05T16:35:36.192Z</time></trkpt><trkpt lat="51.7538117" lon="-9.5599067"><ele>21.333333333333332</ele><time>2026-05-05T16:35:37.191Z</time></trkpt><trkpt lat="51.7538733" lon="-9.5601533"><ele>21.666666666666664</ele><time>2026-05-05T16:35:38.191Z</time></trkpt><trkpt lat="51.7539" lon="-9.560395"><ele>22.0</ele><time>2026-05-05T16:35:39.192Z</time></trkpt><trkpt lat="51.753915" lon="-9.5606583"><ele>22.0</ele><time>2026-05-05T16:35:40.192Z</time></trkpt><trkpt lat="51.7538667" lon="-9.5609667"><ele>22.0</ele><time>2026-05-05T16:35:41.192Z</time></trkpt><trkpt lat="51.7538733" lon="-9.56125"><ele>22.0</ele><time>2026-05-05T16:35:42.191Z</time></trkpt><trkpt lat="51.7538267" lon="-9.56159"><ele>22.0</ele><time>2026-05-05T16:35:43.192Z</time></trkpt><trkpt lat="51.7537933" lon="-9.5619233"><ele>22.0</ele><time>2026-05-05T16:35:44.191Z</time></trkpt><trkpt lat="51.7537617" lon="-9.56222"><ele>22.0</ele><time>2026-05-05T16:35:45.192Z</time></trkpt><trkpt lat="51.753745" lon="-9.5625"><ele>21.666666666666664</ele><time>2026-05-05T16:35:46.192Z</time></trkpt><trkpt lat="51.753725" lon="-9.5627667"><ele>21.333333333333332</ele><time>2026-05-05T16:35:47.191Z</time></trkpt><trkpt lat="51.7537217" lon="-9.56302"><ele>21.0</ele><time>2026-05-05T16:35:48.192Z</time></trkpt><trkpt lat="51.7537083" lon="-9.5632667"><ele>20.5</ele><time>2026-05-05T16:35:49.192Z</time></trkpt><trkpt lat="51.7536983" lon="-9.5635"><ele>20.0</ele><time>2026-05-05T16:35:50.191Z</time></trkpt><trkpt lat="51.753705" lon="-9.5637183"><ele>19.5</ele><time>2026-05-05T16:35:51.192Z</time></trkpt><trkpt lat="51.7537083" lon="-9.5639517"><ele>19.0</ele><time>2026-05-05T16:35:52.192Z</time></trkpt><trkpt lat="51.75377" lon="-9.564115"><ele>18.5</ele><time>2026-05-05T16:35:53.192Z</time></trkpt><trkpt lat="51.75381" lon="-9.5643217"><ele>18.0</ele><time>2026-05-05T16:35:54.192Z</time></trkpt><trkpt lat="51.75385" lon="-9.5645317"><ele>17.5</ele><time>2026-05-05T16:35:55.192Z</time></trkpt><trkpt lat="51.7539383" lon="-9.5646633"><ele>17.0</ele><time>2026-05-05T16:35:56.192Z</time></trkpt><trkpt lat="51.7540133" lon="-9.56482"><ele>16.75</ele><time>2026-05-05T16:35:57.192Z</time></trkpt><trkpt lat="51.7540767" lon="-9.565"><ele>16.5</ele><time>2026-05-05T16:35:58.192Z</time></trkpt><trkpt lat="51.75415" lon="-9.5651583"><ele>16.25</ele><time>2026-05-05T16:35:59.192Z</time></trkpt><trkpt lat="51.7542967" lon="-9.565255"><ele>16.0</ele><time>2026-05-05T16:36:00.191Z</time></trkpt><trkpt lat="51.754435" lon="-9.5653567"><ele>17.333333333333332</ele><time>2026-05-05T16:36:01.192Z</time></trkpt><trkpt lat="51.7546567" lon="-9.56536"><ele>18.666666666666668</ele><time>2026-05-05T16:36:02.192Z</time></trkpt><trkpt lat="51.7548533" lon="-9.5654333"><ele>20.0</ele><time>2026-05-05T16:36:03.192Z</time></trkpt><trkpt lat="51.7550617" lon="-9.5654867"><ele>22.666666666666668</ele><time>2026-05-05T16:36:04.191Z</time></trkpt><trkpt lat="51.7552067" lon="-9.5655667"><ele>25.333333333333336</ele><time>2026-05-05T16:36:05.192Z</time></trkpt><trkpt lat="51.75542" lon="-9.5655683"><ele>28.0</ele><time>2026-05-05T16:36:06.191Z</time></trkpt><trkpt lat="51.7556433" lon="-9.5655217"><ele>28.0</ele><time>2026-05-05T16:36:07.191Z</time></trkpt><trkpt lat="51.7558567" lon="-9.56544"><ele>28.0</ele><time>2026-05-05T16:36:08.192Z</time></trkpt><trkpt lat="51.7560767" lon="-9.565285"><ele>28.666666666666668</ele><time>2026-05-05T16:36:09.192Z</time></trkpt><trkpt lat="51.756255" lon="-9.56528"><ele>29.333333333333336</ele><time>2026-05-05T16:36:10.191Z</time></trkpt><trkpt lat="51.756465" lon="-9.5652417"><ele>30.0</ele><time>2026-05-05T16:36:11.191Z</time></trkpt><trkpt lat="51.75667" lon="-9.5651"><ele>30.333333333333336</ele><time>2026-05-05T16:36:12.192Z</time></trkpt><trkpt lat="51.756885" lon="-9.565025"><ele>30.666666666666668</ele><time>2026-05-05T16:36:13.192Z</time></trkpt><trkpt lat="51.75707" lon="-9.5650333"><ele>31.0</ele><time>2026-05-05T16:36:14.191Z</time></trkpt><trkpt lat="51.7572517" lon="-9.565045"><ele>31.0</ele><time>2026-05-05T16:36:15.191Z</time></trkpt><trkpt lat="51.757425" lon="-9.5650433"><ele>31.0</ele><time>2026-05-05T16:36:16.191Z</time></trkpt><trkpt lat="51.7576033" lon="-9.5650317"><ele>31.0</ele><time>2026-05-05T16:36:17.191Z</time></trkpt><trkpt lat="51.75778" lon="-9.5649967"><ele>32.0</ele><time>2026-05-05T16:36:18.192Z</time></trkpt><trkpt lat="51.75795" lon="-9.5649483"><ele>33.0</ele><time>2026-05-05T16:36:19.192Z</time></trkpt><trkpt lat="51.7581133" lon="-9.5649067"><ele>34.0</ele><time>2026-05-05T16:36:20.192Z</time></trkpt><trkpt lat="51.7582717" lon="-9.5648833"><ele>34.0</ele><time>2026-05-05T16:36:21.192Z</time></trkpt><trkpt lat="51.7584217" lon="-9.564865"><ele>34.0</ele><time>2026-05-05T16:36:22.192Z</time></trkpt><trkpt lat="51.7585583" lon="-9.56483"><ele>34.0</ele><time>2026-05-05T16:36:23.192Z</time></trkpt><trkpt lat="51.7586867" lon="-9.5648117"><ele>34.0</ele><time>2026-05-05T16:36:24.192Z</time></trkpt><trkpt lat="51.7588133" lon="-9.564815"><ele>34.0</ele><time>2026-05-05T16:36:25.192Z</time></trkpt><trkpt lat="51.75892" lon="-9.5648433"><ele>34.0</ele><time>2026-05-05T16:36:26.192Z</time></trkpt><trkpt lat="51.7590317" lon="-9.5648217"><ele>34.0</ele><time>2026-05-05T16:36:27.191Z</time></trkpt><trkpt lat="51.7591333" lon="-9.564815"><ele>34.0</ele><time>2026-05-05T16:36:28.192Z</time></trkpt><trkpt lat="51.7592517" lon="-9.56478"><ele>34.0</ele><time>2026-05-05T16:36:29.192Z</time></trkpt><trkpt lat="51.7593767" lon="-9.5647217"><ele>34.0</ele><time>2026-05-05T16:36:30.192Z</time></trkpt><trkpt lat="51.7595117" lon="-9.5646367"><ele>34.0</ele><time>2026-05-05T16:36:31.191Z</time></trkpt><trkpt lat="51.759645" lon="-9.564505"><ele>34.0</ele><time>2026-05-05T16:36:32.191Z</time></trkpt><trkpt lat="51.7597883" lon="-9.5643367"><ele>35.0</ele><time>2026-05-05T16:36:33.191Z</time></trkpt><trkpt lat="51.75993" lon="-9.5641617"><ele>36.0</ele><time>2026-05-05T16:36:34.192Z</time></trkpt><trkpt lat="51.76008" lon="-9.5639533"><ele>37.0</ele><time>2026-05-05T16:36:35.192Z</time></trkpt><trkpt lat="51.760235" lon="-9.5637183"><ele>38.0</ele><time>2026-05-05T16:36:36.191Z</time></trkpt><trkpt lat="51.7603783" lon="-9.56349"><ele>39.0</ele><time>2026-05-05T16:36:37.191Z</time></trkpt><trkpt lat="51.7604967" lon="-9.5632133"><ele>40.0</ele><time>2026-05-05T16:36:38.191Z</time></trkpt><trkpt lat="51.7606167" lon="-9.5629533"><ele>43.0</ele><time>2026-05-05T16:36:39.192Z</time></trkpt><trkpt lat="51.7607333" lon="-9.56266"><ele>46.0</ele><time>2026-05-05T16:36:40.192Z</time></trkpt><trkpt lat="51.760865" lon="-9.5623333"><ele>46.0</ele><time>2026-05-05T16:36:41.192Z</time></trkpt><trkpt lat="51.760995" lon="-9.5620383"><ele>46.0</ele><time>2026-05-05T16:36:42.192Z</time></trkpt><trkpt lat="51.761125" lon="-9.5617583"><ele>46.0</ele><time>2026-05-05T16:36:43.192Z</time></trkpt><trkpt lat="51.7612533" lon="-9.56148"><ele>46.0</ele><time>2026-05-05T16:36:44.192Z</time></trkpt><trkpt lat="51.76138" lon="-9.561205"><ele>46.0</ele><time>2026-05-05T16:36:45.192Z</time></trkpt><trkpt lat="51.7615" lon="-9.5609217"><ele>46.0</ele><time>2026-05-05T16:36:46.192Z</time></trkpt><trkpt lat="51.7616083" lon="-9.5606333"><ele>48.66666666666667</ele><time>2026-05-05T16:36:47.192Z</time></trkpt><trkpt lat="51.7617083" lon="-9.5603583"><ele>51.333333333333336</ele><time>2026-05-05T16:36:48.191Z</time></trkpt><trkpt lat="51.7617967" lon="-9.5600967"><ele>54.0</ele><time>2026-05-05T16:36:49.192Z</time></trkpt><trkpt lat="51.76187" lon="-9.5598583"><ele>54.0</ele><time>2026-05-05T16:36:50.192Z</time></trkpt><trkpt lat="51.7618683" lon="-9.5596067"><ele>54.0</ele><time>2026-05-05T16:36:51.191Z</time></trkpt><trkpt lat="51.7619567" lon="-9.5594233"><ele>54.0</ele><time>2026-05-05T16:36:52.192Z</time></trkpt><trkpt lat="51.762065" lon="-9.5593233"><ele>54.0</ele><time>2026-05-05T16:36:53.192Z</time></trkpt><trkpt lat="51.762185" lon="-9.55918"><ele>56.66666666666667</ele><time>2026-05-05T16:36:54.191Z</time></trkpt><trkpt lat="51.7623233" lon="-9.55904"><ele>59.333333333333336</ele><time>2026-05-05T16:36:55.191Z</time></trkpt><trkpt lat="51.7624583" lon="-9.5588783"><ele>62.0</ele><time>2026-05-05T16:36:56.192Z</time></trkpt><trkpt lat="51.7625817" lon="-9.5587017"><ele>62.66666666666667</ele><time>2026-05-05T16:36:57.192Z</time></trkpt><trkpt lat="51.7627017" lon="-9.5585133"><ele>63.33333333333333</ele><time>2026-05-05T16:36:58.191Z</time></trkpt><trkpt lat="51.76281" lon="-9.558295"><ele>64.0</ele><time>2026-05-05T16:36:59.192Z</time></trkpt><trkpt lat="51.7629067" lon="-9.5580717"><ele>66.0</ele><time>2026-05-05T16:37:00.192Z</time></trkpt><trkpt lat="51.7629933" lon="-9.55786"><ele>68.0</ele><time>2026-05-05T16:37:01.191Z</time></trkpt><trkpt lat="51.7630783" lon="-9.55765"><ele>70.0</ele><time>2026-05-05T16:37:02.192Z</time></trkpt><trkpt lat="51.7631767" lon="-9.5574717"><ele>70.0</ele><time>2026-05-05T16:37:03.191Z</time></trkpt><trkpt lat="51.7633" lon="-9.5573417"><ele>70.0</ele><time>2026-05-05T16:37:04.192Z</time></trkpt><trkpt lat="51.7634183" lon="-9.5572133"><ele>70.0</ele><time>2026-05-05T16:37:05.192Z</time></trkpt><trkpt lat="51.76354" lon="-9.5571083"><ele>70.0</ele><time>2026-05-05T16:37:06.191Z</time></trkpt><trkpt lat="51.76368" lon="-9.5570533"><ele>71.0</ele><time>2026-05-05T16:37:07.191Z</time></trkpt><trkpt lat="51.7638367" lon="-9.5570333"><ele>72.0</ele><time>2026-05-05T16:37:08.191Z</time></trkpt><trkpt lat="51.764015" lon="-9.5570367"><ele>73.0</ele><time>2026-05-05T16:37:09.192Z</time></trkpt><trkpt lat="51.7641767" lon="-9.5569983"><ele>76.66666666666666</ele><time>2026-05-05T16:37:10.191Z</time></trkpt><trkpt lat="51.76435" lon="-9.5569533"><ele>80.33333333333333</ele><time>2026-05-05T16:37:11.192Z</time></trkpt><trkpt lat="51.7645233" lon="-9.5569017"><ele>84.0</ele><time>2026-05-05T16:37:12.192Z</time></trkpt><trkpt lat="51.7646917" lon="-9.55683"><ele>84.0</ele><time>2026-05-05T16:37:13.191Z</time></trkpt><trkpt lat="51.764855" lon="-9.5567333"><ele>84.0</ele><time>2026-05-05T16:37:14.191Z</time></trkpt><trkpt lat="51.7650233" lon="-9.5566383"><ele>84.0</ele><time>2026-05-05T16:37:15.192Z</time></trkpt><trkpt lat="51.765185" lon="-9.5565467"><ele>84.33333333333333</ele><time>2026-05-05T16:37:16.192Z</time></trkpt><trkpt lat="51.765335" lon="-9.55645"><ele>84.66666666666666</ele><time>2026-05-05T16:37:17.192Z</time></trkpt><trkpt lat="51.76548" lon="-9.55633"><ele>85.0</ele><time>2026-05-05T16:37:18.191Z</time></trkpt><trkpt lat="51.7656217" lon="-9.5561883"><ele>86.0</ele><time>2026-05-05T16:37:19.192Z</time></trkpt><trkpt lat="51.7657617" lon="-9.5560267"><ele>87.0</ele><time>2026-05-05T16:37:20.192Z</time></trkpt><trkpt lat="51.7659033" lon="-9.555855"><ele>88.0</ele><time>2026-05-05T16:37:21.192Z</time></trkpt><trkpt lat="51.766045" lon="-9.5556517"><ele>87.0</ele><time>2026-05-05T16:37:22.192Z</time></trkpt><trkpt lat="51.76618" lon="-9.5554317"><ele>86.0</ele><time>2026-05-05T16:37:23.191Z</time></trkpt><trkpt lat="51.7663033" lon="-9.5551783"><ele>85.0</ele><time>2026-05-05T16:37:24.192Z</time></trkpt><trkpt lat="51.7664467" lon="-9.55492"><ele>85.0</ele><time>2026-05-05T16:37:25.192Z</time></trkpt><trkpt lat="51.7666033" lon="-9.5546533"><ele>85.0</ele><time>2026-05-05T16:37:26.192Z</time></trkpt><trkpt lat="51.76677" lon="-9.554425"><ele>85.0</ele><time>2026-05-05T16:37:27.191Z</time></trkpt><trkpt lat="51.7669333" lon="-9.5541983"><ele>86.66666666666666</ele><time>2026-05-05T16:37:28.191Z</time></trkpt><trkpt lat="51.76709" lon="-9.55398"><ele>88.33333333333333</ele><time>2026-05-05T16:37:29.192Z</time></trkpt><trkpt lat="51.7672383" lon="-9.5537783"><ele>90.0</ele><time>2026-05-05T16:37:30.192Z</time></trkpt><trkpt lat="51.767375" lon="-9.5535833"><ele>92.66666666666666</ele><time>2026-05-05T16:37:31.192Z</time></trkpt><trkpt lat="51.76751" lon="-9.5533983"><ele>95.33333333333333</ele><time>2026-05-05T16:37:32.192Z</time></trkpt><trkpt lat="51.7676433" lon="-9.5532417"><ele>98.0</ele><time>2026-05-05T16:37:33.192Z</time></trkpt><trkpt lat="51.767775" lon="-9.55314"><ele>99.75</ele><time>2026-05-05T16:37:34.191Z</time></trkpt><trkpt lat="51.7678917" lon="-9.5530517"><ele>101.5</ele><time>2026-05-05T16:37:35.191Z</time></trkpt><trkpt lat="51.768005" lon="-9.553005"><ele>103.25</ele><time>2026-05-05T16:37:36.192Z</time></trkpt><trkpt lat="51.76811" lon="-9.5529767"><ele>105.0</ele><time>2026-05-05T16:37:37.192Z</time></trkpt><trkpt lat="51.7682167" lon="-9.552995"><ele>105.0</ele><time>2026-05-05T16:37:38.191Z</time></trkpt><trkpt lat="51.76833" lon="-9.5530833"><ele>105.0</ele><time>2026-05-05T16:37:39.192Z</time></trkpt><trkpt lat="51.7684467" lon="-9.55322"><ele>105.0</ele><time>2026-05-05T16:37:40.192Z</time></trkpt><trkpt lat="51.7685583" lon="-9.5534017"><ele>105.0</ele><time>2026-05-05T16:37:41.192Z</time></trkpt><trkpt lat="51.768685" lon="-9.5536267"><ele>104.66666666666666</ele><time>2026-05-05T16:37:42.191Z</time></trkpt><trkpt lat="51.768825" lon="-9.5537883"><ele>104.33333333333333</ele><time>2026-05-05T16:37:43.192Z</time></trkpt><trkpt lat="51.7689817" lon="-9.5539867"><ele>104.0</ele><time>2026-05-05T16:37:44.191Z</time></trkpt><trkpt lat="51.7691483" lon="-9.55415"><ele>104.0</ele><time>2026-05-05T16:37:45.192Z</time></trkpt><trkpt lat="51.7693067" lon="-9.554265"><ele>104.0</ele><time>2026-05-05T16:37:46.192Z</time></trkpt><trkpt lat="51.7694867" lon="-9.5543617"><ele>104.0</ele><time>2026-05-05T16:37:47.191Z</time></trkpt><trkpt lat="51.76965" lon="-9.5544617"><ele>103.33333333333333</ele><time>2026-05-05T16:37:48.191Z</time></trkpt><trkpt lat="51.7698267" lon="-9.554525"><ele>102.66666666666666</ele><time>2026-05-05T16:37:49.191Z</time></trkpt><trkpt lat="51.7700017" lon="-9.5545817"><ele>102.0</ele><time>2026-05-05T16:37:50.192Z</time></trkpt><trkpt lat="51.7701633" lon="-9.5546317"><ele>102.66666666666666</ele><time>2026-05-05T16:37:51.192Z</time></trkpt><trkpt lat="51.7703283" lon="-9.554625"><ele>103.33333333333333</ele><time>2026-05-05T16:37:52.192Z</time></trkpt><trkpt lat="51.7704917" lon="-9.5546033"><ele>104.0</ele><time>2026-05-05T16:37:53.192Z</time></trkpt><trkpt lat="51.7706433" lon="-9.5546083"><ele>104.0</ele><time>2026-05-05T16:37:54.192Z</time></trkpt><trkpt lat="51.7708083" lon="-9.5545983"><ele>104.0</ele><time>2026-05-05T16:37:55.191Z</time></trkpt><trkpt lat="51.7709617" lon="-9.5546183"><ele>104.0</ele><time>2026-05-05T16:37:56.192Z</time></trkpt><trkpt lat="51.7711017" lon="-9.5546933"><ele>106.0</ele><time>2026-05-05T16:37:57.192Z</time></trkpt><trkpt lat="51.77125" lon="-9.5547933"><ele>108.0</ele><time>2026-05-05T16:37:58.191Z</time></trkpt><trkpt lat="51.7713967" lon="-9.5549717"><ele>110.0</ele><time>2026-05-05T16:37:59.192Z</time></trkpt><trkpt lat="51.7714933" lon="-9.55518"><ele>109.66666666666666</ele><time>2026-05-05T16:38:00.192Z</time></trkpt><trkpt lat="51.771575" lon="-9.5554483"><ele>109.33333333333334</ele><time>2026-05-05T16:38:01.192Z</time></trkpt><trkpt lat="51.77167" lon="-9.5557533"><ele>109.0</ele><time>2026-05-05T16:38:02.192Z</time></trkpt><trkpt lat="51.7717733" lon="-9.55604"><ele>111.66666666666667</ele><time>2026-05-05T16:38:03.192Z</time></trkpt><trkpt lat="51.7718667" lon="-9.5563333"><ele>114.33333333333334</ele><time>2026-05-05T16:38:04.191Z</time></trkpt><trkpt lat="51.7719967" lon="-9.556645"><ele>117.0</ele><time>2026-05-05T16:38:05.192Z</time></trkpt><trkpt lat="51.7720967" lon="-9.5569683"><ele>118.0</ele><time>2026-05-05T16:38:06.192Z</time></trkpt><trkpt lat="51.7721983" lon="-9.5572733"><ele>119.0</ele><time>2026-05-05T16:38:07.192Z</time></trkpt><trkpt lat="51.772305" lon="-9.5575617"><ele>120.0</ele><time>2026-05-05T16:38:08.192Z</time></trkpt><trkpt lat="51.77241" lon="-9.5578483"><ele>120.66666666666666</ele><time>2026-05-05T16:38:09.192Z</time></trkpt><trkpt lat="51.77252" lon="-9.5581433"><ele>121.33333333333333</ele><time>2026-05-05T16:38:10.192Z</time></trkpt><trkpt lat="51.7726367" lon="-9.5584433"><ele>122.0</ele><time>2026-05-05T16:38:11.192Z</time></trkpt><trkpt lat="51.772755" lon="-9.5587317"><ele>124.33333333333333</ele><time>2026-05-05T16:38:12.192Z</time></trkpt><trkpt lat="51.772865" lon="-9.5590083"><ele>126.66666666666666</ele><time>2026-05-05T16:38:13.192Z</time></trkpt><trkpt lat="51.77297" lon="-9.55927"><ele>129.0</ele><time>2026-05-05T16:38:14.192Z</time></trkpt><trkpt lat="51.7730733" lon="-9.5595283"><ele>127.33333333333334</ele><time>2026-05-05T16:38:15.192Z</time></trkpt><trkpt lat="51.773185" lon="-9.5597783"><ele>125.66666666666667</ele><time>2026-05-05T16:38:16.191Z</time></trkpt><trkpt lat="51.773305" lon="-9.56004"><ele>124.0</ele><time>2026-05-05T16:38:17.192Z</time></trkpt><trkpt lat="51.7734383" lon="-9.5602883"><ele>125.0</ele><time>2026-05-05T16:38:18.192Z</time></trkpt><trkpt lat="51.773585" lon="-9.5605417"><ele>126.0</ele><time>2026-05-05T16:38:19.192Z</time></trkpt><trkpt lat="51.7737417" lon="-9.5607933"><ele>127.0</ele><time>2026-05-05T16:38:20.192Z</time></trkpt><trkpt lat="51.7739217" lon="-9.5610167"><ele>125.5</ele><time>2026-05-05T16:38:21.191Z</time></trkpt><trkpt lat="51.774105" lon="-9.5612383"><ele>124.0</ele><time>2026-05-05T16:38:22.192Z</time></trkpt><trkpt lat="51.77429" lon="-9.5614667"><ele>128.5</ele><time>2026-05-05T16:38:23.192Z</time></trkpt><trkpt lat="51.7744767" lon="-9.5616883"><ele>133.0</ele><time>2026-05-05T16:38:24.192Z</time></trkpt><trkpt lat="51.7746583" lon="-9.5619233"><ele>131.66666666666669</ele><time>2026-05-05T16:38:25.191Z</time></trkpt><trkpt lat="51.7748333" lon="-9.5621"><ele>130.33333333333334</ele><time>2026-05-05T16:38:26.192Z</time></trkpt><trkpt lat="51.77498" lon="-9.5623133"><ele>129.0</ele><time>2026-05-05T16:38:27.192Z</time></trkpt><trkpt lat="51.775115" lon="-9.56253"><ele>133.33333333333334</ele><time>2026-05-05T16:38:28.191Z</time></trkpt><trkpt lat="51.7752433" lon="-9.562755"><ele>137.66666666666669</ele><time>2026-05-05T16:38:29.192Z</time></trkpt><trkpt lat="51.7753617" lon="-9.5630033"><ele>142.0</ele><time>2026-05-05T16:38:30.191Z</time></trkpt><trkpt lat="51.7754783" lon="-9.5632567"><ele>142.0</ele><time>2026-05-05T16:38:31.192Z</time></trkpt><trkpt lat="51.7755783" lon="-9.5635117"><ele>142.0</ele><time>2026-05-05T16:38:32.191Z</time></trkpt><trkpt lat="51.7756933" lon="-9.5637883"><ele>142.0</ele><time>2026-05-05T16:38:33.192Z</time></trkpt><trkpt lat="51.7758067" lon="-9.5640717"><ele>141.0</ele><time>2026-05-05T16:38:34.192Z</time></trkpt><trkpt lat="51.77591" lon="-9.564355"><ele>140.0</ele><time>2026-05-05T16:38:35.192Z</time></trkpt><trkpt lat="51.77601" lon="-9.5646533"><ele>139.0</ele><time>2026-05-05T16:38:36.191Z</time></trkpt><trkpt lat="51.776185" lon="-9.5650017"><ele>145.5</ele><time>2026-05-05T16:38:37.191Z</time></trkpt><trkpt lat="51.7762767" lon="-9.5653183"><ele>152.0</ele><time>2026-05-05T16:38:38.192Z</time></trkpt><trkpt lat="51.77641" lon="-9.5656783"><ele>152.0</ele><time>2026-05-05T16:38:39.192Z</time></trkpt><trkpt lat="51.7765067" lon="-9.5659967"><ele>152.0</ele><time>2026-05-05T16:38:40.191Z</time></trkpt><trkpt lat="51.776595" lon="-9.56632"><ele>152.0</ele><time>2026-05-05T16:38:41.191Z</time></trkpt><trkpt lat="51.7766783" lon="-9.566645"><ele>151.33333333333331</ele><time>2026-05-05T16:38:42.192Z</time></trkpt><trkpt lat="51.7767617" lon="-9.56698"><ele>150.66666666666666</ele><time>2026-05-05T16:38:43.192Z</time></trkpt><trkpt lat="51.7768367" lon="-9.5673117"><ele>150.0</ele><time>2026-05-05T16:38:44.192Z</time></trkpt><trkpt lat="51.7769033" lon="-9.5676433"><ele>154.0</ele><time>2026-05-05T16:38:45.192Z</time></trkpt><trkpt lat="51.7769033" lon="-9.5680233"><ele>158.0</ele><time>2026-05-05T16:38:46.192Z</time></trkpt><trkpt lat="51.77695" lon="-9.568355"><ele>162.0</ele><time>2026-05-05T16:38:47.192Z</time></trkpt><trkpt lat="51.7769817" lon="-9.5686967"><ele>163.0</ele><time>2026-05-05T16:38:48.192Z</time></trkpt><trkpt lat="51.777005" lon="-9.569045"><ele>164.0</ele><time>2026-05-05T16:38:49.191Z</time></trkpt><trkpt lat="51.7770133" lon="-9.5693867"><ele>165.0</ele><time>2026-05-05T16:38:50.191Z</time></trkpt><trkpt lat="51.7770267" lon="-9.5697083"><ele>166.0</ele><time>2026-05-05T16:38:51.192Z</time></trkpt><trkpt lat="51.7770333" lon="-9.570025"><ele>167.0</ele><time>2026-05-05T16:38:52.192Z</time></trkpt><trkpt lat="51.7770533" lon="-9.5702167"><ele>168.0</ele><time>2026-05-05T16:38:53.192Z</time></trkpt><trkpt lat="51.7770583" lon="-9.5704767"><ele>169.0</ele><time>2026-05-05T16:38:54.191Z</time></trkpt><trkpt lat="51.7770567" lon="-9.5707233"><ele>170.0</ele><time>2026-05-05T16:38:55.191Z</time></trkpt><trkpt lat="51.777055" lon="-9.57097"><ele>171.0</ele><time>2026-05-05T16:38:56.191Z</time></trkpt><trkpt lat="51.77705" lon="-9.571225"><ele>172.66666666666666</ele><time>2026-05-05T16:38:57.192Z</time></trkpt><trkpt lat="51.77704" lon="-9.5714667"><ele>174.33333333333331</ele><time>2026-05-05T16:38:58.192Z</time></trkpt><trkpt lat="51.7770067" lon="-9.5717267"><ele>176.0</ele><time>2026-05-05T16:38:59.192Z</time></trkpt><trkpt lat="51.7769817" lon="-9.5719483"><ele>177.0</ele><time>2026-05-05T16:39:00.191Z</time></trkpt><trkpt lat="51.7769067" lon="-9.5721833"><ele>178.0</ele><time>2026-05-05T16:39:01.192Z</time></trkpt><trkpt lat="51.7768267" lon="-9.5723567"><ele>179.0</ele><time>2026-05-05T16:39:02.192Z</time></trkpt><trkpt lat="51.7766817" lon="-9.5725817"><ele>177.0</ele><time>2026-05-05T16:39:03.192Z</time></trkpt><trkpt lat="51.7765333" lon="-9.57275"><ele>175.0</ele><time>2026-05-05T16:39:04.192Z</time></trkpt><trkpt lat="51.7763583" lon="-9.5729433"><ele>173.0</ele><time>2026-05-05T16:39:05.191Z</time></trkpt><trkpt lat="51.7762033" lon="-9.5731"><ele>173.0</ele><time>2026-05-05T16:39:06.191Z</time></trkpt><trkpt lat="51.776035" lon="-9.5732367"><ele>173.0</ele><time>2026-05-05T16:39:07.192Z</time></trkpt><trkpt lat="51.7758583" lon="-9.5733433"><ele>173.0</ele><time>2026-05-05T16:39:08.192Z</time></trkpt><trkpt lat="51.775665" lon="-9.573415"><ele>172.0</ele><time>2026-05-05T16:39:09.191Z</time></trkpt><trkpt lat="51.775475" lon="-9.5734817"><ele>171.0</ele><time>2026-05-05T16:39:10.192Z</time></trkpt><trkpt lat="51.7752817" lon="-9.5735567"><ele>170.0</ele><time>2026-05-05T16:39:11.191Z</time></trkpt><trkpt lat="51.7750883" lon="-9.573625"><ele>173.66666666666666</ele><time>2026-05-05T16:39:12.191Z</time></trkpt><trkpt lat="51.77491" lon="-9.57369"><ele>177.33333333333334</ele><time>2026-05-05T16:39:13.192Z</time></trkpt><trkpt lat="51.7747367" lon="-9.5737533"><ele>181.0</ele><time>2026-05-05T16:39:14.192Z</time></trkpt><trkpt lat="51.7745583" lon="-9.5738083"><ele>181.0</ele><time>2026-05-05T16:39:15.192Z</time></trkpt><trkpt lat="51.77438" lon="-9.57384"><ele>181.0</ele><time>2026-05-05T16:39:16.192Z</time></trkpt><trkpt lat="51.7742" lon="-9.5738567"><ele>181.0</ele><time>2026-05-05T16:39:17.192Z</time></trkpt><trkpt lat="51.7740233" lon="-9.573855"><ele>181.66666666666669</ele><time>2026-05-05T16:39:18.191Z</time></trkpt><trkpt lat="51.7738533" lon="-9.5738383"><ele>182.33333333333334</ele><time>2026-05-05T16:39:19.192Z</time></trkpt><trkpt lat="51.7736967" lon="-9.5738083"><ele>183.0</ele><time>2026-05-05T16:39:20.192Z</time></trkpt><trkpt lat="51.7735383" lon="-9.573765"><ele>181.0</ele><time>2026-05-05T16:39:21.192Z</time></trkpt><trkpt lat="51.773395" lon="-9.5736617"><ele>179.0</ele><time>2026-05-05T16:39:22.192Z</time></trkpt><trkpt lat="51.7732483" lon="-9.5735233"><ele>177.0</ele><time>2026-05-05T16:39:23.191Z</time></trkpt><trkpt lat="51.7731067" lon="-9.5733667"><ele>177.0</ele><time>2026-05-05T16:39:24.192Z</time></trkpt><trkpt lat="51.7729683" lon="-9.5731483"><ele>177.0</ele><time>2026-05-05T16:39:25.192Z</time></trkpt><trkpt lat="51.7728367" lon="-9.5729317"><ele>177.0</ele><time>2026-05-05T16:39:26.192Z</time></trkpt><trkpt lat="51.7727133" lon="-9.5726933"><ele>176.66666666666666</ele><time>2026-05-05T16:39:27.192Z</time></trkpt><trkpt lat="51.7725917" lon="-9.57245"><ele>176.33333333333331</ele><time>2026-05-05T16:39:28.192Z</time></trkpt><trkpt lat="51.7724717" lon="-9.57221"><ele>176.0</ele><time>2026-05-05T16:39:29.191Z</time></trkpt><trkpt lat="51.77234" lon="-9.571995"><ele>176.0</ele><time>2026-05-05T16:39:30.191Z</time></trkpt><trkpt lat="51.772205" lon="-9.5718183"><ele>176.0</ele><time>2026-05-05T16:39:31.192Z</time></trkpt><trkpt lat="51.7720517" lon="-9.5716667"><ele>176.0</ele><time>2026-05-05T16:39:32.191Z</time></trkpt><trkpt lat="51.7718733" lon="-9.5715267"><ele>178.0</ele><time>2026-05-05T16:39:33.192Z</time></trkpt><trkpt lat="51.7716917" lon="-9.5713567"><ele>180.0</ele><time>2026-05-05T16:39:34.192Z</time></trkpt><trkpt lat="51.7715317" lon="-9.5712017"><ele>182.0</ele><time>2026-05-05T16:39:35.191Z</time></trkpt><trkpt lat="51.77138" lon="-9.5710233"><ele>182.0</ele><time>2026-05-05T16:39:36.191Z</time></trkpt><trkpt lat="51.7712283" lon="-9.5708267"><ele>182.0</ele><time>2026-05-05T16:39:37.192Z</time></trkpt><trkpt lat="51.7710767" lon="-9.5706383"><ele>182.0</ele><time>2026-05-05T16:39:38.191Z</time></trkpt><trkpt lat="51.7709183" lon="-9.5704317"><ele>184.33333333333331</ele><time>2026-05-05T16:39:39.192Z</time></trkpt><trkpt lat="51.7707783" lon="-9.57027"><ele>186.66666666666666</ele><time>2026-05-05T16:39:40.192Z</time></trkpt><trkpt lat="51.770635" lon="-9.570115"><ele>189.0</ele><time>2026-05-05T16:39:41.191Z</time></trkpt><trkpt lat="51.7704917" lon="-9.5699567"><ele>189.0</ele><time>2026-05-05T16:39:42.192Z</time></trkpt><trkpt lat="51.7703517" lon="-9.5698017"><ele>189.0</ele><time>2026-05-05T16:39:43.191Z</time></trkpt><trkpt lat="51.7702183" lon="-9.56967"><ele>189.0</ele><time>2026-05-05T16:39:44.192Z</time></trkpt><trkpt lat="51.7700867" lon="-9.5695483"><ele>189.75</ele><time>2026-05-05T16:39:45.191Z</time></trkpt><trkpt lat="51.7699533" lon="-9.5694433"><ele>190.5</ele><time>2026-05-05T16:39:46.192Z</time></trkpt><trkpt lat="51.769815" lon="-9.56936"><ele>191.25</ele><time>2026-05-05T16:39:47.192Z</time></trkpt><trkpt lat="51.7696767" lon="-9.5692983"><ele>192.0</ele><time>2026-05-05T16:39:48.191Z</time></trkpt><trkpt lat="51.7695433" lon="-9.5692633"><ele>192.0</ele><time>2026-05-05T16:39:49.192Z</time></trkpt><trkpt lat="51.7694133" lon="-9.569255"><ele>192.0</ele><time>2026-05-05T16:39:50.191Z</time></trkpt><trkpt lat="51.7692867" lon="-9.5692733"><ele>192.0</ele><time>2026-05-05T16:39:51.191Z</time></trkpt><trkpt lat="51.76916" lon="-9.569325"><ele>192.0</ele><time>2026-05-05T16:39:52.192Z</time></trkpt><trkpt lat="51.76904" lon="-9.5694317"><ele>194.75</ele><time>2026-05-05T16:39:53.191Z</time></trkpt><trkpt lat="51.768915" lon="-9.5695333"><ele>197.5</ele><time>2026-05-05T16:39:54.192Z</time></trkpt><trkpt lat="51.768795" lon="-9.5696583"><ele>200.25</ele><time>2026-05-05T16:39:55.192Z</time></trkpt><trkpt lat="51.7686733" lon="-9.56979"><ele>203.0</ele><time>2026-05-05T16:39:56.192Z</time></trkpt><trkpt lat="51.7685483" lon="-9.569935"><ele>205.33333333333334</ele><time>2026-05-05T16:39:57.191Z</time></trkpt><trkpt lat="51.7684267" lon="-9.5700933"><ele>207.66666666666669</ele><time>2026-05-05T16:39:58.191Z</time></trkpt><trkpt lat="51.7682967" lon="-9.5702583"><ele>210.0</ele><time>2026-05-05T16:39:59.191Z</time></trkpt><trkpt lat="51.7681667" lon="-9.570395"><ele>210.0</ele><time>2026-05-05T16:40:00.191Z</time></trkpt><trkpt lat="51.76804" lon="-9.5705033"><ele>210.0</ele><time>2026-05-05T16:40:01.192Z</time></trkpt><trkpt lat="51.76791" lon="-9.5705783"><ele>210.0</ele><time>2026-05-05T16:40:02.192Z</time></trkpt><trkpt lat="51.7677783" lon="-9.5706367"><ele>210.0</ele><time>2026-05-05T16:40:03.192Z</time></trkpt><trkpt lat="51.7676417" lon="-9.570675"><ele>208.75</ele><time>2026-05-05T16:40:04.192Z</time></trkpt><trkpt lat="51.7675133" lon="-9.5707483"><ele>207.5</ele><time>2026-05-05T16:40:05.191Z</time></trkpt><trkpt lat="51.7673883" lon="-9.5708467"><ele>206.25</ele><time>2026-05-05T16:40:06.192Z</time></trkpt><trkpt lat="51.7672767" lon="-9.5709767"><ele>205.0</ele><time>2026-05-05T16:40:07.191Z</time></trkpt><trkpt lat="51.767175" lon="-9.571125"><ele>203.5</ele><time>2026-05-05T16:40:08.192Z</time></trkpt><trkpt lat="51.7670767" lon="-9.571285"><ele>202.0</ele><time>2026-05-05T16:40:09.191Z</time></trkpt><trkpt lat="51.7669867" lon="-9.5714583"><ele>200.5</ele><time>2026-05-05T16:40:10.191Z</time></trkpt><trkpt lat="51.7669067" lon="-9.571685"><ele>199.0</ele><time>2026-05-05T16:40:11.191Z</time></trkpt><trkpt lat="51.7668317" lon="-9.5719"><ele>202.33333333333331</ele><time>2026-05-05T16:40:12.192Z</time></trkpt><trkpt lat="51.766765" lon="-9.5721283"><ele>205.66666666666669</ele><time>2026-05-05T16:40:13.192Z</time></trkpt><trkpt lat="51.76673" lon="-9.5723817"><ele>209.0</ele><time>2026-05-05T16:40:14.191Z</time></trkpt><trkpt lat="51.7667067" lon="-9.5726317"><ele>210.33333333333334</ele><time>2026-05-05T16:40:15.191Z</time></trkpt><trkpt lat="51.7667" lon="-9.5728883"><ele>211.66666666666669</ele><time>2026-05-05T16:40:16.192Z</time></trkpt><trkpt lat="51.7667217" lon="-9.5731433"><ele>213.0</ele><time>2026-05-05T16:40:17.191Z</time></trkpt><trkpt lat="51.7667617" lon="-9.573385"><ele>213.0</ele><time>2026-05-05T16:40:18.192Z</time></trkpt><trkpt lat="51.766835" lon="-9.57361"><ele>213.0</ele><time>2026-05-05T16:40:19.191Z</time></trkpt><trkpt lat="51.7669433" lon="-9.5737933"><ele>213.0</ele><time>2026-05-05T16:40:20.192Z</time></trkpt><trkpt lat="51.7670733" lon="-9.5739967"><ele>215.0</ele><time>2026-05-05T16:40:21.191Z</time></trkpt><trkpt lat="51.7671983" lon="-9.5742233"><ele>217.0</ele><time>2026-05-05T16:40:22.192Z</time></trkpt><trkpt lat="51.7673067" lon="-9.5744583"><ele>219.0</ele><time>2026-05-05T16:40:23.192Z</time></trkpt><trkpt lat="51.7673883" lon="-9.57471"><ele>219.0</ele><time>2026-05-05T16:40:24.191Z</time></trkpt><trkpt lat="51.7674667" lon="-9.5749733"><ele>219.0</ele><time>2026-05-05T16:40:25.192Z</time></trkpt><trkpt lat="51.7675467" lon="-9.5752567"><ele>219.0</ele><time>2026-05-05T16:40:26.191Z</time></trkpt><trkpt lat="51.7676233" lon="-9.57556"><ele>222.0</ele><time>2026-05-05T16:40:27.192Z</time></trkpt><trkpt lat="51.7676983" lon="-9.5758617"><ele>225.0</ele><time>2026-05-05T16:40:28.192Z</time></trkpt><trkpt lat="51.7677733" lon="-9.57615"><ele>228.0</ele><time>2026-05-05T16:40:29.192Z</time></trkpt><trkpt lat="51.7678483" lon="-9.5764233"><ele>228.0</ele><time>2026-05-05T16:40:30.192Z</time></trkpt><trkpt lat="51.7679183" lon="-9.5766817"><ele>228.0</ele><time>2026-05-05T16:40:31.192Z</time></trkpt><trkpt lat="51.7679783" lon="-9.5769267"><ele>228.0</ele><time>2026-05-05T16:40:32.191Z</time></trkpt><trkpt lat="51.7680317" lon="-9.5771483"><ele>227.5</ele><time>2026-05-05T16:40:33.191Z</time></trkpt><trkpt lat="51.7680867" lon="-9.5773467"><ele>227.0</ele><time>2026-05-05T16:40:34.191Z</time></trkpt><trkpt lat="51.7681533" lon="-9.5775217"><ele>226.5</ele><time>2026-05-05T16:40:35.191Z</time></trkpt><trkpt lat="51.76825" lon="-9.5776867"><ele>226.0</ele><time>2026-05-05T16:40:36.192Z</time></trkpt><trkpt lat="51.7683583" lon="-9.5778517"><ele>225.0</ele><time>2026-05-05T16:40:37.192Z</time></trkpt><trkpt lat="51.768465" lon="-9.5780117"><ele>224.0</ele><time>2026-05-05T16:40:38.191Z</time></trkpt><trkpt lat="51.76859" lon="-9.57815"><ele>223.0</ele><time>2026-05-05T16:40:39.192Z</time></trkpt><trkpt lat="51.7687567" lon="-9.5781917"><ele>223.0</ele><time>2026-05-05T16:40:40.192Z</time></trkpt><trkpt lat="51.7689333" lon="-9.5782217"><ele>223.0</ele><time>2026-05-05T16:40:41.192Z</time></trkpt><trkpt lat="51.7691183" lon="-9.5782167"><ele>223.0</ele><time>2026-05-05T16:40:42.192Z</time></trkpt><trkpt lat="51.7692983" lon="-9.57818"><ele>224.66666666666666</ele><time>2026-05-05T16:40:43.191Z</time></trkpt><trkpt lat="51.769475" lon="-9.5781417"><ele>226.33333333333331</ele><time>2026-05-05T16:40:44.191Z</time></trkpt><trkpt lat="51.7696383" lon="-9.57811"><ele>228.0</ele><time>2026-05-05T16:40:45.192Z</time></trkpt><trkpt lat="51.7697933" lon="-9.578115"><ele>228.0</ele><time>2026-05-05T16:40:46.192Z</time></trkpt><trkpt lat="51.76994" lon="-9.5781533"><ele>228.0</ele><time>2026-05-05T16:40:47.192Z</time></trkpt><trkpt lat="51.7700633" lon="-9.5782317"><ele>228.0</ele><time>2026-05-05T16:40:48.192Z</time></trkpt><trkpt lat="51.7701517" lon="-9.57834"><ele>228.0</ele><time>2026-05-05T16:40:49.191Z</time></trkpt><trkpt lat="51.770215" lon="-9.5784767"><ele>230.0</ele><time>2026-05-05T16:40:50.192Z</time></trkpt><trkpt lat="51.7702617" lon="-9.57864"><ele>232.0</ele><time>2026-05-05T16:40:51.191Z</time></trkpt><trkpt lat="51.7702983" lon="-9.5788233"><ele>234.0</ele><time>2026-05-05T16:40:52.192Z</time></trkpt><trkpt lat="51.7703133" lon="-9.5790117"><ele>236.0</ele><time>2026-05-05T16:40:53.192Z</time></trkpt><trkpt lat="51.7703067" lon="-9.5792117"><ele>234.75</ele><time>2026-05-05T16:40:54.192Z</time></trkpt><trkpt lat="51.7702783" lon="-9.5794233"><ele>233.5</ele><time>2026-05-05T16:40:55.191Z</time></trkpt><trkpt lat="51.77024" lon="-9.5796383"><ele>232.25</ele><time>2026-05-05T16:40:56.192Z</time></trkpt><trkpt lat="51.7702" lon="-9.5798633"><ele>231.0</ele><time>2026-05-05T16:40:57.192Z</time></trkpt><trkpt lat="51.7701583" lon="-9.5800867"><ele>231.0</ele><time>2026-05-05T16:40:58.192Z</time></trkpt><trkpt lat="51.770115" lon="-9.5802967"><ele>231.0</ele><time>2026-05-05T16:40:59.191Z</time></trkpt><trkpt lat="51.7700683" lon="-9.5804933"><ele>231.0</ele><time>2026-05-05T16:41:00.192Z</time></trkpt><trkpt lat="51.770025" lon="-9.5806783"><ele>231.0</ele><time>2026-05-05T16:41:01.192Z</time></trkpt><trkpt lat="51.7699933" lon="-9.5808683"><ele>231.0</ele><time>2026-05-05T16:41:02.191Z</time></trkpt><trkpt lat="51.7699733" lon="-9.5810567"><ele>231.00000000000003</ele><time>2026-05-05T16:41:03.192Z</time></trkpt><trkpt lat="51.769975" lon="-9.58123"><ele>231.00000000000003</ele><time>2026-05-05T16:41:04.191Z</time></trkpt><trkpt lat="51.7699917" lon="-9.58139"><ele>231.0</ele><time>2026-05-05T16:41:05.191Z</time></trkpt><trkpt lat="51.7700283" lon="-9.5815433"><ele>231.0</ele><time>2026-05-05T16:41:06.192Z</time></trkpt><trkpt lat="51.7700717" lon="-9.5817083"><ele>231.0</ele><time>2026-05-05T16:41:07.191Z</time></trkpt><trkpt lat="51.7701183" lon="-9.581875"><ele>231.0</ele><time>2026-05-05T16:41:08.192Z</time></trkpt><trkpt lat="51.770175" lon="-9.5820467"><ele>231.0</ele><time>2026-05-05T16:41:09.192Z</time></trkpt><trkpt lat="51.77025" lon="-9.5822433"><ele>231.0</ele><time>2026-05-05T16:41:10.192Z</time></trkpt><trkpt lat="51.7703367" lon="-9.5824333"><ele>235.66666666666669</ele><time>2026-05-05T16:41:11.191Z</time></trkpt><trkpt lat="51.7704333" lon="-9.5826317"><ele>240.33333333333334</ele><time>2026-05-05T16:41:12.191Z</time></trkpt><trkpt lat="51.77053" lon="-9.5828317"><ele>245.0</ele><time>2026-05-05T16:41:13.192Z</time></trkpt><trkpt lat="51.7706183" lon="-9.5830217"><ele>245.0</ele><time>2026-05-05T16:41:14.192Z</time></trkpt><trkpt lat="51.770705" lon="-9.5832133"><ele>245.0</ele><time>2026-05-05T16:41:15.192Z</time></trkpt><trkpt lat="51.770785" lon="-9.583415"><ele>245.0</ele><time>2026-05-05T16:41:16.192Z</time></trkpt><trkpt lat="51.77086" lon="-9.58361"><ele>245.0</ele><time>2026-05-05T16:41:17.191Z</time></trkpt><trkpt lat="51.7709433" lon="-9.5838067"><ele>247.25</ele><time>2026-05-05T16:41:18.191Z</time></trkpt><trkpt lat="51.771015" lon="-9.5839883"><ele>249.5</ele><time>2026-05-05T16:41:19.192Z</time></trkpt><trkpt lat="51.7710833" lon="-9.5841633"><ele>251.75</ele><time>2026-05-05T16:41:20.191Z</time></trkpt><trkpt lat="51.7711517" lon="-9.5843167"><ele>254.0</ele><time>2026-05-05T16:41:21.192Z</time></trkpt><trkpt lat="51.77121" lon="-9.58446"><ele>252.16666666666669</ele><time>2026-05-05T16:41:22.192Z</time></trkpt><trkpt lat="51.771265" lon="-9.5845567"><ele>250.33333333333334</ele><time>2026-05-05T16:41:23.192Z</time></trkpt><trkpt lat="51.7713233" lon="-9.5846417"><ele>248.5</ele><time>2026-05-05T16:41:24.191Z</time></trkpt><trkpt lat="51.77139" lon="-9.5847117"><ele>246.66666666666669</ele><time>2026-05-05T16:41:25.192Z</time></trkpt><trkpt lat="51.7714667" lon="-9.5847767"><ele>244.83333333333334</ele><time>2026-05-05T16:41:26.191Z</time></trkpt><trkpt lat="51.7715483" lon="-9.5848233"><ele>243.0</ele><time>2026-05-05T16:41:27.192Z</time></trkpt><trkpt lat="51.77165" lon="-9.5848483"><ele>243.0</ele><time>2026-05-05T16:41:28.192Z</time></trkpt><trkpt lat="51.7717483" lon="-9.5848517"><ele>243.0</ele><time>2026-05-05T16:41:29.191Z</time></trkpt><trkpt lat="51.7718483" lon="-9.5848483"><ele>243.0</ele><time>2026-05-05T16:41:30.191Z</time></trkpt><trkpt lat="51.771945" lon="-9.58486"><ele>243.0</ele><time>2026-05-05T16:41:31.192Z</time></trkpt><trkpt lat="51.772035" lon="-9.5848867"><ele>243.0</ele><time>2026-05-05T16:41:32.192Z</time></trkpt><trkpt lat="51.7721167" lon="-9.5849383"><ele>243.8</ele><time>2026-05-05T16:41:33.191Z</time></trkpt><trkpt lat="51.7721917" lon="-9.58501"><ele>244.60000000000002</ele><time>2026-05-05T16:41:34.192Z</time></trkpt><trkpt lat="51.7722583" lon="-9.5851033"><ele>245.39999999999998</ele><time>2026-05-05T16:41:35.192Z</time></trkpt><trkpt lat="51.7723117" lon="-9.5852417"><ele>246.2</ele><time>2026-05-05T16:41:36.191Z</time></trkpt><trkpt lat="51.7723417" lon="-9.5854167"><ele>247.0</ele><time>2026-05-05T16:41:37.191Z</time></trkpt><trkpt lat="51.7723883" lon="-9.5855617"><ele>247.0</ele><time>2026-05-05T16:41:38.191Z</time></trkpt><trkpt lat="51.772455" lon="-9.5856767"><ele>247.0</ele><time>2026-05-05T16:41:39.191Z</time></trkpt><trkpt lat="51.772525" lon="-9.5857817"><ele>247.0</ele><time>2026-05-05T16:41:40.192Z</time></trkpt><trkpt lat="51.7726067" lon="-9.5858617"><ele>247.0</ele><time>2026-05-05T16:41:41.192Z</time></trkpt><trkpt lat="51.7727133" lon="-9.5859283"><ele>247.0</ele><time>2026-05-05T16:41:42.192Z</time></trkpt><trkpt lat="51.772845" lon="-9.5859817"><ele>248.0</ele><time>2026-05-05T16:41:43.191Z</time></trkpt><trkpt lat="51.7729833" lon="-9.58606"><ele>249.0</ele><time>2026-05-05T16:41:44.192Z</time></trkpt><trkpt lat="51.77312" lon="-9.5861567"><ele>250.0</ele><time>2026-05-05T16:41:45.192Z</time></trkpt><trkpt lat="51.7732467" lon="-9.58629"><ele>251.0</ele><time>2026-05-05T16:41:46.191Z</time></trkpt><trkpt lat="51.773355" lon="-9.5864783"><ele>251.0</ele><time>2026-05-05T16:41:47.192Z</time></trkpt><trkpt lat="51.7734533" lon="-9.5866817"><ele>251.0</ele><time>2026-05-05T16:41:48.192Z</time></trkpt><trkpt lat="51.7735417" lon="-9.5869067"><ele>251.0</ele><time>2026-05-05T16:41:49.192Z</time></trkpt><trkpt lat="51.773605" lon="-9.5871433"><ele>256.0</ele><time>2026-05-05T16:41:50.191Z</time></trkpt><trkpt lat="51.7736517" lon="-9.5874117"><ele>261.0</ele><time>2026-05-05T16:41:51.192Z</time></trkpt><trkpt lat="51.7736917" lon="-9.5876917"><ele>266.0</ele><time>2026-05-05T16:41:52.192Z</time></trkpt><trkpt lat="51.7737067" lon="-9.587995"><ele>266.0</ele><time>2026-05-05T16:41:53.192Z</time></trkpt><trkpt lat="51.7737067" lon="-9.5882717"><ele>266.0</ele><time>2026-05-05T16:41:54.192Z</time></trkpt><trkpt lat="51.7737083" lon="-9.58853"><ele>266.0</ele><time>2026-05-05T16:41:55.192Z</time></trkpt><trkpt lat="51.7737217" lon="-9.5887817"><ele>265.6666666666667</ele><time>2026-05-05T16:41:56.192Z</time></trkpt><trkpt lat="51.7737567" lon="-9.58903"><ele>265.3333333333333</ele><time>2026-05-05T16:41:57.192Z</time></trkpt><trkpt lat="51.773845" lon="-9.589265"><ele>265.0</ele><time>2026-05-05T16:41:58.192Z</time></trkpt><trkpt lat="51.7739367" lon="-9.5894833"><ele>262.66666666666663</ele><time>2026-05-05T16:41:59.192Z</time></trkpt><trkpt lat="51.7740383" lon="-9.5896717"><ele>260.3333333333333</ele><time>2026-05-05T16:42:00.192Z</time></trkpt><trkpt lat="51.7741517" lon="-9.58984"><ele>258.0</ele><time>2026-05-05T16:42:01.192Z</time></trkpt><trkpt lat="51.774295" lon="-9.5899867"><ele>262.0</ele><time>2026-05-05T16:42:02.191Z</time></trkpt><trkpt lat="51.77445" lon="-9.5900917"><ele>266.0</ele><time>2026-05-05T16:42:03.192Z</time></trkpt><trkpt lat="51.7746" lon="-9.5901633"><ele>270.0</ele><time>2026-05-05T16:42:04.191Z</time></trkpt><trkpt lat="51.7747483" lon="-9.59019"><ele>270.0</ele><time>2026-05-05T16:42:05.192Z</time></trkpt><trkpt lat="51.7749083" lon="-9.59019"><ele>270.0</ele><time>2026-05-05T16:42:06.192Z</time></trkpt><trkpt lat="51.7750733" lon="-9.5901417"><ele>270.0</ele><time>2026-05-05T16:42:07.192Z</time></trkpt><trkpt lat="51.7752367" lon="-9.590055"><ele>268.3333333333333</ele><time>2026-05-05T16:42:08.191Z</time></trkpt><trkpt lat="51.775395" lon="-9.589945"><ele>266.66666666666663</ele><time>2026-05-05T16:42:09.191Z</time></trkpt><trkpt lat="51.7755517" lon="-9.589815"><ele>265.0</ele><time>2026-05-05T16:42:10.192Z</time></trkpt><trkpt lat="51.7757117" lon="-9.58966"><ele>265.0</ele><time>2026-05-05T16:42:11.191Z</time></trkpt><trkpt lat="51.775885" lon="-9.5895117"><ele>265.0</ele><time>2026-05-05T16:42:12.192Z</time></trkpt><trkpt lat="51.7760583" lon="-9.5893817"><ele>265.0</ele><time>2026-05-05T16:42:13.192Z</time></trkpt><trkpt lat="51.7762417" lon="-9.5892617"><ele>267.66666666666663</ele><time>2026-05-05T16:42:14.192Z</time></trkpt><trkpt lat="51.776425" lon="-9.58915"><ele>270.3333333333333</ele><time>2026-05-05T16:42:15.191Z</time></trkpt><trkpt lat="51.7766033" lon="-9.58904"><ele>273.0</ele><time>2026-05-05T16:42:16.192Z</time></trkpt><trkpt lat="51.7767883" lon="-9.58895"><ele>272.6666666666667</ele><time>2026-05-05T16:42:17.192Z</time></trkpt><trkpt lat="51.7769667" lon="-9.5888633"><ele>272.33333333333337</ele><time>2026-05-05T16:42:18.191Z</time></trkpt><trkpt lat="51.77715" lon="-9.58879"><ele>272.0</ele><time>2026-05-05T16:42:19.191Z</time></trkpt><trkpt lat="51.77733" lon="-9.5887117"><ele>274.6666666666667</ele><time>2026-05-05T16:42:20.191Z</time></trkpt><trkpt lat="51.7775133" lon="-9.5886467"><ele>277.3333333333333</ele><time>2026-05-05T16:42:21.191Z</time></trkpt><trkpt lat="51.77769" lon="-9.588575"><ele>280.0</ele><time>2026-05-05T16:42:22.191Z</time></trkpt><trkpt lat="51.7778617" lon="-9.5884917"><ele>280.0</ele><time>2026-05-05T16:42:23.192Z</time></trkpt><trkpt lat="51.7780333" lon="-9.5884117"><ele>280.0</ele><time>2026-05-05T16:42:24.192Z</time></trkpt><trkpt lat="51.7781967" lon="-9.5883117"><ele>280.0</ele><time>2026-05-05T16:42:25.192Z</time></trkpt><trkpt lat="51.778355" lon="-9.58821"><ele>280.0</ele><time>2026-05-05T16:42:26.192Z</time></trkpt><trkpt lat="51.7785117" lon="-9.5881017"><ele>280.0</ele><time>2026-05-05T16:42:27.191Z</time></trkpt><trkpt lat="51.7786633" lon="-9.5879767"><ele>280.0</ele><time>2026-05-05T16:42:28.191Z</time></trkpt><trkpt lat="51.7788117" lon="-9.5878467"><ele>281.75</ele><time>2026-05-05T16:42:29.192Z</time></trkpt><trkpt lat="51.77895" lon="-9.5877217"><ele>283.5</ele><time>2026-05-05T16:42:30.192Z</time></trkpt><trkpt lat="51.7790767" lon="-9.5876017"><ele>285.25</ele><time>2026-05-05T16:42:31.192Z</time></trkpt><trkpt lat="51.7791867" lon="-9.58749"><ele>287.0</ele><time>2026-05-05T16:42:32.191Z</time></trkpt><trkpt lat="51.7792967" lon="-9.5873483"><ele>287.5</ele><time>2026-05-05T16:42:33.192Z</time></trkpt><trkpt lat="51.7794067" lon="-9.5872117"><ele>288.0</ele><time>2026-05-05T16:42:34.191Z</time></trkpt><trkpt lat="51.7795217" lon="-9.5870867"><ele>288.5</ele><time>2026-05-05T16:42:35.192Z</time></trkpt><trkpt lat="51.7796417" lon="-9.5869783"><ele>289.0</ele><time>2026-05-05T16:42:36.192Z</time></trkpt><trkpt lat="51.7797833" lon="-9.5868733"><ele>289.0</ele><time>2026-05-05T16:42:37.191Z</time></trkpt><trkpt lat="51.7799333" lon="-9.5867783"><ele>289.0</ele><time>2026-05-05T16:42:38.192Z</time></trkpt><trkpt lat="51.780095" lon="-9.58669"><ele>289.0</ele><time>2026-05-05T16:42:39.192Z</time></trkpt><trkpt lat="51.78027" lon="-9.5866117"><ele>289.66666666666663</ele><time>2026-05-05T16:42:40.192Z</time></trkpt><trkpt lat="51.78046" lon="-9.58654"><ele>290.3333333333333</ele><time>2026-05-05T16:42:41.191Z</time></trkpt><trkpt lat="51.7806617" lon="-9.586485"><ele>291.0</ele><time>2026-05-05T16:42:42.191Z</time></trkpt><trkpt lat="51.7808667" lon="-9.5864417"><ele>292.0</ele><time>2026-05-05T16:42:43.192Z</time></trkpt><trkpt lat="51.7810717" lon="-9.5864183"><ele>293.0</ele><time>2026-05-05T16:42:44.192Z</time></trkpt><trkpt lat="51.7812783" lon="-9.5864133"><ele>294.0</ele><time>2026-05-05T16:42:45.192Z</time></trkpt><trkpt lat="51.7814883" lon="-9.586425"><ele>294.0</ele><time>2026-05-05T16:42:46.192Z</time></trkpt><trkpt lat="51.7816967" lon="-9.5864467"><ele>294.0</ele><time>2026-05-05T16:42:47.191Z</time></trkpt><trkpt lat="51.7819033" lon="-9.5864817"><ele>294.0</ele><time>2026-05-05T16:42:48.192Z</time></trkpt><trkpt lat="51.782105" lon="-9.5865167"><ele>295.6666666666667</ele><time>2026-05-05T16:42:49.191Z</time></trkpt><trkpt lat="51.7823" lon="-9.5865583"><ele>297.33333333333337</ele><time>2026-05-05T16:42:50.191Z</time></trkpt><trkpt lat="51.7824933" lon="-9.5866083"><ele>299.0</ele><time>2026-05-05T16:42:51.191Z</time></trkpt><trkpt lat="51.7826983" lon="-9.5866767"><ele>301.33333333333337</ele><time>2026-05-05T16:42:52.192Z</time></trkpt><trkpt lat="51.782875" lon="-9.5867417"><ele>303.6666666666667</ele><time>2026-05-05T16:42:53.192Z</time></trkpt><trkpt lat="51.7830433" lon="-9.5868233"><ele>306.0</ele><time>2026-05-05T16:42:54.192Z</time></trkpt><trkpt lat="51.783195" lon="-9.5869017"><ele>306.0</ele><time>2026-05-05T16:42:55.192Z</time></trkpt><trkpt lat="51.7833317" lon="-9.5869733"><ele>306.0</ele><time>2026-05-05T16:42:56.192Z</time></trkpt><trkpt lat="51.7834517" lon="-9.5870283"><ele>306.0</ele><time>2026-05-05T16:42:57.192Z</time></trkpt><trkpt lat="51.7835483" lon="-9.58707"><ele>306.0</ele><time>2026-05-05T16:42:58.192Z</time></trkpt><trkpt lat="51.78362" lon="-9.5871033"><ele>306.0</ele><time>2026-05-05T16:42:59.191Z</time></trkpt><trkpt lat="51.7836833" lon="-9.5871067"><ele>308.6</ele><time>2026-05-05T16:43:01.191Z</time></trkpt><trkpt lat="51.7837683" lon="-9.5871217"><ele>311.20000000000005</ele><time>2026-05-05T16:43:03.191Z</time></trkpt><trkpt lat="51.78387" lon="-9.5870983"><ele>313.79999999999995</ele><time>2026-05-05T16:43:05.192Z</time></trkpt><trkpt lat="51.7839533" lon="-9.5870983"><ele>316.4</ele><time>2026-05-05T16:43:06.192Z</time></trkpt><trkpt lat="51.7840483" lon="-9.5871033"><ele>319.0</ele><time>2026-05-05T16:43:07.192Z</time></trkpt><trkpt lat="51.7841317" lon="-9.587085"><ele>319.0</ele><time>2026-05-05T16:43:08.192Z</time></trkpt><trkpt lat="51.7842067" lon="-9.5870717"><ele>319.0</ele><time>2026-05-05T16:43:09.192Z</time></trkpt><trkpt lat="51.784275" lon="-9.58705"><ele>319.0</ele><time>2026-05-05T16:43:10.192Z</time></trkpt><trkpt lat="51.7843517" lon="-9.58704"><ele>319.0</ele><time>2026-05-05T16:43:11.192Z</time></trkpt><trkpt lat="51.786235" lon="-9.5877283"><ele>312.25</ele><time>2026-05-05T16:43:27.208Z</time></trkpt><trkpt lat="51.7863467" lon="-9.58786"><ele>305.5</ele><time>2026-05-05T16:43:28.209Z</time></trkpt><trkpt lat="51.7864117" lon="-9.5880283"><ele>298.75</ele><time>2026-05-05T16:43:29.209Z</time></trkpt><trkpt lat="51.7865033" lon="-9.588235"><ele>292.0</ele><time>2026-05-05T16:43:30.209Z</time></trkpt><trkpt lat="51.7865733" lon="-9.588505"><ele>293.3333333333333</ele><time>2026-05-05T16:43:31.209Z</time></trkpt><trkpt lat="51.78667" lon="-9.5887383"><ele>294.6666666666667</ele><time>2026-05-05T16:43:32.208Z</time></trkpt><trkpt lat="51.7867" lon="-9.58907"><ele>296.0</ele><time>2026-05-05T16:43:33.208Z</time></trkpt><trkpt lat="51.7867333" lon="-9.5893583"><ele>297.6666666666667</ele><time>2026-05-05T16:43:34.209Z</time></trkpt><trkpt lat="51.7867183" lon="-9.5896267"><ele>299.3333333333333</ele><time>2026-05-05T16:43:35.209Z</time></trkpt><trkpt lat="51.786715" lon="-9.5899167"><ele>301.0</ele><time>2026-05-05T16:43:36.209Z</time></trkpt><trkpt lat="51.78671" lon="-9.5902083"><ele>301.66666666666663</ele><time>2026-05-05T16:43:37.208Z</time></trkpt><trkpt lat="51.7867233" lon="-9.5904867"><ele>302.3333333333333</ele><time>2026-05-05T16:43:38.209Z</time></trkpt><trkpt lat="51.78673" lon="-9.5907467"><ele>303.0</ele><time>2026-05-05T16:43:39.208Z</time></trkpt><trkpt lat="51.78672" lon="-9.5910283"><ele>303.6666666666667</ele><time>2026-05-05T16:43:40.209Z</time></trkpt><trkpt lat="51.78672" lon="-9.5912967"><ele>304.33333333333337</ele><time>2026-05-05T16:43:41.209Z</time></trkpt><trkpt lat="51.7867283" lon="-9.591555"><ele>305.0</ele><time>2026-05-05T16:43:42.209Z</time></trkpt><trkpt lat="51.7867467" lon="-9.5918133"><ele>308.0</ele><time>2026-05-05T16:43:43.209Z</time></trkpt><trkpt lat="51.7868" lon="-9.59206"><ele>311.0</ele><time>2026-05-05T16:43:44.208Z</time></trkpt><trkpt lat="51.7868717" lon="-9.5922867"><ele>314.0</ele><time>2026-05-05T16:43:45.209Z</time></trkpt><trkpt lat="51.7869683" lon="-9.5924917"><ele>312.0</ele><time>2026-05-05T16:43:46.209Z</time></trkpt><trkpt lat="51.7870617" lon="-9.5926933"><ele>310.0</ele><time>2026-05-05T16:43:47.209Z</time></trkpt><trkpt lat="51.7871783" lon="-9.5928583"><ele>308.0</ele><time>2026-05-05T16:43:48.209Z</time></trkpt><trkpt lat="51.787295" lon="-9.593"><ele>308.0</ele><time>2026-05-05T16:43:49.209Z</time></trkpt><trkpt lat="51.7874183" lon="-9.5931117"><ele>308.0</ele><time>2026-05-05T16:43:50.209Z</time></trkpt><trkpt lat="51.7875717" lon="-9.59318"><ele>308.0</ele><time>2026-05-05T16:43:51.209Z</time></trkpt><trkpt lat="51.78777" lon="-9.5932217"><ele>304.5</ele><time>2026-05-05T16:43:52.209Z</time></trkpt><trkpt lat="51.788" lon="-9.59324"><ele>301.0</ele><time>2026-05-05T16:43:53.208Z</time></trkpt><trkpt lat="51.7882483" lon="-9.59325"><ele>301.0</ele><time>2026-05-05T16:43:54.209Z</time></trkpt><trkpt lat="51.788475" lon="-9.5933017"><ele>301.0</ele><time>2026-05-05T16:43:55.209Z</time></trkpt><trkpt lat="51.788725" lon="-9.5932917"><ele>296.0</ele><time>2026-05-05T16:43:56.209Z</time></trkpt><trkpt lat="51.7889317" lon="-9.5933517"><ele>291.0</ele><time>2026-05-05T16:43:57.208Z</time></trkpt><trkpt lat="51.789195" lon="-9.5932783"><ele>290.0</ele><time>2026-05-05T16:43:58.208Z</time></trkpt><trkpt lat="51.7894133" lon="-9.5932617"><ele>289.0</ele><time>2026-05-05T16:43:59.209Z</time></trkpt><trkpt lat="51.7896217" lon="-9.5932933"><ele>288.0</ele><time>2026-05-05T16:44:00.208Z</time></trkpt><trkpt lat="51.7898367" lon="-9.5933167"><ele>288.0</ele><time>2026-05-05T16:44:01.208Z</time></trkpt><trkpt lat="51.7900383" lon="-9.5933033"><ele>288.0</ele><time>2026-05-05T16:44:02.209Z</time></trkpt><trkpt lat="51.7902517" lon="-9.593265"><ele>288.0</ele><time>2026-05-05T16:44:03.208Z</time></trkpt><trkpt lat="51.7904483" lon="-9.59319"><ele>288.6666666666667</ele><time>2026-05-05T16:44:04.208Z</time></trkpt><trkpt lat="51.7906183" lon="-9.59306"><ele>289.33333333333337</ele><time>2026-05-05T16:44:05.208Z</time></trkpt><trkpt lat="51.7908017" lon="-9.5929317"><ele>290.0</ele><time>2026-05-05T16:44:06.209Z</time></trkpt><trkpt lat="51.7909783" lon="-9.5928"><ele>284.6666666666667</ele><time>2026-05-05T16:44:07.209Z</time></trkpt><trkpt lat="51.7911617" lon="-9.5926683"><ele>279.3333333333333</ele><time>2026-05-05T16:44:08.208Z</time></trkpt><trkpt lat="51.7913483" lon="-9.592535"><ele>274.0</ele><time>2026-05-05T16:44:09.209Z</time></trkpt><trkpt lat="51.791535" lon="-9.5923983"><ele>274.0</ele><time>2026-05-05T16:44:10.208Z</time></trkpt><trkpt lat="51.7917167" lon="-9.5922517"><ele>274.0</ele><time>2026-05-05T16:44:11.209Z</time></trkpt><trkpt lat="51.7918983" lon="-9.59211"><ele>274.0</ele><time>2026-05-05T16:44:12.209Z</time></trkpt><trkpt lat="51.7920617" lon="-9.5919533"><ele>270.3333333333333</ele><time>2026-05-05T16:44:13.208Z</time></trkpt><trkpt lat="51.7922" lon="-9.5917817"><ele>266.6666666666667</ele><time>2026-05-05T16:44:14.209Z</time></trkpt><trkpt lat="51.792365" lon="-9.5916317"><ele>263.0</ele><time>2026-05-05T16:44:15.209Z</time></trkpt><trkpt lat="51.792525" lon="-9.5914867"><ele>264.0</ele><time>2026-05-05T16:44:16.209Z</time></trkpt><trkpt lat="51.7926733" lon="-9.5913183"><ele>265.0</ele><time>2026-05-05T16:44:17.209Z</time></trkpt><trkpt lat="51.792815" lon="-9.59113"><ele>266.0</ele><time>2026-05-05T16:44:18.209Z</time></trkpt><trkpt lat="51.7929483" lon="-9.5909417"><ele>263.33333333333337</ele><time>2026-05-05T16:44:19.209Z</time></trkpt><trkpt lat="51.79308" lon="-9.59077"><ele>260.6666666666667</ele><time>2026-05-05T16:44:20.208Z</time></trkpt><trkpt lat="51.7932133" lon="-9.5906217"><ele>258.0</ele><time>2026-05-05T16:44:21.209Z</time></trkpt><trkpt lat="51.7933567" lon="-9.5904983"><ele>256.0</ele><time>2026-05-05T16:44:22.209Z</time></trkpt><trkpt lat="51.7935133" lon="-9.5903983"><ele>254.0</ele><time>2026-05-05T16:44:23.208Z</time></trkpt><trkpt lat="51.7936833" lon="-9.59033"><ele>252.0</ele><time>2026-05-05T16:44:24.208Z</time></trkpt><trkpt lat="51.7938583" lon="-9.590275"><ele>251.0</ele><time>2026-05-05T16:44:25.209Z</time></trkpt><trkpt lat="51.7940433" lon="-9.5902333"><ele>250.0</ele><time>2026-05-05T16:44:26.208Z</time></trkpt><trkpt lat="51.79422" lon="-9.5901633"><ele>249.0</ele><time>2026-05-05T16:44:27.209Z</time></trkpt><trkpt lat="51.7943917" lon="-9.5900767"><ele>246.66666666666669</ele><time>2026-05-05T16:44:28.209Z</time></trkpt><trkpt lat="51.7945533" lon="-9.58999"><ele>244.33333333333334</ele><time>2026-05-05T16:44:29.208Z</time></trkpt><trkpt lat="51.7947233" lon="-9.5899517"><ele>242.0</ele><time>2026-05-05T16:44:30.208Z</time></trkpt><trkpt lat="51.79486" lon="-9.5898367"><ele>242.0</ele><time>2026-05-05T16:44:31.208Z</time></trkpt><trkpt lat="51.7949833" lon="-9.5896867"><ele>242.0</ele><time>2026-05-05T16:44:32.208Z</time></trkpt><trkpt lat="51.7950917" lon="-9.5895033"><ele>242.0</ele><time>2026-05-05T16:44:33.209Z</time></trkpt><trkpt lat="51.7951883" lon="-9.5892967"><ele>242.0</ele><time>2026-05-05T16:44:34.209Z</time></trkpt><trkpt lat="51.7952717" lon="-9.58906"><ele>242.0</ele><time>2026-05-05T16:44:35.209Z</time></trkpt><trkpt lat="51.7953367" lon="-9.588785"><ele>242.0</ele><time>2026-05-05T16:44:36.209Z</time></trkpt><trkpt lat="51.79539" lon="-9.5884967"><ele>242.0</ele><time>2026-05-05T16:44:37.208Z</time></trkpt><trkpt lat="51.7954283" lon="-9.588205"><ele>242.0</ele><time>2026-05-05T16:44:38.208Z</time></trkpt><trkpt lat="51.795455" lon="-9.587925"><ele>242.0</ele><time>2026-05-05T16:44:39.209Z</time></trkpt><trkpt lat="51.7954683" lon="-9.5876467"><ele>243.0</ele><time>2026-05-05T16:44:40.209Z</time></trkpt><trkpt lat="51.79547" lon="-9.5873667"><ele>244.0</ele><time>2026-05-05T16:44:41.209Z</time></trkpt><trkpt lat="51.7954717" lon="-9.5871117"><ele>245.0</ele><time>2026-05-05T16:44:42.209Z</time></trkpt><trkpt lat="51.7954833" lon="-9.586865"><ele>243.5</ele><time>2026-05-05T16:44:43.209Z</time></trkpt><trkpt lat="51.7955167" lon="-9.58664"><ele>242.0</ele><time>2026-05-05T16:44:44.209Z</time></trkpt><trkpt lat="51.7955817" lon="-9.58644"><ele>240.5</ele><time>2026-05-05T16:44:45.209Z</time></trkpt><trkpt lat="51.795675" lon="-9.5862617"><ele>239.0</ele><time>2026-05-05T16:44:46.209Z</time></trkpt><trkpt lat="51.795795" lon="-9.5861233"><ele>236.66666666666669</ele><time>2026-05-05T16:44:47.208Z</time></trkpt><trkpt lat="51.7959233" lon="-9.5860017"><ele>234.33333333333331</ele><time>2026-05-05T16:44:48.209Z</time></trkpt><trkpt lat="51.796065" lon="-9.585915"><ele>232.0</ele><time>2026-05-05T16:44:49.209Z</time></trkpt><trkpt lat="51.79621" lon="-9.5858567"><ele>230.5</ele><time>2026-05-05T16:44:50.209Z</time></trkpt><trkpt lat="51.79632" lon="-9.58581"><ele>229.0</ele><time>2026-05-05T16:44:51.209Z</time></trkpt><trkpt lat="51.7964483" lon="-9.585775"><ele>227.5</ele><time>2026-05-05T16:44:52.209Z</time></trkpt><trkpt lat="51.796565" lon="-9.585725"><ele>226.0</ele><time>2026-05-05T16:44:53.208Z</time></trkpt><trkpt lat="51.7966683" lon="-9.585665"><ele>226.0</ele><time>2026-05-05T16:44:54.209Z</time></trkpt><trkpt lat="51.7967567" lon="-9.5855633"><ele>226.00000000000003</ele><time>2026-05-05T16:44:55.209Z</time></trkpt><trkpt lat="51.7968383" lon="-9.5854567"><ele>226.00000000000003</ele><time>2026-05-05T16:44:56.209Z</time></trkpt><trkpt lat="51.7968983" lon="-9.585325"><ele>226.0</ele><time>2026-05-05T16:44:57.208Z</time></trkpt><trkpt lat="51.7969417" lon="-9.5851867"><ele>226.0</ele><time>2026-05-05T16:44:58.209Z</time></trkpt><trkpt lat="51.7969183" lon="-9.5850117"><ele>226.0</ele><time>2026-05-05T16:44:59.209Z</time></trkpt><trkpt lat="51.79681" lon="-9.58478"><ele>226.0</ele><time>2026-05-05T16:45:00.209Z</time></trkpt><trkpt lat="51.7967117" lon="-9.5845517"><ele>226.0</ele><time>2026-05-05T16:45:01.209Z</time></trkpt><trkpt lat="51.7965933" lon="-9.58428"><ele>226.0</ele><time>2026-05-05T16:45:02.209Z</time></trkpt><trkpt lat="51.796485" lon="-9.584015"><ele>226.0</ele><time>2026-05-05T16:45:03.209Z</time></trkpt><trkpt lat="51.796405" lon="-9.5837683"><ele>226.0</ele><time>2026-05-05T16:45:04.209Z</time></trkpt><trkpt lat="51.7963417" lon="-9.5834883"><ele>226.0</ele><time>2026-05-05T16:45:05.209Z</time></trkpt><trkpt lat="51.7962583" lon="-9.583085"><ele>226.0</ele><time>2026-05-05T16:45:06.209Z</time></trkpt><trkpt lat="51.79628" lon="-9.5828133"><ele>226.0</ele><time>2026-05-05T16:45:07.208Z</time></trkpt><trkpt lat="51.7963183" lon="-9.58255"><ele>225.0</ele><time>2026-05-05T16:45:08.208Z</time></trkpt><trkpt lat="51.7963783" lon="-9.5823033"><ele>224.0</ele><time>2026-05-05T16:45:09.209Z</time></trkpt><trkpt lat="51.796465" lon="-9.5820283"><ele>223.0</ele><time>2026-05-05T16:45:10.209Z</time></trkpt><trkpt lat="51.7965633" lon="-9.5817417"><ele>221.0</ele><time>2026-05-05T16:45:11.208Z</time></trkpt><trkpt lat="51.7966733" lon="-9.5814617"><ele>219.0</ele><time>2026-05-05T16:45:12.209Z</time></trkpt><trkpt lat="51.7968283" lon="-9.5811733"><ele>217.0</ele><time>2026-05-05T16:45:13.208Z</time></trkpt><trkpt lat="51.7969517" lon="-9.5808883"><ele>216.66666666666666</ele><time>2026-05-05T16:45:14.208Z</time></trkpt><trkpt lat="51.79709" lon="-9.580615"><ele>216.33333333333331</ele><time>2026-05-05T16:45:15.208Z</time></trkpt><trkpt lat="51.7972333" lon="-9.58036"><ele>216.0</ele><time>2026-05-05T16:45:16.208Z</time></trkpt><trkpt lat="51.7974217" lon="-9.58015"><ele>214.5</ele><time>2026-05-05T16:45:17.209Z</time></trkpt><trkpt lat="51.79759" lon="-9.5799067"><ele>213.0</ele><time>2026-05-05T16:45:18.209Z</time></trkpt><trkpt lat="51.7977667" lon="-9.57967"><ele>210.0</ele><time>2026-05-05T16:45:19.209Z</time></trkpt><trkpt lat="51.797935" lon="-9.5794267"><ele>207.0</ele><time>2026-05-05T16:45:20.209Z</time></trkpt><trkpt lat="51.7981083" lon="-9.57919"><ele>207.0</ele><time>2026-05-05T16:45:21.208Z</time></trkpt><trkpt lat="51.79828" lon="-9.5789567"><ele>207.0</ele><time>2026-05-05T16:45:22.209Z</time></trkpt><trkpt lat="51.7984483" lon="-9.5787267"><ele>207.0</ele><time>2026-05-05T16:45:23.209Z</time></trkpt><trkpt lat="51.798615" lon="-9.578485"><ele>205.33333333333331</ele><time>2026-05-05T16:45:24.209Z</time></trkpt><trkpt lat="51.7987817" lon="-9.578265"><ele>203.66666666666666</ele><time>2026-05-05T16:45:25.208Z</time></trkpt><trkpt lat="51.7989483" lon="-9.5780717"><ele>202.0</ele><time>2026-05-05T16:45:26.209Z</time></trkpt><trkpt lat="51.7991017" lon="-9.5778917"><ele>200.0</ele><time>2026-05-05T16:45:27.209Z</time></trkpt><trkpt lat="51.7992467" lon="-9.577745"><ele>198.0</ele><time>2026-05-05T16:45:28.208Z</time></trkpt><trkpt lat="51.7993767" lon="-9.5776183"><ele>196.0</ele><time>2026-05-05T16:45:29.208Z</time></trkpt><trkpt lat="51.79951" lon="-9.57752"><ele>195.33333333333331</ele><time>2026-05-05T16:45:30.209Z</time></trkpt><trkpt lat="51.7996567" lon="-9.5774583"><ele>194.66666666666669</ele><time>2026-05-05T16:45:31.208Z</time></trkpt><trkpt lat="51.7998367" lon="-9.57745"><ele>194.0</ele><time>2026-05-05T16:45:32.208Z</time></trkpt><trkpt lat="51.8000133" lon="-9.57746"><ele>190.0</ele><time>2026-05-05T16:45:33.209Z</time></trkpt><trkpt lat="51.8001883" lon="-9.5774533"><ele>186.0</ele><time>2026-05-05T16:45:34.209Z</time></trkpt><trkpt lat="51.8003583" lon="-9.5774233"><ele>182.0</ele><time>2026-05-05T16:45:35.209Z</time></trkpt><trkpt lat="51.8005217" lon="-9.5773517"><ele>182.0</ele><time>2026-05-05T16:45:36.209Z</time></trkpt><trkpt lat="51.800675" lon="-9.5772517"><ele>182.0</ele><time>2026-05-05T16:45:37.208Z</time></trkpt><trkpt lat="51.8008467" lon="-9.5771367"><ele>182.0</ele><time>2026-05-05T16:45:38.208Z</time></trkpt><trkpt lat="51.80101" lon="-9.57698"><ele>178.66666666666666</ele><time>2026-05-05T16:45:39.208Z</time></trkpt><trkpt lat="51.8011633" lon="-9.57681"><ele>175.33333333333334</ele><time>2026-05-05T16:45:40.209Z</time></trkpt><trkpt lat="51.801295" lon="-9.57664"><ele>172.0</ele><time>2026-05-05T16:45:41.209Z</time></trkpt><trkpt lat="51.8014067" lon="-9.5764683"><ele>172.0</ele><time>2026-05-05T16:45:42.208Z</time></trkpt><trkpt lat="51.801495" lon="-9.5762883"><ele>172.0</ele><time>2026-05-05T16:45:43.209Z</time></trkpt><trkpt lat="51.80155" lon="-9.57605"><ele>172.0</ele><time>2026-05-05T16:45:44.208Z</time></trkpt><trkpt lat="51.80157" lon="-9.57581"><ele>172.0</ele><time>2026-05-05T16:45:45.209Z</time></trkpt><trkpt lat="51.801575" lon="-9.5755533"><ele>175.0</ele><time>2026-05-05T16:45:46.209Z</time></trkpt><trkpt lat="51.8015117" lon="-9.5751983"><ele>178.0</ele><time>2026-05-05T16:45:47.209Z</time></trkpt><trkpt lat="51.8014667" lon="-9.574885"><ele>181.0</ele><time>2026-05-05T16:45:48.208Z</time></trkpt><trkpt lat="51.801425" lon="-9.57457"><ele>180.33333333333334</ele><time>2026-05-05T16:45:49.208Z</time></trkpt><trkpt lat="51.80138" lon="-9.5742483"><ele>179.66666666666666</ele><time>2026-05-05T16:45:50.209Z</time></trkpt><trkpt lat="51.8013383" lon="-9.57392"><ele>179.0</ele><time>2026-05-05T16:45:51.209Z</time></trkpt><trkpt lat="51.8012967" lon="-9.5735983"><ele>179.0</ele><time>2026-05-05T16:45:52.208Z</time></trkpt><trkpt lat="51.8012417" lon="-9.5732667"><ele>179.0</ele><time>2026-05-05T16:45:53.208Z</time></trkpt><trkpt lat="51.80119" lon="-9.5729467"><ele>179.0</ele><time>2026-05-05T16:45:54.209Z</time></trkpt><trkpt lat="51.8011317" lon="-9.572635"><ele>179.66666666666666</ele><time>2026-05-05T16:45:55.209Z</time></trkpt><trkpt lat="51.8010717" lon="-9.5723383"><ele>180.33333333333334</ele><time>2026-05-05T16:45:56.208Z</time></trkpt><trkpt lat="51.8010067" lon="-9.5720567"><ele>181.0</ele><time>2026-05-05T16:45:57.209Z</time></trkpt><trkpt lat="51.8009217" lon="-9.57179"><ele>179.33333333333334</ele><time>2026-05-05T16:45:58.209Z</time></trkpt><trkpt lat="51.8008183" lon="-9.5715333"><ele>177.66666666666666</ele><time>2026-05-05T16:45:59.209Z</time></trkpt><trkpt lat="51.8007183" lon="-9.5712767"><ele>176.0</ele><time>2026-05-05T16:46:00.208Z</time></trkpt><trkpt lat="51.8006183" lon="-9.5710483"><ele>176.0</ele><time>2026-05-05T16:46:01.209Z</time></trkpt><trkpt lat="51.8005333" lon="-9.57083"><ele>176.0</ele><time>2026-05-05T16:46:02.209Z</time></trkpt><trkpt lat="51.8004467" lon="-9.57061"><ele>176.0</ele><time>2026-05-05T16:46:03.208Z</time></trkpt><trkpt lat="51.8003967" lon="-9.5704217"><ele>176.0</ele><time>2026-05-05T16:46:04.209Z</time></trkpt><trkpt lat="51.80037" lon="-9.5702183"><ele>176.0</ele><time>2026-05-05T16:46:05.209Z</time></trkpt><trkpt lat="51.8003717" lon="-9.5699783"><ele>176.0</ele><time>2026-05-05T16:46:06.208Z</time></trkpt><trkpt lat="51.8004117" lon="-9.5697133"><ele>176.0</ele><time>2026-05-05T16:46:07.208Z</time></trkpt><trkpt lat="51.80047" lon="-9.5694433"><ele>174.0</ele><time>2026-05-05T16:46:08.209Z</time></trkpt><trkpt lat="51.8005383" lon="-9.569165"><ele>172.0</ele><time>2026-05-05T16:46:09.209Z</time></trkpt><trkpt lat="51.800605" lon="-9.5688833"><ele>170.0</ele><time>2026-05-05T16:46:10.209Z</time></trkpt><trkpt lat="51.8006717" lon="-9.5686017"><ele>167.66666666666666</ele><time>2026-05-05T16:46:11.209Z</time></trkpt><trkpt lat="51.8007367" lon="-9.56832"><ele>165.33333333333334</ele><time>2026-05-05T16:46:12.209Z</time></trkpt><trkpt lat="51.8007983" lon="-9.56804"><ele>163.0</ele><time>2026-05-05T16:46:13.209Z</time></trkpt><trkpt lat="51.80085" lon="-9.56775"><ele>163.0</ele><time>2026-05-05T16:46:14.208Z</time></trkpt><trkpt lat="51.8008983" lon="-9.5674633"><ele>163.0</ele><time>2026-05-05T16:46:15.208Z</time></trkpt><trkpt lat="51.8008633" lon="-9.567165"><ele>163.0</ele><time>2026-05-05T16:46:16.209Z</time></trkpt><trkpt lat="51.800805" lon="-9.566865"><ele>163.0</ele><time>2026-05-05T16:46:17.209Z</time></trkpt><trkpt lat="51.8007583" lon="-9.56657"><ele>163.0</ele><time>2026-05-05T16:46:18.209Z</time></trkpt><trkpt lat="51.8007083" lon="-9.5662633"><ele>163.0</ele><time>2026-05-05T16:46:19.209Z</time></trkpt><trkpt lat="51.8006767" lon="-9.5659367"><ele>162.0</ele><time>2026-05-05T16:46:20.209Z</time></trkpt><trkpt lat="51.8006533" lon="-9.56561"><ele>161.0</ele><time>2026-05-05T16:46:21.209Z</time></trkpt><trkpt lat="51.8006483" lon="-9.5652667"><ele>160.0</ele><time>2026-05-05T16:46:22.208Z</time></trkpt><trkpt lat="51.8006583" lon="-9.56492"><ele>158.0</ele><time>2026-05-05T16:46:23.209Z</time></trkpt><trkpt lat="51.8006783" lon="-9.5645733"><ele>156.0</ele><time>2026-05-05T16:46:24.208Z</time></trkpt><trkpt lat="51.8007117" lon="-9.5642417"><ele>154.0</ele><time>2026-05-05T16:46:25.208Z</time></trkpt><trkpt lat="51.8007483" lon="-9.5639233"><ele>151.66666666666669</ele><time>2026-05-05T16:46:26.208Z</time></trkpt><trkpt lat="51.800795" lon="-9.563615"><ele>149.33333333333334</ele><time>2026-05-05T16:46:27.209Z</time></trkpt><trkpt lat="51.800845" lon="-9.5633133"><ele>147.0</ele><time>2026-05-05T16:46:28.209Z</time></trkpt><trkpt lat="51.8009" lon="-9.56301"><ele>146.0</ele><time>2026-05-05T16:46:29.208Z</time></trkpt><trkpt lat="51.8009667" lon="-9.5627033"><ele>145.0</ele><time>2026-05-05T16:46:30.208Z</time></trkpt><trkpt lat="51.801055" lon="-9.5624167"><ele>144.0</ele><time>2026-05-05T16:46:31.209Z</time></trkpt><trkpt lat="51.8011467" lon="-9.5621417"><ele>146.33333333333334</ele><time>2026-05-05T16:46:32.208Z</time></trkpt><trkpt lat="51.8012517" lon="-9.56187"><ele>148.66666666666669</ele><time>2026-05-05T16:46:33.209Z</time></trkpt><trkpt lat="51.80136" lon="-9.5616067"><ele>151.0</ele><time>2026-05-05T16:46:34.209Z</time></trkpt><trkpt lat="51.80149" lon="-9.5613517"><ele>150.66666666666669</ele><time>2026-05-05T16:46:35.209Z</time></trkpt><trkpt lat="51.8016317" lon="-9.56109"><ele>150.33333333333334</ele><time>2026-05-05T16:46:36.208Z</time></trkpt><trkpt lat="51.8017833" lon="-9.5608217"><ele>150.0</ele><time>2026-05-05T16:46:37.208Z</time></trkpt><trkpt lat="51.8019517" lon="-9.5605633"><ele>146.0</ele><time>2026-05-05T16:46:38.209Z</time></trkpt><trkpt lat="51.8021233" lon="-9.5603117"><ele>142.0</ele><time>2026-05-05T16:46:39.208Z</time></trkpt><trkpt lat="51.8023" lon="-9.5600683"><ele>142.0</ele><time>2026-05-05T16:46:40.208Z</time></trkpt><trkpt lat="51.8024717" lon="-9.55982"><ele>142.0</ele><time>2026-05-05T16:46:41.209Z</time></trkpt><trkpt lat="51.8026467" lon="-9.5595817"><ele>140.5</ele><time>2026-05-05T16:46:42.209Z</time></trkpt><trkpt lat="51.8028167" lon="-9.5593367"><ele>139.0</ele><time>2026-05-05T16:46:43.209Z</time></trkpt><trkpt lat="51.8030233" lon="-9.5591933"><ele>139.0</ele><time>2026-05-05T16:46:44.208Z</time></trkpt><trkpt lat="51.8031983" lon="-9.5589567"><ele>139.0</ele><time>2026-05-05T16:46:45.208Z</time></trkpt><trkpt lat="51.8033683" lon="-9.558735"><ele>139.0</ele><time>2026-05-05T16:46:46.209Z</time></trkpt><trkpt lat="51.80354" lon="-9.55855"><ele>138.0</ele><time>2026-05-05T16:46:47.209Z</time></trkpt><trkpt lat="51.8036933" lon="-9.5583733"><ele>137.0</ele><time>2026-05-05T16:46:48.209Z</time></trkpt><trkpt lat="51.803845" lon="-9.558175"><ele>136.0</ele><time>2026-05-05T16:46:49.209Z</time></trkpt><trkpt lat="51.8039967" lon="-9.5579617"><ele>135.33333333333334</ele><time>2026-05-05T16:46:50.209Z</time></trkpt><trkpt lat="51.80413" lon="-9.55774"><ele>134.66666666666666</ele><time>2026-05-05T16:46:51.208Z</time></trkpt><trkpt lat="51.8042583" lon="-9.5574967"><ele>134.0</ele><time>2026-05-05T16:46:52.209Z</time></trkpt><trkpt lat="51.8043783" lon="-9.5572583"><ele>134.0</ele><time>2026-05-05T16:46:53.209Z</time></trkpt><trkpt lat="51.8045" lon="-9.557065"><ele>134.0</ele><time>2026-05-05T16:46:54.208Z</time></trkpt><trkpt lat="51.804625" lon="-9.556935"><ele>134.0</ele><time>2026-05-05T16:46:55.208Z</time></trkpt><trkpt lat="51.80476" lon="-9.5568633"><ele>130.33333333333331</ele><time>2026-05-05T16:46:56.209Z</time></trkpt><trkpt lat="51.8049" lon="-9.5568433"><ele>126.66666666666666</ele><time>2026-05-05T16:46:57.209Z</time></trkpt><trkpt lat="51.8050633" lon="-9.5568483"><ele>123.0</ele><time>2026-05-05T16:46:58.208Z</time></trkpt><trkpt lat="51.8052417" lon="-9.5568783"><ele>122.0</ele><time>2026-05-05T16:46:59.209Z</time></trkpt><trkpt lat="51.8054133" lon="-9.5569533"><ele>121.0</ele><time>2026-05-05T16:47:00.209Z</time></trkpt><trkpt lat="51.8055783" lon="-9.55692"><ele>120.0</ele><time>2026-05-05T16:47:01.209Z</time></trkpt><trkpt lat="51.8057417" lon="-9.5568717"><ele>120.0</ele><time>2026-05-05T16:47:02.208Z</time></trkpt><trkpt lat="51.8058983" lon="-9.5568483"><ele>120.0</ele><time>2026-05-05T16:47:03.209Z</time></trkpt><trkpt lat="51.80604" lon="-9.5568583"><ele>120.0</ele><time>2026-05-05T16:47:04.209Z</time></trkpt><trkpt lat="51.8061683" lon="-9.5569133"><ele>120.0</ele><time>2026-05-05T16:47:05.209Z</time></trkpt><trkpt lat="51.806285" lon="-9.55699"><ele>117.66666666666666</ele><time>2026-05-05T16:47:06.209Z</time></trkpt><trkpt lat="51.8063917" lon="-9.5571033"><ele>115.33333333333333</ele><time>2026-05-05T16:47:07.209Z</time></trkpt><trkpt lat="51.80648" lon="-9.5572933"><ele>113.0</ele><time>2026-05-05T16:47:08.209Z</time></trkpt><trkpt lat="51.8065517" lon="-9.55757"><ele>115.5</ele><time>2026-05-05T16:47:09.209Z</time></trkpt><trkpt lat="51.8066217" lon="-9.5579417"><ele>118.0</ele><time>2026-05-05T16:47:10.208Z</time></trkpt><trkpt lat="51.8066433" lon="-9.55848"><ele>119.66666666666667</ele><time>2026-05-05T16:47:11.209Z</time></trkpt><trkpt lat="51.8067117" lon="-9.5588367"><ele>121.33333333333334</ele><time>2026-05-05T16:47:12.208Z</time></trkpt><trkpt lat="51.8067817" lon="-9.5591483"><ele>123.0</ele><time>2026-05-05T16:47:13.208Z</time></trkpt><trkpt lat="51.8068483" lon="-9.5594433"><ele>116.66666666666666</ele><time>2026-05-05T16:47:14.209Z</time></trkpt><trkpt lat="51.80693" lon="-9.559735"><ele>110.33333333333333</ele><time>2026-05-05T16:47:15.209Z</time></trkpt><trkpt lat="51.8070217" lon="-9.56003"><ele>104.0</ele><time>2026-05-05T16:47:16.209Z</time></trkpt><trkpt lat="51.8071467" lon="-9.5603"><ele>107.0</ele><time>2026-05-05T16:47:17.208Z</time></trkpt><trkpt lat="51.8072717" lon="-9.5605633"><ele>110.0</ele><time>2026-05-05T16:47:18.209Z</time></trkpt><trkpt lat="51.807425" lon="-9.560795"><ele>113.0</ele><time>2026-05-05T16:47:19.208Z</time></trkpt><trkpt lat="51.80759" lon="-9.5610033"><ele>108.0</ele><time>2026-05-05T16:47:20.209Z</time></trkpt><trkpt lat="51.8077633" lon="-9.5612083"><ele>103.0</ele><time>2026-05-05T16:47:21.209Z</time></trkpt><trkpt lat="51.8079483" lon="-9.561395"><ele>98.0</ele><time>2026-05-05T16:47:22.208Z</time></trkpt><trkpt lat="51.80814" lon="-9.561555"><ele>98.0</ele><time>2026-05-05T16:47:23.209Z</time></trkpt><trkpt lat="51.8083367" lon="-9.5617067"><ele>98.0</ele><time>2026-05-05T16:47:24.209Z</time></trkpt><trkpt lat="51.80855" lon="-9.5618217"><ele>98.0</ele><time>2026-05-05T16:47:25.209Z</time></trkpt><trkpt lat="51.8087567" lon="-9.56191"><ele>98.33333333333333</ele><time>2026-05-05T16:47:26.209Z</time></trkpt><trkpt lat="51.8089517" lon="-9.56199"><ele>98.66666666666666</ele><time>2026-05-05T16:47:27.209Z</time></trkpt><trkpt lat="51.8091417" lon="-9.5620933"><ele>99.0</ele><time>2026-05-05T16:47:28.209Z</time></trkpt><trkpt lat="51.8093233" lon="-9.5621433"><ele>101.0</ele><time>2026-05-05T16:47:29.209Z</time></trkpt><trkpt lat="51.8094983" lon="-9.562185"><ele>103.0</ele><time>2026-05-05T16:47:30.209Z</time></trkpt><trkpt lat="51.8096667" lon="-9.5621867"><ele>105.0</ele><time>2026-05-05T16:47:31.209Z</time></trkpt><trkpt lat="51.80983" lon="-9.5621983"><ele>105.0</ele><time>2026-05-05T16:47:32.209Z</time></trkpt><trkpt lat="51.8099717" lon="-9.5621533"><ele>105.0</ele><time>2026-05-05T16:47:33.209Z</time></trkpt><trkpt lat="51.8101267" lon="-9.5621017"><ele>105.0</ele><time>2026-05-05T16:47:34.209Z</time></trkpt><trkpt lat="51.8102883" lon="-9.56206"><ele>104.33333333333334</ele><time>2026-05-05T16:47:35.208Z</time></trkpt><trkpt lat="51.8104317" lon="-9.5619583"><ele>103.66666666666667</ele><time>2026-05-05T16:47:36.209Z</time></trkpt><trkpt lat="51.8105733" lon="-9.5617667"><ele>103.0</ele><time>2026-05-05T16:47:37.208Z</time></trkpt><trkpt lat="51.8107133" lon="-9.5615883"><ele>103.0</ele><time>2026-05-05T16:47:38.209Z</time></trkpt><trkpt lat="51.8108433" lon="-9.5613633"><ele>103.0</ele><time>2026-05-05T16:47:39.209Z</time></trkpt><trkpt lat="51.81089" lon="-9.5608667"><ele>102.5</ele><time>2026-05-05T16:47:40.208Z</time></trkpt><trkpt lat="51.81093" lon="-9.5603567"><ele>102.0</ele><time>2026-05-05T16:47:41.208Z</time></trkpt><trkpt lat="51.8110533" lon="-9.560135"><ele>102.0</ele><time>2026-05-05T16:47:42.209Z</time></trkpt><trkpt lat="51.8111133" lon="-9.5597167"><ele>102.0</ele><time>2026-05-05T16:47:43.209Z</time></trkpt><trkpt lat="51.81117" lon="-9.559255"><ele>100.0</ele><time>2026-05-05T16:47:44.209Z</time></trkpt><trkpt lat="51.8112167" lon="-9.5588667"><ele>98.0</ele><time>2026-05-05T16:47:45.209Z</time></trkpt><trkpt lat="51.8112767" lon="-9.5584617"><ele>98.0</ele><time>2026-05-05T16:47:46.209Z</time></trkpt><trkpt lat="51.8113317" lon="-9.5580533"><ele>98.0</ele><time>2026-05-05T16:47:47.209Z</time></trkpt><trkpt lat="51.8114033" lon="-9.5576667"><ele>97.5</ele><time>2026-05-05T16:47:48.209Z</time></trkpt><trkpt lat="51.8114783" lon="-9.5572783"><ele>97.0</ele><time>2026-05-05T16:47:49.209Z</time></trkpt><trkpt lat="51.811555" lon="-9.5569117"><ele>96.5</ele><time>2026-05-05T16:47:50.209Z</time></trkpt><trkpt lat="51.811625" lon="-9.556535"><ele>96.0</ele><time>2026-05-05T16:47:51.208Z</time></trkpt><trkpt lat="51.81169" lon="-9.556195"><ele>95.66666666666667</ele><time>2026-05-05T16:47:52.208Z</time></trkpt><trkpt lat="51.8117433" lon="-9.5558533"><ele>95.33333333333334</ele><time>2026-05-05T16:47:53.208Z</time></trkpt><trkpt lat="51.8118" lon="-9.555535"><ele>95.0</ele><time>2026-05-05T16:47:54.209Z</time></trkpt><trkpt lat="51.81184" lon="-9.555195"><ele>96.33333333333334</ele><time>2026-05-05T16:47:55.208Z</time></trkpt><trkpt lat="51.811895" lon="-9.554865"><ele>97.66666666666667</ele><time>2026-05-05T16:47:56.209Z</time></trkpt><trkpt lat="51.81196" lon="-9.55453"><ele>99.0</ele><time>2026-05-05T16:47:57.209Z</time></trkpt><trkpt lat="51.8120233" lon="-9.5542017"><ele>99.0</ele><time>2026-05-05T16:47:58.208Z</time></trkpt><trkpt lat="51.8120817" lon="-9.553885"><ele>99.0</ele><time>2026-05-05T16:47:59.209Z</time></trkpt><trkpt lat="51.8121317" lon="-9.553565"><ele>99.0</ele><time>2026-05-05T16:48:00.209Z</time></trkpt><trkpt lat="51.81219" lon="-9.553235"><ele>98.66666666666666</ele><time>2026-05-05T16:48:01.209Z</time></trkpt><trkpt lat="51.8122483" lon="-9.552905"><ele>98.33333333333333</ele><time>2026-05-05T16:48:02.208Z</time></trkpt><trkpt lat="51.812315" lon="-9.5525667"><ele>98.0</ele><time>2026-05-05T16:48:03.209Z</time></trkpt><trkpt lat="51.81239" lon="-9.5522217"><ele>96.66666666666666</ele><time>2026-05-05T16:48:04.209Z</time></trkpt><trkpt lat="51.8124633" lon="-9.551885"><ele>95.33333333333333</ele><time>2026-05-05T16:48:05.209Z</time></trkpt><trkpt lat="51.8125367" lon="-9.5515517"><ele>94.0</ele><time>2026-05-05T16:48:06.209Z</time></trkpt><trkpt lat="51.8126083" lon="-9.551225"><ele>95.33333333333333</ele><time>2026-05-05T16:48:07.209Z</time></trkpt><trkpt lat="51.8126817" lon="-9.5508917"><ele>96.66666666666666</ele><time>2026-05-05T16:48:08.209Z</time></trkpt><trkpt lat="51.812755" lon="-9.55056"><ele>98.0</ele><time>2026-05-05T16:48:09.209Z</time></trkpt><trkpt lat="51.81283" lon="-9.5502383"><ele>98.0</ele><time>2026-05-05T16:48:10.209Z</time></trkpt><trkpt lat="51.8129" lon="-9.5499133"><ele>98.0</ele><time>2026-05-05T16:48:11.209Z</time></trkpt><trkpt lat="51.812965" lon="-9.54959"><ele>98.0</ele><time>2026-05-05T16:48:12.208Z</time></trkpt><trkpt lat="51.8130267" lon="-9.5492633"><ele>97.66666666666666</ele><time>2026-05-05T16:48:13.209Z</time></trkpt><trkpt lat="51.8130833" lon="-9.5489433"><ele>97.33333333333334</ele><time>2026-05-05T16:48:14.209Z</time></trkpt><trkpt lat="51.8131233" lon="-9.5486133"><ele>97.0</ele><time>2026-05-05T16:48:15.209Z</time></trkpt><trkpt lat="51.8131583" lon="-9.548275"><ele>97.0</ele><time>2026-05-05T16:48:16.209Z</time></trkpt><trkpt lat="51.8131917" lon="-9.5479317"><ele>97.0</ele><time>2026-05-05T16:48:17.209Z</time></trkpt><trkpt lat="51.8132233" lon="-9.5475933"><ele>97.0</ele><time>2026-05-05T16:48:18.208Z</time></trkpt><trkpt lat="51.813245" lon="-9.5472567"><ele>96.33333333333334</ele><time>2026-05-05T16:48:19.208Z</time></trkpt><trkpt lat="51.81327" lon="-9.54692"><ele>95.66666666666667</ele><time>2026-05-05T16:48:20.208Z</time></trkpt><trkpt lat="51.813295" lon="-9.5465833"><ele>95.0</ele><time>2026-05-05T16:48:21.209Z</time></trkpt><trkpt lat="51.8132667" lon="-9.5462167"><ele>94.66666666666667</ele><time>2026-05-05T16:48:22.208Z</time></trkpt><trkpt lat="51.8132833" lon="-9.5458833"><ele>94.33333333333333</ele><time>2026-05-05T16:48:23.209Z</time></trkpt><trkpt lat="51.8133317" lon="-9.545555"><ele>94.0</ele><time>2026-05-05T16:48:24.209Z</time></trkpt><trkpt lat="51.81343" lon="-9.545255"><ele>95.66666666666666</ele><time>2026-05-05T16:48:25.209Z</time></trkpt><trkpt lat="51.8135133" lon="-9.544925"><ele>97.33333333333333</ele><time>2026-05-05T16:48:26.209Z</time></trkpt><trkpt lat="51.8136017" lon="-9.5445983"><ele>99.0</ele><time>2026-05-05T16:48:27.209Z</time></trkpt><trkpt lat="51.8136917" lon="-9.5442717"><ele>99.0</ele><time>2026-05-05T16:48:28.209Z</time></trkpt><trkpt lat="51.81378" lon="-9.5439433"><ele>99.0</ele><time>2026-05-05T16:48:29.209Z</time></trkpt><trkpt lat="51.8138733" lon="-9.5436083"><ele>99.0</ele><time>2026-05-05T16:48:30.208Z</time></trkpt><trkpt lat="51.8139683" lon="-9.5432717"><ele>98.5</ele><time>2026-05-05T16:48:31.209Z</time></trkpt><trkpt lat="51.8140533" lon="-9.5429383"><ele>98.0</ele><time>2026-05-05T16:48:32.209Z</time></trkpt><trkpt lat="51.8141467" lon="-9.5426033"><ele>97.66666666666666</ele><time>2026-05-05T16:48:33.208Z</time></trkpt><trkpt lat="51.8142367" lon="-9.5422717"><ele>97.33333333333334</ele><time>2026-05-05T16:48:34.209Z</time></trkpt><trkpt lat="51.8143317" lon="-9.5419417"><ele>97.0</ele><time>2026-05-05T16:48:35.209Z</time></trkpt><trkpt lat="51.8144283" lon="-9.5416167"><ele>97.33333333333334</ele><time>2026-05-05T16:48:36.209Z</time></trkpt><trkpt lat="51.814525" lon="-9.5412983"><ele>97.66666666666666</ele><time>2026-05-05T16:48:37.209Z</time></trkpt><trkpt lat="51.8146133" lon="-9.540985"><ele>98.0</ele><time>2026-05-05T16:48:38.209Z</time></trkpt><trkpt lat="51.814705" lon="-9.5406617"><ele>97.33333333333333</ele><time>2026-05-05T16:48:39.209Z</time></trkpt><trkpt lat="51.8148067" lon="-9.5403433"><ele>96.66666666666666</ele><time>2026-05-05T16:48:40.209Z</time></trkpt><trkpt lat="51.8149133" lon="-9.5400217"><ele>96.0</ele><time>2026-05-05T16:48:41.208Z</time></trkpt><trkpt lat="51.8150133" lon="-9.539705"><ele>95.66666666666667</ele><time>2026-05-05T16:48:42.209Z</time></trkpt><trkpt lat="51.8151167" lon="-9.5394017"><ele>95.33333333333334</ele><time>2026-05-05T16:48:43.208Z</time></trkpt><trkpt lat="51.8152167" lon="-9.5391167"><ele>95.0</ele><time>2026-05-05T16:48:44.208Z</time></trkpt><trkpt lat="51.81532" lon="-9.53884"><ele>95.33333333333334</ele><time>2026-05-05T16:48:45.209Z</time></trkpt><trkpt lat="51.8154183" lon="-9.5385683"><ele>95.66666666666667</ele><time>2026-05-05T16:48:46.209Z</time></trkpt><trkpt lat="51.8155117" lon="-9.5383017"><ele>96.0</ele><time>2026-05-05T16:48:47.208Z</time></trkpt><trkpt lat="51.8156033" lon="-9.5380383"><ele>95.33333333333333</ele><time>2026-05-05T16:48:48.208Z</time></trkpt><trkpt lat="51.8156983" lon="-9.5377717"><ele>94.66666666666666</ele><time>2026-05-05T16:48:49.208Z</time></trkpt><trkpt lat="51.8157917" lon="-9.5374933"><ele>94.0</ele><time>2026-05-05T16:48:50.209Z</time></trkpt><trkpt lat="51.8158883" lon="-9.5372117"><ele>94.0</ele><time>2026-05-05T16:48:51.209Z</time></trkpt><trkpt lat="51.8159883" lon="-9.5369267"><ele>94.0</ele><time>2026-05-05T16:48:52.209Z</time></trkpt><trkpt lat="51.8160867" lon="-9.5366367"><ele>94.0</ele><time>2026-05-05T16:48:53.209Z</time></trkpt><trkpt lat="51.8161833" lon="-9.5363483"><ele>92.66666666666666</ele><time>2026-05-05T16:48:54.208Z</time></trkpt><trkpt lat="51.8162783" lon="-9.5360517"><ele>91.33333333333333</ele><time>2026-05-05T16:48:55.209Z</time></trkpt><trkpt lat="51.8163733" lon="-9.5357483"><ele>90.0</ele><time>2026-05-05T16:48:56.209Z</time></trkpt><trkpt lat="51.816475" lon="-9.535455"><ele>88.66666666666667</ele><time>2026-05-05T16:48:57.208Z</time></trkpt><trkpt lat="51.81658" lon="-9.535155"><ele>87.33333333333334</ele><time>2026-05-05T16:48:58.209Z</time></trkpt><trkpt lat="51.8166833" lon="-9.53486"><ele>86.0</ele><time>2026-05-05T16:48:59.209Z</time></trkpt><trkpt lat="51.8167917" lon="-9.534555"><ele>86.33333333333334</ele><time>2026-05-05T16:49:00.209Z</time></trkpt><trkpt lat="51.8168917" lon="-9.5342517"><ele>86.66666666666667</ele><time>2026-05-05T16:49:01.208Z</time></trkpt><trkpt lat="51.8169917" lon="-9.5339617"><ele>87.0</ele><time>2026-05-05T16:49:02.209Z</time></trkpt><trkpt lat="51.8170867" lon="-9.53368"><ele>86.0</ele><time>2026-05-05T16:49:03.208Z</time></trkpt><trkpt lat="51.8171867" lon="-9.533405"><ele>85.0</ele><time>2026-05-05T16:49:04.208Z</time></trkpt><trkpt lat="51.8172917" lon="-9.53313"><ele>84.0</ele><time>2026-05-05T16:49:05.208Z</time></trkpt><trkpt lat="51.817415" lon="-9.532865"><ele>83.66666666666667</ele><time>2026-05-05T16:49:06.208Z</time></trkpt><trkpt lat="51.8175583" lon="-9.5326067"><ele>83.33333333333334</ele><time>2026-05-05T16:49:07.208Z</time></trkpt><trkpt lat="51.8177133" lon="-9.5323683"><ele>83.0</ele><time>2026-05-05T16:49:08.209Z</time></trkpt><trkpt lat="51.8178683" lon="-9.5321467"><ele>80.0</ele><time>2026-05-05T16:49:09.209Z</time></trkpt><trkpt lat="51.81805" lon="-9.53193"><ele>77.0</ele><time>2026-05-05T16:49:10.209Z</time></trkpt><trkpt lat="51.8182467" lon="-9.5317283"><ele>77.0</ele><time>2026-05-05T16:49:11.209Z</time></trkpt><trkpt lat="51.8184517" lon="-9.5315233"><ele>77.0</ele><time>2026-05-05T16:49:12.208Z</time></trkpt><trkpt lat="51.8186617" lon="-9.5313217"><ele>75.0</ele><time>2026-05-05T16:49:13.208Z</time></trkpt><trkpt lat="51.8188733" lon="-9.5311217"><ele>73.0</ele><time>2026-05-05T16:49:14.208Z</time></trkpt><trkpt lat="51.8190783" lon="-9.5309167"><ele>73.0</ele><time>2026-05-05T16:49:15.209Z</time></trkpt><trkpt lat="51.81928" lon="-9.5307233"><ele>73.0</ele><time>2026-05-05T16:49:16.209Z</time></trkpt><trkpt lat="51.8194783" lon="-9.5305333"><ele>72.66666666666666</ele><time>2026-05-05T16:49:17.209Z</time></trkpt><trkpt lat="51.81967" lon="-9.5303417"><ele>72.33333333333333</ele><time>2026-05-05T16:49:18.208Z</time></trkpt><trkpt lat="51.8198517" lon="-9.5301433"><ele>72.0</ele><time>2026-05-05T16:49:19.209Z</time></trkpt><trkpt lat="51.8200317" lon="-9.52995"><ele>71.33333333333333</ele><time>2026-05-05T16:49:20.209Z</time></trkpt><trkpt lat="51.820215" lon="-9.5297683"><ele>70.66666666666666</ele><time>2026-05-05T16:49:21.209Z</time></trkpt><trkpt lat="51.820405" lon="-9.5295867"><ele>70.0</ele><time>2026-05-05T16:49:22.209Z</time></trkpt><trkpt lat="51.8205983" lon="-9.5294"><ele>70.0</ele><time>2026-05-05T16:49:23.209Z</time></trkpt><trkpt lat="51.8207933" lon="-9.5292"><ele>70.0</ele><time>2026-05-05T16:49:24.208Z</time></trkpt><trkpt lat="51.8209883" lon="-9.5289983"><ele>69.5</ele><time>2026-05-05T16:49:25.209Z</time></trkpt><trkpt lat="51.8211817" lon="-9.528795"><ele>69.0</ele><time>2026-05-05T16:49:26.208Z</time></trkpt><trkpt lat="51.8213783" lon="-9.5286033"><ele>68.66666666666667</ele><time>2026-05-05T16:49:27.209Z</time></trkpt><trkpt lat="51.8215433" lon="-9.5283733"><ele>68.33333333333334</ele><time>2026-05-05T16:49:28.209Z</time></trkpt><trkpt lat="51.8217167" lon="-9.5281517"><ele>68.0</ele><time>2026-05-05T16:49:29.209Z</time></trkpt><trkpt lat="51.8218967" lon="-9.5279617"><ele>67.0</ele><time>2026-05-05T16:49:30.209Z</time></trkpt><trkpt lat="51.8220717" lon="-9.527775"><ele>66.0</ele><time>2026-05-05T16:49:31.209Z</time></trkpt><trkpt lat="51.8222417" lon="-9.5276067"><ele>65.0</ele><time>2026-05-05T16:49:32.209Z</time></trkpt><trkpt lat="51.8224083" lon="-9.5274617"><ele>65.0</ele><time>2026-05-05T16:49:33.209Z</time></trkpt><trkpt lat="51.8225683" lon="-9.5273267"><ele>65.0</ele><time>2026-05-05T16:49:34.208Z</time></trkpt><trkpt lat="51.8227267" lon="-9.5271883"><ele>65.0</ele><time>2026-05-05T16:49:35.209Z</time></trkpt><trkpt lat="51.82289" lon="-9.5270667"><ele>64.66666666666667</ele><time>2026-05-05T16:49:36.209Z</time></trkpt><trkpt lat="51.8230617" lon="-9.5269417"><ele>64.33333333333333</ele><time>2026-05-05T16:49:37.209Z</time></trkpt><trkpt lat="51.8232467" lon="-9.5268617"><ele>64.0</ele><time>2026-05-05T16:49:38.209Z</time></trkpt><trkpt lat="51.823435" lon="-9.5267967"><ele>64.66666666666666</ele><time>2026-05-05T16:49:39.209Z</time></trkpt><trkpt lat="51.8236267" lon="-9.5267583"><ele>65.33333333333333</ele><time>2026-05-05T16:49:40.208Z</time></trkpt><trkpt lat="51.8238133" lon="-9.526725"><ele>66.0</ele><time>2026-05-05T16:49:41.209Z</time></trkpt><trkpt lat="51.824" lon="-9.5267083"><ele>66.0</ele><time>2026-05-05T16:49:42.209Z</time></trkpt><trkpt lat="51.824185" lon="-9.5266933"><ele>66.0</ele><time>2026-05-05T16:49:43.208Z</time></trkpt><trkpt lat="51.82437" lon="-9.5266733"><ele>66.0</ele><time>2026-05-05T16:49:44.209Z</time></trkpt><trkpt lat="51.82456" lon="-9.5266533"><ele>65.33333333333333</ele><time>2026-05-05T16:49:45.208Z</time></trkpt><trkpt lat="51.8247583" lon="-9.526635"><ele>64.66666666666666</ele><time>2026-05-05T16:49:46.209Z</time></trkpt><trkpt lat="51.8249717" lon="-9.52661"><ele>64.0</ele><time>2026-05-05T16:49:47.209Z</time></trkpt><trkpt lat="51.8251917" lon="-9.526585"><ele>63.0</ele><time>2026-05-05T16:49:48.209Z</time></trkpt><trkpt lat="51.8254167" lon="-9.5265567"><ele>62.0</ele><time>2026-05-05T16:49:49.208Z</time></trkpt><trkpt lat="51.8256417" lon="-9.5265267"><ele>62.0</ele><time>2026-05-05T16:49:50.209Z</time></trkpt><trkpt lat="51.8258683" lon="-9.5265133"><ele>62.0</ele><time>2026-05-05T16:49:51.208Z</time></trkpt><trkpt lat="51.8260833" lon="-9.5264967"><ele>62.0</ele><time>2026-05-05T16:49:52.209Z</time></trkpt><trkpt lat="51.826295" lon="-9.526485"><ele>61.66666666666667</ele><time>2026-05-05T16:49:53.208Z</time></trkpt><trkpt lat="51.8264967" lon="-9.52648"><ele>61.33333333333333</ele><time>2026-05-05T16:49:54.209Z</time></trkpt><trkpt lat="51.826695" lon="-9.5265"><ele>61.0</ele><time>2026-05-05T16:49:55.209Z</time></trkpt><trkpt lat="51.8268817" lon="-9.5265183"><ele>61.0</ele><time>2026-05-05T16:49:56.208Z</time></trkpt><trkpt lat="51.8270617" lon="-9.5265567"><ele>61.0</ele><time>2026-05-05T16:49:57.209Z</time></trkpt><trkpt lat="51.827245" lon="-9.5266117"><ele>61.0</ele><time>2026-05-05T16:49:58.209Z</time></trkpt><trkpt lat="51.827445" lon="-9.5266933"><ele>59.5</ele><time>2026-05-05T16:49:59.208Z</time></trkpt><trkpt lat="51.8276617" lon="-9.5268"><ele>58.0</ele><time>2026-05-05T16:50:00.209Z</time></trkpt><trkpt lat="51.82789" lon="-9.5269233"><ele>58.0</ele><time>2026-05-05T16:50:01.209Z</time></trkpt><trkpt lat="51.8281117" lon="-9.5270483"><ele>58.0</ele><time>2026-05-05T16:50:02.208Z</time></trkpt><trkpt lat="51.8283433" lon="-9.5271983"><ele>58.0</ele><time>2026-05-05T16:50:03.208Z</time></trkpt><trkpt lat="51.8285667" lon="-9.527345"><ele>58.0</ele><time>2026-05-05T16:50:04.209Z</time></trkpt><trkpt lat="51.82879" lon="-9.5274667"><ele>58.0</ele><time>2026-05-05T16:50:05.208Z</time></trkpt><trkpt lat="51.82901" lon="-9.5275717"><ele>58.0</ele><time>2026-05-05T16:50:06.209Z</time></trkpt><trkpt lat="51.8292267" lon="-9.5276767"><ele>57.0</ele><time>2026-05-05T16:50:07.209Z</time></trkpt><trkpt lat="51.8294483" lon="-9.5277733"><ele>56.0</ele><time>2026-05-05T16:50:08.209Z</time></trkpt><trkpt lat="51.8296683" lon="-9.527855"><ele>56.333333333333336</ele><time>2026-05-05T16:50:09.209Z</time></trkpt><trkpt lat="51.8298867" lon="-9.527915"><ele>56.66666666666667</ele><time>2026-05-05T16:50:10.209Z</time></trkpt><trkpt lat="51.8301083" lon="-9.5279633"><ele>57.0</ele><time>2026-05-05T16:50:11.209Z</time></trkpt><trkpt lat="51.8303367" lon="-9.5280183"><ele>56.0</ele><time>2026-05-05T16:50:12.208Z</time></trkpt><trkpt lat="51.8305767" lon="-9.5281"><ele>55.0</ele><time>2026-05-05T16:50:13.209Z</time></trkpt><trkpt lat="51.8308167" lon="-9.5281717"><ele>55.0</ele><time>2026-05-05T16:50:14.209Z</time></trkpt><trkpt lat="51.8310517" lon="-9.5282233"><ele>55.0</ele><time>2026-05-05T16:50:15.208Z</time></trkpt><trkpt lat="51.8312717" lon="-9.5282617"><ele>55.0</ele><time>2026-05-05T16:50:16.209Z</time></trkpt><trkpt lat="51.831495" lon="-9.5283167"><ele>55.0</ele><time>2026-05-05T16:50:17.208Z</time></trkpt><trkpt lat="51.8317083" lon="-9.52836"><ele>55.0</ele><time>2026-05-05T16:50:18.208Z</time></trkpt><trkpt lat="51.8319017" lon="-9.52838"><ele>55.0</ele><time>2026-05-05T16:50:19.209Z</time></trkpt><trkpt lat="51.8320983" lon="-9.5284017"><ele>55.0</ele><time>2026-05-05T16:50:20.209Z</time></trkpt><trkpt lat="51.8322917" lon="-9.528425"><ele>55.0</ele><time>2026-05-05T16:50:21.209Z</time></trkpt><trkpt lat="51.8324883" lon="-9.52845"><ele>54.666666666666664</ele><time>2026-05-05T16:50:22.209Z</time></trkpt><trkpt lat="51.8326933" lon="-9.5284683"><ele>54.33333333333333</ele><time>2026-05-05T16:50:23.208Z</time></trkpt><trkpt lat="51.8329033" lon="-9.5284967"><ele>54.0</ele><time>2026-05-05T16:50:24.209Z</time></trkpt><trkpt lat="51.833115" lon="-9.528525"><ele>54.0</ele><time>2026-05-05T16:50:25.209Z</time></trkpt><trkpt lat="51.833355" lon="-9.528615"><ele>54.0</ele><time>2026-05-05T16:50:26.209Z</time></trkpt><trkpt lat="51.833585" lon="-9.5286817"><ele>54.5</ele><time>2026-05-05T16:50:27.209Z</time></trkpt><trkpt lat="51.8338367" lon="-9.5288167"><ele>55.0</ele><time>2026-05-05T16:50:28.209Z</time></trkpt><trkpt lat="51.8340567" lon="-9.5288617"><ele>55.0</ele><time>2026-05-05T16:50:29.209Z</time></trkpt><trkpt lat="51.83427" lon="-9.5289067"><ele>55.0</ele><time>2026-05-05T16:50:30.208Z</time></trkpt><trkpt lat="51.8345033" lon="-9.5289717"><ele>54.0</ele><time>2026-05-05T16:50:31.209Z</time></trkpt><trkpt lat="51.8347267" lon="-9.5290283"><ele>53.0</ele><time>2026-05-05T16:50:32.209Z</time></trkpt><trkpt lat="51.834945" lon="-9.5290683"><ele>52.0</ele><time>2026-05-05T16:50:33.208Z</time></trkpt><trkpt lat="51.83516" lon="-9.5291"><ele>51.666666666666664</ele><time>2026-05-05T16:50:34.209Z</time></trkpt><trkpt lat="51.8353817" lon="-9.5291517"><ele>51.33333333333333</ele><time>2026-05-05T16:50:35.209Z</time></trkpt><trkpt lat="51.8356017" lon="-9.52918"><ele>51.0</ele><time>2026-05-05T16:50:36.209Z</time></trkpt><trkpt lat="51.8358167" lon="-9.5292083"><ele>51.33333333333333</ele><time>2026-05-05T16:50:37.209Z</time></trkpt><trkpt lat="51.8360283" lon="-9.5292383"><ele>51.666666666666664</ele><time>2026-05-05T16:50:38.209Z</time></trkpt><trkpt lat="51.8362267" lon="-9.5292667"><ele>52.0</ele><time>2026-05-05T16:50:39.208Z</time></trkpt><trkpt lat="51.83643" lon="-9.5292933"><ele>52.0</ele><time>2026-05-05T16:50:40.209Z</time></trkpt><trkpt lat="51.8366267" lon="-9.5292933"><ele>52.0</ele><time>2026-05-05T16:50:41.209Z</time></trkpt><trkpt lat="51.8368317" lon="-9.5293217"><ele>52.0</ele><time>2026-05-05T16:50:42.209Z</time></trkpt><trkpt lat="51.8370217" lon="-9.529305"><ele>52.0</ele><time>2026-05-05T16:50:43.208Z</time></trkpt><trkpt lat="51.83721" lon="-9.529305"><ele>52.0</ele><time>2026-05-05T16:50:44.208Z</time></trkpt><trkpt lat="51.83738" lon="-9.529295"><ele>52.0</ele><time>2026-05-05T16:50:45.209Z</time></trkpt><trkpt lat="51.837545" lon="-9.5292533"><ele>54.33333333333333</ele><time>2026-05-05T16:50:46.208Z</time></trkpt><trkpt lat="51.8377217" lon="-9.5291883"><ele>56.66666666666667</ele><time>2026-05-05T16:50:47.209Z</time></trkpt><trkpt lat="51.8378917" lon="-9.5290783"><ele>59.0</ele><time>2026-05-05T16:50:48.208Z</time></trkpt><trkpt lat="51.83806" lon="-9.5289133"><ele>59.0</ele><time>2026-05-05T16:50:49.209Z</time></trkpt><trkpt lat="51.8382283" lon="-9.52875"><ele>59.0</ele><time>2026-05-05T16:50:50.208Z</time></trkpt><trkpt lat="51.8384133" lon="-9.5286733"><ele>59.0</ele><time>2026-05-05T16:50:51.208Z</time></trkpt><trkpt lat="51.8386017" lon="-9.5285933"><ele>58.333333333333336</ele><time>2026-05-05T16:50:52.208Z</time></trkpt><trkpt lat="51.8387683" lon="-9.528425"><ele>57.66666666666667</ele><time>2026-05-05T16:50:53.209Z</time></trkpt><trkpt lat="51.83894" lon="-9.5282167"><ele>57.0</ele><time>2026-05-05T16:50:54.208Z</time></trkpt><trkpt lat="51.8390867" lon="-9.5279467"><ele>56.0</ele><time>2026-05-05T16:50:55.209Z</time></trkpt><trkpt lat="51.839215" lon="-9.5276683"><ele>55.0</ele><time>2026-05-05T16:50:56.208Z</time></trkpt><trkpt lat="51.8393817" lon="-9.5274817"><ele>54.0</ele><time>2026-05-05T16:50:57.209Z</time></trkpt><trkpt lat="51.8394867" lon="-9.5271683"><ele>54.0</ele><time>2026-05-05T16:50:58.209Z</time></trkpt><trkpt lat="51.83958" lon="-9.52683"><ele>54.0</ele><time>2026-05-05T16:50:59.209Z</time></trkpt><trkpt lat="51.83968" lon="-9.5265167"><ele>54.0</ele><time>2026-05-05T16:51:00.209Z</time></trkpt><trkpt lat="51.839795" lon="-9.5262333"><ele>54.33333333333333</ele><time>2026-05-05T16:51:01.209Z</time></trkpt><trkpt lat="51.8399083" lon="-9.5259683"><ele>54.666666666666664</ele><time>2026-05-05T16:51:02.209Z</time></trkpt><trkpt lat="51.8400217" lon="-9.52571"><ele>55.0</ele><time>2026-05-05T16:51:03.208Z</time></trkpt><trkpt lat="51.8401383" lon="-9.525475"><ele>55.0</ele><time>2026-05-05T16:51:04.208Z</time></trkpt><trkpt lat="51.8402583" lon="-9.5252333"><ele>55.0</ele><time>2026-05-05T16:51:05.208Z</time></trkpt><trkpt lat="51.8403783" lon="-9.5249867"><ele>55.0</ele><time>2026-05-05T16:51:06.208Z</time></trkpt><trkpt lat="51.8405" lon="-9.5247383"><ele>55.33333333333333</ele><time>2026-05-05T16:51:07.209Z</time></trkpt><trkpt lat="51.8406283" lon="-9.524495"><ele>55.66666666666667</ele><time>2026-05-05T16:51:08.209Z</time></trkpt><trkpt lat="51.8407167" lon="-9.5242167"><ele>56.0</ele><time>2026-05-05T16:51:09.208Z</time></trkpt><trkpt lat="51.8408517" lon="-9.5239883"><ele>56.66666666666667</ele><time>2026-05-05T16:51:10.209Z</time></trkpt><trkpt lat="51.840995" lon="-9.523775"><ele>57.33333333333333</ele><time>2026-05-05T16:51:11.209Z</time></trkpt><trkpt lat="51.84115" lon="-9.5235667"><ele>58.0</ele><time>2026-05-05T16:51:12.208Z</time></trkpt><trkpt lat="51.8413133" lon="-9.52338"><ele>58.0</ele><time>2026-05-05T16:51:13.209Z</time></trkpt><trkpt lat="51.84149" lon="-9.5232167"><ele>58.0</ele><time>2026-05-05T16:51:14.209Z</time></trkpt><trkpt lat="51.8416717" lon="-9.5230667"><ele>58.0</ele><time>2026-05-05T16:51:15.208Z</time></trkpt><trkpt lat="51.8418583" lon="-9.5229217"><ele>57.0</ele><time>2026-05-05T16:51:16.208Z</time></trkpt><trkpt lat="51.8420417" lon="-9.5227567"><ele>56.0</ele><time>2026-05-05T16:51:17.208Z</time></trkpt><trkpt lat="51.8422367" lon="-9.52259"><ele>55.0</ele><time>2026-05-05T16:51:18.208Z</time></trkpt><trkpt lat="51.8424267" lon="-9.5224317"><ele>54.0</ele><time>2026-05-05T16:51:19.209Z</time></trkpt><trkpt lat="51.842635" lon="-9.522315"><ele>53.0</ele><time>2026-05-05T16:51:20.209Z</time></trkpt><trkpt lat="51.8428517" lon="-9.522205"><ele>52.0</ele><time>2026-05-05T16:51:21.209Z</time></trkpt><trkpt lat="51.8430867" lon="-9.5221133"><ele>51.5</ele><time>2026-05-05T16:51:22.208Z</time></trkpt><trkpt lat="51.84333" lon="-9.5220217"><ele>51.0</ele><time>2026-05-05T16:51:23.209Z</time></trkpt><trkpt lat="51.8435733" lon="-9.521925"><ele>50.0</ele><time>2026-05-05T16:51:24.209Z</time></trkpt><trkpt lat="51.8438183" lon="-9.521825"><ele>49.0</ele><time>2026-05-05T16:51:25.209Z</time></trkpt><trkpt lat="51.8440633" lon="-9.52173"><ele>49.0</ele><time>2026-05-05T16:51:26.209Z</time></trkpt><trkpt lat="51.84431" lon="-9.5216283"><ele>49.0</ele><time>2026-05-05T16:51:27.208Z</time></trkpt><trkpt lat="51.844555" lon="-9.5215283"><ele>49.0</ele><time>2026-05-05T16:51:28.208Z</time></trkpt><trkpt lat="51.8447983" lon="-9.52143"><ele>49.0</ele><time>2026-05-05T16:51:29.209Z</time></trkpt><trkpt lat="51.8450367" lon="-9.5213317"><ele>49.5</ele><time>2026-05-05T16:51:30.208Z</time></trkpt><trkpt lat="51.8452667" lon="-9.521235"><ele>50.0</ele><time>2026-05-05T16:51:31.208Z</time></trkpt><trkpt lat="51.8455033" lon="-9.5211483"><ele>50.0</ele><time>2026-05-05T16:51:32.209Z</time></trkpt><trkpt lat="51.845735" lon="-9.5210583"><ele>50.0</ele><time>2026-05-05T16:51:33.209Z</time></trkpt><trkpt lat="51.8459617" lon="-9.5209567"><ele>52.0</ele><time>2026-05-05T16:51:34.209Z</time></trkpt><trkpt lat="51.8461883" lon="-9.520865"><ele>54.0</ele><time>2026-05-05T16:51:35.209Z</time></trkpt><trkpt lat="51.8464133" lon="-9.52078"><ele>54.0</ele><time>2026-05-05T16:51:36.208Z</time></trkpt><trkpt lat="51.8466367" lon="-9.5207083"><ele>54.0</ele><time>2026-05-05T16:51:37.209Z</time></trkpt><trkpt lat="51.846855" lon="-9.5206383"><ele>52.66666666666667</ele><time>2026-05-05T16:51:38.208Z</time></trkpt><trkpt lat="51.8470733" lon="-9.52059"><ele>51.333333333333336</ele><time>2026-05-05T16:51:39.208Z</time></trkpt><trkpt lat="51.84729" lon="-9.5205533"><ele>50.0</ele><time>2026-05-05T16:51:40.209Z</time></trkpt><trkpt lat="51.8475033" lon="-9.5205367"><ele>49.0</ele><time>2026-05-05T16:51:41.209Z</time></trkpt><trkpt lat="51.8477117" lon="-9.5205467"><ele>48.0</ele><time>2026-05-05T16:51:42.208Z</time></trkpt><trkpt lat="51.8479333" lon="-9.52059"><ele>47.0</ele><time>2026-05-05T16:51:43.208Z</time></trkpt><trkpt lat="51.8481467" lon="-9.520605"><ele>47.0</ele><time>2026-05-05T16:51:44.209Z</time></trkpt><trkpt lat="51.848375" lon="-9.5206517"><ele>47.0</ele><time>2026-05-05T16:51:45.209Z</time></trkpt><trkpt lat="51.8486017" lon="-9.5206817"><ele>47.0</ele><time>2026-05-05T16:51:46.209Z</time></trkpt><trkpt lat="51.8488367" lon="-9.5207133"><ele>47.0</ele><time>2026-05-05T16:51:47.209Z</time></trkpt><trkpt lat="51.8490683" lon="-9.5207383"><ele>48.0</ele><time>2026-05-05T16:51:48.209Z</time></trkpt><trkpt lat="51.8493033" lon="-9.5207633"><ele>49.0</ele><time>2026-05-05T16:51:49.209Z</time></trkpt><trkpt lat="51.849535" lon="-9.5207983"><ele>49.0</ele><time>2026-05-05T16:51:50.209Z</time></trkpt><trkpt lat="51.8497667" lon="-9.520835"><ele>49.0</ele><time>2026-05-05T16:51:51.208Z</time></trkpt><trkpt lat="51.8500067" lon="-9.5208917"><ele>47.0</ele><time>2026-05-05T16:51:52.209Z</time></trkpt><trkpt lat="51.8502433" lon="-9.52096"><ele>45.0</ele><time>2026-05-05T16:51:53.208Z</time></trkpt><trkpt lat="51.8504767" lon="-9.5210133"><ele>45.0</ele><time>2026-05-05T16:51:54.208Z</time></trkpt><trkpt lat="51.8507183" lon="-9.5211133"><ele>45.0</ele><time>2026-05-05T16:51:55.208Z</time></trkpt><trkpt lat="51.85096" lon="-9.5212417"><ele>46.5</ele><time>2026-05-05T16:51:56.209Z</time></trkpt><trkpt lat="51.8511967" lon="-9.5213767"><ele>48.0</ele><time>2026-05-05T16:51:57.209Z</time></trkpt><trkpt lat="51.85143" lon="-9.52153"><ele>48.0</ele><time>2026-05-05T16:51:58.208Z</time></trkpt><trkpt lat="51.8516417" lon="-9.5216867"><ele>48.0</ele><time>2026-05-05T16:51:59.208Z</time></trkpt><trkpt lat="51.8518633" lon="-9.5218383"><ele>47.5</ele><time>2026-05-05T16:52:00.208Z</time></trkpt><trkpt lat="51.8520817" lon="-9.521985"><ele>47.0</ele><time>2026-05-05T16:52:01.209Z</time></trkpt><trkpt lat="51.8522867" lon="-9.5221017"><ele>49.0</ele><time>2026-05-05T16:52:02.209Z</time></trkpt><trkpt lat="51.8524933" lon="-9.522205"><ele>51.0</ele><time>2026-05-05T16:52:03.209Z</time></trkpt><trkpt lat="51.8526583" lon="-9.522365"><ele>53.0</ele><time>2026-05-05T16:52:04.209Z</time></trkpt><trkpt lat="51.8528433" lon="-9.52243"><ele>53.0</ele><time>2026-05-05T16:52:05.208Z</time></trkpt><trkpt lat="51.85304" lon="-9.522385"><ele>53.0</ele><time>2026-05-05T16:52:06.208Z</time></trkpt><trkpt lat="51.85324" lon="-9.5223383"><ele>53.0</ele><time>2026-05-05T16:52:07.209Z</time></trkpt><trkpt lat="51.8534567" lon="-9.522315"><ele>51.0</ele><time>2026-05-05T16:52:08.208Z</time></trkpt><trkpt lat="51.8536667" lon="-9.5223083"><ele>49.0</ele><time>2026-05-05T16:52:09.209Z</time></trkpt><trkpt lat="51.8538683" lon="-9.5223167"><ele>47.0</ele><time>2026-05-05T16:52:10.209Z</time></trkpt><trkpt lat="51.8540517" lon="-9.5223383"><ele>47.0</ele><time>2026-05-05T16:52:11.208Z</time></trkpt><trkpt lat="51.8541767" lon="-9.522415"><ele>47.0</ele><time>2026-05-05T16:52:12.208Z</time></trkpt><trkpt lat="51.8542867" lon="-9.5225283"><ele>47.0</ele><time>2026-05-05T16:52:13.209Z</time></trkpt><trkpt lat="51.8544033" lon="-9.52269"><ele>47.0</ele><time>2026-05-05T16:52:14.208Z</time></trkpt><trkpt lat="51.854535" lon="-9.5229417"><ele>43.0</ele><time>2026-05-05T16:52:15.21Z</time></trkpt><trkpt lat="51.8546583" lon="-9.52321"><ele>39.0</ele><time>2026-05-05T16:52:16.209Z</time></trkpt><trkpt lat="51.854755" lon="-9.5234933"><ele>35.0</ele><time>2026-05-05T16:52:17.21Z</time></trkpt><trkpt lat="51.85487" lon="-9.5238267"><ele>35.0</ele><time>2026-05-05T16:52:18.21Z</time></trkpt><trkpt lat="51.854975" lon="-9.5241733"><ele>35.0</ele><time>2026-05-05T16:52:19.21Z</time></trkpt><trkpt lat="51.8550767" lon="-9.52452"><ele>34.5</ele><time>2026-05-05T16:52:20.21Z</time></trkpt><trkpt lat="51.855175" lon="-9.524875"><ele>34.0</ele><time>2026-05-05T16:52:21.21Z</time></trkpt><trkpt lat="51.8552717" lon="-9.5252433"><ele>34.0</ele><time>2026-05-05T16:52:22.21Z</time></trkpt><trkpt lat="51.8553733" lon="-9.52561"><ele>34.0</ele><time>2026-05-05T16:52:23.21Z</time></trkpt><trkpt lat="51.85548" lon="-9.5259783"><ele>34.0</ele><time>2026-05-05T16:52:24.209Z</time></trkpt><trkpt lat="51.85559" lon="-9.5263483"><ele>34.0</ele><time>2026-05-05T16:52:25.209Z</time></trkpt><trkpt lat="51.8557" lon="-9.52673"><ele>34.0</ele><time>2026-05-05T16:52:26.21Z</time></trkpt><trkpt lat="51.8558067" lon="-9.52711"><ele>34.0</ele><time>2026-05-05T16:52:27.209Z</time></trkpt><trkpt lat="51.8559133" lon="-9.5274833"><ele>34.0</ele><time>2026-05-05T16:52:28.21Z</time></trkpt><trkpt lat="51.856025" lon="-9.527855"><ele>34.0</ele><time>2026-05-05T16:52:29.21Z</time></trkpt><trkpt lat="51.8561333" lon="-9.5282317"><ele>34.0</ele><time>2026-05-05T16:52:30.209Z</time></trkpt><trkpt lat="51.8562367" lon="-9.5286117"><ele>34.0</ele><time>2026-05-05T16:52:31.209Z</time></trkpt><trkpt lat="51.8563383" lon="-9.5289867"><ele>34.0</ele><time>2026-05-05T16:52:32.209Z</time></trkpt><trkpt lat="51.8564483" lon="-9.529355"><ele>34.0</ele><time>2026-05-05T16:52:33.209Z</time></trkpt><trkpt lat="51.8565617" lon="-9.5297167"><ele>34.0</ele><time>2026-05-05T16:52:34.209Z</time></trkpt><trkpt lat="51.856675" lon="-9.5300817"><ele>34.0</ele><time>2026-05-05T16:52:35.209Z</time></trkpt><trkpt lat="51.8567867" lon="-9.5304383"><ele>36.0</ele><time>2026-05-05T16:52:36.21Z</time></trkpt><trkpt lat="51.8569017" lon="-9.53078"><ele>38.0</ele><time>2026-05-05T16:52:37.209Z</time></trkpt><trkpt lat="51.8570133" lon="-9.5311133"><ele>40.0</ele><time>2026-05-05T16:52:38.21Z</time></trkpt><trkpt lat="51.85712" lon="-9.5314533"><ele>42.0</ele><time>2026-05-05T16:52:39.209Z</time></trkpt><trkpt lat="51.8572283" lon="-9.5318017"><ele>42.5</ele><time>2026-05-05T16:52:40.21Z</time></trkpt><trkpt lat="51.8573283" lon="-9.5321517"><ele>43.0</ele><time>2026-05-05T16:52:41.21Z</time></trkpt><trkpt lat="51.85743" lon="-9.532495"><ele>43.0</ele><time>2026-05-05T16:52:42.21Z</time></trkpt><trkpt lat="51.85752" lon="-9.532835"><ele>43.0</ele><time>2026-05-05T16:52:43.209Z</time></trkpt><trkpt lat="51.8576033" lon="-9.5331667"><ele>41.0</ele><time>2026-05-05T16:52:44.209Z</time></trkpt><trkpt lat="51.85769" lon="-9.5335033"><ele>39.0</ele><time>2026-05-05T16:52:45.21Z</time></trkpt><trkpt lat="51.857775" lon="-9.53384"><ele>38.0</ele><time>2026-05-05T16:52:46.209Z</time></trkpt><trkpt lat="51.85786" lon="-9.5341817"><ele>37.0</ele><time>2026-05-05T16:52:47.21Z</time></trkpt><trkpt lat="51.85794" lon="-9.5345333"><ele>36.0</ele><time>2026-05-05T16:52:48.209Z</time></trkpt><trkpt lat="51.85803" lon="-9.5348867"><ele>35.0</ele><time>2026-05-05T16:52:49.21Z</time></trkpt><trkpt lat="51.8581167" lon="-9.5352383"><ele>35.0</ele><time>2026-05-05T16:52:50.209Z</time></trkpt><trkpt lat="51.8582017" lon="-9.5355883"><ele>35.0</ele><time>2026-05-05T16:52:51.209Z</time></trkpt><trkpt lat="51.8582883" lon="-9.5359417"><ele>35.0</ele><time>2026-05-05T16:52:52.21Z</time></trkpt><trkpt lat="51.8583017" lon="-9.53632"><ele>35.0</ele><time>2026-05-05T16:52:53.21Z</time></trkpt><trkpt lat="51.85835" lon="-9.5366883"><ele>35.0</ele><time>2026-05-05T16:52:54.21Z</time></trkpt><trkpt lat="51.8584217" lon="-9.537045"><ele>35.0</ele><time>2026-05-05T16:52:55.209Z</time></trkpt><trkpt lat="51.8584883" lon="-9.5374067"><ele>35.0</ele><time>2026-05-05T16:52:56.21Z</time></trkpt><trkpt lat="51.8585483" lon="-9.537785"><ele>35.0</ele><time>2026-05-05T16:52:57.21Z</time></trkpt><trkpt lat="51.8586083" lon="-9.5381617"><ele>35.0</ele><time>2026-05-05T16:52:58.21Z</time></trkpt><trkpt lat="51.8586483" lon="-9.53854"><ele>35.0</ele><time>2026-05-05T16:52:59.21Z</time></trkpt><trkpt lat="51.8586733" lon="-9.538905"><ele>35.666666666666664</ele><time>2026-05-05T16:53:00.21Z</time></trkpt><trkpt lat="51.8587133" lon="-9.539255"><ele>36.333333333333336</ele><time>2026-05-05T16:53:01.21Z</time></trkpt><trkpt lat="51.858765" lon="-9.5396"><ele>37.0</ele><time>2026-05-05T16:53:02.21Z</time></trkpt><trkpt lat="51.8588167" lon="-9.5399567"><ele>37.5</ele><time>2026-05-05T16:53:03.21Z</time></trkpt><trkpt lat="51.8588717" lon="-9.54031"><ele>38.0</ele><time>2026-05-05T16:53:04.209Z</time></trkpt><trkpt lat="51.85893" lon="-9.5406683"><ele>38.0</ele><time>2026-05-05T16:53:05.209Z</time></trkpt><trkpt lat="51.858995" lon="-9.5409817"><ele>38.0</ele><time>2026-05-05T16:53:06.21Z</time></trkpt><trkpt lat="51.8590333" lon="-9.541375"><ele>37.5</ele><time>2026-05-05T16:53:07.21Z</time></trkpt><trkpt lat="51.8590733" lon="-9.5417717"><ele>37.0</ele><time>2026-05-05T16:53:08.209Z</time></trkpt><trkpt lat="51.8591117" lon="-9.54218"><ele>36.5</ele><time>2026-05-05T16:53:09.209Z</time></trkpt><trkpt lat="51.85916" lon="-9.54254"><ele>36.0</ele><time>2026-05-05T16:53:10.21Z</time></trkpt><trkpt lat="51.8592033" lon="-9.5429083"><ele>36.0</ele><time>2026-05-05T16:53:11.21Z</time></trkpt><trkpt lat="51.859245" lon="-9.54327"><ele>36.0</ele><time>2026-05-05T16:53:12.21Z</time></trkpt><trkpt lat="51.859295" lon="-9.5436367"><ele>32.5</ele><time>2026-05-05T16:53:13.21Z</time></trkpt><trkpt lat="51.8593383" lon="-9.5440167"><ele>29.0</ele><time>2026-05-05T16:53:14.21Z</time></trkpt><trkpt lat="51.859385" lon="-9.5443833"><ele>29.0</ele><time>2026-05-05T16:53:15.209Z</time></trkpt><trkpt lat="51.859435" lon="-9.5447333"><ele>29.0</ele><time>2026-05-05T16:53:16.209Z</time></trkpt><trkpt lat="51.85949" lon="-9.5450817"><ele>29.0</ele><time>2026-05-05T16:53:17.21Z</time></trkpt><trkpt lat="51.85955" lon="-9.545425"><ele>29.0</ele><time>2026-05-05T16:53:18.209Z</time></trkpt><trkpt lat="51.8596267" lon="-9.5457533"><ele>29.0</ele><time>2026-05-05T16:53:19.21Z</time></trkpt><trkpt lat="51.85972" lon="-9.5460733"><ele>29.0</ele><time>2026-05-05T16:53:20.21Z</time></trkpt><trkpt lat="51.85983" lon="-9.5463633"><ele>29.0</ele><time>2026-05-05T16:53:21.21Z</time></trkpt><trkpt lat="51.8600017" lon="-9.546575"><ele>29.0</ele><time>2026-05-05T16:53:22.21Z</time></trkpt><trkpt lat="51.86021" lon="-9.5467167"><ele>29.0</ele><time>2026-05-05T16:53:23.209Z</time></trkpt><trkpt lat="51.8603833" lon="-9.546895"><ele>29.333333333333332</ele><time>2026-05-05T16:53:24.209Z</time></trkpt><trkpt lat="51.8605717" lon="-9.5470383"><ele>29.666666666666664</ele><time>2026-05-05T16:53:25.209Z</time></trkpt><trkpt lat="51.860765" lon="-9.5471933"><ele>30.0</ele><time>2026-05-05T16:53:26.21Z</time></trkpt><trkpt lat="51.8609667" lon="-9.54734"><ele>31.0</ele><time>2026-05-05T16:53:27.21Z</time></trkpt><trkpt lat="51.8611733" lon="-9.54747"><ele>32.0</ele><time>2026-05-05T16:53:28.209Z</time></trkpt><trkpt lat="51.8613767" lon="-9.5476117"><ele>33.0</ele><time>2026-05-05T16:53:29.21Z</time></trkpt><trkpt lat="51.8616067" lon="-9.5476817"><ele>33.0</ele><time>2026-05-05T16:53:30.21Z</time></trkpt><trkpt lat="51.8618233" lon="-9.5477883"><ele>33.0</ele><time>2026-05-05T16:53:31.21Z</time></trkpt><trkpt lat="51.8620417" lon="-9.5478983"><ele>33.666666666666664</ele><time>2026-05-05T16:53:32.21Z</time></trkpt><trkpt lat="51.8622583" lon="-9.548005"><ele>34.33333333333333</ele><time>2026-05-05T16:53:33.21Z</time></trkpt><trkpt lat="51.8624683" lon="-9.5480833"><ele>35.0</ele><time>2026-05-05T16:53:34.209Z</time></trkpt><trkpt lat="51.8626717" lon="-9.5481617"><ele>35.0</ele><time>2026-05-05T16:53:35.209Z</time></trkpt><trkpt lat="51.8628883" lon="-9.54832"><ele>35.0</ele><time>2026-05-05T16:53:36.21Z</time></trkpt><trkpt lat="51.8630967" lon="-9.54842"><ele>35.0</ele><time>2026-05-05T16:53:37.209Z</time></trkpt><trkpt lat="51.8633083" lon="-9.5485083"><ele>35.0</ele><time>2026-05-05T16:53:38.209Z</time></trkpt><trkpt lat="51.8635133" lon="-9.54859"><ele>35.0</ele><time>2026-05-05T16:53:39.21Z</time></trkpt><trkpt lat="51.8637267" lon="-9.54869"><ele>35.0</ele><time>2026-05-05T16:53:40.21Z</time></trkpt><trkpt lat="51.86394" lon="-9.5487867"><ele>35.0</ele><time>2026-05-05T16:53:41.21Z</time></trkpt><trkpt lat="51.8641483" lon="-9.5488717"><ele>35.0</ele><time>2026-05-05T16:53:42.21Z</time></trkpt><trkpt lat="51.8643733" lon="-9.54898"><ele>33.0</ele><time>2026-05-05T16:53:43.21Z</time></trkpt><trkpt lat="51.864605" lon="-9.5490867"><ele>31.0</ele><time>2026-05-05T16:53:44.209Z</time></trkpt><trkpt lat="51.8648417" lon="-9.5491933"><ele>31.0</ele><time>2026-05-05T16:53:45.21Z</time></trkpt><trkpt lat="51.8650717" lon="-9.5493"><ele>31.0</ele><time>2026-05-05T16:53:46.21Z</time></trkpt><trkpt lat="51.8653017" lon="-9.5494017"><ele>30.5</ele><time>2026-05-05T16:53:47.209Z</time></trkpt><trkpt lat="51.8655333" lon="-9.549495"><ele>30.0</ele><time>2026-05-05T16:53:48.21Z</time></trkpt><trkpt lat="51.865775" lon="-9.5496017"><ele>31.5</ele><time>2026-05-05T16:53:49.21Z</time></trkpt><trkpt lat="51.86601" lon="-9.549695"><ele>33.0</ele><time>2026-05-05T16:53:50.21Z</time></trkpt><trkpt lat="51.8662533" lon="-9.549785"><ele>33.0</ele><time>2026-05-05T16:53:51.21Z</time></trkpt><trkpt lat="51.8664683" lon="-9.54982"><ele>33.0</ele><time>2026-05-05T16:53:52.21Z</time></trkpt><trkpt lat="51.86669" lon="-9.54989"><ele>33.0</ele><time>2026-05-05T16:53:53.21Z</time></trkpt><trkpt lat="51.86691" lon="-9.5499767"><ele>32.0</ele><time>2026-05-05T16:53:54.21Z</time></trkpt><trkpt lat="51.8671083" lon="-9.550065"><ele>31.0</ele><time>2026-05-05T16:53:55.21Z</time></trkpt><trkpt lat="51.8673017" lon="-9.5501533"><ele>30.0</ele><time>2026-05-05T16:53:56.209Z</time></trkpt><trkpt lat="51.867495" lon="-9.5502683"><ele>30.0</ele><time>2026-05-05T16:53:57.209Z</time></trkpt><trkpt lat="51.8676717" lon="-9.55039"><ele>30.0</ele><time>2026-05-05T16:53:58.21Z</time></trkpt><trkpt lat="51.8678367" lon="-9.5505167"><ele>30.0</ele><time>2026-05-05T16:53:59.209Z</time></trkpt><trkpt lat="51.8679983" lon="-9.5506667"><ele>30.0</ele><time>2026-05-05T16:54:00.209Z</time></trkpt><trkpt lat="51.8681483" lon="-9.5508533"><ele>30.0</ele><time>2026-05-05T16:54:01.209Z</time></trkpt><trkpt lat="51.868295" lon="-9.551055"><ele>30.0</ele><time>2026-05-05T16:54:02.21Z</time></trkpt><trkpt lat="51.8684117" lon="-9.551325"><ele>31.0</ele><time>2026-05-05T16:54:03.209Z</time></trkpt><trkpt lat="51.8685033" lon="-9.5516667"><ele>32.0</ele><time>2026-05-05T16:54:04.209Z</time></trkpt><trkpt lat="51.8686183" lon="-9.551995"><ele>32.33333333333333</ele><time>2026-05-05T16:54:05.21Z</time></trkpt><trkpt lat="51.8687317" lon="-9.5523033"><ele>32.666666666666664</ele><time>2026-05-05T16:54:06.21Z</time></trkpt><trkpt lat="51.8688517" lon="-9.5525733"><ele>33.0</ele><time>2026-05-05T16:54:07.21Z</time></trkpt><trkpt lat="51.868975" lon="-9.55282"><ele>33.0</ele><time>2026-05-05T16:54:08.21Z</time></trkpt><trkpt lat="51.8691117" lon="-9.5530733"><ele>33.0</ele><time>2026-05-05T16:54:09.21Z</time></trkpt><trkpt lat="51.86926" lon="-9.5532717"><ele>33.0</ele><time>2026-05-05T16:54:10.209Z</time></trkpt><trkpt lat="51.8694083" lon="-9.5534667"><ele>31.333333333333336</ele><time>2026-05-05T16:54:11.21Z</time></trkpt><trkpt lat="51.86956" lon="-9.5536417"><ele>29.666666666666668</ele><time>2026-05-05T16:54:12.21Z</time></trkpt><trkpt lat="51.8697217" lon="-9.55381"><ele>28.0</ele><time>2026-05-05T16:54:13.21Z</time></trkpt><trkpt lat="51.869885" lon="-9.553955"><ele>28.0</ele><time>2026-05-05T16:54:14.21Z</time></trkpt><trkpt lat="51.8700367" lon="-9.5540883"><ele>28.0</ele><time>2026-05-05T16:54:15.21Z</time></trkpt><trkpt lat="51.8701867" lon="-9.5542117"><ele>28.0</ele><time>2026-05-05T16:54:16.209Z</time></trkpt><trkpt lat="51.870335" lon="-9.5543133"><ele>28.333333333333336</ele><time>2026-05-05T16:54:17.21Z</time></trkpt><trkpt lat="51.87049" lon="-9.5544117"><ele>28.666666666666664</ele><time>2026-05-05T16:54:18.209Z</time></trkpt><trkpt lat="51.87065" lon="-9.554505"><ele>29.0</ele><time>2026-05-05T16:54:19.21Z</time></trkpt><trkpt lat="51.87081" lon="-9.5546017"><ele>30.0</ele><time>2026-05-05T16:54:20.21Z</time></trkpt><trkpt lat="51.8709733" lon="-9.5547083"><ele>31.0</ele><time>2026-05-05T16:54:21.21Z</time></trkpt><trkpt lat="51.871145" lon="-9.5548483"><ele>32.0</ele><time>2026-05-05T16:54:22.21Z</time></trkpt><trkpt lat="51.8713033" lon="-9.5549917"><ele>32.0</ele><time>2026-05-05T16:54:23.21Z</time></trkpt><trkpt lat="51.8714533" lon="-9.5551367"><ele>32.0</ele><time>2026-05-05T16:54:24.21Z</time></trkpt><trkpt lat="51.871595" lon="-9.5552867"><ele>32.0</ele><time>2026-05-05T16:54:25.21Z</time></trkpt><trkpt lat="51.8717367" lon="-9.5554583"><ele>28.666666666666664</ele><time>2026-05-05T16:54:26.209Z</time></trkpt><trkpt lat="51.8718533" lon="-9.5556033"><ele>25.333333333333332</ele><time>2026-05-05T16:54:27.209Z</time></trkpt><trkpt lat="51.8719517" lon="-9.555815"><ele>22.0</ele><time>2026-05-05T16:54:28.209Z</time></trkpt><trkpt lat="51.87202" lon="-9.5560583"><ele>22.0</ele><time>2026-05-05T16:54:29.21Z</time></trkpt><trkpt lat="51.872065" lon="-9.5563333"><ele>22.0</ele><time>2026-05-05T16:54:30.209Z</time></trkpt><trkpt lat="51.8720917" lon="-9.5565917"><ele>22.0</ele><time>2026-05-05T16:54:31.21Z</time></trkpt><trkpt lat="51.872095" lon="-9.5568867"><ele>21.0</ele><time>2026-05-05T16:54:32.209Z</time></trkpt><trkpt lat="51.8721117" lon="-9.5572367"><ele>20.0</ele><time>2026-05-05T16:54:33.209Z</time></trkpt><trkpt lat="51.8721067" lon="-9.55766"><ele>18.0</ele><time>2026-05-05T16:54:34.21Z</time></trkpt><trkpt lat="51.872135" lon="-9.5579417"><ele>16.0</ele><time>2026-05-05T16:54:35.209Z</time></trkpt><trkpt lat="51.8721167" lon="-9.55843"><ele>16.0</ele><time>2026-05-05T16:54:36.21Z</time></trkpt><trkpt lat="51.8720833" lon="-9.5589383"><ele>16.0</ele><time>2026-05-05T16:54:37.209Z</time></trkpt><trkpt lat="51.8719567" lon="-9.5594133"><ele>16.0</ele><time>2026-05-05T16:54:38.21Z</time></trkpt><trkpt lat="51.871895" lon="-9.559815"><ele>16.0</ele><time>2026-05-05T16:54:39.209Z</time></trkpt><trkpt lat="51.87188" lon="-9.5601833"><ele>15.0</ele><time>2026-05-05T16:54:40.21Z</time></trkpt><trkpt lat="51.8718667" lon="-9.560545"><ele>14.0</ele><time>2026-05-05T16:54:41.21Z</time></trkpt><trkpt lat="51.8718133" lon="-9.5608883"><ele>13.0</ele><time>2026-05-05T16:54:42.209Z</time></trkpt><trkpt lat="51.871775" lon="-9.561225"><ele>16.333333333333332</ele><time>2026-05-05T16:54:43.21Z</time></trkpt><trkpt lat="51.8717183" lon="-9.5615617"><ele>19.666666666666668</ele><time>2026-05-05T16:54:44.21Z</time></trkpt><trkpt lat="51.871645" lon="-9.56189"><ele>23.0</ele><time>2026-05-05T16:54:45.21Z</time></trkpt><trkpt lat="51.87157" lon="-9.5622133"><ele>23.0</ele><time>2026-05-05T16:54:46.21Z</time></trkpt><trkpt lat="51.8715" lon="-9.562595"><ele>23.0</ele><time>2026-05-05T16:54:47.21Z</time></trkpt><trkpt lat="51.8714217" lon="-9.563"><ele>22.0</ele><time>2026-05-05T16:54:48.21Z</time></trkpt><trkpt lat="51.871315" lon="-9.5634033"><ele>21.0</ele><time>2026-05-05T16:54:49.21Z</time></trkpt><trkpt lat="51.871235" lon="-9.5638083"><ele>20.5</ele><time>2026-05-05T16:54:50.21Z</time></trkpt><trkpt lat="51.87116" lon="-9.5642133"><ele>20.0</ele><time>2026-05-05T16:54:51.21Z</time></trkpt><trkpt lat="51.8710917" lon="-9.56462"><ele>21.0</ele><time>2026-05-05T16:54:52.21Z</time></trkpt><trkpt lat="51.8710183" lon="-9.56501"><ele>22.0</ele><time>2026-05-05T16:54:53.209Z</time></trkpt><trkpt lat="51.8709517" lon="-9.5654067"><ele>22.5</ele><time>2026-05-05T16:54:54.21Z</time></trkpt><trkpt lat="51.870885" lon="-9.5658"><ele>23.0</ele><time>2026-05-05T16:54:55.21Z</time></trkpt><trkpt lat="51.8708083" lon="-9.566195"><ele>23.5</ele><time>2026-05-05T16:54:56.21Z</time></trkpt><trkpt lat="51.870735" lon="-9.5665783"><ele>24.0</ele><time>2026-05-05T16:54:57.21Z</time></trkpt><trkpt lat="51.8706733" lon="-9.5669533"><ele>25.0</ele><time>2026-05-05T16:54:58.21Z</time></trkpt><trkpt lat="51.8706" lon="-9.56732"><ele>26.0</ele><time>2026-05-05T16:54:59.21Z</time></trkpt><trkpt lat="51.8705267" lon="-9.5676967"><ele>27.0</ele><time>2026-05-05T16:55:00.209Z</time></trkpt><trkpt lat="51.8704633" lon="-9.56808"><ele>28.0</ele><time>2026-05-05T16:55:01.21Z</time></trkpt><trkpt lat="51.87042" lon="-9.5684583"><ele>28.0</ele><time>2026-05-05T16:55:02.21Z</time></trkpt><trkpt lat="51.87038" lon="-9.5688383"><ele>28.0</ele><time>2026-05-05T16:55:03.21Z</time></trkpt><trkpt lat="51.87033" lon="-9.5692267"><ele>27.0</ele><time>2026-05-05T16:55:04.21Z</time></trkpt><trkpt lat="51.8702717" lon="-9.5696117"><ele>26.0</ele><time>2026-05-05T16:55:05.209Z</time></trkpt><trkpt lat="51.8702217" lon="-9.5699917"><ele>26.0</ele><time>2026-05-05T16:55:06.21Z</time></trkpt><trkpt lat="51.87016" lon="-9.5703717"><ele>26.0</ele><time>2026-05-05T16:55:07.21Z</time></trkpt><trkpt lat="51.8701183" lon="-9.570785"><ele>26.0</ele><time>2026-05-05T16:55:08.21Z</time></trkpt><trkpt lat="51.8700633" lon="-9.5711983"><ele>26.0</ele><time>2026-05-05T16:55:09.21Z</time></trkpt><trkpt lat="51.87002" lon="-9.5716167"><ele>25.5</ele><time>2026-05-05T16:55:10.209Z</time></trkpt><trkpt lat="51.8699633" lon="-9.572055"><ele>25.0</ele><time>2026-05-05T16:55:11.21Z</time></trkpt><trkpt lat="51.8699267" lon="-9.572535"><ele>24.0</ele><time>2026-05-05T16:55:12.21Z</time></trkpt><trkpt lat="51.86988" lon="-9.5729967"><ele>23.0</ele><time>2026-05-05T16:55:13.21Z</time></trkpt><trkpt lat="51.8698317" lon="-9.573445"><ele>22.5</ele><time>2026-05-05T16:55:14.21Z</time></trkpt><trkpt lat="51.869765" lon="-9.57385"><ele>22.0</ele><time>2026-05-05T16:55:15.21Z</time></trkpt><trkpt lat="51.8696967" lon="-9.5742383"><ele>21.5</ele><time>2026-05-05T16:55:16.21Z</time></trkpt><trkpt lat="51.8696267" lon="-9.5746217"><ele>21.0</ele><time>2026-05-05T16:55:17.21Z</time></trkpt><trkpt lat="51.869545" lon="-9.57499"><ele>20.5</ele><time>2026-05-05T16:55:18.21Z</time></trkpt><trkpt lat="51.869485" lon="-9.57536"><ele>20.0</ele><time>2026-05-05T16:55:19.21Z</time></trkpt><trkpt lat="51.8694117" lon="-9.5757267"><ele>20.0</ele><time>2026-05-05T16:55:20.209Z</time></trkpt><trkpt lat="51.8693117" lon="-9.5760267"><ele>20.0</ele><time>2026-05-05T16:55:21.21Z</time></trkpt><trkpt lat="51.8692583" lon="-9.5762533"><ele>20.0</ele><time>2026-05-05T16:55:22.209Z</time></trkpt><trkpt lat="51.8692317" lon="-9.5764983"><ele>21.75</ele><time>2026-05-05T16:55:23.21Z</time></trkpt><trkpt lat="51.8692033" lon="-9.5767367"><ele>23.5</ele><time>2026-05-05T16:55:24.209Z</time></trkpt><trkpt lat="51.8691867" lon="-9.576975"><ele>25.25</ele><time>2026-05-05T16:55:25.21Z</time></trkpt><trkpt lat="51.869195" lon="-9.57717"><ele>27.0</ele><time>2026-05-05T16:55:26.21Z</time></trkpt><trkpt lat="51.86922" lon="-9.5773983"><ele>27.0</ele><time>2026-05-05T16:55:27.21Z</time></trkpt><trkpt lat="51.8692583" lon="-9.577605"><ele>27.0</ele><time>2026-05-05T16:55:28.209Z</time></trkpt><trkpt lat="51.8693617" lon="-9.57781"><ele>27.0</ele><time>2026-05-05T16:55:29.21Z</time></trkpt><trkpt lat="51.8693767" lon="-9.5780167"><ele>27.0</ele><time>2026-05-05T16:55:30.209Z</time></trkpt><trkpt lat="51.8694183" lon="-9.5782417"><ele>24.333333333333332</ele><time>2026-05-05T16:55:31.204Z</time></trkpt><trkpt lat="51.86945" lon="-9.5784817"><ele>21.666666666666664</ele><time>2026-05-05T16:55:32.21Z</time></trkpt><trkpt lat="51.8695033" lon="-9.5787117"><ele>19.0</ele><time>2026-05-05T16:55:33.209Z</time></trkpt><trkpt lat="51.8695117" lon="-9.5789933"><ele>17.333333333333332</ele><time>2026-05-05T16:55:34.21Z</time></trkpt><trkpt lat="51.8695117" lon="-9.5792233"><ele>15.666666666666668</ele><time>2026-05-05T16:55:35.21Z</time></trkpt><trkpt lat="51.86956" lon="-9.5795017"><ele>14.0</ele><time>2026-05-05T16:55:36.209Z</time></trkpt><trkpt lat="51.8696533" lon="-9.5798333"><ele>13.0</ele><time>2026-05-05T16:55:37.209Z</time></trkpt><trkpt lat="51.8697467" lon="-9.5801283"><ele>12.0</ele><time>2026-05-05T16:55:38.21Z</time></trkpt><trkpt lat="51.8698317" lon="-9.5803967"><ele>11.0</ele><time>2026-05-05T16:55:39.21Z</time></trkpt><trkpt lat="51.8699033" lon="-9.5806167"><ele>11.0</ele><time>2026-05-05T16:55:40.21Z</time></trkpt><trkpt lat="51.8699733" lon="-9.5808233"><ele>11.0</ele><time>2026-05-05T16:55:41.209Z</time></trkpt><trkpt lat="51.8700517" lon="-9.5810617"><ele>11.0</ele><time>2026-05-05T16:55:42.21Z</time></trkpt><trkpt lat="51.8701433" lon="-9.5812567"><ele>8.75</ele><time>2026-05-05T16:55:43.21Z</time></trkpt><trkpt lat="51.87021" lon="-9.5814833"><ele>6.5</ele><time>2026-05-05T16:55:44.21Z</time></trkpt><trkpt lat="51.870295" lon="-9.5816683"><ele>4.25</ele><time>2026-05-05T16:55:45.21Z</time></trkpt><trkpt lat="51.8703817" lon="-9.5816967"><ele>2.0</ele><time>2026-05-05T16:55:46.21Z</time></trkpt><trkpt lat="51.8704917" lon="-9.5817883"><ele>2.0</ele><time>2026-05-05T16:55:47.21Z</time></trkpt><trkpt lat="51.87061" lon="-9.58186"><ele>2.0</ele><time>2026-05-05T16:55:48.21Z</time></trkpt><trkpt lat="51.8707117" lon="-9.5819183"><ele>2.0</ele><time>2026-05-05T16:55:49.209Z</time></trkpt><trkpt lat="51.87081" lon="-9.5819967"><ele>2.0</ele><time>2026-05-05T16:55:50.209Z</time></trkpt><trkpt lat="51.8709283" lon="-9.582095"><ele>2.5</ele><time>2026-05-05T16:55:51.21Z</time></trkpt><trkpt lat="51.8710383" lon="-9.5821717"><ele>3.0</ele><time>2026-05-05T16:55:52.209Z</time></trkpt><trkpt lat="51.8711433" lon="-9.5822483"><ele>3.5</ele><time>2026-05-05T16:55:53.21Z</time></trkpt><trkpt lat="51.8712483" lon="-9.5823367"><ele>4.0</ele><time>2026-05-05T16:55:54.21Z</time></trkpt><trkpt lat="51.8713567" lon="-9.5824217"><ele>4.0</ele><time>2026-05-05T16:55:55.209Z</time></trkpt><trkpt lat="51.8714633" lon="-9.5825117"><ele>4.0</ele><time>2026-05-05T16:55:56.21Z</time></trkpt><trkpt lat="51.8715783" lon="-9.5826033"><ele>4.0</ele><time>2026-05-05T16:55:57.21Z</time></trkpt><trkpt lat="51.8717017" lon="-9.5826933"><ele>4.0</ele><time>2026-05-05T16:55:58.21Z</time></trkpt><trkpt lat="51.8718333" lon="-9.5827933"><ele>4.25</ele><time>2026-05-05T16:55:59.209Z</time></trkpt><trkpt lat="51.8719617" lon="-9.582895"><ele>4.5</ele><time>2026-05-05T16:56:00.209Z</time></trkpt><trkpt lat="51.8720867" lon="-9.5829933"><ele>4.75</ele><time>2026-05-05T16:56:01.21Z</time></trkpt><trkpt lat="51.8722067" lon="-9.5830883"><ele>5.0</ele><time>2026-05-05T16:56:02.209Z</time></trkpt><trkpt lat="51.8723333" lon="-9.58318"><ele>5.0</ele><time>2026-05-05T16:56:03.21Z</time></trkpt><trkpt lat="51.872455" lon="-9.5832733"><ele>5.0</ele><time>2026-05-05T16:56:04.21Z</time></trkpt><trkpt lat="51.8725817" lon="-9.58337"><ele>5.0</ele><time>2026-05-05T16:56:05.21Z</time></trkpt><trkpt lat="51.87271" lon="-9.5834667"><ele>5.0</ele><time>2026-05-05T16:56:06.21Z</time></trkpt><trkpt lat="51.87283" lon="-9.5835667"><ele>5.25</ele><time>2026-05-05T16:56:07.21Z</time></trkpt><trkpt lat="51.8729533" lon="-9.5836733"><ele>5.5</ele><time>2026-05-05T16:56:08.21Z</time></trkpt><trkpt lat="51.8730767" lon="-9.583775"><ele>5.75</ele><time>2026-05-05T16:56:09.21Z</time></trkpt><trkpt lat="51.8732183" lon="-9.5838633"><ele>6.0</ele><time>2026-05-05T16:56:10.21Z</time></trkpt><trkpt lat="51.8733633" lon="-9.583955"><ele>5.333333333333333</ele><time>2026-05-05T16:56:11.21Z</time></trkpt><trkpt lat="51.8735283" lon="-9.5840017"><ele>4.666666666666666</ele><time>2026-05-05T16:56:12.21Z</time></trkpt><trkpt lat="51.8737067" lon="-9.5839517"><ele>4.0</ele><time>2026-05-05T16:56:13.21Z</time></trkpt><trkpt lat="51.87389" lon="-9.5839483"><ele>4.0</ele><time>2026-05-05T16:56:14.209Z</time></trkpt><trkpt lat="51.8740667" lon="-9.5839567"><ele>4.0</ele><time>2026-05-05T16:56:15.209Z</time></trkpt><trkpt lat="51.8742433" lon="-9.5839717"><ele>4.0</ele><time>2026-05-05T16:56:16.21Z</time></trkpt><trkpt lat="51.8744217" lon="-9.583985"><ele>5.0</ele><time>2026-05-05T16:56:17.21Z</time></trkpt><trkpt lat="51.8745983" lon="-9.583995"><ele>6.0</ele><time>2026-05-05T16:56:18.209Z</time></trkpt><trkpt lat="51.8747533" lon="-9.5839767"><ele>7.0</ele><time>2026-05-05T16:56:19.21Z</time></trkpt><trkpt lat="51.87492" lon="-9.58398"><ele>7.0</ele><time>2026-05-05T16:56:20.21Z</time></trkpt><trkpt lat="51.8750883" lon="-9.58397"><ele>7.0</ele><time>2026-05-05T16:56:21.209Z</time></trkpt><trkpt lat="51.8752367" lon="-9.5839383"><ele>7.0</ele><time>2026-05-05T16:56:22.21Z</time></trkpt><trkpt lat="51.875385" lon="-9.5839283"><ele>8.666666666666668</ele><time>2026-05-05T16:56:23.21Z</time></trkpt><trkpt lat="51.87554" lon="-9.5839033"><ele>10.333333333333334</ele><time>2026-05-05T16:56:24.209Z</time></trkpt><trkpt lat="51.875695" lon="-9.58389"><ele>12.0</ele><time>2026-05-05T16:56:25.21Z</time></trkpt><trkpt lat="51.875845" lon="-9.5838667"><ele>12.75</ele><time>2026-05-05T16:56:26.209Z</time></trkpt><trkpt lat="51.8759883" lon="-9.5838467"><ele>13.5</ele><time>2026-05-05T16:56:27.21Z</time></trkpt><trkpt lat="51.8761317" lon="-9.5838283"><ele>14.25</ele><time>2026-05-05T16:56:28.209Z</time></trkpt><trkpt lat="51.87627" lon="-9.5838133"><ele>15.0</ele><time>2026-05-05T16:56:29.21Z</time></trkpt><trkpt lat="51.8764083" lon="-9.58378"><ele>15.0</ele><time>2026-05-05T16:56:30.21Z</time></trkpt><trkpt lat="51.87655" lon="-9.5837317"><ele>15.0</ele><time>2026-05-05T16:56:31.21Z</time></trkpt><trkpt lat="51.8766817" lon="-9.5836933"><ele>15.0</ele><time>2026-05-05T16:56:32.21Z</time></trkpt><trkpt lat="51.8768233" lon="-9.5836733"><ele>15.0</ele><time>2026-05-05T16:56:33.21Z</time></trkpt><trkpt lat="51.876955" lon="-9.5836567"><ele>15.0</ele><time>2026-05-05T16:56:34.209Z</time></trkpt><trkpt lat="51.877095" lon="-9.5836683"><ele>15.0</ele><time>2026-05-05T16:56:35.209Z</time></trkpt><trkpt lat="51.8772217" lon="-9.5836783"><ele>15.0</ele><time>2026-05-05T16:56:36.21Z</time></trkpt><trkpt lat="51.8773317" lon="-9.5836733"><ele>15.0</ele><time>2026-05-05T16:56:37.209Z</time></trkpt><trkpt lat="51.87743" lon="-9.5836633"><ele>15.0</ele><time>2026-05-05T16:56:38.209Z</time></trkpt><trkpt lat="51.87753" lon="-9.5836567"><ele>15.0</ele><time>2026-05-05T16:56:39.21Z</time></trkpt><trkpt lat="51.8776167" lon="-9.58364"><ele>15.0</ele><time>2026-05-05T16:56:40.21Z</time></trkpt><trkpt lat="51.877695" lon="-9.5836133"><ele>15.0</ele><time>2026-05-05T16:56:41.209Z</time></trkpt><trkpt lat="51.877765" lon="-9.5835933"><ele>15.0</ele><time>2026-05-05T16:56:42.209Z</time></trkpt><trkpt lat="51.87783" lon="-9.5835617"><ele>15.0</ele><time>2026-05-05T16:56:43.21Z</time></trkpt><trkpt lat="51.8779217" lon="-9.58351"><ele>14.666666666666666</ele><time>2026-05-05T16:56:45.209Z</time></trkpt><trkpt lat="51.8779783" lon="-9.5834367"><ele>14.333333333333332</ele><time>2026-05-05T16:56:47.21Z</time></trkpt><trkpt lat="51.8780133" lon="-9.5833433"><ele>14.0</ele><time>2026-05-05T16:56:49.21Z</time></trkpt><trkpt lat="51.878035" lon="-9.5832033"><ele>13.666666666666666</ele><time>2026-05-05T16:56:51.21Z</time></trkpt><trkpt lat="51.8780717" lon="-9.5830217"><ele>13.333333333333332</ele><time>2026-05-05T16:56:53.21Z</time></trkpt><trkpt lat="51.8780967" lon="-9.5829217"><ele>13.0</ele><time>2026-05-05T16:56:54.21Z</time></trkpt><trkpt lat="51.8781383" lon="-9.5828233"><ele>13.0</ele><time>2026-05-05T16:56:55.21Z</time></trkpt><trkpt lat="51.8781933" lon="-9.5827167"><ele>13.0</ele><time>2026-05-05T16:56:56.21Z</time></trkpt><trkpt lat="51.8782483" lon="-9.5826117"><ele>13.0</ele><time>2026-05-05T16:56:57.209Z</time></trkpt><trkpt lat="51.8783033" lon="-9.5824983"><ele>13.0</ele><time>2026-05-05T16:56:58.21Z</time></trkpt><trkpt lat="51.8783617" lon="-9.582375"><ele>13.0</ele><time>2026-05-05T16:56:59.21Z</time></trkpt><trkpt lat="51.8784267" lon="-9.582245"><ele>12.8</ele><time>2026-05-05T16:57:00.21Z</time></trkpt><trkpt lat="51.8784933" lon="-9.5821133"><ele>12.600000000000001</ele><time>2026-05-05T16:57:01.209Z</time></trkpt><trkpt lat="51.8785567" lon="-9.581975"><ele>12.399999999999999</ele><time>2026-05-05T16:57:02.21Z</time></trkpt><trkpt lat="51.87862" lon="-9.58185"><ele>12.2</ele><time>2026-05-05T16:57:03.21Z</time></trkpt><trkpt lat="51.878675" lon="-9.5817317"><ele>12.0</ele><time>2026-05-05T16:57:04.209Z</time></trkpt><trkpt lat="51.8787383" lon="-9.5816467"><ele>12.0</ele><time>2026-05-05T16:57:05.21Z</time></trkpt><trkpt lat="51.8787833" lon="-9.581575"><ele>12.0</ele><time>2026-05-05T16:57:06.21Z</time></trkpt><trkpt lat="51.8788617" lon="-9.5814867"><ele>12.0</ele><time>2026-05-05T16:57:08.21Z</time></trkpt><trkpt lat="51.8789283" lon="-9.5814"><ele>12.0</ele><time>2026-05-05T16:57:10.21Z</time></trkpt><trkpt lat="51.8790083" lon="-9.5812883"><ele>12.0</ele><time>2026-05-05T16:57:12.21Z</time></trkpt><trkpt lat="51.8790917" lon="-9.5811417"><ele>12.0</ele><time>2026-05-05T16:57:14.21Z</time></trkpt><trkpt lat="51.8791217" lon="-9.58103"><ele>12.0</ele><time>2026-05-05T16:57:15.21Z</time></trkpt><trkpt lat="51.8791817" lon="-9.580925"><ele>12.0</ele><time>2026-05-05T16:57:16.209Z</time></trkpt><trkpt lat="51.879235" lon="-9.5807983"><ele>12.0</ele><time>2026-05-05T16:57:17.21Z</time></trkpt><trkpt lat="51.8792817" lon="-9.58065"><ele>12.0</ele><time>2026-05-05T16:57:18.21Z</time></trkpt><trkpt lat="51.8793367" lon="-9.5804983"><ele>12.0</ele><time>2026-05-05T16:57:19.21Z</time></trkpt><trkpt lat="51.8793833" lon="-9.58033"><ele>12.0</ele><time>2026-05-05T16:57:20.21Z</time></trkpt><trkpt lat="51.879425" lon="-9.5801633"><ele>12.0</ele><time>2026-05-05T16:57:21.21Z</time></trkpt><trkpt lat="51.8794667" lon="-9.5799967"><ele>12.0</ele><time>2026-05-05T16:57:22.21Z</time></trkpt><trkpt lat="51.8795117" lon="-9.57985"><ele>12.0</ele><time>2026-05-05T16:57:23.21Z</time></trkpt><trkpt lat="51.8795583" lon="-9.5797133"><ele>12.0</ele><time>2026-05-05T16:57:24.21Z</time></trkpt><trkpt lat="51.8796" lon="-9.5795767"><ele>12.0</ele><time>2026-05-05T16:57:25.21Z</time></trkpt><trkpt lat="51.8796383" lon="-9.57945"><ele>12.0</ele><time>2026-05-05T16:57:26.21Z</time></trkpt><trkpt lat="51.8796733" lon="-9.5793367"><ele>12.0</ele><time>2026-05-05T16:57:27.21Z</time></trkpt><trkpt lat="51.879715" lon="-9.5792383"><ele>12.0</ele><time>2026-05-05T16:57:28.21Z</time></trkpt><trkpt lat="51.8797517" lon="-9.5791267"><ele>12.0</ele><time>2026-05-05T16:57:29.21Z</time></trkpt><trkpt lat="51.8797933" lon="-9.579005"><ele>11.8</ele><time>2026-05-05T16:57:30.21Z</time></trkpt><trkpt lat="51.879835" lon="-9.57888"><ele>11.6</ele><time>2026-05-05T16:57:31.21Z</time></trkpt><trkpt lat="51.87988" lon="-9.5787567"><ele>11.4</ele><time>2026-05-05T16:57:32.21Z</time></trkpt><trkpt lat="51.8799317" lon="-9.5786267"><ele>11.200000000000001</ele><time>2026-05-05T16:57:33.21Z</time></trkpt><trkpt lat="51.879985" lon="-9.5785033"><ele>11.0</ele><time>2026-05-05T16:57:34.21Z</time></trkpt><trkpt lat="51.8800367" lon="-9.57838"><ele>11.600000000000001</ele><time>2026-05-05T16:57:35.21Z</time></trkpt><trkpt lat="51.880105" lon="-9.57825"><ele>12.2</ele><time>2026-05-05T16:57:36.21Z</time></trkpt><trkpt lat="51.88017" lon="-9.5781183"><ele>12.799999999999999</ele><time>2026-05-05T16:57:37.209Z</time></trkpt><trkpt lat="51.8802217" lon="-9.5780033"><ele>13.399999999999999</ele><time>2026-05-05T16:57:38.21Z</time></trkpt><trkpt lat="51.8802733" lon="-9.5778967"><ele>14.0</ele><time>2026-05-05T16:57:39.21Z</time></trkpt><trkpt lat="51.8803217" lon="-9.5778017"><ele>14.000000000000002</ele><time>2026-05-05T16:57:40.21Z</time></trkpt><trkpt lat="51.8803633" lon="-9.5777"><ele>14.0</ele><time>2026-05-05T16:57:41.21Z</time></trkpt><trkpt lat="51.880395" lon="-9.57758"><ele>14.0</ele><time>2026-05-05T16:57:42.21Z</time></trkpt><trkpt lat="51.88043" lon="-9.57748"><ele>14.0</ele><time>2026-05-05T16:57:43.21Z</time></trkpt><trkpt lat="51.880465" lon="-9.5773817"><ele>14.000000000000002</ele><time>2026-05-05T16:57:44.21Z</time></trkpt><trkpt lat="51.880495" lon="-9.57728"><ele>14.0</ele><time>2026-05-05T16:57:45.21Z</time></trkpt><trkpt lat="51.88055" lon="-9.57711"><ele>14.000000000000002</ele><time>2026-05-05T16:57:47.21Z</time></trkpt><trkpt lat="51.8806" lon="-9.576985"><ele>14.0</ele><time>2026-05-05T16:57:49.21Z</time></trkpt><trkpt lat="51.880675" lon="-9.5770067"><ele>14.0</ele><time>2026-05-05T16:57:54.21Z</time></trkpt><trkpt lat="51.880745" lon="-9.5770817"><ele>14.0</ele><time>2026-05-05T16:57:57.21Z</time></trkpt><trkpt lat="51.8807967" lon="-9.5771883"><ele>14.000000000000002</ele><time>2026-05-05T16:58:00.209Z</time></trkpt><trkpt lat="51.8808283" lon="-9.5772783"><ele>14.0</ele><time>2026-05-05T16:58:03.21Z</time></trkpt><trkpt lat="51.88089" lon="-9.57734"><ele>14.0</ele><time>2026-05-05T16:58:20.209Z</time></trkpt><trkpt lat="51.8808" lon="-9.577405"><ele>13.999999999999998</ele><time>2026-05-05T17:17:42.208Z</time></trkpt><trkpt lat="51.8807483" lon="-9.5773117"><ele>13.999999999999998</ele><time>2026-05-05T17:17:45.208Z</time></trkpt><trkpt lat="51.8808367" lon="-9.5773917"><ele>14.0</ele><time>2026-05-05T17:17:54.208Z</time></trkpt><trkpt lat="51.8809133" lon="-9.5775183"><ele>14.0</ele><time>2026-05-05T17:17:59.208Z</time></trkpt><trkpt lat="51.8809583" lon="-9.5776283"><ele>14.000000000000002</ele><time>2026-05-05T17:18:03.207Z</time></trkpt><trkpt lat="51.8808817" lon="-9.5776467"><ele>14.0</ele><time>2026-05-05T17:18:10.208Z</time></trkpt><trkpt lat="51.8808717" lon="-9.5777633"><ele>14.0</ele><time>2026-05-05T17:18:12.207Z</time></trkpt><trkpt lat="51.8808383" lon="-9.5776667"><ele>14.0</ele><time>2026-05-05T17:18:26.208Z</time></trkpt><trkpt lat="51.8807967" lon="-9.5775183"><ele>14.000000000000002</ele><time>2026-05-05T17:18:28.208Z</time></trkpt><trkpt lat="51.8807833" lon="-9.5774"><ele>14.0</ele><time>2026-05-05T17:18:30.207Z</time></trkpt><trkpt lat="51.88083" lon="-9.5773133"><ele>14.0</ele><time>2026-05-05T17:18:33.208Z</time></trkpt><trkpt lat="51.8808867" lon="-9.577205"><ele>13.999999999999998</ele><time>2026-05-05T17:18:36.208Z</time></trkpt><trkpt lat="51.88095" lon="-9.5772417"><ele>13.999999999999998</ele><time>2026-05-05T17:18:43.208Z</time></trkpt><trkpt lat="51.8808867" lon="-9.577155"><ele>14.0</ele><time>2026-05-05T17:18:50.208Z</time></trkpt><trkpt lat="51.88095" lon="-9.57711"><ele>14.0</ele><time>2026-05-05T17:18:52.208Z</time></trkpt><trkpt lat="51.8807688" lon="-9.5768414"><ele>14.0</ele><time>2026-05-05T17:19:56.903Z</time></trkpt><trkpt lat="51.880898" lon="-9.5770564"><ele>14.0</ele><time>2026-05-05T17:22:57.798Z</time></trkpt><trkpt lat="51.8809887" lon="-9.5772117"><ele>14.0</ele><time>2026-05-05T17:23:05.683Z</time></trkpt><trkpt lat="51.8808829" lon="-9.5770076"><ele>14.0</ele><time>2026-05-05T17:25:02.876Z</time></trkpt><trkpt lat="51.8807945" lon="-9.5768736"><ele>14.0</ele><time>2026-05-05T17:25:09.335Z</time></trkpt><trkpt lat="51.8805194" lon="-9.5770764"><ele>14.0</ele><time>2026-05-05T17:48:49.217Z</time></trkpt><trkpt lat="51.8806227" lon="-9.5772149"><ele>14.0</ele><time>2026-05-05T17:48:54.217Z</time></trkpt><trkpt lat="51.8807044" lon="-9.5772826"><ele>13.999999999999998</ele><time>2026-05-05T17:48:55.216Z</time></trkpt><trkpt lat="51.8808035" lon="-9.5773432"><ele>13.999999999999998</ele><time>2026-05-05T17:48:56.216Z</time></trkpt><trkpt lat="51.8808951" lon="-9.5773797"><ele>14.0</ele><time>2026-05-05T17:48:58.216Z</time></trkpt><trkpt lat="51.8809881" lon="-9.5774426"><ele>14.0</ele><time>2026-05-05T17:52:42.217Z</time></trkpt><trkpt lat="51.8809557" lon="-9.5772114"><ele>14.0</ele><time>2026-05-05T18:02:17.217Z</time></trkpt><trkpt lat="51.8809699" lon="-9.5771102"><ele>13.999999999999998</ele><time>2026-05-05T18:04:12.217Z</time></trkpt><trkpt lat="51.8808727" lon="-9.5770181"><ele>13.999999999999998</ele><time>2026-05-05T18:07:00.217Z</time></trkpt><trkpt lat="51.8808729" lon="-9.5768781"><ele>14.0</ele><time>2026-05-05T18:10:52.217Z</time></trkpt><trkpt lat="51.8809789" lon="-9.5768396"><ele>14.0</ele><time>2026-05-05T18:16:18.216Z</time></trkpt><trkpt lat="51.8810601" lon="-9.5768454"><ele>14.000000000000002</ele><time>2026-05-05T18:19:08.217Z</time></trkpt><trkpt lat="51.8810821" lon="-9.5769567"><ele>14.0</ele><time>2026-05-05T18:42:06.218Z</time></trkpt><trkpt lat="51.8809509" lon="-9.5769864"><ele>14.0</ele><time>2026-05-05T18:58:56.22Z</time></trkpt><trkpt lat="51.8809748" lon="-9.5771185"><ele>14.0</ele><time>2026-05-05T19:45:57.222Z</time></trkpt><trkpt lat="51.8810189" lon="-9.5770368"><ele>14.000000000000002</ele><time>2026-05-05T19:52:16.223Z</time></trkpt><trkpt lat="51.8809383" lon="-9.5769759"><ele>14.0</ele><time>2026-05-05T20:14:45.226Z</time></trkpt><trkpt lat="51.8808806" lon="-9.5770495"><ele>13.833333333333334</ele><time>2026-05-05T20:34:01.228Z</time></trkpt><trkpt lat="51.8809647" lon="-9.5770063"><ele>13.666666666666668</ele><time>2026-05-05T20:34:39.228Z</time></trkpt><trkpt lat="51.8810646" lon="-9.5770301"><ele>13.5</ele><time>2026-05-05T20:45:22.229Z</time></trkpt><trkpt lat="51.8811335" lon="-9.5769775"><ele>13.333333333333332</ele><time>2026-05-05T20:52:29.229Z</time></trkpt><trkpt lat="51.8811272" lon="-9.5771033"><ele>13.166666666666666</ele><time>2026-05-05T20:52:34.229Z</time></trkpt><trkpt lat="51.8810894" lon="-9.5772051"><ele>13.0</ele><time>2026-05-05T20:52:38.229Z</time></trkpt><trkpt lat="51.8810257" lon="-9.5771923"><ele>13.2</ele><time>2026-05-05T20:52:42.228Z</time></trkpt><trkpt lat="51.8809599" lon="-9.5772369"><ele>13.4</ele><time>2026-05-05T20:52:50.229Z</time></trkpt><trkpt lat="51.8809056" lon="-9.5773055"><ele>13.599999999999998</ele><time>2026-05-05T20:52:53.228Z</time></trkpt><trkpt lat="51.8808346" lon="-9.5773685"><ele>13.799999999999999</ele><time>2026-05-05T20:52:56.229Z</time></trkpt><trkpt lat="51.8807718" lon="-9.5773585"><ele>14.0</ele><time>2026-05-05T20:52:58.229Z</time></trkpt><trkpt lat="51.8808709" lon="-9.5770526"><ele>14.0</ele><time>2026-05-05T20:53:00.229Z</time></trkpt><trkpt lat="51.8809513" lon="-9.5770297"><ele>13.999999999999998</ele><time>2026-05-05T20:54:02.229Z</time></trkpt><trkpt lat="51.8810805" lon="-9.576949"><ele>13.999999999999998</ele><time>2026-05-05T20:57:42.228Z</time></trkpt><trkpt lat="51.8809801" lon="-9.5769982"><ele>14.0</ele><time>2026-05-05T21:01:30.229Z</time></trkpt><trkpt lat="51.8809255" lon="-9.5770759"><ele>14.0</ele><time>2026-05-05T21:02:15.229Z</time></trkpt><trkpt lat="51.8809765" lon="-9.5770081"><ele>14.0</ele><time>2026-05-05T21:02:28.229Z</time></trkpt><trkpt lat="51.8808119" lon="-9.5772111"><ele>14.0</ele><time>2026-05-05T21:10:53.21Z</time></trkpt><trkpt lat="51.8807374" lon="-9.5772557"><ele>14.0</ele><time>2026-05-05T21:10:55.21Z</time></trkpt><trkpt lat="51.8808082" lon="-9.5771714"><ele>14.0</ele><time>2026-05-05T21:11:05.209Z</time></trkpt><trkpt lat="51.8808751" lon="-9.5771109"><ele>13.833333333333334</ele><time>2026-05-05T21:11:07.21Z</time></trkpt><trkpt lat="51.8809435" lon="-9.5770769"><ele>13.666666666666668</ele><time>2026-05-05T21:11:11.209Z</time></trkpt><trkpt lat="51.8810274" lon="-9.5770666"><ele>13.5</ele><time>2026-05-05T21:11:14.21Z</time></trkpt><trkpt lat="51.8811194" lon="-9.5770021"><ele>13.333333333333332</ele><time>2026-05-05T21:11:18.209Z</time></trkpt><trkpt lat="51.8812078" lon="-9.5769403"><ele>13.166666666666666</ele><time>2026-05-05T21:11:20.209Z</time></trkpt><trkpt lat="51.8812775" lon="-9.5768889"><ele>13.0</ele><time>2026-05-05T21:11:22.209Z</time></trkpt><trkpt lat="51.880989" lon="-9.5771954"><ele>16.0</ele><time>2026-05-05T21:11:35.558Z</time></trkpt><trkpt lat="51.8809104" lon="-9.5770832"><ele>14.0</ele><time>2026-05-05T21:11:42.923Z</time></trkpt></trkseg></trk></gpx>